<?xml version='1.0' encoding='UTF-8'?><gpx version="1.1" creator="JPX - https://github.com/jenetics/jpx" xmlns="http://www.topografix.com/GPX/1/1"><trk><trkseg><trkpt lat="45.7063374" lon="11.5648544"><ele>110.0</ele><time>2026-04-26T08:28:48.041Z</time></trkpt><trkpt lat="45.7062783" lon="11.5649161"><ele>110.0</ele><time>2026-04-26T08:28:54.488Z</time></trkpt><trkpt lat="45.7063078" lon="11.5650211"><ele>110.0</ele><time>2026-04-26T08:29:04.064Z</time></trkpt><trkpt lat="45.7062061" lon="11.5647613"><ele>110.0</ele><time>2026-04-26T08:38:01.228Z</time></trkpt><trkpt lat="45.7063908" lon="11.5648077"><ele>110.0</ele><time>2026-04-26T08:38:12.651Z</time></trkpt><trkpt lat="45.7063084" lon="11.5645739"><ele>110.0</ele><time>2026-04-26T08:38:32.622Z</time></trkpt><trkpt lat="45.7063098" lon="11.5646641"><ele>110.0</ele><time>2026-04-26T08:38:42.619Z</time></trkpt><trkpt lat="45.7062569" lon="11.5647204"><ele>110.0</ele><time>2026-04-26T08:42:03.625Z</time></trkpt><trkpt lat="45.7062221" lon="11.5648362"><ele>110.0</ele><time>2026-04-26T08:43:37.631Z</time></trkpt><trkpt lat="45.7062054" lon="11.5649591"><ele>109.99999999999999</ele><time>2026-04-26T08:43:38.625Z</time></trkpt><trkpt lat="45.7061887" lon="11.5650747"><ele>110.0</ele><time>2026-04-26T08:43:39.615Z</time></trkpt><trkpt lat="45.7061641" lon="11.5651855"><ele>110.0</ele><time>2026-04-26T08:43:40.615Z</time></trkpt><trkpt lat="45.7061406" lon="11.5652861"><ele>110.0</ele><time>2026-04-26T08:43:41.637Z</time></trkpt><trkpt lat="45.7061197" lon="11.565378"><ele>109.99999999999999</ele><time>2026-04-26T08:43:42.627Z</time></trkpt><trkpt lat="45.7061036" lon="11.5654867"><ele>110.0</ele><time>2026-04-26T08:43:43.628Z</time></trkpt><trkpt lat="45.7060865" lon="11.5655805"><ele>109.6</ele><time>2026-04-26T08:43:44.613Z</time></trkpt><trkpt lat="45.7060681" lon="11.5657548"><ele>109.2</ele><time>2026-04-26T08:43:46.627Z</time></trkpt><trkpt lat="45.7060597" lon="11.5658925"><ele>108.80000000000001</ele><time>2026-04-26T08:43:48.636Z</time></trkpt><trkpt lat="45.7060631" lon="11.5660259"><ele>108.4</ele><time>2026-04-26T08:43:50.626Z</time></trkpt><trkpt lat="45.706066" lon="11.5661568"><ele>108.0</ele><time>2026-04-26T08:43:52.626Z</time></trkpt><trkpt lat="45.7060691" lon="11.5663283"><ele>108.0</ele><time>2026-04-26T08:43:54.623Z</time></trkpt><trkpt lat="45.7060865" lon="11.5664465"><ele>108.00000000000001</ele><time>2026-04-26T08:43:55.625Z</time></trkpt><trkpt lat="45.7061045" lon="11.5665909"><ele>108.00000000000001</ele><time>2026-04-26T08:43:56.613Z</time></trkpt><trkpt lat="45.7061266" lon="11.5667388"><ele>108.0</ele><time>2026-04-26T08:43:57.625Z</time></trkpt><trkpt lat="45.706152" lon="11.5668856"><ele>108.0</ele><time>2026-04-26T08:43:58.613Z</time></trkpt><trkpt lat="45.7061763" lon="11.5670222"><ele>107.80000000000001</ele><time>2026-04-26T08:43:59.634Z</time></trkpt><trkpt lat="45.7061992" lon="11.5671525"><ele>107.60000000000001</ele><time>2026-04-26T08:44:00.618Z</time></trkpt><trkpt lat="45.706231" lon="11.567299"><ele>107.39999999999999</ele><time>2026-04-26T08:44:01.621Z</time></trkpt><trkpt lat="45.7062543" lon="11.5674463"><ele>107.19999999999999</ele><time>2026-04-26T08:44:02.633Z</time></trkpt><trkpt lat="45.7062814" lon="11.567591"><ele>107.0</ele><time>2026-04-26T08:44:03.633Z</time></trkpt><trkpt lat="45.7063123" lon="11.5677436"><ele>106.5</ele><time>2026-04-26T08:44:04.628Z</time></trkpt><trkpt lat="45.7063387" lon="11.5679086"><ele>106.0</ele><time>2026-04-26T08:44:05.633Z</time></trkpt><trkpt lat="45.7063711" lon="11.5680786"><ele>105.5</ele><time>2026-04-26T08:44:06.628Z</time></trkpt><trkpt lat="45.7064038" lon="11.5682501"><ele>105.0</ele><time>2026-04-26T08:44:07.629Z</time></trkpt><trkpt lat="45.7064309" lon="11.568406"><ele>105.0</ele><time>2026-04-26T08:44:08.63Z</time></trkpt><trkpt lat="45.7064563" lon="11.5685446"><ele>105.0</ele><time>2026-04-26T08:44:09.63Z</time></trkpt><trkpt lat="45.7064872" lon="11.5686839"><ele>105.0</ele><time>2026-04-26T08:44:10.612Z</time></trkpt><trkpt lat="45.7065145" lon="11.5688292"><ele>105.0</ele><time>2026-04-26T08:44:11.631Z</time></trkpt><trkpt lat="45.7065362" lon="11.5690011"><ele>105.0</ele><time>2026-04-26T08:44:12.632Z</time></trkpt><trkpt lat="45.7065296" lon="11.5691895"><ele>105.5</ele><time>2026-04-26T08:44:13.611Z</time></trkpt><trkpt lat="45.706511" lon="11.5693876"><ele>106.0</ele><time>2026-04-26T08:44:14.627Z</time></trkpt><trkpt lat="45.7065235" lon="11.570867"><ele>107.0</ele><time>2026-04-26T08:44:21.622Z</time></trkpt><trkpt lat="45.7065802" lon="11.5710461"><ele>108.0</ele><time>2026-04-26T08:44:22.625Z</time></trkpt><trkpt lat="45.7066622" lon="11.5712129"><ele>109.0</ele><time>2026-04-26T08:44:23.633Z</time></trkpt><trkpt lat="45.7067661" lon="11.5713597"><ele>110.0</ele><time>2026-04-26T08:44:24.63Z</time></trkpt><trkpt lat="45.7068853" lon="11.5714866"><ele>111.5</ele><time>2026-04-26T08:44:25.621Z</time></trkpt><trkpt lat="45.7070132" lon="11.571595"><ele>113.0</ele><time>2026-04-26T08:44:26.633Z</time></trkpt><trkpt lat="45.7071456" lon="11.571686"><ele>114.5</ele><time>2026-04-26T08:44:27.621Z</time></trkpt><trkpt lat="45.7072837" lon="11.5717734"><ele>116.0</ele><time>2026-04-26T08:44:28.624Z</time></trkpt><trkpt lat="45.707426" lon="11.571858"><ele>116.0</ele><time>2026-04-26T08:44:29.627Z</time></trkpt><trkpt lat="45.7075757" lon="11.5719402"><ele>116.0</ele><time>2026-04-26T08:44:30.624Z</time></trkpt><trkpt lat="45.7077274" lon="11.5720135"><ele>116.0</ele><time>2026-04-26T08:44:31.624Z</time></trkpt><trkpt lat="45.7078876" lon="11.5720835"><ele>116.66666666666666</ele><time>2026-04-26T08:44:32.626Z</time></trkpt><trkpt lat="45.7080471" lon="11.572146"><ele>117.33333333333334</ele><time>2026-04-26T08:44:33.643Z</time></trkpt><trkpt lat="45.7082104" lon="11.572195"><ele>118.0</ele><time>2026-04-26T08:44:34.626Z</time></trkpt><trkpt lat="45.7083773" lon="11.5722382"><ele>118.0</ele><time>2026-04-26T08:44:35.634Z</time></trkpt><trkpt lat="45.7085449" lon="11.5722749"><ele>118.0</ele><time>2026-04-26T08:44:36.619Z</time></trkpt><trkpt lat="45.7087122" lon="11.5723024"><ele>118.0</ele><time>2026-04-26T08:44:37.62Z</time></trkpt><trkpt lat="45.7088725" lon="11.5723187"><ele>118.75</ele><time>2026-04-26T08:44:38.631Z</time></trkpt><trkpt lat="45.7090116" lon="11.5723342"><ele>119.5</ele><time>2026-04-26T08:44:39.617Z</time></trkpt><trkpt lat="45.70915" lon="11.5723522"><ele>120.25</ele><time>2026-04-26T08:44:40.618Z</time></trkpt><trkpt lat="45.7092793" lon="11.5723745"><ele>121.0</ele><time>2026-04-26T08:44:41.62Z</time></trkpt><trkpt lat="45.7094085" lon="11.5723848"><ele>123.75</ele><time>2026-04-26T08:44:42.631Z</time></trkpt><trkpt lat="45.7095419" lon="11.5724137"><ele>126.5</ele><time>2026-04-26T08:44:43.629Z</time></trkpt><trkpt lat="45.7096634" lon="11.5724578"><ele>129.25</ele><time>2026-04-26T08:44:44.626Z</time></trkpt><trkpt lat="45.7097724" lon="11.5725441"><ele>132.0</ele><time>2026-04-26T08:44:45.638Z</time></trkpt><trkpt lat="45.709844" lon="11.5726906"><ele>131.0</ele><time>2026-04-26T08:44:46.624Z</time></trkpt><trkpt lat="45.7099062" lon="11.5728699"><ele>130.0</ele><time>2026-04-26T08:44:47.628Z</time></trkpt><trkpt lat="45.7099467" lon="11.5730354"><ele>129.0</ele><time>2026-04-26T08:44:48.626Z</time></trkpt><trkpt lat="45.7099951" lon="11.5731805"><ele>128.0</ele><time>2026-04-26T08:44:49.636Z</time></trkpt><trkpt lat="45.710051" lon="11.5733037"><ele>128.0</ele><time>2026-04-26T08:44:50.621Z</time></trkpt><trkpt lat="45.7101218" lon="11.5734253"><ele>128.0</ele><time>2026-04-26T08:44:51.63Z</time></trkpt><trkpt lat="45.7101875" lon="11.5735629"><ele>128.0</ele><time>2026-04-26T08:44:52.633Z</time></trkpt><trkpt lat="45.7102372" lon="11.5737305"><ele>128.0</ele><time>2026-04-26T08:44:53.619Z</time></trkpt><trkpt lat="45.7102802" lon="11.5739244"><ele>129.5</ele><time>2026-04-26T08:44:54.629Z</time></trkpt><trkpt lat="45.7103156" lon="11.5741233"><ele>131.0</ele><time>2026-04-26T08:44:55.614Z</time></trkpt><trkpt lat="45.7103594" lon="11.5743211"><ele>132.5</ele><time>2026-04-26T08:44:56.624Z</time></trkpt><trkpt lat="45.7104043" lon="11.5745011"><ele>134.0</ele><time>2026-04-26T08:44:57.613Z</time></trkpt><trkpt lat="45.7104569" lon="11.5746899"><ele>134.0</ele><time>2026-04-26T08:44:58.63Z</time></trkpt><trkpt lat="45.7105182" lon="11.574871"><ele>134.0</ele><time>2026-04-26T08:44:59.617Z</time></trkpt><trkpt lat="45.7105843" lon="11.5750462"><ele>134.0</ele><time>2026-04-26T08:45:00.64Z</time></trkpt><trkpt lat="45.7106551" lon="11.5752195"><ele>134.0</ele><time>2026-04-26T08:45:01.635Z</time></trkpt><trkpt lat="45.7107348" lon="11.5753859"><ele>133.5</ele><time>2026-04-26T08:45:02.615Z</time></trkpt><trkpt lat="45.7108221" lon="11.5755403"><ele>133.0</ele><time>2026-04-26T08:45:03.616Z</time></trkpt><trkpt lat="45.710941" lon="11.5756633"><ele>132.5</ele><time>2026-04-26T08:45:04.629Z</time></trkpt><trkpt lat="45.7110788" lon="11.5757451"><ele>132.0</ele><time>2026-04-26T08:45:05.628Z</time></trkpt><trkpt lat="45.7112267" lon="11.5757866"><ele>134.0</ele><time>2026-04-26T08:45:06.624Z</time></trkpt><trkpt lat="45.7113778" lon="11.5757898"><ele>136.0</ele><time>2026-04-26T08:45:07.626Z</time></trkpt><trkpt lat="45.7115375" lon="11.5757658"><ele>138.0</ele><time>2026-04-26T08:45:08.623Z</time></trkpt><trkpt lat="45.711691" lon="11.5757331"><ele>138.0</ele><time>2026-04-26T08:45:09.627Z</time></trkpt><trkpt lat="45.7118488" lon="11.5756873"><ele>138.0</ele><time>2026-04-26T08:45:10.623Z</time></trkpt><trkpt lat="45.7120174" lon="11.5756398"><ele>138.0</ele><time>2026-04-26T08:45:11.625Z</time></trkpt><trkpt lat="45.7121886" lon="11.5755939"><ele>140.66666666666666</ele><time>2026-04-26T08:45:12.628Z</time></trkpt><trkpt lat="45.7123567" lon="11.5755475"><ele>143.33333333333331</ele><time>2026-04-26T08:45:13.625Z</time></trkpt><trkpt lat="45.7125228" lon="11.5755032"><ele>146.0</ele><time>2026-04-26T08:45:14.62Z</time></trkpt><trkpt lat="45.7126852" lon="11.5754658"><ele>146.33333333333331</ele><time>2026-04-26T08:45:15.621Z</time></trkpt><trkpt lat="45.7128463" lon="11.5754166"><ele>146.66666666666666</ele><time>2026-04-26T08:45:16.626Z</time></trkpt><trkpt lat="45.713002" lon="11.5753469"><ele>147.0</ele><time>2026-04-26T08:45:17.623Z</time></trkpt><trkpt lat="45.7131462" lon="11.5752534"><ele>150.66666666666666</ele><time>2026-04-26T08:45:18.624Z</time></trkpt><trkpt lat="45.7132938" lon="11.5751452"><ele>154.33333333333331</ele><time>2026-04-26T08:45:19.625Z</time></trkpt><trkpt lat="45.7134471" lon="11.5750421"><ele>158.0</ele><time>2026-04-26T08:45:20.63Z</time></trkpt><trkpt lat="45.713602" lon="11.5749402"><ele>158.33333333333331</ele><time>2026-04-26T08:45:21.631Z</time></trkpt><trkpt lat="45.7137535" lon="11.5748401"><ele>158.66666666666666</ele><time>2026-04-26T08:45:22.628Z</time></trkpt><trkpt lat="45.7138989" lon="11.5747468"><ele>159.0</ele><time>2026-04-26T08:45:23.618Z</time></trkpt><trkpt lat="45.714039" lon="11.5746708"><ele>159.0</ele><time>2026-04-26T08:45:24.621Z</time></trkpt><trkpt lat="45.7141791" lon="11.5746281"><ele>159.0</ele><time>2026-04-26T08:45:25.622Z</time></trkpt><trkpt lat="45.7143245" lon="11.5746112"><ele>159.0</ele><time>2026-04-26T08:45:26.619Z</time></trkpt><trkpt lat="45.7144622" lon="11.5746264"><ele>159.0</ele><time>2026-04-26T08:45:27.619Z</time></trkpt><trkpt lat="45.7146054" lon="11.5746676"><ele>159.25</ele><time>2026-04-26T08:45:28.617Z</time></trkpt><trkpt lat="45.7147436" lon="11.574719"><ele>159.5</ele><time>2026-04-26T08:45:29.613Z</time></trkpt><trkpt lat="45.7148789" lon="11.5747677"><ele>159.75</ele><time>2026-04-26T08:45:30.63Z</time></trkpt><trkpt lat="45.7150159" lon="11.5748142"><ele>160.0</ele><time>2026-04-26T08:45:31.615Z</time></trkpt><trkpt lat="45.7152967" lon="11.5749126"><ele>160.0</ele><time>2026-04-26T08:45:33.622Z</time></trkpt><trkpt lat="45.7154343" lon="11.5749663"><ele>160.0</ele><time>2026-04-26T08:45:34.623Z</time></trkpt><trkpt lat="45.7155785" lon="11.5750148"><ele>160.0</ele><time>2026-04-26T08:45:35.625Z</time></trkpt><trkpt lat="45.7157299" lon="11.5750577"><ele>160.0</ele><time>2026-04-26T08:45:36.627Z</time></trkpt><trkpt lat="45.7158789" lon="11.5750984"><ele>160.0</ele><time>2026-04-26T08:45:37.625Z</time></trkpt><trkpt lat="45.7160261" lon="11.5751502"><ele>160.0</ele><time>2026-04-26T08:45:38.62Z</time></trkpt><trkpt lat="45.7161809" lon="11.5752059"><ele>160.0</ele><time>2026-04-26T08:45:39.632Z</time></trkpt><trkpt lat="45.7163299" lon="11.5752702"><ele>161.0</ele><time>2026-04-26T08:45:40.611Z</time></trkpt><trkpt lat="45.7164777" lon="11.5753644"><ele>162.0</ele><time>2026-04-26T08:45:41.633Z</time></trkpt><trkpt lat="45.7166093" lon="11.5754818"><ele>163.0</ele><time>2026-04-26T08:45:42.629Z</time></trkpt><trkpt lat="45.7168877" lon="11.5757276"><ele>168.5</ele><time>2026-04-26T08:45:44.628Z</time></trkpt><trkpt lat="45.71705" lon="11.575784"><ele>174.0</ele><time>2026-04-26T08:45:45.629Z</time></trkpt><trkpt lat="45.7173944" lon="11.5758335"><ele>174.0</ele><time>2026-04-26T08:45:47.628Z</time></trkpt><trkpt lat="45.7175774" lon="11.5758489"><ele>174.0</ele><time>2026-04-26T08:45:48.622Z</time></trkpt><trkpt lat="45.7177511" lon="11.5758712"><ele>174.0</ele><time>2026-04-26T08:45:49.625Z</time></trkpt><trkpt lat="45.7179238" lon="11.5759196"><ele>180.5</ele><time>2026-04-26T08:45:50.621Z</time></trkpt><trkpt lat="45.7181027" lon="11.5759645"><ele>187.0</ele><time>2026-04-26T08:45:51.633Z</time></trkpt><trkpt lat="45.7186166" lon="11.5760935"><ele>186.66666666666669</ele><time>2026-04-26T08:45:54.621Z</time></trkpt><trkpt lat="45.7187814" lon="11.5761236"><ele>186.33333333333334</ele><time>2026-04-26T08:45:55.622Z</time></trkpt><trkpt lat="45.7189334" lon="11.5761729"><ele>186.0</ele><time>2026-04-26T08:45:56.625Z</time></trkpt><trkpt lat="45.7190826" lon="11.5762185"><ele>186.0</ele><time>2026-04-26T08:45:57.61Z</time></trkpt><trkpt lat="45.7192314" lon="11.5762607"><ele>186.0</ele><time>2026-04-26T08:45:58.623Z</time></trkpt><trkpt lat="45.7193799" lon="11.5763213"><ele>186.0</ele><time>2026-04-26T08:45:59.614Z</time></trkpt><trkpt lat="45.7195394" lon="11.5764123"><ele>188.0</ele><time>2026-04-26T08:46:00.623Z</time></trkpt><trkpt lat="45.7196945" lon="11.5765266"><ele>190.0</ele><time>2026-04-26T08:46:01.627Z</time></trkpt><trkpt lat="45.7198427" lon="11.5766605"><ele>192.0</ele><time>2026-04-26T08:46:02.627Z</time></trkpt><trkpt lat="45.719988" lon="11.5768099"><ele>192.0</ele><time>2026-04-26T08:46:03.638Z</time></trkpt><trkpt lat="45.7201269" lon="11.5769783"><ele>192.0</ele><time>2026-04-26T08:46:04.627Z</time></trkpt><trkpt lat="45.7202654" lon="11.577157"><ele>192.0</ele><time>2026-04-26T08:46:05.633Z</time></trkpt><trkpt lat="45.7203982" lon="11.5773393"><ele>192.0</ele><time>2026-04-26T08:46:06.616Z</time></trkpt><trkpt lat="45.7205257" lon="11.5775321"><ele>192.0</ele><time>2026-04-26T08:46:07.611Z</time></trkpt><trkpt lat="45.7206568" lon="11.5777088"><ele>192.0</ele><time>2026-04-26T08:46:08.631Z</time></trkpt><trkpt lat="45.7207958" lon="11.5778638"><ele>192.0</ele><time>2026-04-26T08:46:09.615Z</time></trkpt><trkpt lat="45.7209475" lon="11.5780037"><ele>192.0</ele><time>2026-04-26T08:46:10.624Z</time></trkpt><trkpt lat="45.7211031" lon="11.5781304"><ele>192.0</ele><time>2026-04-26T08:46:11.617Z</time></trkpt><trkpt lat="45.7212595" lon="11.5782389"><ele>193.66666666666669</ele><time>2026-04-26T08:46:12.631Z</time></trkpt><trkpt lat="45.7214126" lon="11.5783481"><ele>195.33333333333334</ele><time>2026-04-26T08:46:13.619Z</time></trkpt><trkpt lat="45.7215628" lon="11.5784603"><ele>197.0</ele><time>2026-04-26T08:46:14.621Z</time></trkpt><trkpt lat="45.7217045" lon="11.5785813"><ele>195.0</ele><time>2026-04-26T08:46:15.621Z</time></trkpt><trkpt lat="45.7218455" lon="11.5787324"><ele>193.0</ele><time>2026-04-26T08:46:16.628Z</time></trkpt><trkpt lat="45.7219655" lon="11.5789121"><ele>191.0</ele><time>2026-04-26T08:46:17.621Z</time></trkpt><trkpt lat="45.7220701" lon="11.5791052"><ele>195.0</ele><time>2026-04-26T08:46:18.632Z</time></trkpt><trkpt lat="45.7221795" lon="11.5793035"><ele>199.0</ele><time>2026-04-26T08:46:19.623Z</time></trkpt><trkpt lat="45.7223028" lon="11.5794926"><ele>203.0</ele><time>2026-04-26T08:46:20.655Z</time></trkpt><trkpt lat="45.7224408" lon="11.5796535"><ele>203.0</ele><time>2026-04-26T08:46:21.624Z</time></trkpt><trkpt lat="45.7226026" lon="11.5797934"><ele>203.0</ele><time>2026-04-26T08:46:22.629Z</time></trkpt><trkpt lat="45.7227662" lon="11.579913"><ele>203.0</ele><time>2026-04-26T08:46:23.628Z</time></trkpt><trkpt lat="45.7229292" lon="11.5800222"><ele>205.66666666666669</ele><time>2026-04-26T08:46:24.629Z</time></trkpt><trkpt lat="45.7231021" lon="11.5801164"><ele>208.33333333333331</ele><time>2026-04-26T08:46:25.631Z</time></trkpt><trkpt lat="45.7232702" lon="11.5802255"><ele>211.0</ele><time>2026-04-26T08:46:26.622Z</time></trkpt><trkpt lat="45.7234414" lon="11.5803343"><ele>211.33333333333331</ele><time>2026-04-26T08:46:27.624Z</time></trkpt><trkpt lat="45.7236177" lon="11.5804438"><ele>211.66666666666669</ele><time>2026-04-26T08:46:28.634Z</time></trkpt><trkpt lat="45.7237948" lon="11.5805553"><ele>212.0</ele><time>2026-04-26T08:46:29.623Z</time></trkpt><trkpt lat="45.7239699" lon="11.5806683"><ele>212.0</ele><time>2026-04-26T08:46:30.61Z</time></trkpt><trkpt lat="45.7241433" lon="11.5807698"><ele>212.0</ele><time>2026-04-26T08:46:31.627Z</time></trkpt><trkpt lat="45.7243" lon="11.5808956"><ele>212.0</ele><time>2026-04-26T08:46:32.621Z</time></trkpt><trkpt lat="45.7244418" lon="11.5810615"><ele>215.0</ele><time>2026-04-26T08:46:33.623Z</time></trkpt><trkpt lat="45.7245351" lon="11.5812961"><ele>218.0</ele><time>2026-04-26T08:46:34.621Z</time></trkpt><trkpt lat="45.724613" lon="11.5815572"><ele>221.0</ele><time>2026-04-26T08:46:35.626Z</time></trkpt><trkpt lat="45.7246939" lon="11.5818199"><ele>221.66666666666669</ele><time>2026-04-26T08:46:36.617Z</time></trkpt><trkpt lat="45.7247733" lon="11.5820625"><ele>222.33333333333331</ele><time>2026-04-26T08:46:37.622Z</time></trkpt><trkpt lat="45.7248419" lon="11.5822568"><ele>223.0</ele><time>2026-04-26T08:46:38.613Z</time></trkpt><trkpt lat="45.7248913" lon="11.5824171"><ele>223.0</ele><time>2026-04-26T08:46:39.624Z</time></trkpt><trkpt lat="45.7249151" lon="11.5825721"><ele>223.0</ele><time>2026-04-26T08:46:40.623Z</time></trkpt><trkpt lat="45.7248969" lon="11.5827317"><ele>223.0</ele><time>2026-04-26T08:46:41.62Z</time></trkpt><trkpt lat="45.7248643" lon="11.5828916"><ele>223.0</ele><time>2026-04-26T08:46:42.617Z</time></trkpt><trkpt lat="45.7248171" lon="11.5830413"><ele>224.2</ele><time>2026-04-26T08:46:43.627Z</time></trkpt><trkpt lat="45.724772" lon="11.5831833"><ele>225.4</ele><time>2026-04-26T08:46:44.619Z</time></trkpt><trkpt lat="45.7247562" lon="11.5833276"><ele>226.59999999999997</ele><time>2026-04-26T08:46:45.615Z</time></trkpt><trkpt lat="45.7247696" lon="11.5834687"><ele>227.79999999999998</ele><time>2026-04-26T08:46:46.616Z</time></trkpt><trkpt lat="45.7248086" lon="11.5836157"><ele>229.0</ele><time>2026-04-26T08:46:47.622Z</time></trkpt><trkpt lat="45.7248633" lon="11.5837749"><ele>229.5</ele><time>2026-04-26T08:46:48.625Z</time></trkpt><trkpt lat="45.7249251" lon="11.5839267"><ele>230.0</ele><time>2026-04-26T08:46:49.62Z</time></trkpt><trkpt lat="45.7250102" lon="11.5840703"><ele>230.5</ele><time>2026-04-26T08:46:50.618Z</time></trkpt><trkpt lat="45.7251163" lon="11.5841594"><ele>231.0</ele><time>2026-04-26T08:46:51.623Z</time></trkpt><trkpt lat="45.7252354" lon="11.5842197"><ele>232.75</ele><time>2026-04-26T08:46:52.614Z</time></trkpt><trkpt lat="45.725375" lon="11.5842566"><ele>234.5</ele><time>2026-04-26T08:46:53.625Z</time></trkpt><trkpt lat="45.7255083" lon="11.5842899"><ele>236.25</ele><time>2026-04-26T08:46:54.628Z</time></trkpt><trkpt lat="45.7256323" lon="11.5843285"><ele>238.0</ele><time>2026-04-26T08:46:55.632Z</time></trkpt><trkpt lat="45.7257547" lon="11.5843739"><ele>238.0</ele><time>2026-04-26T08:46:56.635Z</time></trkpt><trkpt lat="45.7258794" lon="11.5844168"><ele>238.0</ele><time>2026-04-26T08:46:57.617Z</time></trkpt><trkpt lat="45.7260016" lon="11.5844604"><ele>238.0</ele><time>2026-04-26T08:46:58.62Z</time></trkpt><trkpt lat="45.7261258" lon="11.5844958"><ele>238.0</ele><time>2026-04-26T08:46:59.626Z</time></trkpt><trkpt lat="45.7263791" lon="11.5845629"><ele>239.75</ele><time>2026-04-26T08:47:01.638Z</time></trkpt><trkpt lat="45.7265031" lon="11.5846114"><ele>241.5</ele><time>2026-04-26T08:47:02.618Z</time></trkpt><trkpt lat="45.726635" lon="11.5846507"><ele>243.25</ele><time>2026-04-26T08:47:03.623Z</time></trkpt><trkpt lat="45.7267611" lon="11.584676"><ele>245.0</ele><time>2026-04-26T08:47:04.616Z</time></trkpt><trkpt lat="45.7268929" lon="11.5846741"><ele>246.75</ele><time>2026-04-26T08:47:05.635Z</time></trkpt><trkpt lat="45.7270211" lon="11.584661"><ele>248.5</ele><time>2026-04-26T08:47:06.624Z</time></trkpt><trkpt lat="45.7271362" lon="11.5846365"><ele>250.25</ele><time>2026-04-26T08:47:07.616Z</time></trkpt><trkpt lat="45.7272529" lon="11.5846088"><ele>252.0</ele><time>2026-04-26T08:47:08.618Z</time></trkpt><trkpt lat="45.727371" lon="11.5845714"><ele>252.0</ele><time>2026-04-26T08:47:09.622Z</time></trkpt><trkpt lat="45.727479" lon="11.584528"><ele>252.0</ele><time>2026-04-26T08:47:10.632Z</time></trkpt><trkpt lat="45.7275769" lon="11.5844966"><ele>252.0</ele><time>2026-04-26T08:47:11.616Z</time></trkpt><trkpt lat="45.7276677" lon="11.5844734"><ele>252.0</ele><time>2026-04-26T08:47:12.622Z</time></trkpt><trkpt lat="45.727757" lon="11.5844395"><ele>252.0</ele><time>2026-04-26T08:47:13.62Z</time></trkpt><trkpt lat="45.7278518" lon="11.584414"><ele>253.6</ele><time>2026-04-26T08:47:14.627Z</time></trkpt><trkpt lat="45.7279552" lon="11.5843889"><ele>255.2</ele><time>2026-04-26T08:47:15.622Z</time></trkpt><trkpt lat="45.7280633" lon="11.5843612"><ele>256.8</ele><time>2026-04-26T08:47:16.624Z</time></trkpt><trkpt lat="45.7281703" lon="11.5843234"><ele>258.4</ele><time>2026-04-26T08:47:17.621Z</time></trkpt><trkpt lat="45.728278" lon="11.5842896"><ele>260.0</ele><time>2026-04-26T08:47:18.624Z</time></trkpt><trkpt lat="45.7283774" lon="11.5842623"><ele>260.0</ele><time>2026-04-26T08:47:19.634Z</time></trkpt><trkpt lat="45.7284748" lon="11.5842497"><ele>260.0</ele><time>2026-04-26T08:47:20.615Z</time></trkpt><trkpt lat="45.7285778" lon="11.5842622"><ele>260.0</ele><time>2026-04-26T08:47:21.618Z</time></trkpt><trkpt lat="45.7286763" lon="11.5842861"><ele>260.0</ele><time>2026-04-26T08:47:22.626Z</time></trkpt><trkpt lat="45.7287837" lon="11.5843046"><ele>260.0</ele><time>2026-04-26T08:47:23.614Z</time></trkpt><trkpt lat="45.7288931" lon="11.5843318"><ele>263.5</ele><time>2026-04-26T08:47:24.618Z</time></trkpt><trkpt lat="45.729004" lon="11.5843419"><ele>267.0</ele><time>2026-04-26T08:47:25.627Z</time></trkpt><trkpt lat="45.7291099" lon="11.5843298"><ele>270.5</ele><time>2026-04-26T08:47:26.633Z</time></trkpt><trkpt lat="45.7292243" lon="11.5842951"><ele>274.0</ele><time>2026-04-26T08:47:27.622Z</time></trkpt><trkpt lat="45.729336" lon="11.5842414"><ele>276.0</ele><time>2026-04-26T08:47:28.621Z</time></trkpt><trkpt lat="45.7294376" lon="11.5841695"><ele>278.0</ele><time>2026-04-26T08:47:29.618Z</time></trkpt><trkpt lat="45.7295337" lon="11.5840948"><ele>280.0</ele><time>2026-04-26T08:47:30.623Z</time></trkpt><trkpt lat="45.7296253" lon="11.5840121"><ele>282.0</ele><time>2026-04-26T08:47:31.625Z</time></trkpt><trkpt lat="45.7296994" lon="11.5839452"><ele>284.0</ele><time>2026-04-26T08:47:32.619Z</time></trkpt><trkpt lat="45.7297529" lon="11.5838958"><ele>284.0</ele><time>2026-04-26T08:47:33.62Z</time></trkpt><trkpt lat="45.729834" lon="11.5838525"><ele>284.0</ele><time>2026-04-26T08:47:35.616Z</time></trkpt><trkpt lat="45.7299148" lon="11.5838555"><ele>284.0</ele><time>2026-04-26T08:47:37.618Z</time></trkpt><trkpt lat="45.7299857" lon="11.5839017"><ele>284.0</ele><time>2026-04-26T08:47:38.634Z</time></trkpt><trkpt lat="45.7300693" lon="11.5839421"><ele>284.0</ele><time>2026-04-26T08:47:39.627Z</time></trkpt><trkpt lat="45.7301536" lon="11.5839847"><ele>284.0</ele><time>2026-04-26T08:47:40.611Z</time></trkpt><trkpt lat="45.7302561" lon="11.5840032"><ele>284.5</ele><time>2026-04-26T08:47:41.626Z</time></trkpt><trkpt lat="45.7303611" lon="11.5840058"><ele>285.0</ele><time>2026-04-26T08:47:42.624Z</time></trkpt><trkpt lat="45.7305399" lon="11.5838779"><ele>285.5</ele><time>2026-04-26T08:47:44.618Z</time></trkpt><trkpt lat="45.7306384" lon="11.5838147"><ele>286.0</ele><time>2026-04-26T08:47:45.619Z</time></trkpt><trkpt lat="45.7309075" lon="11.5835337"><ele>285.75</ele><time>2026-04-26T08:47:48.628Z</time></trkpt><trkpt lat="45.7309916" lon="11.5834148"><ele>285.5</ele><time>2026-04-26T08:47:49.628Z</time></trkpt><trkpt lat="45.7310725" lon="11.5832871"><ele>285.25</ele><time>2026-04-26T08:47:50.626Z</time></trkpt><trkpt lat="45.7311751" lon="11.5831415"><ele>285.0</ele><time>2026-04-26T08:47:51.619Z</time></trkpt><trkpt lat="45.7312672" lon="11.5829989"><ele>285.0</ele><time>2026-04-26T08:47:52.616Z</time></trkpt><trkpt lat="45.7313602" lon="11.582859"><ele>285.0</ele><time>2026-04-26T08:47:53.623Z</time></trkpt><trkpt lat="45.7314389" lon="11.5827716"><ele>285.0</ele><time>2026-04-26T08:47:54.611Z</time></trkpt><trkpt lat="45.731534" lon="11.5826845"><ele>285.0</ele><time>2026-04-26T08:47:55.621Z</time></trkpt><trkpt lat="45.731637" lon="11.58261"><ele>285.25</ele><time>2026-04-26T08:47:56.624Z</time></trkpt><trkpt lat="45.7317453" lon="11.5825585"><ele>285.5</ele><time>2026-04-26T08:47:57.614Z</time></trkpt><trkpt lat="45.731867" lon="11.5825527"><ele>285.75</ele><time>2026-04-26T08:47:58.622Z</time></trkpt><trkpt lat="45.7319934" lon="11.5825751"><ele>286.0</ele><time>2026-04-26T08:47:59.624Z</time></trkpt><trkpt lat="45.7321155" lon="11.5826146"><ele>286.0</ele><time>2026-04-26T08:48:00.63Z</time></trkpt><trkpt lat="45.7322364" lon="11.5826546"><ele>286.0</ele><time>2026-04-26T08:48:01.626Z</time></trkpt><trkpt lat="45.7323641" lon="11.5827025"><ele>286.0</ele><time>2026-04-26T08:48:02.634Z</time></trkpt><trkpt lat="45.7325038" lon="11.5827502"><ele>286.0</ele><time>2026-04-26T08:48:03.623Z</time></trkpt><trkpt lat="45.7326522" lon="11.582818"><ele>286.0</ele><time>2026-04-26T08:48:04.63Z</time></trkpt><trkpt lat="45.7328049" lon="11.582877"><ele>286.0</ele><time>2026-04-26T08:48:05.613Z</time></trkpt><trkpt lat="45.7329532" lon="11.582931"><ele>286.0</ele><time>2026-04-26T08:48:06.638Z</time></trkpt><trkpt lat="45.7331022" lon="11.582985"><ele>286.0</ele><time>2026-04-26T08:48:07.624Z</time></trkpt><trkpt lat="45.7332537" lon="11.5830374"><ele>286.0</ele><time>2026-04-26T08:48:08.614Z</time></trkpt><trkpt lat="45.7334022" lon="11.5830954"><ele>286.0</ele><time>2026-04-26T08:48:09.627Z</time></trkpt><trkpt lat="45.7335615" lon="11.583153"><ele>286.0</ele><time>2026-04-26T08:48:10.623Z</time></trkpt><trkpt lat="45.7337383" lon="11.5832111"><ele>286.0</ele><time>2026-04-26T08:48:11.631Z</time></trkpt><trkpt lat="45.7339246" lon="11.5832688"><ele>286.0</ele><time>2026-04-26T08:48:12.61Z</time></trkpt><trkpt lat="45.7340924" lon="11.5832741"><ele>286.0</ele><time>2026-04-26T08:48:13.624Z</time></trkpt><trkpt lat="45.7342328" lon="11.5832649"><ele>286.0</ele><time>2026-04-26T08:48:14.622Z</time></trkpt><trkpt lat="45.7343871" lon="11.5832377"><ele>286.0</ele><time>2026-04-26T08:48:15.617Z</time></trkpt><trkpt lat="45.7345318" lon="11.5831817"><ele>286.0</ele><time>2026-04-26T08:48:16.621Z</time></trkpt><trkpt lat="45.7346722" lon="11.5830979"><ele>287.3333333333333</ele><time>2026-04-26T08:48:17.623Z</time></trkpt><trkpt lat="45.7348188" lon="11.5829968"><ele>288.6666666666667</ele><time>2026-04-26T08:48:18.625Z</time></trkpt><trkpt lat="45.7349601" lon="11.5828963"><ele>290.0</ele><time>2026-04-26T08:48:19.616Z</time></trkpt><trkpt lat="45.7351043" lon="11.5827925"><ele>291.6666666666667</ele><time>2026-04-26T08:48:20.626Z</time></trkpt><trkpt lat="45.7352442" lon="11.5826818"><ele>293.3333333333333</ele><time>2026-04-26T08:48:21.617Z</time></trkpt><trkpt lat="45.735387" lon="11.5825803"><ele>295.0</ele><time>2026-04-26T08:48:22.624Z</time></trkpt><trkpt lat="45.735523" lon="11.5824741"><ele>295.0</ele><time>2026-04-26T08:48:23.612Z</time></trkpt><trkpt lat="45.7356518" lon="11.5823803"><ele>295.0</ele><time>2026-04-26T08:48:24.627Z</time></trkpt><trkpt lat="45.7357813" lon="11.582292"><ele>295.0</ele><time>2026-04-26T08:48:25.617Z</time></trkpt><trkpt lat="45.7359096" lon="11.5822078"><ele>295.0</ele><time>2026-04-26T08:48:26.627Z</time></trkpt><trkpt lat="45.7360489" lon="11.5821294"><ele>294.5</ele><time>2026-04-26T08:48:27.626Z</time></trkpt><trkpt lat="45.7361938" lon="11.5820943"><ele>294.0</ele><time>2026-04-26T08:48:28.634Z</time></trkpt><trkpt lat="45.7363379" lon="11.5821242"><ele>293.5</ele><time>2026-04-26T08:48:29.618Z</time></trkpt><trkpt lat="45.7364802" lon="11.5821964"><ele>293.0</ele><time>2026-04-26T08:48:30.626Z</time></trkpt><trkpt lat="45.7366149" lon="11.5822897"><ele>293.0</ele><time>2026-04-26T08:48:31.622Z</time></trkpt><trkpt lat="45.736743" lon="11.5823725"><ele>293.0</ele><time>2026-04-26T08:48:32.613Z</time></trkpt><trkpt lat="45.7368709" lon="11.582428"><ele>293.0</ele><time>2026-04-26T08:48:33.631Z</time></trkpt><trkpt lat="45.7370042" lon="11.5824648"><ele>293.0</ele><time>2026-04-26T08:48:34.628Z</time></trkpt><trkpt lat="45.7371442" lon="11.5824751"><ele>293.5</ele><time>2026-04-26T08:48:35.618Z</time></trkpt><trkpt lat="45.737281" lon="11.5824449"><ele>294.0</ele><time>2026-04-26T08:48:36.626Z</time></trkpt><trkpt lat="45.7374252" lon="11.5823918"><ele>294.5</ele><time>2026-04-26T08:48:37.618Z</time></trkpt><trkpt lat="45.7375673" lon="11.58235"><ele>295.0</ele><time>2026-04-26T08:48:38.619Z</time></trkpt><trkpt lat="45.7377097" lon="11.5823171"><ele>296.0</ele><time>2026-04-26T08:48:39.631Z</time></trkpt><trkpt lat="45.7378464" lon="11.5823005"><ele>297.0</ele><time>2026-04-26T08:48:40.626Z</time></trkpt><trkpt lat="45.7379704" lon="11.5823064"><ele>298.0</ele><time>2026-04-26T08:48:41.622Z</time></trkpt><trkpt lat="45.7380801" lon="11.5823105"><ele>299.0</ele><time>2026-04-26T08:48:42.629Z</time></trkpt><trkpt lat="45.7381907" lon="11.5823368"><ele>299.0</ele><time>2026-04-26T08:48:43.612Z</time></trkpt><trkpt lat="45.7383056" lon="11.5823611"><ele>299.0</ele><time>2026-04-26T08:48:44.623Z</time></trkpt><trkpt lat="45.7384175" lon="11.5823906"><ele>299.0</ele><time>2026-04-26T08:48:45.616Z</time></trkpt><trkpt lat="45.7385177" lon="11.5824419"><ele>299.0</ele><time>2026-04-26T08:48:46.628Z</time></trkpt><trkpt lat="45.7386225" lon="11.5824929"><ele>299.0</ele><time>2026-04-26T08:48:47.624Z</time></trkpt><trkpt lat="45.7387346" lon="11.5825096"><ele>298.2</ele><time>2026-04-26T08:48:48.633Z</time></trkpt><trkpt lat="45.7388518" lon="11.5824886"><ele>297.4</ele><time>2026-04-26T08:48:49.62Z</time></trkpt><trkpt lat="45.738961" lon="11.5824482"><ele>296.6</ele><time>2026-04-26T08:48:50.62Z</time></trkpt><trkpt lat="45.739058" lon="11.5823931"><ele>295.8</ele><time>2026-04-26T08:48:51.612Z</time></trkpt><trkpt lat="45.7391443" lon="11.5823272"><ele>295.0</ele><time>2026-04-26T08:48:52.624Z</time></trkpt><trkpt lat="45.7392151" lon="11.582224"><ele>295.0</ele><time>2026-04-26T08:48:53.619Z</time></trkpt><trkpt lat="45.7392759" lon="11.5820753"><ele>295.0</ele><time>2026-04-26T08:48:54.624Z</time></trkpt><trkpt lat="45.7393399" lon="11.5819276"><ele>295.0</ele><time>2026-04-26T08:48:55.623Z</time></trkpt><trkpt lat="45.7394165" lon="11.5817989"><ele>295.0</ele><time>2026-04-26T08:48:56.623Z</time></trkpt><trkpt lat="45.7395113" lon="11.5816664"><ele>292.0</ele><time>2026-04-26T08:48:57.618Z</time></trkpt><trkpt lat="45.7396002" lon="11.5815647"><ele>289.0</ele><time>2026-04-26T08:48:58.615Z</time></trkpt><trkpt lat="45.7397" lon="11.5814891"><ele>286.0</ele><time>2026-04-26T08:48:59.627Z</time></trkpt><trkpt lat="45.7397965" lon="11.5814113"><ele>283.0</ele><time>2026-04-26T08:49:00.623Z</time></trkpt><trkpt lat="45.7398807" lon="11.5812887"><ele>285.0</ele><time>2026-04-26T08:49:01.62Z</time></trkpt><trkpt lat="45.7399404" lon="11.581142"><ele>287.0</ele><time>2026-04-26T08:49:02.62Z</time></trkpt><trkpt lat="45.7399943" lon="11.5810067"><ele>289.0</ele><time>2026-04-26T08:49:03.612Z</time></trkpt><trkpt lat="45.7400524" lon="11.5808697"><ele>291.0</ele><time>2026-04-26T08:49:04.618Z</time></trkpt><trkpt lat="45.7401196" lon="11.580747"><ele>293.0</ele><time>2026-04-26T08:49:05.619Z</time></trkpt><trkpt lat="45.7402107" lon="11.5806278"><ele>291.75</ele><time>2026-04-26T08:49:06.626Z</time></trkpt><trkpt lat="45.7403107" lon="11.5805388"><ele>290.5</ele><time>2026-04-26T08:49:07.612Z</time></trkpt><trkpt lat="45.7404226" lon="11.580446"><ele>289.25</ele><time>2026-04-26T08:49:08.629Z</time></trkpt><trkpt lat="45.7405542" lon="11.5803523"><ele>288.0</ele><time>2026-04-26T08:49:09.629Z</time></trkpt><trkpt lat="45.7407004" lon="11.5802555"><ele>288.0</ele><time>2026-04-26T08:49:10.625Z</time></trkpt><trkpt lat="45.7408558" lon="11.5801612"><ele>288.0</ele><time>2026-04-26T08:49:11.622Z</time></trkpt><trkpt lat="45.7410194" lon="11.5800801"><ele>288.0</ele><time>2026-04-26T08:49:12.623Z</time></trkpt><trkpt lat="45.7411772" lon="11.5800064"><ele>287.0</ele><time>2026-04-26T08:49:13.617Z</time></trkpt><trkpt lat="45.741321" lon="11.5799451"><ele>286.0</ele><time>2026-04-26T08:49:14.617Z</time></trkpt><trkpt lat="45.7414537" lon="11.5798937"><ele>285.0</ele><time>2026-04-26T08:49:15.625Z</time></trkpt><trkpt lat="45.741583" lon="11.5798587"><ele>284.0</ele><time>2026-04-26T08:49:16.625Z</time></trkpt><trkpt lat="45.741724" lon="11.5798476"><ele>284.0</ele><time>2026-04-26T08:49:17.619Z</time></trkpt><trkpt lat="45.7418691" lon="11.57986"><ele>284.0</ele><time>2026-04-26T08:49:18.623Z</time></trkpt><trkpt lat="45.7420019" lon="11.5798934"><ele>284.0</ele><time>2026-04-26T08:49:19.62Z</time></trkpt><trkpt lat="45.7421125" lon="11.5799222"><ele>284.0</ele><time>2026-04-26T08:49:20.623Z</time></trkpt><trkpt lat="45.7421966" lon="11.5799498"><ele>285.0</ele><time>2026-04-26T08:49:21.612Z</time></trkpt><trkpt lat="45.7422796" lon="11.5799628"><ele>286.0</ele><time>2026-04-26T08:49:22.615Z</time></trkpt><trkpt lat="45.7423715" lon="11.5799694"><ele>287.0</ele><time>2026-04-26T08:49:23.61Z</time></trkpt><trkpt lat="45.7424772" lon="11.5799746"><ele>288.0</ele><time>2026-04-26T08:49:24.613Z</time></trkpt><trkpt lat="45.7426147" lon="11.5799345"><ele>289.0</ele><time>2026-04-26T08:49:25.62Z</time></trkpt><trkpt lat="45.7427506" lon="11.579848"><ele>289.3333333333333</ele><time>2026-04-26T08:49:26.627Z</time></trkpt><trkpt lat="45.7428909" lon="11.5797203"><ele>289.6666666666667</ele><time>2026-04-26T08:49:27.608Z</time></trkpt><trkpt lat="45.7430245" lon="11.579539"><ele>290.0</ele><time>2026-04-26T08:49:28.623Z</time></trkpt><trkpt lat="45.7431307" lon="11.5793513"><ele>290.0</ele><time>2026-04-26T08:49:29.621Z</time></trkpt><trkpt lat="45.7432188" lon="11.5791462"><ele>290.0</ele><time>2026-04-26T08:49:30.617Z</time></trkpt><trkpt lat="45.7433026" lon="11.5789749"><ele>290.0</ele><time>2026-04-26T08:49:31.614Z</time></trkpt><trkpt lat="45.7434129" lon="11.5788216"><ele>291.6666666666667</ele><time>2026-04-26T08:49:32.625Z</time></trkpt><trkpt lat="45.7435505" lon="11.5786981"><ele>293.3333333333333</ele><time>2026-04-26T08:49:33.628Z</time></trkpt><trkpt lat="45.7437015" lon="11.5786018"><ele>295.0</ele><time>2026-04-26T08:49:34.609Z</time></trkpt><trkpt lat="45.743867" lon="11.5785019"><ele>295.0</ele><time>2026-04-26T08:49:35.62Z</time></trkpt><trkpt lat="45.7440453" lon="11.5783922"><ele>295.0</ele><time>2026-04-26T08:49:36.612Z</time></trkpt><trkpt lat="45.7442242" lon="11.5782886"><ele>295.0</ele><time>2026-04-26T08:49:37.618Z</time></trkpt><trkpt lat="45.7443807" lon="11.578181"><ele>294.75</ele><time>2026-04-26T08:49:38.616Z</time></trkpt><trkpt lat="45.7445107" lon="11.5780698"><ele>294.5</ele><time>2026-04-26T08:49:39.616Z</time></trkpt><trkpt lat="45.7446051" lon="11.5779127"><ele>294.25</ele><time>2026-04-26T08:49:40.623Z</time></trkpt><trkpt lat="45.7446678" lon="11.577714"><ele>294.0</ele><time>2026-04-26T08:49:41.629Z</time></trkpt><trkpt lat="45.7447132" lon="11.5774908"><ele>294.0</ele><time>2026-04-26T08:49:42.625Z</time></trkpt><trkpt lat="45.7447515" lon="11.5772394"><ele>294.0</ele><time>2026-04-26T08:49:43.626Z</time></trkpt><trkpt lat="45.7447967" lon="11.5769794"><ele>294.0</ele><time>2026-04-26T08:49:44.632Z</time></trkpt><trkpt lat="45.7448438" lon="11.5767293"><ele>294.0</ele><time>2026-04-26T08:49:45.618Z</time></trkpt><trkpt lat="45.7448988" lon="11.5764795"><ele>294.0</ele><time>2026-04-26T08:49:46.621Z</time></trkpt><trkpt lat="45.7449643" lon="11.5762322"><ele>294.0</ele><time>2026-04-26T08:49:47.623Z</time></trkpt><trkpt lat="45.7450494" lon="11.5759836"><ele>293.6666666666667</ele><time>2026-04-26T08:49:48.633Z</time></trkpt><trkpt lat="45.74514" lon="11.5757346"><ele>293.33333333333337</ele><time>2026-04-26T08:49:49.622Z</time></trkpt><trkpt lat="45.7452312" lon="11.575485"><ele>293.0</ele><time>2026-04-26T08:49:50.632Z</time></trkpt><trkpt lat="45.7452968" lon="11.5752284"><ele>298.0</ele><time>2026-04-26T08:49:51.617Z</time></trkpt><trkpt lat="45.7453482" lon="11.5749476"><ele>303.0</ele><time>2026-04-26T08:49:52.625Z</time></trkpt><trkpt lat="45.7453865" lon="11.5746742"><ele>308.0</ele><time>2026-04-26T08:49:53.618Z</time></trkpt><trkpt lat="45.745421" lon="11.5743987"><ele>308.33333333333337</ele><time>2026-04-26T08:49:54.621Z</time></trkpt><trkpt lat="45.7454533" lon="11.5741249"><ele>308.6666666666667</ele><time>2026-04-26T08:49:55.621Z</time></trkpt><trkpt lat="45.7454853" lon="11.5738738"><ele>309.0</ele><time>2026-04-26T08:49:56.616Z</time></trkpt><trkpt lat="45.745517" lon="11.5736557"><ele>308.0</ele><time>2026-04-26T08:49:57.623Z</time></trkpt><trkpt lat="45.7455487" lon="11.5734533"><ele>307.0</ele><time>2026-04-26T08:49:58.624Z</time></trkpt><trkpt lat="45.7455902" lon="11.5732731"><ele>306.0</ele><time>2026-04-26T08:49:59.619Z</time></trkpt><trkpt lat="45.7456681" lon="11.5731535"><ele>305.0</ele><time>2026-04-26T08:50:00.616Z</time></trkpt><trkpt lat="45.7457671" lon="11.5730699"><ele>305.0</ele><time>2026-04-26T08:50:01.624Z</time></trkpt><trkpt lat="45.7458808" lon="11.5730629"><ele>305.0</ele><time>2026-04-26T08:50:02.62Z</time></trkpt><trkpt lat="45.745994" lon="11.5731197"><ele>305.0</ele><time>2026-04-26T08:50:03.638Z</time></trkpt><trkpt lat="45.7461004" lon="11.573229"><ele>305.0</ele><time>2026-04-26T08:50:04.621Z</time></trkpt><trkpt lat="45.746183" lon="11.5733864"><ele>305.33333333333337</ele><time>2026-04-26T08:50:05.628Z</time></trkpt><trkpt lat="45.7462734" lon="11.5735571"><ele>305.6666666666667</ele><time>2026-04-26T08:50:06.626Z</time></trkpt><trkpt lat="45.7463939" lon="11.5737054"><ele>306.0</ele><time>2026-04-26T08:50:07.614Z</time></trkpt><trkpt lat="45.7465478" lon="11.5738267"><ele>309.6666666666667</ele><time>2026-04-26T08:50:08.617Z</time></trkpt><trkpt lat="45.7467393" lon="11.5738948"><ele>313.33333333333337</ele><time>2026-04-26T08:50:09.617Z</time></trkpt><trkpt lat="45.7469518" lon="11.5739267"><ele>317.0</ele><time>2026-04-26T08:50:10.619Z</time></trkpt><trkpt lat="45.7471782" lon="11.573935"><ele>318.6666666666667</ele><time>2026-04-26T08:50:11.62Z</time></trkpt><trkpt lat="45.7473915" lon="11.5739261"><ele>320.3333333333333</ele><time>2026-04-26T08:50:12.627Z</time></trkpt><trkpt lat="45.7475888" lon="11.5739145"><ele>322.0</ele><time>2026-04-26T08:50:13.612Z</time></trkpt><trkpt lat="45.7477687" lon="11.5739115"><ele>323.3333333333333</ele><time>2026-04-26T08:50:14.617Z</time></trkpt><trkpt lat="45.7479286" lon="11.573914"><ele>324.6666666666667</ele><time>2026-04-26T08:50:15.629Z</time></trkpt><trkpt lat="45.7480864" lon="11.5739501"><ele>326.0</ele><time>2026-04-26T08:50:16.624Z</time></trkpt><trkpt lat="45.7482382" lon="11.5740372"><ele>326.0</ele><time>2026-04-26T08:50:17.616Z</time></trkpt><trkpt lat="45.7483801" lon="11.574148"><ele>326.0</ele><time>2026-04-26T08:50:18.622Z</time></trkpt><trkpt lat="45.7485276" lon="11.5742774"><ele>326.0</ele><time>2026-04-26T08:50:19.632Z</time></trkpt><trkpt lat="45.748664" lon="11.5743951"><ele>328.75</ele><time>2026-04-26T08:50:20.615Z</time></trkpt><trkpt lat="45.7487896" lon="11.5744585"><ele>331.5</ele><time>2026-04-26T08:50:21.614Z</time></trkpt><trkpt lat="45.7489241" lon="11.5744418"><ele>334.25</ele><time>2026-04-26T08:50:22.632Z</time></trkpt><trkpt lat="45.7490571" lon="11.5743542"><ele>337.0</ele><time>2026-04-26T08:50:23.619Z</time></trkpt><trkpt lat="45.7491606" lon="11.5742095"><ele>337.0</ele><time>2026-04-26T08:50:24.619Z</time></trkpt><trkpt lat="45.7492378" lon="11.574028"><ele>337.0</ele><time>2026-04-26T08:50:25.638Z</time></trkpt><trkpt lat="45.7493098" lon="11.5738214"><ele>337.0</ele><time>2026-04-26T08:50:26.621Z</time></trkpt><trkpt lat="45.7493694" lon="11.5736085"><ele>342.3333333333333</ele><time>2026-04-26T08:50:27.62Z</time></trkpt><trkpt lat="45.7494198" lon="11.5733776"><ele>347.6666666666667</ele><time>2026-04-26T08:50:28.622Z</time></trkpt><trkpt lat="45.7494444" lon="11.5731486"><ele>353.0</ele><time>2026-04-26T08:50:29.63Z</time></trkpt><trkpt lat="45.749463" lon="11.5729525"><ele>352.0</ele><time>2026-04-26T08:50:30.628Z</time></trkpt><trkpt lat="45.7494984" lon="11.5727782"><ele>351.0</ele><time>2026-04-26T08:50:31.63Z</time></trkpt><trkpt lat="45.7495565" lon="11.5726115"><ele>350.0</ele><time>2026-04-26T08:50:32.614Z</time></trkpt><trkpt lat="45.7496384" lon="11.5724602"><ele>349.0</ele><time>2026-04-26T08:50:33.62Z</time></trkpt><trkpt lat="45.7497461" lon="11.5723395"><ele>349.0</ele><time>2026-04-26T08:50:34.616Z</time></trkpt><trkpt lat="45.7498708" lon="11.5722757"><ele>349.0</ele><time>2026-04-26T08:50:35.614Z</time></trkpt><trkpt lat="45.75" lon="11.5723022"><ele>349.0</ele><time>2026-04-26T08:50:36.61Z</time></trkpt><trkpt lat="45.750122" lon="11.572396"><ele>349.0</ele><time>2026-04-26T08:50:37.625Z</time></trkpt><trkpt lat="45.7502382" lon="11.5725486"><ele>350.0</ele><time>2026-04-26T08:50:38.622Z</time></trkpt><trkpt lat="45.7503621" lon="11.5727106"><ele>351.0</ele><time>2026-04-26T08:50:39.62Z</time></trkpt><trkpt lat="45.7505053" lon="11.5728622"><ele>352.0</ele><time>2026-04-26T08:50:40.631Z</time></trkpt><trkpt lat="45.7506557" lon="11.5730129"><ele>352.0</ele><time>2026-04-26T08:50:41.621Z</time></trkpt><trkpt lat="45.7507795" lon="11.5731635"><ele>352.0</ele><time>2026-04-26T08:50:42.625Z</time></trkpt><trkpt lat="45.7508416" lon="11.573342"><ele>352.0</ele><time>2026-04-26T08:50:43.614Z</time></trkpt><trkpt lat="45.750864" lon="11.57356"><ele>352.5</ele><time>2026-04-26T08:50:44.622Z</time></trkpt><trkpt lat="45.7508708" lon="11.5737811"><ele>353.0</ele><time>2026-04-26T08:50:45.624Z</time></trkpt><trkpt lat="45.7509236" lon="11.573971"><ele>353.5</ele><time>2026-04-26T08:50:46.618Z</time></trkpt><trkpt lat="45.7510303" lon="11.5741111"><ele>354.0</ele><time>2026-04-26T08:50:47.614Z</time></trkpt><trkpt lat="45.7511711" lon="11.5741714"><ele>354.0</ele><time>2026-04-26T08:50:48.615Z</time></trkpt><trkpt lat="45.7513121" lon="11.5741736"><ele>354.0</ele><time>2026-04-26T08:50:49.609Z</time></trkpt><trkpt lat="45.751449" lon="11.5741492"><ele>354.0</ele><time>2026-04-26T08:50:50.621Z</time></trkpt><trkpt lat="45.7515766" lon="11.5741056"><ele>354.0</ele><time>2026-04-26T08:50:51.625Z</time></trkpt><trkpt lat="45.7516916" lon="11.5740565"><ele>354.0</ele><time>2026-04-26T08:50:52.619Z</time></trkpt><trkpt lat="45.7518" lon="11.5740223"><ele>354.0</ele><time>2026-04-26T08:50:53.63Z</time></trkpt><trkpt lat="45.7518995" lon="11.5740043"><ele>354.0</ele><time>2026-04-26T08:50:54.625Z</time></trkpt><trkpt lat="45.7519969" lon="11.5739967"><ele>354.0</ele><time>2026-04-26T08:50:55.613Z</time></trkpt><trkpt lat="45.7521013" lon="11.5739866"><ele>354.0</ele><time>2026-04-26T08:50:56.618Z</time></trkpt><trkpt lat="45.7522055" lon="11.5739671"><ele>353.8333333333333</ele><time>2026-04-26T08:50:57.621Z</time></trkpt><trkpt lat="45.7523022" lon="11.5739437"><ele>353.6666666666667</ele><time>2026-04-26T08:50:58.626Z</time></trkpt><trkpt lat="45.7523953" lon="11.5739223"><ele>353.5</ele><time>2026-04-26T08:50:59.611Z</time></trkpt><trkpt lat="45.7524794" lon="11.5738896"><ele>353.33333333333337</ele><time>2026-04-26T08:51:00.622Z</time></trkpt><trkpt lat="45.7525592" lon="11.5738421"><ele>353.1666666666667</ele><time>2026-04-26T08:51:01.618Z</time></trkpt><trkpt lat="45.7526208" lon="11.5737745"><ele>353.0</ele><time>2026-04-26T08:51:02.622Z</time></trkpt><trkpt lat="45.7526793" lon="11.5736729"><ele>353.59999999999997</ele><time>2026-04-26T08:51:03.618Z</time></trkpt><trkpt lat="45.7527334" lon="11.573571"><ele>354.2</ele><time>2026-04-26T08:51:04.624Z</time></trkpt><trkpt lat="45.7527882" lon="11.5734633"><ele>354.8</ele><time>2026-04-26T08:51:05.641Z</time></trkpt><trkpt lat="45.7528479" lon="11.5733543"><ele>355.4</ele><time>2026-04-26T08:51:06.625Z</time></trkpt><trkpt lat="45.7529108" lon="11.5732323"><ele>356.0</ele><time>2026-04-26T08:51:07.628Z</time></trkpt><trkpt lat="45.7529669" lon="11.5731052"><ele>356.0</ele><time>2026-04-26T08:51:08.624Z</time></trkpt><trkpt lat="45.7530131" lon="11.5729919"><ele>356.0</ele><time>2026-04-26T08:51:09.624Z</time></trkpt><trkpt lat="45.7530622" lon="11.5728922"><ele>356.0</ele><time>2026-04-26T08:51:10.622Z</time></trkpt><trkpt lat="45.7531117" lon="11.5727965"><ele>356.0</ele><time>2026-04-26T08:51:11.624Z</time></trkpt><trkpt lat="45.7531668" lon="11.5726953"><ele>356.0</ele><time>2026-04-26T08:51:12.615Z</time></trkpt><trkpt lat="45.7532229" lon="11.5726024"><ele>356.0</ele><time>2026-04-26T08:51:13.619Z</time></trkpt><trkpt lat="45.7532808" lon="11.57251"><ele>359.83333333333337</ele><time>2026-04-26T08:51:14.624Z</time></trkpt><trkpt lat="45.753341" lon="11.5724082"><ele>363.6666666666667</ele><time>2026-04-26T08:51:15.609Z</time></trkpt><trkpt lat="45.753394" lon="11.5723101"><ele>367.5</ele><time>2026-04-26T08:51:16.622Z</time></trkpt><trkpt lat="45.753447" lon="11.5722041"><ele>371.3333333333333</ele><time>2026-04-26T08:51:17.614Z</time></trkpt><trkpt lat="45.753504" lon="11.5720919"><ele>375.16666666666663</ele><time>2026-04-26T08:51:18.627Z</time></trkpt><trkpt lat="45.7535624" lon="11.5720122"><ele>379.0</ele><time>2026-04-26T08:51:19.629Z</time></trkpt><trkpt lat="45.7536154" lon="11.5719409"><ele>379.5</ele><time>2026-04-26T08:51:20.627Z</time></trkpt><trkpt lat="45.7536683" lon="11.5718728"><ele>380.0</ele><time>2026-04-26T08:51:21.628Z</time></trkpt><trkpt lat="45.7537146" lon="11.5718064"><ele>380.5</ele><time>2026-04-26T08:51:22.622Z</time></trkpt><trkpt lat="45.753775" lon="11.5717252"><ele>381.0</ele><time>2026-04-26T08:51:23.615Z</time></trkpt><trkpt lat="45.7538412" lon="11.5716352"><ele>381.5</ele><time>2026-04-26T08:51:24.63Z</time></trkpt><trkpt lat="45.753901" lon="11.5715494"><ele>382.0</ele><time>2026-04-26T08:51:25.624Z</time></trkpt><trkpt lat="45.7539531" lon="11.571446"><ele>382.0</ele><time>2026-04-26T08:51:26.617Z</time></trkpt><trkpt lat="45.7540017" lon="11.5713159"><ele>382.0</ele><time>2026-04-26T08:51:27.62Z</time></trkpt><trkpt lat="45.7540487" lon="11.5711852"><ele>382.0</ele><time>2026-04-26T08:51:28.622Z</time></trkpt><trkpt lat="45.7540921" lon="11.5710669"><ele>382.0</ele><time>2026-04-26T08:51:29.618Z</time></trkpt><trkpt lat="45.7541325" lon="11.5709734"><ele>382.0</ele><time>2026-04-26T08:51:30.62Z</time></trkpt><trkpt lat="45.7541752" lon="11.5708786"><ele>383.7142857142857</ele><time>2026-04-26T08:51:31.624Z</time></trkpt><trkpt lat="45.7541953" lon="11.5707909"><ele>385.4285714285714</ele><time>2026-04-26T08:51:32.617Z</time></trkpt><trkpt lat="45.7542062" lon="11.5706903"><ele>387.1428571428571</ele><time>2026-04-26T08:51:33.615Z</time></trkpt><trkpt lat="45.7542288" lon="11.5706038"><ele>388.8571428571429</ele><time>2026-04-26T08:51:34.618Z</time></trkpt><trkpt lat="45.7542523" lon="11.5705128"><ele>390.57142857142856</ele><time>2026-04-26T08:51:35.619Z</time></trkpt><trkpt lat="45.7542813" lon="11.5704151"><ele>392.2857142857143</ele><time>2026-04-26T08:51:36.625Z</time></trkpt><trkpt lat="45.7543293" lon="11.5703123"><ele>394.0</ele><time>2026-04-26T08:51:37.637Z</time></trkpt><trkpt lat="45.7543883" lon="11.5702283"><ele>396.33333333333337</ele><time>2026-04-26T08:51:38.618Z</time></trkpt><trkpt lat="45.7544548" lon="11.5701476"><ele>398.6666666666667</ele><time>2026-04-26T08:51:39.615Z</time></trkpt><trkpt lat="45.7545204" lon="11.5700678"><ele>401.0</ele><time>2026-04-26T08:51:40.629Z</time></trkpt><trkpt lat="45.7545903" lon="11.5700034"><ele>403.33333333333337</ele><time>2026-04-26T08:51:41.624Z</time></trkpt><trkpt lat="45.7546693" lon="11.5699386"><ele>405.6666666666667</ele><time>2026-04-26T08:51:42.621Z</time></trkpt><trkpt lat="45.754762" lon="11.5698854"><ele>408.0</ele><time>2026-04-26T08:51:43.616Z</time></trkpt><trkpt lat="45.7548717" lon="11.569851"><ele>408.0</ele><time>2026-04-26T08:51:44.622Z</time></trkpt><trkpt lat="45.7549886" lon="11.5698131"><ele>408.0</ele><time>2026-04-26T08:51:45.624Z</time></trkpt><trkpt lat="45.7550963" lon="11.5697751"><ele>408.0</ele><time>2026-04-26T08:51:46.622Z</time></trkpt><trkpt lat="45.7551868" lon="11.5697402"><ele>408.0</ele><time>2026-04-26T08:51:47.627Z</time></trkpt><trkpt lat="45.7552616" lon="11.5697055"><ele>408.0</ele><time>2026-04-26T08:51:48.629Z</time></trkpt><trkpt lat="45.7553288" lon="11.5696685"><ele>407.3333333333333</ele><time>2026-04-26T08:51:49.636Z</time></trkpt><trkpt lat="45.7553929" lon="11.5696282"><ele>406.66666666666663</ele><time>2026-04-26T08:51:50.61Z</time></trkpt><trkpt lat="45.7554742" lon="11.5695936"><ele>406.0</ele><time>2026-04-26T08:51:51.619Z</time></trkpt><trkpt lat="45.7555533" lon="11.5695436"><ele>405.3333333333333</ele><time>2026-04-26T08:51:52.611Z</time></trkpt><trkpt lat="45.7556423" lon="11.5694804"><ele>404.66666666666663</ele><time>2026-04-26T08:51:53.62Z</time></trkpt><trkpt lat="45.7557367" lon="11.5694129"><ele>404.0</ele><time>2026-04-26T08:51:54.619Z</time></trkpt><trkpt lat="45.7558431" lon="11.5693417"><ele>403.99999999999994</ele><time>2026-04-26T08:51:55.618Z</time></trkpt><trkpt lat="45.7559482" lon="11.569273"><ele>404.0</ele><time>2026-04-26T08:51:56.625Z</time></trkpt><trkpt lat="45.7560365" lon="11.5692164"><ele>404.0</ele><time>2026-04-26T08:51:57.633Z</time></trkpt><trkpt lat="45.7561065" lon="11.5691723"><ele>404.0</ele><time>2026-04-26T08:51:58.613Z</time></trkpt><trkpt lat="45.7561741" lon="11.5691265"><ele>403.99999999999994</ele><time>2026-04-26T08:51:59.631Z</time></trkpt><trkpt lat="45.7562422" lon="11.5690967"><ele>404.0</ele><time>2026-04-26T08:52:00.628Z</time></trkpt><trkpt lat="45.7563194" lon="11.5690633"><ele>403.79999999999995</ele><time>2026-04-26T08:52:01.627Z</time></trkpt><trkpt lat="45.756409" lon="11.5690204"><ele>403.59999999999997</ele><time>2026-04-26T08:52:02.622Z</time></trkpt><trkpt lat="45.7565082" lon="11.5689547"><ele>403.4</ele><time>2026-04-26T08:52:03.623Z</time></trkpt><trkpt lat="45.7566111" lon="11.5688753"><ele>403.2</ele><time>2026-04-26T08:52:04.617Z</time></trkpt><trkpt lat="45.7567133" lon="11.5687833"><ele>403.0</ele><time>2026-04-26T08:52:05.623Z</time></trkpt><trkpt lat="45.7568129" lon="11.5686904"><ele>403.2</ele><time>2026-04-26T08:52:06.621Z</time></trkpt><trkpt lat="45.7569046" lon="11.5685904"><ele>403.4</ele><time>2026-04-26T08:52:07.631Z</time></trkpt><trkpt lat="45.7569902" lon="11.5685163"><ele>403.59999999999997</ele><time>2026-04-26T08:52:08.61Z</time></trkpt><trkpt lat="45.7570861" lon="11.5684542"><ele>403.79999999999995</ele><time>2026-04-26T08:52:09.618Z</time></trkpt><trkpt lat="45.7571899" lon="11.5683886"><ele>404.0</ele><time>2026-04-26T08:52:10.605Z</time></trkpt><trkpt lat="45.7572973" lon="11.5683188"><ele>404.0</ele><time>2026-04-26T08:52:11.622Z</time></trkpt><trkpt lat="45.7574296" lon="11.5682972"><ele>404.0</ele><time>2026-04-26T08:52:12.625Z</time></trkpt><trkpt lat="45.7575763" lon="11.5682765"><ele>404.0</ele><time>2026-04-26T08:52:13.622Z</time></trkpt><trkpt lat="45.7577265" lon="11.5682712"><ele>404.0</ele><time>2026-04-26T08:52:14.625Z</time></trkpt><trkpt lat="45.7578787" lon="11.5682577"><ele>406.0</ele><time>2026-04-26T08:52:15.633Z</time></trkpt><trkpt lat="45.7580271" lon="11.5682314"><ele>408.0</ele><time>2026-04-26T08:52:16.625Z</time></trkpt><trkpt lat="45.7581737" lon="11.5681993"><ele>410.0</ele><time>2026-04-26T08:52:17.616Z</time></trkpt><trkpt lat="45.7583087" lon="11.5681518"><ele>412.0</ele><time>2026-04-26T08:52:18.616Z</time></trkpt><trkpt lat="45.7584384" lon="11.5680873"><ele>413.0</ele><time>2026-04-26T08:52:19.634Z</time></trkpt><trkpt lat="45.7585619" lon="11.5679988"><ele>414.0</ele><time>2026-04-26T08:52:20.616Z</time></trkpt><trkpt lat="45.7586834" lon="11.5678981"><ele>415.0</ele><time>2026-04-26T08:52:21.639Z</time></trkpt><trkpt lat="45.758798" lon="11.5677848"><ele>416.0</ele><time>2026-04-26T08:52:22.633Z</time></trkpt><trkpt lat="45.7589041" lon="11.5676637"><ele>416.0</ele><time>2026-04-26T08:52:23.621Z</time></trkpt><trkpt lat="45.7590133" lon="11.5675385"><ele>416.0</ele><time>2026-04-26T08:52:24.646Z</time></trkpt><trkpt lat="45.759126" lon="11.5674193"><ele>416.0</ele><time>2026-04-26T08:52:25.618Z</time></trkpt><trkpt lat="45.7592415" lon="11.5673011"><ele>416.0</ele><time>2026-04-26T08:52:26.617Z</time></trkpt><trkpt lat="45.7593514" lon="11.5671766"><ele>417.5</ele><time>2026-04-26T08:52:27.613Z</time></trkpt><trkpt lat="45.7594575" lon="11.5670531"><ele>419.0</ele><time>2026-04-26T08:52:28.622Z</time></trkpt><trkpt lat="45.7595674" lon="11.566926"><ele>420.5</ele><time>2026-04-26T08:52:29.627Z</time></trkpt><trkpt lat="45.7596762" lon="11.5668001"><ele>422.0</ele><time>2026-04-26T08:52:30.623Z</time></trkpt><trkpt lat="45.7597869" lon="11.5666654"><ele>422.5</ele><time>2026-04-26T08:52:31.614Z</time></trkpt><trkpt lat="45.7598989" lon="11.5665343"><ele>423.0</ele><time>2026-04-26T08:52:32.616Z</time></trkpt><trkpt lat="45.7600042" lon="11.5664062"><ele>423.5</ele><time>2026-04-26T08:52:33.62Z</time></trkpt><trkpt lat="45.7601117" lon="11.5662959"><ele>424.0</ele><time>2026-04-26T08:52:34.615Z</time></trkpt><trkpt lat="45.7602193" lon="11.5661941"><ele>424.0</ele><time>2026-04-26T08:52:35.631Z</time></trkpt><trkpt lat="45.7603177" lon="11.5661296"><ele>424.0</ele><time>2026-04-26T08:52:36.621Z</time></trkpt><trkpt lat="45.7604228" lon="11.5661241"><ele>424.0</ele><time>2026-04-26T08:52:37.617Z</time></trkpt><trkpt lat="45.7605267" lon="11.566171"><ele>424.0</ele><time>2026-04-26T08:52:38.633Z</time></trkpt><trkpt lat="45.7606125" lon="11.5662801"><ele>424.0</ele><time>2026-04-26T08:52:39.632Z</time></trkpt><trkpt lat="45.7606881" lon="11.5664061"><ele>425.75</ele><time>2026-04-26T08:52:40.629Z</time></trkpt><trkpt lat="45.760771" lon="11.5665185"><ele>427.5</ele><time>2026-04-26T08:52:41.617Z</time></trkpt><trkpt lat="45.7608488" lon="11.5666279"><ele>429.25</ele><time>2026-04-26T08:52:42.625Z</time></trkpt><trkpt lat="45.7609372" lon="11.5667315"><ele>431.0</ele><time>2026-04-26T08:52:43.617Z</time></trkpt><trkpt lat="45.7610396" lon="11.5668299"><ele>431.0</ele><time>2026-04-26T08:52:44.625Z</time></trkpt><trkpt lat="45.7611484" lon="11.5669314"><ele>431.0</ele><time>2026-04-26T08:52:45.625Z</time></trkpt><trkpt lat="45.7612566" lon="11.5670407"><ele>431.0</ele><time>2026-04-26T08:52:46.618Z</time></trkpt><trkpt lat="45.7613591" lon="11.5671554"><ele>431.0</ele><time>2026-04-26T08:52:47.621Z</time></trkpt><trkpt lat="45.7614644" lon="11.5672665"><ele>433.0</ele><time>2026-04-26T08:52:48.625Z</time></trkpt><trkpt lat="45.761569" lon="11.5673768"><ele>435.0</ele><time>2026-04-26T08:52:49.625Z</time></trkpt><trkpt lat="45.7616723" lon="11.5674869"><ele>437.0</ele><time>2026-04-26T08:52:50.619Z</time></trkpt><trkpt lat="45.7617744" lon="11.5675923"><ele>439.0</ele><time>2026-04-26T08:52:51.622Z</time></trkpt><trkpt lat="45.7618847" lon="11.567678"><ele>441.0</ele><time>2026-04-26T08:52:52.619Z</time></trkpt><trkpt lat="45.7620049" lon="11.5677248"><ele>443.0</ele><time>2026-04-26T08:52:53.615Z</time></trkpt><trkpt lat="45.7621346" lon="11.5677318"><ele>445.0</ele><time>2026-04-26T08:52:54.619Z</time></trkpt><trkpt lat="45.7622607" lon="11.567693"><ele>447.0</ele><time>2026-04-26T08:52:55.615Z</time></trkpt><trkpt lat="45.7623834" lon="11.5676135"><ele>447.0</ele><time>2026-04-26T08:52:56.623Z</time></trkpt><trkpt lat="45.7624937" lon="11.5674948"><ele>447.0</ele><time>2026-04-26T08:52:57.616Z</time></trkpt><trkpt lat="45.7626058" lon="11.5673382"><ele>447.0</ele><time>2026-04-26T08:52:58.627Z</time></trkpt><trkpt lat="45.7627196" lon="11.5671291"><ele>449.0</ele><time>2026-04-26T08:52:59.626Z</time></trkpt><trkpt lat="45.7628409" lon="11.5669021"><ele>451.0</ele><time>2026-04-26T08:53:00.618Z</time></trkpt><trkpt lat="45.7629698" lon="11.5666943"><ele>453.0</ele><time>2026-04-26T08:53:01.62Z</time></trkpt><trkpt lat="45.763073" lon="11.5665233"><ele>453.0</ele><time>2026-04-26T08:53:02.622Z</time></trkpt><trkpt lat="45.7631621" lon="11.566344"><ele>453.0</ele><time>2026-04-26T08:53:03.63Z</time></trkpt><trkpt lat="45.7632476" lon="11.5662033"><ele>453.0</ele><time>2026-04-26T08:53:04.622Z</time></trkpt><trkpt lat="45.7633338" lon="11.5660627"><ele>453.0</ele><time>2026-04-26T08:53:05.623Z</time></trkpt><trkpt lat="45.7634517" lon="11.5659526"><ele>454.5</ele><time>2026-04-26T08:53:06.621Z</time></trkpt><trkpt lat="45.7635866" lon="11.5658584"><ele>456.0</ele><time>2026-04-26T08:53:07.626Z</time></trkpt><trkpt lat="45.7637234" lon="11.5657431"><ele>457.5</ele><time>2026-04-26T08:53:08.623Z</time></trkpt><trkpt lat="45.7638021" lon="11.5656242"><ele>459.0</ele><time>2026-04-26T08:53:09.623Z</time></trkpt><trkpt lat="45.7638464" lon="11.5655159"><ele>459.0</ele><time>2026-04-26T08:53:10.614Z</time></trkpt><trkpt lat="45.7638787" lon="11.565416"><ele>459.0</ele><time>2026-04-26T08:53:11.618Z</time></trkpt><trkpt lat="45.7639297" lon="11.5653186"><ele>459.0</ele><time>2026-04-26T08:53:13.624Z</time></trkpt><trkpt lat="45.764012" lon="11.5653773"><ele>459.0</ele><time>2026-04-26T08:53:15.622Z</time></trkpt><trkpt lat="45.7640167" lon="11.5654696"><ele>459.0</ele><time>2026-04-26T08:53:16.619Z</time></trkpt><trkpt lat="45.763996" lon="11.5656106"><ele>459.0</ele><time>2026-04-26T08:53:17.621Z</time></trkpt><trkpt lat="45.7639611" lon="11.5657605"><ele>459.0</ele><time>2026-04-26T08:53:18.614Z</time></trkpt><trkpt lat="45.7639437" lon="11.5659582"><ele>459.0</ele><time>2026-04-26T08:53:19.62Z</time></trkpt><trkpt lat="45.7639392" lon="11.5661844"><ele>459.0</ele><time>2026-04-26T08:53:20.63Z</time></trkpt><trkpt lat="45.7639256" lon="11.5664002"><ele>459.0</ele><time>2026-04-26T08:53:21.627Z</time></trkpt><trkpt lat="45.7639052" lon="11.566594"><ele>460.1666666666667</ele><time>2026-04-26T08:53:22.621Z</time></trkpt><trkpt lat="45.7638687" lon="11.5667549"><ele>461.33333333333337</ele><time>2026-04-26T08:53:23.618Z</time></trkpt><trkpt lat="45.7638214" lon="11.5668851"><ele>462.5</ele><time>2026-04-26T08:53:24.626Z</time></trkpt><trkpt lat="45.763775" lon="11.5669905"><ele>463.6666666666667</ele><time>2026-04-26T08:53:25.629Z</time></trkpt><trkpt lat="45.7637305" lon="11.5670783"><ele>464.83333333333337</ele><time>2026-04-26T08:53:26.628Z</time></trkpt><trkpt lat="45.7637026" lon="11.5671646"><ele>466.0</ele><time>2026-04-26T08:53:27.616Z</time></trkpt><trkpt lat="45.7637058" lon="11.5672648"><ele>466.83333333333337</ele><time>2026-04-26T08:53:28.618Z</time></trkpt><trkpt lat="45.7637444" lon="11.5673473"><ele>467.6666666666667</ele><time>2026-04-26T08:53:29.631Z</time></trkpt><trkpt lat="45.763802" lon="11.5673877"><ele>468.5</ele><time>2026-04-26T08:53:30.618Z</time></trkpt><trkpt lat="45.7638748" lon="11.5673703"><ele>469.33333333333337</ele><time>2026-04-26T08:53:31.632Z</time></trkpt><trkpt lat="45.7639351" lon="11.5673264"><ele>470.1666666666667</ele><time>2026-04-26T08:53:32.619Z</time></trkpt><trkpt lat="45.764" lon="11.5672285"><ele>471.0</ele><time>2026-04-26T08:53:33.625Z</time></trkpt><trkpt lat="45.7640786" lon="11.5670513"><ele>469.33333333333337</ele><time>2026-04-26T08:53:34.623Z</time></trkpt><trkpt lat="45.764149" lon="11.5668116"><ele>467.6666666666667</ele><time>2026-04-26T08:53:35.631Z</time></trkpt><trkpt lat="45.7641959" lon="11.5665541"><ele>466.0</ele><time>2026-04-26T08:53:36.631Z</time></trkpt><trkpt lat="45.7642287" lon="11.5663337"><ele>465.8</ele><time>2026-04-26T08:53:37.622Z</time></trkpt><trkpt lat="45.764287" lon="11.5661522"><ele>465.6</ele><time>2026-04-26T08:53:38.623Z</time></trkpt><trkpt lat="45.7643461" lon="11.5660544"><ele>465.4</ele><time>2026-04-26T08:53:39.617Z</time></trkpt><trkpt lat="45.7644287" lon="11.566021"><ele>465.2</ele><time>2026-04-26T08:53:40.622Z</time></trkpt><trkpt lat="45.7644951" lon="11.5660708"><ele>465.0</ele><time>2026-04-26T08:53:41.626Z</time></trkpt><trkpt lat="45.7645616" lon="11.5661951"><ele>467.66666666666663</ele><time>2026-04-26T08:53:42.622Z</time></trkpt><trkpt lat="45.7646324" lon="11.5663819"><ele>470.3333333333333</ele><time>2026-04-26T08:53:43.623Z</time></trkpt><trkpt lat="45.7647203" lon="11.5665869"><ele>473.0</ele><time>2026-04-26T08:53:44.62Z</time></trkpt><trkpt lat="45.7648081" lon="11.5667773"><ele>473.0</ele><time>2026-04-26T08:53:45.632Z</time></trkpt><trkpt lat="45.7649126" lon="11.5668999"><ele>473.0</ele><time>2026-04-26T08:53:46.625Z</time></trkpt><trkpt lat="45.7650431" lon="11.5669841"><ele>473.0</ele><time>2026-04-26T08:53:47.63Z</time></trkpt><trkpt lat="45.7651876" lon="11.5670245"><ele>473.0</ele><time>2026-04-26T08:53:48.621Z</time></trkpt><trkpt lat="45.765332" lon="11.5669939"><ele>478.0</ele><time>2026-04-26T08:53:49.61Z</time></trkpt><trkpt lat="45.7654626" lon="11.5669122"><ele>483.0</ele><time>2026-04-26T08:53:50.615Z</time></trkpt><trkpt lat="45.7655892" lon="11.5667763"><ele>488.0</ele><time>2026-04-26T08:53:51.632Z</time></trkpt><trkpt lat="45.7656971" lon="11.5665976"><ele>488.0</ele><time>2026-04-26T08:53:52.625Z</time></trkpt><trkpt lat="45.7657652" lon="11.5663851"><ele>488.0</ele><time>2026-04-26T08:53:53.614Z</time></trkpt><trkpt lat="45.7658029" lon="11.5661506"><ele>488.0</ele><time>2026-04-26T08:53:54.621Z</time></trkpt><trkpt lat="45.7658122" lon="11.5658898"><ele>486.0</ele><time>2026-04-26T08:53:55.618Z</time></trkpt><trkpt lat="45.7658103" lon="11.565611"><ele>484.0</ele><time>2026-04-26T08:53:56.625Z</time></trkpt><trkpt lat="45.7658235" lon="11.5653533"><ele>482.0</ele><time>2026-04-26T08:53:57.62Z</time></trkpt><trkpt lat="45.7658359" lon="11.5651226"><ele>480.3333333333333</ele><time>2026-04-26T08:53:58.629Z</time></trkpt><trkpt lat="45.7658524" lon="11.5648866"><ele>478.66666666666663</ele><time>2026-04-26T08:53:59.636Z</time></trkpt><trkpt lat="45.7658651" lon="11.5646541"><ele>477.0</ele><time>2026-04-26T08:54:00.617Z</time></trkpt><trkpt lat="45.7658821" lon="11.5644245"><ele>475.75</ele><time>2026-04-26T08:54:01.623Z</time></trkpt><trkpt lat="45.7659044" lon="11.5642206"><ele>474.5</ele><time>2026-04-26T08:54:02.61Z</time></trkpt><trkpt lat="45.7659324" lon="11.5640397"><ele>473.25</ele><time>2026-04-26T08:54:03.616Z</time></trkpt><trkpt lat="45.765962" lon="11.5638941"><ele>472.0</ele><time>2026-04-26T08:54:04.613Z</time></trkpt><trkpt lat="45.7660179" lon="11.5637907"><ele>472.40000000000003</ele><time>2026-04-26T08:54:05.625Z</time></trkpt><trkpt lat="45.7660939" lon="11.5637596"><ele>472.80000000000007</ele><time>2026-04-26T08:54:06.622Z</time></trkpt><trkpt lat="45.7661856" lon="11.5638035"><ele>473.2</ele><time>2026-04-26T08:54:07.624Z</time></trkpt><trkpt lat="45.7662703" lon="11.563904"><ele>473.6</ele><time>2026-04-26T08:54:08.616Z</time></trkpt><trkpt lat="45.7663631" lon="11.5640587"><ele>474.0</ele><time>2026-04-26T08:54:09.621Z</time></trkpt><trkpt lat="45.766442" lon="11.5642175"><ele>474.0</ele><time>2026-04-26T08:54:10.627Z</time></trkpt><trkpt lat="45.7665271" lon="11.5643857"><ele>474.0</ele><time>2026-04-26T08:54:11.633Z</time></trkpt><trkpt lat="45.7666186" lon="11.5645614"><ele>474.0</ele><time>2026-04-26T08:54:12.626Z</time></trkpt><trkpt lat="45.7667098" lon="11.5647415"><ele>470.66666666666663</ele><time>2026-04-26T08:54:13.641Z</time></trkpt><trkpt lat="45.7667939" lon="11.5649169"><ele>467.3333333333333</ele><time>2026-04-26T08:54:14.617Z</time></trkpt><trkpt lat="45.7668754" lon="11.5651077"><ele>464.0</ele><time>2026-04-26T08:54:15.62Z</time></trkpt><trkpt lat="45.7669596" lon="11.5652983"><ele>472.0</ele><time>2026-04-26T08:54:16.614Z</time></trkpt><trkpt lat="45.7670359" lon="11.565499"><ele>480.0</ele><time>2026-04-26T08:54:17.622Z</time></trkpt><trkpt lat="45.7671184" lon="11.5656969"><ele>488.0</ele><time>2026-04-26T08:54:18.636Z</time></trkpt><trkpt lat="45.7672136" lon="11.5658796"><ele>488.0</ele><time>2026-04-26T08:54:19.616Z</time></trkpt><trkpt lat="45.7673266" lon="11.5660457"><ele>488.0</ele><time>2026-04-26T08:54:20.616Z</time></trkpt><trkpt lat="45.7674525" lon="11.5661873"><ele>488.0</ele><time>2026-04-26T08:54:21.615Z</time></trkpt><trkpt lat="45.767595" lon="11.5662967"><ele>489.0</ele><time>2026-04-26T08:54:22.62Z</time></trkpt><trkpt lat="45.7677356" lon="11.5663966"><ele>490.0</ele><time>2026-04-26T08:54:23.626Z</time></trkpt><trkpt lat="45.7678714" lon="11.5665033"><ele>491.0</ele><time>2026-04-26T08:54:24.619Z</time></trkpt><trkpt lat="45.7679985" lon="11.5666194"><ele>491.0</ele><time>2026-04-26T08:54:25.627Z</time></trkpt><trkpt lat="45.7681184" lon="11.5667249"><ele>491.0</ele><time>2026-04-26T08:54:26.606Z</time></trkpt><trkpt lat="45.7682277" lon="11.5668194"><ele>491.0</ele><time>2026-04-26T08:54:27.612Z</time></trkpt><trkpt lat="45.7683364" lon="11.5668953"><ele>491.0</ele><time>2026-04-26T08:54:28.611Z</time></trkpt><trkpt lat="45.7684402" lon="11.5669524"><ele>495.6</ele><time>2026-04-26T08:54:29.629Z</time></trkpt><trkpt lat="45.7685406" lon="11.5669741"><ele>500.20000000000005</ele><time>2026-04-26T08:54:30.614Z</time></trkpt><trkpt lat="45.7686509" lon="11.5669316"><ele>504.79999999999995</ele><time>2026-04-26T08:54:31.604Z</time></trkpt><trkpt lat="45.768733" lon="11.5668329"><ele>509.4</ele><time>2026-04-26T08:54:32.63Z</time></trkpt><trkpt lat="45.768801" lon="11.5666806"><ele>514.0</ele><time>2026-04-26T08:54:33.629Z</time></trkpt><trkpt lat="45.7688317" lon="11.5664673"><ele>514.0</ele><time>2026-04-26T08:54:34.628Z</time></trkpt><trkpt lat="45.7688618" lon="11.5662715"><ele>514.0</ele><time>2026-04-26T08:54:35.624Z</time></trkpt><trkpt lat="45.7688704" lon="11.5660701"><ele>514.0</ele><time>2026-04-26T08:54:36.618Z</time></trkpt><trkpt lat="45.7688547" lon="11.5658819"><ele>514.0</ele><time>2026-04-26T08:54:37.619Z</time></trkpt><trkpt lat="45.7688486" lon="11.5657144"><ele>514.5</ele><time>2026-04-26T08:54:38.615Z</time></trkpt><trkpt lat="45.7688582" lon="11.5655475"><ele>515.0</ele><time>2026-04-26T08:54:39.617Z</time></trkpt><trkpt lat="45.7688898" lon="11.5653758"><ele>515.5</ele><time>2026-04-26T08:54:40.619Z</time></trkpt><trkpt lat="45.7689268" lon="11.5651945"><ele>516.0</ele><time>2026-04-26T08:54:41.632Z</time></trkpt><trkpt lat="45.7689595" lon="11.5650086"><ele>515.0</ele><time>2026-04-26T08:54:42.617Z</time></trkpt><trkpt lat="45.7689649" lon="11.5648177"><ele>514.0</ele><time>2026-04-26T08:54:43.617Z</time></trkpt><trkpt lat="45.7689714" lon="11.5646209"><ele>513.0</ele><time>2026-04-26T08:54:44.63Z</time></trkpt><trkpt lat="45.7690071" lon="11.5644256"><ele>512.0</ele><time>2026-04-26T08:54:45.62Z</time></trkpt><trkpt lat="45.7690865" lon="11.5642432"><ele>510.3333333333333</ele><time>2026-04-26T08:54:46.635Z</time></trkpt><trkpt lat="45.769164" lon="11.5640558"><ele>508.66666666666663</ele><time>2026-04-26T08:54:47.62Z</time></trkpt><trkpt lat="45.769257" lon="11.5638701"><ele>507.0</ele><time>2026-04-26T08:54:48.622Z</time></trkpt><trkpt lat="45.7693247" lon="11.5636569"><ele>519.3333333333334</ele><time>2026-04-26T08:54:49.618Z</time></trkpt><trkpt lat="45.7693794" lon="11.5634422"><ele>531.6666666666667</ele><time>2026-04-26T08:54:50.618Z</time></trkpt><trkpt lat="45.7694379" lon="11.5632203"><ele>544.0</ele><time>2026-04-26T08:54:51.612Z</time></trkpt><trkpt lat="45.7694934" lon="11.5629999"><ele>542.3333333333334</ele><time>2026-04-26T08:54:52.61Z</time></trkpt><trkpt lat="45.7695472" lon="11.5627837"><ele>540.6666666666666</ele><time>2026-04-26T08:54:53.633Z</time></trkpt><trkpt lat="45.7695965" lon="11.5625742"><ele>539.0</ele><time>2026-04-26T08:54:54.621Z</time></trkpt><trkpt lat="45.7696437" lon="11.5623721"><ele>539.0</ele><time>2026-04-26T08:54:55.61Z</time></trkpt><trkpt lat="45.7696651" lon="11.562164"><ele>539.0</ele><time>2026-04-26T08:54:56.622Z</time></trkpt><trkpt lat="45.7696634" lon="11.5619301"><ele>539.0</ele><time>2026-04-26T08:54:57.62Z</time></trkpt><trkpt lat="45.7696658" lon="11.5617003"><ele>537.75</ele><time>2026-04-26T08:54:58.621Z</time></trkpt><trkpt lat="45.7696977" lon="11.5614955"><ele>536.5</ele><time>2026-04-26T08:54:59.62Z</time></trkpt><trkpt lat="45.7697465" lon="11.5613441"><ele>535.25</ele><time>2026-04-26T08:55:00.616Z</time></trkpt><trkpt lat="45.7697914" lon="11.5612356"><ele>534.0</ele><time>2026-04-26T08:55:01.609Z</time></trkpt><trkpt lat="45.7698543" lon="11.5611126"><ele>534.0</ele><time>2026-04-26T08:55:03.609Z</time></trkpt><trkpt lat="45.7699076" lon="11.5611909"><ele>534.0</ele><time>2026-04-26T08:55:05.609Z</time></trkpt><trkpt lat="45.7698839" lon="11.5612856"><ele>534.0</ele><time>2026-04-26T08:55:06.616Z</time></trkpt><trkpt lat="45.7698557" lon="11.5614063"><ele>534.0</ele><time>2026-04-26T08:55:07.617Z</time></trkpt><trkpt lat="45.7698207" lon="11.5615439"><ele>534.0</ele><time>2026-04-26T08:55:08.623Z</time></trkpt><trkpt lat="45.7698002" lon="11.5616934"><ele>534.0</ele><time>2026-04-26T08:55:09.609Z</time></trkpt><trkpt lat="45.7698023" lon="11.56186"><ele>534.0</ele><time>2026-04-26T08:55:10.618Z</time></trkpt><trkpt lat="45.7698327" lon="11.5620248"><ele>534.0</ele><time>2026-04-26T08:55:11.611Z</time></trkpt><trkpt lat="45.7698519" lon="11.5621874"><ele>534.0</ele><time>2026-04-26T08:55:12.635Z</time></trkpt><trkpt lat="45.7698721" lon="11.5623323"><ele>534.0</ele><time>2026-04-26T08:55:13.628Z</time></trkpt><trkpt lat="45.7698871" lon="11.5624778"><ele>534.0</ele><time>2026-04-26T08:55:14.621Z</time></trkpt><trkpt lat="45.769894" lon="11.5626265"><ele>535.0</ele><time>2026-04-26T08:55:15.616Z</time></trkpt><trkpt lat="45.7698938" lon="11.5627623"><ele>536.0</ele><time>2026-04-26T08:55:16.622Z</time></trkpt><trkpt lat="45.769902" lon="11.5628964"><ele>537.0</ele><time>2026-04-26T08:55:17.616Z</time></trkpt><trkpt lat="45.7699038" lon="11.5630373"><ele>538.0</ele><time>2026-04-26T08:55:18.617Z</time></trkpt><trkpt lat="45.7698951" lon="11.5631779"><ele>539.0</ele><time>2026-04-26T08:55:19.623Z</time></trkpt><trkpt lat="45.7698717" lon="11.5633233"><ele>540.25</ele><time>2026-04-26T08:55:20.617Z</time></trkpt><trkpt lat="45.7698399" lon="11.5634802"><ele>541.5</ele><time>2026-04-26T08:55:21.625Z</time></trkpt><trkpt lat="45.7698128" lon="11.5636492"><ele>542.75</ele><time>2026-04-26T08:55:22.621Z</time></trkpt><trkpt lat="45.7697836" lon="11.5638192"><ele>544.0</ele><time>2026-04-26T08:55:23.626Z</time></trkpt><trkpt lat="45.7697667" lon="11.5639862"><ele>547.2</ele><time>2026-04-26T08:55:24.616Z</time></trkpt><trkpt lat="45.7697561" lon="11.5641567"><ele>550.4</ele><time>2026-04-26T08:55:25.613Z</time></trkpt><trkpt lat="45.7697413" lon="11.5643335"><ele>553.6</ele><time>2026-04-26T08:55:26.621Z</time></trkpt><trkpt lat="45.7697301" lon="11.5644858"><ele>556.8</ele><time>2026-04-26T08:55:27.613Z</time></trkpt><trkpt lat="45.7697147" lon="11.564607"><ele>560.0</ele><time>2026-04-26T08:55:28.618Z</time></trkpt><trkpt lat="45.7697144" lon="11.564726"><ele>562.0</ele><time>2026-04-26T08:55:29.624Z</time></trkpt><trkpt lat="45.7697019" lon="11.5648173"><ele>564.0</ele><time>2026-04-26T08:55:30.614Z</time></trkpt><trkpt lat="45.7696851" lon="11.5649822"><ele>566.0</ele><time>2026-04-26T08:55:32.614Z</time></trkpt><trkpt lat="45.7696761" lon="11.5651328"><ele>568.0</ele><time>2026-04-26T08:55:34.61Z</time></trkpt><trkpt lat="45.7697056" lon="11.5652558"><ele>570.0</ele><time>2026-04-26T08:55:36.607Z</time></trkpt><trkpt lat="45.7697998" lon="11.5652497"><ele>570.0</ele><time>2026-04-26T08:55:38.61Z</time></trkpt><trkpt lat="45.7698287" lon="11.5651525"><ele>570.0</ele><time>2026-04-26T08:55:39.618Z</time></trkpt><trkpt lat="45.7698309" lon="11.5650337"><ele>570.0</ele><time>2026-04-26T08:55:40.618Z</time></trkpt><trkpt lat="45.7698053" lon="11.5649023"><ele>570.0</ele><time>2026-04-26T08:55:41.614Z</time></trkpt><trkpt lat="45.7698242" lon="11.5647203"><ele>570.0</ele><time>2026-04-26T08:55:42.626Z</time></trkpt><trkpt lat="45.7698607" lon="11.5645248"><ele>567.5</ele><time>2026-04-26T08:55:43.612Z</time></trkpt><trkpt lat="45.7698877" lon="11.5643167"><ele>565.0</ele><time>2026-04-26T08:55:44.618Z</time></trkpt><trkpt lat="45.7699236" lon="11.5641193"><ele>562.5</ele><time>2026-04-26T08:55:45.617Z</time></trkpt><trkpt lat="45.7699567" lon="11.5639336"><ele>560.0</ele><time>2026-04-26T08:55:46.613Z</time></trkpt><trkpt lat="45.7699996" lon="11.5637517"><ele>554.6666666666666</ele><time>2026-04-26T08:55:47.611Z</time></trkpt><trkpt lat="45.7700501" lon="11.5635589"><ele>549.3333333333334</ele><time>2026-04-26T08:55:48.609Z</time></trkpt><trkpt lat="45.7701089" lon="11.5633486"><ele>544.0</ele><time>2026-04-26T08:55:49.615Z</time></trkpt><trkpt lat="45.7701668" lon="11.563137"><ele>560.6666666666667</ele><time>2026-04-26T08:55:50.616Z</time></trkpt><trkpt lat="45.7702335" lon="11.5629171"><ele>577.3333333333334</ele><time>2026-04-26T08:55:51.615Z</time></trkpt><trkpt lat="45.7702905" lon="11.5626794"><ele>594.0</ele><time>2026-04-26T08:55:52.614Z</time></trkpt><trkpt lat="45.7703472" lon="11.5624241"><ele>594.0</ele><time>2026-04-26T08:55:53.617Z</time></trkpt><trkpt lat="45.7703976" lon="11.5621665"><ele>594.0</ele><time>2026-04-26T08:55:54.625Z</time></trkpt><trkpt lat="45.7704382" lon="11.5618951"><ele>594.0</ele><time>2026-04-26T08:55:55.619Z</time></trkpt><trkpt lat="45.7704697" lon="11.5616128"><ele>592.0</ele><time>2026-04-26T08:55:56.617Z</time></trkpt><trkpt lat="45.7705067" lon="11.5613193"><ele>590.0</ele><time>2026-04-26T08:55:57.605Z</time></trkpt><trkpt lat="45.7705639" lon="11.5610132"><ele>588.0</ele><time>2026-04-26T08:55:58.623Z</time></trkpt><trkpt lat="45.7706201" lon="11.5607329"><ele>585.6666666666666</ele><time>2026-04-26T08:55:59.615Z</time></trkpt><trkpt lat="45.7706762" lon="11.5604814"><ele>583.3333333333333</ele><time>2026-04-26T08:56:00.627Z</time></trkpt><trkpt lat="45.7707259" lon="11.560267"><ele>581.0</ele><time>2026-04-26T08:56:01.619Z</time></trkpt><trkpt lat="45.7707697" lon="11.5600631"><ele>578.75</ele><time>2026-04-26T08:56:02.618Z</time></trkpt><trkpt lat="45.7708178" lon="11.559885"><ele>576.5</ele><time>2026-04-26T08:56:03.63Z</time></trkpt><trkpt lat="45.7708606" lon="11.559731"><ele>574.25</ele><time>2026-04-26T08:56:04.617Z</time></trkpt><trkpt lat="45.7708973" lon="11.5596117"><ele>572.0</ele><time>2026-04-26T08:56:05.628Z</time></trkpt><trkpt lat="45.7709938" lon="11.5595281"><ele>572.0</ele><time>2026-04-26T08:56:07.623Z</time></trkpt><trkpt lat="45.7710411" lon="11.5596896"><ele>572.0</ele><time>2026-04-26T08:56:09.629Z</time></trkpt><trkpt lat="45.7710176" lon="11.5598179"><ele>572.0</ele><time>2026-04-26T08:56:10.621Z</time></trkpt><trkpt lat="45.7709594" lon="11.5599786"><ele>572.0</ele><time>2026-04-26T08:56:11.624Z</time></trkpt><trkpt lat="45.7709179" lon="11.5601818"><ele>575.0</ele><time>2026-04-26T08:56:12.626Z</time></trkpt><trkpt lat="45.7708981" lon="11.5604286"><ele>578.0</ele><time>2026-04-26T08:56:13.618Z</time></trkpt><trkpt lat="45.7708743" lon="11.5606921"><ele>581.0</ele><time>2026-04-26T08:56:14.63Z</time></trkpt><trkpt lat="45.7708492" lon="11.5609503"><ele>581.0</ele><time>2026-04-26T08:56:15.618Z</time></trkpt><trkpt lat="45.7708266" lon="11.5611973"><ele>581.0</ele><time>2026-04-26T08:56:16.621Z</time></trkpt><trkpt lat="45.7708073" lon="11.5614331"><ele>581.0</ele><time>2026-04-26T08:56:17.618Z</time></trkpt><trkpt lat="45.7707898" lon="11.561671"><ele>583.3333333333333</ele><time>2026-04-26T08:56:18.626Z</time></trkpt><trkpt lat="45.7707782" lon="11.5618913"><ele>585.6666666666666</ele><time>2026-04-26T08:56:19.627Z</time></trkpt><trkpt lat="45.7707818" lon="11.5621111"><ele>588.0</ele><time>2026-04-26T08:56:20.627Z</time></trkpt><trkpt lat="45.7707836" lon="11.5623298"><ele>589.5</ele><time>2026-04-26T08:56:21.623Z</time></trkpt><trkpt lat="45.7707894" lon="11.5625304"><ele>591.0</ele><time>2026-04-26T08:56:22.626Z</time></trkpt><trkpt lat="45.7707909" lon="11.5627136"><ele>592.5</ele><time>2026-04-26T08:56:23.63Z</time></trkpt><trkpt lat="45.7707947" lon="11.5628728"><ele>594.0</ele><time>2026-04-26T08:56:24.623Z</time></trkpt><trkpt lat="45.7707994" lon="11.5630065"><ele>594.0</ele><time>2026-04-26T08:56:25.618Z</time></trkpt><trkpt lat="45.7708184" lon="11.5631132"><ele>594.0</ele><time>2026-04-26T08:56:26.606Z</time></trkpt><trkpt lat="45.7709216" lon="11.5631358"><ele>594.0</ele><time>2026-04-26T08:56:28.614Z</time></trkpt><trkpt lat="45.7709756" lon="11.5630575"><ele>594.0</ele><time>2026-04-26T08:56:29.623Z</time></trkpt><trkpt lat="45.7709801" lon="11.5629107"><ele>594.0</ele><time>2026-04-26T08:56:30.615Z</time></trkpt><trkpt lat="45.7709925" lon="11.5627317"><ele>594.0</ele><time>2026-04-26T08:56:31.621Z</time></trkpt><trkpt lat="45.7710017" lon="11.562536"><ele>594.0</ele><time>2026-04-26T08:56:32.622Z</time></trkpt><trkpt lat="45.7710139" lon="11.5623267"><ele>594.0</ele><time>2026-04-26T08:56:33.637Z</time></trkpt><trkpt lat="45.7710167" lon="11.5621145"><ele>594.0</ele><time>2026-04-26T08:56:34.605Z</time></trkpt><trkpt lat="45.7710248" lon="11.5618998"><ele>598.5</ele><time>2026-04-26T08:56:35.62Z</time></trkpt><trkpt lat="45.7710424" lon="11.5616928"><ele>603.0</ele><time>2026-04-26T08:56:36.609Z</time></trkpt><trkpt lat="45.7710695" lon="11.561497"><ele>607.5</ele><time>2026-04-26T08:56:37.608Z</time></trkpt><trkpt lat="45.7711148" lon="11.5613034"><ele>612.0</ele><time>2026-04-26T08:56:38.616Z</time></trkpt><trkpt lat="45.771169" lon="11.5611122"><ele>612.0</ele><time>2026-04-26T08:56:39.633Z</time></trkpt><trkpt lat="45.7712381" lon="11.560938"><ele>612.0</ele><time>2026-04-26T08:56:40.62Z</time></trkpt><trkpt lat="45.7713107" lon="11.5607901"><ele>612.0</ele><time>2026-04-26T08:56:41.621Z</time></trkpt><trkpt lat="45.7713894" lon="11.5606573"><ele>612.0</ele><time>2026-04-26T08:56:42.62Z</time></trkpt><trkpt lat="45.7714629" lon="11.560536"><ele>612.0</ele><time>2026-04-26T08:56:43.611Z</time></trkpt><trkpt lat="45.7715519" lon="11.5604368"><ele>612.0</ele><time>2026-04-26T08:56:44.614Z</time></trkpt><trkpt lat="45.7716566" lon="11.5603922"><ele>612.0</ele><time>2026-04-26T08:56:45.63Z</time></trkpt><trkpt lat="45.7717865" lon="11.5604013"><ele>612.0</ele><time>2026-04-26T08:56:46.626Z</time></trkpt><trkpt lat="45.7719156" lon="11.5604483"><ele>613.3333333333334</ele><time>2026-04-26T08:56:47.638Z</time></trkpt><trkpt lat="45.7720539" lon="11.5605515"><ele>614.6666666666667</ele><time>2026-04-26T08:56:48.622Z</time></trkpt><trkpt lat="45.7722243" lon="11.5606624"><ele>616.0</ele><time>2026-04-26T08:56:49.615Z</time></trkpt><trkpt lat="45.7724087" lon="11.5607871"><ele>616.0</ele><time>2026-04-26T08:56:50.618Z</time></trkpt><trkpt lat="45.7726086" lon="11.5609071"><ele>616.0</ele><time>2026-04-26T08:56:51.621Z</time></trkpt><trkpt lat="45.7728249" lon="11.5610347"><ele>617.0</ele><time>2026-04-26T08:56:52.625Z</time></trkpt><trkpt lat="45.7730411" lon="11.5611543"><ele>618.0</ele><time>2026-04-26T08:56:53.615Z</time></trkpt><trkpt lat="45.7732281" lon="11.5612596"><ele>619.0</ele><time>2026-04-26T08:56:54.612Z</time></trkpt><trkpt lat="45.7733886" lon="11.5613447"><ele>621.5</ele><time>2026-04-26T08:56:55.612Z</time></trkpt><trkpt lat="45.7735352" lon="11.5614217"><ele>624.0</ele><time>2026-04-26T08:56:56.623Z</time></trkpt><trkpt lat="45.773647" lon="11.5615022"><ele>626.5</ele><time>2026-04-26T08:56:57.618Z</time></trkpt><trkpt lat="45.7737085" lon="11.5616132"><ele>629.0</ele><time>2026-04-26T08:56:58.611Z</time></trkpt><trkpt lat="45.7737265" lon="11.5617238"><ele>629.0</ele><time>2026-04-26T08:56:59.62Z</time></trkpt><trkpt lat="45.7737024" lon="11.5618392"><ele>629.0</ele><time>2026-04-26T08:57:00.607Z</time></trkpt><trkpt lat="45.7736242" lon="11.5619133"><ele>629.0</ele><time>2026-04-26T08:57:01.629Z</time></trkpt><trkpt lat="45.7735323" lon="11.5619391"><ele>629.0</ele><time>2026-04-26T08:57:02.635Z</time></trkpt><trkpt lat="45.7734092" lon="11.5619626"><ele>629.0</ele><time>2026-04-26T08:57:03.635Z</time></trkpt><trkpt lat="45.7732967" lon="11.5620385"><ele>632.25</ele><time>2026-04-26T08:57:04.61Z</time></trkpt><trkpt lat="45.7731895" lon="11.5621444"><ele>635.5</ele><time>2026-04-26T08:57:05.613Z</time></trkpt><trkpt lat="45.773104" lon="11.5623038"><ele>638.75</ele><time>2026-04-26T08:57:06.619Z</time></trkpt><trkpt lat="45.7730714" lon="11.5625084"><ele>642.0</ele><time>2026-04-26T08:57:07.617Z</time></trkpt><trkpt lat="45.7730527" lon="11.5627201"><ele>645.3333333333334</ele><time>2026-04-26T08:57:08.612Z</time></trkpt><trkpt lat="45.7730146" lon="11.5629405"><ele>648.6666666666667</ele><time>2026-04-26T08:57:09.611Z</time></trkpt><trkpt lat="45.7729482" lon="11.563149"><ele>652.0</ele><time>2026-04-26T08:57:10.617Z</time></trkpt><trkpt lat="45.7728618" lon="11.5633378"><ele>652.0</ele><time>2026-04-26T08:57:11.628Z</time></trkpt><trkpt lat="45.7727753" lon="11.5635398"><ele>652.0</ele><time>2026-04-26T08:57:12.614Z</time></trkpt><trkpt lat="45.7726998" lon="11.5637517"><ele>652.0</ele><time>2026-04-26T08:57:13.616Z</time></trkpt><trkpt lat="45.7726397" lon="11.5639736"><ele>651.75</ele><time>2026-04-26T08:57:14.617Z</time></trkpt><trkpt lat="45.7725865" lon="11.5641743"><ele>651.5</ele><time>2026-04-26T08:57:15.618Z</time></trkpt><trkpt lat="45.7725241" lon="11.5643603"><ele>651.25</ele><time>2026-04-26T08:57:16.625Z</time></trkpt><trkpt lat="45.7724345" lon="11.5645321"><ele>651.0</ele><time>2026-04-26T08:57:17.624Z</time></trkpt><trkpt lat="45.7723517" lon="11.5646654"><ele>653.25</ele><time>2026-04-26T08:57:18.618Z</time></trkpt><trkpt lat="45.7722835" lon="11.5648113"><ele>655.5</ele><time>2026-04-26T08:57:19.619Z</time></trkpt><trkpt lat="45.7722442" lon="11.5649587"><ele>657.75</ele><time>2026-04-26T08:57:20.615Z</time></trkpt><trkpt lat="45.7722207" lon="11.5651112"><ele>660.0</ele><time>2026-04-26T08:57:21.618Z</time></trkpt><trkpt lat="45.7722505" lon="11.565266"><ele>660.25</ele><time>2026-04-26T08:57:22.618Z</time></trkpt><trkpt lat="45.7722946" lon="11.5654289"><ele>660.5</ele><time>2026-04-26T08:57:23.612Z</time></trkpt><trkpt lat="45.7723697" lon="11.565561"><ele>660.75</ele><time>2026-04-26T08:57:24.634Z</time></trkpt><trkpt lat="45.7724515" lon="11.5657129"><ele>661.0</ele><time>2026-04-26T08:57:25.624Z</time></trkpt><trkpt lat="45.7725378" lon="11.5658787"><ele>661.0</ele><time>2026-04-26T08:57:26.626Z</time></trkpt><trkpt lat="45.7726234" lon="11.5660475"><ele>661.0</ele><time>2026-04-26T08:57:27.629Z</time></trkpt><trkpt lat="45.7727093" lon="11.5662179"><ele>661.0</ele><time>2026-04-26T08:57:28.63Z</time></trkpt><trkpt lat="45.7727944" lon="11.5663823"><ele>661.0</ele><time>2026-04-26T08:57:29.617Z</time></trkpt><trkpt lat="45.7728702" lon="11.5665518"><ele>662.6666666666667</ele><time>2026-04-26T08:57:30.619Z</time></trkpt><trkpt lat="45.7729259" lon="11.5667494"><ele>664.3333333333334</ele><time>2026-04-26T08:57:31.618Z</time></trkpt><trkpt lat="45.7729755" lon="11.566968"><ele>666.0</ele><time>2026-04-26T08:57:32.638Z</time></trkpt><trkpt lat="45.7730018" lon="11.567186"><ele>666.0</ele><time>2026-04-26T08:57:33.624Z</time></trkpt><trkpt lat="45.7730308" lon="11.5674204"><ele>666.0</ele><time>2026-04-26T08:57:34.621Z</time></trkpt><trkpt lat="45.7730599" lon="11.567652"><ele>666.0</ele><time>2026-04-26T08:57:35.62Z</time></trkpt><trkpt lat="45.7731082" lon="11.5678649"><ele>664.6666666666666</ele><time>2026-04-26T08:57:36.623Z</time></trkpt><trkpt lat="45.7731858" lon="11.5680605"><ele>663.3333333333333</ele><time>2026-04-26T08:57:37.63Z</time></trkpt><trkpt lat="45.7732948" lon="11.5682076"><ele>662.0</ele><time>2026-04-26T08:57:38.62Z</time></trkpt><trkpt lat="45.7734247" lon="11.5683115"><ele>669.3333333333333</ele><time>2026-04-26T08:57:39.618Z</time></trkpt><trkpt lat="45.7735713" lon="11.5683901"><ele>676.6666666666666</ele><time>2026-04-26T08:57:40.628Z</time></trkpt><trkpt lat="45.7737217" lon="11.5684526"><ele>684.0</ele><time>2026-04-26T08:57:41.616Z</time></trkpt><trkpt lat="45.7738692" lon="11.5685304"><ele>684.0</ele><time>2026-04-26T08:57:42.619Z</time></trkpt><trkpt lat="45.7740014" lon="11.5686472"><ele>684.0</ele><time>2026-04-26T08:57:43.628Z</time></trkpt><trkpt lat="45.7741279" lon="11.5688041"><ele>684.0</ele><time>2026-04-26T08:57:44.63Z</time></trkpt><trkpt lat="45.7742297" lon="11.5689963"><ele>685.25</ele><time>2026-04-26T08:57:45.63Z</time></trkpt><trkpt lat="45.7743198" lon="11.5691848"><ele>686.5</ele><time>2026-04-26T08:57:46.632Z</time></trkpt><trkpt lat="45.7743837" lon="11.5693672"><ele>687.75</ele><time>2026-04-26T08:57:47.635Z</time></trkpt><trkpt lat="45.7744241" lon="11.5695286"><ele>689.0</ele><time>2026-04-26T08:57:48.621Z</time></trkpt><trkpt lat="45.7744593" lon="11.5696645"><ele>689.0</ele><time>2026-04-26T08:57:49.634Z</time></trkpt><trkpt lat="45.7745156" lon="11.5697454"><ele>689.0</ele><time>2026-04-26T08:57:50.623Z</time></trkpt><trkpt lat="45.7745875" lon="11.5697539"><ele>689.0</ele><time>2026-04-26T08:57:51.636Z</time></trkpt><trkpt lat="45.7746418" lon="11.5696735"><ele>689.0</ele><time>2026-04-26T08:57:52.619Z</time></trkpt><trkpt lat="45.7746727" lon="11.5695387"><ele>689.0</ele><time>2026-04-26T08:57:53.63Z</time></trkpt><trkpt lat="45.7746607" lon="11.5693674"><ele>689.0</ele><time>2026-04-26T08:57:54.621Z</time></trkpt><trkpt lat="45.7745745" lon="11.5692185"><ele>691.6666666666666</ele><time>2026-04-26T08:57:55.621Z</time></trkpt><trkpt lat="45.7745516" lon="11.5690222"><ele>694.3333333333334</ele><time>2026-04-26T08:57:56.617Z</time></trkpt><trkpt lat="45.7745554" lon="11.5687815"><ele>697.0</ele><time>2026-04-26T08:57:57.632Z</time></trkpt><trkpt lat="45.7745276" lon="11.5685502"><ele>699.0</ele><time>2026-04-26T08:57:58.632Z</time></trkpt><trkpt lat="45.774471" lon="11.5683317"><ele>701.0</ele><time>2026-04-26T08:57:59.616Z</time></trkpt><trkpt lat="45.7744235" lon="11.5681289"><ele>703.0</ele><time>2026-04-26T08:58:00.623Z</time></trkpt><trkpt lat="45.7743854" lon="11.5679199"><ele>698.3333333333334</ele><time>2026-04-26T08:58:01.626Z</time></trkpt><trkpt lat="45.7743492" lon="11.5677133"><ele>693.6666666666666</ele><time>2026-04-26T08:58:02.62Z</time></trkpt><trkpt lat="45.7743312" lon="11.5674967"><ele>689.0</ele><time>2026-04-26T08:58:03.624Z</time></trkpt><trkpt lat="45.7743155" lon="11.5672834"><ele>689.0</ele><time>2026-04-26T08:58:04.613Z</time></trkpt><trkpt lat="45.7743049" lon="11.5670825"><ele>689.0</ele><time>2026-04-26T08:58:05.61Z</time></trkpt><trkpt lat="45.7743029" lon="11.5669198"><ele>689.0</ele><time>2026-04-26T08:58:06.629Z</time></trkpt><trkpt lat="45.7743122" lon="11.5667701"><ele>689.0</ele><time>2026-04-26T08:58:07.614Z</time></trkpt><trkpt lat="45.774338" lon="11.566643"><ele>690.6666666666666</ele><time>2026-04-26T08:58:08.615Z</time></trkpt><trkpt lat="45.7743913" lon="11.56656"><ele>692.3333333333333</ele><time>2026-04-26T08:58:09.61Z</time></trkpt><trkpt lat="45.7744558" lon="11.566554"><ele>694.0</ele><time>2026-04-26T08:58:10.617Z</time></trkpt><trkpt lat="45.7745267" lon="11.5666065"><ele>695.6666666666666</ele><time>2026-04-26T08:58:11.628Z</time></trkpt><trkpt lat="45.7745565" lon="11.5667097"><ele>697.3333333333334</ele><time>2026-04-26T08:58:12.623Z</time></trkpt><trkpt lat="45.7745485" lon="11.5668683"><ele>699.0</ele><time>2026-04-26T08:58:13.613Z</time></trkpt><trkpt lat="45.7745369" lon="11.5670588"><ele>700.5</ele><time>2026-04-26T08:58:14.625Z</time></trkpt><trkpt lat="45.7745328" lon="11.5672446"><ele>702.0</ele><time>2026-04-26T08:58:15.617Z</time></trkpt><trkpt lat="45.7745583" lon="11.5674072"><ele>703.5</ele><time>2026-04-26T08:58:16.627Z</time></trkpt><trkpt lat="45.7746033" lon="11.5675545"><ele>705.0</ele><time>2026-04-26T08:58:17.616Z</time></trkpt><trkpt lat="45.7746759" lon="11.5676902"><ele>705.0</ele><time>2026-04-26T08:58:18.605Z</time></trkpt><trkpt lat="45.7747919" lon="11.5677987"><ele>705.0</ele><time>2026-04-26T08:58:19.626Z</time></trkpt><trkpt lat="45.7749095" lon="11.5679239"><ele>705.0</ele><time>2026-04-26T08:58:20.625Z</time></trkpt><trkpt lat="45.7750102" lon="11.568071"><ele>705.0</ele><time>2026-04-26T08:58:21.625Z</time></trkpt><trkpt lat="45.7750981" lon="11.5682314"><ele>704.5</ele><time>2026-04-26T08:58:22.613Z</time></trkpt><trkpt lat="45.7751753" lon="11.5683949"><ele>704.0</ele><time>2026-04-26T08:58:23.614Z</time></trkpt><trkpt lat="45.7752503" lon="11.5685616"><ele>703.5</ele><time>2026-04-26T08:58:24.619Z</time></trkpt><trkpt lat="45.7753204" lon="11.568716"><ele>703.0</ele><time>2026-04-26T08:58:25.611Z</time></trkpt><trkpt lat="45.7753778" lon="11.5688397"><ele>706.4</ele><time>2026-04-26T08:58:26.624Z</time></trkpt><trkpt lat="45.7754317" lon="11.5689416"><ele>709.8</ele><time>2026-04-26T08:58:27.613Z</time></trkpt><trkpt lat="45.7754808" lon="11.5690317"><ele>713.2</ele><time>2026-04-26T08:58:28.634Z</time></trkpt><trkpt lat="45.7755455" lon="11.5691085"><ele>716.6</ele><time>2026-04-26T08:58:29.622Z</time></trkpt><trkpt lat="45.7756329" lon="11.5691464"><ele>720.0</ele><time>2026-04-26T08:58:30.617Z</time></trkpt><trkpt lat="45.7757369" lon="11.569176"><ele>720.0</ele><time>2026-04-26T08:58:31.618Z</time></trkpt><trkpt lat="45.7758385" lon="11.5691847"><ele>720.0</ele><time>2026-04-26T08:58:32.63Z</time></trkpt><trkpt lat="45.7759449" lon="11.5691771"><ele>720.0</ele><time>2026-04-26T08:58:33.624Z</time></trkpt><trkpt lat="45.7760523" lon="11.5691371"><ele>720.0</ele><time>2026-04-26T08:58:34.63Z</time></trkpt><trkpt lat="45.7761584" lon="11.5690773"><ele>720.0</ele><time>2026-04-26T08:58:35.636Z</time></trkpt><trkpt lat="45.7762674" lon="11.5690145"><ele>722.0</ele><time>2026-04-26T08:58:36.636Z</time></trkpt><trkpt lat="45.7763779" lon="11.56894"><ele>724.0</ele><time>2026-04-26T08:58:37.618Z</time></trkpt><trkpt lat="45.776494" lon="11.5688773"><ele>726.0</ele><time>2026-04-26T08:58:38.628Z</time></trkpt><trkpt lat="45.7766102" lon="11.5688331"><ele>728.0</ele><time>2026-04-26T08:58:39.606Z</time></trkpt><trkpt lat="45.7767296" lon="11.5688021"><ele>728.0</ele><time>2026-04-26T08:58:40.625Z</time></trkpt><trkpt lat="45.7768469" lon="11.5687803"><ele>728.0</ele><time>2026-04-26T08:58:41.621Z</time></trkpt><trkpt lat="45.7769684" lon="11.5687619"><ele>728.0</ele><time>2026-04-26T08:58:42.619Z</time></trkpt><trkpt lat="45.7770894" lon="11.5687463"><ele>728.0</ele><time>2026-04-26T08:58:43.628Z</time></trkpt><trkpt lat="45.7772076" lon="11.5687334"><ele>730.75</ele><time>2026-04-26T08:58:44.633Z</time></trkpt><trkpt lat="45.7773239" lon="11.5687121"><ele>733.5</ele><time>2026-04-26T08:58:45.617Z</time></trkpt><trkpt lat="45.7774463" lon="11.5686924"><ele>736.25</ele><time>2026-04-26T08:58:46.616Z</time></trkpt><trkpt lat="45.777569" lon="11.5686792"><ele>739.0</ele><time>2026-04-26T08:58:47.619Z</time></trkpt><trkpt lat="45.7776951" lon="11.5686728"><ele>740.0</ele><time>2026-04-26T08:58:48.613Z</time></trkpt><trkpt lat="45.7778289" lon="11.5686753"><ele>741.0</ele><time>2026-04-26T08:58:49.617Z</time></trkpt><trkpt lat="45.7779673" lon="11.5686764"><ele>742.0</ele><time>2026-04-26T08:58:50.623Z</time></trkpt><trkpt lat="45.7781116" lon="11.5686811"><ele>743.0</ele><time>2026-04-26T08:58:51.63Z</time></trkpt><trkpt lat="45.7782623" lon="11.56868"><ele>743.0</ele><time>2026-04-26T08:58:52.628Z</time></trkpt><trkpt lat="45.7784068" lon="11.5686839"><ele>743.0</ele><time>2026-04-26T08:58:53.61Z</time></trkpt><trkpt lat="45.7785488" lon="11.5686841"><ele>743.0</ele><time>2026-04-26T08:58:54.617Z</time></trkpt><trkpt lat="45.7786873" lon="11.5686828"><ele>743.0</ele><time>2026-04-26T08:58:55.623Z</time></trkpt><trkpt lat="45.778819" lon="11.5686849"><ele>745.0</ele><time>2026-04-26T08:58:56.612Z</time></trkpt><trkpt lat="45.7789474" lon="11.5686884"><ele>747.0</ele><time>2026-04-26T08:58:57.612Z</time></trkpt><trkpt lat="45.779075" lon="11.5686938"><ele>749.0</ele><time>2026-04-26T08:58:58.632Z</time></trkpt><trkpt lat="45.7791969" lon="11.5686949"><ele>751.0</ele><time>2026-04-26T08:58:59.614Z</time></trkpt><trkpt lat="45.7793216" lon="11.5687115"><ele>752.75</ele><time>2026-04-26T08:59:00.625Z</time></trkpt><trkpt lat="45.7794367" lon="11.5687288"><ele>754.5</ele><time>2026-04-26T08:59:01.615Z</time></trkpt><trkpt lat="45.7795462" lon="11.5687475"><ele>756.25</ele><time>2026-04-26T08:59:02.623Z</time></trkpt><trkpt lat="45.7796604" lon="11.5687642"><ele>758.0</ele><time>2026-04-26T08:59:03.618Z</time></trkpt><trkpt lat="45.7797717" lon="11.5687794"><ele>758.0</ele><time>2026-04-26T08:59:04.623Z</time></trkpt><trkpt lat="45.7798845" lon="11.5687817"><ele>758.0</ele><time>2026-04-26T08:59:05.62Z</time></trkpt><trkpt lat="45.7800041" lon="11.5687692"><ele>758.0</ele><time>2026-04-26T08:59:06.623Z</time></trkpt><trkpt lat="45.7801269" lon="11.5687486"><ele>758.0</ele><time>2026-04-26T08:59:07.617Z</time></trkpt><trkpt lat="45.7802505" lon="11.56871"><ele>763.0</ele><time>2026-04-26T08:59:08.621Z</time></trkpt><trkpt lat="45.7803787" lon="11.5686733"><ele>768.0</ele><time>2026-04-26T08:59:09.62Z</time></trkpt><trkpt lat="45.7805037" lon="11.5686518"><ele>773.0</ele><time>2026-04-26T08:59:10.613Z</time></trkpt><trkpt lat="45.7806312" lon="11.5686288"><ele>778.0</ele><time>2026-04-26T08:59:11.636Z</time></trkpt><trkpt lat="45.7807639" lon="11.5685978"><ele>778.0</ele><time>2026-04-26T08:59:12.617Z</time></trkpt><trkpt lat="45.7809013" lon="11.5685682"><ele>778.0</ele><time>2026-04-26T08:59:13.617Z</time></trkpt><trkpt lat="45.7810393" lon="11.5685351"><ele>778.0</ele><time>2026-04-26T08:59:14.618Z</time></trkpt><trkpt lat="45.7811727" lon="11.5685123"><ele>778.0</ele><time>2026-04-26T08:59:15.616Z</time></trkpt><trkpt lat="45.7813067" lon="11.5685092"><ele>780.75</ele><time>2026-04-26T08:59:16.614Z</time></trkpt><trkpt lat="45.7814388" lon="11.5685068"><ele>783.5</ele><time>2026-04-26T08:59:17.617Z</time></trkpt><trkpt lat="45.7815714" lon="11.5685151"><ele>786.25</ele><time>2026-04-26T08:59:18.615Z</time></trkpt><trkpt lat="45.7816982" lon="11.5685243"><ele>789.0</ele><time>2026-04-26T08:59:19.616Z</time></trkpt><trkpt lat="45.781825" lon="11.5685511"><ele>789.25</ele><time>2026-04-26T08:59:20.612Z</time></trkpt><trkpt lat="45.7819525" lon="11.5685887"><ele>789.5</ele><time>2026-04-26T08:59:21.614Z</time></trkpt><trkpt lat="45.7820812" lon="11.5686434"><ele>789.75</ele><time>2026-04-26T08:59:22.62Z</time></trkpt><trkpt lat="45.7822126" lon="11.5687118"><ele>790.0</ele><time>2026-04-26T08:59:23.62Z</time></trkpt><trkpt lat="45.7823407" lon="11.5687853"><ele>791.5</ele><time>2026-04-26T08:59:24.619Z</time></trkpt><trkpt lat="45.7824616" lon="11.5688592"><ele>793.0</ele><time>2026-04-26T08:59:25.613Z</time></trkpt><trkpt lat="45.7825818" lon="11.5689348"><ele>794.5</ele><time>2026-04-26T08:59:26.615Z</time></trkpt><trkpt lat="45.782703" lon="11.5689924"><ele>796.0</ele><time>2026-04-26T08:59:27.616Z</time></trkpt><trkpt lat="45.7828098" lon="11.5690477"><ele>796.4999999999999</ele><time>2026-04-26T08:59:28.617Z</time></trkpt><trkpt lat="45.7829056" lon="11.569097"><ele>797.0</ele><time>2026-04-26T08:59:29.62Z</time></trkpt><trkpt lat="45.7829894" lon="11.5691484"><ele>797.5</ele><time>2026-04-26T08:59:30.621Z</time></trkpt><trkpt lat="45.7830659" lon="11.5692016"><ele>798.0</ele><time>2026-04-26T08:59:31.619Z</time></trkpt><trkpt lat="45.7831273" lon="11.5692611"><ele>798.4999999999999</ele><time>2026-04-26T08:59:32.627Z</time></trkpt><trkpt lat="45.7831801" lon="11.5693297"><ele>799.0</ele><time>2026-04-26T08:59:33.611Z</time></trkpt><trkpt lat="45.7832198" lon="11.5694107"><ele>799.0</ele><time>2026-04-26T08:59:34.611Z</time></trkpt><trkpt lat="45.7832378" lon="11.5695093"><ele>799.0</ele><time>2026-04-26T08:59:35.617Z</time></trkpt><trkpt lat="45.7832472" lon="11.5695995"><ele>799.0</ele><time>2026-04-26T08:59:36.616Z</time></trkpt><trkpt lat="45.7832581" lon="11.5696953"><ele>799.0</ele><time>2026-04-26T08:59:38.62Z</time></trkpt><trkpt lat="45.7833318" lon="11.5697254"><ele>799.0</ele><time>2026-04-26T08:59:41.623Z</time></trkpt><trkpt lat="45.7833973" lon="11.5696868"><ele>799.0</ele><time>2026-04-26T08:59:42.618Z</time></trkpt><trkpt lat="45.7834668" lon="11.5696304"><ele>799.0</ele><time>2026-04-26T08:59:43.626Z</time></trkpt><trkpt lat="45.7835393" lon="11.5695757"><ele>799.25</ele><time>2026-04-26T08:59:44.621Z</time></trkpt><trkpt lat="45.7836333" lon="11.5695394"><ele>799.5</ele><time>2026-04-26T08:59:45.629Z</time></trkpt><trkpt lat="45.7837532" lon="11.5694838"><ele>799.75</ele><time>2026-04-26T08:59:46.615Z</time></trkpt><trkpt lat="45.7838733" lon="11.5694488"><ele>800.0</ele><time>2026-04-26T08:59:47.614Z</time></trkpt><trkpt lat="45.7839962" lon="11.5693969"><ele>800.0</ele><time>2026-04-26T08:59:48.62Z</time></trkpt><trkpt lat="45.7841267" lon="11.5693369"><ele>800.0</ele><time>2026-04-26T08:59:49.623Z</time></trkpt><trkpt lat="45.7842617" lon="11.5692696"><ele>800.0</ele><time>2026-04-26T08:59:50.617Z</time></trkpt><trkpt lat="45.7844038" lon="11.5692065"><ele>800.0</ele><time>2026-04-26T08:59:51.616Z</time></trkpt><trkpt lat="45.7845432" lon="11.5691417"><ele>804.25</ele><time>2026-04-26T08:59:52.602Z</time></trkpt><trkpt lat="45.7846843" lon="11.5690886"><ele>808.5</ele><time>2026-04-26T08:59:53.626Z</time></trkpt><trkpt lat="45.784824" lon="11.5690306"><ele>812.75</ele><time>2026-04-26T08:59:54.62Z</time></trkpt><trkpt lat="45.7849581" lon="11.5689727"><ele>817.0</ele><time>2026-04-26T08:59:55.627Z</time></trkpt><trkpt lat="45.7850962" lon="11.5689127"><ele>817.3333333333333</ele><time>2026-04-26T08:59:56.627Z</time></trkpt><trkpt lat="45.7852392" lon="11.5688309"><ele>817.6666666666667</ele><time>2026-04-26T08:59:57.605Z</time></trkpt><trkpt lat="45.7853848" lon="11.5687285"><ele>818.0</ele><time>2026-04-26T08:59:58.613Z</time></trkpt><trkpt lat="45.7855289" lon="11.5686096"><ele>818.0</ele><time>2026-04-26T08:59:59.603Z</time></trkpt><trkpt lat="45.7856712" lon="11.5684676"><ele>818.0</ele><time>2026-04-26T09:00:00.617Z</time></trkpt><trkpt lat="45.7858062" lon="11.5683302"><ele>818.0</ele><time>2026-04-26T09:00:01.614Z</time></trkpt><trkpt lat="45.7859426" lon="11.5681931"><ele>816.0</ele><time>2026-04-26T09:00:02.626Z</time></trkpt><trkpt lat="45.7860858" lon="11.5680713"><ele>814.0</ele><time>2026-04-26T09:00:03.648Z</time></trkpt><trkpt lat="45.7862265" lon="11.5679652"><ele>812.0</ele><time>2026-04-26T09:00:04.629Z</time></trkpt><trkpt lat="45.7863823" lon="11.5678587"><ele>812.0</ele><time>2026-04-26T09:00:05.614Z</time></trkpt><trkpt lat="45.7865293" lon="11.567763"><ele>812.0</ele><time>2026-04-26T09:00:06.622Z</time></trkpt><trkpt lat="45.7866846" lon="11.5676616"><ele>812.0</ele><time>2026-04-26T09:00:07.61Z</time></trkpt><trkpt lat="45.7868346" lon="11.567554"><ele>822.6666666666667</ele><time>2026-04-26T09:00:08.629Z</time></trkpt><trkpt lat="45.7869826" lon="11.5674456"><ele>833.3333333333333</ele><time>2026-04-26T09:00:09.616Z</time></trkpt><trkpt lat="45.7871348" lon="11.5673383"><ele>844.0</ele><time>2026-04-26T09:00:10.613Z</time></trkpt><trkpt lat="45.7872906" lon="11.5672365"><ele>844.0</ele><time>2026-04-26T09:00:11.619Z</time></trkpt><trkpt lat="45.7874193" lon="11.567086"><ele>844.0</ele><time>2026-04-26T09:00:12.617Z</time></trkpt><trkpt lat="45.7875265" lon="11.5669026"><ele>844.0</ele><time>2026-04-26T09:00:13.634Z</time></trkpt><trkpt lat="45.7876288" lon="11.5666912"><ele>843.3333333333333</ele><time>2026-04-26T09:00:14.614Z</time></trkpt><trkpt lat="45.7877403" lon="11.5664939"><ele>842.6666666666667</ele><time>2026-04-26T09:00:15.615Z</time></trkpt><trkpt lat="45.7878569" lon="11.5663072"><ele>842.0</ele><time>2026-04-26T09:00:16.621Z</time></trkpt><trkpt lat="45.7879895" lon="11.5661309"><ele>837.0</ele><time>2026-04-26T09:00:17.623Z</time></trkpt><trkpt lat="45.7881157" lon="11.5659672"><ele>832.0</ele><time>2026-04-26T09:00:18.616Z</time></trkpt><trkpt lat="45.7882467" lon="11.5657945"><ele>827.0</ele><time>2026-04-26T09:00:19.612Z</time></trkpt><trkpt lat="45.7883724" lon="11.5656245"><ele>827.0</ele><time>2026-04-26T09:00:20.611Z</time></trkpt><trkpt lat="45.7884887" lon="11.5654408"><ele>827.0</ele><time>2026-04-26T09:00:21.614Z</time></trkpt><trkpt lat="45.7885829" lon="11.5652429"><ele>827.0</ele><time>2026-04-26T09:00:22.618Z</time></trkpt><trkpt lat="45.7886571" lon="11.565027"><ele>829.6666666666667</ele><time>2026-04-26T09:00:23.615Z</time></trkpt><trkpt lat="45.7887114" lon="11.5648034"><ele>832.3333333333333</ele><time>2026-04-26T09:00:24.616Z</time></trkpt><trkpt lat="45.7887535" lon="11.5645904"><ele>835.0</ele><time>2026-04-26T09:00:25.618Z</time></trkpt><trkpt lat="45.7887945" lon="11.5643759"><ele>835.0</ele><time>2026-04-26T09:00:26.622Z</time></trkpt><trkpt lat="45.7888347" lon="11.5641738"><ele>835.0</ele><time>2026-04-26T09:00:27.621Z</time></trkpt><trkpt lat="45.7889071" lon="11.5639776"><ele>835.0</ele><time>2026-04-26T09:00:28.618Z</time></trkpt><trkpt lat="45.7890063" lon="11.5637821"><ele>831.3333333333333</ele><time>2026-04-26T09:00:29.611Z</time></trkpt><trkpt lat="45.7891185" lon="11.5636015"><ele>827.6666666666667</ele><time>2026-04-26T09:00:30.615Z</time></trkpt><trkpt lat="45.7892287" lon="11.5634095"><ele>824.0</ele><time>2026-04-26T09:00:31.608Z</time></trkpt><trkpt lat="45.7893341" lon="11.563187"><ele>828.3333333333334</ele><time>2026-04-26T09:00:32.616Z</time></trkpt><trkpt lat="45.7894047" lon="11.5629545"><ele>832.6666666666667</ele><time>2026-04-26T09:00:33.615Z</time></trkpt><trkpt lat="45.7894553" lon="11.5627255"><ele>837.0</ele><time>2026-04-26T09:00:34.618Z</time></trkpt><trkpt lat="45.7894858" lon="11.562509"><ele>837.0</ele><time>2026-04-26T09:00:35.624Z</time></trkpt><trkpt lat="45.7895145" lon="11.5623044"><ele>837.0</ele><time>2026-04-26T09:00:36.634Z</time></trkpt><trkpt lat="45.789551" lon="11.5621122"><ele>837.0</ele><time>2026-04-26T09:00:37.614Z</time></trkpt><trkpt lat="45.7895871" lon="11.5619422"><ele>837.0</ele><time>2026-04-26T09:00:38.617Z</time></trkpt><trkpt lat="45.7896348" lon="11.5617938"><ele>835.25</ele><time>2026-04-26T09:00:39.608Z</time></trkpt><trkpt lat="45.7896801" lon="11.5616506"><ele>833.5</ele><time>2026-04-26T09:00:40.621Z</time></trkpt><trkpt lat="45.7897323" lon="11.5615086"><ele>831.75</ele><time>2026-04-26T09:00:41.621Z</time></trkpt><trkpt lat="45.7897834" lon="11.5613561"><ele>830.0</ele><time>2026-04-26T09:00:42.613Z</time></trkpt><trkpt lat="45.7898207" lon="11.5612042"><ele>829.8</ele><time>2026-04-26T09:00:43.631Z</time></trkpt><trkpt lat="45.789848" lon="11.5610513"><ele>829.6</ele><time>2026-04-26T09:00:44.628Z</time></trkpt><trkpt lat="45.7898702" lon="11.560893"><ele>829.4000000000001</ele><time>2026-04-26T09:00:45.626Z</time></trkpt><trkpt lat="45.7898789" lon="11.5607311"><ele>829.2</ele><time>2026-04-26T09:00:46.618Z</time></trkpt><trkpt lat="45.7898728" lon="11.5605702"><ele>829.0</ele><time>2026-04-26T09:00:47.621Z</time></trkpt><trkpt lat="45.7898692" lon="11.560403"><ele>830.25</ele><time>2026-04-26T09:00:48.643Z</time></trkpt><trkpt lat="45.7898684" lon="11.560223"><ele>831.5</ele><time>2026-04-26T09:00:49.626Z</time></trkpt><trkpt lat="45.7898628" lon="11.5600442"><ele>832.75</ele><time>2026-04-26T09:00:50.611Z</time></trkpt><trkpt lat="45.7898611" lon="11.5598562"><ele>834.0</ele><time>2026-04-26T09:00:51.624Z</time></trkpt><trkpt lat="45.7898591" lon="11.5596623"><ele>835.25</ele><time>2026-04-26T09:00:52.635Z</time></trkpt><trkpt lat="45.7898561" lon="11.5594553"><ele>836.5</ele><time>2026-04-26T09:00:53.624Z</time></trkpt><trkpt lat="45.7898497" lon="11.5592594"><ele>837.75</ele><time>2026-04-26T09:00:54.634Z</time></trkpt><trkpt lat="45.7898527" lon="11.5590623"><ele>839.0</ele><time>2026-04-26T09:00:55.614Z</time></trkpt><trkpt lat="45.7898488" lon="11.55887"><ele>840.5</ele><time>2026-04-26T09:00:56.632Z</time></trkpt><trkpt lat="45.7898518" lon="11.5586772"><ele>842.0</ele><time>2026-04-26T09:00:57.622Z</time></trkpt><trkpt lat="45.7898453" lon="11.5584796"><ele>843.5</ele><time>2026-04-26T09:00:58.619Z</time></trkpt><trkpt lat="45.7898424" lon="11.5582832"><ele>845.0</ele><time>2026-04-26T09:00:59.625Z</time></trkpt><trkpt lat="45.7898312" lon="11.5580903"><ele>845.0</ele><time>2026-04-26T09:01:00.624Z</time></trkpt><trkpt lat="45.7898198" lon="11.5578876"><ele>845.0</ele><time>2026-04-26T09:01:01.624Z</time></trkpt><trkpt lat="45.7898104" lon="11.5576868"><ele>845.0</ele><time>2026-04-26T09:01:02.627Z</time></trkpt><trkpt lat="45.7897993" lon="11.5574987"><ele>845.0</ele><time>2026-04-26T09:01:03.621Z</time></trkpt><trkpt lat="45.7897916" lon="11.5573263"><ele>846.8</ele><time>2026-04-26T09:01:04.62Z</time></trkpt><trkpt lat="45.7897872" lon="11.5571815"><ele>848.6</ele><time>2026-04-26T09:01:05.616Z</time></trkpt><trkpt lat="45.7897752" lon="11.5570589"><ele>850.4000000000001</ele><time>2026-04-26T09:01:06.63Z</time></trkpt><trkpt lat="45.7897746" lon="11.5569541"><ele>852.2</ele><time>2026-04-26T09:01:07.62Z</time></trkpt><trkpt lat="45.7897554" lon="11.5568091"><ele>854.0</ele><time>2026-04-26T09:01:09.616Z</time></trkpt><trkpt lat="45.7898298" lon="11.5569085"><ele>854.0</ele><time>2026-04-26T09:01:11.614Z</time></trkpt><trkpt lat="45.7898668" lon="11.5570479"><ele>854.0000000000001</ele><time>2026-04-26T09:01:12.629Z</time></trkpt><trkpt lat="45.7898798" lon="11.5572117"><ele>854.0000000000001</ele><time>2026-04-26T09:01:13.613Z</time></trkpt><trkpt lat="45.789906" lon="11.5573578"><ele>854.0</ele><time>2026-04-26T09:01:14.615Z</time></trkpt><trkpt lat="45.7899416" lon="11.5575151"><ele>854.0</ele><time>2026-04-26T09:01:15.605Z</time></trkpt><trkpt lat="45.7899837" lon="11.5576802"><ele>854.0</ele><time>2026-04-26T09:01:16.627Z</time></trkpt><trkpt lat="45.7900205" lon="11.5578203"><ele>854.0000000000001</ele><time>2026-04-26T09:01:17.619Z</time></trkpt><trkpt lat="45.7900508" lon="11.557952"><ele>854.0000000000001</ele><time>2026-04-26T09:01:18.615Z</time></trkpt><trkpt lat="45.7900883" lon="11.5580802"><ele>854.0</ele><time>2026-04-26T09:01:19.614Z</time></trkpt><trkpt lat="45.7901285" lon="11.5581752"><ele>854.0</ele><time>2026-04-26T09:01:20.62Z</time></trkpt><trkpt lat="45.7902286" lon="11.5581608"><ele>860.75</ele><time>2026-04-26T09:01:22.626Z</time></trkpt><trkpt lat="45.7902429" lon="11.5579551"><ele>867.5</ele><time>2026-04-26T09:01:24.617Z</time></trkpt><trkpt lat="45.7902259" lon="11.557793"><ele>874.25</ele><time>2026-04-26T09:01:25.614Z</time></trkpt><trkpt lat="45.7902039" lon="11.5576189"><ele>881.0</ele><time>2026-04-26T09:01:26.64Z</time></trkpt><trkpt lat="45.7901816" lon="11.557415"><ele>873.3333333333334</ele><time>2026-04-26T09:01:27.618Z</time></trkpt><trkpt lat="45.7901585" lon="11.557195"><ele>865.6666666666667</ele><time>2026-04-26T09:01:28.61Z</time></trkpt><trkpt lat="45.7901351" lon="11.556954"><ele>858.0</ele><time>2026-04-26T09:01:29.613Z</time></trkpt><trkpt lat="45.7901078" lon="11.5566981"><ele>858.0</ele><time>2026-04-26T09:01:30.612Z</time></trkpt><trkpt lat="45.7900725" lon="11.5564431"><ele>858.0</ele><time>2026-04-26T09:01:31.609Z</time></trkpt><trkpt lat="45.7900351" lon="11.5561664"><ele>858.0</ele><time>2026-04-26T09:01:32.619Z</time></trkpt><trkpt lat="45.7899891" lon="11.5558666"><ele>861.6666666666667</ele><time>2026-04-26T09:01:33.61Z</time></trkpt><trkpt lat="45.7899335" lon="11.5555737"><ele>865.3333333333334</ele><time>2026-04-26T09:01:34.621Z</time></trkpt><trkpt lat="45.7898693" lon="11.5553061"><ele>869.0</ele><time>2026-04-26T09:01:35.621Z</time></trkpt><trkpt lat="45.7898121" lon="11.555052"><ele>872.3333333333334</ele><time>2026-04-26T09:01:36.618Z</time></trkpt><trkpt lat="45.7897525" lon="11.5548087"><ele>875.6666666666667</ele><time>2026-04-26T09:01:37.605Z</time></trkpt><trkpt lat="45.7897049" lon="11.5545997"><ele>879.0</ele><time>2026-04-26T09:01:38.606Z</time></trkpt><trkpt lat="45.7896725" lon="11.5544132"><ele>879.25</ele><time>2026-04-26T09:01:39.618Z</time></trkpt><trkpt lat="45.7896275" lon="11.5542363"><ele>879.5</ele><time>2026-04-26T09:01:40.603Z</time></trkpt><trkpt lat="45.7895893" lon="11.5540749"><ele>879.75</ele><time>2026-04-26T09:01:41.62Z</time></trkpt><trkpt lat="45.7895601" lon="11.5539288"><ele>880.0</ele><time>2026-04-26T09:01:42.623Z</time></trkpt><trkpt lat="45.7895251" lon="11.5537984"><ele>880.3333333333333</ele><time>2026-04-26T09:01:43.618Z</time></trkpt><trkpt lat="45.7894961" lon="11.5536821"><ele>880.6666666666666</ele><time>2026-04-26T09:01:44.612Z</time></trkpt><trkpt lat="45.7894817" lon="11.5535851"><ele>881.0</ele><time>2026-04-26T09:01:45.607Z</time></trkpt><trkpt lat="45.7894941" lon="11.5534558"><ele>881.3333333333333</ele><time>2026-04-26T09:01:47.613Z</time></trkpt><trkpt lat="45.7896142" lon="11.5534956"><ele>881.6666666666666</ele><time>2026-04-26T09:01:49.614Z</time></trkpt><trkpt lat="45.7896654" lon="11.5535558"><ele>882.0</ele><time>2026-04-26T09:01:50.617Z</time></trkpt><trkpt lat="45.7897233" lon="11.553638"><ele>882.0</ele><time>2026-04-26T09:01:51.613Z</time></trkpt><trkpt lat="45.7898267" lon="11.5536795"><ele>882.0</ele><time>2026-04-26T09:01:53.624Z</time></trkpt><trkpt lat="45.7898765" lon="11.5536178"><ele>882.0</ele><time>2026-04-26T09:01:55.623Z</time></trkpt><trkpt lat="45.7898176" lon="11.5535095"><ele>882.0</ele><time>2026-04-26T09:01:59.618Z</time></trkpt><trkpt lat="45.7897727" lon="11.553409"><ele>882.0</ele><time>2026-04-26T09:02:02.619Z</time></trkpt><trkpt lat="45.7897702" lon="11.5532636"><ele>882.0</ele><time>2026-04-26T09:02:04.624Z</time></trkpt><trkpt lat="45.7897253" lon="11.5530908"><ele>882.0</ele><time>2026-04-26T09:02:06.62Z</time></trkpt><trkpt lat="45.7896871" lon="11.5530111"><ele>882.0</ele><time>2026-04-26T09:02:07.621Z</time></trkpt><trkpt lat="45.7896485" lon="11.5529382"><ele>882.0</ele><time>2026-04-26T09:02:08.616Z</time></trkpt><trkpt lat="45.7896021" lon="11.5528659"><ele>882.0</ele><time>2026-04-26T09:02:09.616Z</time></trkpt><trkpt lat="45.7895567" lon="11.5527924"><ele>882.0</ele><time>2026-04-26T09:02:10.624Z</time></trkpt><trkpt lat="45.7894918" lon="11.5526588"><ele>885.0</ele><time>2026-04-26T09:02:12.622Z</time></trkpt><trkpt lat="45.7895126" lon="11.5525575"><ele>888.0</ele><time>2026-04-26T09:02:14.619Z</time></trkpt><trkpt lat="45.7896069" lon="11.5526269"><ele>891.0</ele><time>2026-04-26T09:02:16.619Z</time></trkpt><trkpt lat="45.7897293" lon="11.5527056"><ele>894.0</ele><time>2026-04-26T09:02:18.615Z</time></trkpt><trkpt lat="45.7898003" lon="11.5527088"><ele>897.0</ele><time>2026-04-26T09:02:20.63Z</time></trkpt><trkpt lat="45.7897841" lon="11.5526097"><ele>897.0</ele><time>2026-04-26T09:02:22.621Z</time></trkpt><trkpt lat="45.7897386" lon="11.5525295"><ele>897.0</ele><time>2026-04-26T09:02:23.62Z</time></trkpt><trkpt lat="45.7896758" lon="11.5524365"><ele>897.0</ele><time>2026-04-26T09:02:24.623Z</time></trkpt><trkpt lat="45.7896076" lon="11.5523358"><ele>897.0</ele><time>2026-04-26T09:02:25.614Z</time></trkpt><trkpt lat="45.7895413" lon="11.5522269"><ele>897.0</ele><time>2026-04-26T09:02:26.624Z</time></trkpt><trkpt lat="45.7894699" lon="11.5521032"><ele>897.5</ele><time>2026-04-26T09:02:27.613Z</time></trkpt><trkpt lat="45.7894006" lon="11.5519723"><ele>898.0</ele><time>2026-04-26T09:02:28.615Z</time></trkpt><trkpt lat="45.7893312" lon="11.5518436"><ele>898.5</ele><time>2026-04-26T09:02:29.616Z</time></trkpt><trkpt lat="45.7892684" lon="11.5517136"><ele>899.0</ele><time>2026-04-26T09:02:30.624Z</time></trkpt><trkpt lat="45.7892073" lon="11.5515769"><ele>899.0000000000001</ele><time>2026-04-26T09:02:31.61Z</time></trkpt><trkpt lat="45.7891626" lon="11.5514571"><ele>899.0</ele><time>2026-04-26T09:02:32.617Z</time></trkpt><trkpt lat="45.7891245" lon="11.5513734"><ele>899.0</ele><time>2026-04-26T09:02:33.62Z</time></trkpt><trkpt lat="45.7891079" lon="11.5512389"><ele>899.0</ele><time>2026-04-26T09:02:35.613Z</time></trkpt><trkpt lat="45.7892102" lon="11.5512564"><ele>899.0000000000001</ele><time>2026-04-26T09:02:37.612Z</time></trkpt><trkpt lat="45.7892529" lon="11.5513439"><ele>899.0</ele><time>2026-04-26T09:02:38.631Z</time></trkpt><trkpt lat="45.7892996" lon="11.5514568"><ele>902.6</ele><time>2026-04-26T09:02:39.616Z</time></trkpt><trkpt lat="45.7893648" lon="11.5515755"><ele>906.2</ele><time>2026-04-26T09:02:40.661Z</time></trkpt><trkpt lat="45.789463" lon="11.5516727"><ele>909.8000000000001</ele><time>2026-04-26T09:02:41.625Z</time></trkpt><trkpt lat="45.7895429" lon="11.5517548"><ele>913.4000000000001</ele><time>2026-04-26T09:02:42.622Z</time></trkpt><trkpt lat="45.7896063" lon="11.5518116"><ele>917.0</ele><time>2026-04-26T09:02:43.623Z</time></trkpt><trkpt lat="45.7896917" lon="11.5517847"><ele>917.0</ele><time>2026-04-26T09:02:45.626Z</time></trkpt><trkpt lat="45.7896334" lon="11.5516503"><ele>917.0</ele><time>2026-04-26T09:02:47.613Z</time></trkpt><trkpt lat="45.7895717" lon="11.5515805"><ele>917.0</ele><time>2026-04-26T09:02:48.616Z</time></trkpt><trkpt lat="45.789505" lon="11.5514765"><ele>917.0</ele><time>2026-04-26T09:02:49.62Z</time></trkpt><trkpt lat="45.7894418" lon="11.5513622"><ele>917.0</ele><time>2026-04-26T09:02:50.616Z</time></trkpt><trkpt lat="45.7893943" lon="11.551248"><ele>915.5000000000001</ele><time>2026-04-26T09:02:51.622Z</time></trkpt><trkpt lat="45.7893571" lon="11.5511444"><ele>914.0</ele><time>2026-04-26T09:02:52.619Z</time></trkpt><trkpt lat="45.789333" lon="11.5510282"><ele>912.5</ele><time>2026-04-26T09:02:53.613Z</time></trkpt><trkpt lat="45.7893257" lon="11.5509009"><ele>911.0</ele><time>2026-04-26T09:02:54.619Z</time></trkpt><trkpt lat="45.7893508" lon="11.5507546"><ele>909.5000000000001</ele><time>2026-04-26T09:02:56.621Z</time></trkpt><trkpt lat="45.7894185" lon="11.5507694"><ele>908.0</ele><time>2026-04-26T09:02:58.625Z</time></trkpt><trkpt lat="45.789433" lon="11.5509048"><ele>909.8</ele><time>2026-04-26T09:03:00.62Z</time></trkpt><trkpt lat="45.7894573" lon="11.551035"><ele>911.5999999999999</ele><time>2026-04-26T09:03:02.618Z</time></trkpt><trkpt lat="45.7895274" lon="11.5511323"><ele>913.4000000000001</ele><time>2026-04-26T09:03:04.613Z</time></trkpt><trkpt lat="45.7896232" lon="11.5512108"><ele>915.2</ele><time>2026-04-26T09:03:06.626Z</time></trkpt><trkpt lat="45.7897468" lon="11.551266"><ele>917.0</ele><time>2026-04-26T09:03:08.621Z</time></trkpt><trkpt lat="45.7898136" lon="11.5512922"><ele>917.0</ele><time>2026-04-26T09:03:09.615Z</time></trkpt><trkpt lat="45.789878" lon="11.5513074"><ele>917.0</ele><time>2026-04-26T09:03:10.63Z</time></trkpt><trkpt lat="45.7899453" lon="11.5513047"><ele>917.0</ele><time>2026-04-26T09:03:11.628Z</time></trkpt><trkpt lat="45.7900128" lon="11.5512839"><ele>917.0</ele><time>2026-04-26T09:03:12.62Z</time></trkpt><trkpt lat="45.7900796" lon="11.5512576"><ele>917.0</ele><time>2026-04-26T09:03:13.626Z</time></trkpt><trkpt lat="45.7901424" lon="11.5512355"><ele>917.0</ele><time>2026-04-26T09:03:14.62Z</time></trkpt><trkpt lat="45.7902366" lon="11.5512008"><ele>917.0</ele><time>2026-04-26T09:03:16.61Z</time></trkpt><trkpt lat="45.7901901" lon="11.5510521"><ele>919.5714285714286</ele><time>2026-04-26T09:03:18.612Z</time></trkpt><trkpt lat="45.7901396" lon="11.5509846"><ele>922.1428571428571</ele><time>2026-04-26T09:03:19.627Z</time></trkpt><trkpt lat="45.7900897" lon="11.5509028"><ele>924.7142857142858</ele><time>2026-04-26T09:03:20.623Z</time></trkpt><trkpt lat="45.790063" lon="11.5508041"><ele>927.2857142857143</ele><time>2026-04-26T09:03:21.627Z</time></trkpt><trkpt lat="45.790058" lon="11.5507058"><ele>929.8571428571429</ele><time>2026-04-26T09:03:22.626Z</time></trkpt><trkpt lat="45.790083" lon="11.5506046"><ele>932.4285714285716</ele><time>2026-04-26T09:03:23.614Z</time></trkpt><trkpt lat="45.7901395" lon="11.5505424"><ele>935.0000000000001</ele><time>2026-04-26T09:03:24.625Z</time></trkpt><trkpt lat="45.7902172" lon="11.550505"><ele>937.0000000000001</ele><time>2026-04-26T09:03:25.622Z</time></trkpt><trkpt lat="45.7902857" lon="11.5504654"><ele>939.0</ele><time>2026-04-26T09:03:26.623Z</time></trkpt><trkpt lat="45.7903587" lon="11.5504217"><ele>941.0</ele><time>2026-04-26T09:03:27.614Z</time></trkpt><trkpt lat="45.790427" lon="11.5503886"><ele>943.0</ele><time>2026-04-26T09:03:28.619Z</time></trkpt><trkpt lat="45.7904937" lon="11.550351"><ele>945.0000000000001</ele><time>2026-04-26T09:03:29.63Z</time></trkpt><trkpt lat="45.7905642" lon="11.5503098"><ele>947.0</ele><time>2026-04-26T09:03:30.615Z</time></trkpt><trkpt lat="45.7906374" lon="11.5502673"><ele>948.5000000000001</ele><time>2026-04-26T09:03:31.631Z</time></trkpt><trkpt lat="45.7907153" lon="11.5502316"><ele>950.0</ele><time>2026-04-26T09:03:32.62Z</time></trkpt><trkpt lat="45.790791" lon="11.550196"><ele>951.5</ele><time>2026-04-26T09:03:33.625Z</time></trkpt><trkpt lat="45.7908729" lon="11.5501603"><ele>953.0</ele><time>2026-04-26T09:03:34.616Z</time></trkpt><trkpt lat="45.7909634" lon="11.5501334"><ele>954.5000000000001</ele><time>2026-04-26T09:03:35.622Z</time></trkpt><trkpt lat="45.7910589" lon="11.5501321"><ele>956.0</ele><time>2026-04-26T09:03:36.616Z</time></trkpt><trkpt lat="45.7911518" lon="11.5501421"><ele>958.1666666666667</ele><time>2026-04-26T09:03:37.631Z</time></trkpt><trkpt lat="45.7912378" lon="11.5501492"><ele>960.3333333333334</ele><time>2026-04-26T09:03:38.642Z</time></trkpt><trkpt lat="45.7913238" lon="11.5501537"><ele>962.5</ele><time>2026-04-26T09:03:39.617Z</time></trkpt><trkpt lat="45.7914079" lon="11.550137"><ele>964.6666666666667</ele><time>2026-04-26T09:03:40.613Z</time></trkpt><trkpt lat="45.7914669" lon="11.5500975"><ele>966.8333333333334</ele><time>2026-04-26T09:03:41.624Z</time></trkpt><trkpt lat="45.7915001" lon="11.5500187"><ele>969.0</ele><time>2026-04-26T09:03:42.624Z</time></trkpt><trkpt lat="45.7914831" lon="11.5499059"><ele>969.0</ele><time>2026-04-26T09:03:43.621Z</time></trkpt><trkpt lat="45.7914424" lon="11.5498062"><ele>969.0</ele><time>2026-04-26T09:03:44.62Z</time></trkpt><trkpt lat="45.7914095" lon="11.5496835"><ele>969.0</ele><time>2026-04-26T09:03:45.632Z</time></trkpt><trkpt lat="45.7913819" lon="11.549554"><ele>969.0</ele><time>2026-04-26T09:03:46.62Z</time></trkpt><trkpt lat="45.7913621" lon="11.5494295"><ele>969.0</ele><time>2026-04-26T09:03:47.611Z</time></trkpt><trkpt lat="45.7913643" lon="11.5493338"><ele>969.0</ele><time>2026-04-26T09:03:48.618Z</time></trkpt><trkpt lat="45.7914521" lon="11.549255"><ele>971.3333333333334</ele><time>2026-04-26T09:03:50.621Z</time></trkpt><trkpt lat="45.7915359" lon="11.5493138"><ele>973.6666666666667</ele><time>2026-04-26T09:03:51.626Z</time></trkpt><trkpt lat="45.7916058" lon="11.5493852"><ele>976.0</ele><time>2026-04-26T09:03:52.623Z</time></trkpt><trkpt lat="45.7916925" lon="11.5494404"><ele>978.3333333333334</ele><time>2026-04-26T09:03:53.611Z</time></trkpt><trkpt lat="45.791777" lon="11.5494968"><ele>980.6666666666667</ele><time>2026-04-26T09:03:54.62Z</time></trkpt><trkpt lat="45.7918499" lon="11.5495101"><ele>983.0</ele><time>2026-04-26T09:03:55.618Z</time></trkpt><trkpt lat="45.7919468" lon="11.5494405"><ele>983.8333333333334</ele><time>2026-04-26T09:03:57.612Z</time></trkpt><trkpt lat="45.7919462" lon="11.5493209"><ele>984.6666666666667</ele><time>2026-04-26T09:03:58.637Z</time></trkpt><trkpt lat="45.7919168" lon="11.5492131"><ele>985.5</ele><time>2026-04-26T09:03:59.616Z</time></trkpt><trkpt lat="45.7918891" lon="11.549097"><ele>986.3333333333333</ele><time>2026-04-26T09:04:00.635Z</time></trkpt><trkpt lat="45.7918986" lon="11.5490002"><ele>987.1666666666666</ele><time>2026-04-26T09:04:01.624Z</time></trkpt><trkpt lat="45.7919627" lon="11.5489426"><ele>988.0</ele><time>2026-04-26T09:04:02.631Z</time></trkpt><trkpt lat="45.7920394" lon="11.548879"><ele>988.0</ele><time>2026-04-26T09:04:03.611Z</time></trkpt><trkpt lat="45.7921206" lon="11.5488071"><ele>988.0</ele><time>2026-04-26T09:04:04.616Z</time></trkpt><trkpt lat="45.7922019" lon="11.5487285"><ele>988.0</ele><time>2026-04-26T09:04:05.623Z</time></trkpt><trkpt lat="45.7922683" lon="11.5486499"><ele>988.0</ele><time>2026-04-26T09:04:06.615Z</time></trkpt><trkpt lat="45.7923448" lon="11.5485672"><ele>988.0</ele><time>2026-04-26T09:04:07.628Z</time></trkpt><trkpt lat="45.7924254" lon="11.5484876"><ele>990.4</ele><time>2026-04-26T09:04:08.621Z</time></trkpt><trkpt lat="45.7925084" lon="11.5484054"><ele>992.8</ele><time>2026-04-26T09:04:09.633Z</time></trkpt><trkpt lat="45.7925923" lon="11.5483262"><ele>995.2</ele><time>2026-04-26T09:04:10.625Z</time></trkpt><trkpt lat="45.7926755" lon="11.5482616"><ele>997.6</ele><time>2026-04-26T09:04:11.621Z</time></trkpt><trkpt lat="45.7927469" lon="11.5482015"><ele>1000.0</ele><time>2026-04-26T09:04:12.633Z</time></trkpt><trkpt lat="45.7928245" lon="11.5481471"><ele>1002.4</ele><time>2026-04-26T09:04:13.617Z</time></trkpt><trkpt lat="45.7929101" lon="11.5481337"><ele>1004.8</ele><time>2026-04-26T09:04:14.62Z</time></trkpt><trkpt lat="45.7930039" lon="11.5481461"><ele>1007.2</ele><time>2026-04-26T09:04:15.63Z</time></trkpt><trkpt lat="45.7931005" lon="11.5481732"><ele>1009.6</ele><time>2026-04-26T09:04:16.633Z</time></trkpt><trkpt lat="45.7932018" lon="11.548214"><ele>1012.0</ele><time>2026-04-26T09:04:17.616Z</time></trkpt><trkpt lat="45.7933079" lon="11.5482558"><ele>1012.0</ele><time>2026-04-26T09:04:18.614Z</time></trkpt><trkpt lat="45.7934126" lon="11.5482873"><ele>1012.0</ele><time>2026-04-26T09:04:19.622Z</time></trkpt><trkpt lat="45.7935163" lon="11.5483228"><ele>1012.0</ele><time>2026-04-26T09:04:20.618Z</time></trkpt><trkpt lat="45.7936167" lon="11.5483596"><ele>1012.0</ele><time>2026-04-26T09:04:21.625Z</time></trkpt><trkpt lat="45.7937091" lon="11.5483893"><ele>1012.0</ele><time>2026-04-26T09:04:22.624Z</time></trkpt><trkpt lat="45.7937957" lon="11.5484139"><ele>1013.857142857143</ele><time>2026-04-26T09:04:23.613Z</time></trkpt><trkpt lat="45.7938798" lon="11.5484359"><ele>1015.7142857142858</ele><time>2026-04-26T09:04:24.618Z</time></trkpt><trkpt lat="45.7939636" lon="11.5484362"><ele>1017.5714285714286</ele><time>2026-04-26T09:04:25.618Z</time></trkpt><trkpt lat="45.7940339" lon="11.5484052"><ele>1019.4285714285714</ele><time>2026-04-26T09:04:26.616Z</time></trkpt><trkpt lat="45.7940908" lon="11.5483563"><ele>1021.2857142857142</ele><time>2026-04-26T09:04:27.62Z</time></trkpt><trkpt lat="45.7941293" lon="11.5482817"><ele>1023.142857142857</ele><time>2026-04-26T09:04:28.624Z</time></trkpt><trkpt lat="45.7941517" lon="11.5481954"><ele>1025.0</ele><time>2026-04-26T09:04:29.625Z</time></trkpt><trkpt lat="45.7941527" lon="11.5480898"><ele>1025.0</ele><time>2026-04-26T09:04:30.616Z</time></trkpt><trkpt lat="45.7941503" lon="11.5479838"><ele>1025.0</ele><time>2026-04-26T09:04:31.626Z</time></trkpt><trkpt lat="45.7941483" lon="11.5478793"><ele>1025.0</ele><time>2026-04-26T09:04:32.62Z</time></trkpt><trkpt lat="45.7942221" lon="11.5477821"><ele>1025.0</ele><time>2026-04-26T09:04:34.614Z</time></trkpt><trkpt lat="45.7943134" lon="11.5478897"><ele>1025.0</ele><time>2026-04-26T09:04:36.622Z</time></trkpt><trkpt lat="45.7943743" lon="11.5479717"><ele>1025.0</ele><time>2026-04-26T09:04:37.629Z</time></trkpt><trkpt lat="45.7944487" lon="11.5480512"><ele>1028.5</ele><time>2026-04-26T09:04:38.613Z</time></trkpt><trkpt lat="45.7945193" lon="11.5481105"><ele>1032.0</ele><time>2026-04-26T09:04:39.617Z</time></trkpt><trkpt lat="45.7945817" lon="11.5481666"><ele>1035.5</ele><time>2026-04-26T09:04:40.621Z</time></trkpt><trkpt lat="45.7946372" lon="11.5482535"><ele>1039.0</ele><time>2026-04-26T09:04:41.627Z</time></trkpt><trkpt lat="45.7946791" lon="11.5483573"><ele>1042.5</ele><time>2026-04-26T09:04:42.617Z</time></trkpt><trkpt lat="45.7947217" lon="11.548464"><ele>1046.0</ele><time>2026-04-26T09:04:43.634Z</time></trkpt><trkpt lat="45.7947702" lon="11.5485434"><ele>1045.9999999999998</ele><time>2026-04-26T09:04:44.624Z</time></trkpt><trkpt lat="45.7948455" lon="11.5485439"><ele>1046.0</ele><time>2026-04-26T09:04:46.628Z</time></trkpt><trkpt lat="45.7948908" lon="11.5484209"><ele>1046.0</ele><time>2026-04-26T09:04:48.633Z</time></trkpt><trkpt lat="45.7949057" lon="11.5483321"><ele>1046.0</ele><time>2026-04-26T09:04:49.611Z</time></trkpt><trkpt lat="45.7949124" lon="11.5482372"><ele>1046.0</ele><time>2026-04-26T09:04:50.623Z</time></trkpt><trkpt lat="45.7949128" lon="11.5481425"><ele>1045.9999999999998</ele><time>2026-04-26T09:04:51.612Z</time></trkpt><trkpt lat="45.7949153" lon="11.5480332"><ele>1046.0</ele><time>2026-04-26T09:04:52.613Z</time></trkpt><trkpt lat="45.7949194" lon="11.5479121"><ele>1047.1666666666667</ele><time>2026-04-26T09:04:53.609Z</time></trkpt><trkpt lat="45.7949257" lon="11.5477977"><ele>1048.3333333333335</ele><time>2026-04-26T09:04:54.615Z</time></trkpt><trkpt lat="45.7949355" lon="11.547689"><ele>1049.5</ele><time>2026-04-26T09:04:55.614Z</time></trkpt><trkpt lat="45.7949508" lon="11.5475794"><ele>1050.6666666666667</ele><time>2026-04-26T09:04:56.628Z</time></trkpt><trkpt lat="45.7949728" lon="11.5474836"><ele>1051.8333333333333</ele><time>2026-04-26T09:04:57.614Z</time></trkpt><trkpt lat="45.7950406" lon="11.5473915"><ele>1053.0</ele><time>2026-04-26T09:04:59.615Z</time></trkpt><trkpt lat="45.7951251" lon="11.5474787"><ele>1055.1666666666667</ele><time>2026-04-26T09:05:01.615Z</time></trkpt><trkpt lat="45.795176" lon="11.5475491"><ele>1057.3333333333333</ele><time>2026-04-26T09:05:02.614Z</time></trkpt><trkpt lat="45.7952277" lon="11.5476333"><ele>1059.5</ele><time>2026-04-26T09:05:03.614Z</time></trkpt><trkpt lat="45.7952833" lon="11.5477289"><ele>1061.6666666666665</ele><time>2026-04-26T09:05:04.62Z</time></trkpt><trkpt lat="45.7953378" lon="11.5478117"><ele>1063.8333333333333</ele><time>2026-04-26T09:05:05.618Z</time></trkpt><trkpt lat="45.7953909" lon="11.54788"><ele>1066.0</ele><time>2026-04-26T09:05:06.617Z</time></trkpt><trkpt lat="45.7954453" lon="11.547932"><ele>1066.0</ele><time>2026-04-26T09:05:07.616Z</time></trkpt><trkpt lat="45.7955362" lon="11.5479887"><ele>1066.0</ele><time>2026-04-26T09:05:09.626Z</time></trkpt><trkpt lat="45.7955905" lon="11.5479031"><ele>1066.0</ele><time>2026-04-26T09:05:11.611Z</time></trkpt><trkpt lat="45.7955788" lon="11.5477332"><ele>1066.0</ele><time>2026-04-26T09:05:13.613Z</time></trkpt><trkpt lat="45.7956326" lon="11.5475999"><ele>1066.0</ele><time>2026-04-26T09:05:15.618Z</time></trkpt><trkpt lat="45.7957399" lon="11.5476303"><ele>1067.8333333333333</ele><time>2026-04-26T09:05:17.619Z</time></trkpt><trkpt lat="45.79581" lon="11.5476866"><ele>1069.6666666666665</ele><time>2026-04-26T09:05:18.612Z</time></trkpt><trkpt lat="45.7958615" lon="11.5477477"><ele>1071.5</ele><time>2026-04-26T09:05:19.617Z</time></trkpt><trkpt lat="45.7959133" lon="11.5478102"><ele>1073.3333333333333</ele><time>2026-04-26T09:05:20.612Z</time></trkpt><trkpt lat="45.7959951" lon="11.5478619"><ele>1075.1666666666667</ele><time>2026-04-26T09:05:22.617Z</time></trkpt><trkpt lat="45.7960644" lon="11.5478234"><ele>1077.0</ele><time>2026-04-26T09:05:25.617Z</time></trkpt><trkpt lat="45.7960301" lon="11.547716"><ele>1077.0</ele><time>2026-04-26T09:05:28.616Z</time></trkpt><trkpt lat="45.795982" lon="11.5476177"><ele>1077.0</ele><time>2026-04-26T09:05:30.623Z</time></trkpt><trkpt lat="45.7959343" lon="11.5475131"><ele>1077.0</ele><time>2026-04-26T09:05:31.622Z</time></trkpt><trkpt lat="45.7958879" lon="11.5473935"><ele>1077.0</ele><time>2026-04-26T09:05:32.611Z</time></trkpt><trkpt lat="45.7958416" lon="11.5472769"><ele>1077.0</ele><time>2026-04-26T09:05:33.623Z</time></trkpt><trkpt lat="45.7958042" lon="11.5471575"><ele>1077.0</ele><time>2026-04-26T09:05:34.623Z</time></trkpt><trkpt lat="45.7958418" lon="11.5470458"><ele>1077.0</ele><time>2026-04-26T09:05:36.607Z</time></trkpt><trkpt lat="45.7959298" lon="11.5471691"><ele>1077.0</ele><time>2026-04-26T09:05:38.608Z</time></trkpt><trkpt lat="45.7959617" lon="11.5472786"><ele>1077.0</ele><time>2026-04-26T09:05:39.623Z</time></trkpt><trkpt lat="45.7960187" lon="11.5473959"><ele>1077.0</ele><time>2026-04-26T09:05:40.629Z</time></trkpt><trkpt lat="45.7960868" lon="11.5475105"><ele>1079.5</ele><time>2026-04-26T09:05:41.625Z</time></trkpt><trkpt lat="45.7961702" lon="11.5476232"><ele>1082.0</ele><time>2026-04-26T09:05:42.613Z</time></trkpt><trkpt lat="45.7962786" lon="11.5477115"><ele>1084.5</ele><time>2026-04-26T09:05:43.623Z</time></trkpt><trkpt lat="45.7964054" lon="11.5477809"><ele>1087.0</ele><time>2026-04-26T09:05:44.612Z</time></trkpt><trkpt lat="45.796539" lon="11.5478207"><ele>1087.0</ele><time>2026-04-26T09:05:45.622Z</time></trkpt><trkpt lat="45.796676" lon="11.54785"><ele>1087.0</ele><time>2026-04-26T09:05:46.616Z</time></trkpt><trkpt lat="45.7968089" lon="11.5478873"><ele>1087.0</ele><time>2026-04-26T09:05:47.62Z</time></trkpt><trkpt lat="45.7969316" lon="11.5479244"><ele>1087.0</ele><time>2026-04-26T09:05:48.614Z</time></trkpt><trkpt lat="45.7970375" lon="11.5479609"><ele>1086.2</ele><time>2026-04-26T09:05:49.611Z</time></trkpt><trkpt lat="45.7971303" lon="11.5479997"><ele>1085.4</ele><time>2026-04-26T09:05:50.622Z</time></trkpt><trkpt lat="45.797221" lon="11.548042"><ele>1084.6</ele><time>2026-04-26T09:05:51.611Z</time></trkpt><trkpt lat="45.7973088" lon="11.5480821"><ele>1083.8</ele><time>2026-04-26T09:05:52.62Z</time></trkpt><trkpt lat="45.7973941" lon="11.5481242"><ele>1083.0</ele><time>2026-04-26T09:05:53.613Z</time></trkpt><trkpt lat="45.797485" lon="11.5481588"><ele>1083.0</ele><time>2026-04-26T09:05:54.612Z</time></trkpt><trkpt lat="45.7975783" lon="11.5481755"><ele>1083.0</ele><time>2026-04-26T09:05:55.61Z</time></trkpt><trkpt lat="45.7976859" lon="11.548182"><ele>1083.0</ele><time>2026-04-26T09:05:56.608Z</time></trkpt><trkpt lat="45.7977891" lon="11.5482081"><ele>1083.0</ele><time>2026-04-26T09:05:57.612Z</time></trkpt><trkpt lat="45.797868" lon="11.5483055"><ele>1083.0</ele><time>2026-04-26T09:05:58.62Z</time></trkpt><trkpt lat="45.7979194" lon="11.548442"><ele>1087.0</ele><time>2026-04-26T09:05:59.62Z</time></trkpt><trkpt lat="45.7979708" lon="11.5485843"><ele>1091.0</ele><time>2026-04-26T09:06:00.614Z</time></trkpt><trkpt lat="45.7980488" lon="11.5487089"><ele>1095.0</ele><time>2026-04-26T09:06:01.608Z</time></trkpt><trkpt lat="45.7981424" lon="11.5487984"><ele>1099.0</ele><time>2026-04-26T09:06:02.626Z</time></trkpt><trkpt lat="45.798241" lon="11.5488676"><ele>1099.0</ele><time>2026-04-26T09:06:03.614Z</time></trkpt><trkpt lat="45.7983382" lon="11.548921"><ele>1099.0</ele><time>2026-04-26T09:06:04.62Z</time></trkpt><trkpt lat="45.798396" lon="11.5490147"><ele>1099.0</ele><time>2026-04-26T09:06:05.619Z</time></trkpt><trkpt lat="45.7984038" lon="11.5491505"><ele>1099.0</ele><time>2026-04-26T09:06:06.623Z</time></trkpt><trkpt lat="45.7983845" lon="11.5493075"><ele>1099.0</ele><time>2026-04-26T09:06:07.614Z</time></trkpt><trkpt lat="45.7983576" lon="11.5494711"><ele>1098.25</ele><time>2026-04-26T09:06:08.621Z</time></trkpt><trkpt lat="45.7983658" lon="11.5496252"><ele>1097.5</ele><time>2026-04-26T09:06:09.617Z</time></trkpt><trkpt lat="45.7984047" lon="11.5497751"><ele>1096.75</ele><time>2026-04-26T09:06:10.636Z</time></trkpt><trkpt lat="45.798478" lon="11.5499023"><ele>1096.0</ele><time>2026-04-26T09:06:11.611Z</time></trkpt><trkpt lat="45.798566" lon="11.5500142"><ele>1099.75</ele><time>2026-04-26T09:06:12.619Z</time></trkpt><trkpt lat="45.7986631" lon="11.5501057"><ele>1103.5</ele><time>2026-04-26T09:06:13.621Z</time></trkpt><trkpt lat="45.7987691" lon="11.5501864"><ele>1107.25</ele><time>2026-04-26T09:06:14.613Z</time></trkpt><trkpt lat="45.7988797" lon="11.5502505"><ele>1111.0</ele><time>2026-04-26T09:06:15.617Z</time></trkpt><trkpt lat="45.7989931" lon="11.5503122"><ele>1111.0</ele><time>2026-04-26T09:06:16.619Z</time></trkpt><trkpt lat="45.7991044" lon="11.5503583"><ele>1111.0</ele><time>2026-04-26T09:06:17.615Z</time></trkpt><trkpt lat="45.7992136" lon="11.5503773"><ele>1111.0</ele><time>2026-04-26T09:06:18.628Z</time></trkpt><trkpt lat="45.7993205" lon="11.5503595"><ele>1111.0</ele><time>2026-04-26T09:06:19.62Z</time></trkpt><trkpt lat="45.7994176" lon="11.5503015"><ele>1111.0</ele><time>2026-04-26T09:06:20.629Z</time></trkpt><trkpt lat="45.7995009" lon="11.5502218"><ele>1109.75</ele><time>2026-04-26T09:06:21.624Z</time></trkpt><trkpt lat="45.7995783" lon="11.550128"><ele>1108.5</ele><time>2026-04-26T09:06:22.614Z</time></trkpt><trkpt lat="45.7996685" lon="11.5500049"><ele>1107.25</ele><time>2026-04-26T09:06:23.622Z</time></trkpt><trkpt lat="45.7997545" lon="11.5498741"><ele>1106.0</ele><time>2026-04-26T09:06:24.627Z</time></trkpt><trkpt lat="45.7998405" lon="11.5497433"><ele>1106.0</ele><time>2026-04-26T09:06:25.61Z</time></trkpt><trkpt lat="45.7999333" lon="11.5496427"><ele>1106.0</ele><time>2026-04-26T09:06:26.625Z</time></trkpt><trkpt lat="45.8000483" lon="11.5496185"><ele>1106.0</ele><time>2026-04-26T09:06:27.621Z</time></trkpt><trkpt lat="45.8001567" lon="11.5496307"><ele>1106.0</ele><time>2026-04-26T09:06:28.622Z</time></trkpt><trkpt lat="45.800268" lon="11.5496219"><ele>1104.5</ele><time>2026-04-26T09:06:29.628Z</time></trkpt><trkpt lat="45.8003809" lon="11.5495805"><ele>1103.0</ele><time>2026-04-26T09:06:30.626Z</time></trkpt><trkpt lat="45.8004782" lon="11.5494618"><ele>1101.5</ele><time>2026-04-26T09:06:31.621Z</time></trkpt><trkpt lat="45.8005654" lon="11.5493351"><ele>1100.0</ele><time>2026-04-26T09:06:32.614Z</time></trkpt><trkpt lat="45.8006714" lon="11.549239"><ele>1103.75</ele><time>2026-04-26T09:06:33.622Z</time></trkpt><trkpt lat="45.8008007" lon="11.5491896"><ele>1107.5</ele><time>2026-04-26T09:06:34.618Z</time></trkpt><trkpt lat="45.8009352" lon="11.5491707"><ele>1111.25</ele><time>2026-04-26T09:06:35.617Z</time></trkpt><trkpt lat="45.801074" lon="11.5491496"><ele>1115.0</ele><time>2026-04-26T09:06:36.617Z</time></trkpt><trkpt lat="45.8012092" lon="11.5491179"><ele>1115.2</ele><time>2026-04-26T09:06:37.617Z</time></trkpt><trkpt lat="45.8013322" lon="11.5490581"><ele>1115.4</ele><time>2026-04-26T09:06:38.633Z</time></trkpt><trkpt lat="45.8014324" lon="11.548987"><ele>1115.6</ele><time>2026-04-26T09:06:39.609Z</time></trkpt><trkpt lat="45.8015193" lon="11.548919"><ele>1115.8</ele><time>2026-04-26T09:06:40.632Z</time></trkpt><trkpt lat="45.8016049" lon="11.5488622"><ele>1116.0</ele><time>2026-04-26T09:06:41.625Z</time></trkpt><trkpt lat="45.8016899" lon="11.5488436"><ele>1116.0</ele><time>2026-04-26T09:06:42.62Z</time></trkpt><trkpt lat="45.8017762" lon="11.5488836"><ele>1116.0</ele><time>2026-04-26T09:06:43.629Z</time></trkpt><trkpt lat="45.8018543" lon="11.5489702"><ele>1116.0</ele><time>2026-04-26T09:06:44.621Z</time></trkpt><trkpt lat="45.8019037" lon="11.549091"><ele>1116.0</ele><time>2026-04-26T09:06:45.619Z</time></trkpt><trkpt lat="45.8019314" lon="11.5492499"><ele>1116.0</ele><time>2026-04-26T09:06:46.61Z</time></trkpt><trkpt lat="45.8019456" lon="11.5494137"><ele>1119.8</ele><time>2026-04-26T09:06:47.614Z</time></trkpt><trkpt lat="45.8019451" lon="11.5495797"><ele>1123.6</ele><time>2026-04-26T09:06:48.625Z</time></trkpt><trkpt lat="45.8019578" lon="11.5497335"><ele>1127.4</ele><time>2026-04-26T09:06:49.617Z</time></trkpt><trkpt lat="45.8020038" lon="11.5498649"><ele>1131.2</ele><time>2026-04-26T09:06:50.626Z</time></trkpt><trkpt lat="45.8020969" lon="11.5499491"><ele>1135.0</ele><time>2026-04-26T09:06:51.614Z</time></trkpt><trkpt lat="45.8021905" lon="11.5500083"><ele>1135.0</ele><time>2026-04-26T09:06:52.622Z</time></trkpt><trkpt lat="45.8022799" lon="11.5500883"><ele>1135.0</ele><time>2026-04-26T09:06:53.62Z</time></trkpt><trkpt lat="45.8023407" lon="11.5502041"><ele>1135.0</ele><time>2026-04-26T09:06:54.613Z</time></trkpt><trkpt lat="45.8023693" lon="11.5503652"><ele>1135.0</ele><time>2026-04-26T09:06:55.614Z</time></trkpt><trkpt lat="45.802371" lon="11.5505445"><ele>1135.0</ele><time>2026-04-26T09:06:56.628Z</time></trkpt><trkpt lat="45.8023848" lon="11.5507418"><ele>1133.75</ele><time>2026-04-26T09:06:57.624Z</time></trkpt><trkpt lat="45.8024128" lon="11.5509243"><ele>1132.5</ele><time>2026-04-26T09:06:58.625Z</time></trkpt><trkpt lat="45.8024484" lon="11.5511035"><ele>1131.25</ele><time>2026-04-26T09:06:59.619Z</time></trkpt><trkpt lat="45.8024938" lon="11.5512853"><ele>1130.0</ele><time>2026-04-26T09:07:00.618Z</time></trkpt><trkpt lat="45.8025338" lon="11.5514505"><ele>1128.75</ele><time>2026-04-26T09:07:01.618Z</time></trkpt><trkpt lat="45.8025674" lon="11.5516148"><ele>1127.5</ele><time>2026-04-26T09:07:02.608Z</time></trkpt><trkpt lat="45.8026083" lon="11.5517753"><ele>1126.25</ele><time>2026-04-26T09:07:03.614Z</time></trkpt><trkpt lat="45.8026574" lon="11.5519267"><ele>1125.0</ele><time>2026-04-26T09:07:04.633Z</time></trkpt><trkpt lat="45.8027264" lon="11.5520706"><ele>1129.75</ele><time>2026-04-26T09:07:05.627Z</time></trkpt><trkpt lat="45.8028066" lon="11.5521985"><ele>1134.5</ele><time>2026-04-26T09:07:06.619Z</time></trkpt><trkpt lat="45.8028963" lon="11.5523339"><ele>1139.25</ele><time>2026-04-26T09:07:07.616Z</time></trkpt><trkpt lat="45.8029958" lon="11.5524606"><ele>1144.0</ele><time>2026-04-26T09:07:08.626Z</time></trkpt><trkpt lat="45.8030997" lon="11.5525816"><ele>1144.0</ele><time>2026-04-26T09:07:09.625Z</time></trkpt><trkpt lat="45.8032037" lon="11.5527053"><ele>1144.0</ele><time>2026-04-26T09:07:10.629Z</time></trkpt><trkpt lat="45.8033016" lon="11.5528154"><ele>1144.0</ele><time>2026-04-26T09:07:11.606Z</time></trkpt><trkpt lat="45.8033967" lon="11.5529241"><ele>1144.0</ele><time>2026-04-26T09:07:12.623Z</time></trkpt><trkpt lat="45.8034848" lon="11.5530392"><ele>1148.0</ele><time>2026-04-26T09:07:13.62Z</time></trkpt><trkpt lat="45.8035529" lon="11.553173"><ele>1152.0</ele><time>2026-04-26T09:07:14.633Z</time></trkpt><trkpt lat="45.8036029" lon="11.5533272"><ele>1156.0</ele><time>2026-04-26T09:07:15.618Z</time></trkpt><trkpt lat="45.8036549" lon="11.553488"><ele>1160.0</ele><time>2026-04-26T09:07:16.627Z</time></trkpt><trkpt lat="45.8037036" lon="11.5536457"><ele>1155.75</ele><time>2026-04-26T09:07:17.631Z</time></trkpt><trkpt lat="45.8037523" lon="11.5538131"><ele>1151.5</ele><time>2026-04-26T09:07:18.625Z</time></trkpt><trkpt lat="45.8038101" lon="11.5539901"><ele>1147.25</ele><time>2026-04-26T09:07:19.622Z</time></trkpt><trkpt lat="45.8038829" lon="11.5541346"><ele>1143.0</ele><time>2026-04-26T09:07:20.636Z</time></trkpt><trkpt lat="45.8039657" lon="11.5542664"><ele>1143.0</ele><time>2026-04-26T09:07:21.616Z</time></trkpt><trkpt lat="45.8040517" lon="11.5543616"><ele>1143.0</ele><time>2026-04-26T09:07:22.621Z</time></trkpt><trkpt lat="45.8041388" lon="11.5544447"><ele>1143.0</ele><time>2026-04-26T09:07:23.628Z</time></trkpt><trkpt lat="45.8042445" lon="11.5544935"><ele>1143.0</ele><time>2026-04-26T09:07:24.63Z</time></trkpt><trkpt lat="45.804353" lon="11.5545463"><ele>1143.0</ele><time>2026-04-26T09:07:25.62Z</time></trkpt><trkpt lat="45.8044701" lon="11.554609"><ele>1144.75</ele><time>2026-04-26T09:07:26.626Z</time></trkpt><trkpt lat="45.8045861" lon="11.5546886"><ele>1146.5</ele><time>2026-04-26T09:07:27.625Z</time></trkpt><trkpt lat="45.8047013" lon="11.5547715"><ele>1148.25</ele><time>2026-04-26T09:07:28.633Z</time></trkpt><trkpt lat="45.8048121" lon="11.5548827"><ele>1150.0</ele><time>2026-04-26T09:07:29.619Z</time></trkpt><trkpt lat="45.8049162" lon="11.5550255"><ele>1150.0</ele><time>2026-04-26T09:07:30.622Z</time></trkpt><trkpt lat="45.8050232" lon="11.5551778"><ele>1150.0</ele><time>2026-04-26T09:07:31.622Z</time></trkpt><trkpt lat="45.8051194" lon="11.5553319"><ele>1150.0</ele><time>2026-04-26T09:07:32.621Z</time></trkpt><trkpt lat="45.8052226" lon="11.555479"><ele>1150.0</ele><time>2026-04-26T09:07:33.612Z</time></trkpt><trkpt lat="45.8053238" lon="11.555626"><ele>1151.75</ele><time>2026-04-26T09:07:34.624Z</time></trkpt><trkpt lat="45.8054141" lon="11.5557844"><ele>1153.5</ele><time>2026-04-26T09:07:35.616Z</time></trkpt><trkpt lat="45.805512" lon="11.555939"><ele>1155.25</ele><time>2026-04-26T09:07:36.616Z</time></trkpt><trkpt lat="45.8056264" lon="11.5560763"><ele>1157.0</ele><time>2026-04-26T09:07:37.613Z</time></trkpt><trkpt lat="45.8057518" lon="11.5562127"><ele>1158.6666666666667</ele><time>2026-04-26T09:07:38.635Z</time></trkpt><trkpt lat="45.8058777" lon="11.5563543"><ele>1160.3333333333333</ele><time>2026-04-26T09:07:39.621Z</time></trkpt><trkpt lat="45.8060049" lon="11.5564929"><ele>1162.0</ele><time>2026-04-26T09:07:40.635Z</time></trkpt><trkpt lat="45.8061228" lon="11.5566304"><ele>1162.0</ele><time>2026-04-26T09:07:41.623Z</time></trkpt><trkpt lat="45.8062327" lon="11.5567632"><ele>1162.0</ele><time>2026-04-26T09:07:42.628Z</time></trkpt><trkpt lat="45.8063369" lon="11.5568896"><ele>1162.0</ele><time>2026-04-26T09:07:43.618Z</time></trkpt><trkpt lat="45.8064378" lon="11.5570088"><ele>1162.0</ele><time>2026-04-26T09:07:44.624Z</time></trkpt><trkpt lat="45.8065429" lon="11.5571236"><ele>1163.0</ele><time>2026-04-26T09:07:45.624Z</time></trkpt><trkpt lat="45.8066508" lon="11.557219"><ele>1164.0</ele><time>2026-04-26T09:07:46.606Z</time></trkpt><trkpt lat="45.8067621" lon="11.5573004"><ele>1165.0</ele><time>2026-04-26T09:07:47.623Z</time></trkpt><trkpt lat="45.8068739" lon="11.5573791"><ele>1166.0</ele><time>2026-04-26T09:07:48.625Z</time></trkpt><trkpt lat="45.8069935" lon="11.5574511"><ele>1166.0</ele><time>2026-04-26T09:07:49.63Z</time></trkpt><trkpt lat="45.8071149" lon="11.5575327"><ele>1166.0</ele><time>2026-04-26T09:07:50.627Z</time></trkpt><trkpt lat="45.8072152" lon="11.5576672"><ele>1166.0</ele><time>2026-04-26T09:07:51.62Z</time></trkpt><trkpt lat="45.8072953" lon="11.5578163"><ele>1166.0</ele><time>2026-04-26T09:07:52.623Z</time></trkpt><trkpt lat="45.8073737" lon="11.5579479"><ele>1163.25</ele><time>2026-04-26T09:07:53.613Z</time></trkpt><trkpt lat="45.8074712" lon="11.5580624"><ele>1160.5</ele><time>2026-04-26T09:07:54.62Z</time></trkpt><trkpt lat="45.8075694" lon="11.5581463"><ele>1157.75</ele><time>2026-04-26T09:07:55.618Z</time></trkpt><trkpt lat="45.8076783" lon="11.5582004"><ele>1155.0</ele><time>2026-04-26T09:07:56.625Z</time></trkpt><trkpt lat="45.8077928" lon="11.5582162"><ele>1155.0</ele><time>2026-04-26T09:07:57.61Z</time></trkpt><trkpt lat="45.8079117" lon="11.5582311"><ele>1155.0</ele><time>2026-04-26T09:07:58.629Z</time></trkpt><trkpt lat="45.8080305" lon="11.5582462"><ele>1155.0</ele><time>2026-04-26T09:07:59.618Z</time></trkpt><trkpt lat="45.8081549" lon="11.5582363"><ele>1155.0</ele><time>2026-04-26T09:08:00.621Z</time></trkpt><trkpt lat="45.8082762" lon="11.5582027"><ele>1155.0</ele><time>2026-04-26T09:08:01.619Z</time></trkpt><trkpt lat="45.80838" lon="11.5581669"><ele>1155.0</ele><time>2026-04-26T09:08:02.618Z</time></trkpt><trkpt lat="45.8084502" lon="11.5581237"><ele>1155.0</ele><time>2026-04-26T09:08:03.62Z</time></trkpt><trkpt lat="45.8085065" lon="11.5580641"><ele>1155.0</ele><time>2026-04-26T09:08:04.615Z</time></trkpt><trkpt lat="45.8085934" lon="11.5579834"><ele>1155.0</ele><time>2026-04-26T09:08:06.617Z</time></trkpt><trkpt lat="45.8086757" lon="11.5579229"><ele>1155.0</ele><time>2026-04-26T09:08:08.616Z</time></trkpt><trkpt lat="45.8087334" lon="11.5578659"><ele>1158.0</ele><time>2026-04-26T09:08:10.627Z</time></trkpt><trkpt lat="45.8088078" lon="11.5578018"><ele>1161.0</ele><time>2026-04-26T09:08:13.624Z</time></trkpt><trkpt lat="45.8088827" lon="11.5577547"><ele>1164.0</ele><time>2026-04-26T09:08:15.63Z</time></trkpt><trkpt lat="45.8089549" lon="11.557737"><ele>1167.0</ele><time>2026-04-26T09:08:16.623Z</time></trkpt><trkpt lat="45.8090181" lon="11.5577156"><ele>1170.0</ele><time>2026-04-26T09:08:17.621Z</time></trkpt><trkpt lat="45.8090974" lon="11.5576939"><ele>1173.0</ele><time>2026-04-26T09:08:18.617Z</time></trkpt><trkpt lat="45.8091732" lon="11.5576702"><ele>1173.0</ele><time>2026-04-26T09:08:19.617Z</time></trkpt><trkpt lat="45.8092596" lon="11.5576535"><ele>1173.0</ele><time>2026-04-26T09:08:20.628Z</time></trkpt><trkpt lat="45.8093446" lon="11.5576298"><ele>1173.0</ele><time>2026-04-26T09:08:21.616Z</time></trkpt><trkpt lat="45.8094318" lon="11.5576161"><ele>1173.0</ele><time>2026-04-26T09:08:22.631Z</time></trkpt><trkpt lat="45.809514" lon="11.5576257"><ele>1173.0</ele><time>2026-04-26T09:08:23.624Z</time></trkpt><trkpt lat="45.8096177" lon="11.5576317"><ele>1173.0</ele><time>2026-04-26T09:08:24.632Z</time></trkpt><trkpt lat="45.8097154" lon="11.55766"><ele>1173.0</ele><time>2026-04-26T09:08:25.629Z</time></trkpt><trkpt lat="45.8098149" lon="11.5576886"><ele>1173.0</ele><time>2026-04-26T09:08:26.613Z</time></trkpt><trkpt lat="45.8099128" lon="11.5577064"><ele>1173.0</ele><time>2026-04-26T09:08:27.607Z</time></trkpt><trkpt lat="45.8100013" lon="11.5577075"><ele>1173.0</ele><time>2026-04-26T09:08:28.614Z</time></trkpt><trkpt lat="45.8100749" lon="11.5576821"><ele>1173.0</ele><time>2026-04-26T09:08:29.617Z</time></trkpt><trkpt lat="45.8101618" lon="11.5576364"><ele>1173.25</ele><time>2026-04-26T09:08:30.621Z</time></trkpt><trkpt lat="45.8102601" lon="11.5575463"><ele>1173.5</ele><time>2026-04-26T09:08:31.622Z</time></trkpt><trkpt lat="45.8103645" lon="11.5574501"><ele>1173.75</ele><time>2026-04-26T09:08:32.616Z</time></trkpt><trkpt lat="45.8104776" lon="11.5573512"><ele>1174.0</ele><time>2026-04-26T09:08:33.617Z</time></trkpt><trkpt lat="45.8105996" lon="11.5572455"><ele>1174.0</ele><time>2026-04-26T09:08:34.613Z</time></trkpt><trkpt lat="45.8107221" lon="11.5571476"><ele>1174.0</ele><time>2026-04-26T09:08:35.614Z</time></trkpt><trkpt lat="45.810826" lon="11.5570661"><ele>1174.0</ele><time>2026-04-26T09:08:36.629Z</time></trkpt><trkpt lat="45.8109059" lon="11.5570077"><ele>1174.0</ele><time>2026-04-26T09:08:37.615Z</time></trkpt><trkpt lat="45.8109879" lon="11.5569748"><ele>1174.0</ele><time>2026-04-26T09:08:38.614Z</time></trkpt><trkpt lat="45.811079" lon="11.5569764"><ele>1174.5</ele><time>2026-04-26T09:08:39.618Z</time></trkpt><trkpt lat="45.8111661" lon="11.5569875"><ele>1175.0</ele><time>2026-04-26T09:08:40.615Z</time></trkpt><trkpt lat="45.8112561" lon="11.5570043"><ele>1175.5</ele><time>2026-04-26T09:08:41.627Z</time></trkpt><trkpt lat="45.8113369" lon="11.557017"><ele>1176.0</ele><time>2026-04-26T09:08:42.623Z</time></trkpt><trkpt lat="45.8114142" lon="11.5570223"><ele>1176.5</ele><time>2026-04-26T09:08:43.628Z</time></trkpt><trkpt lat="45.8115014" lon="11.5570373"><ele>1177.0</ele><time>2026-04-26T09:08:44.614Z</time></trkpt><trkpt lat="45.8115945" lon="11.5570807"><ele>1177.0</ele><time>2026-04-26T09:08:45.618Z</time></trkpt><trkpt lat="45.8116745" lon="11.5571545"><ele>1177.0</ele><time>2026-04-26T09:08:46.629Z</time></trkpt><trkpt lat="45.8117416" lon="11.557233"><ele>1177.0</ele><time>2026-04-26T09:08:47.622Z</time></trkpt><trkpt lat="45.81181" lon="11.5573222"><ele>1177.0</ele><time>2026-04-26T09:08:48.621Z</time></trkpt><trkpt lat="45.8118779" lon="11.5574081"><ele>1177.0</ele><time>2026-04-26T09:08:49.635Z</time></trkpt><trkpt lat="45.8119357" lon="11.5574802"><ele>1177.0</ele><time>2026-04-26T09:08:50.624Z</time></trkpt><trkpt lat="45.8119964" lon="11.5575386"><ele>1177.7142857142858</ele><time>2026-04-26T09:08:51.618Z</time></trkpt><trkpt lat="45.8120558" lon="11.5575748"><ele>1178.4285714285713</ele><time>2026-04-26T09:08:52.606Z</time></trkpt><trkpt lat="45.8121169" lon="11.557633"><ele>1179.142857142857</ele><time>2026-04-26T09:08:53.614Z</time></trkpt><trkpt lat="45.8121867" lon="11.5576746"><ele>1179.857142857143</ele><time>2026-04-26T09:08:54.615Z</time></trkpt><trkpt lat="45.8122559" lon="11.5577158"><ele>1180.5714285714287</ele><time>2026-04-26T09:08:55.613Z</time></trkpt><trkpt lat="45.8123223" lon="11.5577552"><ele>1181.2857142857142</ele><time>2026-04-26T09:08:56.62Z</time></trkpt><trkpt lat="45.8123932" lon="11.5578043"><ele>1182.0</ele><time>2026-04-26T09:08:57.612Z</time></trkpt><trkpt lat="45.8124609" lon="11.5578753"><ele>1182.3333333333333</ele><time>2026-04-26T09:08:58.619Z</time></trkpt><trkpt lat="45.8125218" lon="11.557956"><ele>1182.6666666666667</ele><time>2026-04-26T09:08:59.607Z</time></trkpt><trkpt lat="45.8125901" lon="11.558026"><ele>1183.0</ele><time>2026-04-26T09:09:00.621Z</time></trkpt><trkpt lat="45.812653" lon="11.558093"><ele>1183.3333333333335</ele><time>2026-04-26T09:09:01.618Z</time></trkpt><trkpt lat="45.8127124" lon="11.5581623"><ele>1183.6666666666667</ele><time>2026-04-26T09:09:02.623Z</time></trkpt><trkpt lat="45.8127805" lon="11.5582494"><ele>1184.0</ele><time>2026-04-26T09:09:03.624Z</time></trkpt><trkpt lat="45.8128544" lon="11.5583418"><ele>1182.2</ele><time>2026-04-26T09:09:04.616Z</time></trkpt><trkpt lat="45.8129142" lon="11.558448"><ele>1180.4</ele><time>2026-04-26T09:09:05.642Z</time></trkpt><trkpt lat="45.8129711" lon="11.5585522"><ele>1178.6</ele><time>2026-04-26T09:09:06.621Z</time></trkpt><trkpt lat="45.8130317" lon="11.5586537"><ele>1176.8</ele><time>2026-04-26T09:09:07.632Z</time></trkpt><trkpt lat="45.8130909" lon="11.5587508"><ele>1175.0</ele><time>2026-04-26T09:09:08.629Z</time></trkpt><trkpt lat="45.8131608" lon="11.5588694"><ele>1175.25</ele><time>2026-04-26T09:09:09.622Z</time></trkpt><trkpt lat="45.8132495" lon="11.558982"><ele>1175.5</ele><time>2026-04-26T09:09:10.625Z</time></trkpt><trkpt lat="45.8133444" lon="11.5590839"><ele>1175.75</ele><time>2026-04-26T09:09:11.609Z</time></trkpt><trkpt lat="45.8134496" lon="11.5591766"><ele>1176.0</ele><time>2026-04-26T09:09:12.623Z</time></trkpt><trkpt lat="45.8135519" lon="11.5592537"><ele>1176.0</ele><time>2026-04-26T09:09:13.624Z</time></trkpt><trkpt lat="45.8136539" lon="11.5593269"><ele>1176.0</ele><time>2026-04-26T09:09:14.616Z</time></trkpt><trkpt lat="45.8137587" lon="11.5593942"><ele>1176.0</ele><time>2026-04-26T09:09:15.617Z</time></trkpt><trkpt lat="45.8138615" lon="11.5594706"><ele>1176.0</ele><time>2026-04-26T09:09:16.614Z</time></trkpt><trkpt lat="45.8139594" lon="11.5595365"><ele>1175.3999999999999</ele><time>2026-04-26T09:09:17.621Z</time></trkpt><trkpt lat="45.8140452" lon="11.5596094"><ele>1174.8</ele><time>2026-04-26T09:09:18.624Z</time></trkpt><trkpt lat="45.8141284" lon="11.5596932"><ele>1174.1999999999998</ele><time>2026-04-26T09:09:19.63Z</time></trkpt><trkpt lat="45.8142054" lon="11.5597971"><ele>1173.6</ele><time>2026-04-26T09:09:20.624Z</time></trkpt><trkpt lat="45.8142684" lon="11.5599263"><ele>1173.0</ele><time>2026-04-26T09:09:21.623Z</time></trkpt><trkpt lat="45.8143272" lon="11.5600513"><ele>1173.8</ele><time>2026-04-26T09:09:22.618Z</time></trkpt><trkpt lat="45.8143931" lon="11.5601905"><ele>1174.6</ele><time>2026-04-26T09:09:23.622Z</time></trkpt><trkpt lat="45.8144519" lon="11.5603121"><ele>1175.4</ele><time>2026-04-26T09:09:24.616Z</time></trkpt><trkpt lat="45.8145228" lon="11.5604256"><ele>1176.2</ele><time>2026-04-26T09:09:25.633Z</time></trkpt><trkpt lat="45.8146102" lon="11.5605229"><ele>1177.0</ele><time>2026-04-26T09:09:26.622Z</time></trkpt><trkpt lat="45.8146873" lon="11.5606129"><ele>1177.0</ele><time>2026-04-26T09:09:27.614Z</time></trkpt><trkpt lat="45.8147581" lon="11.5607135"><ele>1177.0</ele><time>2026-04-26T09:09:28.63Z</time></trkpt><trkpt lat="45.8148242" lon="11.5608125"><ele>1177.0</ele><time>2026-04-26T09:09:29.623Z</time></trkpt><trkpt lat="45.8148867" lon="11.5609193"><ele>1177.0</ele><time>2026-04-26T09:09:30.615Z</time></trkpt><trkpt lat="45.8149465" lon="11.5610316"><ele>1177.0</ele><time>2026-04-26T09:09:31.623Z</time></trkpt><trkpt lat="45.8150035" lon="11.5611354"><ele>1177.3333333333333</ele><time>2026-04-26T09:09:32.623Z</time></trkpt><trkpt lat="45.8150656" lon="11.5612357"><ele>1177.6666666666665</ele><time>2026-04-26T09:09:33.616Z</time></trkpt><trkpt lat="45.8151229" lon="11.5613359"><ele>1178.0</ele><time>2026-04-26T09:09:34.612Z</time></trkpt><trkpt lat="45.8151794" lon="11.5614227"><ele>1178.3333333333333</ele><time>2026-04-26T09:09:35.619Z</time></trkpt><trkpt lat="45.8152247" lon="11.5614978"><ele>1178.6666666666667</ele><time>2026-04-26T09:09:36.618Z</time></trkpt><trkpt lat="45.8152689" lon="11.5615709"><ele>1179.0</ele><time>2026-04-26T09:09:37.619Z</time></trkpt><trkpt lat="45.8153105" lon="11.5616437"><ele>1179.0</ele><time>2026-04-26T09:09:38.618Z</time></trkpt><trkpt lat="45.8153516" lon="11.5617276"><ele>1179.0</ele><time>2026-04-26T09:09:39.611Z</time></trkpt><trkpt lat="45.815394" lon="11.5618223"><ele>1179.0</ele><time>2026-04-26T09:09:40.617Z</time></trkpt><trkpt lat="45.8154382" lon="11.5619223"><ele>1179.0</ele><time>2026-04-26T09:09:41.625Z</time></trkpt><trkpt lat="45.8154884" lon="11.5620219"><ele>1179.0</ele><time>2026-04-26T09:09:42.625Z</time></trkpt><trkpt lat="45.8155365" lon="11.5621264"><ele>1179.0</ele><time>2026-04-26T09:09:43.621Z</time></trkpt><trkpt lat="45.8155838" lon="11.5622448"><ele>1178.0</ele><time>2026-04-26T09:09:44.613Z</time></trkpt><trkpt lat="45.8156306" lon="11.5623637"><ele>1177.0</ele><time>2026-04-26T09:09:45.616Z</time></trkpt><trkpt lat="45.8156828" lon="11.5624795"><ele>1176.0</ele><time>2026-04-26T09:09:46.618Z</time></trkpt><trkpt lat="45.8157468" lon="11.5625697"><ele>1175.0</ele><time>2026-04-26T09:09:47.619Z</time></trkpt><trkpt lat="45.8158169" lon="11.562656"><ele>1174.0</ele><time>2026-04-26T09:09:48.615Z</time></trkpt><trkpt lat="45.8158786" lon="11.5627276"><ele>1174.0</ele><time>2026-04-26T09:09:49.631Z</time></trkpt><trkpt lat="45.8159373" lon="11.5627908"><ele>1174.0</ele><time>2026-04-26T09:09:50.622Z</time></trkpt><trkpt lat="45.8159941" lon="11.5628428"><ele>1174.0</ele><time>2026-04-26T09:09:51.612Z</time></trkpt><trkpt lat="45.8160903" lon="11.5629301"><ele>1174.0</ele><time>2026-04-26T09:09:53.627Z</time></trkpt><trkpt lat="45.8161794" lon="11.563009"><ele>1174.0</ele><time>2026-04-26T09:09:55.62Z</time></trkpt><trkpt lat="45.8162575" lon="11.5631018"><ele>1173.0</ele><time>2026-04-26T09:09:57.616Z</time></trkpt><trkpt lat="45.8163487" lon="11.5632108"><ele>1172.0</ele><time>2026-04-26T09:09:59.619Z</time></trkpt><trkpt lat="45.8164058" lon="11.5632712"><ele>1171.0</ele><time>2026-04-26T09:10:00.611Z</time></trkpt><trkpt lat="45.8164676" lon="11.5633403"><ele>1170.0</ele><time>2026-04-26T09:10:01.614Z</time></trkpt><trkpt lat="45.8165321" lon="11.5634085"><ele>1169.0</ele><time>2026-04-26T09:10:02.622Z</time></trkpt><trkpt lat="45.8166032" lon="11.5634771"><ele>1168.0</ele><time>2026-04-26T09:10:03.622Z</time></trkpt><trkpt lat="45.8166802" lon="11.5635395"><ele>1168.0</ele><time>2026-04-26T09:10:04.617Z</time></trkpt><trkpt lat="45.8167613" lon="11.5635943"><ele>1168.0</ele><time>2026-04-26T09:10:05.63Z</time></trkpt><trkpt lat="45.8168412" lon="11.5636615"><ele>1168.0</ele><time>2026-04-26T09:10:06.624Z</time></trkpt><trkpt lat="45.8169196" lon="11.563729"><ele>1168.0</ele><time>2026-04-26T09:10:07.617Z</time></trkpt><trkpt lat="45.816996" lon="11.5637921"><ele>1168.0</ele><time>2026-04-26T09:10:08.624Z</time></trkpt><trkpt lat="45.8170665" lon="11.5638497"><ele>1168.0</ele><time>2026-04-26T09:10:09.618Z</time></trkpt><trkpt lat="45.8171377" lon="11.5639099"><ele>1167.8333333333333</ele><time>2026-04-26T09:10:10.626Z</time></trkpt><trkpt lat="45.817207" lon="11.5639758"><ele>1167.6666666666665</ele><time>2026-04-26T09:10:11.621Z</time></trkpt><trkpt lat="45.8172713" lon="11.5640456"><ele>1167.5</ele><time>2026-04-26T09:10:12.619Z</time></trkpt><trkpt lat="45.8173255" lon="11.5641285"><ele>1167.3333333333333</ele><time>2026-04-26T09:10:13.615Z</time></trkpt><trkpt lat="45.8173749" lon="11.5642371"><ele>1167.1666666666667</ele><time>2026-04-26T09:10:14.622Z</time></trkpt><trkpt lat="45.8174146" lon="11.5643564"><ele>1167.0</ele><time>2026-04-26T09:10:15.623Z</time></trkpt><trkpt lat="45.81745" lon="11.5644892"><ele>1166.0</ele><time>2026-04-26T09:10:16.619Z</time></trkpt><trkpt lat="45.8174844" lon="11.5646415"><ele>1165.0</ele><time>2026-04-26T09:10:17.619Z</time></trkpt><trkpt lat="45.8175211" lon="11.5647963"><ele>1164.0</ele><time>2026-04-26T09:10:18.622Z</time></trkpt><trkpt lat="45.8175622" lon="11.5649568"><ele>1163.0</ele><time>2026-04-26T09:10:19.617Z</time></trkpt><trkpt lat="45.8176008" lon="11.5651226"><ele>1163.0</ele><time>2026-04-26T09:10:20.625Z</time></trkpt><trkpt lat="45.8176399" lon="11.5652808"><ele>1163.0</ele><time>2026-04-26T09:10:21.613Z</time></trkpt><trkpt lat="45.8176701" lon="11.5654171"><ele>1163.0</ele><time>2026-04-26T09:10:22.629Z</time></trkpt><trkpt lat="45.817705" lon="11.5655297"><ele>1163.0</ele><time>2026-04-26T09:10:23.612Z</time></trkpt><trkpt lat="45.8177382" lon="11.5656275"><ele>1163.0</ele><time>2026-04-26T09:10:24.63Z</time></trkpt><trkpt lat="45.8177894" lon="11.5657297"><ele>1162.6</ele><time>2026-04-26T09:10:25.621Z</time></trkpt><trkpt lat="45.8178474" lon="11.5658225"><ele>1162.1999999999998</ele><time>2026-04-26T09:10:26.62Z</time></trkpt><trkpt lat="45.8179131" lon="11.5659169"><ele>1161.8</ele><time>2026-04-26T09:10:27.613Z</time></trkpt><trkpt lat="45.8179877" lon="11.5660009"><ele>1161.3999999999999</ele><time>2026-04-26T09:10:28.629Z</time></trkpt><trkpt lat="45.8180665" lon="11.5660723"><ele>1161.0</ele><time>2026-04-26T09:10:29.623Z</time></trkpt><trkpt lat="45.8181559" lon="11.5661225"><ele>1161.0</ele><time>2026-04-26T09:10:30.631Z</time></trkpt><trkpt lat="45.8182438" lon="11.5661588"><ele>1161.0</ele><time>2026-04-26T09:10:31.625Z</time></trkpt><trkpt lat="45.8183353" lon="11.5661818"><ele>1161.0</ele><time>2026-04-26T09:10:32.628Z</time></trkpt><trkpt lat="45.818424" lon="11.5661976"><ele>1161.0</ele><time>2026-04-26T09:10:33.62Z</time></trkpt><trkpt lat="45.8185073" lon="11.5662237"><ele>1161.0</ele><time>2026-04-26T09:10:34.616Z</time></trkpt><trkpt lat="45.8185917" lon="11.5662451"><ele>1161.0</ele><time>2026-04-26T09:10:35.626Z</time></trkpt><trkpt lat="45.8186787" lon="11.5662414"><ele>1160.8333333333333</ele><time>2026-04-26T09:10:36.619Z</time></trkpt><trkpt lat="45.818764" lon="11.5662076"><ele>1160.6666666666667</ele><time>2026-04-26T09:10:37.619Z</time></trkpt><trkpt lat="45.8188437" lon="11.5661637"><ele>1160.5</ele><time>2026-04-26T09:10:38.622Z</time></trkpt><trkpt lat="45.8189249" lon="11.5661186"><ele>1160.3333333333335</ele><time>2026-04-26T09:10:39.615Z</time></trkpt><trkpt lat="45.8190088" lon="11.5660765"><ele>1160.1666666666667</ele><time>2026-04-26T09:10:40.61Z</time></trkpt><trkpt lat="45.8190973" lon="11.5660625"><ele>1160.0</ele><time>2026-04-26T09:10:41.631Z</time></trkpt><trkpt lat="45.8191959" lon="11.5660858"><ele>1160.0</ele><time>2026-04-26T09:10:42.609Z</time></trkpt><trkpt lat="45.819308" lon="11.5661022"><ele>1160.0</ele><time>2026-04-26T09:10:43.619Z</time></trkpt><trkpt lat="45.819438" lon="11.5661038"><ele>1160.0</ele><time>2026-04-26T09:10:44.621Z</time></trkpt><trkpt lat="45.8195709" lon="11.5660975"><ele>1160.0</ele><time>2026-04-26T09:10:45.622Z</time></trkpt><trkpt lat="45.8196982" lon="11.5660982"><ele>1160.25</ele><time>2026-04-26T09:10:46.618Z</time></trkpt><trkpt lat="45.8198287" lon="11.5660931"><ele>1160.5</ele><time>2026-04-26T09:10:47.62Z</time></trkpt><trkpt lat="45.8199554" lon="11.5660819"><ele>1160.75</ele><time>2026-04-26T09:10:48.633Z</time></trkpt><trkpt lat="45.8200695" lon="11.566086"><ele>1161.0</ele><time>2026-04-26T09:10:49.618Z</time></trkpt><trkpt lat="45.8201882" lon="11.5660889"><ele>1161.5</ele><time>2026-04-26T09:10:50.626Z</time></trkpt><trkpt lat="45.820303" lon="11.5660925"><ele>1162.0</ele><time>2026-04-26T09:10:51.625Z</time></trkpt><trkpt lat="45.8204291" lon="11.5660945"><ele>1162.5</ele><time>2026-04-26T09:10:52.614Z</time></trkpt><trkpt lat="45.8205506" lon="11.566091"><ele>1163.0</ele><time>2026-04-26T09:10:53.616Z</time></trkpt><trkpt lat="45.820663" lon="11.5660878"><ele>1163.0</ele><time>2026-04-26T09:10:54.61Z</time></trkpt><trkpt lat="45.8207687" lon="11.5660916"><ele>1163.0</ele><time>2026-04-26T09:10:55.616Z</time></trkpt><trkpt lat="45.8208664" lon="11.5661068"><ele>1163.0</ele><time>2026-04-26T09:10:56.624Z</time></trkpt><trkpt lat="45.8209738" lon="11.5661441"><ele>1163.0</ele><time>2026-04-26T09:10:57.618Z</time></trkpt><trkpt lat="45.821087" lon="11.5661966"><ele>1163.0</ele><time>2026-04-26T09:10:58.621Z</time></trkpt><trkpt lat="45.8212076" lon="11.5662625"><ele>1162.25</ele><time>2026-04-26T09:10:59.618Z</time></trkpt><trkpt lat="45.8213292" lon="11.5663252"><ele>1161.5</ele><time>2026-04-26T09:11:00.619Z</time></trkpt><trkpt lat="45.821441" lon="11.5663914"><ele>1160.75</ele><time>2026-04-26T09:11:01.635Z</time></trkpt><trkpt lat="45.8215528" lon="11.5664484"><ele>1160.0</ele><time>2026-04-26T09:11:02.611Z</time></trkpt><trkpt lat="45.8216742" lon="11.566508"><ele>1160.0</ele><time>2026-04-26T09:11:03.61Z</time></trkpt><trkpt lat="45.8217898" lon="11.5665654"><ele>1160.0</ele><time>2026-04-26T09:11:04.615Z</time></trkpt><trkpt lat="45.821907" lon="11.5666163"><ele>1160.0</ele><time>2026-04-26T09:11:05.62Z</time></trkpt><trkpt lat="45.8220314" lon="11.5666566"><ele>1160.0</ele><time>2026-04-26T09:11:06.622Z</time></trkpt><trkpt lat="45.8221632" lon="11.5666926"><ele>1159.0</ele><time>2026-04-26T09:11:07.62Z</time></trkpt><trkpt lat="45.8222962" lon="11.5667389"><ele>1158.0</ele><time>2026-04-26T09:11:08.609Z</time></trkpt><trkpt lat="45.8224309" lon="11.5667789"><ele>1157.0</ele><time>2026-04-26T09:11:09.613Z</time></trkpt><trkpt lat="45.8225727" lon="11.5668174"><ele>1156.0</ele><time>2026-04-26T09:11:10.62Z</time></trkpt><trkpt lat="45.8227012" lon="11.566857"><ele>1155.75</ele><time>2026-04-26T09:11:11.61Z</time></trkpt><trkpt lat="45.8228323" lon="11.5669014"><ele>1155.5</ele><time>2026-04-26T09:11:12.631Z</time></trkpt><trkpt lat="45.8229405" lon="11.5669484"><ele>1155.25</ele><time>2026-04-26T09:11:13.613Z</time></trkpt><trkpt lat="45.8230452" lon="11.5669978"><ele>1155.0</ele><time>2026-04-26T09:11:14.615Z</time></trkpt><trkpt lat="45.8231577" lon="11.5670505"><ele>1154.75</ele><time>2026-04-26T09:11:15.628Z</time></trkpt><trkpt lat="45.8232805" lon="11.5670906"><ele>1154.5</ele><time>2026-04-26T09:11:16.62Z</time></trkpt><trkpt lat="45.8234098" lon="11.5671057"><ele>1154.25</ele><time>2026-04-26T09:11:17.614Z</time></trkpt><trkpt lat="45.8235467" lon="11.5670869"><ele>1154.0</ele><time>2026-04-26T09:11:18.619Z</time></trkpt><trkpt lat="45.8236828" lon="11.5670525"><ele>1154.25</ele><time>2026-04-26T09:11:19.615Z</time></trkpt><trkpt lat="45.8238184" lon="11.5670063"><ele>1154.5</ele><time>2026-04-26T09:11:20.621Z</time></trkpt><trkpt lat="45.8239549" lon="11.5669631"><ele>1154.75</ele><time>2026-04-26T09:11:21.62Z</time></trkpt><trkpt lat="45.8240784" lon="11.5669187"><ele>1155.0</ele><time>2026-04-26T09:11:22.617Z</time></trkpt><trkpt lat="45.8241979" lon="11.5668898"><ele>1155.25</ele><time>2026-04-26T09:11:23.621Z</time></trkpt><trkpt lat="45.8243163" lon="11.5668718"><ele>1155.5</ele><time>2026-04-26T09:11:24.619Z</time></trkpt><trkpt lat="45.8244396" lon="11.5668622"><ele>1155.75</ele><time>2026-04-26T09:11:25.612Z</time></trkpt><trkpt lat="45.824562" lon="11.5668481"><ele>1156.0</ele><time>2026-04-26T09:11:26.614Z</time></trkpt><trkpt lat="45.8246754" lon="11.5668444"><ele>1156.0</ele><time>2026-04-26T09:11:27.607Z</time></trkpt><trkpt lat="45.824781" lon="11.5668591"><ele>1156.0</ele><time>2026-04-26T09:11:28.619Z</time></trkpt><trkpt lat="45.8248887" lon="11.5668898"><ele>1156.0</ele><time>2026-04-26T09:11:29.615Z</time></trkpt><trkpt lat="45.8250078" lon="11.5669272"><ele>1156.0</ele><time>2026-04-26T09:11:30.629Z</time></trkpt><trkpt lat="45.8251232" lon="11.5669977"><ele>1153.0</ele><time>2026-04-26T09:11:31.612Z</time></trkpt><trkpt lat="45.8252484" lon="11.5670714"><ele>1150.0</ele><time>2026-04-26T09:11:32.61Z</time></trkpt><trkpt lat="45.8253816" lon="11.5671471"><ele>1147.0</ele><time>2026-04-26T09:11:33.62Z</time></trkpt><trkpt lat="45.8255108" lon="11.567228"><ele>1144.0</ele><time>2026-04-26T09:11:34.623Z</time></trkpt><trkpt lat="45.8256319" lon="11.5673014"><ele>1144.0</ele><time>2026-04-26T09:11:35.623Z</time></trkpt><trkpt lat="45.8257514" lon="11.5673669"><ele>1144.0</ele><time>2026-04-26T09:11:36.614Z</time></trkpt><trkpt lat="45.8258625" lon="11.5674285"><ele>1144.0</ele><time>2026-04-26T09:11:37.613Z</time></trkpt><trkpt lat="45.8259532" lon="11.5674869"><ele>1144.0</ele><time>2026-04-26T09:11:38.614Z</time></trkpt><trkpt lat="45.8260388" lon="11.567573"><ele>1143.0</ele><time>2026-04-26T09:11:39.618Z</time></trkpt><trkpt lat="45.8261224" lon="11.5676935"><ele>1142.0</ele><time>2026-04-26T09:11:40.624Z</time></trkpt><trkpt lat="45.8262114" lon="11.5678286"><ele>1141.0</ele><time>2026-04-26T09:11:41.626Z</time></trkpt><trkpt lat="45.8262944" lon="11.5679693"><ele>1140.0</ele><time>2026-04-26T09:11:42.616Z</time></trkpt><trkpt lat="45.8263782" lon="11.5680973"><ele>1140.0</ele><time>2026-04-26T09:11:43.621Z</time></trkpt><trkpt lat="45.8264608" lon="11.5682118"><ele>1140.0</ele><time>2026-04-26T09:11:44.615Z</time></trkpt><trkpt lat="45.8265503" lon="11.5683116"><ele>1140.0</ele><time>2026-04-26T09:11:45.623Z</time></trkpt><trkpt lat="45.8266467" lon="11.5684003"><ele>1140.0</ele><time>2026-04-26T09:11:46.613Z</time></trkpt><trkpt lat="45.8267461" lon="11.5684865"><ele>1140.2</ele><time>2026-04-26T09:11:47.629Z</time></trkpt><trkpt lat="45.8268428" lon="11.5685689"><ele>1140.4</ele><time>2026-04-26T09:11:48.608Z</time></trkpt><trkpt lat="45.8269264" lon="11.5686399"><ele>1140.6</ele><time>2026-04-26T09:11:49.627Z</time></trkpt><trkpt lat="45.827006" lon="11.568709"><ele>1140.8</ele><time>2026-04-26T09:11:50.625Z</time></trkpt><trkpt lat="45.8270866" lon="11.568775"><ele>1141.0</ele><time>2026-04-26T09:11:51.616Z</time></trkpt><trkpt lat="45.8271706" lon="11.5688407"><ele>1141.0</ele><time>2026-04-26T09:11:52.617Z</time></trkpt><trkpt lat="45.8272534" lon="11.5689105"><ele>1141.0</ele><time>2026-04-26T09:11:53.602Z</time></trkpt><trkpt lat="45.8273296" lon="11.5689803"><ele>1141.0</ele><time>2026-04-26T09:11:54.612Z</time></trkpt><trkpt lat="45.8274051" lon="11.5690377"><ele>1141.0</ele><time>2026-04-26T09:11:55.612Z</time></trkpt><trkpt lat="45.827479" lon="11.5691017"><ele>1141.0</ele><time>2026-04-26T09:11:56.618Z</time></trkpt><trkpt lat="45.827548" lon="11.5691762"><ele>1141.0</ele><time>2026-04-26T09:11:57.619Z</time></trkpt><trkpt lat="45.8276211" lon="11.5692346"><ele>1140.1666666666665</ele><time>2026-04-26T09:11:58.617Z</time></trkpt><trkpt lat="45.8276916" lon="11.5692766"><ele>1139.3333333333333</ele><time>2026-04-26T09:11:59.618Z</time></trkpt><trkpt lat="45.8277673" lon="11.5692972"><ele>1138.5</ele><time>2026-04-26T09:12:00.622Z</time></trkpt><trkpt lat="45.8278413" lon="11.5692914"><ele>1137.6666666666667</ele><time>2026-04-26T09:12:01.622Z</time></trkpt><trkpt lat="45.8279165" lon="11.5692659"><ele>1136.8333333333335</ele><time>2026-04-26T09:12:02.62Z</time></trkpt><trkpt lat="45.8279951" lon="11.5692286"><ele>1136.0</ele><time>2026-04-26T09:12:03.617Z</time></trkpt><trkpt lat="45.8280752" lon="11.5691791"><ele>1136.0</ele><time>2026-04-26T09:12:04.615Z</time></trkpt><trkpt lat="45.8281524" lon="11.5691275"><ele>1136.0</ele><time>2026-04-26T09:12:05.62Z</time></trkpt><trkpt lat="45.8282271" lon="11.5690794"><ele>1136.0</ele><time>2026-04-26T09:12:06.625Z</time></trkpt><trkpt lat="45.8283093" lon="11.5690337"><ele>1136.0</ele><time>2026-04-26T09:12:07.611Z</time></trkpt><trkpt lat="45.8283954" lon="11.5689965"><ele>1136.0</ele><time>2026-04-26T09:12:08.628Z</time></trkpt><trkpt lat="45.8284834" lon="11.5689733"><ele>1136.0</ele><time>2026-04-26T09:12:09.614Z</time></trkpt><trkpt lat="45.8285772" lon="11.5689631"><ele>1136.3333333333335</ele><time>2026-04-26T09:12:10.62Z</time></trkpt><trkpt lat="45.8286625" lon="11.5689746"><ele>1136.6666666666667</ele><time>2026-04-26T09:12:11.622Z</time></trkpt><trkpt lat="45.8287493" lon="11.5689885"><ele>1137.0</ele><time>2026-04-26T09:12:12.618Z</time></trkpt><trkpt lat="45.8288363" lon="11.5690101"><ele>1137.3333333333333</ele><time>2026-04-26T09:12:13.624Z</time></trkpt><trkpt lat="45.8289209" lon="11.5690331"><ele>1137.6666666666665</ele><time>2026-04-26T09:12:14.614Z</time></trkpt><trkpt lat="45.8289829" lon="11.5690667"><ele>1138.0</ele><time>2026-04-26T09:12:15.628Z</time></trkpt><trkpt lat="45.8290501" lon="11.5691153"><ele>1138.0</ele><time>2026-04-26T09:12:16.62Z</time></trkpt><trkpt lat="45.8291605" lon="11.5692043"><ele>1138.0</ele><time>2026-04-26T09:12:18.61Z</time></trkpt><trkpt lat="45.8292663" lon="11.569292"><ele>1138.0</ele><time>2026-04-26T09:12:20.612Z</time></trkpt><trkpt lat="45.8293246" lon="11.5693298"><ele>1138.0</ele><time>2026-04-26T09:12:21.619Z</time></trkpt><trkpt lat="45.8293966" lon="11.5693604"><ele>1138.0</ele><time>2026-04-26T09:12:22.613Z</time></trkpt><trkpt lat="45.829487" lon="11.5693912"><ele>1140.0</ele><time>2026-04-26T09:12:23.612Z</time></trkpt><trkpt lat="45.8295874" lon="11.5694178"><ele>1142.0</ele><time>2026-04-26T09:12:24.612Z</time></trkpt><trkpt lat="45.8296942" lon="11.5694656"><ele>1144.0</ele><time>2026-04-26T09:12:25.615Z</time></trkpt><trkpt lat="45.8297975" lon="11.5695102"><ele>1146.0</ele><time>2026-04-26T09:12:26.626Z</time></trkpt><trkpt lat="45.8299" lon="11.5695648"><ele>1148.0</ele><time>2026-04-26T09:12:27.613Z</time></trkpt><trkpt lat="45.8299986" lon="11.5696243"><ele>1143.4</ele><time>2026-04-26T09:12:28.616Z</time></trkpt><trkpt lat="45.8300992" lon="11.569697"><ele>1138.8</ele><time>2026-04-26T09:12:29.627Z</time></trkpt><trkpt lat="45.8302011" lon="11.5697678"><ele>1134.2</ele><time>2026-04-26T09:12:30.62Z</time></trkpt><trkpt lat="45.8302891" lon="11.569836"><ele>1129.6</ele><time>2026-04-26T09:12:31.618Z</time></trkpt><trkpt lat="45.8303821" lon="11.5698999"><ele>1125.0</ele><time>2026-04-26T09:12:32.616Z</time></trkpt><trkpt lat="45.8304801" lon="11.5699507"><ele>1125.0</ele><time>2026-04-26T09:12:33.62Z</time></trkpt><trkpt lat="45.8305793" lon="11.5699751"><ele>1125.0</ele><time>2026-04-26T09:12:34.629Z</time></trkpt><trkpt lat="45.8306727" lon="11.5699975"><ele>1125.0</ele><time>2026-04-26T09:12:35.618Z</time></trkpt><trkpt lat="45.8307764" lon="11.5700338"><ele>1125.0</ele><time>2026-04-26T09:12:36.609Z</time></trkpt><trkpt lat="45.830883" lon="11.5700688"><ele>1125.0</ele><time>2026-04-26T09:12:37.619Z</time></trkpt><trkpt lat="45.830994" lon="11.570104"><ele>1125.0</ele><time>2026-04-26T09:12:38.612Z</time></trkpt><trkpt lat="45.831111" lon="11.5701347"><ele>1125.0</ele><time>2026-04-26T09:12:39.61Z</time></trkpt><trkpt lat="45.8312288" lon="11.57015"><ele>1125.0</ele><time>2026-04-26T09:12:40.622Z</time></trkpt><trkpt lat="45.8313458" lon="11.5701602"><ele>1125.0</ele><time>2026-04-26T09:12:41.632Z</time></trkpt><trkpt lat="45.8314526" lon="11.5701664"><ele>1125.0</ele><time>2026-04-26T09:12:42.619Z</time></trkpt><trkpt lat="45.8315619" lon="11.5701724"><ele>1125.0</ele><time>2026-04-26T09:12:43.617Z</time></trkpt><trkpt lat="45.8316731" lon="11.5701682"><ele>1125.0</ele><time>2026-04-26T09:12:44.623Z</time></trkpt><trkpt lat="45.8317949" lon="11.5701701"><ele>1125.0</ele><time>2026-04-26T09:12:45.618Z</time></trkpt><trkpt lat="45.8319142" lon="11.570176"><ele>1122.8</ele><time>2026-04-26T09:12:46.621Z</time></trkpt><trkpt lat="45.8320185" lon="11.5701829"><ele>1120.6</ele><time>2026-04-26T09:12:47.614Z</time></trkpt><trkpt lat="45.8321168" lon="11.5701747"><ele>1118.4</ele><time>2026-04-26T09:12:48.617Z</time></trkpt><trkpt lat="45.8322024" lon="11.5701629"><ele>1116.2</ele><time>2026-04-26T09:12:49.617Z</time></trkpt><trkpt lat="45.8322894" lon="11.5701389"><ele>1114.0</ele><time>2026-04-26T09:12:50.636Z</time></trkpt><trkpt lat="45.8323788" lon="11.5701187"><ele>1114.0</ele><time>2026-04-26T09:12:51.62Z</time></trkpt><trkpt lat="45.832464" lon="11.5700916"><ele>1114.0</ele><time>2026-04-26T09:12:52.616Z</time></trkpt><trkpt lat="45.8325593" lon="11.5700377"><ele>1114.0</ele><time>2026-04-26T09:12:53.621Z</time></trkpt><trkpt lat="45.8326524" lon="11.5699724"><ele>1114.0</ele><time>2026-04-26T09:12:54.613Z</time></trkpt><trkpt lat="45.8327478" lon="11.5699102"><ele>1114.0</ele><time>2026-04-26T09:12:55.623Z</time></trkpt><trkpt lat="45.8328705" lon="11.5698422"><ele>1108.25</ele><time>2026-04-26T09:12:56.621Z</time></trkpt><trkpt lat="45.8329988" lon="11.5697761"><ele>1102.5</ele><time>2026-04-26T09:12:57.615Z</time></trkpt><trkpt lat="45.8331202" lon="11.5697012"><ele>1096.75</ele><time>2026-04-26T09:12:58.625Z</time></trkpt><trkpt lat="45.833251" lon="11.569641"><ele>1091.0</ele><time>2026-04-26T09:12:59.618Z</time></trkpt><trkpt lat="45.8333699" lon="11.5695833"><ele>1086.5</ele><time>2026-04-26T09:13:00.611Z</time></trkpt><trkpt lat="45.8334804" lon="11.5695263"><ele>1082.0</ele><time>2026-04-26T09:13:01.612Z</time></trkpt><trkpt lat="45.8335901" lon="11.5694741"><ele>1077.5</ele><time>2026-04-26T09:13:02.619Z</time></trkpt><trkpt lat="45.8337062" lon="11.5694426"><ele>1073.0</ele><time>2026-04-26T09:13:03.611Z</time></trkpt><trkpt lat="45.8338304" lon="11.5694111"><ele>1082.5</ele><time>2026-04-26T09:13:04.617Z</time></trkpt><trkpt lat="45.833971" lon="11.5693745"><ele>1092.0</ele><time>2026-04-26T09:13:05.614Z</time></trkpt><trkpt lat="45.8340945" lon="11.5693419"><ele>1101.5</ele><time>2026-04-26T09:13:06.619Z</time></trkpt><trkpt lat="45.8342009" lon="11.5693075"><ele>1111.0</ele><time>2026-04-26T09:13:07.613Z</time></trkpt><trkpt lat="45.8343045" lon="11.5692647"><ele>1103.25</ele><time>2026-04-26T09:13:08.624Z</time></trkpt><trkpt lat="45.8344179" lon="11.5691976"><ele>1095.5</ele><time>2026-04-26T09:13:09.621Z</time></trkpt><trkpt lat="45.8345299" lon="11.569137"><ele>1087.75</ele><time>2026-04-26T09:13:10.613Z</time></trkpt><trkpt lat="45.8346469" lon="11.5690722"><ele>1080.0</ele><time>2026-04-26T09:13:11.624Z</time></trkpt><trkpt lat="45.8347508" lon="11.5689781"><ele>1080.0</ele><time>2026-04-26T09:13:12.608Z</time></trkpt><trkpt lat="45.834855" lon="11.5688577"><ele>1080.0</ele><time>2026-04-26T09:13:13.631Z</time></trkpt><trkpt lat="45.8349515" lon="11.5687218"><ele>1080.0</ele><time>2026-04-26T09:13:14.615Z</time></trkpt><trkpt lat="45.8350372" lon="11.5685829"><ele>1080.0</ele><time>2026-04-26T09:13:15.613Z</time></trkpt><trkpt lat="45.8351187" lon="11.5684447"><ele>1076.0</ele><time>2026-04-26T09:13:16.615Z</time></trkpt><trkpt lat="45.8351813" lon="11.5683168"><ele>1072.0</ele><time>2026-04-26T09:13:17.619Z</time></trkpt><trkpt lat="45.8352416" lon="11.5681879"><ele>1068.0</ele><time>2026-04-26T09:13:18.613Z</time></trkpt><trkpt lat="45.8352973" lon="11.5680496"><ele>1064.0</ele><time>2026-04-26T09:13:19.629Z</time></trkpt><trkpt lat="45.8353409" lon="11.5679056"><ele>1060.0</ele><time>2026-04-26T09:13:20.603Z</time></trkpt><trkpt lat="45.8353875" lon="11.5677402"><ele>1060.0</ele><time>2026-04-26T09:13:21.614Z</time></trkpt><trkpt lat="45.8354189" lon="11.5675642"><ele>1060.0</ele><time>2026-04-26T09:13:22.611Z</time></trkpt><trkpt lat="45.8354356" lon="11.5673932"><ele>1060.0</ele><time>2026-04-26T09:13:23.615Z</time></trkpt><trkpt lat="45.8354332" lon="11.5672246"><ele>1060.0</ele><time>2026-04-26T09:13:24.614Z</time></trkpt><trkpt lat="45.8354237" lon="11.5670571"><ele>1060.4</ele><time>2026-04-26T09:13:25.615Z</time></trkpt><trkpt lat="45.835403" lon="11.566895"><ele>1060.8</ele><time>2026-04-26T09:13:26.631Z</time></trkpt><trkpt lat="45.8353839" lon="11.5667318"><ele>1061.2</ele><time>2026-04-26T09:13:27.616Z</time></trkpt><trkpt lat="45.8353651" lon="11.5665685"><ele>1061.6</ele><time>2026-04-26T09:13:28.62Z</time></trkpt><trkpt lat="45.8353356" lon="11.5664269"><ele>1062.0</ele><time>2026-04-26T09:13:29.617Z</time></trkpt><trkpt lat="45.8352921" lon="11.5662674"><ele>1060.75</ele><time>2026-04-26T09:13:30.618Z</time></trkpt><trkpt lat="45.8352401" lon="11.5661159"><ele>1059.5</ele><time>2026-04-26T09:13:31.623Z</time></trkpt><trkpt lat="45.8351744" lon="11.5659671"><ele>1058.25</ele><time>2026-04-26T09:13:32.617Z</time></trkpt><trkpt lat="45.8351058" lon="11.5658227"><ele>1057.0</ele><time>2026-04-26T09:13:33.615Z</time></trkpt><trkpt lat="45.8350342" lon="11.5656834"><ele>1061.0</ele><time>2026-04-26T09:13:34.623Z</time></trkpt><trkpt lat="45.8349402" lon="11.5655529"><ele>1065.0</ele><time>2026-04-26T09:13:35.617Z</time></trkpt><trkpt lat="45.8348518" lon="11.565424"><ele>1069.0</ele><time>2026-04-26T09:13:36.618Z</time></trkpt><trkpt lat="45.834781" lon="11.5653026"><ele>1073.0</ele><time>2026-04-26T09:13:37.609Z</time></trkpt><trkpt lat="45.8347066" lon="11.5651722"><ele>1073.0</ele><time>2026-04-26T09:13:38.623Z</time></trkpt><trkpt lat="45.8346278" lon="11.5650415"><ele>1073.0</ele><time>2026-04-26T09:13:39.624Z</time></trkpt><trkpt lat="45.8345576" lon="11.5649094"><ele>1073.0</ele><time>2026-04-26T09:13:40.616Z</time></trkpt><trkpt lat="45.8344754" lon="11.5647877"><ele>1073.0</ele><time>2026-04-26T09:13:41.618Z</time></trkpt><trkpt lat="45.8344027" lon="11.5646699"><ele>1073.0</ele><time>2026-04-26T09:13:42.613Z</time></trkpt><trkpt lat="45.8343307" lon="11.5645537"><ele>1073.0</ele><time>2026-04-26T09:13:43.622Z</time></trkpt><trkpt lat="45.8342511" lon="11.5644393"><ele>1073.0</ele><time>2026-04-26T09:13:44.615Z</time></trkpt><trkpt lat="45.8341829" lon="11.564314"><ele>1073.0</ele><time>2026-04-26T09:13:45.614Z</time></trkpt><trkpt lat="45.8341167" lon="11.5641791"><ele>1073.0</ele><time>2026-04-26T09:13:46.611Z</time></trkpt><trkpt lat="45.8340615" lon="11.5640332"><ele>1071.25</ele><time>2026-04-26T09:13:47.615Z</time></trkpt><trkpt lat="45.8340207" lon="11.5638713"><ele>1069.5</ele><time>2026-04-26T09:13:48.613Z</time></trkpt><trkpt lat="45.8339759" lon="11.5637132"><ele>1067.75</ele><time>2026-04-26T09:13:49.621Z</time></trkpt><trkpt lat="45.8339459" lon="11.5635551"><ele>1066.0</ele><time>2026-04-26T09:13:50.611Z</time></trkpt><trkpt lat="45.8339353" lon="11.5633768"><ele>1066.0</ele><time>2026-04-26T09:13:51.622Z</time></trkpt><trkpt lat="45.8339417" lon="11.5631945"><ele>1066.0</ele><time>2026-04-26T09:13:52.613Z</time></trkpt><trkpt lat="45.8339468" lon="11.5630301"><ele>1066.0</ele><time>2026-04-26T09:13:53.614Z</time></trkpt><trkpt lat="45.8339563" lon="11.5628629"><ele>1066.0</ele><time>2026-04-26T09:13:54.621Z</time></trkpt><trkpt lat="45.833974" lon="11.5626959"><ele>1066.25</ele><time>2026-04-26T09:13:55.618Z</time></trkpt><trkpt lat="45.833994" lon="11.5625341"><ele>1066.5</ele><time>2026-04-26T09:13:56.619Z</time></trkpt><trkpt lat="45.8340287" lon="11.5623831"><ele>1066.75</ele><time>2026-04-26T09:13:57.611Z</time></trkpt><trkpt lat="45.8340911" lon="11.5622472"><ele>1067.0</ele><time>2026-04-26T09:13:58.622Z</time></trkpt><trkpt lat="45.8341668" lon="11.5621241"><ele>1069.0</ele><time>2026-04-26T09:13:59.614Z</time></trkpt><trkpt lat="45.8342343" lon="11.5619946"><ele>1071.0</ele><time>2026-04-26T09:14:00.614Z</time></trkpt><trkpt lat="45.8342838" lon="11.5618423"><ele>1073.0</ele><time>2026-04-26T09:14:01.624Z</time></trkpt><trkpt lat="45.8343364" lon="11.5616853"><ele>1075.0</ele><time>2026-04-26T09:14:02.618Z</time></trkpt><trkpt lat="45.8343811" lon="11.5615473"><ele>1071.4</ele><time>2026-04-26T09:14:03.614Z</time></trkpt><trkpt lat="45.8344396" lon="11.5614297"><ele>1067.8</ele><time>2026-04-26T09:14:04.611Z</time></trkpt><trkpt lat="45.8345352" lon="11.5613731"><ele>1064.2</ele><time>2026-04-26T09:14:05.617Z</time></trkpt><trkpt lat="45.8346356" lon="11.5613471"><ele>1060.6</ele><time>2026-04-26T09:14:06.615Z</time></trkpt><trkpt lat="45.83475" lon="11.5613393"><ele>1057.0</ele><time>2026-04-26T09:14:07.618Z</time></trkpt><trkpt lat="45.8348483" lon="11.5613274"><ele>1057.0</ele><time>2026-04-26T09:14:08.615Z</time></trkpt><trkpt lat="45.8349231" lon="11.5613015"><ele>1057.0</ele><time>2026-04-26T09:14:09.614Z</time></trkpt><trkpt lat="45.8349961" lon="11.5612642"><ele>1057.0</ele><time>2026-04-26T09:14:10.617Z</time></trkpt><trkpt lat="45.8350602" lon="11.5611791"><ele>1057.0</ele><time>2026-04-26T09:14:11.626Z</time></trkpt><trkpt lat="45.8351018" lon="11.5610838"><ele>1057.0</ele><time>2026-04-26T09:14:12.607Z</time></trkpt><trkpt lat="45.8351264" lon="11.5609741"><ele>1057.0</ele><time>2026-04-26T09:14:13.613Z</time></trkpt><trkpt lat="45.835132" lon="11.5608572"><ele>1058.1666666666665</ele><time>2026-04-26T09:14:14.612Z</time></trkpt><trkpt lat="45.8351454" lon="11.5607391"><ele>1059.3333333333333</ele><time>2026-04-26T09:14:15.628Z</time></trkpt><trkpt lat="45.8351571" lon="11.5606402"><ele>1060.5</ele><time>2026-04-26T09:14:16.623Z</time></trkpt><trkpt lat="45.8351652" lon="11.5605404"><ele>1061.6666666666667</ele><time>2026-04-26T09:14:17.613Z</time></trkpt><trkpt lat="45.8351581" lon="11.5603749"><ele>1062.8333333333335</ele><time>2026-04-26T09:14:19.622Z</time></trkpt><trkpt lat="45.8351206" lon="11.5602336"><ele>1064.0</ele><time>2026-04-26T09:14:21.624Z</time></trkpt><trkpt lat="45.8350619" lon="11.5600603"><ele>1064.0</ele><time>2026-04-26T09:14:23.62Z</time></trkpt><trkpt lat="45.8350252" lon="11.5599654"><ele>1064.0</ele><time>2026-04-26T09:14:24.61Z</time></trkpt><trkpt lat="45.8350019" lon="11.559863"><ele>1064.0</ele><time>2026-04-26T09:14:25.609Z</time></trkpt><trkpt lat="45.8349863" lon="11.5597538"><ele>1064.0</ele><time>2026-04-26T09:14:26.611Z</time></trkpt><trkpt lat="45.8349768" lon="11.5596447"><ele>1064.0</ele><time>2026-04-26T09:14:27.621Z</time></trkpt><trkpt lat="45.8349789" lon="11.5595264"><ele>1064.0</ele><time>2026-04-26T09:14:28.611Z</time></trkpt><trkpt lat="45.8349932" lon="11.5594195"><ele>1064.1666666666667</ele><time>2026-04-26T09:14:29.612Z</time></trkpt><trkpt lat="45.8350132" lon="11.5593196"><ele>1064.3333333333335</ele><time>2026-04-26T09:14:30.624Z</time></trkpt><trkpt lat="45.8350336" lon="11.5592331"><ele>1064.5</ele><time>2026-04-26T09:14:31.611Z</time></trkpt><trkpt lat="45.8350823" lon="11.5591221"><ele>1064.6666666666667</ele><time>2026-04-26T09:14:33.612Z</time></trkpt><trkpt lat="45.8351206" lon="11.5590348"><ele>1064.8333333333333</ele><time>2026-04-26T09:14:35.616Z</time></trkpt><trkpt lat="45.8352274" lon="11.5589781"><ele>1065.0</ele><time>2026-04-26T09:14:38.611Z</time></trkpt><trkpt lat="45.8352925" lon="11.5590016"><ele>1177.0</ele><time>2026-04-26T09:14:39.614Z</time></trkpt><trkpt lat="45.8413827" lon="11.5666273"><ele>1177.0</ele><time>2026-04-26T09:16:34.631Z</time></trkpt><trkpt lat="45.8414225" lon="11.5667535"><ele>1177.0</ele><time>2026-04-26T09:16:36.615Z</time></trkpt><trkpt lat="45.8414605" lon="11.5668432"><ele>1177.0</ele><time>2026-04-26T09:16:39.63Z</time></trkpt><trkpt lat="45.8415725" lon="11.5668903"><ele>1177.0</ele><time>2026-04-26T09:17:37.866Z</time></trkpt><trkpt lat="45.8414177" lon="11.5668255"><ele>1177.0</ele><time>2026-04-26T09:18:02.624Z</time></trkpt></trkseg><trkseg><trkpt lat="45.8920707" lon="11.5509078"><ele>1096.0</ele><time>2026-04-26T11:37:14.592Z</time></trkpt><trkpt lat="45.8920722" lon="11.5510447"><ele>1096.0</ele><time>2026-04-26T11:37:34.591Z</time></trkpt><trkpt lat="45.8920716" lon="11.551149"><ele>1096.0</ele><time>2026-04-26T11:37:36.604Z</time></trkpt><trkpt lat="45.8920673" lon="11.5512635"><ele>1096.0</ele><time>2026-04-26T11:37:39.598Z</time></trkpt><trkpt lat="45.8920551" lon="11.5513731"><ele>1096.0</ele><time>2026-04-26T11:37:42.6Z</time></trkpt><trkpt lat="45.8920374" lon="11.5514918"><ele>1096.0</ele><time>2026-04-26T11:37:45.601Z</time></trkpt><trkpt lat="45.8920217" lon="11.5516079"><ele>1096.3333333333333</ele><time>2026-04-26T11:37:48.597Z</time></trkpt><trkpt lat="45.892" lon="11.5517219"><ele>1096.6666666666665</ele><time>2026-04-26T11:37:51.601Z</time></trkpt><trkpt lat="45.8919865" lon="11.5518107"><ele>1097.0</ele><time>2026-04-26T11:37:54.601Z</time></trkpt><trkpt lat="45.8919849" lon="11.5519515"><ele>1097.3333333333333</ele><time>2026-04-26T11:38:32.596Z</time></trkpt><trkpt lat="45.8919774" lon="11.5520519"><ele>1097.6666666666667</ele><time>2026-04-26T11:38:33.619Z</time></trkpt><trkpt lat="45.8919661" lon="11.5521468"><ele>1098.0</ele><time>2026-04-26T11:38:34.588Z</time></trkpt><trkpt lat="45.8919581" lon="11.5522453"><ele>1098.3333333333333</ele><time>2026-04-26T11:38:35.609Z</time></trkpt><trkpt lat="45.8919495" lon="11.5523492"><ele>1098.6666666666667</ele><time>2026-04-26T11:38:36.608Z</time></trkpt><trkpt lat="45.8919422" lon="11.5524551"><ele>1099.0</ele><time>2026-04-26T11:38:37.597Z</time></trkpt><trkpt lat="45.8919246" lon="11.5525617"><ele>1099.3333333333335</ele><time>2026-04-26T11:38:38.604Z</time></trkpt><trkpt lat="45.8919103" lon="11.5526786"><ele>1099.6666666666667</ele><time>2026-04-26T11:38:39.61Z</time></trkpt><trkpt lat="45.8918966" lon="11.5527965"><ele>1100.0</ele><time>2026-04-26T11:38:40.604Z</time></trkpt><trkpt lat="45.8918728" lon="11.5529201"><ele>1100.4</ele><time>2026-04-26T11:38:41.606Z</time></trkpt><trkpt lat="45.8918434" lon="11.5530489"><ele>1100.8</ele><time>2026-04-26T11:38:42.593Z</time></trkpt><trkpt lat="45.8918147" lon="11.5531782"><ele>1101.2</ele><time>2026-04-26T11:38:43.595Z</time></trkpt><trkpt lat="45.8917842" lon="11.5533115"><ele>1101.6</ele><time>2026-04-26T11:38:44.61Z</time></trkpt><trkpt lat="45.8917578" lon="11.5534524"><ele>1102.0</ele><time>2026-04-26T11:38:45.609Z</time></trkpt><trkpt lat="45.8917326" lon="11.5536001"><ele>1100.6</ele><time>2026-04-26T11:38:46.593Z</time></trkpt><trkpt lat="45.8917014" lon="11.5537414"><ele>1099.2</ele><time>2026-04-26T11:38:47.604Z</time></trkpt><trkpt lat="45.8916794" lon="11.5538893"><ele>1097.8</ele><time>2026-04-26T11:38:48.603Z</time></trkpt><trkpt lat="45.8916513" lon="11.5540491"><ele>1096.4</ele><time>2026-04-26T11:38:49.6Z</time></trkpt><trkpt lat="45.8916252" lon="11.5542186"><ele>1095.0</ele><time>2026-04-26T11:38:50.609Z</time></trkpt><trkpt lat="45.8916022" lon="11.5543754"><ele>1095.0</ele><time>2026-04-26T11:38:51.613Z</time></trkpt><trkpt lat="45.891583" lon="11.554528"><ele>1095.0</ele><time>2026-04-26T11:38:52.596Z</time></trkpt><trkpt lat="45.8915638" lon="11.5546853"><ele>1095.0</ele><time>2026-04-26T11:38:53.601Z</time></trkpt><trkpt lat="45.891539" lon="11.5548423"><ele>1095.0</ele><time>2026-04-26T11:38:54.607Z</time></trkpt><trkpt lat="45.8915206" lon="11.5550014"><ele>1095.0</ele><time>2026-04-26T11:38:55.605Z</time></trkpt><trkpt lat="45.891494" lon="11.5551644"><ele>1095.0</ele><time>2026-04-26T11:38:56.603Z</time></trkpt><trkpt lat="45.8914613" lon="11.55534"><ele>1095.0</ele><time>2026-04-26T11:38:57.598Z</time></trkpt><trkpt lat="45.8914286" lon="11.5555305"><ele>1095.0</ele><time>2026-04-26T11:38:58.602Z</time></trkpt><trkpt lat="45.8914031" lon="11.5557186"><ele>1095.0</ele><time>2026-04-26T11:38:59.599Z</time></trkpt><trkpt lat="45.8913766" lon="11.555899"><ele>1096.0</ele><time>2026-04-26T11:39:00.616Z</time></trkpt><trkpt lat="45.8913547" lon="11.5560694"><ele>1097.0</ele><time>2026-04-26T11:39:01.597Z</time></trkpt><trkpt lat="45.8913422" lon="11.5562304"><ele>1098.0</ele><time>2026-04-26T11:39:02.598Z</time></trkpt><trkpt lat="45.8913329" lon="11.5563693"><ele>1099.0</ele><time>2026-04-26T11:39:03.599Z</time></trkpt><trkpt lat="45.8913477" lon="11.5565059"><ele>1100.0</ele><time>2026-04-26T11:39:04.601Z</time></trkpt><trkpt lat="45.8913837" lon="11.5566286"><ele>1100.25</ele><time>2026-04-26T11:39:05.62Z</time></trkpt><trkpt lat="45.8914547" lon="11.5567531"><ele>1100.5</ele><time>2026-04-26T11:39:06.604Z</time></trkpt><trkpt lat="45.8915524" lon="11.5568858"><ele>1100.75</ele><time>2026-04-26T11:39:07.596Z</time></trkpt><trkpt lat="45.8916734" lon="11.5569838"><ele>1101.0</ele><time>2026-04-26T11:39:08.594Z</time></trkpt><trkpt lat="45.8917757" lon="11.5571196"><ele>1102.5</ele><time>2026-04-26T11:39:09.59Z</time></trkpt><trkpt lat="45.8918732" lon="11.5572625"><ele>1104.0</ele><time>2026-04-26T11:39:10.6Z</time></trkpt><trkpt lat="45.8919659" lon="11.557408"><ele>1105.5</ele><time>2026-04-26T11:39:11.602Z</time></trkpt><trkpt lat="45.8920616" lon="11.5575459"><ele>1107.0</ele><time>2026-04-26T11:39:12.604Z</time></trkpt><trkpt lat="45.8921511" lon="11.5576906"><ele>1107.0</ele><time>2026-04-26T11:39:13.598Z</time></trkpt><trkpt lat="45.8922113" lon="11.5578592"><ele>1107.0</ele><time>2026-04-26T11:39:14.596Z</time></trkpt><trkpt lat="45.8922248" lon="11.5580614"><ele>1107.0</ele><time>2026-04-26T11:39:15.595Z</time></trkpt><trkpt lat="45.8922192" lon="11.5582626"><ele>1107.0</ele><time>2026-04-26T11:39:16.598Z</time></trkpt><trkpt lat="45.8922248" lon="11.5584483"><ele>1104.75</ele><time>2026-04-26T11:39:17.595Z</time></trkpt><trkpt lat="45.8922533" lon="11.55861"><ele>1102.5</ele><time>2026-04-26T11:39:18.587Z</time></trkpt><trkpt lat="45.8923121" lon="11.5587687"><ele>1100.25</ele><time>2026-04-26T11:39:19.594Z</time></trkpt><trkpt lat="45.8924238" lon="11.5589004"><ele>1098.0</ele><time>2026-04-26T11:39:20.606Z</time></trkpt><trkpt lat="45.8925676" lon="11.5590101"><ele>1100.3333333333333</ele><time>2026-04-26T11:39:21.607Z</time></trkpt><trkpt lat="45.892706" lon="11.5591139"><ele>1102.6666666666665</ele><time>2026-04-26T11:39:22.6Z</time></trkpt><trkpt lat="45.892844" lon="11.559237"><ele>1105.0</ele><time>2026-04-26T11:39:23.595Z</time></trkpt><trkpt lat="45.892983" lon="11.5593638"><ele>1105.0</ele><time>2026-04-26T11:39:24.594Z</time></trkpt><trkpt lat="45.8931431" lon="11.5595311"><ele>1105.0</ele><time>2026-04-26T11:39:25.598Z</time></trkpt><trkpt lat="45.8932998" lon="11.5597106"><ele>1105.0</ele><time>2026-04-26T11:39:26.604Z</time></trkpt><trkpt lat="45.8934308" lon="11.5598988"><ele>1108.0</ele><time>2026-04-26T11:39:27.588Z</time></trkpt><trkpt lat="45.8935405" lon="11.5601132"><ele>1111.0</ele><time>2026-04-26T11:39:28.609Z</time></trkpt><trkpt lat="45.8936426" lon="11.5603449"><ele>1114.0</ele><time>2026-04-26T11:39:29.589Z</time></trkpt><trkpt lat="45.893719" lon="11.560573"><ele>1107.3333333333333</ele><time>2026-04-26T11:39:30.601Z</time></trkpt><trkpt lat="45.8937954" lon="11.5607709"><ele>1100.6666666666667</ele><time>2026-04-26T11:39:31.597Z</time></trkpt><trkpt lat="45.8938639" lon="11.5609537"><ele>1094.0</ele><time>2026-04-26T11:39:32.602Z</time></trkpt><trkpt lat="45.8939428" lon="11.5611385"><ele>1097.0</ele><time>2026-04-26T11:39:33.601Z</time></trkpt><trkpt lat="45.8940276" lon="11.5613148"><ele>1100.0</ele><time>2026-04-26T11:39:34.602Z</time></trkpt><trkpt lat="45.8941317" lon="11.5614766"><ele>1103.0</ele><time>2026-04-26T11:39:35.605Z</time></trkpt><trkpt lat="45.8942636" lon="11.5616145"><ele>1103.0</ele><time>2026-04-26T11:39:36.606Z</time></trkpt><trkpt lat="45.8944199" lon="11.5617403"><ele>1103.0</ele><time>2026-04-26T11:39:37.602Z</time></trkpt><trkpt lat="45.8945874" lon="11.5618753"><ele>1103.0</ele><time>2026-04-26T11:39:38.599Z</time></trkpt><trkpt lat="45.894741" lon="11.5620111"><ele>1095.0</ele><time>2026-04-26T11:39:39.615Z</time></trkpt><trkpt lat="45.8948776" lon="11.5621335"><ele>1087.0</ele><time>2026-04-26T11:39:40.597Z</time></trkpt><trkpt lat="45.8950193" lon="11.5622088"><ele>1079.0</ele><time>2026-04-26T11:39:41.614Z</time></trkpt><trkpt lat="45.8951689" lon="11.5622577"><ele>1078.5</ele><time>2026-04-26T11:39:42.593Z</time></trkpt><trkpt lat="45.8953277" lon="11.5622722"><ele>1078.0</ele><time>2026-04-26T11:39:43.601Z</time></trkpt><trkpt lat="45.8954808" lon="11.5622591"><ele>1077.5</ele><time>2026-04-26T11:39:44.592Z</time></trkpt><trkpt lat="45.8956163" lon="11.5622454"><ele>1077.0</ele><time>2026-04-26T11:39:45.609Z</time></trkpt><trkpt lat="45.8957317" lon="11.5622418"><ele>1077.0</ele><time>2026-04-26T11:39:46.604Z</time></trkpt><trkpt lat="45.8958308" lon="11.5622296"><ele>1077.0</ele><time>2026-04-26T11:39:47.604Z</time></trkpt><trkpt lat="45.8959161" lon="11.5621974"><ele>1077.0</ele><time>2026-04-26T11:39:48.592Z</time></trkpt><trkpt lat="45.8959951" lon="11.5621278"><ele>1077.0</ele><time>2026-04-26T11:39:49.604Z</time></trkpt><trkpt lat="45.8960519" lon="11.5620194"><ele>1077.0</ele><time>2026-04-26T11:39:50.601Z</time></trkpt><trkpt lat="45.8961119" lon="11.5618908"><ele>1077.6</ele><time>2026-04-26T11:39:51.607Z</time></trkpt><trkpt lat="45.896172" lon="11.5617539"><ele>1078.2</ele><time>2026-04-26T11:39:52.595Z</time></trkpt><trkpt lat="45.8962383" lon="11.561634"><ele>1078.8</ele><time>2026-04-26T11:39:53.605Z</time></trkpt><trkpt lat="45.8963069" lon="11.5615218"><ele>1079.4</ele><time>2026-04-26T11:39:54.604Z</time></trkpt><trkpt lat="45.8963725" lon="11.5614235"><ele>1080.0</ele><time>2026-04-26T11:39:55.6Z</time></trkpt><trkpt lat="45.8964386" lon="11.5613392"><ele>1080.0</ele><time>2026-04-26T11:39:56.59Z</time></trkpt><trkpt lat="45.8965045" lon="11.5612682"><ele>1080.0</ele><time>2026-04-26T11:39:57.605Z</time></trkpt><trkpt lat="45.8965775" lon="11.5612165"><ele>1080.0</ele><time>2026-04-26T11:39:58.596Z</time></trkpt><trkpt lat="45.8966617" lon="11.5611972"><ele>1080.0</ele><time>2026-04-26T11:39:59.599Z</time></trkpt><trkpt lat="45.8967537" lon="11.5612103"><ele>1080.0</ele><time>2026-04-26T11:40:00.599Z</time></trkpt><trkpt lat="45.8968444" lon="11.5612682"><ele>1080.0</ele><time>2026-04-26T11:40:01.59Z</time></trkpt><trkpt lat="45.896935" lon="11.5613738"><ele>1084.5</ele><time>2026-04-26T11:40:02.6Z</time></trkpt><trkpt lat="45.8970093" lon="11.5615121"><ele>1089.0</ele><time>2026-04-26T11:40:03.586Z</time></trkpt><trkpt lat="45.8970856" lon="11.5616615"><ele>1093.5</ele><time>2026-04-26T11:40:04.588Z</time></trkpt><trkpt lat="45.8971697" lon="11.5618181"><ele>1098.0</ele><time>2026-04-26T11:40:05.599Z</time></trkpt><trkpt lat="45.8972594" lon="11.5619619"><ele>1098.25</ele><time>2026-04-26T11:40:06.601Z</time></trkpt><trkpt lat="45.89735" lon="11.5620862"><ele>1098.5</ele><time>2026-04-26T11:40:07.603Z</time></trkpt><trkpt lat="45.8974577" lon="11.5622121"><ele>1098.75</ele><time>2026-04-26T11:40:08.601Z</time></trkpt><trkpt lat="45.8975884" lon="11.5623287"><ele>1099.0</ele><time>2026-04-26T11:40:09.59Z</time></trkpt><trkpt lat="45.8977525" lon="11.5624478"><ele>1099.0</ele><time>2026-04-26T11:40:10.61Z</time></trkpt><trkpt lat="45.8979203" lon="11.5625761"><ele>1099.0</ele><time>2026-04-26T11:40:11.598Z</time></trkpt><trkpt lat="45.8980561" lon="11.5627133"><ele>1099.0</ele><time>2026-04-26T11:40:12.595Z</time></trkpt><trkpt lat="45.8981697" lon="11.5628467"><ele>1100.75</ele><time>2026-04-26T11:40:13.608Z</time></trkpt><trkpt lat="45.8982729" lon="11.5629596"><ele>1102.5</ele><time>2026-04-26T11:40:14.598Z</time></trkpt><trkpt lat="45.8983654" lon="11.5630905"><ele>1104.25</ele><time>2026-04-26T11:40:15.606Z</time></trkpt><trkpt lat="45.8984529" lon="11.5632403"><ele>1106.0</ele><time>2026-04-26T11:40:16.598Z</time></trkpt><trkpt lat="45.898542" lon="11.5634029"><ele>1106.0</ele><time>2026-04-26T11:40:17.594Z</time></trkpt><trkpt lat="45.8986247" lon="11.5635947"><ele>1106.0</ele><time>2026-04-26T11:40:18.601Z</time></trkpt><trkpt lat="45.8987196" lon="11.5637965"><ele>1106.0</ele><time>2026-04-26T11:40:19.599Z</time></trkpt><trkpt lat="45.8988079" lon="11.5639789"><ele>1102.5</ele><time>2026-04-26T11:40:20.588Z</time></trkpt><trkpt lat="45.8988909" lon="11.5641504"><ele>1099.0</ele><time>2026-04-26T11:40:21.587Z</time></trkpt><trkpt lat="45.8989714" lon="11.5642966"><ele>1095.5</ele><time>2026-04-26T11:40:22.594Z</time></trkpt><trkpt lat="45.8990308" lon="11.5644241"><ele>1092.0</ele><time>2026-04-26T11:40:23.593Z</time></trkpt><trkpt lat="45.8990704" lon="11.5645747"><ele>1091.2</ele><time>2026-04-26T11:40:24.592Z</time></trkpt><trkpt lat="45.8990782" lon="11.5647349"><ele>1090.4</ele><time>2026-04-26T11:40:25.59Z</time></trkpt><trkpt lat="45.8990452" lon="11.5648725"><ele>1089.6</ele><time>2026-04-26T11:40:26.595Z</time></trkpt><trkpt lat="45.8989893" lon="11.5649973"><ele>1088.8</ele><time>2026-04-26T11:40:27.592Z</time></trkpt><trkpt lat="45.8989015" lon="11.5651135"><ele>1088.0</ele><time>2026-04-26T11:40:28.596Z</time></trkpt><trkpt lat="45.8987903" lon="11.565208"><ele>1088.0</ele><time>2026-04-26T11:40:29.591Z</time></trkpt><trkpt lat="45.898659" lon="11.5652623"><ele>1088.0</ele><time>2026-04-26T11:40:30.599Z</time></trkpt><trkpt lat="45.8985176" lon="11.5653144"><ele>1088.0</ele><time>2026-04-26T11:40:31.587Z</time></trkpt><trkpt lat="45.8983914" lon="11.5653698"><ele>1088.0</ele><time>2026-04-26T11:40:32.606Z</time></trkpt><trkpt lat="45.8982573" lon="11.5654093"><ele>1088.0</ele><time>2026-04-26T11:40:33.592Z</time></trkpt><trkpt lat="45.8981176" lon="11.5654382"><ele>1088.0</ele><time>2026-04-26T11:40:34.577Z</time></trkpt><trkpt lat="45.8979745" lon="11.5654601"><ele>1088.0</ele><time>2026-04-26T11:40:35.601Z</time></trkpt><trkpt lat="45.8978414" lon="11.5655062"><ele>1088.0</ele><time>2026-04-26T11:40:36.59Z</time></trkpt><trkpt lat="45.8977318" lon="11.5655826"><ele>1088.0</ele><time>2026-04-26T11:40:37.605Z</time></trkpt><trkpt lat="45.8976329" lon="11.5656692"><ele>1088.0</ele><time>2026-04-26T11:40:38.589Z</time></trkpt><trkpt lat="45.8975476" lon="11.5657577"><ele>1088.0</ele><time>2026-04-26T11:40:39.591Z</time></trkpt><trkpt lat="45.8974637" lon="11.5658413"><ele>1088.0</ele><time>2026-04-26T11:40:40.596Z</time></trkpt><trkpt lat="45.8973834" lon="11.5659169"><ele>1088.0</ele><time>2026-04-26T11:40:41.594Z</time></trkpt><trkpt lat="45.8973259" lon="11.5659916"><ele>1083.6666666666667</ele><time>2026-04-26T11:40:42.603Z</time></trkpt><trkpt lat="45.8972978" lon="11.5660964"><ele>1079.3333333333335</ele><time>2026-04-26T11:40:43.603Z</time></trkpt><trkpt lat="45.8972953" lon="11.5662098"><ele>1075.0</ele><time>2026-04-26T11:40:44.597Z</time></trkpt><trkpt lat="45.8973209" lon="11.5663301"><ele>1070.6666666666667</ele><time>2026-04-26T11:40:45.591Z</time></trkpt><trkpt lat="45.8973777" lon="11.5664411"><ele>1066.3333333333333</ele><time>2026-04-26T11:40:46.6Z</time></trkpt><trkpt lat="45.8974453" lon="11.5665345"><ele>1062.0</ele><time>2026-04-26T11:40:47.596Z</time></trkpt><trkpt lat="45.8975181" lon="11.5666081"><ele>1067.8333333333333</ele><time>2026-04-26T11:40:48.594Z</time></trkpt><trkpt lat="45.8975931" lon="11.5666673"><ele>1073.6666666666667</ele><time>2026-04-26T11:40:49.61Z</time></trkpt><trkpt lat="45.8976526" lon="11.5667426"><ele>1079.5</ele><time>2026-04-26T11:40:50.606Z</time></trkpt><trkpt lat="45.8976898" lon="11.5668376"><ele>1085.3333333333335</ele><time>2026-04-26T11:40:51.593Z</time></trkpt><trkpt lat="45.8977023" lon="11.5669448"><ele>1091.1666666666667</ele><time>2026-04-26T11:40:52.601Z</time></trkpt><trkpt lat="45.8976789" lon="11.5670475"><ele>1097.0</ele><time>2026-04-26T11:40:53.599Z</time></trkpt><trkpt lat="45.8976165" lon="11.5671399"><ele>1093.75</ele><time>2026-04-26T11:40:54.592Z</time></trkpt><trkpt lat="45.8975113" lon="11.5672109"><ele>1090.5</ele><time>2026-04-26T11:40:55.604Z</time></trkpt><trkpt lat="45.8973868" lon="11.5672534"><ele>1087.25</ele><time>2026-04-26T11:40:56.591Z</time></trkpt><trkpt lat="45.8972611" lon="11.5672901"><ele>1084.0</ele><time>2026-04-26T11:40:57.593Z</time></trkpt><trkpt lat="45.8971331" lon="11.5673368"><ele>1084.0</ele><time>2026-04-26T11:40:58.601Z</time></trkpt><trkpt lat="45.8970067" lon="11.5673839"><ele>1084.0</ele><time>2026-04-26T11:40:59.595Z</time></trkpt><trkpt lat="45.8968792" lon="11.5674181"><ele>1084.0</ele><time>2026-04-26T11:41:00.606Z</time></trkpt><trkpt lat="45.8967576" lon="11.5674341"><ele>1084.0</ele><time>2026-04-26T11:41:01.59Z</time></trkpt><trkpt lat="45.896635" lon="11.5674249"><ele>1080.5</ele><time>2026-04-26T11:41:02.594Z</time></trkpt><trkpt lat="45.8965174" lon="11.5673889"><ele>1077.0</ele><time>2026-04-26T11:41:03.598Z</time></trkpt><trkpt lat="45.8964067" lon="11.567343"><ele>1073.5</ele><time>2026-04-26T11:41:04.595Z</time></trkpt><trkpt lat="45.8962974" lon="11.5673166"><ele>1070.0</ele><time>2026-04-26T11:41:05.604Z</time></trkpt><trkpt lat="45.89618" lon="11.5673218"><ele>1070.0</ele><time>2026-04-26T11:41:06.589Z</time></trkpt><trkpt lat="45.8960588" lon="11.5673737"><ele>1070.0</ele><time>2026-04-26T11:41:07.606Z</time></trkpt><trkpt lat="45.8959203" lon="11.5674905"><ele>1070.0</ele><time>2026-04-26T11:41:08.595Z</time></trkpt><trkpt lat="45.895733" lon="11.5676137"><ele>1067.6666666666667</ele><time>2026-04-26T11:41:09.592Z</time></trkpt><trkpt lat="45.8955561" lon="11.5676723"><ele>1065.3333333333333</ele><time>2026-04-26T11:41:10.588Z</time></trkpt><trkpt lat="45.8953906" lon="11.5677264"><ele>1063.0</ele><time>2026-04-26T11:41:11.593Z</time></trkpt><trkpt lat="45.8952336" lon="11.5677338"><ele>1064.3333333333333</ele><time>2026-04-26T11:41:12.597Z</time></trkpt><trkpt lat="45.8950776" lon="11.5676881"><ele>1065.6666666666667</ele><time>2026-04-26T11:41:13.592Z</time></trkpt><trkpt lat="45.8949386" lon="11.5675943"><ele>1067.0</ele><time>2026-04-26T11:41:14.593Z</time></trkpt><trkpt lat="45.8948113" lon="11.5674619"><ele>1067.0</ele><time>2026-04-26T11:41:15.598Z</time></trkpt><trkpt lat="45.8946922" lon="11.5673359"><ele>1067.0</ele><time>2026-04-26T11:41:16.592Z</time></trkpt><trkpt lat="45.894583" lon="11.5672719"><ele>1067.0</ele><time>2026-04-26T11:41:17.595Z</time></trkpt><trkpt lat="45.8944631" lon="11.5672272"><ele>1067.0</ele><time>2026-04-26T11:41:18.611Z</time></trkpt><trkpt lat="45.8943271" lon="11.5671937"><ele>1068.0</ele><time>2026-04-26T11:41:19.592Z</time></trkpt><trkpt lat="45.8941776" lon="11.5672023"><ele>1069.0</ele><time>2026-04-26T11:41:20.597Z</time></trkpt><trkpt lat="45.894039" lon="11.5672197"><ele>1070.0</ele><time>2026-04-26T11:41:21.595Z</time></trkpt><trkpt lat="45.8939086" lon="11.5672474"><ele>1071.0</ele><time>2026-04-26T11:41:22.604Z</time></trkpt><trkpt lat="45.8937878" lon="11.5672886"><ele>1071.0</ele><time>2026-04-26T11:41:23.596Z</time></trkpt><trkpt lat="45.8936618" lon="11.5673613"><ele>1071.0</ele><time>2026-04-26T11:41:24.614Z</time></trkpt><trkpt lat="45.8935572" lon="11.5674678"><ele>1071.0</ele><time>2026-04-26T11:41:25.595Z</time></trkpt><trkpt lat="45.8934741" lon="11.5676224"><ele>1071.0</ele><time>2026-04-26T11:41:26.598Z</time></trkpt><trkpt lat="45.8934131" lon="11.5678175"><ele>1063.3333333333333</ele><time>2026-04-26T11:41:27.596Z</time></trkpt><trkpt lat="45.8933342" lon="11.5680743"><ele>1055.6666666666665</ele><time>2026-04-26T11:41:28.598Z</time></trkpt><trkpt lat="45.8932248" lon="11.5683604"><ele>1048.0</ele><time>2026-04-26T11:41:29.597Z</time></trkpt><trkpt lat="45.8930813" lon="11.5686686"><ele>1052.0</ele><time>2026-04-26T11:41:30.596Z</time></trkpt><trkpt lat="45.8929455" lon="11.5689445"><ele>1056.0</ele><time>2026-04-26T11:41:31.601Z</time></trkpt><trkpt lat="45.8928391" lon="11.5692093"><ele>1060.0</ele><time>2026-04-26T11:41:32.604Z</time></trkpt><trkpt lat="45.8927473" lon="11.5694623"><ele>1063.6666666666665</ele><time>2026-04-26T11:41:33.604Z</time></trkpt><trkpt lat="45.8926824" lon="11.5697098"><ele>1067.3333333333333</ele><time>2026-04-26T11:41:34.605Z</time></trkpt><trkpt lat="45.8926256" lon="11.5699531"><ele>1071.0</ele><time>2026-04-26T11:41:35.603Z</time></trkpt><trkpt lat="45.8925703" lon="11.5701981"><ele>1062.0</ele><time>2026-04-26T11:41:36.601Z</time></trkpt><trkpt lat="45.8925272" lon="11.5704412"><ele>1053.0</ele><time>2026-04-26T11:41:37.606Z</time></trkpt><trkpt lat="45.8925038" lon="11.5706747"><ele>1044.0</ele><time>2026-04-26T11:41:38.596Z</time></trkpt><trkpt lat="45.8925076" lon="11.5709175"><ele>1044.0</ele><time>2026-04-26T11:41:39.59Z</time></trkpt><trkpt lat="45.8925294" lon="11.5711557"><ele>1044.0</ele><time>2026-04-26T11:41:40.595Z</time></trkpt><trkpt lat="45.8925831" lon="11.5713962"><ele>1044.0</ele><time>2026-04-26T11:41:41.6Z</time></trkpt><trkpt lat="45.8926327" lon="11.5716259"><ele>1044.5</ele><time>2026-04-26T11:41:42.601Z</time></trkpt><trkpt lat="45.8926697" lon="11.5718441"><ele>1045.0</ele><time>2026-04-26T11:41:43.597Z</time></trkpt><trkpt lat="45.8926667" lon="11.5720424"><ele>1045.5</ele><time>2026-04-26T11:41:44.609Z</time></trkpt><trkpt lat="45.8926274" lon="11.5722343"><ele>1046.0</ele><time>2026-04-26T11:41:45.6Z</time></trkpt><trkpt lat="45.8925575" lon="11.5724147"><ele>1046.0</ele><time>2026-04-26T11:41:46.605Z</time></trkpt><trkpt lat="45.8924638" lon="11.5725712"><ele>1046.0</ele><time>2026-04-26T11:41:47.59Z</time></trkpt><trkpt lat="45.8923602" lon="11.5727373"><ele>1046.0</ele><time>2026-04-26T11:41:48.606Z</time></trkpt><trkpt lat="45.8922611" lon="11.5729232"><ele>1050.0</ele><time>2026-04-26T11:41:49.598Z</time></trkpt><trkpt lat="45.8921924" lon="11.573127"><ele>1054.0</ele><time>2026-04-26T11:41:50.596Z</time></trkpt><trkpt lat="45.8921354" lon="11.5733309"><ele>1058.0</ele><time>2026-04-26T11:41:51.599Z</time></trkpt><trkpt lat="45.8920911" lon="11.5735227"><ele>1058.2</ele><time>2026-04-26T11:41:52.594Z</time></trkpt><trkpt lat="45.8920607" lon="11.573696"><ele>1058.4</ele><time>2026-04-26T11:41:53.598Z</time></trkpt><trkpt lat="45.8920681" lon="11.5738476"><ele>1058.6000000000001</ele><time>2026-04-26T11:41:54.59Z</time></trkpt><trkpt lat="45.8920912" lon="11.5739902"><ele>1058.8</ele><time>2026-04-26T11:41:55.6Z</time></trkpt><trkpt lat="45.8921407" lon="11.5741307"><ele>1059.0</ele><time>2026-04-26T11:41:56.607Z</time></trkpt><trkpt lat="45.8921973" lon="11.5742729"><ele>1059.0</ele><time>2026-04-26T11:41:57.584Z</time></trkpt><trkpt lat="45.8922561" lon="11.5744254"><ele>1059.0</ele><time>2026-04-26T11:41:58.592Z</time></trkpt><trkpt lat="45.8923082" lon="11.5745916"><ele>1059.0</ele><time>2026-04-26T11:41:59.599Z</time></trkpt><trkpt lat="45.8923548" lon="11.5747672"><ele>1059.0</ele><time>2026-04-26T11:42:00.6Z</time></trkpt><trkpt lat="45.8923661" lon="11.5749682"><ele>1059.0</ele><time>2026-04-26T11:42:01.601Z</time></trkpt><trkpt lat="45.8923449" lon="11.5751693"><ele>1059.0</ele><time>2026-04-26T11:42:02.599Z</time></trkpt><trkpt lat="45.8922899" lon="11.5753711"><ele>1059.0</ele><time>2026-04-26T11:42:03.608Z</time></trkpt><trkpt lat="45.8922328" lon="11.5755772"><ele>1059.0</ele><time>2026-04-26T11:42:04.6Z</time></trkpt><trkpt lat="45.8921877" lon="11.5757887"><ele>1059.0</ele><time>2026-04-26T11:42:05.602Z</time></trkpt><trkpt lat="45.8921681" lon="11.5759951"><ele>1059.0</ele><time>2026-04-26T11:42:06.598Z</time></trkpt><trkpt lat="45.8921792" lon="11.5761865"><ele>1059.0</ele><time>2026-04-26T11:42:07.605Z</time></trkpt><trkpt lat="45.8922386" lon="11.5763736"><ele>1059.0</ele><time>2026-04-26T11:42:08.597Z</time></trkpt><trkpt lat="45.8923473" lon="11.5765579"><ele>1056.6666666666667</ele><time>2026-04-26T11:42:09.615Z</time></trkpt><trkpt lat="45.8924677" lon="11.5767444"><ele>1054.3333333333335</ele><time>2026-04-26T11:42:10.602Z</time></trkpt><trkpt lat="45.8925704" lon="11.5769539"><ele>1052.0</ele><time>2026-04-26T11:42:11.594Z</time></trkpt><trkpt lat="45.8926369" lon="11.5772335"><ele>1065.0</ele><time>2026-04-26T11:42:12.603Z</time></trkpt><trkpt lat="45.892669" lon="11.5775455"><ele>1078.0</ele><time>2026-04-26T11:42:13.618Z</time></trkpt><trkpt lat="45.8926718" lon="11.5777967"><ele>1091.0</ele><time>2026-04-26T11:42:14.597Z</time></trkpt><trkpt lat="45.8926603" lon="11.5779838"><ele>1093.5</ele><time>2026-04-26T11:42:15.602Z</time></trkpt><trkpt lat="45.892638" lon="11.578138"><ele>1096.0</ele><time>2026-04-26T11:42:16.589Z</time></trkpt><trkpt lat="45.8925527" lon="11.5782317"><ele>1098.5</ele><time>2026-04-26T11:42:17.605Z</time></trkpt><trkpt lat="45.8924042" lon="11.5782708"><ele>1101.0</ele><time>2026-04-26T11:42:18.605Z</time></trkpt><trkpt lat="45.8922288" lon="11.5783087"><ele>1094.5</ele><time>2026-04-26T11:42:19.605Z</time></trkpt><trkpt lat="45.8920817" lon="11.578378"><ele>1088.0</ele><time>2026-04-26T11:42:20.596Z</time></trkpt><trkpt lat="45.8919797" lon="11.5784739"><ele>1081.5</ele><time>2026-04-26T11:42:21.609Z</time></trkpt><trkpt lat="45.8919197" lon="11.5786311"><ele>1075.0</ele><time>2026-04-26T11:42:22.6Z</time></trkpt><trkpt lat="45.8918856" lon="11.5788491"><ele>1075.0</ele><time>2026-04-26T11:42:23.597Z</time></trkpt><trkpt lat="45.8918505" lon="11.5790822"><ele>1075.0</ele><time>2026-04-26T11:42:24.6Z</time></trkpt><trkpt lat="45.8918111" lon="11.5792932"><ele>1075.0</ele><time>2026-04-26T11:42:25.593Z</time></trkpt><trkpt lat="45.8917508" lon="11.5794567"><ele>1075.0</ele><time>2026-04-26T11:42:26.604Z</time></trkpt><trkpt lat="45.8916689" lon="11.5796023"><ele>1068.4</ele><time>2026-04-26T11:42:27.6Z</time></trkpt><trkpt lat="45.8915926" lon="11.5797191"><ele>1061.8</ele><time>2026-04-26T11:42:28.583Z</time></trkpt><trkpt lat="45.8915461" lon="11.579839"><ele>1055.2</ele><time>2026-04-26T11:42:29.594Z</time></trkpt><trkpt lat="45.8915314" lon="11.5799671"><ele>1048.6</ele><time>2026-04-26T11:42:30.59Z</time></trkpt><trkpt lat="45.8915265" lon="11.5801055"><ele>1042.0</ele><time>2026-04-26T11:42:31.6Z</time></trkpt><trkpt lat="45.8915317" lon="11.5802472"><ele>1040.75</ele><time>2026-04-26T11:42:32.595Z</time></trkpt><trkpt lat="45.8915851" lon="11.5803974"><ele>1039.5</ele><time>2026-04-26T11:42:33.594Z</time></trkpt><trkpt lat="45.8916737" lon="11.5805383"><ele>1038.25</ele><time>2026-04-26T11:42:34.601Z</time></trkpt><trkpt lat="45.8917622" lon="11.5806852"><ele>1037.0</ele><time>2026-04-26T11:42:35.595Z</time></trkpt><trkpt lat="45.8918445" lon="11.5808412"><ele>1043.0</ele><time>2026-04-26T11:42:36.6Z</time></trkpt><trkpt lat="45.8919147" lon="11.5810214"><ele>1049.0</ele><time>2026-04-26T11:42:37.597Z</time></trkpt><trkpt lat="45.8919814" lon="11.5812314"><ele>1055.0</ele><time>2026-04-26T11:42:38.597Z</time></trkpt><trkpt lat="45.8920459" lon="11.5814583"><ele>1055.0</ele><time>2026-04-26T11:42:39.596Z</time></trkpt><trkpt lat="45.8921188" lon="11.5817017"><ele>1055.0</ele><time>2026-04-26T11:42:40.598Z</time></trkpt><trkpt lat="45.8922013" lon="11.581959"><ele>1055.0</ele><time>2026-04-26T11:42:41.586Z</time></trkpt><trkpt lat="45.8922796" lon="11.5822111"><ele>1050.6666666666667</ele><time>2026-04-26T11:42:42.597Z</time></trkpt><trkpt lat="45.8923606" lon="11.5824562"><ele>1046.3333333333333</ele><time>2026-04-26T11:42:43.603Z</time></trkpt><trkpt lat="45.8924422" lon="11.5826962"><ele>1042.0</ele><time>2026-04-26T11:42:44.601Z</time></trkpt><trkpt lat="45.8925119" lon="11.5829201"><ele>1042.75</ele><time>2026-04-26T11:42:45.599Z</time></trkpt><trkpt lat="45.8925784" lon="11.5831268"><ele>1043.5</ele><time>2026-04-26T11:42:46.603Z</time></trkpt><trkpt lat="45.8926413" lon="11.5833198"><ele>1044.25</ele><time>2026-04-26T11:42:47.601Z</time></trkpt><trkpt lat="45.8927104" lon="11.5834878"><ele>1045.0</ele><time>2026-04-26T11:42:48.592Z</time></trkpt><trkpt lat="45.8927887" lon="11.5836152"><ele>1041.75</ele><time>2026-04-26T11:42:49.598Z</time></trkpt><trkpt lat="45.8928902" lon="11.5837014"><ele>1038.5</ele><time>2026-04-26T11:42:50.606Z</time></trkpt><trkpt lat="45.8930106" lon="11.5837488"><ele>1035.25</ele><time>2026-04-26T11:42:51.593Z</time></trkpt><trkpt lat="45.8931313" lon="11.5837576"><ele>1032.0</ele><time>2026-04-26T11:42:52.595Z</time></trkpt><trkpt lat="45.8932712" lon="11.5837806"><ele>1032.0</ele><time>2026-04-26T11:42:53.599Z</time></trkpt><trkpt lat="45.8934165" lon="11.5838395"><ele>1032.0</ele><time>2026-04-26T11:42:54.605Z</time></trkpt><trkpt lat="45.8935231" lon="11.5839509"><ele>1032.0</ele><time>2026-04-26T11:42:55.615Z</time></trkpt><trkpt lat="45.8935953" lon="11.5840984"><ele>1032.0</ele><time>2026-04-26T11:42:56.596Z</time></trkpt><trkpt lat="45.893653" lon="11.5843"><ele>1041.0</ele><time>2026-04-26T11:42:57.608Z</time></trkpt><trkpt lat="45.8936905" lon="11.5845479"><ele>1050.0</ele><time>2026-04-26T11:42:58.598Z</time></trkpt><trkpt lat="45.8937248" lon="11.5848248"><ele>1059.0</ele><time>2026-04-26T11:42:59.586Z</time></trkpt><trkpt lat="45.8937639" lon="11.5851053"><ele>1055.0</ele><time>2026-04-26T11:43:00.602Z</time></trkpt><trkpt lat="45.8938021" lon="11.5853784"><ele>1051.0</ele><time>2026-04-26T11:43:01.591Z</time></trkpt><trkpt lat="45.8938438" lon="11.5856542"><ele>1047.0</ele><time>2026-04-26T11:43:02.605Z</time></trkpt><trkpt lat="45.8938857" lon="11.5859281"><ele>1042.0</ele><time>2026-04-26T11:43:03.6Z</time></trkpt><trkpt lat="45.8939293" lon="11.5861981"><ele>1037.0</ele><time>2026-04-26T11:43:04.594Z</time></trkpt><trkpt lat="45.8939813" lon="11.586451"><ele>1032.0</ele><time>2026-04-26T11:43:05.602Z</time></trkpt><trkpt lat="45.894048" lon="11.5866904"><ele>1032.0</ele><time>2026-04-26T11:43:06.595Z</time></trkpt><trkpt lat="45.8941333" lon="11.586925"><ele>1032.0</ele><time>2026-04-26T11:43:07.605Z</time></trkpt><trkpt lat="45.8942318" lon="11.5871406"><ele>1032.0</ele><time>2026-04-26T11:43:08.601Z</time></trkpt><trkpt lat="45.8943325" lon="11.5873427"><ele>1033.3333333333333</ele><time>2026-04-26T11:43:09.589Z</time></trkpt><trkpt lat="45.8944359" lon="11.5875236"><ele>1034.6666666666665</ele><time>2026-04-26T11:43:10.594Z</time></trkpt><trkpt lat="45.8945352" lon="11.5877054"><ele>1036.0</ele><time>2026-04-26T11:43:11.606Z</time></trkpt><trkpt lat="45.8946082" lon="11.587897"><ele>1036.0</ele><time>2026-04-26T11:43:12.607Z</time></trkpt><trkpt lat="45.8946558" lon="11.5881126"><ele>1036.0</ele><time>2026-04-26T11:43:13.601Z</time></trkpt><trkpt lat="45.8946843" lon="11.5883564"><ele>1036.0</ele><time>2026-04-26T11:43:14.596Z</time></trkpt><trkpt lat="45.8947143" lon="11.5885873"><ele>1036.6666666666665</ele><time>2026-04-26T11:43:15.599Z</time></trkpt><trkpt lat="45.894729" lon="11.5888264"><ele>1037.3333333333333</ele><time>2026-04-26T11:43:16.604Z</time></trkpt><trkpt lat="45.8947305" lon="11.5890715"><ele>1038.0</ele><time>2026-04-26T11:43:17.601Z</time></trkpt><trkpt lat="45.8947128" lon="11.5893116"><ele>1038.6666666666667</ele><time>2026-04-26T11:43:18.604Z</time></trkpt><trkpt lat="45.8946882" lon="11.5895676"><ele>1039.3333333333335</ele><time>2026-04-26T11:43:19.609Z</time></trkpt><trkpt lat="45.8946807" lon="11.5898421"><ele>1040.0</ele><time>2026-04-26T11:43:20.601Z</time></trkpt><trkpt lat="45.8946804" lon="11.5901146"><ele>1039.6666666666667</ele><time>2026-04-26T11:43:21.606Z</time></trkpt><trkpt lat="45.8946793" lon="11.5903887"><ele>1039.3333333333333</ele><time>2026-04-26T11:43:22.595Z</time></trkpt><trkpt lat="45.8946786" lon="11.5906662"><ele>1039.0</ele><time>2026-04-26T11:43:23.608Z</time></trkpt><trkpt lat="45.8946809" lon="11.5909434"><ele>1037.6666666666665</ele><time>2026-04-26T11:43:24.596Z</time></trkpt><trkpt lat="45.8946837" lon="11.5912076"><ele>1036.3333333333333</ele><time>2026-04-26T11:43:25.598Z</time></trkpt><trkpt lat="45.8946866" lon="11.5914562"><ele>1035.0</ele><time>2026-04-26T11:43:26.615Z</time></trkpt><trkpt lat="45.8946906" lon="11.5916828"><ele>1035.0</ele><time>2026-04-26T11:43:27.595Z</time></trkpt><trkpt lat="45.8946965" lon="11.5919015"><ele>1035.0</ele><time>2026-04-26T11:43:28.61Z</time></trkpt><trkpt lat="45.8947038" lon="11.5921046"><ele>1035.0</ele><time>2026-04-26T11:43:29.598Z</time></trkpt><trkpt lat="45.8947148" lon="11.5923036"><ele>1035.0</ele><time>2026-04-26T11:43:30.592Z</time></trkpt><trkpt lat="45.8947319" lon="11.5924967"><ele>1034.5</ele><time>2026-04-26T11:43:31.608Z</time></trkpt><trkpt lat="45.8947587" lon="11.5926776"><ele>1034.0</ele><time>2026-04-26T11:43:32.594Z</time></trkpt><trkpt lat="45.8948051" lon="11.5928623"><ele>1033.5</ele><time>2026-04-26T11:43:33.596Z</time></trkpt><trkpt lat="45.8948649" lon="11.5930533"><ele>1033.0</ele><time>2026-04-26T11:43:34.595Z</time></trkpt><trkpt lat="45.8949249" lon="11.5932377"><ele>1030.5</ele><time>2026-04-26T11:43:35.605Z</time></trkpt><trkpt lat="45.8949818" lon="11.5934199"><ele>1028.0</ele><time>2026-04-26T11:43:36.593Z</time></trkpt><trkpt lat="45.8950332" lon="11.5935979"><ele>1025.5</ele><time>2026-04-26T11:43:37.597Z</time></trkpt><trkpt lat="45.8950723" lon="11.5937788"><ele>1023.0</ele><time>2026-04-26T11:43:38.594Z</time></trkpt><trkpt lat="45.8950961" lon="11.5939561"><ele>1021.5</ele><time>2026-04-26T11:43:39.6Z</time></trkpt><trkpt lat="45.8950867" lon="11.5941583"><ele>1020.0</ele><time>2026-04-26T11:43:40.586Z</time></trkpt><trkpt lat="45.8950639" lon="11.5943634"><ele>1018.5</ele><time>2026-04-26T11:43:41.597Z</time></trkpt><trkpt lat="45.8950356" lon="11.5945546"><ele>1017.0</ele><time>2026-04-26T11:43:42.591Z</time></trkpt><trkpt lat="45.89501" lon="11.5947421"><ele>1016.75</ele><time>2026-04-26T11:43:43.606Z</time></trkpt><trkpt lat="45.895003" lon="11.5949379"><ele>1016.5</ele><time>2026-04-26T11:43:44.592Z</time></trkpt><trkpt lat="45.8950125" lon="11.5951406"><ele>1016.25</ele><time>2026-04-26T11:43:45.6Z</time></trkpt><trkpt lat="45.8950474" lon="11.5953441"><ele>1016.0</ele><time>2026-04-26T11:43:46.596Z</time></trkpt><trkpt lat="45.8950951" lon="11.5955403"><ele>1027.3333333333335</ele><time>2026-04-26T11:43:47.59Z</time></trkpt><trkpt lat="45.8951606" lon="11.595736"><ele>1038.6666666666667</ele><time>2026-04-26T11:43:48.594Z</time></trkpt><trkpt lat="45.8952252" lon="11.5959376"><ele>1050.0</ele><time>2026-04-26T11:43:49.598Z</time></trkpt><trkpt lat="45.8952903" lon="11.5961387"><ele>1046.75</ele><time>2026-04-26T11:43:50.6Z</time></trkpt><trkpt lat="45.8953519" lon="11.59633"><ele>1043.5</ele><time>2026-04-26T11:43:51.602Z</time></trkpt><trkpt lat="45.8953994" lon="11.5965184"><ele>1040.25</ele><time>2026-04-26T11:43:52.598Z</time></trkpt><trkpt lat="45.8954345" lon="11.5967159"><ele>1037.0</ele><time>2026-04-26T11:43:53.599Z</time></trkpt><trkpt lat="45.8954595" lon="11.5969356"><ele>1035.3333333333335</ele><time>2026-04-26T11:43:54.602Z</time></trkpt><trkpt lat="45.8954694" lon="11.5971703"><ele>1033.6666666666667</ele><time>2026-04-26T11:43:55.603Z</time></trkpt><trkpt lat="45.8954707" lon="11.5974149"><ele>1032.0</ele><time>2026-04-26T11:43:56.601Z</time></trkpt><trkpt lat="45.895469" lon="11.5976587"><ele>1033.0</ele><time>2026-04-26T11:43:57.598Z</time></trkpt><trkpt lat="45.8954665" lon="11.5978968"><ele>1034.0</ele><time>2026-04-26T11:43:58.595Z</time></trkpt><trkpt lat="45.8954638" lon="11.5981313"><ele>1035.0</ele><time>2026-04-26T11:43:59.598Z</time></trkpt><trkpt lat="45.8954546" lon="11.5983658"><ele>1035.0</ele><time>2026-04-26T11:44:00.595Z</time></trkpt><trkpt lat="45.8954381" lon="11.5986001"><ele>1035.0</ele><time>2026-04-26T11:44:01.615Z</time></trkpt><trkpt lat="45.8954106" lon="11.5988357"><ele>1035.0</ele><time>2026-04-26T11:44:02.597Z</time></trkpt><trkpt lat="45.8953766" lon="11.5990597"><ele>1035.25</ele><time>2026-04-26T11:44:03.6Z</time></trkpt><trkpt lat="45.8953263" lon="11.5992653"><ele>1035.5</ele><time>2026-04-26T11:44:04.604Z</time></trkpt><trkpt lat="45.8952887" lon="11.5994591"><ele>1035.75</ele><time>2026-04-26T11:44:05.593Z</time></trkpt><trkpt lat="45.8952444" lon="11.5996457"><ele>1036.0</ele><time>2026-04-26T11:44:06.594Z</time></trkpt><trkpt lat="45.8951984" lon="11.5998286"><ele>1035.25</ele><time>2026-04-26T11:44:07.603Z</time></trkpt><trkpt lat="45.8951587" lon="11.6000015"><ele>1034.5</ele><time>2026-04-26T11:44:08.598Z</time></trkpt><trkpt lat="45.8951248" lon="11.6001594"><ele>1033.75</ele><time>2026-04-26T11:44:09.6Z</time></trkpt><trkpt lat="45.8950985" lon="11.6003133"><ele>1033.0</ele><time>2026-04-26T11:44:10.584Z</time></trkpt><trkpt lat="45.8950873" lon="11.6004558"><ele>1028.6</ele><time>2026-04-26T11:44:11.604Z</time></trkpt><trkpt lat="45.8950984" lon="11.600592"><ele>1024.1999999999998</ele><time>2026-04-26T11:44:12.592Z</time></trkpt><trkpt lat="45.8951453" lon="11.6007189"><ele>1019.8</ele><time>2026-04-26T11:44:13.597Z</time></trkpt><trkpt lat="45.8952205" lon="11.6008367"><ele>1015.4</ele><time>2026-04-26T11:44:14.595Z</time></trkpt><trkpt lat="45.8953201" lon="11.6009105"><ele>1011.0</ele><time>2026-04-26T11:44:15.59Z</time></trkpt><trkpt lat="45.8954398" lon="11.600937"><ele>1011.0</ele><time>2026-04-26T11:44:16.599Z</time></trkpt><trkpt lat="45.8955656" lon="11.6009471"><ele>1011.0</ele><time>2026-04-26T11:44:17.594Z</time></trkpt><trkpt lat="45.8956918" lon="11.6009547"><ele>1011.0</ele><time>2026-04-26T11:44:18.595Z</time></trkpt><trkpt lat="45.8958115" lon="11.6009653"><ele>1011.0</ele><time>2026-04-26T11:44:19.599Z</time></trkpt><trkpt lat="45.8959314" lon="11.6009775"><ele>1012.5999999999999</ele><time>2026-04-26T11:44:20.593Z</time></trkpt><trkpt lat="45.8960405" lon="11.6010144"><ele>1014.1999999999999</ele><time>2026-04-26T11:44:21.611Z</time></trkpt><trkpt lat="45.8961264" lon="11.6010875"><ele>1015.8000000000001</ele><time>2026-04-26T11:44:22.596Z</time></trkpt><trkpt lat="45.8961893" lon="11.6012098"><ele>1017.4000000000001</ele><time>2026-04-26T11:44:23.606Z</time></trkpt><trkpt lat="45.89622" lon="11.6013734"><ele>1019.0</ele><time>2026-04-26T11:44:24.592Z</time></trkpt><trkpt lat="45.8962333" lon="11.6015479"><ele>1019.0</ele><time>2026-04-26T11:44:25.597Z</time></trkpt><trkpt lat="45.8962121" lon="11.60171"><ele>1019.0</ele><time>2026-04-26T11:44:26.585Z</time></trkpt><trkpt lat="45.8961622" lon="11.601923"><ele>1019.0</ele><time>2026-04-26T11:44:27.602Z</time></trkpt><trkpt lat="45.8960795" lon="11.6021511"><ele>1031.0</ele><time>2026-04-26T11:44:28.584Z</time></trkpt><trkpt lat="45.8959732" lon="11.602456"><ele>1043.0</ele><time>2026-04-26T11:44:29.602Z</time></trkpt><trkpt lat="45.8958503" lon="11.6028205"><ele>1026.5</ele><time>2026-04-26T11:44:30.595Z</time></trkpt><trkpt lat="45.8957225" lon="11.6032"><ele>1010.0</ele><time>2026-04-26T11:44:31.602Z</time></trkpt><trkpt lat="45.8956168" lon="11.6035557"><ele>1020.6666666666667</ele><time>2026-04-26T11:44:32.601Z</time></trkpt><trkpt lat="45.8955273" lon="11.6038568"><ele>1031.3333333333333</ele><time>2026-04-26T11:44:33.593Z</time></trkpt><trkpt lat="45.8954216" lon="11.6041022"><ele>1042.0</ele><time>2026-04-26T11:44:34.596Z</time></trkpt><trkpt lat="45.8952821" lon="11.6043082"><ele>1030.5</ele><time>2026-04-26T11:44:35.602Z</time></trkpt><trkpt lat="45.8951055" lon="11.6045289"><ele>1019.0</ele><time>2026-04-26T11:44:36.59Z</time></trkpt><trkpt lat="45.8949161" lon="11.6047372"><ele>1019.0</ele><time>2026-04-26T11:44:37.6Z</time></trkpt><trkpt lat="45.8947536" lon="11.6049311"><ele>1019.0</ele><time>2026-04-26T11:44:38.596Z</time></trkpt><trkpt lat="45.8946483" lon="11.6051383"><ele>1019.0</ele><time>2026-04-26T11:44:39.598Z</time></trkpt><trkpt lat="45.8945877" lon="11.6053703"><ele>1024.6666666666667</ele><time>2026-04-26T11:44:40.6Z</time></trkpt><trkpt lat="45.8945644" lon="11.605624"><ele>1030.3333333333333</ele><time>2026-04-26T11:44:41.605Z</time></trkpt><trkpt lat="45.8945655" lon="11.6058955"><ele>1036.0</ele><time>2026-04-26T11:44:42.6Z</time></trkpt><trkpt lat="45.8945823" lon="11.6061972"><ele>1036.0</ele><time>2026-04-26T11:44:43.602Z</time></trkpt><trkpt lat="45.8946032" lon="11.6064953"><ele>1036.0</ele><time>2026-04-26T11:44:44.596Z</time></trkpt><trkpt lat="45.8946294" lon="11.6067684"><ele>1036.0</ele><time>2026-04-26T11:44:45.61Z</time></trkpt><trkpt lat="45.8946557" lon="11.6070267"><ele>1035.3333333333333</ele><time>2026-04-26T11:44:46.591Z</time></trkpt><trkpt lat="45.8946616" lon="11.6072787"><ele>1034.6666666666667</ele><time>2026-04-26T11:44:47.604Z</time></trkpt><trkpt lat="45.8946365" lon="11.6075225"><ele>1034.0</ele><time>2026-04-26T11:44:48.599Z</time></trkpt><trkpt lat="45.894582" lon="11.6077652"><ele>1034.6666666666667</ele><time>2026-04-26T11:44:49.601Z</time></trkpt><trkpt lat="45.8945506" lon="11.608012"><ele>1035.3333333333333</ele><time>2026-04-26T11:44:50.595Z</time></trkpt><trkpt lat="45.8945265" lon="11.6082631"><ele>1036.0</ele><time>2026-04-26T11:44:51.594Z</time></trkpt><trkpt lat="45.8945165" lon="11.6085239"><ele>1037.3333333333333</ele><time>2026-04-26T11:44:52.602Z</time></trkpt><trkpt lat="45.8945148" lon="11.6087746"><ele>1038.6666666666667</ele><time>2026-04-26T11:44:53.599Z</time></trkpt><trkpt lat="45.8945044" lon="11.6090079"><ele>1040.0</ele><time>2026-04-26T11:44:54.596Z</time></trkpt><trkpt lat="45.8944746" lon="11.6092434"><ele>1040.0</ele><time>2026-04-26T11:44:55.596Z</time></trkpt><trkpt lat="45.8944177" lon="11.6094792"><ele>1040.0</ele><time>2026-04-26T11:44:56.598Z</time></trkpt><trkpt lat="45.8943347" lon="11.6096934"><ele>1040.0</ele><time>2026-04-26T11:44:57.6Z</time></trkpt><trkpt lat="45.8942296" lon="11.6099026"><ele>1042.6666666666667</ele><time>2026-04-26T11:44:58.592Z</time></trkpt><trkpt lat="45.8941091" lon="11.6100922"><ele>1045.3333333333333</ele><time>2026-04-26T11:44:59.591Z</time></trkpt><trkpt lat="45.8939778" lon="11.610278"><ele>1048.0</ele><time>2026-04-26T11:45:00.591Z</time></trkpt><trkpt lat="45.893839" lon="11.6104623"><ele>1048.0</ele><time>2026-04-26T11:45:01.595Z</time></trkpt><trkpt lat="45.8936856" lon="11.6106203"><ele>1048.0</ele><time>2026-04-26T11:45:02.585Z</time></trkpt><trkpt lat="45.8935281" lon="11.6107634"><ele>1048.0</ele><time>2026-04-26T11:45:03.591Z</time></trkpt><trkpt lat="45.8933664" lon="11.6108902"><ele>1038.3333333333333</ele><time>2026-04-26T11:45:04.592Z</time></trkpt><trkpt lat="45.8932003" lon="11.6110076"><ele>1028.6666666666667</ele><time>2026-04-26T11:45:05.598Z</time></trkpt><trkpt lat="45.8930329" lon="11.611093"><ele>1019.0</ele><time>2026-04-26T11:45:06.585Z</time></trkpt><trkpt lat="45.89287" lon="11.6111425"><ele>1019.0</ele><time>2026-04-26T11:45:07.586Z</time></trkpt><trkpt lat="45.8927166" lon="11.6111823"><ele>1019.0</ele><time>2026-04-26T11:45:08.587Z</time></trkpt><trkpt lat="45.8925585" lon="11.6112208"><ele>1019.0</ele><time>2026-04-26T11:45:09.603Z</time></trkpt><trkpt lat="45.8924028" lon="11.6113217"><ele>1019.0</ele><time>2026-04-26T11:45:10.598Z</time></trkpt><trkpt lat="45.8922581" lon="11.6114604"><ele>1019.0</ele><time>2026-04-26T11:45:11.603Z</time></trkpt><trkpt lat="45.8921369" lon="11.6116303"><ele>1019.0</ele><time>2026-04-26T11:45:12.598Z</time></trkpt><trkpt lat="45.8920343" lon="11.6118357"><ele>1023.0</ele><time>2026-04-26T11:45:13.59Z</time></trkpt><trkpt lat="45.8919619" lon="11.61206"><ele>1027.0</ele><time>2026-04-26T11:45:14.588Z</time></trkpt><trkpt lat="45.8919303" lon="11.6122639"><ele>1031.0</ele><time>2026-04-26T11:45:15.608Z</time></trkpt><trkpt lat="45.8919435" lon="11.6124915"><ele>1031.0</ele><time>2026-04-26T11:45:16.595Z</time></trkpt><trkpt lat="45.8919919" lon="11.6127426"><ele>1031.0</ele><time>2026-04-26T11:45:17.596Z</time></trkpt><trkpt lat="45.892065" lon="11.6130016"><ele>1031.0</ele><time>2026-04-26T11:45:18.595Z</time></trkpt><trkpt lat="45.8921281" lon="11.6132466"><ele>1031.6666666666667</ele><time>2026-04-26T11:45:19.601Z</time></trkpt><trkpt lat="45.8921727" lon="11.6134826"><ele>1032.3333333333333</ele><time>2026-04-26T11:45:20.608Z</time></trkpt><trkpt lat="45.8922041" lon="11.6137427"><ele>1033.0</ele><time>2026-04-26T11:45:21.601Z</time></trkpt><trkpt lat="45.8922312" lon="11.6139954"><ele>1032.6666666666665</ele><time>2026-04-26T11:45:22.596Z</time></trkpt><trkpt lat="45.8922172" lon="11.6142566"><ele>1032.3333333333333</ele><time>2026-04-26T11:45:23.604Z</time></trkpt><trkpt lat="45.8921846" lon="11.6144925"><ele>1032.0</ele><time>2026-04-26T11:45:24.601Z</time></trkpt><trkpt lat="45.8920975" lon="11.6147258"><ele>1032.0</ele><time>2026-04-26T11:45:25.598Z</time></trkpt><trkpt lat="45.8919895" lon="11.614958"><ele>1032.0</ele><time>2026-04-26T11:45:26.6Z</time></trkpt><trkpt lat="45.8918622" lon="11.6151755"><ele>1032.0</ele><time>2026-04-26T11:45:27.587Z</time></trkpt><trkpt lat="45.89171" lon="11.6153707"><ele>1029.0</ele><time>2026-04-26T11:45:28.59Z</time></trkpt><trkpt lat="45.8915489" lon="11.6155413"><ele>1026.0</ele><time>2026-04-26T11:45:29.593Z</time></trkpt><trkpt lat="45.8913833" lon="11.6156789"><ele>1023.0</ele><time>2026-04-26T11:45:30.593Z</time></trkpt><trkpt lat="45.8912295" lon="11.6157771"><ele>1023.0</ele><time>2026-04-26T11:45:31.592Z</time></trkpt><trkpt lat="45.8910989" lon="11.6158484"><ele>1023.0</ele><time>2026-04-26T11:45:32.593Z</time></trkpt><trkpt lat="45.8909854" lon="11.6159154"><ele>1023.0</ele><time>2026-04-26T11:45:33.604Z</time></trkpt><trkpt lat="45.8908925" lon="11.6159802"><ele>1023.0</ele><time>2026-04-26T11:45:34.597Z</time></trkpt><trkpt lat="45.8908088" lon="11.6160686"><ele>1021.2</ele><time>2026-04-26T11:45:35.59Z</time></trkpt><trkpt lat="45.8907445" lon="11.6161767"><ele>1019.4</ele><time>2026-04-26T11:45:36.587Z</time></trkpt><trkpt lat="45.890718" lon="11.6163007"><ele>1017.6000000000001</ele><time>2026-04-26T11:45:37.593Z</time></trkpt><trkpt lat="45.890721" lon="11.6164373"><ele>1015.8000000000001</ele><time>2026-04-26T11:45:38.602Z</time></trkpt><trkpt lat="45.8907581" lon="11.6165801"><ele>1014.0</ele><time>2026-04-26T11:45:39.601Z</time></trkpt><trkpt lat="45.8908081" lon="11.6166962"><ele>1014.0</ele><time>2026-04-26T11:45:40.594Z</time></trkpt><trkpt lat="45.8908949" lon="11.6167791"><ele>1014.0</ele><time>2026-04-26T11:45:41.595Z</time></trkpt><trkpt lat="45.8909971" lon="11.6168067"><ele>1014.0</ele><time>2026-04-26T11:45:42.591Z</time></trkpt><trkpt lat="45.8911282" lon="11.6167994"><ele>1014.0</ele><time>2026-04-26T11:45:43.608Z</time></trkpt><trkpt lat="45.8912801" lon="11.6167571"><ele>1016.0</ele><time>2026-04-26T11:45:44.593Z</time></trkpt><trkpt lat="45.8914532" lon="11.6166985"><ele>1018.0</ele><time>2026-04-26T11:45:45.595Z</time></trkpt><trkpt lat="45.8916338" lon="11.6166466"><ele>1020.0</ele><time>2026-04-26T11:45:46.597Z</time></trkpt><trkpt lat="45.891811" lon="11.6165691"><ele>1015.6666666666667</ele><time>2026-04-26T11:45:47.605Z</time></trkpt><trkpt lat="45.8919837" lon="11.6164831"><ele>1011.3333333333334</ele><time>2026-04-26T11:45:48.604Z</time></trkpt><trkpt lat="45.8921501" lon="11.6163977"><ele>1007.0</ele><time>2026-04-26T11:45:49.602Z</time></trkpt><trkpt lat="45.8923034" lon="11.6163125"><ele>1007.0</ele><time>2026-04-26T11:45:50.596Z</time></trkpt><trkpt lat="45.8924574" lon="11.6162017"><ele>1007.0</ele><time>2026-04-26T11:45:51.607Z</time></trkpt><trkpt lat="45.8926112" lon="11.6160595"><ele>1007.0</ele><time>2026-04-26T11:45:52.62Z</time></trkpt><trkpt lat="45.8927643" lon="11.6159013"><ele>1008.0</ele><time>2026-04-26T11:45:53.609Z</time></trkpt><trkpt lat="45.8929208" lon="11.6157435"><ele>1009.0</ele><time>2026-04-26T11:45:54.608Z</time></trkpt><trkpt lat="45.89308" lon="11.6155758"><ele>1010.0</ele><time>2026-04-26T11:45:55.598Z</time></trkpt><trkpt lat="45.8932387" lon="11.6154107"><ele>1015.3333333333334</ele><time>2026-04-26T11:45:56.602Z</time></trkpt><trkpt lat="45.8933923" lon="11.6152474"><ele>1020.6666666666667</ele><time>2026-04-26T11:45:57.605Z</time></trkpt><trkpt lat="45.8935509" lon="11.6151036"><ele>1026.0</ele><time>2026-04-26T11:45:58.611Z</time></trkpt><trkpt lat="45.893721" lon="11.6150022"><ele>1026.0</ele><time>2026-04-26T11:45:59.595Z</time></trkpt><trkpt lat="45.8938919" lon="11.6149596"><ele>1026.0</ele><time>2026-04-26T11:46:00.6Z</time></trkpt><trkpt lat="45.8940824" lon="11.6149811"><ele>1026.0</ele><time>2026-04-26T11:46:01.598Z</time></trkpt><trkpt lat="45.8942847" lon="11.6150694"><ele>1019.5</ele><time>2026-04-26T11:46:02.602Z</time></trkpt><trkpt lat="45.8945033" lon="11.6152004"><ele>1013.0</ele><time>2026-04-26T11:46:03.61Z</time></trkpt><trkpt lat="45.8947214" lon="11.6153246"><ele>1013.0</ele><time>2026-04-26T11:46:04.616Z</time></trkpt><trkpt lat="45.8949268" lon="11.6154309"><ele>1013.0</ele><time>2026-04-26T11:46:05.598Z</time></trkpt><trkpt lat="45.8951184" lon="11.6155382"><ele>1013.0</ele><time>2026-04-26T11:46:06.599Z</time></trkpt><trkpt lat="45.8952937" lon="11.6156628"><ele>1021.6666666666667</ele><time>2026-04-26T11:46:07.598Z</time></trkpt><trkpt lat="45.8954659" lon="11.615808"><ele>1030.3333333333333</ele><time>2026-04-26T11:46:08.61Z</time></trkpt><trkpt lat="45.8956327" lon="11.6159599"><ele>1039.0</ele><time>2026-04-26T11:46:09.607Z</time></trkpt><trkpt lat="45.8957954" lon="11.6161238"><ele>1038.6666666666665</ele><time>2026-04-26T11:46:10.6Z</time></trkpt><trkpt lat="45.8959554" lon="11.6162946"><ele>1038.3333333333333</ele><time>2026-04-26T11:46:11.603Z</time></trkpt><trkpt lat="45.8961169" lon="11.6164663"><ele>1038.0</ele><time>2026-04-26T11:46:12.602Z</time></trkpt><trkpt lat="45.8962819" lon="11.6166329"><ele>1038.0</ele><time>2026-04-26T11:46:13.607Z</time></trkpt><trkpt lat="45.8964419" lon="11.616797"><ele>1038.0</ele><time>2026-04-26T11:46:14.605Z</time></trkpt><trkpt lat="45.8966047" lon="11.6169605"><ele>1038.0</ele><time>2026-04-26T11:46:15.613Z</time></trkpt><trkpt lat="45.8967617" lon="11.6171134"><ele>1036.6666666666667</ele><time>2026-04-26T11:46:16.599Z</time></trkpt><trkpt lat="45.8969139" lon="11.6172586"><ele>1035.3333333333335</ele><time>2026-04-26T11:46:17.602Z</time></trkpt><trkpt lat="45.8970777" lon="11.6173782"><ele>1034.0</ele><time>2026-04-26T11:46:18.606Z</time></trkpt><trkpt lat="45.8972513" lon="11.6174613"><ele>1034.0</ele><time>2026-04-26T11:46:19.607Z</time></trkpt><trkpt lat="45.8974321" lon="11.6175121"><ele>1034.0</ele><time>2026-04-26T11:46:20.605Z</time></trkpt><trkpt lat="45.8976138" lon="11.6175483"><ele>1034.0</ele><time>2026-04-26T11:46:21.601Z</time></trkpt><trkpt lat="45.8977707" lon="11.6176107"><ele>1035.0</ele><time>2026-04-26T11:46:22.602Z</time></trkpt><trkpt lat="45.8979044" lon="11.6177224"><ele>1036.0</ele><time>2026-04-26T11:46:23.61Z</time></trkpt><trkpt lat="45.8980181" lon="11.6179189"><ele>1037.0</ele><time>2026-04-26T11:46:24.605Z</time></trkpt><trkpt lat="45.8981272" lon="11.6181437"><ele>1037.0</ele><time>2026-04-26T11:46:25.599Z</time></trkpt><trkpt lat="45.8982203" lon="11.6184159"><ele>1037.0</ele><time>2026-04-26T11:46:26.601Z</time></trkpt><trkpt lat="45.8983391" lon="11.6186646"><ele>1037.0</ele><time>2026-04-26T11:46:27.602Z</time></trkpt><trkpt lat="45.8984915" lon="11.618892"><ele>1040.5</ele><time>2026-04-26T11:46:28.603Z</time></trkpt><trkpt lat="45.8986475" lon="11.6191217"><ele>1044.0</ele><time>2026-04-26T11:46:29.604Z</time></trkpt><trkpt lat="45.8988107" lon="11.6193509"><ele>1034.0</ele><time>2026-04-26T11:46:30.621Z</time></trkpt><trkpt lat="45.898976" lon="11.619574"><ele>1024.0</ele><time>2026-04-26T11:46:31.603Z</time></trkpt><trkpt lat="45.8991459" lon="11.6198046"><ele>1034.5</ele><time>2026-04-26T11:46:32.601Z</time></trkpt><trkpt lat="45.8993105" lon="11.6200412"><ele>1045.0</ele><time>2026-04-26T11:46:33.599Z</time></trkpt><trkpt lat="45.8994769" lon="11.6202735"><ele>1041.6666666666665</ele><time>2026-04-26T11:46:34.606Z</time></trkpt><trkpt lat="45.8996336" lon="11.620496"><ele>1038.3333333333333</ele><time>2026-04-26T11:46:35.604Z</time></trkpt><trkpt lat="45.899785" lon="11.6207132"><ele>1035.0</ele><time>2026-04-26T11:46:36.594Z</time></trkpt><trkpt lat="45.8999364" lon="11.6209279"><ele>1043.3333333333333</ele><time>2026-04-26T11:46:37.596Z</time></trkpt><trkpt lat="45.9000839" lon="11.6211401"><ele>1051.6666666666665</ele><time>2026-04-26T11:46:38.609Z</time></trkpt><trkpt lat="45.9002259" lon="11.6213482"><ele>1060.0</ele><time>2026-04-26T11:46:39.61Z</time></trkpt><trkpt lat="45.9003585" lon="11.6215474"><ele>1060.0</ele><time>2026-04-26T11:46:40.6Z</time></trkpt><trkpt lat="45.9004782" lon="11.6217353"><ele>1060.0</ele><time>2026-04-26T11:46:41.614Z</time></trkpt><trkpt lat="45.9005777" lon="11.6219439"><ele>1060.0</ele><time>2026-04-26T11:46:42.609Z</time></trkpt><trkpt lat="45.9006497" lon="11.6221968"><ele>1058.3333333333333</ele><time>2026-04-26T11:46:43.6Z</time></trkpt><trkpt lat="45.9006922" lon="11.6224867"><ele>1056.6666666666667</ele><time>2026-04-26T11:46:44.606Z</time></trkpt><trkpt lat="45.9006997" lon="11.6227702"><ele>1055.0</ele><time>2026-04-26T11:46:45.606Z</time></trkpt><trkpt lat="45.9006764" lon="11.6230281"><ele>1053.6666666666667</ele><time>2026-04-26T11:46:46.6Z</time></trkpt><trkpt lat="45.9006352" lon="11.6232948"><ele>1052.3333333333333</ele><time>2026-04-26T11:46:47.603Z</time></trkpt><trkpt lat="45.9006201" lon="11.6235716"><ele>1051.0</ele><time>2026-04-26T11:46:48.617Z</time></trkpt><trkpt lat="45.9006441" lon="11.6238536"><ele>1051.0</ele><time>2026-04-26T11:46:49.606Z</time></trkpt><trkpt lat="45.900676" lon="11.624099"><ele>1051.0</ele><time>2026-04-26T11:46:50.605Z</time></trkpt><trkpt lat="45.9006974" lon="11.6243197"><ele>1051.0</ele><time>2026-04-26T11:46:51.604Z</time></trkpt><trkpt lat="45.9007101" lon="11.6245327"><ele>1052.0</ele><time>2026-04-26T11:46:52.614Z</time></trkpt><trkpt lat="45.9006925" lon="11.6247201"><ele>1053.0</ele><time>2026-04-26T11:46:53.607Z</time></trkpt><trkpt lat="45.9006385" lon="11.6248561"><ele>1054.0</ele><time>2026-04-26T11:46:54.584Z</time></trkpt><trkpt lat="45.9005465" lon="11.624946"><ele>1055.0</ele><time>2026-04-26T11:46:55.604Z</time></trkpt><trkpt lat="45.9004298" lon="11.6249949"><ele>1055.0</ele><time>2026-04-26T11:46:56.599Z</time></trkpt><trkpt lat="45.9003039" lon="11.6249992"><ele>1055.0</ele><time>2026-04-26T11:46:57.608Z</time></trkpt><trkpt lat="45.9001978" lon="11.6249906"><ele>1055.0</ele><time>2026-04-26T11:46:58.599Z</time></trkpt><trkpt lat="45.900088" lon="11.6249861"><ele>1055.0</ele><time>2026-04-26T11:46:59.596Z</time></trkpt><trkpt lat="45.8999912" lon="11.6249949"><ele>1055.0</ele><time>2026-04-26T11:47:00.596Z</time></trkpt><trkpt lat="45.8998998" lon="11.62501"><ele>1052.5</ele><time>2026-04-26T11:47:01.595Z</time></trkpt><trkpt lat="45.8998069" lon="11.625054"><ele>1050.0</ele><time>2026-04-26T11:47:02.601Z</time></trkpt><trkpt lat="45.8997073" lon="11.6251434"><ele>1047.5</ele><time>2026-04-26T11:47:03.594Z</time></trkpt><trkpt lat="45.8996293" lon="11.6252897"><ele>1045.0</ele><time>2026-04-26T11:47:04.597Z</time></trkpt><trkpt lat="45.899571" lon="11.625457"><ele>1050.25</ele><time>2026-04-26T11:47:05.599Z</time></trkpt><trkpt lat="45.8995392" lon="11.6256333"><ele>1055.5</ele><time>2026-04-26T11:47:06.594Z</time></trkpt><trkpt lat="45.8995325" lon="11.6258121"><ele>1060.75</ele><time>2026-04-26T11:47:07.605Z</time></trkpt><trkpt lat="45.8995225" lon="11.6259792"><ele>1066.0</ele><time>2026-04-26T11:47:08.594Z</time></trkpt><trkpt lat="45.8995082" lon="11.6261469"><ele>1067.8</ele><time>2026-04-26T11:47:09.596Z</time></trkpt><trkpt lat="45.8994736" lon="11.6263047"><ele>1069.6</ele><time>2026-04-26T11:47:10.602Z</time></trkpt><trkpt lat="45.899433" lon="11.6264603"><ele>1071.4</ele><time>2026-04-26T11:47:11.604Z</time></trkpt><trkpt lat="45.8993791" lon="11.6265911"><ele>1073.2</ele><time>2026-04-26T11:47:12.592Z</time></trkpt><trkpt lat="45.8993303" lon="11.6267145"><ele>1075.0</ele><time>2026-04-26T11:47:13.597Z</time></trkpt><trkpt lat="45.8992978" lon="11.6268245"><ele>1075.0</ele><time>2026-04-26T11:47:14.604Z</time></trkpt><trkpt lat="45.8992784" lon="11.6269204"><ele>1075.0</ele><time>2026-04-26T11:47:15.605Z</time></trkpt><trkpt lat="45.8992815" lon="11.6270305"><ele>1075.0</ele><time>2026-04-26T11:47:16.591Z</time></trkpt><trkpt lat="45.8993026" lon="11.6271541"><ele>1075.0</ele><time>2026-04-26T11:47:17.602Z</time></trkpt><trkpt lat="45.8993401" lon="11.6272918"><ele>1075.0</ele><time>2026-04-26T11:47:18.592Z</time></trkpt><trkpt lat="45.8993741" lon="11.6274353"><ele>1075.0</ele><time>2026-04-26T11:47:19.594Z</time></trkpt><trkpt lat="45.8993811" lon="11.62758"><ele>1073.5</ele><time>2026-04-26T11:47:20.596Z</time></trkpt><trkpt lat="45.899337" lon="11.6277043"><ele>1072.0</ele><time>2026-04-26T11:47:21.599Z</time></trkpt><trkpt lat="45.8992427" lon="11.6278381"><ele>1070.5</ele><time>2026-04-26T11:47:22.608Z</time></trkpt><trkpt lat="45.8991302" lon="11.6279348"><ele>1069.0</ele><time>2026-04-26T11:47:23.595Z</time></trkpt><trkpt lat="45.8989944" lon="11.6280105"><ele>1068.0</ele><time>2026-04-26T11:47:24.61Z</time></trkpt><trkpt lat="45.898838" lon="11.6280926"><ele>1067.0</ele><time>2026-04-26T11:47:25.605Z</time></trkpt><trkpt lat="45.898645" lon="11.6282291"><ele>1066.0</ele><time>2026-04-26T11:47:26.592Z</time></trkpt><trkpt lat="45.8984565" lon="11.6283645"><ele>1064.0</ele><time>2026-04-26T11:47:27.592Z</time></trkpt><trkpt lat="45.8982987" lon="11.6284408"><ele>1062.0</ele><time>2026-04-26T11:47:28.588Z</time></trkpt><trkpt lat="45.8981599" lon="11.6285194"><ele>1060.0</ele><time>2026-04-26T11:47:29.586Z</time></trkpt><trkpt lat="45.8980168" lon="11.628603"><ele>1068.0</ele><time>2026-04-26T11:47:30.602Z</time></trkpt><trkpt lat="45.8978835" lon="11.628703"><ele>1076.0</ele><time>2026-04-26T11:47:31.597Z</time></trkpt><trkpt lat="45.8977534" lon="11.628836"><ele>1084.0</ele><time>2026-04-26T11:47:32.594Z</time></trkpt><trkpt lat="45.8976341" lon="11.6289707"><ele>1080.6666666666665</ele><time>2026-04-26T11:47:33.595Z</time></trkpt><trkpt lat="45.8975175" lon="11.629106"><ele>1077.3333333333333</ele><time>2026-04-26T11:47:34.591Z</time></trkpt><trkpt lat="45.897397" lon="11.6292431"><ele>1074.0</ele><time>2026-04-26T11:47:35.585Z</time></trkpt><trkpt lat="45.8972728" lon="11.6293836"><ele>1077.75</ele><time>2026-04-26T11:47:36.595Z</time></trkpt><trkpt lat="45.8971577" lon="11.6295217"><ele>1081.5</ele><time>2026-04-26T11:47:37.592Z</time></trkpt><trkpt lat="45.897048" lon="11.6296614"><ele>1085.25</ele><time>2026-04-26T11:47:38.59Z</time></trkpt><trkpt lat="45.8969369" lon="11.6297953"><ele>1089.0</ele><time>2026-04-26T11:47:39.583Z</time></trkpt><trkpt lat="45.8968297" lon="11.6299338"><ele>1088.0</ele><time>2026-04-26T11:47:40.588Z</time></trkpt><trkpt lat="45.8967314" lon="11.6300632"><ele>1087.0</ele><time>2026-04-26T11:47:41.59Z</time></trkpt><trkpt lat="45.8966484" lon="11.6301748"><ele>1086.0</ele><time>2026-04-26T11:47:42.587Z</time></trkpt><trkpt lat="45.8965805" lon="11.6302711"><ele>1085.0</ele><time>2026-04-26T11:47:43.603Z</time></trkpt><trkpt lat="45.8965186" lon="11.6303761"><ele>1084.0</ele><time>2026-04-26T11:47:44.589Z</time></trkpt><trkpt lat="45.8964711" lon="11.6304845"><ele>1084.0</ele><time>2026-04-26T11:47:45.594Z</time></trkpt><trkpt lat="45.8964489" lon="11.6305869"><ele>1084.0</ele><time>2026-04-26T11:47:46.594Z</time></trkpt><trkpt lat="45.8965" lon="11.6307376"><ele>1084.0</ele><time>2026-04-26T11:47:48.595Z</time></trkpt><trkpt lat="45.896562" lon="11.6307762"><ele>1084.0</ele><time>2026-04-26T11:47:49.595Z</time></trkpt><trkpt lat="45.8966763" lon="11.6307784"><ele>1084.0</ele><time>2026-04-26T11:47:50.603Z</time></trkpt><trkpt lat="45.8968031" lon="11.6307581"><ele>1085.75</ele><time>2026-04-26T11:47:51.601Z</time></trkpt><trkpt lat="45.8969324" lon="11.6307386"><ele>1087.5</ele><time>2026-04-26T11:47:52.596Z</time></trkpt><trkpt lat="45.8970528" lon="11.6307108"><ele>1089.25</ele><time>2026-04-26T11:47:53.601Z</time></trkpt><trkpt lat="45.8971595" lon="11.6306997"><ele>1091.0</ele><time>2026-04-26T11:47:54.595Z</time></trkpt><trkpt lat="45.8972601" lon="11.6306925"><ele>1091.0</ele><time>2026-04-26T11:47:55.599Z</time></trkpt><trkpt lat="45.897347" lon="11.6306802"><ele>1091.0</ele><time>2026-04-26T11:47:56.596Z</time></trkpt><trkpt lat="45.8974265" lon="11.6306581"><ele>1091.0</ele><time>2026-04-26T11:47:57.594Z</time></trkpt><trkpt lat="45.8975086" lon="11.630612"><ele>1091.0</ele><time>2026-04-26T11:47:58.594Z</time></trkpt><trkpt lat="45.8975847" lon="11.6305519"><ele>1091.0</ele><time>2026-04-26T11:47:59.603Z</time></trkpt><trkpt lat="45.897672" lon="11.6304915"><ele>1091.0</ele><time>2026-04-26T11:48:00.6Z</time></trkpt><trkpt lat="45.8977766" lon="11.630445"><ele>1091.0</ele><time>2026-04-26T11:48:01.595Z</time></trkpt><trkpt lat="45.8978964" lon="11.6304063"><ele>1091.0</ele><time>2026-04-26T11:48:02.596Z</time></trkpt><trkpt lat="45.8980239" lon="11.6303806"><ele>1091.0</ele><time>2026-04-26T11:48:03.591Z</time></trkpt><trkpt lat="45.8981645" lon="11.6303384"><ele>1091.0</ele><time>2026-04-26T11:48:04.593Z</time></trkpt><trkpt lat="45.8983006" lon="11.6303"><ele>1089.6666666666667</ele><time>2026-04-26T11:48:05.596Z</time></trkpt><trkpt lat="45.898453" lon="11.6302627"><ele>1088.3333333333333</ele><time>2026-04-26T11:48:06.606Z</time></trkpt><trkpt lat="45.8986103" lon="11.6302211"><ele>1087.0</ele><time>2026-04-26T11:48:07.587Z</time></trkpt><trkpt lat="45.8987683" lon="11.6301889"><ele>1087.0</ele><time>2026-04-26T11:48:08.595Z</time></trkpt><trkpt lat="45.8989292" lon="11.6301538"><ele>1087.0</ele><time>2026-04-26T11:48:09.607Z</time></trkpt><trkpt lat="45.8990915" lon="11.6301135"><ele>1087.0</ele><time>2026-04-26T11:48:10.589Z</time></trkpt><trkpt lat="45.8992589" lon="11.6300664"><ele>1084.3333333333333</ele><time>2026-04-26T11:48:11.601Z</time></trkpt><trkpt lat="45.8994334" lon="11.6300249"><ele>1081.6666666666667</ele><time>2026-04-26T11:48:12.594Z</time></trkpt><trkpt lat="45.8996078" lon="11.6299815"><ele>1079.0</ele><time>2026-04-26T11:48:13.6Z</time></trkpt><trkpt lat="45.8997773" lon="11.6299379"><ele>1079.0</ele><time>2026-04-26T11:48:14.595Z</time></trkpt><trkpt lat="45.8999454" lon="11.6299011"><ele>1079.0</ele><time>2026-04-26T11:48:15.592Z</time></trkpt><trkpt lat="45.9001071" lon="11.6298757"><ele>1079.0</ele><time>2026-04-26T11:48:16.595Z</time></trkpt><trkpt lat="45.9002662" lon="11.6298668"><ele>1079.0</ele><time>2026-04-26T11:48:17.598Z</time></trkpt><trkpt lat="45.9004259" lon="11.6298764"><ele>1079.0</ele><time>2026-04-26T11:48:18.604Z</time></trkpt><trkpt lat="45.9005855" lon="11.6299109"><ele>1079.0</ele><time>2026-04-26T11:48:19.62Z</time></trkpt><trkpt lat="45.9007435" lon="11.6299533"><ele>1079.0</ele><time>2026-04-26T11:48:20.614Z</time></trkpt><trkpt lat="45.9009057" lon="11.63"><ele>1079.0</ele><time>2026-04-26T11:48:21.598Z</time></trkpt><trkpt lat="45.9010843" lon="11.6300319"><ele>1079.0</ele><time>2026-04-26T11:48:22.596Z</time></trkpt><trkpt lat="45.9012659" lon="11.6300325"><ele>1081.3333333333335</ele><time>2026-04-26T11:48:23.608Z</time></trkpt><trkpt lat="45.9014417" lon="11.630017"><ele>1083.6666666666667</ele><time>2026-04-26T11:48:24.606Z</time></trkpt><trkpt lat="45.9016261" lon="11.6299965"><ele>1086.0</ele><time>2026-04-26T11:48:25.599Z</time></trkpt><trkpt lat="45.9018008" lon="11.6299818"><ele>1091.0</ele><time>2026-04-26T11:48:26.593Z</time></trkpt><trkpt lat="45.9019628" lon="11.6299784"><ele>1096.0</ele><time>2026-04-26T11:48:27.594Z</time></trkpt><trkpt lat="45.9021056" lon="11.6300124"><ele>1101.0</ele><time>2026-04-26T11:48:28.601Z</time></trkpt><trkpt lat="45.9022223" lon="11.6301014"><ele>1106.0</ele><time>2026-04-26T11:48:29.592Z</time></trkpt><trkpt lat="45.9023166" lon="11.6302652"><ele>1109.0</ele><time>2026-04-26T11:48:30.595Z</time></trkpt><trkpt lat="45.9024199" lon="11.6304981"><ele>1112.0</ele><time>2026-04-26T11:48:31.589Z</time></trkpt><trkpt lat="45.902535" lon="11.6307132"><ele>1115.0</ele><time>2026-04-26T11:48:32.601Z</time></trkpt><trkpt lat="45.902661" lon="11.6309127"><ele>1115.0</ele><time>2026-04-26T11:48:33.605Z</time></trkpt><trkpt lat="45.9027903" lon="11.6310928"><ele>1115.0</ele><time>2026-04-26T11:48:34.599Z</time></trkpt><trkpt lat="45.9029378" lon="11.631228"><ele>1115.0</ele><time>2026-04-26T11:48:35.597Z</time></trkpt><trkpt lat="45.9031245" lon="11.6313606"><ele>1112.3333333333335</ele><time>2026-04-26T11:48:36.596Z</time></trkpt><trkpt lat="45.9033142" lon="11.6314744"><ele>1109.6666666666667</ele><time>2026-04-26T11:48:37.605Z</time></trkpt><trkpt lat="45.9034972" lon="11.6315805"><ele>1107.0</ele><time>2026-04-26T11:48:38.592Z</time></trkpt><trkpt lat="45.9036864" lon="11.6316762"><ele>1107.0</ele><time>2026-04-26T11:48:39.6Z</time></trkpt><trkpt lat="45.903865" lon="11.6317617"><ele>1107.0</ele><time>2026-04-26T11:48:40.597Z</time></trkpt><trkpt lat="45.904039" lon="11.6318379"><ele>1107.0</ele><time>2026-04-26T11:48:41.597Z</time></trkpt><trkpt lat="45.9041976" lon="11.6319251"><ele>1108.6666666666667</ele><time>2026-04-26T11:48:42.599Z</time></trkpt><trkpt lat="45.9043341" lon="11.6320587"><ele>1110.3333333333335</ele><time>2026-04-26T11:48:43.602Z</time></trkpt><trkpt lat="45.904456" lon="11.6322665"><ele>1112.0</ele><time>2026-04-26T11:48:44.597Z</time></trkpt><trkpt lat="45.9045849" lon="11.6325138"><ele>1112.0</ele><time>2026-04-26T11:48:45.597Z</time></trkpt><trkpt lat="45.9047051" lon="11.6327655"><ele>1112.0</ele><time>2026-04-26T11:48:46.604Z</time></trkpt><trkpt lat="45.9048158" lon="11.6329933"><ele>1112.0</ele><time>2026-04-26T11:48:47.591Z</time></trkpt><trkpt lat="45.9049168" lon="11.6331932"><ele>1108.2</ele><time>2026-04-26T11:48:48.607Z</time></trkpt><trkpt lat="45.9050138" lon="11.6333328"><ele>1104.4</ele><time>2026-04-26T11:48:49.595Z</time></trkpt><trkpt lat="45.905111" lon="11.633401"><ele>1100.6</ele><time>2026-04-26T11:48:50.597Z</time></trkpt><trkpt lat="45.9051886" lon="11.6333897"><ele>1096.8</ele><time>2026-04-26T11:48:51.604Z</time></trkpt><trkpt lat="45.905276" lon="11.6333284"><ele>1093.0</ele><time>2026-04-26T11:48:52.597Z</time></trkpt><trkpt lat="45.9053725" lon="11.6332023"><ele>1093.0</ele><time>2026-04-26T11:48:53.611Z</time></trkpt><trkpt lat="45.90548" lon="11.6330505"><ele>1093.0</ele><time>2026-04-26T11:48:54.603Z</time></trkpt><trkpt lat="45.9056075" lon="11.6329037"><ele>1093.0</ele><time>2026-04-26T11:48:55.609Z</time></trkpt><trkpt lat="45.9057466" lon="11.6327877"><ele>1099.25</ele><time>2026-04-26T11:48:56.6Z</time></trkpt><trkpt lat="45.9058757" lon="11.6327437"><ele>1105.5</ele><time>2026-04-26T11:48:57.603Z</time></trkpt><trkpt lat="45.9059961" lon="11.6327753"><ele>1111.75</ele><time>2026-04-26T11:48:58.593Z</time></trkpt><trkpt lat="45.9060778" lon="11.6328659"><ele>1118.0</ele><time>2026-04-26T11:48:59.601Z</time></trkpt><trkpt lat="45.9061352" lon="11.6330531"><ele>1120.0</ele><time>2026-04-26T11:49:00.6Z</time></trkpt><trkpt lat="45.9061881" lon="11.6332613"><ele>1122.0</ele><time>2026-04-26T11:49:01.595Z</time></trkpt><trkpt lat="45.9062255" lon="11.6335079"><ele>1124.0</ele><time>2026-04-26T11:49:02.586Z</time></trkpt><trkpt lat="45.9062492" lon="11.6337629"><ele>1124.0</ele><time>2026-04-26T11:49:03.596Z</time></trkpt><trkpt lat="45.9062747" lon="11.6340179"><ele>1124.0</ele><time>2026-04-26T11:49:04.584Z</time></trkpt><trkpt lat="45.9063198" lon="11.634278"><ele>1124.0</ele><time>2026-04-26T11:49:05.599Z</time></trkpt><trkpt lat="45.9063724" lon="11.6345436"><ele>1121.3333333333335</ele><time>2026-04-26T11:49:06.599Z</time></trkpt><trkpt lat="45.9064191" lon="11.6348079"><ele>1118.6666666666667</ele><time>2026-04-26T11:49:07.594Z</time></trkpt><trkpt lat="45.9064627" lon="11.6350818"><ele>1116.0</ele><time>2026-04-26T11:49:08.599Z</time></trkpt><trkpt lat="45.9065005" lon="11.6353613"><ele>1112.6666666666667</ele><time>2026-04-26T11:49:09.604Z</time></trkpt><trkpt lat="45.9065293" lon="11.6356408"><ele>1109.3333333333335</ele><time>2026-04-26T11:49:10.592Z</time></trkpt><trkpt lat="45.906561" lon="11.6359068"><ele>1106.0</ele><time>2026-04-26T11:49:11.589Z</time></trkpt><trkpt lat="45.9066066" lon="11.6361446"><ele>1102.75</ele><time>2026-04-26T11:49:12.595Z</time></trkpt><trkpt lat="45.90665" lon="11.6363623"><ele>1099.5</ele><time>2026-04-26T11:49:13.592Z</time></trkpt><trkpt lat="45.9067069" lon="11.6365507"><ele>1096.25</ele><time>2026-04-26T11:49:14.603Z</time></trkpt><trkpt lat="45.9067952" lon="11.6367056"><ele>1093.0</ele><time>2026-04-26T11:49:15.589Z</time></trkpt><trkpt lat="45.9069292" lon="11.6368467"><ele>1098.6666666666665</ele><time>2026-04-26T11:49:16.597Z</time></trkpt><trkpt lat="45.9070706" lon="11.6369919"><ele>1104.3333333333333</ele><time>2026-04-26T11:49:17.606Z</time></trkpt><trkpt lat="45.9071871" lon="11.6371432"><ele>1110.0</ele><time>2026-04-26T11:49:18.59Z</time></trkpt><trkpt lat="45.907283" lon="11.637296"><ele>1110.0</ele><time>2026-04-26T11:49:19.587Z</time></trkpt><trkpt lat="45.9073502" lon="11.6374496"><ele>1110.0</ele><time>2026-04-26T11:49:20.585Z</time></trkpt><trkpt lat="45.9073965" lon="11.6376312"><ele>1110.0</ele><time>2026-04-26T11:49:21.588Z</time></trkpt><trkpt lat="45.9073785" lon="11.6378354"><ele>1110.0</ele><time>2026-04-26T11:49:22.588Z</time></trkpt><trkpt lat="45.9073216" lon="11.6380531"><ele>1114.3333333333333</ele><time>2026-04-26T11:49:23.592Z</time></trkpt><trkpt lat="45.9072345" lon="11.6382788"><ele>1118.6666666666665</ele><time>2026-04-26T11:49:24.591Z</time></trkpt><trkpt lat="45.9071287" lon="11.6384933"><ele>1123.0</ele><time>2026-04-26T11:49:25.592Z</time></trkpt><trkpt lat="45.9070026" lon="11.6387146"><ele>1116.6666666666665</ele><time>2026-04-26T11:49:26.598Z</time></trkpt><trkpt lat="45.9068681" lon="11.6389206"><ele>1110.3333333333333</ele><time>2026-04-26T11:49:27.594Z</time></trkpt><trkpt lat="45.9067503" lon="11.6391092"><ele>1104.0</ele><time>2026-04-26T11:49:28.587Z</time></trkpt><trkpt lat="45.9066247" lon="11.6392736"><ele>1104.0</ele><time>2026-04-26T11:49:29.589Z</time></trkpt><trkpt lat="45.9064827" lon="11.6394158"><ele>1104.0</ele><time>2026-04-26T11:49:30.599Z</time></trkpt><trkpt lat="45.9063449" lon="11.6395395"><ele>1104.0</ele><time>2026-04-26T11:49:31.592Z</time></trkpt><trkpt lat="45.9062294" lon="11.6396804"><ele>1113.3333333333333</ele><time>2026-04-26T11:49:32.602Z</time></trkpt><trkpt lat="45.9061406" lon="11.6398823"><ele>1122.6666666666665</ele><time>2026-04-26T11:49:33.601Z</time></trkpt><trkpt lat="45.9060704" lon="11.6401068"><ele>1132.0</ele><time>2026-04-26T11:49:34.59Z</time></trkpt><trkpt lat="45.9059717" lon="11.6403311"><ele>1123.0</ele><time>2026-04-26T11:49:35.587Z</time></trkpt><trkpt lat="45.9058644" lon="11.6405513"><ele>1114.0</ele><time>2026-04-26T11:49:36.591Z</time></trkpt><trkpt lat="45.9057881" lon="11.6408108"><ele>1105.0</ele><time>2026-04-26T11:49:37.6Z</time></trkpt><trkpt lat="45.9057224" lon="11.6410985"><ele>1109.6666666666665</ele><time>2026-04-26T11:49:38.599Z</time></trkpt><trkpt lat="45.9056656" lon="11.6413776"><ele>1114.3333333333333</ele><time>2026-04-26T11:49:39.6Z</time></trkpt><trkpt lat="45.9055891" lon="11.641626"><ele>1119.0</ele><time>2026-04-26T11:49:40.588Z</time></trkpt><trkpt lat="45.9055068" lon="11.6418617"><ele>1120.0</ele><time>2026-04-26T11:49:41.595Z</time></trkpt><trkpt lat="45.9054467" lon="11.6420961"><ele>1121.0</ele><time>2026-04-26T11:49:42.582Z</time></trkpt><trkpt lat="45.9054163" lon="11.6423717"><ele>1122.0</ele><time>2026-04-26T11:49:43.595Z</time></trkpt><trkpt lat="45.9053899" lon="11.6426487"><ele>1122.3333333333333</ele><time>2026-04-26T11:49:44.592Z</time></trkpt><trkpt lat="45.9053734" lon="11.6429348"><ele>1122.6666666666665</ele><time>2026-04-26T11:49:45.595Z</time></trkpt><trkpt lat="45.90535" lon="11.6432172"><ele>1123.0</ele><time>2026-04-26T11:49:46.598Z</time></trkpt><trkpt lat="45.9053325" lon="11.6434957"><ele>1121.0</ele><time>2026-04-26T11:49:47.601Z</time></trkpt><trkpt lat="45.9053155" lon="11.643752"><ele>1119.0</ele><time>2026-04-26T11:49:48.598Z</time></trkpt><trkpt lat="45.9053061" lon="11.6439889"><ele>1117.0</ele><time>2026-04-26T11:49:49.6Z</time></trkpt><trkpt lat="45.9053144" lon="11.6442228"><ele>1117.0</ele><time>2026-04-26T11:49:50.603Z</time></trkpt><trkpt lat="45.9053294" lon="11.6444307"><ele>1117.0</ele><time>2026-04-26T11:49:51.605Z</time></trkpt><trkpt lat="45.9053499" lon="11.6446251"><ele>1117.0</ele><time>2026-04-26T11:49:52.591Z</time></trkpt><trkpt lat="45.9053655" lon="11.6448161"><ele>1117.0</ele><time>2026-04-26T11:49:53.595Z</time></trkpt><trkpt lat="45.905377" lon="11.6449902"><ele>1114.8</ele><time>2026-04-26T11:49:54.594Z</time></trkpt><trkpt lat="45.9053744" lon="11.6451461"><ele>1112.6</ele><time>2026-04-26T11:49:55.598Z</time></trkpt><trkpt lat="45.9053537" lon="11.6452926"><ele>1110.3999999999999</ele><time>2026-04-26T11:49:56.601Z</time></trkpt><trkpt lat="45.9053224" lon="11.6454193"><ele>1108.2</ele><time>2026-04-26T11:49:57.618Z</time></trkpt><trkpt lat="45.9053009" lon="11.6455488"><ele>1106.0</ele><time>2026-04-26T11:49:58.599Z</time></trkpt><trkpt lat="45.9052916" lon="11.6456782"><ele>1103.75</ele><time>2026-04-26T11:49:59.606Z</time></trkpt><trkpt lat="45.9053149" lon="11.6458148"><ele>1101.5</ele><time>2026-04-26T11:50:00.592Z</time></trkpt><trkpt lat="45.9053699" lon="11.6459624"><ele>1099.25</ele><time>2026-04-26T11:50:01.606Z</time></trkpt><trkpt lat="45.9054519" lon="11.646099"><ele>1097.0</ele><time>2026-04-26T11:50:02.592Z</time></trkpt><trkpt lat="45.9055728" lon="11.6462142"><ele>1098.0</ele><time>2026-04-26T11:50:03.601Z</time></trkpt><trkpt lat="45.9057122" lon="11.646303"><ele>1099.0</ele><time>2026-04-26T11:50:04.612Z</time></trkpt><trkpt lat="45.9058732" lon="11.6464046"><ele>1100.0</ele><time>2026-04-26T11:50:05.601Z</time></trkpt><trkpt lat="45.9060253" lon="11.6465329"><ele>1100.0</ele><time>2026-04-26T11:50:06.598Z</time></trkpt><trkpt lat="45.9061561" lon="11.6466985"><ele>1100.0</ele><time>2026-04-26T11:50:07.599Z</time></trkpt><trkpt lat="45.9062624" lon="11.6468955"><ele>1100.0</ele><time>2026-04-26T11:50:08.587Z</time></trkpt><trkpt lat="45.9063605" lon="11.6471336"><ele>1094.3333333333335</ele><time>2026-04-26T11:50:09.583Z</time></trkpt><trkpt lat="45.9064695" lon="11.6473687"><ele>1088.6666666666667</ele><time>2026-04-26T11:50:10.584Z</time></trkpt><trkpt lat="45.9065862" lon="11.6475962"><ele>1083.0</ele><time>2026-04-26T11:50:11.606Z</time></trkpt><trkpt lat="45.9067164" lon="11.6477994"><ele>1080.6666666666667</ele><time>2026-04-26T11:50:12.605Z</time></trkpt><trkpt lat="45.9068738" lon="11.6479765"><ele>1078.3333333333335</ele><time>2026-04-26T11:50:13.604Z</time></trkpt><trkpt lat="45.9070413" lon="11.6481504"><ele>1076.0</ele><time>2026-04-26T11:50:14.609Z</time></trkpt><trkpt lat="45.9072023" lon="11.6483363"><ele>1076.0</ele><time>2026-04-26T11:50:15.603Z</time></trkpt><trkpt lat="45.907348" lon="11.6485388"><ele>1076.0</ele><time>2026-04-26T11:50:16.602Z</time></trkpt><trkpt lat="45.9074788" lon="11.6487373"><ele>1076.0</ele><time>2026-04-26T11:50:17.602Z</time></trkpt><trkpt lat="45.9075935" lon="11.6489586"><ele>1077.6666666666667</ele><time>2026-04-26T11:50:18.605Z</time></trkpt><trkpt lat="45.9077032" lon="11.6491736"><ele>1079.3333333333333</ele><time>2026-04-26T11:50:19.607Z</time></trkpt><trkpt lat="45.9078211" lon="11.6493583"><ele>1081.0</ele><time>2026-04-26T11:50:20.597Z</time></trkpt><trkpt lat="45.9079532" lon="11.6494979"><ele>1075.0</ele><time>2026-04-26T11:50:21.615Z</time></trkpt><trkpt lat="45.9080929" lon="11.6496266"><ele>1069.0</ele><time>2026-04-26T11:50:22.607Z</time></trkpt><trkpt lat="45.9082194" lon="11.6497524"><ele>1063.0</ele><time>2026-04-26T11:50:23.594Z</time></trkpt><trkpt lat="45.9083232" lon="11.6499061"><ele>1063.0</ele><time>2026-04-26T11:50:24.602Z</time></trkpt><trkpt lat="45.9083981" lon="11.6500983"><ele>1063.0</ele><time>2026-04-26T11:50:25.612Z</time></trkpt><trkpt lat="45.9084214" lon="11.6503234"><ele>1063.0</ele><time>2026-04-26T11:50:26.619Z</time></trkpt><trkpt lat="45.9084144" lon="11.6505753"><ele>1065.6666666666665</ele><time>2026-04-26T11:50:27.592Z</time></trkpt><trkpt lat="45.9084142" lon="11.6508239"><ele>1068.3333333333333</ele><time>2026-04-26T11:50:28.599Z</time></trkpt><trkpt lat="45.908426" lon="11.651055"><ele>1071.0</ele><time>2026-04-26T11:50:29.594Z</time></trkpt><trkpt lat="45.9084486" lon="11.6512663"><ele>1064.0</ele><time>2026-04-26T11:50:30.596Z</time></trkpt><trkpt lat="45.9084892" lon="11.6514341"><ele>1057.0</ele><time>2026-04-26T11:50:31.6Z</time></trkpt><trkpt lat="45.9085622" lon="11.6515605"><ele>1050.0</ele><time>2026-04-26T11:50:32.601Z</time></trkpt><trkpt lat="45.9086693" lon="11.6516488"><ele>1043.0</ele><time>2026-04-26T11:50:33.597Z</time></trkpt><trkpt lat="45.9088062" lon="11.6517225"><ele>1043.0</ele><time>2026-04-26T11:50:34.603Z</time></trkpt><trkpt lat="45.9089683" lon="11.6518163"><ele>1043.0</ele><time>2026-04-26T11:50:35.604Z</time></trkpt><trkpt lat="45.9091311" lon="11.6519372"><ele>1043.0</ele><time>2026-04-26T11:50:36.615Z</time></trkpt><trkpt lat="45.90928" lon="11.6520878"><ele>1041.3333333333335</ele><time>2026-04-26T11:50:37.611Z</time></trkpt><trkpt lat="45.909406" lon="11.652265"><ele>1039.6666666666667</ele><time>2026-04-26T11:50:38.602Z</time></trkpt><trkpt lat="45.9095181" lon="11.6524681"><ele>1038.0</ele><time>2026-04-26T11:50:39.604Z</time></trkpt><trkpt lat="45.9096316" lon="11.6526417"><ele>1031.6666666666667</ele><time>2026-04-26T11:50:40.604Z</time></trkpt><trkpt lat="45.9097608" lon="11.6527996"><ele>1025.3333333333335</ele><time>2026-04-26T11:50:41.608Z</time></trkpt><trkpt lat="45.9099051" lon="11.6529114"><ele>1019.0</ele><time>2026-04-26T11:50:42.611Z</time></trkpt><trkpt lat="45.9100704" lon="11.6530052"><ele>1023.3333333333334</ele><time>2026-04-26T11:50:43.597Z</time></trkpt><trkpt lat="45.9102494" lon="11.6531094"><ele>1027.6666666666667</ele><time>2026-04-26T11:50:44.611Z</time></trkpt><trkpt lat="45.9104508" lon="11.6532332"><ele>1032.0</ele><time>2026-04-26T11:50:45.604Z</time></trkpt><trkpt lat="45.9106646" lon="11.6534099"><ele>1026.0</ele><time>2026-04-26T11:50:46.601Z</time></trkpt><trkpt lat="45.9109007" lon="11.6536374"><ele>1020.0</ele><time>2026-04-26T11:50:47.6Z</time></trkpt><trkpt lat="45.9111298" lon="11.6538771"><ele>1020.0</ele><time>2026-04-26T11:50:48.602Z</time></trkpt><trkpt lat="45.9113363" lon="11.6540986"><ele>1020.0</ele><time>2026-04-26T11:50:49.601Z</time></trkpt><trkpt lat="45.9115241" lon="11.6543014"><ele>1016.0</ele><time>2026-04-26T11:50:50.608Z</time></trkpt><trkpt lat="45.9116884" lon="11.6545013"><ele>1012.0</ele><time>2026-04-26T11:50:51.606Z</time></trkpt><trkpt lat="45.9118336" lon="11.6546947"><ele>1008.0</ele><time>2026-04-26T11:50:52.607Z</time></trkpt><trkpt lat="45.911962" lon="11.6548971"><ele>1008.0</ele><time>2026-04-26T11:50:53.615Z</time></trkpt><trkpt lat="45.9120859" lon="11.6551006"><ele>1008.0</ele><time>2026-04-26T11:50:54.605Z</time></trkpt><trkpt lat="45.9122205" lon="11.655293"><ele>1008.0</ele><time>2026-04-26T11:50:55.602Z</time></trkpt><trkpt lat="45.9123531" lon="11.6554446"><ele>1003.5</ele><time>2026-04-26T11:50:56.603Z</time></trkpt><trkpt lat="45.9124858" lon="11.6555662"><ele>999.0</ele><time>2026-04-26T11:50:57.599Z</time></trkpt><trkpt lat="45.9126002" lon="11.6556576"><ele>994.5</ele><time>2026-04-26T11:50:58.601Z</time></trkpt><trkpt lat="45.912703" lon="11.6557078"><ele>990.0</ele><time>2026-04-26T11:50:59.597Z</time></trkpt><trkpt lat="45.9127987" lon="11.6557067"><ele>988.75</ele><time>2026-04-26T11:51:00.594Z</time></trkpt><trkpt lat="45.9128835" lon="11.6556434"><ele>987.5</ele><time>2026-04-26T11:51:01.603Z</time></trkpt><trkpt lat="45.9129516" lon="11.6554985"><ele>986.25</ele><time>2026-04-26T11:51:02.598Z</time></trkpt><trkpt lat="45.9130334" lon="11.6553332"><ele>985.0</ele><time>2026-04-26T11:51:03.592Z</time></trkpt><trkpt lat="45.9131333" lon="11.6551771"><ele>990.0</ele><time>2026-04-26T11:51:04.6Z</time></trkpt><trkpt lat="45.913261" lon="11.6550832"><ele>995.0</ele><time>2026-04-26T11:51:05.61Z</time></trkpt><trkpt lat="45.9134125" lon="11.6550071"><ele>1000.0</ele><time>2026-04-26T11:51:06.595Z</time></trkpt><trkpt lat="45.9135694" lon="11.6548859"><ele>999.6666666666666</ele><time>2026-04-26T11:51:07.602Z</time></trkpt><trkpt lat="45.9137328" lon="11.6547269"><ele>999.3333333333333</ele><time>2026-04-26T11:51:08.607Z</time></trkpt><trkpt lat="45.9138904" lon="11.6545427"><ele>999.0</ele><time>2026-04-26T11:51:09.606Z</time></trkpt><trkpt lat="45.9140287" lon="11.6543765"><ele>999.0</ele><time>2026-04-26T11:51:10.604Z</time></trkpt><trkpt lat="45.9141555" lon="11.6542292"><ele>999.0</ele><time>2026-04-26T11:51:11.598Z</time></trkpt><trkpt lat="45.9142579" lon="11.6541087"><ele>999.0</ele><time>2026-04-26T11:51:12.6Z</time></trkpt><trkpt lat="45.9143363" lon="11.6540449"><ele>999.0</ele><time>2026-04-26T11:51:13.605Z</time></trkpt><trkpt lat="45.9144207" lon="11.6540093"><ele>989.4000000000001</ele><time>2026-04-26T11:51:14.613Z</time></trkpt><trkpt lat="45.9145046" lon="11.6540023"><ele>979.8000000000001</ele><time>2026-04-26T11:51:15.612Z</time></trkpt><trkpt lat="45.9146101" lon="11.6540194"><ele>970.1999999999999</ele><time>2026-04-26T11:51:16.591Z</time></trkpt><trkpt lat="45.914718" lon="11.6540593"><ele>960.5999999999999</ele><time>2026-04-26T11:51:17.599Z</time></trkpt><trkpt lat="45.9148278" lon="11.6541158"><ele>951.0</ele><time>2026-04-26T11:51:18.598Z</time></trkpt><trkpt lat="45.9149198" lon="11.6542019"><ele>951.0</ele><time>2026-04-26T11:51:19.593Z</time></trkpt><trkpt lat="45.9150141" lon="11.6542976"><ele>950.9999999999999</ele><time>2026-04-26T11:51:20.586Z</time></trkpt><trkpt lat="45.9151153" lon="11.6543865"><ele>950.9999999999999</ele><time>2026-04-26T11:51:21.593Z</time></trkpt><trkpt lat="45.9152046" lon="11.6544713"><ele>951.0</ele><time>2026-04-26T11:51:22.599Z</time></trkpt><trkpt lat="45.9152947" lon="11.6545487"><ele>951.0</ele><time>2026-04-26T11:51:23.593Z</time></trkpt><trkpt lat="45.915385" lon="11.6546236"><ele>931.1999999999999</ele><time>2026-04-26T11:51:24.593Z</time></trkpt><trkpt lat="45.9154749" lon="11.6547002"><ele>911.3999999999999</ele><time>2026-04-26T11:51:25.604Z</time></trkpt><trkpt lat="45.9155669" lon="11.6547735"><ele>891.6</ele><time>2026-04-26T11:51:26.598Z</time></trkpt><trkpt lat="45.915652" lon="11.6548478"><ele>871.8</ele><time>2026-04-26T11:51:27.611Z</time></trkpt><trkpt lat="45.9157407" lon="11.6549332"><ele>852.0</ele><time>2026-04-26T11:51:28.608Z</time></trkpt><trkpt lat="45.9158267" lon="11.6550154"><ele>857.0</ele><time>2026-04-26T11:51:29.607Z</time></trkpt><trkpt lat="45.9159107" lon="11.6550947"><ele>862.0</ele><time>2026-04-26T11:51:30.59Z</time></trkpt><trkpt lat="45.9159981" lon="11.655175"><ele>867.0</ele><time>2026-04-26T11:51:31.601Z</time></trkpt><trkpt lat="45.9160834" lon="11.6552548"><ele>872.0</ele><time>2026-04-26T11:51:32.595Z</time></trkpt><trkpt lat="45.916172" lon="11.6553293"><ele>877.0</ele><time>2026-04-26T11:51:33.59Z</time></trkpt><trkpt lat="45.916257" lon="11.6554032"><ele>885.0</ele><time>2026-04-26T11:51:34.608Z</time></trkpt><trkpt lat="45.9163437" lon="11.6554839"><ele>893.0</ele><time>2026-04-26T11:51:35.6Z</time></trkpt><trkpt lat="45.9164273" lon="11.655558"><ele>901.0</ele><time>2026-04-26T11:51:36.608Z</time></trkpt><trkpt lat="45.9165152" lon="11.6556404"><ele>909.0</ele><time>2026-04-26T11:51:37.597Z</time></trkpt><trkpt lat="45.9166073" lon="11.6557259"><ele>917.0</ele><time>2026-04-26T11:51:38.605Z</time></trkpt><trkpt lat="45.916705" lon="11.6558147"><ele>925.6</ele><time>2026-04-26T11:51:39.59Z</time></trkpt><trkpt lat="45.9167979" lon="11.6559022"><ele>934.2</ele><time>2026-04-26T11:51:40.605Z</time></trkpt><trkpt lat="45.9168772" lon="11.656"><ele>942.8</ele><time>2026-04-26T11:51:41.605Z</time></trkpt><trkpt lat="45.9169372" lon="11.6561132"><ele>951.4</ele><time>2026-04-26T11:51:42.612Z</time></trkpt><trkpt lat="45.9169772" lon="11.6562192"><ele>960.0</ele><time>2026-04-26T11:51:43.608Z</time></trkpt><trkpt lat="45.9170033" lon="11.6563723"><ele>961.8</ele><time>2026-04-26T11:51:45.602Z</time></trkpt><trkpt lat="45.9170111" lon="11.6564676"><ele>963.6</ele><time>2026-04-26T11:51:47.606Z</time></trkpt><trkpt lat="45.917051" lon="11.6565813"><ele>965.4000000000001</ele><time>2026-04-26T12:05:02.598Z</time></trkpt><trkpt lat="45.917111" lon="11.6567407"><ele>967.2</ele><time>2026-04-26T12:05:04.6Z</time></trkpt><trkpt lat="45.9171457" lon="11.6568478"><ele>969.0</ele><time>2026-04-26T12:05:05.614Z</time></trkpt><trkpt lat="45.9171886" lon="11.6569697"><ele>969.0</ele><time>2026-04-26T12:05:06.594Z</time></trkpt><trkpt lat="45.9172546" lon="11.6571136"><ele>969.0</ele><time>2026-04-26T12:05:07.618Z</time></trkpt><trkpt lat="45.9173199" lon="11.6572581"><ele>969.0</ele><time>2026-04-26T12:05:08.61Z</time></trkpt><trkpt lat="45.9173865" lon="11.6574119"><ele>969.0</ele><time>2026-04-26T12:05:09.602Z</time></trkpt><trkpt lat="45.9174514" lon="11.6575681"><ele>969.0</ele><time>2026-04-26T12:05:10.602Z</time></trkpt><trkpt lat="45.9175112" lon="11.6577279"><ele>969.0</ele><time>2026-04-26T12:05:11.612Z</time></trkpt><trkpt lat="45.9175786" lon="11.6578826"><ele>969.0</ele><time>2026-04-26T12:05:12.592Z</time></trkpt><trkpt lat="45.9176521" lon="11.6580375"><ele>969.0</ele><time>2026-04-26T12:05:13.597Z</time></trkpt><trkpt lat="45.9177263" lon="11.6582029"><ele>980.5</ele><time>2026-04-26T12:05:14.606Z</time></trkpt><trkpt lat="45.917804" lon="11.6583725"><ele>992.0</ele><time>2026-04-26T12:05:15.601Z</time></trkpt><trkpt lat="45.9178836" lon="11.6585516"><ele>1003.5</ele><time>2026-04-26T12:05:16.605Z</time></trkpt><trkpt lat="45.9179574" lon="11.6587426"><ele>1015.0</ele><time>2026-04-26T12:05:17.598Z</time></trkpt><trkpt lat="45.9180289" lon="11.6589351"><ele>1015.0</ele><time>2026-04-26T12:05:18.605Z</time></trkpt><trkpt lat="45.9180838" lon="11.659138"><ele>1015.0</ele><time>2026-04-26T12:05:19.607Z</time></trkpt><trkpt lat="45.9181216" lon="11.6593415"><ele>1015.0</ele><time>2026-04-26T12:05:20.591Z</time></trkpt><trkpt lat="45.918135" lon="11.6595535"><ele>1015.0</ele><time>2026-04-26T12:05:21.599Z</time></trkpt><trkpt lat="45.9181185" lon="11.659755"><ele>1014.0</ele><time>2026-04-26T12:05:22.592Z</time></trkpt><trkpt lat="45.9180731" lon="11.6599277"><ele>1013.0</ele><time>2026-04-26T12:05:23.59Z</time></trkpt><trkpt lat="45.9180012" lon="11.6600674"><ele>1012.0</ele><time>2026-04-26T12:05:24.597Z</time></trkpt><trkpt lat="45.9179102" lon="11.6601722"><ele>1011.0</ele><time>2026-04-26T12:05:25.606Z</time></trkpt><trkpt lat="45.9178212" lon="11.6602548"><ele>1011.5999999999999</ele><time>2026-04-26T12:05:26.617Z</time></trkpt><trkpt lat="45.917743" lon="11.6603392"><ele>1012.1999999999999</ele><time>2026-04-26T12:05:27.605Z</time></trkpt><trkpt lat="45.9176929" lon="11.6604375"><ele>1012.8000000000001</ele><time>2026-04-26T12:05:28.597Z</time></trkpt><trkpt lat="45.9176858" lon="11.660548"><ele>1013.4000000000001</ele><time>2026-04-26T12:05:29.597Z</time></trkpt><trkpt lat="45.9177208" lon="11.6606838"><ele>1014.0</ele><time>2026-04-26T12:05:30.593Z</time></trkpt><trkpt lat="45.9177859" lon="11.660829"><ele>1014.0</ele><time>2026-04-26T12:05:31.605Z</time></trkpt><trkpt lat="45.9178722" lon="11.6609964"><ele>1014.0</ele><time>2026-04-26T12:05:32.596Z</time></trkpt><trkpt lat="45.9179736" lon="11.6611769"><ele>1014.0</ele><time>2026-04-26T12:05:33.594Z</time></trkpt><trkpt lat="45.91808" lon="11.6613599"><ele>1008.0</ele><time>2026-04-26T12:05:34.605Z</time></trkpt><trkpt lat="45.9181924" lon="11.6615411"><ele>1002.0</ele><time>2026-04-26T12:05:35.603Z</time></trkpt><trkpt lat="45.918314" lon="11.6617322"><ele>996.0</ele><time>2026-04-26T12:05:36.616Z</time></trkpt><trkpt lat="45.9184456" lon="11.6619363"><ele>1001.0</ele><time>2026-04-26T12:05:37.59Z</time></trkpt><trkpt lat="45.9185754" lon="11.6621418"><ele>1006.0</ele><time>2026-04-26T12:05:38.592Z</time></trkpt><trkpt lat="45.918708" lon="11.6623546"><ele>1011.0</ele><time>2026-04-26T12:05:39.588Z</time></trkpt><trkpt lat="45.9188306" lon="11.662574"><ele>1011.0</ele><time>2026-04-26T12:05:40.607Z</time></trkpt><trkpt lat="45.9189385" lon="11.6627732"><ele>1011.0</ele><time>2026-04-26T12:05:41.604Z</time></trkpt><trkpt lat="45.9190395" lon="11.6629621"><ele>1011.0</ele><time>2026-04-26T12:05:42.603Z</time></trkpt><trkpt lat="45.9191354" lon="11.6631217"><ele>1012.0</ele><time>2026-04-26T12:05:43.609Z</time></trkpt><trkpt lat="45.9192365" lon="11.6632434"><ele>1013.0</ele><time>2026-04-26T12:05:44.606Z</time></trkpt><trkpt lat="45.9193341" lon="11.6633423"><ele>1014.0</ele><time>2026-04-26T12:05:45.61Z</time></trkpt><trkpt lat="45.919441" lon="11.6634313"><ele>1015.0</ele><time>2026-04-26T12:05:46.598Z</time></trkpt><trkpt lat="45.91956" lon="11.6635418"><ele>1008.0</ele><time>2026-04-26T12:05:47.599Z</time></trkpt><trkpt lat="45.919672" lon="11.6636736"><ele>1001.0</ele><time>2026-04-26T12:05:48.599Z</time></trkpt><trkpt lat="45.9197963" lon="11.6638184"><ele>994.0</ele><time>2026-04-26T12:05:49.592Z</time></trkpt><trkpt lat="45.9199136" lon="11.6639219"><ele>987.0</ele><time>2026-04-26T12:05:50.613Z</time></trkpt><trkpt lat="45.9200432" lon="11.6639803"><ele>994.0</ele><time>2026-04-26T12:05:51.6Z</time></trkpt><trkpt lat="45.9201927" lon="11.6640262"><ele>1001.0</ele><time>2026-04-26T12:05:52.596Z</time></trkpt><trkpt lat="45.9203436" lon="11.6641121"><ele>1008.0</ele><time>2026-04-26T12:05:53.589Z</time></trkpt><trkpt lat="45.9204885" lon="11.6642236"><ele>1008.0</ele><time>2026-04-26T12:05:54.594Z</time></trkpt><trkpt lat="45.9206046" lon="11.6643719"><ele>1008.0</ele><time>2026-04-26T12:05:55.625Z</time></trkpt><trkpt lat="45.9207035" lon="11.6645283"><ele>1008.0</ele><time>2026-04-26T12:05:56.582Z</time></trkpt><trkpt lat="45.9208011" lon="11.6646707"><ele>1008.0</ele><time>2026-04-26T12:05:57.58Z</time></trkpt><trkpt lat="45.9209119" lon="11.6647585"><ele>1008.25</ele><time>2026-04-26T12:05:58.595Z</time></trkpt><trkpt lat="45.9210552" lon="11.664831"><ele>1008.5</ele><time>2026-04-26T12:05:59.596Z</time></trkpt><trkpt lat="45.9212074" lon="11.6648745"><ele>1008.75</ele><time>2026-04-26T12:06:00.611Z</time></trkpt><trkpt lat="45.9213331" lon="11.6649435"><ele>1009.0</ele><time>2026-04-26T12:06:01.598Z</time></trkpt><trkpt lat="45.9214301" lon="11.665078"><ele>1009.0</ele><time>2026-04-26T12:06:02.586Z</time></trkpt><trkpt lat="45.9215418" lon="11.6652689"><ele>1009.0</ele><time>2026-04-26T12:06:03.6Z</time></trkpt><trkpt lat="45.9216504" lon="11.6654875"><ele>1009.0</ele><time>2026-04-26T12:06:04.602Z</time></trkpt><trkpt lat="45.9218002" lon="11.6656851"><ele>1012.3333333333333</ele><time>2026-04-26T12:06:05.608Z</time></trkpt><trkpt lat="45.92195" lon="11.6658764"><ele>1015.6666666666667</ele><time>2026-04-26T12:06:06.597Z</time></trkpt><trkpt lat="45.922071" lon="11.6660833"><ele>1019.0</ele><time>2026-04-26T12:06:07.603Z</time></trkpt><trkpt lat="45.9221703" lon="11.6662764"><ele>1019.0</ele><time>2026-04-26T12:06:08.594Z</time></trkpt><trkpt lat="45.9222468" lon="11.6664469"><ele>1019.0</ele><time>2026-04-26T12:06:09.597Z</time></trkpt><trkpt lat="45.9223009" lon="11.6666103"><ele>1019.0</ele><time>2026-04-26T12:06:10.592Z</time></trkpt><trkpt lat="45.9223353" lon="11.6667502"><ele>1019.0</ele><time>2026-04-26T12:06:11.597Z</time></trkpt><trkpt lat="45.9223665" lon="11.666879"><ele>1019.0</ele><time>2026-04-26T12:06:12.594Z</time></trkpt><trkpt lat="45.9223364" lon="11.6670019"><ele>1019.0</ele><time>2026-04-26T12:06:14.589Z</time></trkpt><trkpt lat="45.9222028" lon="11.6669614"><ele>1019.0</ele><time>2026-04-26T12:06:15.59Z</time></trkpt><trkpt lat="45.9220286" lon="11.6668577"><ele>1019.0</ele><time>2026-04-26T12:06:16.597Z</time></trkpt><trkpt lat="45.9218447" lon="11.6667678"><ele>1017.0</ele><time>2026-04-26T12:06:17.585Z</time></trkpt><trkpt lat="45.9216307" lon="11.666753"><ele>1015.0</ele><time>2026-04-26T12:06:18.591Z</time></trkpt><trkpt lat="45.9213729" lon="11.6667635"><ele>1015.0</ele><time>2026-04-26T12:06:19.588Z</time></trkpt><trkpt lat="45.9211334" lon="11.6667901"><ele>1015.0</ele><time>2026-04-26T12:06:20.591Z</time></trkpt><trkpt lat="45.9209361" lon="11.6668361"><ele>1015.0</ele><time>2026-04-26T12:06:21.586Z</time></trkpt><trkpt lat="45.920779" lon="11.6668978"><ele>1019.0</ele><time>2026-04-26T12:06:22.603Z</time></trkpt><trkpt lat="45.9206467" lon="11.6669865"><ele>1023.0</ele><time>2026-04-26T12:06:23.597Z</time></trkpt><trkpt lat="45.9205676" lon="11.6671375"><ele>1027.0</ele><time>2026-04-26T12:06:24.595Z</time></trkpt><trkpt lat="45.9205234" lon="11.6673033"><ele>1031.0</ele><time>2026-04-26T12:06:25.6Z</time></trkpt><trkpt lat="45.9204916" lon="11.6675154"><ele>1031.0</ele><time>2026-04-26T12:06:26.589Z</time></trkpt><trkpt lat="45.9204751" lon="11.6677624"><ele>1031.0</ele><time>2026-04-26T12:06:27.614Z</time></trkpt><trkpt lat="45.920464" lon="11.668018"><ele>1031.0</ele><time>2026-04-26T12:06:28.591Z</time></trkpt><trkpt lat="45.9204673" lon="11.6682379"><ele>1034.2</ele><time>2026-04-26T12:06:29.59Z</time></trkpt><trkpt lat="45.9204771" lon="11.6684283"><ele>1037.3999999999999</ele><time>2026-04-26T12:06:30.593Z</time></trkpt><trkpt lat="45.9204597" lon="11.6685808"><ele>1040.6</ele><time>2026-04-26T12:06:31.592Z</time></trkpt><trkpt lat="45.9204008" lon="11.6686741"><ele>1043.8</ele><time>2026-04-26T12:06:32.619Z</time></trkpt><trkpt lat="45.9203082" lon="11.668702"><ele>1047.0</ele><time>2026-04-26T12:06:33.604Z</time></trkpt><trkpt lat="45.9201998" lon="11.6687103"><ele>1046.75</ele><time>2026-04-26T12:06:34.605Z</time></trkpt><trkpt lat="45.9200867" lon="11.6687355"><ele>1046.5</ele><time>2026-04-26T12:06:35.589Z</time></trkpt><trkpt lat="45.9199881" lon="11.6688197"><ele>1046.25</ele><time>2026-04-26T12:06:36.59Z</time></trkpt><trkpt lat="45.9198921" lon="11.6689311"><ele>1046.0</ele><time>2026-04-26T12:06:37.595Z</time></trkpt><trkpt lat="45.9197937" lon="11.6690224"><ele>1046.0</ele><time>2026-04-26T12:06:38.598Z</time></trkpt><trkpt lat="45.9196861" lon="11.6689965"><ele>1046.0</ele><time>2026-04-26T12:06:39.583Z</time></trkpt><trkpt lat="45.9195262" lon="11.668842"><ele>1046.0</ele><time>2026-04-26T12:06:40.589Z</time></trkpt><trkpt lat="45.9193603" lon="11.6686851"><ele>1037.3333333333335</ele><time>2026-04-26T12:06:41.592Z</time></trkpt><trkpt lat="45.9191823" lon="11.6685664"><ele>1028.6666666666667</ele><time>2026-04-26T12:06:42.596Z</time></trkpt><trkpt lat="45.9190173" lon="11.6685114"><ele>1020.0</ele><time>2026-04-26T12:06:43.601Z</time></trkpt><trkpt lat="45.9188634" lon="11.668522"><ele>1020.0</ele><time>2026-04-26T12:06:44.586Z</time></trkpt><trkpt lat="45.9187072" lon="11.6685621"><ele>1020.0</ele><time>2026-04-26T12:06:45.598Z</time></trkpt><trkpt lat="45.9185393" lon="11.6685946"><ele>1020.0</ele><time>2026-04-26T12:06:46.589Z</time></trkpt><trkpt lat="45.9183586" lon="11.6685785"><ele>1024.0</ele><time>2026-04-26T12:06:47.593Z</time></trkpt><trkpt lat="45.9181823" lon="11.668532"><ele>1028.0</ele><time>2026-04-26T12:06:48.599Z</time></trkpt><trkpt lat="45.9180066" lon="11.6684539"><ele>1032.0</ele><time>2026-04-26T12:06:49.58Z</time></trkpt><trkpt lat="45.9178282" lon="11.6683696"><ele>1032.0</ele><time>2026-04-26T12:06:50.58Z</time></trkpt><trkpt lat="45.9176448" lon="11.6682953"><ele>1032.0</ele><time>2026-04-26T12:06:51.6Z</time></trkpt><trkpt lat="45.9174683" lon="11.6682456"><ele>1032.0</ele><time>2026-04-26T12:06:52.594Z</time></trkpt><trkpt lat="45.9172975" lon="11.6682062"><ele>1035.0</ele><time>2026-04-26T12:06:53.606Z</time></trkpt><trkpt lat="45.9171454" lon="11.6681799"><ele>1038.0</ele><time>2026-04-26T12:06:54.598Z</time></trkpt><trkpt lat="45.9170071" lon="11.6681978"><ele>1041.0</ele><time>2026-04-26T12:06:55.597Z</time></trkpt><trkpt lat="45.9168913" lon="11.6682733"><ele>1044.0</ele><time>2026-04-26T12:06:56.593Z</time></trkpt><trkpt lat="45.9167739" lon="11.6683583"><ele>1044.0</ele><time>2026-04-26T12:06:57.589Z</time></trkpt><trkpt lat="45.9166747" lon="11.6684596"><ele>1044.0</ele><time>2026-04-26T12:06:58.586Z</time></trkpt><trkpt lat="45.9165633" lon="11.6685686"><ele>1044.0</ele><time>2026-04-26T12:06:59.598Z</time></trkpt><trkpt lat="45.9164219" lon="11.6686632"><ele>1044.0</ele><time>2026-04-26T12:07:00.599Z</time></trkpt><trkpt lat="45.9162521" lon="11.6687163"><ele>1053.3333333333333</ele><time>2026-04-26T12:07:01.585Z</time></trkpt><trkpt lat="45.9160615" lon="11.6687441"><ele>1062.6666666666665</ele><time>2026-04-26T12:07:02.599Z</time></trkpt><trkpt lat="45.9158481" lon="11.6687383"><ele>1072.0</ele><time>2026-04-26T12:07:03.603Z</time></trkpt><trkpt lat="45.9156533" lon="11.6687295"><ele>1072.0</ele><time>2026-04-26T12:07:04.59Z</time></trkpt><trkpt lat="45.9154675" lon="11.6687238"><ele>1072.0</ele><time>2026-04-26T12:07:05.587Z</time></trkpt><trkpt lat="45.9152853" lon="11.6686995"><ele>1072.0</ele><time>2026-04-26T12:07:06.59Z</time></trkpt><trkpt lat="45.9151117" lon="11.6686468"><ele>1063.3333333333333</ele><time>2026-04-26T12:07:07.591Z</time></trkpt><trkpt lat="45.9149458" lon="11.668559"><ele>1054.6666666666667</ele><time>2026-04-26T12:07:08.596Z</time></trkpt><trkpt lat="45.9147909" lon="11.6684451"><ele>1046.0</ele><time>2026-04-26T12:07:09.59Z</time></trkpt><trkpt lat="45.9146424" lon="11.6683329"><ele>1046.0</ele><time>2026-04-26T12:07:10.612Z</time></trkpt><trkpt lat="45.9145073" lon="11.6682389"><ele>1046.0</ele><time>2026-04-26T12:07:11.6Z</time></trkpt><trkpt lat="45.914369" lon="11.6681758"><ele>1046.0</ele><time>2026-04-26T12:07:12.607Z</time></trkpt><trkpt lat="45.914234" lon="11.6681491"><ele>1046.0</ele><time>2026-04-26T12:07:13.596Z</time></trkpt><trkpt lat="45.9141125" lon="11.6681429"><ele>1045.5</ele><time>2026-04-26T12:07:14.597Z</time></trkpt><trkpt lat="45.9139923" lon="11.6681888"><ele>1045.0</ele><time>2026-04-26T12:07:15.596Z</time></trkpt><trkpt lat="45.9138841" lon="11.6682667"><ele>1044.5</ele><time>2026-04-26T12:07:16.603Z</time></trkpt><trkpt lat="45.9138281" lon="11.6683977"><ele>1044.0</ele><time>2026-04-26T12:07:17.601Z</time></trkpt><trkpt lat="45.9138375" lon="11.6685569"><ele>1044.75</ele><time>2026-04-26T12:07:18.589Z</time></trkpt><trkpt lat="45.9138798" lon="11.6687313"><ele>1045.5</ele><time>2026-04-26T12:07:19.602Z</time></trkpt><trkpt lat="45.9139577" lon="11.6689065"><ele>1046.25</ele><time>2026-04-26T12:07:20.593Z</time></trkpt><trkpt lat="45.9140462" lon="11.6691187"><ele>1047.0</ele><time>2026-04-26T12:07:21.589Z</time></trkpt><trkpt lat="45.9141464" lon="11.6693293"><ele>1054.0</ele><time>2026-04-26T12:07:22.585Z</time></trkpt><trkpt lat="45.9142447" lon="11.6695465"><ele>1061.0</ele><time>2026-04-26T12:07:23.604Z</time></trkpt><trkpt lat="45.9143479" lon="11.6697796"><ele>1068.0</ele><time>2026-04-26T12:07:24.6Z</time></trkpt><trkpt lat="45.9144548" lon="11.6700244"><ele>1066.3333333333333</ele><time>2026-04-26T12:07:25.601Z</time></trkpt><trkpt lat="45.9145638" lon="11.6702793"><ele>1064.6666666666665</ele><time>2026-04-26T12:07:26.604Z</time></trkpt><trkpt lat="45.9146568" lon="11.6705257"><ele>1063.0</ele><time>2026-04-26T12:07:27.582Z</time></trkpt><trkpt lat="45.9147423" lon="11.6707552"><ele>1063.0</ele><time>2026-04-26T12:07:28.59Z</time></trkpt><trkpt lat="45.9148247" lon="11.6709817"><ele>1063.0</ele><time>2026-04-26T12:07:29.584Z</time></trkpt><trkpt lat="45.9149042" lon="11.6712042"><ele>1063.0</ele><time>2026-04-26T12:07:30.583Z</time></trkpt><trkpt lat="45.914967" lon="11.6714139"><ele>1061.3333333333333</ele><time>2026-04-26T12:07:31.59Z</time></trkpt><trkpt lat="45.9149874" lon="11.6716281"><ele>1059.6666666666667</ele><time>2026-04-26T12:07:32.597Z</time></trkpt><trkpt lat="45.9149844" lon="11.671859"><ele>1058.0</ele><time>2026-04-26T12:07:33.601Z</time></trkpt><trkpt lat="45.9149526" lon="11.6721171"><ele>1058.0</ele><time>2026-04-26T12:07:34.586Z</time></trkpt><trkpt lat="45.9149345" lon="11.6723864"><ele>1058.0</ele><time>2026-04-26T12:07:35.603Z</time></trkpt><trkpt lat="45.9149338" lon="11.6726461"><ele>1058.0</ele><time>2026-04-26T12:07:36.591Z</time></trkpt><trkpt lat="45.914941" lon="11.6729111"><ele>1058.6666666666667</ele><time>2026-04-26T12:07:37.605Z</time></trkpt><trkpt lat="45.9149478" lon="11.6731769"><ele>1059.3333333333333</ele><time>2026-04-26T12:07:38.604Z</time></trkpt><trkpt lat="45.9149571" lon="11.6734377"><ele>1060.0</ele><time>2026-04-26T12:07:39.611Z</time></trkpt><trkpt lat="45.9149729" lon="11.673678"><ele>1060.0</ele><time>2026-04-26T12:07:40.584Z</time></trkpt><trkpt lat="45.9149895" lon="11.6739203"><ele>1060.0</ele><time>2026-04-26T12:07:41.597Z</time></trkpt><trkpt lat="45.9149985" lon="11.674161"><ele>1060.0</ele><time>2026-04-26T12:07:42.595Z</time></trkpt><trkpt lat="45.9149908" lon="11.674383"><ele>1061.5</ele><time>2026-04-26T12:07:43.601Z</time></trkpt><trkpt lat="45.9149668" lon="11.6746078"><ele>1063.0</ele><time>2026-04-26T12:07:44.595Z</time></trkpt><trkpt lat="45.9149285" lon="11.6748127"><ele>1064.5</ele><time>2026-04-26T12:07:45.6Z</time></trkpt><trkpt lat="45.9148868" lon="11.6749964"><ele>1066.0</ele><time>2026-04-26T12:07:46.59Z</time></trkpt><trkpt lat="45.9148549" lon="11.6751666"><ele>1064.3999999999999</ele><time>2026-04-26T12:07:47.598Z</time></trkpt><trkpt lat="45.9148465" lon="11.6753211"><ele>1062.8</ele><time>2026-04-26T12:07:48.594Z</time></trkpt><trkpt lat="45.9148694" lon="11.6754391"><ele>1061.1999999999998</ele><time>2026-04-26T12:07:49.597Z</time></trkpt><trkpt lat="45.9149234" lon="11.6755246"><ele>1059.6</ele><time>2026-04-26T12:07:50.595Z</time></trkpt><trkpt lat="45.9150116" lon="11.6755711"><ele>1058.0</ele><time>2026-04-26T12:07:51.607Z</time></trkpt><trkpt lat="45.9151247" lon="11.6755752"><ele>1054.6666666666667</ele><time>2026-04-26T12:07:52.601Z</time></trkpt><trkpt lat="45.9152624" lon="11.6755506"><ele>1051.3333333333333</ele><time>2026-04-26T12:07:53.596Z</time></trkpt><trkpt lat="45.9154082" lon="11.6754993"><ele>1048.0</ele><time>2026-04-26T12:07:54.595Z</time></trkpt><trkpt lat="45.9155654" lon="11.6754444"><ele>1048.0</ele><time>2026-04-26T12:07:55.599Z</time></trkpt><trkpt lat="45.9157174" lon="11.6753931"><ele>1048.0</ele><time>2026-04-26T12:07:56.594Z</time></trkpt><trkpt lat="45.9158712" lon="11.6753358"><ele>1048.0</ele><time>2026-04-26T12:07:57.611Z</time></trkpt><trkpt lat="45.9160223" lon="11.6752813"><ele>1055.0</ele><time>2026-04-26T12:07:58.609Z</time></trkpt><trkpt lat="45.9161776" lon="11.6752228"><ele>1062.0</ele><time>2026-04-26T12:07:59.609Z</time></trkpt><trkpt lat="45.9163359" lon="11.6751686"><ele>1069.0</ele><time>2026-04-26T12:08:00.588Z</time></trkpt><trkpt lat="45.9164997" lon="11.6751178"><ele>1069.0</ele><time>2026-04-26T12:08:01.601Z</time></trkpt><trkpt lat="45.9166612" lon="11.6750672"><ele>1069.0</ele><time>2026-04-26T12:08:02.6Z</time></trkpt><trkpt lat="45.916817" lon="11.6750069"><ele>1069.0</ele><time>2026-04-26T12:08:03.589Z</time></trkpt><trkpt lat="45.9169592" lon="11.6749114"><ele>1066.0</ele><time>2026-04-26T12:08:04.598Z</time></trkpt><trkpt lat="45.9170929" lon="11.6747836"><ele>1063.0</ele><time>2026-04-26T12:08:05.592Z</time></trkpt><trkpt lat="45.9172276" lon="11.6746427"><ele>1060.0</ele><time>2026-04-26T12:08:06.603Z</time></trkpt><trkpt lat="45.917364" lon="11.67453"><ele>1064.5</ele><time>2026-04-26T12:08:07.602Z</time></trkpt><trkpt lat="45.9174972" lon="11.674435"><ele>1069.0</ele><time>2026-04-26T12:08:08.597Z</time></trkpt><trkpt lat="45.9176281" lon="11.6743768"><ele>1073.5</ele><time>2026-04-26T12:08:09.594Z</time></trkpt><trkpt lat="45.9177713" lon="11.6743396"><ele>1078.0</ele><time>2026-04-26T12:08:10.619Z</time></trkpt><trkpt lat="45.9179253" lon="11.6743369"><ele>1079.0</ele><time>2026-04-26T12:08:11.597Z</time></trkpt><trkpt lat="45.9180828" lon="11.6743648"><ele>1080.0</ele><time>2026-04-26T12:08:12.599Z</time></trkpt><trkpt lat="45.9182292" lon="11.6744261"><ele>1081.0</ele><time>2026-04-26T12:08:13.599Z</time></trkpt><trkpt lat="45.9183729" lon="11.6745302"><ele>1081.3333333333333</ele><time>2026-04-26T12:08:14.602Z</time></trkpt><trkpt lat="45.9185143" lon="11.6746875"><ele>1081.6666666666667</ele><time>2026-04-26T12:08:15.598Z</time></trkpt><trkpt lat="45.9186478" lon="11.6748812"><ele>1082.0</ele><time>2026-04-26T12:08:16.606Z</time></trkpt><trkpt lat="45.918783" lon="11.6751099"><ele>1079.6666666666667</ele><time>2026-04-26T12:08:17.602Z</time></trkpt><trkpt lat="45.9189084" lon="11.6753367"><ele>1077.3333333333333</ele><time>2026-04-26T12:08:18.602Z</time></trkpt><trkpt lat="45.9190228" lon="11.6755466"><ele>1075.0</ele><time>2026-04-26T12:08:19.596Z</time></trkpt><trkpt lat="45.9191339" lon="11.6757164"><ele>1078.0</ele><time>2026-04-26T12:08:20.608Z</time></trkpt><trkpt lat="45.9192568" lon="11.6758414"><ele>1081.0</ele><time>2026-04-26T12:08:21.606Z</time></trkpt><trkpt lat="45.9194028" lon="11.675936"><ele>1084.0</ele><time>2026-04-26T12:08:22.617Z</time></trkpt><trkpt lat="45.9195814" lon="11.6760001"><ele>1084.0</ele><time>2026-04-26T12:08:23.595Z</time></trkpt><trkpt lat="45.9197839" lon="11.6760509"><ele>1084.0</ele><time>2026-04-26T12:08:24.59Z</time></trkpt><trkpt lat="45.9199868" lon="11.6760948"><ele>1084.0</ele><time>2026-04-26T12:08:25.603Z</time></trkpt><trkpt lat="45.9201618" lon="11.6761464"><ele>1079.0</ele><time>2026-04-26T12:08:26.601Z</time></trkpt><trkpt lat="45.9203335" lon="11.6761894"><ele>1074.0</ele><time>2026-04-26T12:08:27.608Z</time></trkpt><trkpt lat="45.920496" lon="11.6762111"><ele>1069.0</ele><time>2026-04-26T12:08:28.6Z</time></trkpt><trkpt lat="45.9206516" lon="11.6761949"><ele>1069.0</ele><time>2026-04-26T12:08:29.603Z</time></trkpt><trkpt lat="45.9207959" lon="11.6762044"><ele>1069.0</ele><time>2026-04-26T12:08:30.6Z</time></trkpt><trkpt lat="45.9209302" lon="11.6762505"><ele>1069.0</ele><time>2026-04-26T12:08:31.598Z</time></trkpt><trkpt lat="45.9210654" lon="11.6763618"><ele>1069.0</ele><time>2026-04-26T12:08:32.603Z</time></trkpt><trkpt lat="45.9211994" lon="11.676489"><ele>1072.0</ele><time>2026-04-26T12:08:33.597Z</time></trkpt><trkpt lat="45.9213347" lon="11.6765852"><ele>1075.0</ele><time>2026-04-26T12:08:34.615Z</time></trkpt><trkpt lat="45.9214725" lon="11.6766241"><ele>1078.0</ele><time>2026-04-26T12:08:35.597Z</time></trkpt><trkpt lat="45.9216212" lon="11.6766232"><ele>1081.0</ele><time>2026-04-26T12:08:36.624Z</time></trkpt><trkpt lat="45.9217963" lon="11.6765997"><ele>1082.0</ele><time>2026-04-26T12:08:37.598Z</time></trkpt><trkpt lat="45.9219827" lon="11.6765571"><ele>1083.0</ele><time>2026-04-26T12:08:38.592Z</time></trkpt><trkpt lat="45.9221877" lon="11.6765234"><ele>1084.0</ele><time>2026-04-26T12:08:39.6Z</time></trkpt><trkpt lat="45.9224082" lon="11.6764876"><ele>1083.3333333333333</ele><time>2026-04-26T12:08:40.593Z</time></trkpt><trkpt lat="45.9226426" lon="11.6764578"><ele>1082.6666666666667</ele><time>2026-04-26T12:08:41.6Z</time></trkpt><trkpt lat="45.9228547" lon="11.6764191"><ele>1082.0</ele><time>2026-04-26T12:08:42.594Z</time></trkpt><trkpt lat="45.9230338" lon="11.6763572"><ele>1082.0</ele><time>2026-04-26T12:08:43.599Z</time></trkpt><trkpt lat="45.9232075" lon="11.676296"><ele>1082.0</ele><time>2026-04-26T12:08:44.599Z</time></trkpt><trkpt lat="45.9233722" lon="11.6762534"><ele>1082.0</ele><time>2026-04-26T12:08:45.592Z</time></trkpt><trkpt lat="45.9235241" lon="11.6762671"><ele>1081.0</ele><time>2026-04-26T12:08:46.606Z</time></trkpt><trkpt lat="45.9236727" lon="11.6763163"><ele>1080.0</ele><time>2026-04-26T12:08:47.602Z</time></trkpt><trkpt lat="45.9238143" lon="11.6763759"><ele>1079.0</ele><time>2026-04-26T12:08:48.601Z</time></trkpt><trkpt lat="45.9239609" lon="11.6763841"><ele>1078.0</ele><time>2026-04-26T12:08:49.595Z</time></trkpt><trkpt lat="45.9241282" lon="11.6762997"><ele>1078.3333333333333</ele><time>2026-04-26T12:08:50.609Z</time></trkpt><trkpt lat="45.9243031" lon="11.6762018"><ele>1078.6666666666667</ele><time>2026-04-26T12:08:51.593Z</time></trkpt><trkpt lat="45.9244712" lon="11.6760977"><ele>1079.0</ele><time>2026-04-26T12:08:52.594Z</time></trkpt><trkpt lat="45.9246069" lon="11.6760578"><ele>1079.0</ele><time>2026-04-26T12:08:53.593Z</time></trkpt><trkpt lat="45.9247437" lon="11.6760982"><ele>1079.0</ele><time>2026-04-26T12:08:54.597Z</time></trkpt><trkpt lat="45.9248731" lon="11.6761991"><ele>1079.0</ele><time>2026-04-26T12:08:55.601Z</time></trkpt><trkpt lat="45.9249948" lon="11.676291"><ele>1079.0</ele><time>2026-04-26T12:08:56.589Z</time></trkpt><trkpt lat="45.9251188" lon="11.6763471"><ele>1084.6666666666667</ele><time>2026-04-26T12:08:57.599Z</time></trkpt><trkpt lat="45.925262" lon="11.6763214"><ele>1090.3333333333333</ele><time>2026-04-26T12:08:58.602Z</time></trkpt><trkpt lat="45.9254204" lon="11.6762655"><ele>1096.0</ele><time>2026-04-26T12:08:59.615Z</time></trkpt><trkpt lat="45.9255779" lon="11.67633"><ele>1096.0</ele><time>2026-04-26T12:09:00.598Z</time></trkpt><trkpt lat="45.9257285" lon="11.6764399"><ele>1096.0</ele><time>2026-04-26T12:09:01.595Z</time></trkpt><trkpt lat="45.9258968" lon="11.67654"><ele>1096.0</ele><time>2026-04-26T12:09:02.594Z</time></trkpt><trkpt lat="45.9260822" lon="11.6765987"><ele>1098.6666666666665</ele><time>2026-04-26T12:09:03.613Z</time></trkpt><trkpt lat="45.9262638" lon="11.6766141"><ele>1101.3333333333333</ele><time>2026-04-26T12:09:04.602Z</time></trkpt><trkpt lat="45.9264282" lon="11.6765902"><ele>1104.0</ele><time>2026-04-26T12:09:05.596Z</time></trkpt><trkpt lat="45.9265863" lon="11.6765578"><ele>1104.0</ele><time>2026-04-26T12:09:06.597Z</time></trkpt><trkpt lat="45.9267234" lon="11.6765359"><ele>1104.0</ele><time>2026-04-26T12:09:07.6Z</time></trkpt><trkpt lat="45.9268413" lon="11.6765535"><ele>1104.0</ele><time>2026-04-26T12:09:08.593Z</time></trkpt><trkpt lat="45.9269422" lon="11.6766405"><ele>1104.0</ele><time>2026-04-26T12:09:09.59Z</time></trkpt><trkpt lat="45.926996" lon="11.6768141"><ele>1109.5</ele><time>2026-04-26T12:09:10.591Z</time></trkpt><trkpt lat="45.9270232" lon="11.6770152"><ele>1115.0</ele><time>2026-04-26T12:09:11.586Z</time></trkpt><trkpt lat="45.9270195" lon="11.6772383"><ele>1120.5</ele><time>2026-04-26T12:09:12.576Z</time></trkpt><trkpt lat="45.9270092" lon="11.6774516"><ele>1126.0</ele><time>2026-04-26T12:09:13.584Z</time></trkpt><trkpt lat="45.9270363" lon="11.677629"><ele>1125.25</ele><time>2026-04-26T12:09:14.591Z</time></trkpt><trkpt lat="45.9271065" lon="11.6778135"><ele>1124.5</ele><time>2026-04-26T12:09:15.596Z</time></trkpt><trkpt lat="45.9271971" lon="11.6779895"><ele>1123.75</ele><time>2026-04-26T12:09:16.612Z</time></trkpt><trkpt lat="45.9272528" lon="11.6781729"><ele>1123.0</ele><time>2026-04-26T12:09:17.588Z</time></trkpt><trkpt lat="45.927276" lon="11.6783439"><ele>1123.0</ele><time>2026-04-26T12:09:18.59Z</time></trkpt><trkpt lat="45.9272081" lon="11.6785143"><ele>1123.0</ele><time>2026-04-26T12:09:19.599Z</time></trkpt><trkpt lat="45.9271115" lon="11.67871"><ele>1123.0</ele><time>2026-04-26T12:09:20.588Z</time></trkpt><trkpt lat="45.9270178" lon="11.6789395"><ele>1125.3333333333333</ele><time>2026-04-26T12:09:21.596Z</time></trkpt><trkpt lat="45.9269234" lon="11.6791989"><ele>1127.6666666666667</ele><time>2026-04-26T12:09:22.6Z</time></trkpt><trkpt lat="45.9268194" lon="11.6794772"><ele>1130.0</ele><time>2026-04-26T12:09:23.597Z</time></trkpt><trkpt lat="45.926712" lon="11.6797558"><ele>1121.3333333333335</ele><time>2026-04-26T12:09:24.598Z</time></trkpt><trkpt lat="45.9266068" lon="11.6800367"><ele>1112.6666666666667</ele><time>2026-04-26T12:09:25.606Z</time></trkpt><trkpt lat="45.9265147" lon="11.6803182"><ele>1104.0</ele><time>2026-04-26T12:09:26.594Z</time></trkpt><trkpt lat="45.926435" lon="11.6805803"><ele>1104.0</ele><time>2026-04-26T12:09:27.592Z</time></trkpt><trkpt lat="45.9263753" lon="11.6807984"><ele>1104.0</ele><time>2026-04-26T12:09:28.592Z</time></trkpt><trkpt lat="45.9263254" lon="11.6809656"><ele>1104.0</ele><time>2026-04-26T12:09:29.604Z</time></trkpt><trkpt lat="45.9262958" lon="11.6811095"><ele>1104.0</ele><time>2026-04-26T12:09:30.598Z</time></trkpt><trkpt lat="45.9263265" lon="11.6812399"><ele>1101.75</ele><time>2026-04-26T12:09:31.605Z</time></trkpt><trkpt lat="45.9263946" lon="11.6813527"><ele>1099.5</ele><time>2026-04-26T12:09:32.592Z</time></trkpt><trkpt lat="45.9265018" lon="11.6814278"><ele>1097.25</ele><time>2026-04-26T12:09:33.594Z</time></trkpt><trkpt lat="45.9266281" lon="11.6814419"><ele>1095.0</ele><time>2026-04-26T12:09:34.601Z</time></trkpt><trkpt lat="45.9267612" lon="11.681384"><ele>1095.0</ele><time>2026-04-26T12:09:35.588Z</time></trkpt><trkpt lat="45.9269136" lon="11.6813078"><ele>1095.0</ele><time>2026-04-26T12:09:36.597Z</time></trkpt><trkpt lat="45.9270923" lon="11.6812673"><ele>1095.0</ele><time>2026-04-26T12:09:37.61Z</time></trkpt><trkpt lat="45.9272763" lon="11.6812633"><ele>1095.0</ele><time>2026-04-26T12:09:38.607Z</time></trkpt><trkpt lat="45.9274469" lon="11.6812908"><ele>1095.0</ele><time>2026-04-26T12:09:39.61Z</time></trkpt><trkpt lat="45.9276138" lon="11.6812666"><ele>1095.0</ele><time>2026-04-26T12:09:40.591Z</time></trkpt><trkpt lat="45.9277946" lon="11.6811854"><ele>1092.0</ele><time>2026-04-26T12:09:41.606Z</time></trkpt><trkpt lat="45.9279947" lon="11.6810992"><ele>1089.0</ele><time>2026-04-26T12:09:42.593Z</time></trkpt><trkpt lat="45.928219" lon="11.6809993"><ele>1086.0</ele><time>2026-04-26T12:09:43.599Z</time></trkpt><trkpt lat="45.9284436" lon="11.6809136"><ele>1097.0</ele><time>2026-04-26T12:09:44.605Z</time></trkpt><trkpt lat="45.9286406" lon="11.6808562"><ele>1108.0</ele><time>2026-04-26T12:09:45.594Z</time></trkpt><trkpt lat="45.9288078" lon="11.6808488"><ele>1119.0</ele><time>2026-04-26T12:09:46.592Z</time></trkpt><trkpt lat="45.9289737" lon="11.680932"><ele>1119.0</ele><time>2026-04-26T12:09:47.593Z</time></trkpt><trkpt lat="45.9291304" lon="11.6810877"><ele>1119.0</ele><time>2026-04-26T12:09:48.601Z</time></trkpt><trkpt lat="45.9293099" lon="11.681272"><ele>1119.0</ele><time>2026-04-26T12:09:49.603Z</time></trkpt><trkpt lat="45.9294758" lon="11.6814121"><ele>1118.0</ele><time>2026-04-26T12:09:50.606Z</time></trkpt><trkpt lat="45.9296221" lon="11.6815179"><ele>1117.0</ele><time>2026-04-26T12:09:51.605Z</time></trkpt><trkpt lat="45.929769" lon="11.6815699"><ele>1116.0</ele><time>2026-04-26T12:09:52.596Z</time></trkpt><trkpt lat="45.9299252" lon="11.6815564"><ele>1115.25</ele><time>2026-04-26T12:09:53.598Z</time></trkpt><trkpt lat="45.9300763" lon="11.6815735"><ele>1114.5</ele><time>2026-04-26T12:09:54.601Z</time></trkpt><trkpt lat="45.9302007" lon="11.6816536"><ele>1113.75</ele><time>2026-04-26T12:09:55.604Z</time></trkpt><trkpt lat="45.9303004" lon="11.6818083"><ele>1113.0</ele><time>2026-04-26T12:09:56.598Z</time></trkpt><trkpt lat="45.9304025" lon="11.6819743"><ele>1113.0</ele><time>2026-04-26T12:09:57.598Z</time></trkpt><trkpt lat="45.9305355" lon="11.6821501"><ele>1113.0</ele><time>2026-04-26T12:09:58.589Z</time></trkpt><trkpt lat="45.930714" lon="11.6823258"><ele>1113.0</ele><time>2026-04-26T12:09:59.611Z</time></trkpt><trkpt lat="45.9309229" lon="11.6824865"><ele>1110.5</ele><time>2026-04-26T12:10:00.601Z</time></trkpt><trkpt lat="45.9311399" lon="11.6826375"><ele>1108.0</ele><time>2026-04-26T12:10:01.605Z</time></trkpt><trkpt lat="45.931346" lon="11.6827831"><ele>1108.0</ele><time>2026-04-26T12:10:02.596Z</time></trkpt><trkpt lat="45.9315326" lon="11.6829187"><ele>1108.0</ele><time>2026-04-26T12:10:03.588Z</time></trkpt><trkpt lat="45.9317023" lon="11.683049"><ele>1108.0</ele><time>2026-04-26T12:10:04.599Z</time></trkpt><trkpt lat="45.9318595" lon="11.6831723"><ele>1115.0</ele><time>2026-04-26T12:10:05.599Z</time></trkpt><trkpt lat="45.9320129" lon="11.6832913"><ele>1122.0</ele><time>2026-04-26T12:10:06.6Z</time></trkpt><trkpt lat="45.9321653" lon="11.6834079"><ele>1129.0</ele><time>2026-04-26T12:10:07.591Z</time></trkpt><trkpt lat="45.9323175" lon="11.6835264"><ele>1123.0</ele><time>2026-04-26T12:10:08.591Z</time></trkpt><trkpt lat="45.9324609" lon="11.6836669"><ele>1117.0</ele><time>2026-04-26T12:10:09.603Z</time></trkpt><trkpt lat="45.9325727" lon="11.683821"><ele>1111.0</ele><time>2026-04-26T12:10:10.594Z</time></trkpt><trkpt lat="45.9326555" lon="11.6840222"><ele>1120.6666666666665</ele><time>2026-04-26T12:10:11.6Z</time></trkpt><trkpt lat="45.9327098" lon="11.6842406"><ele>1130.3333333333333</ele><time>2026-04-26T12:10:12.595Z</time></trkpt><trkpt lat="45.9327471" lon="11.6844792"><ele>1140.0</ele><time>2026-04-26T12:10:13.592Z</time></trkpt><trkpt lat="45.9327576" lon="11.6847114"><ele>1140.0</ele><time>2026-04-26T12:10:14.597Z</time></trkpt><trkpt lat="45.9327557" lon="11.684938"><ele>1140.0</ele><time>2026-04-26T12:10:15.606Z</time></trkpt><trkpt lat="45.9327589" lon="11.6851618"><ele>1140.0</ele><time>2026-04-26T12:10:16.591Z</time></trkpt><trkpt lat="45.9327964" lon="11.6853636"><ele>1138.0</ele><time>2026-04-26T12:10:17.601Z</time></trkpt><trkpt lat="45.9328328" lon="11.6855425"><ele>1136.0</ele><time>2026-04-26T12:10:18.596Z</time></trkpt><trkpt lat="45.9328687" lon="11.6857109"><ele>1134.0</ele><time>2026-04-26T12:10:19.603Z</time></trkpt><trkpt lat="45.9328899" lon="11.6858853"><ele>1132.0</ele><time>2026-04-26T12:10:20.596Z</time></trkpt><trkpt lat="45.932905" lon="11.6860563"><ele>1132.0</ele><time>2026-04-26T12:10:21.593Z</time></trkpt><trkpt lat="45.9328987" lon="11.6862125"><ele>1132.0</ele><time>2026-04-26T12:10:22.597Z</time></trkpt><trkpt lat="45.9328799" lon="11.6863566"><ele>1132.0</ele><time>2026-04-26T12:10:23.593Z</time></trkpt><trkpt lat="45.9328709" lon="11.6865106"><ele>1132.0</ele><time>2026-04-26T12:10:24.589Z</time></trkpt><trkpt lat="45.932871" lon="11.6866843"><ele>1132.0</ele><time>2026-04-26T12:10:25.598Z</time></trkpt><trkpt lat="45.9328759" lon="11.6868825"><ele>1130.25</ele><time>2026-04-26T12:10:26.594Z</time></trkpt><trkpt lat="45.9328717" lon="11.6870841"><ele>1128.5</ele><time>2026-04-26T12:10:27.592Z</time></trkpt><trkpt lat="45.9328725" lon="11.6872569"><ele>1126.75</ele><time>2026-04-26T12:10:28.589Z</time></trkpt><trkpt lat="45.9328733" lon="11.6874036"><ele>1125.0</ele><time>2026-04-26T12:10:29.599Z</time></trkpt><trkpt lat="45.9328752" lon="11.6875628"><ele>1125.0</ele><time>2026-04-26T12:10:30.595Z</time></trkpt><trkpt lat="45.9328909" lon="11.6877344"><ele>1125.0</ele><time>2026-04-26T12:10:31.602Z</time></trkpt><trkpt lat="45.932913" lon="11.6879166"><ele>1125.0</ele><time>2026-04-26T12:10:32.594Z</time></trkpt><trkpt lat="45.9329699" lon="11.6880966"><ele>1125.0</ele><time>2026-04-26T12:10:33.59Z</time></trkpt><trkpt lat="45.933036" lon="11.6882466"><ele>1123.0</ele><time>2026-04-26T12:10:34.614Z</time></trkpt><trkpt lat="45.9331077" lon="11.6883568"><ele>1121.0</ele><time>2026-04-26T12:10:35.605Z</time></trkpt><trkpt lat="45.9331933" lon="11.688411"><ele>1119.0</ele><time>2026-04-26T12:10:36.598Z</time></trkpt><trkpt lat="45.9332815" lon="11.6884052"><ele>1117.0</ele><time>2026-04-26T12:10:37.591Z</time></trkpt><trkpt lat="45.9333771" lon="11.6883309"><ele>1115.0</ele><time>2026-04-26T12:10:38.601Z</time></trkpt><trkpt lat="45.9334815" lon="11.6882196"><ele>1112.5</ele><time>2026-04-26T12:10:39.607Z</time></trkpt><trkpt lat="45.9335775" lon="11.6880754"><ele>1110.0</ele><time>2026-04-26T12:10:40.596Z</time></trkpt><trkpt lat="45.9336798" lon="11.6879303"><ele>1107.5</ele><time>2026-04-26T12:10:41.604Z</time></trkpt><trkpt lat="45.933792" lon="11.6877849"><ele>1105.0</ele><time>2026-04-26T12:10:42.588Z</time></trkpt><trkpt lat="45.9339175" lon="11.687647"><ele>1108.3333333333333</ele><time>2026-04-26T12:10:43.587Z</time></trkpt><trkpt lat="45.9340466" lon="11.6875044"><ele>1111.6666666666667</ele><time>2026-04-26T12:10:44.599Z</time></trkpt><trkpt lat="45.9341854" lon="11.6873706"><ele>1115.0</ele><time>2026-04-26T12:10:45.602Z</time></trkpt><trkpt lat="45.9343262" lon="11.6872377"><ele>1115.0</ele><time>2026-04-26T12:10:46.594Z</time></trkpt><trkpt lat="45.9344774" lon="11.6870991"><ele>1115.0</ele><time>2026-04-26T12:10:47.6Z</time></trkpt><trkpt lat="45.9346263" lon="11.6869674"><ele>1115.0</ele><time>2026-04-26T12:10:48.595Z</time></trkpt><trkpt lat="45.9347778" lon="11.6868282"><ele>1118.0</ele><time>2026-04-26T12:10:49.59Z</time></trkpt><trkpt lat="45.9349264" lon="11.6866884"><ele>1121.0</ele><time>2026-04-26T12:10:50.593Z</time></trkpt><trkpt lat="45.9350723" lon="11.6865377"><ele>1124.0</ele><time>2026-04-26T12:10:51.598Z</time></trkpt><trkpt lat="45.935222" lon="11.6863884"><ele>1124.0</ele><time>2026-04-26T12:10:52.607Z</time></trkpt><trkpt lat="45.9353678" lon="11.6862423"><ele>1124.0</ele><time>2026-04-26T12:10:53.61Z</time></trkpt><trkpt lat="45.9355115" lon="11.6861018"><ele>1124.0</ele><time>2026-04-26T12:10:54.596Z</time></trkpt><trkpt lat="45.9356519" lon="11.6859646"><ele>1127.3333333333335</ele><time>2026-04-26T12:10:55.596Z</time></trkpt><trkpt lat="45.9357968" lon="11.6858277"><ele>1130.6666666666667</ele><time>2026-04-26T12:10:56.608Z</time></trkpt><trkpt lat="45.9359456" lon="11.6856782"><ele>1134.0</ele><time>2026-04-26T12:10:57.613Z</time></trkpt><trkpt lat="45.9360907" lon="11.6855042"><ele>1134.0</ele><time>2026-04-26T12:10:58.59Z</time></trkpt><trkpt lat="45.9362209" lon="11.6853149"><ele>1134.0</ele><time>2026-04-26T12:10:59.598Z</time></trkpt><trkpt lat="45.936339" lon="11.6851303"><ele>1134.0</ele><time>2026-04-26T12:11:00.592Z</time></trkpt><trkpt lat="45.9364477" lon="11.6849547"><ele>1135.75</ele><time>2026-04-26T12:11:01.6Z</time></trkpt><trkpt lat="45.9365426" lon="11.6848142"><ele>1137.5</ele><time>2026-04-26T12:11:02.596Z</time></trkpt><trkpt lat="45.9366359" lon="11.6847259"><ele>1139.25</ele><time>2026-04-26T12:11:03.589Z</time></trkpt><trkpt lat="45.9367342" lon="11.6846902"><ele>1141.0</ele><time>2026-04-26T12:11:04.606Z</time></trkpt><trkpt lat="45.9368381" lon="11.6846951"><ele>1141.0</ele><time>2026-04-26T12:11:05.589Z</time></trkpt><trkpt lat="45.9369312" lon="11.6847612"><ele>1141.0</ele><time>2026-04-26T12:11:06.607Z</time></trkpt><trkpt lat="45.9370198" lon="11.6848269"><ele>1141.0</ele><time>2026-04-26T12:11:07.597Z</time></trkpt><trkpt lat="45.9371117" lon="11.6848137"><ele>1141.0</ele><time>2026-04-26T12:11:08.607Z</time></trkpt><trkpt lat="45.9371866" lon="11.6847565"><ele>1141.0</ele><time>2026-04-26T12:11:09.599Z</time></trkpt><trkpt lat="45.9372389" lon="11.684658"><ele>1141.0</ele><time>2026-04-26T12:11:10.598Z</time></trkpt><trkpt lat="45.9373061" lon="11.6844867"><ele>1141.0</ele><time>2026-04-26T12:11:11.609Z</time></trkpt><trkpt lat="45.9373677" lon="11.6842763"><ele>1141.0</ele><time>2026-04-26T12:11:12.599Z</time></trkpt><trkpt lat="45.9374277" lon="11.6840562"><ele>1140.6666666666665</ele><time>2026-04-26T12:11:13.599Z</time></trkpt><trkpt lat="45.9374898" lon="11.683844"><ele>1140.3333333333333</ele><time>2026-04-26T12:11:14.585Z</time></trkpt><trkpt lat="45.9375578" lon="11.6836197"><ele>1140.0</ele><time>2026-04-26T12:11:15.605Z</time></trkpt><trkpt lat="45.9376181" lon="11.6834006"><ele>1140.0</ele><time>2026-04-26T12:11:16.59Z</time></trkpt><trkpt lat="45.9376742" lon="11.6831898"><ele>1140.0</ele><time>2026-04-26T12:11:17.606Z</time></trkpt><trkpt lat="45.9377269" lon="11.6829752"><ele>1140.0</ele><time>2026-04-26T12:11:18.599Z</time></trkpt><trkpt lat="45.9377666" lon="11.6827587"><ele>1143.3333333333333</ele><time>2026-04-26T12:11:19.603Z</time></trkpt><trkpt lat="45.9377983" lon="11.6825434"><ele>1146.6666666666665</ele><time>2026-04-26T12:11:20.59Z</time></trkpt><trkpt lat="45.9378277" lon="11.6823242"><ele>1150.0</ele><time>2026-04-26T12:11:21.594Z</time></trkpt><trkpt lat="45.9378519" lon="11.6820907"><ele>1152.3333333333333</ele><time>2026-04-26T12:11:22.61Z</time></trkpt><trkpt lat="45.9378718" lon="11.6818531"><ele>1154.6666666666667</ele><time>2026-04-26T12:11:23.592Z</time></trkpt><trkpt lat="45.9378916" lon="11.6816117"><ele>1157.0</ele><time>2026-04-26T12:11:24.599Z</time></trkpt><trkpt lat="45.9379136" lon="11.6813547"><ele>1157.0</ele><time>2026-04-26T12:11:25.587Z</time></trkpt><trkpt lat="45.9379366" lon="11.6811059"><ele>1157.0</ele><time>2026-04-26T12:11:26.59Z</time></trkpt><trkpt lat="45.9379667" lon="11.6808872"><ele>1157.0</ele><time>2026-04-26T12:11:27.599Z</time></trkpt><trkpt lat="45.937995" lon="11.6806847"><ele>1159.25</ele><time>2026-04-26T12:11:28.591Z</time></trkpt><trkpt lat="45.93801" lon="11.6804838"><ele>1161.5</ele><time>2026-04-26T12:11:29.606Z</time></trkpt><trkpt lat="45.9380187" lon="11.6802926"><ele>1163.75</ele><time>2026-04-26T12:11:30.593Z</time></trkpt><trkpt lat="45.9380227" lon="11.6800936"><ele>1166.0</ele><time>2026-04-26T12:11:31.605Z</time></trkpt><trkpt lat="45.9380258" lon="11.6798848"><ele>1170.3333333333335</ele><time>2026-04-26T12:11:32.597Z</time></trkpt><trkpt lat="45.9380506" lon="11.6796738"><ele>1174.6666666666667</ele><time>2026-04-26T12:11:33.595Z</time></trkpt><trkpt lat="45.9380982" lon="11.6794585"><ele>1179.0</ele><time>2026-04-26T12:11:34.605Z</time></trkpt><trkpt lat="45.9381474" lon="11.6792302"><ele>1181.75</ele><time>2026-04-26T12:11:35.588Z</time></trkpt><trkpt lat="45.9381806" lon="11.679017"><ele>1184.5</ele><time>2026-04-26T12:11:36.598Z</time></trkpt><trkpt lat="45.9382074" lon="11.6788159"><ele>1187.25</ele><time>2026-04-26T12:11:37.595Z</time></trkpt><trkpt lat="45.9382267" lon="11.6786479"><ele>1190.0</ele><time>2026-04-26T12:11:38.588Z</time></trkpt><trkpt lat="45.9382364" lon="11.6785034"><ele>1191.0</ele><time>2026-04-26T12:11:39.613Z</time></trkpt><trkpt lat="45.9382166" lon="11.6783132"><ele>1192.0</ele><time>2026-04-26T12:11:40.601Z</time></trkpt><trkpt lat="45.9381653" lon="11.6781094"><ele>1193.0</ele><time>2026-04-26T12:11:41.602Z</time></trkpt><trkpt lat="45.9381171" lon="11.6779114"><ele>1194.0</ele><time>2026-04-26T12:11:42.584Z</time></trkpt><trkpt lat="45.9381055" lon="11.6777196"><ele>1196.2</ele><time>2026-04-26T12:11:43.589Z</time></trkpt><trkpt lat="45.9381095" lon="11.6775622"><ele>1198.4</ele><time>2026-04-26T12:11:44.608Z</time></trkpt><trkpt lat="45.9381304" lon="11.6774199"><ele>1200.6</ele><time>2026-04-26T12:11:45.59Z</time></trkpt><trkpt lat="45.9381844" lon="11.6773034"><ele>1202.8</ele><time>2026-04-26T12:11:46.592Z</time></trkpt><trkpt lat="45.9382622" lon="11.6772276"><ele>1205.0</ele><time>2026-04-26T12:11:47.597Z</time></trkpt><trkpt lat="45.9383655" lon="11.6772291"><ele>1203.5</ele><time>2026-04-26T12:11:48.595Z</time></trkpt><trkpt lat="45.9384909" lon="11.6772687"><ele>1202.0</ele><time>2026-04-26T12:11:49.592Z</time></trkpt><trkpt lat="45.9386235" lon="11.6773244"><ele>1200.5</ele><time>2026-04-26T12:11:50.602Z</time></trkpt><trkpt lat="45.9387457" lon="11.6773494"><ele>1199.0</ele><time>2026-04-26T12:11:51.616Z</time></trkpt><trkpt lat="45.9388413" lon="11.6772781"><ele>1199.0</ele><time>2026-04-26T12:11:52.589Z</time></trkpt><trkpt lat="45.9389239" lon="11.6771828"><ele>1199.0</ele><time>2026-04-26T12:11:53.597Z</time></trkpt><trkpt lat="45.9390205" lon="11.6771028"><ele>1199.0</ele><time>2026-04-26T12:11:54.595Z</time></trkpt><trkpt lat="45.9391155" lon="11.6770829"><ele>1199.0</ele><time>2026-04-26T12:11:55.599Z</time></trkpt><trkpt lat="45.9392415" lon="11.6771389"><ele>1199.0</ele><time>2026-04-26T12:11:56.596Z</time></trkpt><trkpt lat="45.9393604" lon="11.6772085"><ele>1198.25</ele><time>2026-04-26T12:11:57.599Z</time></trkpt><trkpt lat="45.9394873" lon="11.6772194"><ele>1197.5</ele><time>2026-04-26T12:11:58.601Z</time></trkpt><trkpt lat="45.9396015" lon="11.6771513"><ele>1196.75</ele><time>2026-04-26T12:11:59.602Z</time></trkpt><trkpt lat="45.9396971" lon="11.6770057"><ele>1196.0</ele><time>2026-04-26T12:12:00.603Z</time></trkpt><trkpt lat="45.9397833" lon="11.6768186"><ele>1200.75</ele><time>2026-04-26T12:12:01.587Z</time></trkpt><trkpt lat="45.9398769" lon="11.6766012"><ele>1205.5</ele><time>2026-04-26T12:12:02.595Z</time></trkpt><trkpt lat="45.9399628" lon="11.6764512"><ele>1210.25</ele><time>2026-04-26T12:12:03.593Z</time></trkpt><trkpt lat="45.9400539" lon="11.6764054"><ele>1215.0</ele><time>2026-04-26T12:12:04.597Z</time></trkpt><trkpt lat="45.9401545" lon="11.6764155"><ele>1217.25</ele><time>2026-04-26T12:12:05.608Z</time></trkpt><trkpt lat="45.9402415" lon="11.6764966"><ele>1219.5</ele><time>2026-04-26T12:12:06.601Z</time></trkpt><trkpt lat="45.9402996" lon="11.6766449"><ele>1221.75</ele><time>2026-04-26T12:12:07.589Z</time></trkpt><trkpt lat="45.9403336" lon="11.6768264"><ele>1224.0</ele><time>2026-04-26T12:12:08.595Z</time></trkpt><trkpt lat="45.9403797" lon="11.6769599"><ele>1219.5</ele><time>2026-04-26T12:12:09.606Z</time></trkpt><trkpt lat="45.9404602" lon="11.6770104"><ele>1215.0</ele><time>2026-04-26T12:12:10.602Z</time></trkpt><trkpt lat="45.9405634" lon="11.6770338"><ele>1210.5</ele><time>2026-04-26T12:12:11.59Z</time></trkpt><trkpt lat="45.9406984" lon="11.677054"><ele>1206.0</ele><time>2026-04-26T12:12:12.587Z</time></trkpt><trkpt lat="45.940861" lon="11.6771539"><ele>1210.3333333333333</ele><time>2026-04-26T12:12:13.596Z</time></trkpt><trkpt lat="45.9410313" lon="11.6773048"><ele>1214.6666666666665</ele><time>2026-04-26T12:12:14.598Z</time></trkpt><trkpt lat="45.9411873" lon="11.6774361"><ele>1219.0</ele><time>2026-04-26T12:12:15.611Z</time></trkpt><trkpt lat="45.9413189" lon="11.6775301"><ele>1219.0</ele><time>2026-04-26T12:12:16.59Z</time></trkpt><trkpt lat="45.9414368" lon="11.6776039"><ele>1219.0</ele><time>2026-04-26T12:12:17.592Z</time></trkpt><trkpt lat="45.9415611" lon="11.6776362"><ele>1219.0</ele><time>2026-04-26T12:12:18.593Z</time></trkpt><trkpt lat="45.9416815" lon="11.677607"><ele>1219.0</ele><time>2026-04-26T12:12:19.595Z</time></trkpt><trkpt lat="45.9417789" lon="11.677525"><ele>1221.0</ele><time>2026-04-26T12:12:20.604Z</time></trkpt><trkpt lat="45.9418631" lon="11.6774371"><ele>1223.0</ele><time>2026-04-26T12:12:21.595Z</time></trkpt><trkpt lat="45.9419455" lon="11.6773932"><ele>1225.0</ele><time>2026-04-26T12:12:22.584Z</time></trkpt><trkpt lat="45.9420274" lon="11.6773739"><ele>1227.0</ele><time>2026-04-26T12:12:23.592Z</time></trkpt><trkpt lat="45.9421099" lon="11.6773958"><ele>1229.0</ele><time>2026-04-26T12:12:24.589Z</time></trkpt><trkpt lat="45.9421693" lon="11.6774854"><ele>1231.0</ele><time>2026-04-26T12:12:25.601Z</time></trkpt><trkpt lat="45.9422098" lon="11.6776333"><ele>1228.25</ele><time>2026-04-26T12:12:26.586Z</time></trkpt><trkpt lat="45.9422485" lon="11.6777874"><ele>1225.5</ele><time>2026-04-26T12:12:27.611Z</time></trkpt><trkpt lat="45.9423231" lon="11.6779154"><ele>1222.75</ele><time>2026-04-26T12:12:28.599Z</time></trkpt><trkpt lat="45.9424468" lon="11.6780072"><ele>1220.0</ele><time>2026-04-26T12:12:29.595Z</time></trkpt><trkpt lat="45.9426186" lon="11.6780884"><ele>1226.25</ele><time>2026-04-26T12:12:30.58Z</time></trkpt><trkpt lat="45.9427948" lon="11.6781345"><ele>1232.5</ele><time>2026-04-26T12:12:31.596Z</time></trkpt><trkpt lat="45.942932" lon="11.6781923"><ele>1238.75</ele><time>2026-04-26T12:12:32.59Z</time></trkpt><trkpt lat="45.9430272" lon="11.6783055"><ele>1245.0</ele><time>2026-04-26T12:12:33.6Z</time></trkpt><trkpt lat="45.9431044" lon="11.6784613"><ele>1242.0</ele><time>2026-04-26T12:12:34.594Z</time></trkpt><trkpt lat="45.9431872" lon="11.6786839"><ele>1239.0</ele><time>2026-04-26T12:12:35.593Z</time></trkpt><trkpt lat="45.9432634" lon="11.6788996"><ele>1236.0</ele><time>2026-04-26T12:12:36.6Z</time></trkpt><trkpt lat="45.9433274" lon="11.6790942"><ele>1241.6</ele><time>2026-04-26T12:12:37.6Z</time></trkpt><trkpt lat="45.9434026" lon="11.6792634"><ele>1247.1999999999998</ele><time>2026-04-26T12:12:38.59Z</time></trkpt><trkpt lat="45.943486" lon="11.6793772"><ele>1252.8000000000002</ele><time>2026-04-26T12:12:39.598Z</time></trkpt><trkpt lat="45.9435689" lon="11.6794146"><ele>1258.4</ele><time>2026-04-26T12:12:40.599Z</time></trkpt><trkpt lat="45.9436674" lon="11.6794167"><ele>1264.0</ele><time>2026-04-26T12:12:41.598Z</time></trkpt><trkpt lat="45.9437788" lon="11.6794158"><ele>1263.2</ele><time>2026-04-26T12:12:42.593Z</time></trkpt><trkpt lat="45.9438667" lon="11.6794347"><ele>1262.4</ele><time>2026-04-26T12:12:43.599Z</time></trkpt><trkpt lat="45.9439042" lon="11.6795392"><ele>1261.6</ele><time>2026-04-26T12:12:44.596Z</time></trkpt><trkpt lat="45.9438931" lon="11.6796847"><ele>1260.8</ele><time>2026-04-26T12:12:45.582Z</time></trkpt><trkpt lat="45.9438461" lon="11.6798488"><ele>1260.0</ele><time>2026-04-26T12:12:46.604Z</time></trkpt><trkpt lat="45.943793" lon="11.6800248"><ele>1260.0</ele><time>2026-04-26T12:12:47.603Z</time></trkpt><trkpt lat="45.9437668" lon="11.6802204"><ele>1260.0</ele><time>2026-04-26T12:12:48.604Z</time></trkpt><trkpt lat="45.9437822" lon="11.6804346"><ele>1260.0</ele><time>2026-04-26T12:12:49.604Z</time></trkpt><trkpt lat="45.9438065" lon="11.6806321"><ele>1260.0</ele><time>2026-04-26T12:12:50.596Z</time></trkpt><trkpt lat="45.9438542" lon="11.6808077"><ele>1259.25</ele><time>2026-04-26T12:12:51.606Z</time></trkpt><trkpt lat="45.9439211" lon="11.6809858"><ele>1258.5</ele><time>2026-04-26T12:12:52.604Z</time></trkpt><trkpt lat="45.9440028" lon="11.6811738"><ele>1257.75</ele><time>2026-04-26T12:12:53.606Z</time></trkpt><trkpt lat="45.9440973" lon="11.6813279"><ele>1257.0</ele><time>2026-04-26T12:12:54.588Z</time></trkpt><trkpt lat="45.9441908" lon="11.681443"><ele>1256.25</ele><time>2026-04-26T12:12:55.592Z</time></trkpt><trkpt lat="45.9443023" lon="11.6815166"><ele>1255.5</ele><time>2026-04-26T12:12:56.606Z</time></trkpt><trkpt lat="45.9444267" lon="11.6815489"><ele>1254.75</ele><time>2026-04-26T12:12:57.599Z</time></trkpt><trkpt lat="45.9445544" lon="11.6815601"><ele>1254.0</ele><time>2026-04-26T12:12:58.599Z</time></trkpt><trkpt lat="45.9446789" lon="11.6815592"><ele>1254.0</ele><time>2026-04-26T12:12:59.597Z</time></trkpt><trkpt lat="45.9448119" lon="11.681572"><ele>1254.0</ele><time>2026-04-26T12:13:00.598Z</time></trkpt><trkpt lat="45.9449412" lon="11.6815932"><ele>1254.0</ele><time>2026-04-26T12:13:01.587Z</time></trkpt><trkpt lat="45.9450576" lon="11.681571"><ele>1254.0</ele><time>2026-04-26T12:13:02.578Z</time></trkpt><trkpt lat="45.9451719" lon="11.6814891"><ele>1254.25</ele><time>2026-04-26T12:13:03.599Z</time></trkpt><trkpt lat="45.9452779" lon="11.6813788"><ele>1254.5</ele><time>2026-04-26T12:13:04.598Z</time></trkpt><trkpt lat="45.9453703" lon="11.6812522"><ele>1254.75</ele><time>2026-04-26T12:13:05.594Z</time></trkpt><trkpt lat="45.9454524" lon="11.6811198"><ele>1255.0</ele><time>2026-04-26T12:13:06.604Z</time></trkpt><trkpt lat="45.9455223" lon="11.6809968"><ele>1257.4</ele><time>2026-04-26T12:13:07.611Z</time></trkpt><trkpt lat="45.9455894" lon="11.6808866"><ele>1259.8</ele><time>2026-04-26T12:13:08.591Z</time></trkpt><trkpt lat="45.9456562" lon="11.680795"><ele>1262.2</ele><time>2026-04-26T12:13:09.598Z</time></trkpt><trkpt lat="45.9457258" lon="11.6807519"><ele>1264.6</ele><time>2026-04-26T12:13:10.581Z</time></trkpt><trkpt lat="45.9458409" lon="11.6808157"><ele>1267.0</ele><time>2026-04-26T12:13:12.6Z</time></trkpt><trkpt lat="45.9458877" lon="11.6809062"><ele>1267.2</ele><time>2026-04-26T12:13:13.584Z</time></trkpt><trkpt lat="45.9459327" lon="11.6810002"><ele>1267.4</ele><time>2026-04-26T12:13:14.586Z</time></trkpt><trkpt lat="45.946027" lon="11.6811066"><ele>1267.6</ele><time>2026-04-26T12:13:16.594Z</time></trkpt><trkpt lat="45.9461202" lon="11.6811199"><ele>1267.8</ele><time>2026-04-26T12:13:18.578Z</time></trkpt><trkpt lat="45.9461393" lon="11.6810296"><ele>1268.0</ele><time>2026-04-26T12:13:20.59Z</time></trkpt><trkpt lat="45.9460625" lon="11.6808967"><ele>1268.0</ele><time>2026-04-26T12:13:22.593Z</time></trkpt><trkpt lat="45.9460143" lon="11.6807962"><ele>1268.0</ele><time>2026-04-26T12:13:23.605Z</time></trkpt><trkpt lat="45.9459791" lon="11.680633"><ele>1268.0</ele><time>2026-04-26T12:13:24.582Z</time></trkpt><trkpt lat="45.9459394" lon="11.6804169"><ele>1268.0</ele><time>2026-04-26T12:13:25.586Z</time></trkpt><trkpt lat="45.9459015" lon="11.680253"><ele>1267.8</ele><time>2026-04-26T12:13:26.601Z</time></trkpt><trkpt lat="45.9458442" lon="11.6801594"><ele>1267.6</ele><time>2026-04-26T12:13:27.594Z</time></trkpt><trkpt lat="45.9457094" lon="11.6801606"><ele>1267.4</ele><time>2026-04-26T12:13:29.604Z</time></trkpt><trkpt lat="45.9456188" lon="11.6802008"><ele>1267.2</ele><time>2026-04-26T12:13:30.592Z</time></trkpt><trkpt lat="45.9455241" lon="11.680249"><ele>1267.0</ele><time>2026-04-26T12:13:31.597Z</time></trkpt><trkpt lat="45.9454367" lon="11.6802691"><ele>1267.0</ele><time>2026-04-26T12:13:32.591Z</time></trkpt><trkpt lat="45.9453462" lon="11.6802785"><ele>1267.0</ele><time>2026-04-26T12:13:33.591Z</time></trkpt><trkpt lat="45.9452628" lon="11.6802702"><ele>1267.0</ele><time>2026-04-26T12:13:34.592Z</time></trkpt><trkpt lat="45.9451859" lon="11.6802528"><ele>1267.0</ele><time>2026-04-26T12:13:35.583Z</time></trkpt><trkpt lat="45.9451151" lon="11.6802219"><ele>1267.0</ele><time>2026-04-26T12:13:36.596Z</time></trkpt><trkpt lat="45.945051" lon="11.6801666"><ele>1267.0</ele><time>2026-04-26T12:13:37.605Z</time></trkpt><trkpt lat="45.9450018" lon="11.6800817"><ele>1269.2</ele><time>2026-04-26T12:13:38.599Z</time></trkpt><trkpt lat="45.9449728" lon="11.6799872"><ele>1271.4</ele><time>2026-04-26T12:13:39.586Z</time></trkpt><trkpt lat="45.9449608" lon="11.6798765"><ele>1273.6</ele><time>2026-04-26T12:13:40.589Z</time></trkpt><trkpt lat="45.9449543" lon="11.6797162"><ele>1275.8</ele><time>2026-04-26T12:13:41.591Z</time></trkpt><trkpt lat="45.9449576" lon="11.6795568"><ele>1278.0</ele><time>2026-04-26T12:13:42.595Z</time></trkpt><trkpt lat="45.9449777" lon="11.6794039"><ele>1279.25</ele><time>2026-04-26T12:13:43.6Z</time></trkpt><trkpt lat="45.9449946" lon="11.6792427"><ele>1280.5</ele><time>2026-04-26T12:13:44.587Z</time></trkpt><trkpt lat="45.9450152" lon="11.6790691"><ele>1281.75</ele><time>2026-04-26T12:13:45.589Z</time></trkpt><trkpt lat="45.9450427" lon="11.6788991"><ele>1283.0</ele><time>2026-04-26T12:13:46.599Z</time></trkpt><trkpt lat="45.9450828" lon="11.6787371"><ele>1287.4</ele><time>2026-04-26T12:13:47.593Z</time></trkpt><trkpt lat="45.9451407" lon="11.6785756"><ele>1291.8000000000002</ele><time>2026-04-26T12:13:48.585Z</time></trkpt><trkpt lat="45.9451968" lon="11.6784343"><ele>1296.2</ele><time>2026-04-26T12:13:49.596Z</time></trkpt><trkpt lat="45.9452383" lon="11.6783156"><ele>1300.6</ele><time>2026-04-26T12:13:50.602Z</time></trkpt><trkpt lat="45.9452439" lon="11.6782095"><ele>1305.0</ele><time>2026-04-26T12:13:51.588Z</time></trkpt><trkpt lat="45.9452227" lon="11.6780851"><ele>1305.0</ele><time>2026-04-26T12:13:52.594Z</time></trkpt><trkpt lat="45.9451944" lon="11.6779462"><ele>1305.0</ele><time>2026-04-26T12:13:53.604Z</time></trkpt><trkpt lat="45.945178" lon="11.6778034"><ele>1305.0</ele><time>2026-04-26T12:13:54.589Z</time></trkpt><trkpt lat="45.9451758" lon="11.6776497"><ele>1305.0</ele><time>2026-04-26T12:13:55.598Z</time></trkpt><trkpt lat="45.945173" lon="11.6774761"><ele>1305.0</ele><time>2026-04-26T12:13:56.594Z</time></trkpt><trkpt lat="45.9451483" lon="11.6773575"><ele>1304.0</ele><time>2026-04-26T12:13:57.596Z</time></trkpt><trkpt lat="45.9450781" lon="11.6772606"><ele>1303.0</ele><time>2026-04-26T12:13:59.599Z</time></trkpt><trkpt lat="45.9449719" lon="11.6772861"><ele>1302.0</ele><time>2026-04-26T12:14:01.596Z</time></trkpt><trkpt lat="45.9448943" lon="11.6773129"><ele>1301.0</ele><time>2026-04-26T12:14:02.591Z</time></trkpt><trkpt lat="45.944809" lon="11.6773263"><ele>1300.0</ele><time>2026-04-26T12:14:03.6Z</time></trkpt><trkpt lat="45.9447156" lon="11.6773201"><ele>1300.0</ele><time>2026-04-26T12:14:04.603Z</time></trkpt><trkpt lat="45.9446205" lon="11.6772846"><ele>1300.0</ele><time>2026-04-26T12:14:05.599Z</time></trkpt><trkpt lat="45.9445284" lon="11.6772163"><ele>1300.0</ele><time>2026-04-26T12:14:06.595Z</time></trkpt><trkpt lat="45.9444563" lon="11.6771492"><ele>1300.0</ele><time>2026-04-26T12:14:07.597Z</time></trkpt><trkpt lat="45.9444002" lon="11.677061"><ele>1300.0</ele><time>2026-04-26T12:14:08.604Z</time></trkpt><trkpt lat="45.9443495" lon="11.6769628"><ele>1303.0</ele><time>2026-04-26T12:14:09.601Z</time></trkpt><trkpt lat="45.9443197" lon="11.6768696"><ele>1306.0</ele><time>2026-04-26T12:14:10.61Z</time></trkpt><trkpt lat="45.9443022" lon="11.676768"><ele>1309.0</ele><time>2026-04-26T12:14:11.587Z</time></trkpt><trkpt lat="45.9442995" lon="11.6766702"><ele>1312.0</ele><time>2026-04-26T12:14:12.589Z</time></trkpt><trkpt lat="45.9442925" lon="11.6765178"><ele>1315.0</ele><time>2026-04-26T12:14:14.597Z</time></trkpt><trkpt lat="45.9442799" lon="11.6764208"><ele>1318.0</ele><time>2026-04-26T12:14:47.598Z</time></trkpt><trkpt lat="45.9442581" lon="11.6762467"><ele>1318.0</ele><time>2026-04-26T12:14:49.593Z</time></trkpt><trkpt lat="45.9442438" lon="11.6761293"><ele>1318.0</ele><time>2026-04-26T12:14:50.593Z</time></trkpt><trkpt lat="45.9442319" lon="11.675994"><ele>1318.0</ele><time>2026-04-26T12:14:51.598Z</time></trkpt><trkpt lat="45.9442236" lon="11.6758418"><ele>1318.0</ele><time>2026-04-26T12:14:52.6Z</time></trkpt><trkpt lat="45.9442244" lon="11.6756796"><ele>1318.0</ele><time>2026-04-26T12:14:53.611Z</time></trkpt><trkpt lat="45.9442379" lon="11.6754874"><ele>1322.3333333333333</ele><time>2026-04-26T12:14:54.601Z</time></trkpt><trkpt lat="45.9442591" lon="11.6752822"><ele>1326.6666666666667</ele><time>2026-04-26T12:14:55.588Z</time></trkpt><trkpt lat="45.9442732" lon="11.6750404"><ele>1331.0</ele><time>2026-04-26T12:14:56.597Z</time></trkpt><trkpt lat="45.9442799" lon="11.6747916"><ele>1331.75</ele><time>2026-04-26T12:14:57.595Z</time></trkpt><trkpt lat="45.9442773" lon="11.674579"><ele>1332.5</ele><time>2026-04-26T12:14:58.594Z</time></trkpt><trkpt lat="45.9442509" lon="11.6744395"><ele>1333.25</ele><time>2026-04-26T12:14:59.615Z</time></trkpt><trkpt lat="45.944208" lon="11.6743156"><ele>1334.0</ele><time>2026-04-26T12:15:00.593Z</time></trkpt><trkpt lat="45.9441413" lon="11.6741605"><ele>1334.0</ele><time>2026-04-26T12:15:01.595Z</time></trkpt><trkpt lat="45.9440558" lon="11.6739997"><ele>1334.0</ele><time>2026-04-26T12:15:02.599Z</time></trkpt><trkpt lat="45.9439848" lon="11.6738902"><ele>1334.0</ele><time>2026-04-26T12:15:03.592Z</time></trkpt><trkpt lat="45.9438904" lon="11.6738077"><ele>1334.0</ele><time>2026-04-26T12:15:04.597Z</time></trkpt><trkpt lat="45.9437681" lon="11.6737406"><ele>1334.0</ele><time>2026-04-26T12:15:05.604Z</time></trkpt><trkpt lat="45.9436501" lon="11.6736806"><ele>1334.0</ele><time>2026-04-26T12:15:06.595Z</time></trkpt><trkpt lat="45.943559" lon="11.6736208"><ele>1334.0</ele><time>2026-04-26T12:15:07.596Z</time></trkpt><trkpt lat="45.9434685" lon="11.67355"><ele>1334.0</ele><time>2026-04-26T12:15:08.6Z</time></trkpt><trkpt lat="45.9433936" lon="11.6734562"><ele>1334.0</ele><time>2026-04-26T12:15:09.598Z</time></trkpt><trkpt lat="45.9433266" lon="11.6733605"><ele>1334.8333333333335</ele><time>2026-04-26T12:15:10.583Z</time></trkpt><trkpt lat="45.9432606" lon="11.6732914"><ele>1335.6666666666667</ele><time>2026-04-26T12:15:11.587Z</time></trkpt><trkpt lat="45.9431959" lon="11.6732717"><ele>1336.5</ele><time>2026-04-26T12:15:12.599Z</time></trkpt><trkpt lat="45.9431193" lon="11.6732807"><ele>1337.3333333333333</ele><time>2026-04-26T12:15:13.592Z</time></trkpt><trkpt lat="45.9430302" lon="11.6733009"><ele>1338.1666666666665</ele><time>2026-04-26T12:15:14.587Z</time></trkpt><trkpt lat="45.9429366" lon="11.6733164"><ele>1339.0</ele><time>2026-04-26T12:15:15.592Z</time></trkpt><trkpt lat="45.9428376" lon="11.6733186"><ele>1339.0</ele><time>2026-04-26T12:15:16.595Z</time></trkpt><trkpt lat="45.942738" lon="11.6733035"><ele>1339.0</ele><time>2026-04-26T12:15:17.601Z</time></trkpt><trkpt lat="45.9426388" lon="11.6732807"><ele>1339.0</ele><time>2026-04-26T12:15:18.591Z</time></trkpt><trkpt lat="45.9425356" lon="11.6732657"><ele>1339.0</ele><time>2026-04-26T12:15:19.604Z</time></trkpt><trkpt lat="45.9424307" lon="11.6732509"><ele>1339.0</ele><time>2026-04-26T12:15:20.6Z</time></trkpt><trkpt lat="45.9423262" lon="11.6732263"><ele>1339.4</ele><time>2026-04-26T12:15:21.591Z</time></trkpt><trkpt lat="45.9422297" lon="11.6731852"><ele>1339.8000000000002</ele><time>2026-04-26T12:15:22.598Z</time></trkpt><trkpt lat="45.9421368" lon="11.6731231"><ele>1340.1999999999998</ele><time>2026-04-26T12:15:23.595Z</time></trkpt><trkpt lat="45.9420627" lon="11.6730556"><ele>1340.6</ele><time>2026-04-26T12:15:24.602Z</time></trkpt><trkpt lat="45.942002" lon="11.672986"><ele>1341.0</ele><time>2026-04-26T12:15:25.586Z</time></trkpt><trkpt lat="45.9419518" lon="11.6728897"><ele>1345.6</ele><time>2026-04-26T12:15:26.594Z</time></trkpt><trkpt lat="45.9419189" lon="11.6727679"><ele>1350.1999999999998</ele><time>2026-04-26T12:15:27.592Z</time></trkpt><trkpt lat="45.9418955" lon="11.6726289"><ele>1354.8000000000002</ele><time>2026-04-26T12:15:28.587Z</time></trkpt><trkpt lat="45.9418912" lon="11.6724812"><ele>1359.4</ele><time>2026-04-26T12:15:29.593Z</time></trkpt><trkpt lat="45.9418824" lon="11.6723576"><ele>1364.0</ele><time>2026-04-26T12:15:30.591Z</time></trkpt><trkpt lat="45.9418035" lon="11.672242"><ele>1364.0</ele><time>2026-04-26T12:15:32.595Z</time></trkpt><trkpt lat="45.9417357" lon="11.6722356"><ele>1364.0</ele><time>2026-04-26T12:15:34.589Z</time></trkpt><trkpt lat="45.9416551" lon="11.6723457"><ele>1364.0</ele><time>2026-04-26T12:16:03.612Z</time></trkpt><trkpt lat="45.9415804" lon="11.6724006"><ele>1364.0</ele><time>2026-04-26T12:16:04.588Z</time></trkpt><trkpt lat="45.9414746" lon="11.6724648"><ele>1364.0</ele><time>2026-04-26T12:16:05.59Z</time></trkpt><trkpt lat="45.9413665" lon="11.6724949"><ele>1362.1666666666667</ele><time>2026-04-26T12:16:06.582Z</time></trkpt><trkpt lat="45.9412844" lon="11.6725004"><ele>1360.3333333333335</ele><time>2026-04-26T12:16:07.594Z</time></trkpt><trkpt lat="45.9412172" lon="11.672482"><ele>1358.5</ele><time>2026-04-26T12:16:08.588Z</time></trkpt><trkpt lat="45.9411438" lon="11.6724455"><ele>1356.6666666666667</ele><time>2026-04-26T12:16:09.593Z</time></trkpt><trkpt lat="45.941066" lon="11.6723723"><ele>1354.8333333333333</ele><time>2026-04-26T12:16:10.595Z</time></trkpt><trkpt lat="45.9410013" lon="11.6722658"><ele>1353.0</ele><time>2026-04-26T12:16:11.599Z</time></trkpt><trkpt lat="45.9409169" lon="11.6720875"><ele>1359.0</ele><time>2026-04-26T12:16:12.599Z</time></trkpt><trkpt lat="45.9408121" lon="11.6718554"><ele>1365.0</ele><time>2026-04-26T12:16:13.602Z</time></trkpt><trkpt lat="45.9407217" lon="11.6716405"><ele>1371.0</ele><time>2026-04-26T12:16:14.599Z</time></trkpt><trkpt lat="45.940641" lon="11.6714614"><ele>1371.0</ele><time>2026-04-26T12:16:15.594Z</time></trkpt><trkpt lat="45.940596" lon="11.6713494"><ele>1371.0</ele><time>2026-04-26T12:16:16.607Z</time></trkpt><trkpt lat="45.9405261" lon="11.6712938"><ele>1371.0</ele><time>2026-04-26T12:16:18.584Z</time></trkpt><trkpt lat="45.9404636" lon="11.6713289"><ele>1371.0</ele><time>2026-04-26T12:16:19.591Z</time></trkpt><trkpt lat="45.9403341" lon="11.6713914"><ele>1371.0</ele><time>2026-04-26T12:16:21.594Z</time></trkpt><trkpt lat="45.9402597" lon="11.6714188"><ele>1371.0</ele><time>2026-04-26T12:16:22.601Z</time></trkpt><trkpt lat="45.9401753" lon="11.6714521"><ele>1371.0</ele><time>2026-04-26T12:16:23.604Z</time></trkpt><trkpt lat="45.9400938" lon="11.6715351"><ele>1371.0</ele><time>2026-04-26T12:16:24.597Z</time></trkpt><trkpt lat="45.9400145" lon="11.6716389"><ele>1371.0</ele><time>2026-04-26T12:16:25.592Z</time></trkpt><trkpt lat="45.9399384" lon="11.6717316"><ele>1371.0</ele><time>2026-04-26T12:16:26.591Z</time></trkpt><trkpt lat="45.9398609" lon="11.6718128"><ele>1371.6666666666667</ele><time>2026-04-26T12:16:27.591Z</time></trkpt><trkpt lat="45.9397762" lon="11.671879"><ele>1372.3333333333333</ele><time>2026-04-26T12:16:28.593Z</time></trkpt><trkpt lat="45.9396888" lon="11.6719227"><ele>1373.0</ele><time>2026-04-26T12:16:29.605Z</time></trkpt><trkpt lat="45.9396212" lon="11.6719451"><ele>1373.6666666666665</ele><time>2026-04-26T12:16:30.59Z</time></trkpt><trkpt lat="45.9395598" lon="11.6719158"><ele>1374.3333333333333</ele><time>2026-04-26T12:16:31.594Z</time></trkpt><trkpt lat="45.9395052" lon="11.67185"><ele>1375.0</ele><time>2026-04-26T12:16:32.6Z</time></trkpt><trkpt lat="45.9394401" lon="11.6717646"><ele>1375.0</ele><time>2026-04-26T12:16:33.598Z</time></trkpt><trkpt lat="45.9393624" lon="11.6716517"><ele>1375.0</ele><time>2026-04-26T12:16:34.6Z</time></trkpt><trkpt lat="45.9392761" lon="11.6714856"><ele>1375.0</ele><time>2026-04-26T12:16:35.577Z</time></trkpt><trkpt lat="45.9392015" lon="11.6713142"><ele>1375.0</ele><time>2026-04-26T12:16:36.603Z</time></trkpt><trkpt lat="45.9391521" lon="11.6712315"><ele>1375.3333333333333</ele><time>2026-04-26T12:16:37.592Z</time></trkpt><trkpt lat="45.9390758" lon="11.6712626"><ele>1375.6666666666665</ele><time>2026-04-26T12:18:43.601Z</time></trkpt><trkpt lat="45.9390215" lon="11.6713345"><ele>1376.0</ele><time>2026-04-26T12:18:44.6Z</time></trkpt><trkpt lat="45.9389529" lon="11.6713998"><ele>1376.3333333333333</ele><time>2026-04-26T12:18:45.589Z</time></trkpt><trkpt lat="45.9388701" lon="11.6714574"><ele>1376.6666666666667</ele><time>2026-04-26T12:18:46.602Z</time></trkpt><trkpt lat="45.9387758" lon="11.671486"><ele>1377.0</ele><time>2026-04-26T12:18:47.599Z</time></trkpt><trkpt lat="45.9386901" lon="11.6714858"><ele>1377.0</ele><time>2026-04-26T12:18:48.585Z</time></trkpt><trkpt lat="45.9386129" lon="11.6714825"><ele>1377.0</ele><time>2026-04-26T12:18:49.59Z</time></trkpt><trkpt lat="45.9385319" lon="11.6714688"><ele>1377.0</ele><time>2026-04-26T12:18:50.596Z</time></trkpt><trkpt lat="45.9384603" lon="11.6714364"><ele>1377.0</ele><time>2026-04-26T12:18:51.6Z</time></trkpt><trkpt lat="45.9383848" lon="11.6713856"><ele>1377.0</ele><time>2026-04-26T12:18:52.602Z</time></trkpt><trkpt lat="45.9383007" lon="11.6713122"><ele>1377.0</ele><time>2026-04-26T12:18:53.597Z</time></trkpt><trkpt lat="45.9382116" lon="11.6712206"><ele>1376.3999999999999</ele><time>2026-04-26T12:18:54.589Z</time></trkpt><trkpt lat="45.9381142" lon="11.671118"><ele>1375.8</ele><time>2026-04-26T12:18:55.59Z</time></trkpt><trkpt lat="45.9380252" lon="11.6710128"><ele>1375.2</ele><time>2026-04-26T12:18:56.588Z</time></trkpt><trkpt lat="45.9379548" lon="11.6708971"><ele>1374.6</ele><time>2026-04-26T12:18:57.594Z</time></trkpt><trkpt lat="45.9378873" lon="11.6707937"><ele>1374.0</ele><time>2026-04-26T12:18:58.615Z</time></trkpt><trkpt lat="45.9378133" lon="11.6707352"><ele>1377.0</ele><time>2026-04-26T12:18:59.597Z</time></trkpt><trkpt lat="45.9377308" lon="11.6707245"><ele>1380.0</ele><time>2026-04-26T12:19:00.597Z</time></trkpt><trkpt lat="45.937651" lon="11.670759"><ele>1383.0</ele><time>2026-04-26T12:19:01.601Z</time></trkpt><trkpt lat="45.9375568" lon="11.6708324"><ele>1386.0</ele><time>2026-04-26T12:19:02.593Z</time></trkpt><trkpt lat="45.9374536" lon="11.6709231"><ele>1389.0</ele><time>2026-04-26T12:19:03.601Z</time></trkpt><trkpt lat="45.9373238" lon="11.6710237"><ele>1384.25</ele><time>2026-04-26T12:19:04.597Z</time></trkpt><trkpt lat="45.9371882" lon="11.6711221"><ele>1379.5</ele><time>2026-04-26T12:19:05.61Z</time></trkpt><trkpt lat="45.9370707" lon="11.671207"><ele>1374.75</ele><time>2026-04-26T12:19:06.587Z</time></trkpt><trkpt lat="45.9369669" lon="11.6712778"><ele>1370.0</ele><time>2026-04-26T12:19:07.598Z</time></trkpt><trkpt lat="45.9368691" lon="11.6713396"><ele>1370.0</ele><time>2026-04-26T12:19:08.595Z</time></trkpt><trkpt lat="45.9367699" lon="11.6713842"><ele>1370.0</ele><time>2026-04-26T12:19:09.596Z</time></trkpt><trkpt lat="45.9366815" lon="11.6713962"><ele>1370.0</ele><time>2026-04-26T12:19:10.592Z</time></trkpt><trkpt lat="45.9365914" lon="11.6713775"><ele>1370.0</ele><time>2026-04-26T12:19:11.614Z</time></trkpt><trkpt lat="45.9365053" lon="11.6713204"><ele>1370.0</ele><time>2026-04-26T12:19:12.598Z</time></trkpt><trkpt lat="45.9364256" lon="11.671245"><ele>1372.6</ele><time>2026-04-26T12:19:13.61Z</time></trkpt><trkpt lat="45.9363448" lon="11.6711611"><ele>1375.2</ele><time>2026-04-26T12:19:14.597Z</time></trkpt><trkpt lat="45.9362521" lon="11.6710713"><ele>1377.8000000000002</ele><time>2026-04-26T12:19:15.605Z</time></trkpt><trkpt lat="45.9361568" lon="11.6709758"><ele>1380.4</ele><time>2026-04-26T12:19:16.594Z</time></trkpt><trkpt lat="45.9360614" lon="11.6708833"><ele>1383.0</ele><time>2026-04-26T12:19:17.599Z</time></trkpt><trkpt lat="45.9359679" lon="11.670785"><ele>1385.6666666666667</ele><time>2026-04-26T12:19:18.59Z</time></trkpt><trkpt lat="45.9358778" lon="11.6707228"><ele>1388.3333333333333</ele><time>2026-04-26T12:19:19.596Z</time></trkpt><trkpt lat="45.9357963" lon="11.6706809"><ele>1391.0</ele><time>2026-04-26T12:19:20.586Z</time></trkpt><trkpt lat="45.9357212" lon="11.6706559"><ele>1393.6666666666665</ele><time>2026-04-26T12:19:21.598Z</time></trkpt><trkpt lat="45.9356451" lon="11.670658"><ele>1396.3333333333333</ele><time>2026-04-26T12:19:22.602Z</time></trkpt><trkpt lat="45.9355738" lon="11.6706907"><ele>1399.0</ele><time>2026-04-26T12:19:23.598Z</time></trkpt><trkpt lat="45.9355144" lon="11.6707413"><ele>1399.0</ele><time>2026-04-26T12:19:24.616Z</time></trkpt><trkpt lat="45.9354538" lon="11.6708128"><ele>1399.0</ele><time>2026-04-26T12:19:25.588Z</time></trkpt><trkpt lat="45.9354063" lon="11.6709029"><ele>1399.0</ele><time>2026-04-26T12:19:26.598Z</time></trkpt><trkpt lat="45.9353439" lon="11.6710033"><ele>1399.0</ele><time>2026-04-26T12:19:27.59Z</time></trkpt><trkpt lat="45.9352665" lon="11.6711069"><ele>1399.0</ele><time>2026-04-26T12:19:28.594Z</time></trkpt><trkpt lat="45.9351785" lon="11.6712128"><ele>1397.8000000000002</ele><time>2026-04-26T12:19:29.589Z</time></trkpt><trkpt lat="45.9350821" lon="11.6713138"><ele>1396.6000000000001</ele><time>2026-04-26T12:19:30.595Z</time></trkpt><trkpt lat="45.9349882" lon="11.6714019"><ele>1395.4</ele><time>2026-04-26T12:19:31.607Z</time></trkpt><trkpt lat="45.9349079" lon="11.6714629"><ele>1394.2</ele><time>2026-04-26T12:19:32.595Z</time></trkpt><trkpt lat="45.9348296" lon="11.6715054"><ele>1393.0</ele><time>2026-04-26T12:19:33.59Z</time></trkpt><trkpt lat="45.9347438" lon="11.6715334"><ele>1393.0</ele><time>2026-04-26T12:19:34.598Z</time></trkpt><trkpt lat="45.9346568" lon="11.6715394"><ele>1393.0</ele><time>2026-04-26T12:19:35.591Z</time></trkpt><trkpt lat="45.9345681" lon="11.6715242"><ele>1393.0</ele><time>2026-04-26T12:19:36.592Z</time></trkpt><trkpt lat="45.934475" lon="11.6714824"><ele>1393.0</ele><time>2026-04-26T12:19:37.61Z</time></trkpt><trkpt lat="45.9343897" lon="11.6714166"><ele>1393.0</ele><time>2026-04-26T12:19:38.591Z</time></trkpt><trkpt lat="45.934293" lon="11.671321"><ele>1393.5</ele><time>2026-04-26T12:19:39.59Z</time></trkpt><trkpt lat="45.9341862" lon="11.6711903"><ele>1394.0</ele><time>2026-04-26T12:19:40.598Z</time></trkpt><trkpt lat="45.9340738" lon="11.6710594"><ele>1394.5</ele><time>2026-04-26T12:19:41.598Z</time></trkpt><trkpt lat="45.9339826" lon="11.6709539"><ele>1395.0</ele><time>2026-04-26T12:19:42.586Z</time></trkpt><trkpt lat="45.9338997" lon="11.6708668"><ele>1399.0</ele><time>2026-04-26T12:19:43.6Z</time></trkpt><trkpt lat="45.933821" lon="11.670787"><ele>1403.0</ele><time>2026-04-26T12:19:44.594Z</time></trkpt><trkpt lat="45.9337547" lon="11.6706967"><ele>1407.0</ele><time>2026-04-26T12:19:45.589Z</time></trkpt><trkpt lat="45.9337002" lon="11.6705902"><ele>1411.0</ele><time>2026-04-26T12:19:46.593Z</time></trkpt><trkpt lat="45.93366" lon="11.6704669"><ele>1415.0</ele><time>2026-04-26T12:19:47.584Z</time></trkpt><trkpt lat="45.9336192" lon="11.6703249"><ele>1419.25</ele><time>2026-04-26T12:19:48.597Z</time></trkpt><trkpt lat="45.9335852" lon="11.6701664"><ele>1423.5</ele><time>2026-04-26T12:19:49.606Z</time></trkpt><trkpt lat="45.9335509" lon="11.6699912"><ele>1427.75</ele><time>2026-04-26T12:19:50.609Z</time></trkpt><trkpt lat="45.9335178" lon="11.6698101"><ele>1432.0</ele><time>2026-04-26T12:19:51.601Z</time></trkpt><trkpt lat="45.9334818" lon="11.6696189"><ele>1436.25</ele><time>2026-04-26T12:19:52.594Z</time></trkpt><trkpt lat="45.9334429" lon="11.6694304"><ele>1440.5</ele><time>2026-04-26T12:19:53.607Z</time></trkpt><trkpt lat="45.9334074" lon="11.669268"><ele>1444.75</ele><time>2026-04-26T12:19:54.586Z</time></trkpt><trkpt lat="45.9333712" lon="11.6691144"><ele>1449.0</ele><time>2026-04-26T12:19:55.596Z</time></trkpt><trkpt lat="45.9333354" lon="11.6689571"><ele>1444.6</ele><time>2026-04-26T12:19:56.602Z</time></trkpt><trkpt lat="45.9333021" lon="11.6688012"><ele>1440.2</ele><time>2026-04-26T12:19:57.588Z</time></trkpt><trkpt lat="45.9332712" lon="11.6686494"><ele>1435.8</ele><time>2026-04-26T12:19:58.616Z</time></trkpt><trkpt lat="45.9332395" lon="11.6685064"><ele>1431.3999999999999</ele><time>2026-04-26T12:19:59.604Z</time></trkpt><trkpt lat="45.9332123" lon="11.6683612"><ele>1427.0</ele><time>2026-04-26T12:20:00.597Z</time></trkpt><trkpt lat="45.9331903" lon="11.6682339"><ele>1427.0</ele><time>2026-04-26T12:20:01.609Z</time></trkpt><trkpt lat="45.9331748" lon="11.6681139"><ele>1427.0</ele><time>2026-04-26T12:20:02.608Z</time></trkpt><trkpt lat="45.9331588" lon="11.6680013"><ele>1427.0</ele><time>2026-04-26T12:20:03.606Z</time></trkpt><trkpt lat="45.9331491" lon="11.6679005"><ele>1427.0</ele><time>2026-04-26T12:20:04.602Z</time></trkpt><trkpt lat="45.9331383" lon="11.6678113"><ele>1427.0</ele><time>2026-04-26T12:20:05.583Z</time></trkpt><trkpt lat="45.9331128" lon="11.6676932"><ele>1427.0</ele><time>2026-04-26T12:20:07.599Z</time></trkpt><trkpt lat="45.933092" lon="11.6675988"><ele>1427.1666666666667</ele><time>2026-04-26T12:20:10.592Z</time></trkpt><trkpt lat="45.9330735" lon="11.6674878"><ele>1427.3333333333335</ele><time>2026-04-26T12:20:14.597Z</time></trkpt><trkpt lat="45.9330534" lon="11.6673913"><ele>1427.5</ele><time>2026-04-26T12:20:17.595Z</time></trkpt><trkpt lat="45.93305" lon="11.6672864"><ele>1427.6666666666667</ele><time>2026-04-26T12:20:21.608Z</time></trkpt><trkpt lat="45.9330547" lon="11.6671741"><ele>1427.8333333333333</ele><time>2026-04-26T12:21:00.605Z</time></trkpt><trkpt lat="45.9330695" lon="11.6670435"><ele>1428.0</ele><time>2026-04-26T12:21:02.592Z</time></trkpt><trkpt lat="45.9330823" lon="11.6668922"><ele>1428.0</ele><time>2026-04-26T12:21:04.598Z</time></trkpt><trkpt lat="45.933103" lon="11.6667263"><ele>1428.0</ele><time>2026-04-26T12:21:06.596Z</time></trkpt><trkpt lat="45.9331348" lon="11.6665492"><ele>1428.0</ele><time>2026-04-26T12:21:08.586Z</time></trkpt><trkpt lat="45.9331525" lon="11.666452"><ele>1428.0</ele><time>2026-04-26T12:21:09.602Z</time></trkpt><trkpt lat="45.9331752" lon="11.6662803"><ele>1428.0</ele><time>2026-04-26T12:21:11.595Z</time></trkpt><trkpt lat="45.9331877" lon="11.6661645"><ele>1427.1666666666667</ele><time>2026-04-26T12:21:13.593Z</time></trkpt><trkpt lat="45.9331973" lon="11.6660679"><ele>1426.3333333333333</ele><time>2026-04-26T12:21:15.618Z</time></trkpt><trkpt lat="45.9332126" lon="11.6659626"><ele>1425.5</ele><time>2026-04-26T12:21:17.6Z</time></trkpt><trkpt lat="45.9332263" lon="11.6658557"><ele>1424.6666666666665</ele><time>2026-04-26T12:21:19.593Z</time></trkpt><trkpt lat="45.9332512" lon="11.6657484"><ele>1423.8333333333333</ele><time>2026-04-26T12:21:21.594Z</time></trkpt><trkpt lat="45.9332709" lon="11.6656401"><ele>1423.0</ele><time>2026-04-26T12:21:23.608Z</time></trkpt><trkpt lat="45.933294" lon="11.665529"><ele>1423.0</ele><time>2026-04-26T12:21:25.592Z</time></trkpt><trkpt lat="45.9333218" lon="11.6654163"><ele>1423.0</ele><time>2026-04-26T12:21:27.599Z</time></trkpt><trkpt lat="45.9333571" lon="11.6652844"><ele>1423.0</ele><time>2026-04-26T12:21:29.603Z</time></trkpt><trkpt lat="45.9334183" lon="11.6651418"><ele>1423.0</ele><time>2026-04-26T12:21:31.592Z</time></trkpt><trkpt lat="45.9334522" lon="11.6650572"><ele>1423.0</ele><time>2026-04-26T12:21:32.602Z</time></trkpt><trkpt lat="45.9334939" lon="11.6649694"><ele>1423.0</ele><time>2026-04-26T12:21:33.607Z</time></trkpt><trkpt lat="45.9335304" lon="11.6648796"><ele>1421.4</ele><time>2026-04-26T12:21:34.622Z</time></trkpt><trkpt lat="45.933569" lon="11.664775"><ele>1419.8000000000002</ele><time>2026-04-26T12:21:35.592Z</time></trkpt><trkpt lat="45.9336066" lon="11.6646613"><ele>1418.2</ele><time>2026-04-26T12:21:36.594Z</time></trkpt><trkpt lat="45.9336477" lon="11.664541"><ele>1416.6</ele><time>2026-04-26T12:21:37.612Z</time></trkpt><trkpt lat="45.9336859" lon="11.6644093"><ele>1415.0</ele><time>2026-04-26T12:21:38.601Z</time></trkpt><trkpt lat="45.9337195" lon="11.6642782"><ele>1412.5</ele><time>2026-04-26T12:21:39.602Z</time></trkpt><trkpt lat="45.9337492" lon="11.6641539"><ele>1410.0</ele><time>2026-04-26T12:21:40.593Z</time></trkpt><trkpt lat="45.9337768" lon="11.6640298"><ele>1407.5</ele><time>2026-04-26T12:21:41.597Z</time></trkpt><trkpt lat="45.9337975" lon="11.6639128"><ele>1405.0</ele><time>2026-04-26T12:21:42.6Z</time></trkpt><trkpt lat="45.9338102" lon="11.6637985"><ele>1402.5</ele><time>2026-04-26T12:21:43.606Z</time></trkpt><trkpt lat="45.9338195" lon="11.6636869"><ele>1400.0</ele><time>2026-04-26T12:21:44.591Z</time></trkpt><trkpt lat="45.933828" lon="11.6635766"><ele>1398.6666666666667</ele><time>2026-04-26T12:21:45.587Z</time></trkpt><trkpt lat="45.9338368" lon="11.6634617"><ele>1397.3333333333335</ele><time>2026-04-26T12:21:46.594Z</time></trkpt><trkpt lat="45.9338417" lon="11.6633535"><ele>1396.0</ele><time>2026-04-26T12:21:47.613Z</time></trkpt><trkpt lat="45.9338425" lon="11.6632432"><ele>1394.6666666666667</ele><time>2026-04-26T12:21:48.586Z</time></trkpt><trkpt lat="45.9338378" lon="11.6631219"><ele>1393.3333333333333</ele><time>2026-04-26T12:21:49.589Z</time></trkpt><trkpt lat="45.9338337" lon="11.6629977"><ele>1392.0</ele><time>2026-04-26T12:21:50.597Z</time></trkpt><trkpt lat="45.9338278" lon="11.6628792"><ele>1390.6666666666667</ele><time>2026-04-26T12:21:51.604Z</time></trkpt><trkpt lat="45.9338242" lon="11.6627521"><ele>1389.3333333333333</ele><time>2026-04-26T12:21:52.593Z</time></trkpt><trkpt lat="45.9338139" lon="11.6626319"><ele>1388.0</ele><time>2026-04-26T12:21:53.594Z</time></trkpt><trkpt lat="45.9338004" lon="11.6625164"><ele>1386.6666666666665</ele><time>2026-04-26T12:21:54.599Z</time></trkpt><trkpt lat="45.9337717" lon="11.6624203"><ele>1385.3333333333333</ele><time>2026-04-26T12:21:55.598Z</time></trkpt><trkpt lat="45.9337392" lon="11.662339"><ele>1384.0</ele><time>2026-04-26T12:21:56.601Z</time></trkpt><trkpt lat="45.9337025" lon="11.6622635"><ele>1384.0</ele><time>2026-04-26T12:21:57.608Z</time></trkpt><trkpt lat="45.9336475" lon="11.6622151"><ele>1384.0</ele><time>2026-04-26T12:21:58.592Z</time></trkpt><trkpt lat="45.9335778" lon="11.6621812"><ele>1384.0</ele><time>2026-04-26T12:21:59.593Z</time></trkpt><trkpt lat="45.93351" lon="11.6621699"><ele>1384.0</ele><time>2026-04-26T12:22:00.589Z</time></trkpt><trkpt lat="45.9334041" lon="11.6621399"><ele>1384.0</ele><time>2026-04-26T12:22:02.589Z</time></trkpt><trkpt lat="45.9333679" lon="11.6620471"><ele>1384.0</ele><time>2026-04-26T12:22:04.606Z</time></trkpt><trkpt lat="45.9334289" lon="11.661973"><ele>1384.0</ele><time>2026-04-26T12:22:06.598Z</time></trkpt><trkpt lat="45.9334941" lon="11.661977"><ele>1384.0</ele><time>2026-04-26T12:22:07.585Z</time></trkpt><trkpt lat="45.9335726" lon="11.6620059"><ele>1384.0</ele><time>2026-04-26T12:22:08.591Z</time></trkpt><trkpt lat="45.933664" lon="11.6620436"><ele>1384.0</ele><time>2026-04-26T12:22:09.591Z</time></trkpt><trkpt lat="45.9337534" lon="11.6620885"><ele>1384.0</ele><time>2026-04-26T12:22:10.588Z</time></trkpt><trkpt lat="45.9338164" lon="11.6621435"><ele>1384.0</ele><time>2026-04-26T12:22:11.591Z</time></trkpt><trkpt lat="45.9338628" lon="11.6622294"><ele>1384.0</ele><time>2026-04-26T12:22:12.59Z</time></trkpt><trkpt lat="45.9338914" lon="11.6623222"><ele>1384.0</ele><time>2026-04-26T12:22:13.588Z</time></trkpt><trkpt lat="45.9339174" lon="11.6624916"><ele>1384.0</ele><time>2026-04-26T12:22:15.59Z</time></trkpt><trkpt lat="45.9339533" lon="11.6626257"><ele>1384.0</ele><time>2026-04-26T12:22:17.582Z</time></trkpt><trkpt lat="45.9340422" lon="11.6626698"><ele>1384.0</ele><time>2026-04-26T12:22:19.591Z</time></trkpt><trkpt lat="45.9341468" lon="11.6626482"><ele>1386.8000000000002</ele><time>2026-04-26T12:22:21.601Z</time></trkpt><trkpt lat="45.9342284" lon="11.6625398"><ele>1389.6000000000001</ele><time>2026-04-26T12:22:23.589Z</time></trkpt><trkpt lat="45.9342668" lon="11.662368"><ele>1392.4</ele><time>2026-04-26T12:22:25.606Z</time></trkpt><trkpt lat="45.9342687" lon="11.6622537"><ele>1395.2</ele><time>2026-04-26T12:22:26.587Z</time></trkpt><trkpt lat="45.9342696" lon="11.6621181"><ele>1398.0</ele><time>2026-04-26T12:22:27.599Z</time></trkpt><trkpt lat="45.934265" lon="11.6619521"><ele>1397.8000000000002</ele><time>2026-04-26T12:22:28.594Z</time></trkpt><trkpt lat="45.9342615" lon="11.661784"><ele>1397.6</ele><time>2026-04-26T12:22:29.586Z</time></trkpt><trkpt lat="45.93426" lon="11.6616234"><ele>1397.4</ele><time>2026-04-26T12:22:30.595Z</time></trkpt><trkpt lat="45.9342538" lon="11.6614738"><ele>1397.1999999999998</ele><time>2026-04-26T12:22:31.592Z</time></trkpt><trkpt lat="45.9342499" lon="11.6613209"><ele>1397.0</ele><time>2026-04-26T12:22:32.596Z</time></trkpt><trkpt lat="45.934243" lon="11.661167"><ele>1396.6666666666667</ele><time>2026-04-26T12:22:33.592Z</time></trkpt><trkpt lat="45.93424" lon="11.6610256"><ele>1396.3333333333335</ele><time>2026-04-26T12:22:34.595Z</time></trkpt><trkpt lat="45.9342344" lon="11.6608987"><ele>1396.0</ele><time>2026-04-26T12:22:35.601Z</time></trkpt><trkpt lat="45.9342256" lon="11.6607841"><ele>1395.6666666666667</ele><time>2026-04-26T12:22:36.595Z</time></trkpt><trkpt lat="45.9342232" lon="11.660678"><ele>1395.3333333333333</ele><time>2026-04-26T12:22:37.593Z</time></trkpt><trkpt lat="45.9342276" lon="11.6605805"><ele>1395.0</ele><time>2026-04-26T12:22:38.595Z</time></trkpt><trkpt lat="45.9342313" lon="11.6604899"><ele>1395.0</ele><time>2026-04-26T12:22:39.593Z</time></trkpt><trkpt lat="45.9342541" lon="11.6602959"><ele>1395.0</ele><time>2026-04-26T12:22:41.603Z</time></trkpt><trkpt lat="45.9342748" lon="11.6601865"><ele>1395.0</ele><time>2026-04-26T12:22:42.588Z</time></trkpt><trkpt lat="45.9342939" lon="11.6600804"><ele>1395.0</ele><time>2026-04-26T12:22:43.592Z</time></trkpt><trkpt lat="45.9343127" lon="11.6599781"><ele>1395.0</ele><time>2026-04-26T12:22:44.61Z</time></trkpt><trkpt lat="45.9343297" lon="11.6598792"><ele>1395.0</ele><time>2026-04-26T12:22:45.589Z</time></trkpt><trkpt lat="45.93435" lon="11.6597773"><ele>1394.857142857143</ele><time>2026-04-26T12:22:46.594Z</time></trkpt><trkpt lat="45.9343722" lon="11.6596708"><ele>1394.7142857142856</ele><time>2026-04-26T12:22:47.581Z</time></trkpt><trkpt lat="45.934385" lon="11.6595731"><ele>1394.5714285714284</ele><time>2026-04-26T12:22:48.583Z</time></trkpt><trkpt lat="45.9343977" lon="11.6594721"><ele>1394.4285714285716</ele><time>2026-04-26T12:22:49.593Z</time></trkpt><trkpt lat="45.9344016" lon="11.6593676"><ele>1394.2857142857142</ele><time>2026-04-26T12:22:50.589Z</time></trkpt><trkpt lat="45.9343997" lon="11.659262"><ele>1394.142857142857</ele><time>2026-04-26T12:22:51.592Z</time></trkpt><trkpt lat="45.9343848" lon="11.6591415"><ele>1394.0</ele><time>2026-04-26T12:22:52.587Z</time></trkpt><trkpt lat="45.9343698" lon="11.6590226"><ele>1393.8000000000002</ele><time>2026-04-26T12:22:53.594Z</time></trkpt><trkpt lat="45.9343514" lon="11.6588871"><ele>1393.6000000000001</ele><time>2026-04-26T12:22:54.585Z</time></trkpt><trkpt lat="45.9343331" lon="11.6587447"><ele>1393.4</ele><time>2026-04-26T12:22:55.598Z</time></trkpt><trkpt lat="45.9343113" lon="11.6586024"><ele>1393.2</ele><time>2026-04-26T12:22:56.586Z</time></trkpt><trkpt lat="45.9342882" lon="11.6584515"><ele>1393.0</ele><time>2026-04-26T12:22:57.601Z</time></trkpt><trkpt lat="45.9342653" lon="11.6583019"><ele>1392.2</ele><time>2026-04-26T12:22:58.586Z</time></trkpt><trkpt lat="45.9342371" lon="11.6581579"><ele>1391.4</ele><time>2026-04-26T12:22:59.613Z</time></trkpt><trkpt lat="45.9341968" lon="11.658023"><ele>1390.6000000000001</ele><time>2026-04-26T12:23:00.595Z</time></trkpt><trkpt lat="45.9341513" lon="11.6578832"><ele>1389.8000000000002</ele><time>2026-04-26T12:23:01.608Z</time></trkpt><trkpt lat="45.9341052" lon="11.6577499"><ele>1389.0</ele><time>2026-04-26T12:23:02.585Z</time></trkpt><trkpt lat="45.9340707" lon="11.6576277"><ele>1384.2</ele><time>2026-04-26T12:23:03.595Z</time></trkpt><trkpt lat="45.934024" lon="11.6575054"><ele>1379.4</ele><time>2026-04-26T12:23:04.588Z</time></trkpt><trkpt lat="45.9339693" lon="11.6573779"><ele>1374.6</ele><time>2026-04-26T12:23:05.587Z</time></trkpt><trkpt lat="45.9339218" lon="11.6572406"><ele>1369.8</ele><time>2026-04-26T12:23:06.588Z</time></trkpt><trkpt lat="45.9338777" lon="11.6570803"><ele>1365.0</ele><time>2026-04-26T12:23:07.588Z</time></trkpt><trkpt lat="45.9338379" lon="11.6568964"><ele>1364.8</ele><time>2026-04-26T12:23:08.587Z</time></trkpt><trkpt lat="45.9337982" lon="11.6567335"><ele>1364.6</ele><time>2026-04-26T12:23:09.581Z</time></trkpt><trkpt lat="45.9337676" lon="11.6565886"><ele>1364.4</ele><time>2026-04-26T12:23:10.591Z</time></trkpt><trkpt lat="45.9337381" lon="11.6564574"><ele>1364.2</ele><time>2026-04-26T12:23:11.6Z</time></trkpt><trkpt lat="45.9337068" lon="11.6563382"><ele>1364.0</ele><time>2026-04-26T12:23:12.587Z</time></trkpt><trkpt lat="45.9336788" lon="11.6562386"><ele>1364.0</ele><time>2026-04-26T12:23:13.595Z</time></trkpt><trkpt lat="45.9336515" lon="11.6561539"><ele>1364.0</ele><time>2026-04-26T12:23:14.605Z</time></trkpt><trkpt lat="45.9336192" lon="11.6560652"><ele>1364.0</ele><time>2026-04-26T12:23:15.59Z</time></trkpt><trkpt lat="45.9335853" lon="11.6559693"><ele>1364.0</ele><time>2026-04-26T12:23:16.594Z</time></trkpt><trkpt lat="45.9335593" lon="11.6558774"><ele>1364.0</ele><time>2026-04-26T12:23:17.591Z</time></trkpt><trkpt lat="45.9335382" lon="11.655788"><ele>1364.0</ele><time>2026-04-26T12:23:18.585Z</time></trkpt><trkpt lat="45.9335003" lon="11.6556073"><ele>1364.4285714285713</ele><time>2026-04-26T12:23:20.584Z</time></trkpt><trkpt lat="45.9334767" lon="11.6555171"><ele>1364.857142857143</ele><time>2026-04-26T12:23:21.582Z</time></trkpt><trkpt lat="45.9334477" lon="11.655425"><ele>1365.2857142857142</ele><time>2026-04-26T12:23:22.593Z</time></trkpt><trkpt lat="45.9334195" lon="11.6553366"><ele>1365.7142857142858</ele><time>2026-04-26T12:23:23.582Z</time></trkpt><trkpt lat="45.9333999" lon="11.6552422"><ele>1366.142857142857</ele><time>2026-04-26T12:23:24.598Z</time></trkpt><trkpt lat="45.9333818" lon="11.6551457"><ele>1366.5714285714287</ele><time>2026-04-26T12:23:25.599Z</time></trkpt><trkpt lat="45.9333639" lon="11.6550515"><ele>1367.0</ele><time>2026-04-26T12:23:26.59Z</time></trkpt><trkpt lat="45.9333481" lon="11.6549453"><ele>1364.6</ele><time>2026-04-26T12:23:27.59Z</time></trkpt><trkpt lat="45.9333387" lon="11.6548246"><ele>1362.1999999999998</ele><time>2026-04-26T12:23:28.595Z</time></trkpt><trkpt lat="45.9333283" lon="11.6546853"><ele>1359.8</ele><time>2026-04-26T12:23:29.594Z</time></trkpt><trkpt lat="45.9333152" lon="11.6545382"><ele>1357.4</ele><time>2026-04-26T12:23:30.575Z</time></trkpt><trkpt lat="45.9332939" lon="11.6543916"><ele>1355.0</ele><time>2026-04-26T12:23:31.586Z</time></trkpt><trkpt lat="45.9332731" lon="11.6542349"><ele>1353.5</ele><time>2026-04-26T12:23:32.594Z</time></trkpt><trkpt lat="45.9332603" lon="11.6540715"><ele>1352.0</ele><time>2026-04-26T12:23:33.588Z</time></trkpt><trkpt lat="45.9332536" lon="11.6538954"><ele>1350.5</ele><time>2026-04-26T12:23:34.585Z</time></trkpt><trkpt lat="45.9332571" lon="11.6537168"><ele>1349.0</ele><time>2026-04-26T12:23:35.581Z</time></trkpt><trkpt lat="45.9332633" lon="11.6535353"><ele>1347.25</ele><time>2026-04-26T12:23:36.583Z</time></trkpt><trkpt lat="45.9332811" lon="11.6533482"><ele>1345.5</ele><time>2026-04-26T12:23:37.576Z</time></trkpt><trkpt lat="45.9333091" lon="11.6531622"><ele>1343.75</ele><time>2026-04-26T12:23:38.59Z</time></trkpt><trkpt lat="45.9333524" lon="11.6529985"><ele>1342.0</ele><time>2026-04-26T12:23:39.592Z</time></trkpt><trkpt lat="45.9333911" lon="11.6528634"><ele>1343.5</ele><time>2026-04-26T12:23:40.583Z</time></trkpt><trkpt lat="45.9334365" lon="11.6527396"><ele>1345.0</ele><time>2026-04-26T12:23:41.582Z</time></trkpt><trkpt lat="45.9334918" lon="11.6526498"><ele>1346.5</ele><time>2026-04-26T12:23:42.597Z</time></trkpt><trkpt lat="45.9335495" lon="11.6525784"><ele>1348.0</ele><time>2026-04-26T12:23:43.587Z</time></trkpt><trkpt lat="45.9336207" lon="11.6525145"><ele>1349.5</ele><time>2026-04-26T12:23:44.588Z</time></trkpt><trkpt lat="45.933696" lon="11.6524575"><ele>1351.0</ele><time>2026-04-26T12:23:45.592Z</time></trkpt><trkpt lat="45.9337949" lon="11.6523934"><ele>1351.0</ele><time>2026-04-26T12:23:46.59Z</time></trkpt><trkpt lat="45.9339135" lon="11.6523327"><ele>1351.0</ele><time>2026-04-26T12:23:47.585Z</time></trkpt><trkpt lat="45.9340229" lon="11.6522799"><ele>1351.0</ele><time>2026-04-26T12:23:48.607Z</time></trkpt><trkpt lat="45.934127" lon="11.6522439"><ele>1351.0</ele><time>2026-04-26T12:23:49.59Z</time></trkpt><trkpt lat="45.934218" lon="11.6522474"><ele>1351.0</ele><time>2026-04-26T12:23:50.586Z</time></trkpt><trkpt lat="45.9342935" lon="11.6522588"><ele>1352.5</ele><time>2026-04-26T12:23:51.592Z</time></trkpt><trkpt lat="45.9343651" lon="11.6522523"><ele>1354.0</ele><time>2026-04-26T12:23:52.59Z</time></trkpt><trkpt lat="45.9344588" lon="11.6521957"><ele>1355.5</ele><time>2026-04-26T12:23:54.597Z</time></trkpt><trkpt lat="45.9345144" lon="11.6520976"><ele>1357.0</ele><time>2026-04-26T12:23:56.583Z</time></trkpt><trkpt lat="45.9344914" lon="11.6519852"><ele>1358.5</ele><time>2026-04-26T12:23:58.595Z</time></trkpt><trkpt lat="45.934456" lon="11.6518958"><ele>1360.0</ele><time>2026-04-26T12:23:59.595Z</time></trkpt><trkpt lat="45.9344172" lon="11.6518037"><ele>1361.8</ele><time>2026-04-26T12:24:00.601Z</time></trkpt><trkpt lat="45.9343753" lon="11.6516938"><ele>1363.6</ele><time>2026-04-26T12:24:01.593Z</time></trkpt><trkpt lat="45.9343269" lon="11.6515813"><ele>1365.4</ele><time>2026-04-26T12:24:02.601Z</time></trkpt><trkpt lat="45.9342725" lon="11.6514609"><ele>1367.2</ele><time>2026-04-26T12:24:03.586Z</time></trkpt><trkpt lat="45.9342149" lon="11.6513423"><ele>1369.0</ele><time>2026-04-26T12:24:04.59Z</time></trkpt><trkpt lat="45.9341528" lon="11.6512207"><ele>1367.75</ele><time>2026-04-26T12:24:05.577Z</time></trkpt><trkpt lat="45.9340708" lon="11.6510724"><ele>1366.5</ele><time>2026-04-26T12:24:06.584Z</time></trkpt><trkpt lat="45.9339799" lon="11.6509258"><ele>1365.25</ele><time>2026-04-26T12:24:07.597Z</time></trkpt><trkpt lat="45.9338969" lon="11.6507968"><ele>1364.0</ele><time>2026-04-26T12:24:08.592Z</time></trkpt><trkpt lat="45.9338135" lon="11.6506773"><ele>1364.0</ele><time>2026-04-26T12:24:09.573Z</time></trkpt><trkpt lat="45.9337314" lon="11.6505575"><ele>1364.0</ele><time>2026-04-26T12:24:10.591Z</time></trkpt><trkpt lat="45.9336487" lon="11.6504336"><ele>1364.0</ele><time>2026-04-26T12:24:11.59Z</time></trkpt><trkpt lat="45.9335664" lon="11.6502966"><ele>1364.0</ele><time>2026-04-26T12:24:12.599Z</time></trkpt><trkpt lat="45.9335051" lon="11.6501825"><ele>1363.1666666666667</ele><time>2026-04-26T12:24:13.592Z</time></trkpt><trkpt lat="45.9334501" lon="11.650071"><ele>1362.3333333333335</ele><time>2026-04-26T12:24:14.597Z</time></trkpt><trkpt lat="45.9334011" lon="11.6499531"><ele>1361.5</ele><time>2026-04-26T12:24:15.596Z</time></trkpt><trkpt lat="45.9333629" lon="11.6498419"><ele>1360.6666666666667</ele><time>2026-04-26T12:24:16.598Z</time></trkpt><trkpt lat="45.9333328" lon="11.6497372"><ele>1359.8333333333333</ele><time>2026-04-26T12:24:17.605Z</time></trkpt><trkpt lat="45.9333071" lon="11.6496346"><ele>1359.0</ele><time>2026-04-26T12:24:18.594Z</time></trkpt><trkpt lat="45.9332834" lon="11.6495416"><ele>1359.6666666666667</ele><time>2026-04-26T12:24:19.59Z</time></trkpt><trkpt lat="45.933272" lon="11.6494442"><ele>1360.3333333333333</ele><time>2026-04-26T12:24:20.602Z</time></trkpt><trkpt lat="45.9333012" lon="11.6492803"><ele>1361.0</ele><time>2026-04-26T12:24:22.595Z</time></trkpt><trkpt lat="45.9333431" lon="11.6491903"><ele>1361.6666666666665</ele><time>2026-04-26T12:24:23.596Z</time></trkpt><trkpt lat="45.933389" lon="11.649089"><ele>1362.3333333333333</ele><time>2026-04-26T12:24:24.602Z</time></trkpt><trkpt lat="45.9334485" lon="11.6489796"><ele>1363.0</ele><time>2026-04-26T12:24:25.598Z</time></trkpt><trkpt lat="45.9335051" lon="11.64886"><ele>1370.0</ele><time>2026-04-26T12:24:26.598Z</time></trkpt><trkpt lat="45.9335511" lon="11.6487247"><ele>1377.0</ele><time>2026-04-26T12:24:27.598Z</time></trkpt><trkpt lat="45.9335941" lon="11.6485659"><ele>1384.0</ele><time>2026-04-26T12:24:28.592Z</time></trkpt><trkpt lat="45.9336313" lon="11.6484051"><ele>1391.0</ele><time>2026-04-26T12:24:29.6Z</time></trkpt><trkpt lat="45.9336708" lon="11.6482391"><ele>1391.0</ele><time>2026-04-26T12:24:30.59Z</time></trkpt><trkpt lat="45.9337127" lon="11.6480777"><ele>1391.0</ele><time>2026-04-26T12:24:31.593Z</time></trkpt><trkpt lat="45.9337635" lon="11.6479276"><ele>1391.0</ele><time>2026-04-26T12:24:32.595Z</time></trkpt><trkpt lat="45.9338223" lon="11.6477958"><ele>1391.0</ele><time>2026-04-26T12:24:33.594Z</time></trkpt><trkpt lat="45.9338902" lon="11.6476572"><ele>1387.0</ele><time>2026-04-26T12:24:34.592Z</time></trkpt><trkpt lat="45.9339664" lon="11.647509"><ele>1383.0</ele><time>2026-04-26T12:24:35.584Z</time></trkpt><trkpt lat="45.9340429" lon="11.6473556"><ele>1379.0</ele><time>2026-04-26T12:24:36.596Z</time></trkpt><trkpt lat="45.9340994" lon="11.647215"><ele>1375.0</ele><time>2026-04-26T12:24:37.578Z</time></trkpt><trkpt lat="45.9341442" lon="11.6470872"><ele>1372.2</ele><time>2026-04-26T12:24:38.578Z</time></trkpt><trkpt lat="45.9341932" lon="11.6469588"><ele>1369.4</ele><time>2026-04-26T12:24:39.583Z</time></trkpt><trkpt lat="45.9342501" lon="11.6468232"><ele>1366.6</ele><time>2026-04-26T12:24:40.589Z</time></trkpt><trkpt lat="45.9343062" lon="11.6466739"><ele>1363.8</ele><time>2026-04-26T12:24:41.597Z</time></trkpt><trkpt lat="45.9343577" lon="11.6465271"><ele>1361.0</ele><time>2026-04-26T12:24:42.594Z</time></trkpt><trkpt lat="45.9344189" lon="11.6463821"><ele>1365.5</ele><time>2026-04-26T12:24:43.59Z</time></trkpt><trkpt lat="45.9344869" lon="11.646241"><ele>1370.0</ele><time>2026-04-26T12:24:44.598Z</time></trkpt><trkpt lat="45.9345538" lon="11.6461074"><ele>1374.5</ele><time>2026-04-26T12:24:45.586Z</time></trkpt><trkpt lat="45.9346241" lon="11.645974"><ele>1379.0</ele><time>2026-04-26T12:24:46.593Z</time></trkpt><trkpt lat="45.9346732" lon="11.6458417"><ele>1379.0</ele><time>2026-04-26T12:24:47.603Z</time></trkpt><trkpt lat="45.9347012" lon="11.6457053"><ele>1379.0</ele><time>2026-04-26T12:24:48.592Z</time></trkpt><trkpt lat="45.9347159" lon="11.6455758"><ele>1379.0</ele><time>2026-04-26T12:24:49.589Z</time></trkpt><trkpt lat="45.9347356" lon="11.6454511"><ele>1379.0</ele><time>2026-04-26T12:24:50.601Z</time></trkpt><trkpt lat="45.9347446" lon="11.6453207"><ele>1379.0</ele><time>2026-04-26T12:24:51.586Z</time></trkpt><trkpt lat="45.9347618" lon="11.6451912"><ele>1378.5</ele><time>2026-04-26T12:24:52.589Z</time></trkpt><trkpt lat="45.9347916" lon="11.6450939"><ele>1378.0</ele><time>2026-04-26T12:24:53.586Z</time></trkpt><trkpt lat="45.9348201" lon="11.6450088"><ele>1377.5</ele><time>2026-04-26T12:24:54.588Z</time></trkpt><trkpt lat="45.9348587" lon="11.644918"><ele>1377.0</ele><time>2026-04-26T12:24:55.594Z</time></trkpt><trkpt lat="45.934906" lon="11.6448225"><ele>1376.5</ele><time>2026-04-26T12:24:56.587Z</time></trkpt><trkpt lat="45.9349567" lon="11.6447305"><ele>1376.0</ele><time>2026-04-26T12:24:57.589Z</time></trkpt><trkpt lat="45.9350104" lon="11.6446383"><ele>1379.6</ele><time>2026-04-26T12:24:58.586Z</time></trkpt><trkpt lat="45.9350717" lon="11.6445307"><ele>1383.1999999999998</ele><time>2026-04-26T12:24:59.608Z</time></trkpt><trkpt lat="45.9351339" lon="11.6444151"><ele>1386.8000000000002</ele><time>2026-04-26T12:25:00.598Z</time></trkpt><trkpt lat="45.9351965" lon="11.6442975"><ele>1390.4</ele><time>2026-04-26T12:25:01.583Z</time></trkpt><trkpt lat="45.9352543" lon="11.6441667"><ele>1394.0</ele><time>2026-04-26T12:25:02.602Z</time></trkpt><trkpt lat="45.9353007" lon="11.6440396"><ele>1394.0</ele><time>2026-04-26T12:25:03.598Z</time></trkpt><trkpt lat="45.9353282" lon="11.6439172"><ele>1394.0</ele><time>2026-04-26T12:25:04.591Z</time></trkpt><trkpt lat="45.9353381" lon="11.643785"><ele>1394.0</ele><time>2026-04-26T12:25:05.598Z</time></trkpt><trkpt lat="45.9353331" lon="11.6436338"><ele>1394.0</ele><time>2026-04-26T12:25:06.592Z</time></trkpt><trkpt lat="45.9353142" lon="11.6434852"><ele>1394.0</ele><time>2026-04-26T12:25:07.598Z</time></trkpt><trkpt lat="45.9352867" lon="11.643331"><ele>1394.0</ele><time>2026-04-26T12:25:08.589Z</time></trkpt><trkpt lat="45.9352518" lon="11.6431663"><ele>1394.0</ele><time>2026-04-26T12:25:09.591Z</time></trkpt><trkpt lat="45.9352096" lon="11.6430036"><ele>1394.0</ele><time>2026-04-26T12:25:10.61Z</time></trkpt><trkpt lat="45.9351773" lon="11.6428597"><ele>1394.0</ele><time>2026-04-26T12:25:11.59Z</time></trkpt><trkpt lat="45.9351577" lon="11.642728"><ele>1394.0</ele><time>2026-04-26T12:25:12.608Z</time></trkpt><trkpt lat="45.9351461" lon="11.6425759"><ele>1394.0</ele><time>2026-04-26T12:25:13.589Z</time></trkpt><trkpt lat="45.9351497" lon="11.6424059"><ele>1394.0</ele><time>2026-04-26T12:25:14.6Z</time></trkpt><trkpt lat="45.9351579" lon="11.6422311"><ele>1394.0</ele><time>2026-04-26T12:25:15.591Z</time></trkpt><trkpt lat="45.9351632" lon="11.6420528"><ele>1394.0</ele><time>2026-04-26T12:25:16.583Z</time></trkpt><trkpt lat="45.9351667" lon="11.6418513"><ele>1393.75</ele><time>2026-04-26T12:25:17.595Z</time></trkpt><trkpt lat="45.9351739" lon="11.641642"><ele>1393.5</ele><time>2026-04-26T12:25:18.593Z</time></trkpt><trkpt lat="45.9351797" lon="11.6414484"><ele>1393.25</ele><time>2026-04-26T12:25:19.618Z</time></trkpt><trkpt lat="45.9351847" lon="11.6412614"><ele>1393.0</ele><time>2026-04-26T12:25:20.603Z</time></trkpt><trkpt lat="45.9351909" lon="11.6410695"><ele>1391.75</ele><time>2026-04-26T12:25:21.586Z</time></trkpt><trkpt lat="45.935208" lon="11.6408736"><ele>1390.5</ele><time>2026-04-26T12:25:22.598Z</time></trkpt><trkpt lat="45.9352474" lon="11.640674"><ele>1389.25</ele><time>2026-04-26T12:25:23.601Z</time></trkpt><trkpt lat="45.9352991" lon="11.640472"><ele>1388.0</ele><time>2026-04-26T12:25:24.605Z</time></trkpt><trkpt lat="45.9353551" lon="11.6402942"><ele>1384.75</ele><time>2026-04-26T12:25:25.59Z</time></trkpt><trkpt lat="45.9354148" lon="11.6401373"><ele>1381.5</ele><time>2026-04-26T12:25:26.594Z</time></trkpt><trkpt lat="45.9354843" lon="11.6399883"><ele>1378.25</ele><time>2026-04-26T12:25:27.59Z</time></trkpt><trkpt lat="45.935554" lon="11.6398421"><ele>1375.0</ele><time>2026-04-26T12:25:28.589Z</time></trkpt><trkpt lat="45.935634" lon="11.6396995"><ele>1375.0</ele><time>2026-04-26T12:25:29.587Z</time></trkpt><trkpt lat="45.9357314" lon="11.6395725"><ele>1375.0</ele><time>2026-04-26T12:25:30.575Z</time></trkpt><trkpt lat="45.9358441" lon="11.639442"><ele>1375.0</ele><time>2026-04-26T12:25:31.602Z</time></trkpt><trkpt lat="45.9359391" lon="11.6393107"><ele>1375.0</ele><time>2026-04-26T12:25:32.592Z</time></trkpt><trkpt lat="45.9360209" lon="11.639209"><ele>1377.5</ele><time>2026-04-26T12:25:33.618Z</time></trkpt><trkpt lat="45.9360962" lon="11.6391032"><ele>1380.0</ele><time>2026-04-26T12:25:34.586Z</time></trkpt><trkpt lat="45.936151" lon="11.6390059"><ele>1382.5</ele><time>2026-04-26T12:25:35.583Z</time></trkpt><trkpt lat="45.9361891" lon="11.6389034"><ele>1385.0</ele><time>2026-04-26T12:25:36.591Z</time></trkpt><trkpt lat="45.936196" lon="11.6388089"><ele>1387.5</ele><time>2026-04-26T12:25:37.598Z</time></trkpt><trkpt lat="45.9361914" lon="11.6387023"><ele>1390.0</ele><time>2026-04-26T12:25:38.581Z</time></trkpt><trkpt lat="45.9361587" lon="11.6386062"><ele>1390.0</ele><time>2026-04-26T12:25:39.614Z</time></trkpt><trkpt lat="45.9361074" lon="11.6385389"><ele>1390.0</ele><time>2026-04-26T12:25:40.581Z</time></trkpt><trkpt lat="45.9360471" lon="11.6385048"><ele>1390.0</ele><time>2026-04-26T12:25:41.587Z</time></trkpt><trkpt lat="45.9359657" lon="11.638455"><ele>1390.0</ele><time>2026-04-26T12:25:42.591Z</time></trkpt><trkpt lat="45.9358613" lon="11.6384047"><ele>1390.0</ele><time>2026-04-26T12:25:43.591Z</time></trkpt><trkpt lat="45.9357778" lon="11.6383627"><ele>1390.0</ele><time>2026-04-26T12:25:44.59Z</time></trkpt><trkpt lat="45.9357187" lon="11.6382928"><ele>1387.6666666666665</ele><time>2026-04-26T12:25:45.615Z</time></trkpt><trkpt lat="45.9356809" lon="11.638219"><ele>1385.3333333333333</ele><time>2026-04-26T12:25:46.598Z</time></trkpt><trkpt lat="45.9356452" lon="11.6381349"><ele>1383.0</ele><time>2026-04-26T12:25:47.59Z</time></trkpt><trkpt lat="45.9356229" lon="11.6380294"><ele>1380.6666666666667</ele><time>2026-04-26T12:25:48.583Z</time></trkpt><trkpt lat="45.9356317" lon="11.6379104"><ele>1378.3333333333335</ele><time>2026-04-26T12:25:49.6Z</time></trkpt><trkpt lat="45.9356595" lon="11.6377647"><ele>1376.0</ele><time>2026-04-26T12:25:50.609Z</time></trkpt><trkpt lat="45.9357001" lon="11.6376108"><ele>1376.0</ele><time>2026-04-26T12:25:51.593Z</time></trkpt><trkpt lat="45.9357493" lon="11.6374557"><ele>1376.0</ele><time>2026-04-26T12:25:52.592Z</time></trkpt><trkpt lat="45.9357927" lon="11.6373274"><ele>1376.0</ele><time>2026-04-26T12:25:53.59Z</time></trkpt><trkpt lat="45.9358506" lon="11.6372452"><ele>1376.0</ele><time>2026-04-26T12:25:54.605Z</time></trkpt><trkpt lat="45.9359148" lon="11.6371953"><ele>1376.0</ele><time>2026-04-26T12:25:55.6Z</time></trkpt><trkpt lat="45.9359798" lon="11.6371864"><ele>1376.0</ele><time>2026-04-26T12:25:56.59Z</time></trkpt><trkpt lat="45.9360551" lon="11.6371723"><ele>1377.0</ele><time>2026-04-26T12:25:57.589Z</time></trkpt><trkpt lat="45.9361615" lon="11.6371732"><ele>1378.0</ele><time>2026-04-26T12:25:58.594Z</time></trkpt><trkpt lat="45.9362717" lon="11.6371903"><ele>1379.0</ele><time>2026-04-26T12:25:59.603Z</time></trkpt><trkpt lat="45.9363933" lon="11.637215"><ele>1380.0</ele><time>2026-04-26T12:26:00.589Z</time></trkpt><trkpt lat="45.9365162" lon="11.6372281"><ele>1380.0</ele><time>2026-04-26T12:26:01.62Z</time></trkpt><trkpt lat="45.9366379" lon="11.6372371"><ele>1380.0</ele><time>2026-04-26T12:26:02.581Z</time></trkpt><trkpt lat="45.9367431" lon="11.6372223"><ele>1380.0</ele><time>2026-04-26T12:26:03.593Z</time></trkpt><trkpt lat="45.9368415" lon="11.6372025"><ele>1380.0</ele><time>2026-04-26T12:26:04.588Z</time></trkpt><trkpt lat="45.9369331" lon="11.6371996"><ele>1380.0</ele><time>2026-04-26T12:26:05.596Z</time></trkpt><trkpt lat="45.9370167" lon="11.6372144"><ele>1378.3333333333333</ele><time>2026-04-26T12:26:06.6Z</time></trkpt><trkpt lat="45.9370964" lon="11.6372476"><ele>1376.6666666666667</ele><time>2026-04-26T12:26:07.602Z</time></trkpt><trkpt lat="45.9371701" lon="11.6372754"><ele>1375.0</ele><time>2026-04-26T12:26:08.596Z</time></trkpt><trkpt lat="45.9372437" lon="11.637304"><ele>1373.3333333333335</ele><time>2026-04-26T12:26:09.595Z</time></trkpt><trkpt lat="45.9373168" lon="11.6373433"><ele>1371.6666666666667</ele><time>2026-04-26T12:26:10.591Z</time></trkpt><trkpt lat="45.9373873" lon="11.6373904"><ele>1370.0</ele><time>2026-04-26T12:26:11.588Z</time></trkpt><trkpt lat="45.9374624" lon="11.6374392"><ele>1370.0</ele><time>2026-04-26T12:26:12.584Z</time></trkpt><trkpt lat="45.9375373" lon="11.6374909"><ele>1370.0</ele><time>2026-04-26T12:26:13.587Z</time></trkpt><trkpt lat="45.9376186" lon="11.6375494"><ele>1370.0</ele><time>2026-04-26T12:26:14.59Z</time></trkpt><trkpt lat="45.9377026" lon="11.6376305"><ele>1370.0</ele><time>2026-04-26T12:26:15.589Z</time></trkpt><trkpt lat="45.9377825" lon="11.6376914"><ele>1370.0</ele><time>2026-04-26T12:26:16.599Z</time></trkpt><trkpt lat="45.9378602" lon="11.6377597"><ele>1367.6</ele><time>2026-04-26T12:26:17.591Z</time></trkpt><trkpt lat="45.9379368" lon="11.6378319"><ele>1365.2</ele><time>2026-04-26T12:26:18.583Z</time></trkpt><trkpt lat="45.9380105" lon="11.637907"><ele>1362.8000000000002</ele><time>2026-04-26T12:26:19.587Z</time></trkpt><trkpt lat="45.9380839" lon="11.6379936"><ele>1360.4</ele><time>2026-04-26T12:26:20.592Z</time></trkpt><trkpt lat="45.9381532" lon="11.6380861"><ele>1358.0</ele><time>2026-04-26T12:26:21.586Z</time></trkpt><trkpt lat="45.9382272" lon="11.6381791"><ele>1358.0</ele><time>2026-04-26T12:26:22.59Z</time></trkpt><trkpt lat="45.9383041" lon="11.6382741"><ele>1358.0</ele><time>2026-04-26T12:26:23.589Z</time></trkpt><trkpt lat="45.9383836" lon="11.6383723"><ele>1358.0</ele><time>2026-04-26T12:26:24.584Z</time></trkpt><trkpt lat="45.9384612" lon="11.6384579"><ele>1358.0</ele><time>2026-04-26T12:26:25.593Z</time></trkpt><trkpt lat="45.9385299" lon="11.63852"><ele>1358.0</ele><time>2026-04-26T12:26:26.586Z</time></trkpt><trkpt lat="45.9386016" lon="11.6385545"><ele>1357.5</ele><time>2026-04-26T12:26:27.592Z</time></trkpt><trkpt lat="45.9386706" lon="11.6385662"><ele>1357.0</ele><time>2026-04-26T12:26:28.592Z</time></trkpt><trkpt lat="45.9387401" lon="11.6385413"><ele>1356.5</ele><time>2026-04-26T12:26:29.59Z</time></trkpt><trkpt lat="45.9388081" lon="11.6384768"><ele>1356.0</ele><time>2026-04-26T12:26:30.595Z</time></trkpt><trkpt lat="45.9388736" lon="11.6383823"><ele>1355.5</ele><time>2026-04-26T12:26:31.584Z</time></trkpt><trkpt lat="45.9389441" lon="11.6382835"><ele>1355.0</ele><time>2026-04-26T12:26:32.592Z</time></trkpt><trkpt lat="45.939025" lon="11.6382023"><ele>1355.0</ele><time>2026-04-26T12:26:33.602Z</time></trkpt><trkpt lat="45.9391068" lon="11.6381382"><ele>1355.0</ele><time>2026-04-26T12:26:34.585Z</time></trkpt><trkpt lat="45.939198" lon="11.6380843"><ele>1355.0</ele><time>2026-04-26T12:26:35.58Z</time></trkpt><trkpt lat="45.9392859" lon="11.6380555"><ele>1355.0</ele><time>2026-04-26T12:26:36.587Z</time></trkpt><trkpt lat="45.9393777" lon="11.6380162"><ele>1355.0</ele><time>2026-04-26T12:26:37.597Z</time></trkpt><trkpt lat="45.9394793" lon="11.6379982"><ele>1355.25</ele><time>2026-04-26T12:26:38.591Z</time></trkpt><trkpt lat="45.9395934" lon="11.6379928"><ele>1355.5</ele><time>2026-04-26T12:26:39.585Z</time></trkpt><trkpt lat="45.9397187" lon="11.6379778"><ele>1355.75</ele><time>2026-04-26T12:26:40.601Z</time></trkpt><trkpt lat="45.9398619" lon="11.6379609"><ele>1356.0</ele><time>2026-04-26T12:26:41.586Z</time></trkpt><trkpt lat="45.9400124" lon="11.6379498"><ele>1354.0</ele><time>2026-04-26T12:26:42.584Z</time></trkpt><trkpt lat="45.9401795" lon="11.6379359"><ele>1352.0</ele><time>2026-04-26T12:26:43.605Z</time></trkpt><trkpt lat="45.9403605" lon="11.6379157"><ele>1350.0</ele><time>2026-04-26T12:26:44.591Z</time></trkpt><trkpt lat="45.9405496" lon="11.6378938"><ele>1350.0</ele><time>2026-04-26T12:26:45.6Z</time></trkpt><trkpt lat="45.9407413" lon="11.6378878"><ele>1350.0</ele><time>2026-04-26T12:26:46.584Z</time></trkpt><trkpt lat="45.94092" lon="11.6378882"><ele>1350.0</ele><time>2026-04-26T12:26:47.588Z</time></trkpt><trkpt lat="45.941084" lon="11.6378815"><ele>1346.6666666666667</ele><time>2026-04-26T12:26:48.58Z</time></trkpt><trkpt lat="45.9412392" lon="11.637872"><ele>1343.3333333333335</ele><time>2026-04-26T12:26:49.597Z</time></trkpt><trkpt lat="45.9413856" lon="11.637853"><ele>1340.0</ele><time>2026-04-26T12:26:50.593Z</time></trkpt><trkpt lat="45.9415632" lon="11.6378412"><ele>1339.3333333333335</ele><time>2026-04-26T12:26:51.59Z</time></trkpt><trkpt lat="45.9417649" lon="11.6378406"><ele>1338.6666666666667</ele><time>2026-04-26T12:26:52.589Z</time></trkpt><trkpt lat="45.9419586" lon="11.6378253"><ele>1338.0</ele><time>2026-04-26T12:26:53.598Z</time></trkpt><trkpt lat="45.9421423" lon="11.6378056"><ele>1334.75</ele><time>2026-04-26T12:26:54.598Z</time></trkpt><trkpt lat="45.9422921" lon="11.637797"><ele>1331.5</ele><time>2026-04-26T12:26:55.591Z</time></trkpt><trkpt lat="45.9424058" lon="11.6377868"><ele>1328.25</ele><time>2026-04-26T12:26:56.588Z</time></trkpt><trkpt lat="45.9425101" lon="11.63778"><ele>1325.0</ele><time>2026-04-26T12:26:57.592Z</time></trkpt><trkpt lat="45.9426051" lon="11.6378003"><ele>1328.2</ele><time>2026-04-26T12:26:58.585Z</time></trkpt><trkpt lat="45.9427004" lon="11.6378257"><ele>1331.4</ele><time>2026-04-26T12:26:59.602Z</time></trkpt><trkpt lat="45.9427875" lon="11.637865"><ele>1334.6</ele><time>2026-04-26T12:27:00.583Z</time></trkpt><trkpt lat="45.9428668" lon="11.6378814"><ele>1337.8</ele><time>2026-04-26T12:27:01.593Z</time></trkpt><trkpt lat="45.9429583" lon="11.6378561"><ele>1341.0</ele><time>2026-04-26T12:27:02.584Z</time></trkpt><trkpt lat="45.9430692" lon="11.6378056"><ele>1337.0</ele><time>2026-04-26T12:27:03.582Z</time></trkpt><trkpt lat="45.9431848" lon="11.6377447"><ele>1333.0</ele><time>2026-04-26T12:27:04.59Z</time></trkpt><trkpt lat="45.9433045" lon="11.6376925"><ele>1329.0</ele><time>2026-04-26T12:27:05.589Z</time></trkpt><trkpt lat="45.9434278" lon="11.6376629"><ele>1325.0</ele><time>2026-04-26T12:27:06.599Z</time></trkpt><trkpt lat="45.943547" lon="11.6376613"><ele>1324.4</ele><time>2026-04-26T12:27:07.585Z</time></trkpt><trkpt lat="45.9436586" lon="11.6376636"><ele>1323.8</ele><time>2026-04-26T12:27:08.585Z</time></trkpt><trkpt lat="45.9437698" lon="11.6376668"><ele>1323.1999999999998</ele><time>2026-04-26T12:27:09.593Z</time></trkpt><trkpt lat="45.943881" lon="11.6376639"><ele>1322.6</ele><time>2026-04-26T12:27:10.595Z</time></trkpt><trkpt lat="45.9439864" lon="11.6376588"><ele>1322.0</ele><time>2026-04-26T12:27:11.594Z</time></trkpt><trkpt lat="45.944076" lon="11.637665"><ele>1322.0</ele><time>2026-04-26T12:27:12.597Z</time></trkpt><trkpt lat="45.9441544" lon="11.6376597"><ele>1322.0</ele><time>2026-04-26T12:27:13.591Z</time></trkpt><trkpt lat="45.9442291" lon="11.6376275"><ele>1322.0</ele><time>2026-04-26T12:27:14.596Z</time></trkpt><trkpt lat="45.9443006" lon="11.6375752"><ele>1322.0</ele><time>2026-04-26T12:27:15.593Z</time></trkpt><trkpt lat="45.9443578" lon="11.6374945"><ele>1322.0</ele><time>2026-04-26T12:27:16.59Z</time></trkpt><trkpt lat="45.9444043" lon="11.6374064"><ele>1322.0</ele><time>2026-04-26T12:27:17.585Z</time></trkpt><trkpt lat="45.944436" lon="11.6373167"><ele>1322.0</ele><time>2026-04-26T12:27:18.593Z</time></trkpt><trkpt lat="45.9444466" lon="11.6372101"><ele>1322.0</ele><time>2026-04-26T12:27:19.594Z</time></trkpt><trkpt lat="45.9444433" lon="11.6370967"><ele>1322.0</ele><time>2026-04-26T12:27:20.594Z</time></trkpt><trkpt lat="45.9444271" lon="11.6369822"><ele>1322.0</ele><time>2026-04-26T12:27:21.599Z</time></trkpt><trkpt lat="45.944381" lon="11.6368722"><ele>1322.0</ele><time>2026-04-26T12:27:22.597Z</time></trkpt><trkpt lat="45.9443211" lon="11.6367848"><ele>1322.0</ele><time>2026-04-26T12:27:23.598Z</time></trkpt><trkpt lat="45.9442465" lon="11.6367094"><ele>1321.8</ele><time>2026-04-26T12:27:24.586Z</time></trkpt><trkpt lat="45.9441581" lon="11.6366543"><ele>1321.6</ele><time>2026-04-26T12:27:25.593Z</time></trkpt><trkpt lat="45.9440548" lon="11.6366204"><ele>1321.3999999999999</ele><time>2026-04-26T12:27:26.612Z</time></trkpt><trkpt lat="45.9439444" lon="11.6365782"><ele>1321.1999999999998</ele><time>2026-04-26T12:27:27.597Z</time></trkpt><trkpt lat="45.9438336" lon="11.6365402"><ele>1321.0</ele><time>2026-04-26T12:27:28.595Z</time></trkpt><trkpt lat="45.9437181" lon="11.6365062"><ele>1321.0</ele><time>2026-04-26T12:27:29.592Z</time></trkpt><trkpt lat="45.9436106" lon="11.636459"><ele>1321.0</ele><time>2026-04-26T12:27:30.602Z</time></trkpt><trkpt lat="45.9434993" lon="11.6364151"><ele>1321.0</ele><time>2026-04-26T12:27:31.592Z</time></trkpt><trkpt lat="45.943391" lon="11.6363744"><ele>1321.0</ele><time>2026-04-26T12:27:32.593Z</time></trkpt><trkpt lat="45.9432819" lon="11.6363286"><ele>1321.0</ele><time>2026-04-26T12:27:33.59Z</time></trkpt><trkpt lat="45.9431674" lon="11.6362865"><ele>1321.0</ele><time>2026-04-26T12:27:34.603Z</time></trkpt><trkpt lat="45.943059" lon="11.6362556"><ele>1321.0</ele><time>2026-04-26T12:27:35.593Z</time></trkpt><trkpt lat="45.9429565" lon="11.6362088"><ele>1321.0</ele><time>2026-04-26T12:27:36.587Z</time></trkpt><trkpt lat="45.942857" lon="11.6361433"><ele>1321.0</ele><time>2026-04-26T12:27:37.604Z</time></trkpt><trkpt lat="45.9427611" lon="11.6360806"><ele>1324.75</ele><time>2026-04-26T12:27:38.592Z</time></trkpt><trkpt lat="45.9426572" lon="11.6360251"><ele>1328.5</ele><time>2026-04-26T12:27:39.612Z</time></trkpt><trkpt lat="45.9425443" lon="11.6360013"><ele>1332.25</ele><time>2026-04-26T12:27:40.599Z</time></trkpt><trkpt lat="45.9424248" lon="11.6359827"><ele>1336.0</ele><time>2026-04-26T12:27:41.598Z</time></trkpt><trkpt lat="45.9423143" lon="11.6359961"><ele>1336.0</ele><time>2026-04-26T12:27:42.597Z</time></trkpt><trkpt lat="45.9422182" lon="11.6360273"><ele>1336.0</ele><time>2026-04-26T12:27:43.594Z</time></trkpt><trkpt lat="45.9421251" lon="11.636063"><ele>1336.0</ele><time>2026-04-26T12:27:44.585Z</time></trkpt><trkpt lat="45.9420478" lon="11.6360884"><ele>1336.0</ele><time>2026-04-26T12:27:45.6Z</time></trkpt><trkpt lat="45.941976" lon="11.6360899"><ele>1336.0</ele><time>2026-04-26T12:27:46.587Z</time></trkpt><trkpt lat="45.9418819" lon="11.6360048"><ele>1336.0</ele><time>2026-04-26T12:27:48.591Z</time></trkpt><trkpt lat="45.9418188" lon="11.6358871"><ele>1336.0</ele><time>2026-04-26T12:27:50.598Z</time></trkpt><trkpt lat="45.9417658" lon="11.635832"><ele>1336.0</ele><time>2026-04-26T12:27:52.598Z</time></trkpt><trkpt lat="45.9416834" lon="11.6358084"><ele>1336.0</ele><time>2026-04-26T12:32:27.597Z</time></trkpt><trkpt lat="45.9415791" lon="11.6358147"><ele>1336.0</ele><time>2026-04-26T12:32:29.585Z</time></trkpt><trkpt lat="45.9414737" lon="11.6358256"><ele>1337.0</ele><time>2026-04-26T12:32:31.598Z</time></trkpt><trkpt lat="45.941353" lon="11.6358203"><ele>1338.0</ele><time>2026-04-26T12:32:33.587Z</time></trkpt><trkpt lat="45.9412864" lon="11.6357985"><ele>1339.0</ele><time>2026-04-26T12:32:34.591Z</time></trkpt><trkpt lat="45.9412169" lon="11.6357619"><ele>1340.0</ele><time>2026-04-26T12:32:35.589Z</time></trkpt><trkpt lat="45.9411589" lon="11.6357057"><ele>1341.0</ele><time>2026-04-26T12:32:36.587Z</time></trkpt><trkpt lat="45.9411171" lon="11.6356227"><ele>1342.0</ele><time>2026-04-26T12:32:37.591Z</time></trkpt><trkpt lat="45.9410887" lon="11.6355341"><ele>1342.0</ele><time>2026-04-26T12:32:38.59Z</time></trkpt><trkpt lat="45.9410719" lon="11.635433"><ele>1342.0</ele><time>2026-04-26T12:32:39.59Z</time></trkpt><trkpt lat="45.9410594" lon="11.6353292"><ele>1342.0</ele><time>2026-04-26T12:32:40.596Z</time></trkpt><trkpt lat="45.9410484" lon="11.6352194"><ele>1342.0</ele><time>2026-04-26T12:32:41.583Z</time></trkpt><trkpt lat="45.9410361" lon="11.6351043"><ele>1342.0</ele><time>2026-04-26T12:32:42.6Z</time></trkpt><trkpt lat="45.9410106" lon="11.6349748"><ele>1342.0</ele><time>2026-04-26T12:32:43.591Z</time></trkpt><trkpt lat="45.9409828" lon="11.6348413"><ele>1341.3999999999999</ele><time>2026-04-26T12:32:44.6Z</time></trkpt><trkpt lat="45.9409523" lon="11.6347237"><ele>1340.8</ele><time>2026-04-26T12:32:45.593Z</time></trkpt><trkpt lat="45.9409168" lon="11.6346071"><ele>1340.2</ele><time>2026-04-26T12:32:46.59Z</time></trkpt><trkpt lat="45.9408762" lon="11.6344947"><ele>1339.6</ele><time>2026-04-26T12:32:47.59Z</time></trkpt><trkpt lat="45.9408306" lon="11.6343807"><ele>1339.0</ele><time>2026-04-26T12:32:48.589Z</time></trkpt><trkpt lat="45.9407701" lon="11.6342676"><ele>1342.0</ele><time>2026-04-26T12:32:49.595Z</time></trkpt><trkpt lat="45.9407028" lon="11.6341702"><ele>1345.0</ele><time>2026-04-26T12:32:50.595Z</time></trkpt><trkpt lat="45.9406317" lon="11.6340767"><ele>1348.0</ele><time>2026-04-26T12:32:51.583Z</time></trkpt><trkpt lat="45.9405585" lon="11.6339801"><ele>1351.0</ele><time>2026-04-26T12:32:52.591Z</time></trkpt><trkpt lat="45.9404783" lon="11.6338887"><ele>1354.0</ele><time>2026-04-26T12:32:53.604Z</time></trkpt><trkpt lat="45.9403961" lon="11.6338006"><ele>1354.0</ele><time>2026-04-26T12:32:54.583Z</time></trkpt><trkpt lat="45.9403078" lon="11.6337188"><ele>1354.0</ele><time>2026-04-26T12:32:55.592Z</time></trkpt><trkpt lat="45.9402135" lon="11.6336417"><ele>1354.0</ele><time>2026-04-26T12:32:56.587Z</time></trkpt><trkpt lat="45.9401217" lon="11.6335916"><ele>1354.0</ele><time>2026-04-26T12:32:57.596Z</time></trkpt><trkpt lat="45.9400391" lon="11.6335618"><ele>1354.0</ele><time>2026-04-26T12:32:58.591Z</time></trkpt><trkpt lat="45.9399528" lon="11.6335428"><ele>1353.3333333333333</ele><time>2026-04-26T12:32:59.595Z</time></trkpt><trkpt lat="45.9398762" lon="11.6335173"><ele>1352.6666666666665</ele><time>2026-04-26T12:33:00.598Z</time></trkpt><trkpt lat="45.9397986" lon="11.6334711"><ele>1352.0</ele><time>2026-04-26T12:33:01.594Z</time></trkpt><trkpt lat="45.9397295" lon="11.633405"><ele>1351.3333333333333</ele><time>2026-04-26T12:33:02.593Z</time></trkpt><trkpt lat="45.9396745" lon="11.6333148"><ele>1350.6666666666667</ele><time>2026-04-26T12:33:03.596Z</time></trkpt><trkpt lat="45.9396263" lon="11.6332118"><ele>1350.0</ele><time>2026-04-26T12:33:04.593Z</time></trkpt><trkpt lat="45.9396066" lon="11.6331111"><ele>1350.0</ele><time>2026-04-26T12:33:05.598Z</time></trkpt><trkpt lat="45.9396167" lon="11.6330168"><ele>1350.0</ele><time>2026-04-26T12:33:06.591Z</time></trkpt><trkpt lat="45.9396454" lon="11.6329271"><ele>1350.0</ele><time>2026-04-26T12:33:07.611Z</time></trkpt><trkpt lat="45.9396916" lon="11.6328343"><ele>1350.0</ele><time>2026-04-26T12:33:08.584Z</time></trkpt><trkpt lat="45.9397545" lon="11.6327581"><ele>1350.0</ele><time>2026-04-26T12:33:09.593Z</time></trkpt><trkpt lat="45.9398446" lon="11.6326811"><ele>1350.0</ele><time>2026-04-26T12:33:10.596Z</time></trkpt><trkpt lat="45.939943" lon="11.632593"><ele>1349.2</ele><time>2026-04-26T12:33:11.596Z</time></trkpt><trkpt lat="45.940025" lon="11.6324892"><ele>1348.4</ele><time>2026-04-26T12:33:12.597Z</time></trkpt><trkpt lat="45.9400964" lon="11.6323765"><ele>1347.6</ele><time>2026-04-26T12:33:13.581Z</time></trkpt><trkpt lat="45.9401567" lon="11.6322699"><ele>1346.8</ele><time>2026-04-26T12:33:14.586Z</time></trkpt><trkpt lat="45.9402181" lon="11.6321668"><ele>1346.0</ele><time>2026-04-26T12:33:15.593Z</time></trkpt><trkpt lat="45.9402953" lon="11.6320469"><ele>1351.0</ele><time>2026-04-26T12:33:16.597Z</time></trkpt><trkpt lat="45.9403764" lon="11.6319166"><ele>1356.0</ele><time>2026-04-26T12:33:17.598Z</time></trkpt><trkpt lat="45.9404655" lon="11.6317789"><ele>1361.0</ele><time>2026-04-26T12:33:18.585Z</time></trkpt><trkpt lat="45.9405533" lon="11.6316393"><ele>1366.0</ele><time>2026-04-26T12:33:19.603Z</time></trkpt><trkpt lat="45.9406431" lon="11.6314716"><ele>1366.0</ele><time>2026-04-26T12:33:20.588Z</time></trkpt><trkpt lat="45.9407339" lon="11.6313084"><ele>1366.0</ele><time>2026-04-26T12:33:21.592Z</time></trkpt><trkpt lat="45.9408178" lon="11.6311712"><ele>1366.0</ele><time>2026-04-26T12:33:22.597Z</time></trkpt><trkpt lat="45.9408988" lon="11.6310477"><ele>1366.0</ele><time>2026-04-26T12:33:23.586Z</time></trkpt><trkpt lat="45.9409634" lon="11.6309267"><ele>1369.6</ele><time>2026-04-26T12:33:24.591Z</time></trkpt><trkpt lat="45.9410186" lon="11.6308072"><ele>1373.1999999999998</ele><time>2026-04-26T12:33:25.587Z</time></trkpt><trkpt lat="45.9410634" lon="11.6306755"><ele>1376.8000000000002</ele><time>2026-04-26T12:33:26.602Z</time></trkpt><trkpt lat="45.9411015" lon="11.6305538"><ele>1380.4</ele><time>2026-04-26T12:33:27.586Z</time></trkpt><trkpt lat="45.9411301" lon="11.6304159"><ele>1384.0</ele><time>2026-04-26T12:33:28.586Z</time></trkpt><trkpt lat="45.9411502" lon="11.6302717"><ele>1384.0</ele><time>2026-04-26T12:33:29.589Z</time></trkpt><trkpt lat="45.9411674" lon="11.6301107"><ele>1384.0</ele><time>2026-04-26T12:33:30.584Z</time></trkpt><trkpt lat="45.9411897" lon="11.629944"><ele>1384.0</ele><time>2026-04-26T12:33:31.599Z</time></trkpt><trkpt lat="45.9412174" lon="11.6297672"><ele>1384.0</ele><time>2026-04-26T12:33:32.575Z</time></trkpt><trkpt lat="45.9412499" lon="11.6295871"><ele>1381.8000000000002</ele><time>2026-04-26T12:33:33.583Z</time></trkpt><trkpt lat="45.941291" lon="11.6294093"><ele>1379.6000000000001</ele><time>2026-04-26T12:33:34.581Z</time></trkpt><trkpt lat="45.9413373" lon="11.6292493"><ele>1377.4</ele><time>2026-04-26T12:33:35.591Z</time></trkpt><trkpt lat="45.941368" lon="11.6290996"><ele>1375.2</ele><time>2026-04-26T12:33:36.582Z</time></trkpt><trkpt lat="45.9413879" lon="11.6289749"><ele>1373.0</ele><time>2026-04-26T12:33:37.588Z</time></trkpt><trkpt lat="45.9413934" lon="11.6288612"><ele>1373.0</ele><time>2026-04-26T12:33:38.601Z</time></trkpt><trkpt lat="45.9413853" lon="11.6287515"><ele>1373.0</ele><time>2026-04-26T12:33:39.578Z</time></trkpt><trkpt lat="45.9413575" lon="11.6286546"><ele>1373.0</ele><time>2026-04-26T12:33:40.583Z</time></trkpt><trkpt lat="45.941321" lon="11.6285701"><ele>1373.0</ele><time>2026-04-26T12:33:41.582Z</time></trkpt><trkpt lat="45.9412739" lon="11.6284762"><ele>1373.0</ele><time>2026-04-26T12:33:42.594Z</time></trkpt><trkpt lat="45.9412325" lon="11.628377"><ele>1373.0</ele><time>2026-04-26T12:33:43.577Z</time></trkpt><trkpt lat="45.9411947" lon="11.6282527"><ele>1371.2</ele><time>2026-04-26T12:33:44.583Z</time></trkpt><trkpt lat="45.9411686" lon="11.6281095"><ele>1369.4</ele><time>2026-04-26T12:33:45.59Z</time></trkpt><trkpt lat="45.9411576" lon="11.627957"><ele>1367.6000000000001</ele><time>2026-04-26T12:33:46.588Z</time></trkpt><trkpt lat="45.9411533" lon="11.6278088"><ele>1365.8000000000002</ele><time>2026-04-26T12:33:47.6Z</time></trkpt><trkpt lat="45.9411627" lon="11.6276854"><ele>1364.0</ele><time>2026-04-26T12:33:48.587Z</time></trkpt><trkpt lat="45.9411799" lon="11.6275591"><ele>1363.4</ele><time>2026-04-26T12:33:49.581Z</time></trkpt><trkpt lat="45.9412155" lon="11.627432"><ele>1362.8000000000002</ele><time>2026-04-26T12:33:50.594Z</time></trkpt><trkpt lat="45.9412653" lon="11.6273025"><ele>1362.1999999999998</ele><time>2026-04-26T12:33:51.597Z</time></trkpt><trkpt lat="45.9413248" lon="11.6271576"><ele>1361.6</ele><time>2026-04-26T12:33:52.58Z</time></trkpt><trkpt lat="45.9413838" lon="11.6269994"><ele>1361.0</ele><time>2026-04-26T12:33:53.578Z</time></trkpt><trkpt lat="45.94144" lon="11.6268507"><ele>1358.1999999999998</ele><time>2026-04-26T12:33:54.583Z</time></trkpt><trkpt lat="45.9415031" lon="11.6267208"><ele>1355.3999999999999</ele><time>2026-04-26T12:33:55.588Z</time></trkpt><trkpt lat="45.9415756" lon="11.6265971"><ele>1352.6</ele><time>2026-04-26T12:33:56.58Z</time></trkpt><trkpt lat="45.9416401" lon="11.626481"><ele>1349.8</ele><time>2026-04-26T12:33:57.606Z</time></trkpt><trkpt lat="45.9416999" lon="11.6263583"><ele>1347.0</ele><time>2026-04-26T12:33:58.584Z</time></trkpt><trkpt lat="45.9417407" lon="11.6262081"><ele>1349.0</ele><time>2026-04-26T12:33:59.598Z</time></trkpt><trkpt lat="45.9417873" lon="11.6260697"><ele>1351.0</ele><time>2026-04-26T12:34:00.587Z</time></trkpt><trkpt lat="45.9418466" lon="11.6259406"><ele>1353.0</ele><time>2026-04-26T12:34:01.577Z</time></trkpt><trkpt lat="45.9419257" lon="11.6258189"><ele>1355.0</ele><time>2026-04-26T12:34:02.587Z</time></trkpt><trkpt lat="45.9420217" lon="11.6256863"><ele>1355.0</ele><time>2026-04-26T12:34:03.594Z</time></trkpt><trkpt lat="45.9421262" lon="11.6255571"><ele>1355.0</ele><time>2026-04-26T12:34:04.6Z</time></trkpt><trkpt lat="45.9422256" lon="11.6254202"><ele>1355.0</ele><time>2026-04-26T12:34:05.584Z</time></trkpt><trkpt lat="45.9423089" lon="11.6252928"><ele>1355.0</ele><time>2026-04-26T12:34:06.6Z</time></trkpt><trkpt lat="45.9423819" lon="11.6251796"><ele>1354.6</ele><time>2026-04-26T12:34:07.589Z</time></trkpt><trkpt lat="45.9424528" lon="11.6250847"><ele>1354.2</ele><time>2026-04-26T12:34:08.589Z</time></trkpt><trkpt lat="45.942521" lon="11.6249903"><ele>1353.8000000000002</ele><time>2026-04-26T12:34:09.613Z</time></trkpt><trkpt lat="45.942582" lon="11.6249119"><ele>1353.4</ele><time>2026-04-26T12:34:10.583Z</time></trkpt><trkpt lat="45.9426394" lon="11.6248246"><ele>1353.0</ele><time>2026-04-26T12:34:11.593Z</time></trkpt><trkpt lat="45.9427194" lon="11.6247365"><ele>1353.0</ele><time>2026-04-26T12:34:12.586Z</time></trkpt><trkpt lat="45.9428277" lon="11.6246696"><ele>1353.0</ele><time>2026-04-26T12:34:13.591Z</time></trkpt><trkpt lat="45.9429482" lon="11.6246338"><ele>1353.0</ele><time>2026-04-26T12:34:14.593Z</time></trkpt><trkpt lat="45.9430679" lon="11.6246106"><ele>1353.0</ele><time>2026-04-26T12:34:15.594Z</time></trkpt><trkpt lat="45.9431701" lon="11.624565"><ele>1353.0</ele><time>2026-04-26T12:34:16.585Z</time></trkpt><trkpt lat="45.9432526" lon="11.6245055"><ele>1353.0</ele><time>2026-04-26T12:34:17.6Z</time></trkpt><trkpt lat="45.9433247" lon="11.6244322"><ele>1353.0</ele><time>2026-04-26T12:34:18.615Z</time></trkpt><trkpt lat="45.9433817" lon="11.624336"><ele>1353.0</ele><time>2026-04-26T12:34:19.601Z</time></trkpt><trkpt lat="45.943415" lon="11.6242087"><ele>1353.0</ele><time>2026-04-26T12:34:20.588Z</time></trkpt><trkpt lat="45.9434428" lon="11.6240645"><ele>1353.25</ele><time>2026-04-26T12:34:21.591Z</time></trkpt><trkpt lat="45.9434672" lon="11.6239066"><ele>1353.5</ele><time>2026-04-26T12:34:22.599Z</time></trkpt><trkpt lat="45.943513" lon="11.6237266"><ele>1353.75</ele><time>2026-04-26T12:34:23.592Z</time></trkpt><trkpt lat="45.9435712" lon="11.6235414"><ele>1354.0</ele><time>2026-04-26T12:34:24.589Z</time></trkpt><trkpt lat="45.9436535" lon="11.6233439"><ele>1354.0</ele><time>2026-04-26T12:34:25.603Z</time></trkpt><trkpt lat="45.9437429" lon="11.6231355"><ele>1354.0</ele><time>2026-04-26T12:34:26.594Z</time></trkpt><trkpt lat="45.9438381" lon="11.6229203"><ele>1354.0</ele><time>2026-04-26T12:34:27.602Z</time></trkpt><trkpt lat="45.9439287" lon="11.6227012"><ele>1348.3333333333333</ele><time>2026-04-26T12:34:28.591Z</time></trkpt><trkpt lat="45.9440123" lon="11.622501"><ele>1342.6666666666667</ele><time>2026-04-26T12:34:29.59Z</time></trkpt><trkpt lat="45.9441" lon="11.6223367"><ele>1337.0</ele><time>2026-04-26T12:34:30.582Z</time></trkpt><trkpt lat="45.9441988" lon="11.6221868"><ele>1336.5</ele><time>2026-04-26T12:34:31.584Z</time></trkpt><trkpt lat="45.9442995" lon="11.6220335"><ele>1336.0</ele><time>2026-04-26T12:34:32.599Z</time></trkpt><trkpt lat="45.9443956" lon="11.6218996"><ele>1335.5</ele><time>2026-04-26T12:34:33.591Z</time></trkpt><trkpt lat="45.9444925" lon="11.6217797"><ele>1335.0</ele><time>2026-04-26T12:34:34.591Z</time></trkpt><trkpt lat="45.9445989" lon="11.6216756"><ele>1335.0</ele><time>2026-04-26T12:34:35.598Z</time></trkpt><trkpt lat="45.9447211" lon="11.6215967"><ele>1335.0</ele><time>2026-04-26T12:34:36.59Z</time></trkpt><trkpt lat="45.9448562" lon="11.6215155"><ele>1335.0</ele><time>2026-04-26T12:34:37.584Z</time></trkpt><trkpt lat="45.9449984" lon="11.6214131"><ele>1335.0</ele><time>2026-04-26T12:34:38.599Z</time></trkpt><trkpt lat="45.9451326" lon="11.6212912"><ele>1333.5</ele><time>2026-04-26T12:34:39.591Z</time></trkpt><trkpt lat="45.9452545" lon="11.6211652"><ele>1332.0</ele><time>2026-04-26T12:34:40.587Z</time></trkpt><trkpt lat="45.9453715" lon="11.621061"><ele>1330.5</ele><time>2026-04-26T12:34:41.601Z</time></trkpt><trkpt lat="45.9454835" lon="11.6209843"><ele>1329.0</ele><time>2026-04-26T12:34:42.592Z</time></trkpt><trkpt lat="45.9455757" lon="11.6208783"><ele>1329.0</ele><time>2026-04-26T12:34:43.596Z</time></trkpt><trkpt lat="45.9456516" lon="11.6207357"><ele>1329.0</ele><time>2026-04-26T12:34:44.581Z</time></trkpt><trkpt lat="45.9457203" lon="11.6205893"><ele>1329.0</ele><time>2026-04-26T12:34:45.598Z</time></trkpt><trkpt lat="45.9457952" lon="11.6204699"><ele>1329.0</ele><time>2026-04-26T12:34:46.588Z</time></trkpt><trkpt lat="45.9458903" lon="11.6203797"><ele>1325.0</ele><time>2026-04-26T12:34:47.596Z</time></trkpt><trkpt lat="45.9459994" lon="11.6203066"><ele>1321.0</ele><time>2026-04-26T12:34:48.59Z</time></trkpt><trkpt lat="45.9461113" lon="11.6202389"><ele>1317.0</ele><time>2026-04-26T12:34:49.577Z</time></trkpt><trkpt lat="45.9462214" lon="11.6201692"><ele>1313.0</ele><time>2026-04-26T12:34:50.593Z</time></trkpt><trkpt lat="45.9463423" lon="11.6201134"><ele>1313.0</ele><time>2026-04-26T12:34:51.593Z</time></trkpt><trkpt lat="45.9464655" lon="11.6201061"><ele>1313.0</ele><time>2026-04-26T12:34:52.602Z</time></trkpt><trkpt lat="45.9465829" lon="11.6201321"><ele>1313.0</ele><time>2026-04-26T12:34:53.595Z</time></trkpt><trkpt lat="45.9466884" lon="11.620192"><ele>1313.0</ele><time>2026-04-26T12:34:54.596Z</time></trkpt><trkpt lat="45.9467863" lon="11.6202363"><ele>1313.0</ele><time>2026-04-26T12:34:55.597Z</time></trkpt><trkpt lat="45.946866" lon="11.6202261"><ele>1313.0</ele><time>2026-04-26T12:34:56.596Z</time></trkpt><trkpt lat="45.9469379" lon="11.6201846"><ele>1313.0</ele><time>2026-04-26T12:34:57.593Z</time></trkpt><trkpt lat="45.9469633" lon="11.6200833"><ele>1313.0</ele><time>2026-04-26T12:34:58.591Z</time></trkpt><trkpt lat="45.9469533" lon="11.619965"><ele>1313.0</ele><time>2026-04-26T12:34:59.61Z</time></trkpt><trkpt lat="45.9469141" lon="11.6198593"><ele>1313.0</ele><time>2026-04-26T12:35:00.593Z</time></trkpt><trkpt lat="45.9468581" lon="11.6197641"><ele>1313.0</ele><time>2026-04-26T12:35:01.589Z</time></trkpt><trkpt lat="45.9467974" lon="11.6196446"><ele>1313.0</ele><time>2026-04-26T12:35:02.598Z</time></trkpt><trkpt lat="45.9467617" lon="11.619512"><ele>1313.0</ele><time>2026-04-26T12:35:03.587Z</time></trkpt><trkpt lat="45.9467503" lon="11.6193709"><ele>1313.0</ele><time>2026-04-26T12:35:04.601Z</time></trkpt><trkpt lat="45.9467449" lon="11.6192145"><ele>1313.0</ele><time>2026-04-26T12:35:05.587Z</time></trkpt><trkpt lat="45.9467385" lon="11.619062"><ele>1312.4</ele><time>2026-04-26T12:35:06.596Z</time></trkpt><trkpt lat="45.9467413" lon="11.6189185"><ele>1311.8000000000002</ele><time>2026-04-26T12:35:07.594Z</time></trkpt><trkpt lat="45.9467693" lon="11.6187841"><ele>1311.2</ele><time>2026-04-26T12:35:08.592Z</time></trkpt><trkpt lat="45.9468382" lon="11.6186661"><ele>1310.6</ele><time>2026-04-26T12:35:09.598Z</time></trkpt><trkpt lat="45.9469402" lon="11.6185826"><ele>1310.0</ele><time>2026-04-26T12:35:10.585Z</time></trkpt><trkpt lat="45.9470647" lon="11.6185279"><ele>1309.0</ele><time>2026-04-26T12:35:11.602Z</time></trkpt><trkpt lat="45.9472115" lon="11.6185234"><ele>1308.0</ele><time>2026-04-26T12:35:12.592Z</time></trkpt><trkpt lat="45.9473494" lon="11.6185136"><ele>1307.0</ele><time>2026-04-26T12:35:13.59Z</time></trkpt><trkpt lat="45.9474811" lon="11.6185067"><ele>1306.0</ele><time>2026-04-26T12:35:14.587Z</time></trkpt><trkpt lat="45.9476042" lon="11.6185063"><ele>1306.0</ele><time>2026-04-26T12:35:15.592Z</time></trkpt><trkpt lat="45.9477199" lon="11.6185114"><ele>1306.0</ele><time>2026-04-26T12:35:16.592Z</time></trkpt><trkpt lat="45.9478295" lon="11.6185076"><ele>1306.0</ele><time>2026-04-26T12:35:17.6Z</time></trkpt><trkpt lat="45.9479367" lon="11.618511"><ele>1306.0</ele><time>2026-04-26T12:35:18.594Z</time></trkpt><trkpt lat="45.9480455" lon="11.6185112"><ele>1306.0</ele><time>2026-04-26T12:35:19.604Z</time></trkpt><trkpt lat="45.9481477" lon="11.6185035"><ele>1306.0</ele><time>2026-04-26T12:35:20.588Z</time></trkpt><trkpt lat="45.9482316" lon="11.6184416"><ele>1306.0</ele><time>2026-04-26T12:35:21.588Z</time></trkpt><trkpt lat="45.9482977" lon="11.6183533"><ele>1306.0</ele><time>2026-04-26T12:35:22.595Z</time></trkpt><trkpt lat="45.9483286" lon="11.6182222"><ele>1306.0</ele><time>2026-04-26T12:35:23.589Z</time></trkpt><trkpt lat="45.9483098" lon="11.6180682"><ele>1306.0</ele><time>2026-04-26T12:35:24.609Z</time></trkpt><trkpt lat="45.9482773" lon="11.6179208"><ele>1305.6</ele><time>2026-04-26T12:35:25.595Z</time></trkpt><trkpt lat="45.948266" lon="11.6177712"><ele>1305.1999999999998</ele><time>2026-04-26T12:35:26.616Z</time></trkpt><trkpt lat="45.9482859" lon="11.6176421"><ele>1304.8000000000002</ele><time>2026-04-26T12:35:27.596Z</time></trkpt><trkpt lat="45.9483558" lon="11.6175323"><ele>1304.4</ele><time>2026-04-26T12:35:28.605Z</time></trkpt><trkpt lat="45.9484456" lon="11.6174475"><ele>1304.0</ele><time>2026-04-26T12:35:29.577Z</time></trkpt><trkpt lat="45.9485405" lon="11.6173488"><ele>1304.0</ele><time>2026-04-26T12:35:30.577Z</time></trkpt><trkpt lat="45.948605" lon="11.6172227"><ele>1304.0</ele><time>2026-04-26T12:35:31.591Z</time></trkpt><trkpt lat="45.9486208" lon="11.6170817"><ele>1304.0</ele><time>2026-04-26T12:35:32.604Z</time></trkpt><trkpt lat="45.9485935" lon="11.6169374"><ele>1304.0</ele><time>2026-04-26T12:35:33.602Z</time></trkpt><trkpt lat="45.9485411" lon="11.6168179"><ele>1304.0</ele><time>2026-04-26T12:35:34.599Z</time></trkpt><trkpt lat="45.9484568" lon="11.6167364"><ele>1303.4</ele><time>2026-04-26T12:35:35.589Z</time></trkpt><trkpt lat="45.948353" lon="11.6166934"><ele>1302.8000000000002</ele><time>2026-04-26T12:35:36.592Z</time></trkpt><trkpt lat="45.948235" lon="11.6166963"><ele>1302.1999999999998</ele><time>2026-04-26T12:35:37.591Z</time></trkpt><trkpt lat="45.9481276" lon="11.6167272"><ele>1301.6</ele><time>2026-04-26T12:35:38.6Z</time></trkpt><trkpt lat="45.9480239" lon="11.6167653"><ele>1301.0</ele><time>2026-04-26T12:35:39.604Z</time></trkpt><trkpt lat="45.9479262" lon="11.6168011"><ele>1301.0</ele><time>2026-04-26T12:35:40.597Z</time></trkpt><trkpt lat="45.9478279" lon="11.6168166"><ele>1301.0</ele><time>2026-04-26T12:35:41.599Z</time></trkpt><trkpt lat="45.9477364" lon="11.6168245"><ele>1301.0</ele><time>2026-04-26T12:35:42.589Z</time></trkpt><trkpt lat="45.9476402" lon="11.6168181"><ele>1301.0</ele><time>2026-04-26T12:35:43.597Z</time></trkpt><trkpt lat="45.9475501" lon="11.6167981"><ele>1301.0</ele><time>2026-04-26T12:35:44.597Z</time></trkpt><trkpt lat="45.9474632" lon="11.61677"><ele>1301.5</ele><time>2026-04-26T12:35:45.592Z</time></trkpt><trkpt lat="45.9473924" lon="11.6167242"><ele>1302.0</ele><time>2026-04-26T12:35:46.606Z</time></trkpt><trkpt lat="45.9473054" lon="11.6166565"><ele>1302.5</ele><time>2026-04-26T12:35:48.586Z</time></trkpt><trkpt lat="45.9472467" lon="11.6166089"><ele>1303.0</ele><time>2026-04-26T12:35:50.605Z</time></trkpt><trkpt lat="45.9471723" lon="11.616573"><ele>1303.5</ele><time>2026-04-26T12:35:53.6Z</time></trkpt><trkpt lat="45.9470918" lon="11.6165382"><ele>1304.0</ele><time>2026-04-26T12:35:55.594Z</time></trkpt><trkpt lat="45.9470251" lon="11.6164583"><ele>1304.0</ele><time>2026-04-26T12:35:57.595Z</time></trkpt><trkpt lat="45.9469651" lon="11.6163354"><ele>1304.0</ele><time>2026-04-26T12:35:59.6Z</time></trkpt><trkpt lat="45.9469382" lon="11.6162432"><ele>1304.0</ele><time>2026-04-26T12:36:00.589Z</time></trkpt><trkpt lat="45.9469046" lon="11.6161414"><ele>1304.0</ele><time>2026-04-26T12:36:01.609Z</time></trkpt><trkpt lat="45.9468633" lon="11.6160285"><ele>1304.0</ele><time>2026-04-26T12:36:02.577Z</time></trkpt><trkpt lat="45.9468223" lon="11.6159115"><ele>1304.0</ele><time>2026-04-26T12:36:03.588Z</time></trkpt><trkpt lat="45.9467883" lon="11.6158083"><ele>1304.3333333333335</ele><time>2026-04-26T12:36:04.593Z</time></trkpt><trkpt lat="45.9467576" lon="11.6157023"><ele>1304.6666666666667</ele><time>2026-04-26T12:36:05.597Z</time></trkpt><trkpt lat="45.9467269" lon="11.615601"><ele>1305.0</ele><time>2026-04-26T12:36:06.599Z</time></trkpt><trkpt lat="45.9466871" lon="11.615499"><ele>1305.3333333333333</ele><time>2026-04-26T12:36:07.592Z</time></trkpt><trkpt lat="45.9466445" lon="11.6154076"><ele>1305.6666666666665</ele><time>2026-04-26T12:36:08.598Z</time></trkpt><trkpt lat="45.9465903" lon="11.6153372"><ele>1306.0</ele><time>2026-04-26T12:36:09.598Z</time></trkpt><trkpt lat="45.9464704" lon="11.6152914"><ele>1305.0</ele><time>2026-04-26T12:36:11.607Z</time></trkpt><trkpt lat="45.9464043" lon="11.6152922"><ele>1304.0</ele><time>2026-04-26T12:36:12.596Z</time></trkpt><trkpt lat="45.9463339" lon="11.6153144"><ele>1303.0</ele><time>2026-04-26T12:36:13.602Z</time></trkpt><trkpt lat="45.9462672" lon="11.615345"><ele>1302.0</ele><time>2026-04-26T12:36:14.601Z</time></trkpt><trkpt lat="45.9462137" lon="11.6154031"><ele>1301.0</ele><time>2026-04-26T12:36:15.608Z</time></trkpt><trkpt lat="45.9461238" lon="11.6154854"><ele>1300.0</ele><time>2026-04-26T12:36:17.596Z</time></trkpt><trkpt lat="45.9460322" lon="11.6154843"><ele>1300.0</ele><time>2026-04-26T12:36:19.599Z</time></trkpt><trkpt lat="45.9459365" lon="11.6154465"><ele>1300.0</ele><time>2026-04-26T12:36:21.595Z</time></trkpt><trkpt lat="45.9458394" lon="11.6154089"><ele>1300.0</ele><time>2026-04-26T12:36:23.589Z</time></trkpt><trkpt lat="45.9457491" lon="11.6154462"><ele>1300.0</ele><time>2026-04-26T12:36:25.584Z</time></trkpt><trkpt lat="45.9456571" lon="11.615557"><ele>1300.0</ele><time>2026-04-26T12:36:27.59Z</time></trkpt><trkpt lat="45.9456125" lon="11.615631"><ele>1299.3333333333333</ele><time>2026-04-26T12:36:28.594Z</time></trkpt><trkpt lat="45.9455666" lon="11.6157116"><ele>1298.6666666666665</ele><time>2026-04-26T12:36:29.585Z</time></trkpt><trkpt lat="45.9455159" lon="11.6157987"><ele>1298.0</ele><time>2026-04-26T12:36:30.585Z</time></trkpt><trkpt lat="45.9454651" lon="11.6158959"><ele>1297.3333333333333</ele><time>2026-04-26T12:36:31.594Z</time></trkpt><trkpt lat="45.9454118" lon="11.6159909"><ele>1296.6666666666667</ele><time>2026-04-26T12:36:32.585Z</time></trkpt><trkpt lat="45.9453602" lon="11.6160831"><ele>1296.0</ele><time>2026-04-26T12:36:33.599Z</time></trkpt><trkpt lat="45.9453123" lon="11.6161725"><ele>1296.0</ele><time>2026-04-26T12:36:34.595Z</time></trkpt><trkpt lat="45.9452687" lon="11.6162628"><ele>1296.0</ele><time>2026-04-26T12:36:35.609Z</time></trkpt><trkpt lat="45.9452263" lon="11.6163301"><ele>1296.0</ele><time>2026-04-26T12:36:36.599Z</time></trkpt><trkpt lat="45.945158" lon="11.6164132"><ele>1296.0</ele><time>2026-04-26T12:36:38.599Z</time></trkpt><trkpt lat="45.9450857" lon="11.6164023"><ele>1296.0</ele><time>2026-04-26T12:36:40.594Z</time></trkpt><trkpt lat="45.9450368" lon="11.6163311"><ele>1296.0</ele><time>2026-04-26T12:36:42.598Z</time></trkpt><trkpt lat="45.945003" lon="11.6161893"><ele>1295.6666666666667</ele><time>2026-04-26T12:36:44.595Z</time></trkpt><trkpt lat="45.9449424" lon="11.6160394"><ele>1295.3333333333333</ele><time>2026-04-26T12:36:46.59Z</time></trkpt><trkpt lat="45.9449021" lon="11.6159551"><ele>1295.0</ele><time>2026-04-26T12:36:47.599Z</time></trkpt><trkpt lat="45.9448537" lon="11.615876"><ele>1294.6666666666665</ele><time>2026-04-26T12:36:48.597Z</time></trkpt><trkpt lat="45.9447868" lon="11.6158007"><ele>1294.3333333333333</ele><time>2026-04-26T12:36:49.6Z</time></trkpt><trkpt lat="45.9447127" lon="11.6157274"><ele>1294.0</ele><time>2026-04-26T12:36:50.598Z</time></trkpt><trkpt lat="45.9446429" lon="11.6156552"><ele>1294.0</ele><time>2026-04-26T12:36:51.604Z</time></trkpt><trkpt lat="45.9445709" lon="11.6155765"><ele>1294.0</ele><time>2026-04-26T12:36:52.614Z</time></trkpt><trkpt lat="45.9445042" lon="11.6154993"><ele>1294.0</ele><time>2026-04-26T12:36:53.596Z</time></trkpt><trkpt lat="45.9444431" lon="11.6154252"><ele>1294.0</ele><time>2026-04-26T12:36:54.59Z</time></trkpt><trkpt lat="45.9444028" lon="11.6153475"><ele>1294.0</ele><time>2026-04-26T12:36:55.589Z</time></trkpt><trkpt lat="45.9443915" lon="11.615179"><ele>1294.0</ele><time>2026-04-26T12:36:57.605Z</time></trkpt><trkpt lat="45.9444038" lon="11.6150809"><ele>1294.8000000000002</ele><time>2026-04-26T12:36:58.598Z</time></trkpt><trkpt lat="45.9444205" lon="11.614974"><ele>1295.6000000000001</ele><time>2026-04-26T12:36:59.59Z</time></trkpt><trkpt lat="45.9444308" lon="11.6148758"><ele>1296.4</ele><time>2026-04-26T12:37:00.589Z</time></trkpt><trkpt lat="45.944395" lon="11.614724"><ele>1297.2</ele><time>2026-04-26T12:37:02.599Z</time></trkpt><trkpt lat="45.9443009" lon="11.6146021"><ele>1298.0</ele><time>2026-04-26T12:37:04.595Z</time></trkpt><trkpt lat="45.9442418" lon="11.6145443"><ele>1299.5</ele><time>2026-04-26T12:37:05.595Z</time></trkpt><trkpt lat="45.9441789" lon="11.6144835"><ele>1301.0</ele><time>2026-04-26T12:37:06.596Z</time></trkpt><trkpt lat="45.9441078" lon="11.6144286"><ele>1302.5</ele><time>2026-04-26T12:37:07.604Z</time></trkpt><trkpt lat="45.9440248" lon="11.6143777"><ele>1304.0</ele><time>2026-04-26T12:37:08.599Z</time></trkpt><trkpt lat="45.9439301" lon="11.6143326"><ele>1305.5</ele><time>2026-04-26T12:37:09.591Z</time></trkpt><trkpt lat="45.9438303" lon="11.6143006"><ele>1307.0</ele><time>2026-04-26T12:37:10.591Z</time></trkpt><trkpt lat="45.9437414" lon="11.6142862"><ele>1307.0</ele><time>2026-04-26T12:37:11.593Z</time></trkpt><trkpt lat="45.9436642" lon="11.6142646"><ele>1307.0</ele><time>2026-04-26T12:37:12.593Z</time></trkpt><trkpt lat="45.9435707" lon="11.6141463"><ele>1307.0</ele><time>2026-04-26T12:37:14.599Z</time></trkpt><trkpt lat="45.9435321" lon="11.6140565"><ele>1307.0</ele><time>2026-04-26T12:37:15.612Z</time></trkpt><trkpt lat="45.9434891" lon="11.6139529"><ele>1307.0</ele><time>2026-04-26T12:37:16.595Z</time></trkpt><trkpt lat="45.9434334" lon="11.6138421"><ele>1307.6666666666667</ele><time>2026-04-26T12:37:17.589Z</time></trkpt><trkpt lat="45.9433793" lon="11.613754"><ele>1308.3333333333335</ele><time>2026-04-26T12:37:18.582Z</time></trkpt><trkpt lat="45.9433254" lon="11.6136838"><ele>1309.0</ele><time>2026-04-26T12:37:19.59Z</time></trkpt><trkpt lat="45.9432637" lon="11.6136032"><ele>1309.6666666666667</ele><time>2026-04-26T12:37:20.596Z</time></trkpt><trkpt lat="45.9431894" lon="11.6135235"><ele>1310.3333333333333</ele><time>2026-04-26T12:37:21.589Z</time></trkpt><trkpt lat="45.9431032" lon="11.6134345"><ele>1311.0</ele><time>2026-04-26T12:37:22.6Z</time></trkpt><trkpt lat="45.9430147" lon="11.6133253"><ele>1311.0</ele><time>2026-04-26T12:37:23.602Z</time></trkpt><trkpt lat="45.9429294" lon="11.6132057"><ele>1311.0</ele><time>2026-04-26T12:37:24.593Z</time></trkpt><trkpt lat="45.9428578" lon="11.6130984"><ele>1311.0</ele><time>2026-04-26T12:37:25.595Z</time></trkpt><trkpt lat="45.9427953" lon="11.6130209"><ele>1311.0</ele><time>2026-04-26T12:37:26.603Z</time></trkpt><trkpt lat="45.9427544" lon="11.6129372"><ele>1311.0</ele><time>2026-04-26T12:37:27.596Z</time></trkpt><trkpt lat="45.9427318" lon="11.6127661"><ele>1311.8333333333333</ele><time>2026-04-26T12:37:29.596Z</time></trkpt><trkpt lat="45.9427762" lon="11.6126543"><ele>1312.6666666666667</ele><time>2026-04-26T12:37:31.586Z</time></trkpt><trkpt lat="45.9428841" lon="11.612621"><ele>1313.5</ele><time>2026-04-26T12:37:33.59Z</time></trkpt><trkpt lat="45.9429566" lon="11.6126166"><ele>1314.3333333333335</ele><time>2026-04-26T12:37:34.592Z</time></trkpt><trkpt lat="45.9430198" lon="11.612594"><ele>1315.1666666666667</ele><time>2026-04-26T12:37:35.585Z</time></trkpt><trkpt lat="45.9430751" lon="11.6125062"><ele>1316.0</ele><time>2026-04-26T12:37:37.586Z</time></trkpt><trkpt lat="45.94306" lon="11.6123865"><ele>1316.0</ele><time>2026-04-26T12:37:39.595Z</time></trkpt><trkpt lat="45.9430242" lon="11.6121892"><ele>1316.0</ele><time>2026-04-26T12:37:41.59Z</time></trkpt><trkpt lat="45.9430033" lon="11.6120526"><ele>1316.0</ele><time>2026-04-26T12:37:42.602Z</time></trkpt><trkpt lat="45.9429548" lon="11.611914"><ele>1316.0</ele><time>2026-04-26T12:37:43.607Z</time></trkpt><trkpt lat="45.9428712" lon="11.6117812"><ele>1315.75</ele><time>2026-04-26T12:37:44.589Z</time></trkpt><trkpt lat="45.9427662" lon="11.6116579"><ele>1315.5</ele><time>2026-04-26T12:37:45.587Z</time></trkpt><trkpt lat="45.9426617" lon="11.6115773"><ele>1315.25</ele><time>2026-04-26T12:37:46.602Z</time></trkpt><trkpt lat="45.9425591" lon="11.6115411"><ele>1315.0</ele><time>2026-04-26T12:37:47.6Z</time></trkpt><trkpt lat="45.9424644" lon="11.6115186"><ele>1315.0</ele><time>2026-04-26T12:37:48.584Z</time></trkpt><trkpt lat="45.9423965" lon="11.6115105"><ele>1315.0</ele><time>2026-04-26T12:37:49.597Z</time></trkpt><trkpt lat="45.9423247" lon="11.6114949"><ele>1315.0</ele><time>2026-04-26T12:37:51.598Z</time></trkpt><trkpt lat="45.9422611" lon="11.6114701"><ele>1315.0</ele><time>2026-04-26T12:37:55.582Z</time></trkpt><trkpt lat="45.9423177" lon="11.6115137"><ele>1315.0</ele><time>2026-04-26T12:38:24.586Z</time></trkpt><trkpt lat="45.9424415" lon="11.6115076"><ele>1315.0</ele><time>2026-04-26T12:38:26.585Z</time></trkpt><trkpt lat="45.9425116" lon="11.6115081"><ele>1316.3333333333333</ele><time>2026-04-26T12:38:27.601Z</time></trkpt><trkpt lat="45.9425854" lon="11.6115253"><ele>1317.6666666666665</ele><time>2026-04-26T12:38:28.587Z</time></trkpt><trkpt lat="45.9426636" lon="11.6115697"><ele>1319.0</ele><time>2026-04-26T12:38:29.58Z</time></trkpt><trkpt lat="45.9427415" lon="11.6116269"><ele>1320.3333333333333</ele><time>2026-04-26T12:38:30.599Z</time></trkpt><trkpt lat="45.9428122" lon="11.6117089"><ele>1321.6666666666667</ele><time>2026-04-26T12:38:31.586Z</time></trkpt><trkpt lat="45.9428789" lon="11.6118031"><ele>1323.0</ele><time>2026-04-26T12:38:32.588Z</time></trkpt><trkpt lat="45.9429359" lon="11.6119131"><ele>1321.8333333333333</ele><time>2026-04-26T12:38:33.583Z</time></trkpt><trkpt lat="45.9429772" lon="11.6120337"><ele>1320.6666666666667</ele><time>2026-04-26T12:38:34.582Z</time></trkpt><trkpt lat="45.943003" lon="11.6121732"><ele>1319.5</ele><time>2026-04-26T12:38:35.591Z</time></trkpt><trkpt lat="45.9430134" lon="11.6123073"><ele>1318.3333333333335</ele><time>2026-04-26T12:38:36.579Z</time></trkpt><trkpt lat="45.9430265" lon="11.6124119"><ele>1317.1666666666667</ele><time>2026-04-26T12:38:37.599Z</time></trkpt><trkpt lat="45.9430518" lon="11.6125026"><ele>1316.0</ele><time>2026-04-26T12:38:38.591Z</time></trkpt><trkpt lat="45.9431405" lon="11.6125997"><ele>1316.0</ele><time>2026-04-26T12:38:40.586Z</time></trkpt><trkpt lat="45.9432099" lon="11.6126236"><ele>1316.0</ele><time>2026-04-26T12:38:41.599Z</time></trkpt><trkpt lat="45.9432871" lon="11.6126176"><ele>1316.0</ele><time>2026-04-26T12:38:42.588Z</time></trkpt><trkpt lat="45.9433714" lon="11.6126067"><ele>1316.0</ele><time>2026-04-26T12:38:43.588Z</time></trkpt><trkpt lat="45.9434708" lon="11.6126131"><ele>1316.0</ele><time>2026-04-26T12:38:44.597Z</time></trkpt><trkpt lat="45.9435777" lon="11.6126451"><ele>1316.0</ele><time>2026-04-26T12:38:45.608Z</time></trkpt><trkpt lat="45.9436817" lon="11.6126744"><ele>1316.4</ele><time>2026-04-26T12:38:46.611Z</time></trkpt><trkpt lat="45.9437773" lon="11.6126715"><ele>1316.8</ele><time>2026-04-26T12:38:47.593Z</time></trkpt><trkpt lat="45.943863" lon="11.6126466"><ele>1317.2</ele><time>2026-04-26T12:38:48.602Z</time></trkpt><trkpt lat="45.9439469" lon="11.6125948"><ele>1317.6000000000001</ele><time>2026-04-26T12:38:49.599Z</time></trkpt><trkpt lat="45.9440092" lon="11.612521"><ele>1318.0</ele><time>2026-04-26T12:38:50.592Z</time></trkpt><trkpt lat="45.944058" lon="11.6123895"><ele>1318.0</ele><time>2026-04-26T12:38:51.599Z</time></trkpt><trkpt lat="45.9441025" lon="11.6122431"><ele>1318.0</ele><time>2026-04-26T12:38:52.591Z</time></trkpt><trkpt lat="45.9441604" lon="11.6121069"><ele>1318.0</ele><time>2026-04-26T12:38:53.605Z</time></trkpt><trkpt lat="45.9442289" lon="11.6119879"><ele>1318.0</ele><time>2026-04-26T12:38:54.595Z</time></trkpt><trkpt lat="45.9443143" lon="11.6118933"><ele>1318.0</ele><time>2026-04-26T12:38:55.588Z</time></trkpt><trkpt lat="45.9444055" lon="11.6118003"><ele>1318.0</ele><time>2026-04-26T12:38:56.581Z</time></trkpt><trkpt lat="45.9444902" lon="11.6117002"><ele>1318.0</ele><time>2026-04-26T12:38:57.596Z</time></trkpt><trkpt lat="45.9445615" lon="11.6115852"><ele>1318.0</ele><time>2026-04-26T12:38:58.594Z</time></trkpt><trkpt lat="45.9446145" lon="11.6114644"><ele>1318.0</ele><time>2026-04-26T12:38:59.588Z</time></trkpt><trkpt lat="45.9446635" lon="11.61136"><ele>1318.0</ele><time>2026-04-26T12:39:00.596Z</time></trkpt><trkpt lat="45.9447047" lon="11.6112582"><ele>1318.0</ele><time>2026-04-26T12:39:01.607Z</time></trkpt><trkpt lat="45.9447355" lon="11.6111667"><ele>1318.0</ele><time>2026-04-26T12:39:02.59Z</time></trkpt><trkpt lat="45.9447841" lon="11.6110847"><ele>1318.0</ele><time>2026-04-26T12:39:04.593Z</time></trkpt><trkpt lat="45.9448186" lon="11.6110016"><ele>1318.0</ele><time>2026-04-26T12:40:35.611Z</time></trkpt><trkpt lat="45.9448948" lon="11.6108448"><ele>1318.0</ele><time>2026-04-26T12:40:37.599Z</time></trkpt><trkpt lat="45.9449442" lon="11.6107505"><ele>1318.0</ele><time>2026-04-26T12:40:38.581Z</time></trkpt><trkpt lat="45.944997" lon="11.6106566"><ele>1318.0</ele><time>2026-04-26T12:40:39.602Z</time></trkpt><trkpt lat="45.9450623" lon="11.6105511"><ele>1318.0</ele><time>2026-04-26T12:40:40.586Z</time></trkpt><trkpt lat="45.9451283" lon="11.610444"><ele>1318.0</ele><time>2026-04-26T12:40:41.597Z</time></trkpt><trkpt lat="45.9451914" lon="11.6103314"><ele>1318.0</ele><time>2026-04-26T12:40:42.581Z</time></trkpt><trkpt lat="45.9452565" lon="11.610228"><ele>1318.0</ele><time>2026-04-26T12:40:43.581Z</time></trkpt><trkpt lat="45.9453244" lon="11.6101263"><ele>1318.0</ele><time>2026-04-26T12:40:44.585Z</time></trkpt><trkpt lat="45.9453921" lon="11.610021"><ele>1318.0</ele><time>2026-04-26T12:40:45.589Z</time></trkpt><trkpt lat="45.9454498" lon="11.6099131"><ele>1318.0</ele><time>2026-04-26T12:40:46.587Z</time></trkpt><trkpt lat="45.9455001" lon="11.6098074"><ele>1318.0</ele><time>2026-04-26T12:40:47.587Z</time></trkpt><trkpt lat="45.9455521" lon="11.6096883"><ele>1318.0</ele><time>2026-04-26T12:40:48.607Z</time></trkpt><trkpt lat="45.945607" lon="11.6095637"><ele>1319.0</ele><time>2026-04-26T12:40:49.588Z</time></trkpt><trkpt lat="45.9456666" lon="11.609435"><ele>1320.0</ele><time>2026-04-26T12:40:50.587Z</time></trkpt><trkpt lat="45.9457219" lon="11.6093002"><ele>1321.0</ele><time>2026-04-26T12:40:51.604Z</time></trkpt><trkpt lat="45.9457907" lon="11.6091605"><ele>1322.0</ele><time>2026-04-26T12:40:52.592Z</time></trkpt><trkpt lat="45.9458704" lon="11.6090418"><ele>1321.0</ele><time>2026-04-26T12:40:53.602Z</time></trkpt><trkpt lat="45.9459587" lon="11.6089398"><ele>1320.0</ele><time>2026-04-26T12:40:54.586Z</time></trkpt><trkpt lat="45.9460594" lon="11.6088508"><ele>1319.0</ele><time>2026-04-26T12:40:55.589Z</time></trkpt><trkpt lat="45.9461508" lon="11.6087678"><ele>1318.0</ele><time>2026-04-26T12:40:56.587Z</time></trkpt><trkpt lat="45.946239" lon="11.6086833"><ele>1317.0</ele><time>2026-04-26T12:40:57.602Z</time></trkpt><trkpt lat="45.9463229" lon="11.6086099"><ele>1317.0</ele><time>2026-04-26T12:40:58.599Z</time></trkpt><trkpt lat="45.9464085" lon="11.6085525"><ele>1317.0</ele><time>2026-04-26T12:40:59.606Z</time></trkpt><trkpt lat="45.9464978" lon="11.6085185"><ele>1317.0</ele><time>2026-04-26T12:41:00.589Z</time></trkpt><trkpt lat="45.9465968" lon="11.6085128"><ele>1317.0</ele><time>2026-04-26T12:41:01.59Z</time></trkpt><trkpt lat="45.9466946" lon="11.6085295"><ele>1317.0</ele><time>2026-04-26T12:41:02.611Z</time></trkpt><trkpt lat="45.9467901" lon="11.6085761"><ele>1317.0</ele><time>2026-04-26T12:41:03.591Z</time></trkpt><trkpt lat="45.9468726" lon="11.6086365"><ele>1317.0</ele><time>2026-04-26T12:41:04.608Z</time></trkpt><trkpt lat="45.9469551" lon="11.6087034"><ele>1317.0</ele><time>2026-04-26T12:41:05.598Z</time></trkpt><trkpt lat="45.9470437" lon="11.6087556"><ele>1317.0</ele><time>2026-04-26T12:41:06.591Z</time></trkpt><trkpt lat="45.9471333" lon="11.608789"><ele>1317.0</ele><time>2026-04-26T12:41:07.589Z</time></trkpt><trkpt lat="45.9472353" lon="11.6087948"><ele>1317.1999999999998</ele><time>2026-04-26T12:41:08.599Z</time></trkpt><trkpt lat="45.9473379" lon="11.6088159"><ele>1317.4</ele><time>2026-04-26T12:41:09.588Z</time></trkpt><trkpt lat="45.9474394" lon="11.6088528"><ele>1317.6</ele><time>2026-04-26T12:41:10.608Z</time></trkpt><trkpt lat="45.9475438" lon="11.6089016"><ele>1317.8000000000002</ele><time>2026-04-26T12:41:11.594Z</time></trkpt><trkpt lat="45.9476465" lon="11.6089486"><ele>1318.0</ele><time>2026-04-26T12:41:12.596Z</time></trkpt><trkpt lat="45.9477487" lon="11.6089886"><ele>1318.0</ele><time>2026-04-26T12:41:13.594Z</time></trkpt><trkpt lat="45.9478479" lon="11.6090156"><ele>1318.0</ele><time>2026-04-26T12:41:14.606Z</time></trkpt><trkpt lat="45.9479532" lon="11.6090185"><ele>1318.0</ele><time>2026-04-26T12:41:15.586Z</time></trkpt><trkpt lat="45.9480534" lon="11.6089901"><ele>1318.0</ele><time>2026-04-26T12:41:16.596Z</time></trkpt><trkpt lat="45.948148" lon="11.6089486"><ele>1318.0</ele><time>2026-04-26T12:41:17.596Z</time></trkpt><trkpt lat="45.9482458" lon="11.6089072"><ele>1318.0</ele><time>2026-04-26T12:41:18.601Z</time></trkpt><trkpt lat="45.9483419" lon="11.6088756"><ele>1318.0</ele><time>2026-04-26T12:41:19.589Z</time></trkpt><trkpt lat="45.9484329" lon="11.6088342"><ele>1318.0</ele><time>2026-04-26T12:41:20.596Z</time></trkpt><trkpt lat="45.9485153" lon="11.608772"><ele>1318.0</ele><time>2026-04-26T12:41:21.59Z</time></trkpt><trkpt lat="45.9485849" lon="11.6086911"><ele>1318.0</ele><time>2026-04-26T12:41:22.592Z</time></trkpt><trkpt lat="45.9486474" lon="11.6085954"><ele>1318.0</ele><time>2026-04-26T12:41:23.595Z</time></trkpt><trkpt lat="45.9487006" lon="11.6084908"><ele>1318.0</ele><time>2026-04-26T12:41:24.582Z</time></trkpt><trkpt lat="45.9487514" lon="11.6083792"><ele>1318.0</ele><time>2026-04-26T12:41:25.603Z</time></trkpt><trkpt lat="45.9488046" lon="11.6082665"><ele>1318.0</ele><time>2026-04-26T12:41:26.598Z</time></trkpt><trkpt lat="45.9488598" lon="11.6081487"><ele>1318.0</ele><time>2026-04-26T12:41:27.592Z</time></trkpt><trkpt lat="45.948915" lon="11.6080238"><ele>1318.0</ele><time>2026-04-26T12:41:28.606Z</time></trkpt><trkpt lat="45.9489704" lon="11.6078991"><ele>1318.0</ele><time>2026-04-26T12:41:29.59Z</time></trkpt><trkpt lat="45.9490323" lon="11.6077689"><ele>1318.0</ele><time>2026-04-26T12:41:30.585Z</time></trkpt><trkpt lat="45.9490942" lon="11.6076326"><ele>1318.0</ele><time>2026-04-26T12:41:31.599Z</time></trkpt><trkpt lat="45.9491557" lon="11.6074903"><ele>1318.0</ele><time>2026-04-26T12:41:32.598Z</time></trkpt><trkpt lat="45.9492144" lon="11.6073601"><ele>1317.6000000000001</ele><time>2026-04-26T12:41:33.598Z</time></trkpt><trkpt lat="45.9492743" lon="11.607234"><ele>1317.2</ele><time>2026-04-26T12:41:34.587Z</time></trkpt><trkpt lat="45.9493317" lon="11.6071068"><ele>1316.8</ele><time>2026-04-26T12:41:35.612Z</time></trkpt><trkpt lat="45.9493905" lon="11.6069709"><ele>1316.4</ele><time>2026-04-26T12:41:36.587Z</time></trkpt><trkpt lat="45.9494534" lon="11.6068195"><ele>1316.0</ele><time>2026-04-26T12:41:37.588Z</time></trkpt><trkpt lat="45.9495206" lon="11.6066639"><ele>1316.8</ele><time>2026-04-26T12:41:38.596Z</time></trkpt><trkpt lat="45.9495883" lon="11.6065066"><ele>1317.6</ele><time>2026-04-26T12:41:39.591Z</time></trkpt><trkpt lat="45.9496424" lon="11.6063854"><ele>1318.4</ele><time>2026-04-26T12:41:40.588Z</time></trkpt><trkpt lat="45.9496926" lon="11.6062946"><ele>1319.2</ele><time>2026-04-26T12:41:41.59Z</time></trkpt><trkpt lat="45.9498198" lon="11.6062758"><ele>1320.0</ele><time>2026-04-26T12:41:43.593Z</time></trkpt><trkpt lat="45.9498871" lon="11.6063244"><ele>1320.0</ele><time>2026-04-26T12:41:44.589Z</time></trkpt><trkpt lat="45.9499415" lon="11.6064051"><ele>1320.0</ele><time>2026-04-26T12:41:45.592Z</time></trkpt><trkpt lat="45.9499892" lon="11.6065153"><ele>1320.0</ele><time>2026-04-26T12:41:46.589Z</time></trkpt><trkpt lat="45.9500459" lon="11.6066361"><ele>1320.0</ele><time>2026-04-26T12:41:47.599Z</time></trkpt><trkpt lat="45.950102" lon="11.6067715"><ele>1320.0</ele><time>2026-04-26T12:41:48.593Z</time></trkpt><trkpt lat="45.9501589" lon="11.606913"><ele>1319.5</ele><time>2026-04-26T12:41:49.604Z</time></trkpt><trkpt lat="45.9502218" lon="11.6070547"><ele>1319.0</ele><time>2026-04-26T12:41:50.593Z</time></trkpt><trkpt lat="45.950295" lon="11.6072111"><ele>1318.5</ele><time>2026-04-26T12:41:51.591Z</time></trkpt><trkpt lat="45.950384" lon="11.6073718"><ele>1318.0</ele><time>2026-04-26T12:41:52.591Z</time></trkpt><trkpt lat="45.9504742" lon="11.6075238"><ele>1318.0</ele><time>2026-04-26T12:41:53.589Z</time></trkpt><trkpt lat="45.9505521" lon="11.607664"><ele>1318.0</ele><time>2026-04-26T12:41:54.608Z</time></trkpt><trkpt lat="45.9506406" lon="11.6077798"><ele>1318.0</ele><time>2026-04-26T12:41:55.595Z</time></trkpt><trkpt lat="45.9507371" lon="11.6078818"><ele>1318.0</ele><time>2026-04-26T12:41:56.593Z</time></trkpt><trkpt lat="45.9508493" lon="11.607964"><ele>1317.5</ele><time>2026-04-26T12:41:57.591Z</time></trkpt><trkpt lat="45.9509643" lon="11.6080112"><ele>1317.0</ele><time>2026-04-26T12:41:58.597Z</time></trkpt><trkpt lat="45.9510775" lon="11.6080475"><ele>1316.5</ele><time>2026-04-26T12:41:59.588Z</time></trkpt><trkpt lat="45.9511894" lon="11.6080741"><ele>1316.0</ele><time>2026-04-26T12:42:00.604Z</time></trkpt><trkpt lat="45.9512991" lon="11.6080897"><ele>1316.0</ele><time>2026-04-26T12:42:01.596Z</time></trkpt><trkpt lat="45.9514117" lon="11.6081035"><ele>1316.0</ele><time>2026-04-26T12:42:02.592Z</time></trkpt><trkpt lat="45.9515219" lon="11.6081213"><ele>1316.0</ele><time>2026-04-26T12:42:03.587Z</time></trkpt><trkpt lat="45.9516359" lon="11.608134"><ele>1316.0</ele><time>2026-04-26T12:42:04.589Z</time></trkpt><trkpt lat="45.9517483" lon="11.6081599"><ele>1316.4</ele><time>2026-04-26T12:42:05.601Z</time></trkpt><trkpt lat="45.9518438" lon="11.6081982"><ele>1316.8</ele><time>2026-04-26T12:42:06.585Z</time></trkpt><trkpt lat="45.9519273" lon="11.6082622"><ele>1317.2</ele><time>2026-04-26T12:42:07.583Z</time></trkpt><trkpt lat="45.9520064" lon="11.6083219"><ele>1317.6000000000001</ele><time>2026-04-26T12:42:08.591Z</time></trkpt><trkpt lat="45.9521023" lon="11.6083571"><ele>1318.0</ele><time>2026-04-26T12:42:09.585Z</time></trkpt><trkpt lat="45.9521977" lon="11.6083824"><ele>1318.0</ele><time>2026-04-26T12:42:10.591Z</time></trkpt><trkpt lat="45.9522942" lon="11.6084128"><ele>1318.0</ele><time>2026-04-26T12:42:11.588Z</time></trkpt><trkpt lat="45.9523936" lon="11.6084583"><ele>1318.0</ele><time>2026-04-26T12:42:12.588Z</time></trkpt><trkpt lat="45.9524913" lon="11.608519"><ele>1318.0</ele><time>2026-04-26T12:42:13.593Z</time></trkpt><trkpt lat="45.9525818" lon="11.6085953"><ele>1318.0</ele><time>2026-04-26T12:42:14.588Z</time></trkpt><trkpt lat="45.9526556" lon="11.6087113"><ele>1318.6000000000001</ele><time>2026-04-26T12:42:15.602Z</time></trkpt><trkpt lat="45.9527342" lon="11.6088322"><ele>1319.2</ele><time>2026-04-26T12:42:16.588Z</time></trkpt><trkpt lat="45.9528079" lon="11.6089328"><ele>1319.8</ele><time>2026-04-26T12:42:17.6Z</time></trkpt><trkpt lat="45.9528853" lon="11.6089883"><ele>1320.4</ele><time>2026-04-26T12:42:18.576Z</time></trkpt><trkpt lat="45.9529703" lon="11.6090254"><ele>1321.0</ele><time>2026-04-26T12:42:19.596Z</time></trkpt><trkpt lat="45.9530538" lon="11.6090628"><ele>1321.0</ele><time>2026-04-26T12:42:20.586Z</time></trkpt><trkpt lat="45.9531338" lon="11.6091087"><ele>1321.0</ele><time>2026-04-26T12:42:21.583Z</time></trkpt><trkpt lat="45.9531876" lon="11.6091729"><ele>1321.0</ele><time>2026-04-26T12:42:22.595Z</time></trkpt><trkpt lat="45.9532307" lon="11.6092601"><ele>1321.0</ele><time>2026-04-26T12:42:23.589Z</time></trkpt><trkpt lat="45.9532754" lon="11.6093566"><ele>1321.0</ele><time>2026-04-26T12:42:24.602Z</time></trkpt><trkpt lat="45.9533287" lon="11.6094336"><ele>1321.0</ele><time>2026-04-26T12:42:25.595Z</time></trkpt><trkpt lat="45.9533921" lon="11.6094909"><ele>1321.4</ele><time>2026-04-26T12:42:26.589Z</time></trkpt><trkpt lat="45.9534552" lon="11.6095173"><ele>1321.8</ele><time>2026-04-26T12:42:27.596Z</time></trkpt><trkpt lat="45.9535341" lon="11.6095202"><ele>1322.2</ele><time>2026-04-26T12:42:28.593Z</time></trkpt><trkpt lat="45.9536259" lon="11.6095225"><ele>1322.6000000000001</ele><time>2026-04-26T12:42:29.588Z</time></trkpt><trkpt lat="45.9537305" lon="11.6095014"><ele>1323.0</ele><time>2026-04-26T12:42:30.59Z</time></trkpt><trkpt lat="45.9538719" lon="11.6094692"><ele>1323.6666666666667</ele><time>2026-04-26T12:42:31.587Z</time></trkpt><trkpt lat="45.954033" lon="11.6094492"><ele>1324.3333333333335</ele><time>2026-04-26T12:42:32.596Z</time></trkpt><trkpt lat="45.9542205" lon="11.6094267"><ele>1325.0</ele><time>2026-04-26T12:42:33.597Z</time></trkpt><trkpt lat="45.9543964" lon="11.6093966"><ele>1325.75</ele><time>2026-04-26T12:42:34.614Z</time></trkpt><trkpt lat="45.9545423" lon="11.6093903"><ele>1326.5</ele><time>2026-04-26T12:42:35.594Z</time></trkpt><trkpt lat="45.9546706" lon="11.6094016"><ele>1327.25</ele><time>2026-04-26T12:42:36.601Z</time></trkpt><trkpt lat="45.9547933" lon="11.6094414"><ele>1328.0</ele><time>2026-04-26T12:42:37.592Z</time></trkpt><trkpt lat="45.9549298" lon="11.6095097"><ele>1330.3333333333335</ele><time>2026-04-26T12:42:38.59Z</time></trkpt><trkpt lat="45.9550889" lon="11.6095917"><ele>1332.6666666666667</ele><time>2026-04-26T12:42:39.597Z</time></trkpt><trkpt lat="45.9552513" lon="11.609667"><ele>1335.0</ele><time>2026-04-26T12:42:40.603Z</time></trkpt><trkpt lat="45.9553984" lon="11.6097427"><ele>1335.0</ele><time>2026-04-26T12:42:41.604Z</time></trkpt><trkpt lat="45.9555023" lon="11.6098081"><ele>1335.0</ele><time>2026-04-26T12:42:42.617Z</time></trkpt><trkpt lat="45.9555991" lon="11.6098732"><ele>1335.0</ele><time>2026-04-26T12:42:43.603Z</time></trkpt><trkpt lat="45.9556849" lon="11.6099256"><ele>1335.0</ele><time>2026-04-26T12:42:44.603Z</time></trkpt><trkpt lat="45.9557625" lon="11.6099404"><ele>1335.0</ele><time>2026-04-26T12:42:45.589Z</time></trkpt><trkpt lat="45.9558402" lon="11.6099248"><ele>1335.5</ele><time>2026-04-26T12:42:46.596Z</time></trkpt><trkpt lat="45.9558944" lon="11.6098727"><ele>1336.0</ele><time>2026-04-26T12:42:47.59Z</time></trkpt><trkpt lat="45.9559497" lon="11.6098087"><ele>1336.5</ele><time>2026-04-26T12:42:48.59Z</time></trkpt><trkpt lat="45.9560098" lon="11.6097537"><ele>1337.0</ele><time>2026-04-26T12:42:49.586Z</time></trkpt><trkpt lat="45.956082" lon="11.6097275"><ele>1337.5</ele><time>2026-04-26T12:42:50.588Z</time></trkpt><trkpt lat="45.9561704" lon="11.6097131"><ele>1338.0</ele><time>2026-04-26T12:42:51.609Z</time></trkpt><trkpt lat="45.9562636" lon="11.6097292"><ele>1338.0</ele><time>2026-04-26T12:42:52.598Z</time></trkpt><trkpt lat="45.9563538" lon="11.6097745"><ele>1338.0</ele><time>2026-04-26T12:42:53.591Z</time></trkpt><trkpt lat="45.956449" lon="11.609846"><ele>1338.0</ele><time>2026-04-26T12:42:54.598Z</time></trkpt><trkpt lat="45.9565442" lon="11.6099099"><ele>1338.0</ele><time>2026-04-26T12:42:55.587Z</time></trkpt><trkpt lat="45.9566396" lon="11.6099532"><ele>1338.0</ele><time>2026-04-26T12:42:56.582Z</time></trkpt><trkpt lat="45.9567332" lon="11.6099602"><ele>1338.4</ele><time>2026-04-26T12:42:57.588Z</time></trkpt><trkpt lat="45.9568318" lon="11.6099658"><ele>1338.8000000000002</ele><time>2026-04-26T12:42:58.596Z</time></trkpt><trkpt lat="45.9569424" lon="11.6099627"><ele>1339.2</ele><time>2026-04-26T12:42:59.587Z</time></trkpt><trkpt lat="45.957055" lon="11.6099738"><ele>1339.6</ele><time>2026-04-26T12:43:00.591Z</time></trkpt><trkpt lat="45.9571743" lon="11.6100062"><ele>1340.0</ele><time>2026-04-26T12:43:01.603Z</time></trkpt><trkpt lat="45.9572987" lon="11.6100449"><ele>1340.0</ele><time>2026-04-26T12:43:02.586Z</time></trkpt><trkpt lat="45.9574273" lon="11.6100626"><ele>1340.0</ele><time>2026-04-26T12:43:03.593Z</time></trkpt><trkpt lat="45.9575623" lon="11.6100632"><ele>1340.0</ele><time>2026-04-26T12:43:04.591Z</time></trkpt><trkpt lat="45.9577145" lon="11.6100304"><ele>1340.0</ele><time>2026-04-26T12:43:05.583Z</time></trkpt><trkpt lat="45.9578691" lon="11.6099803"><ele>1341.6666666666667</ele><time>2026-04-26T12:43:06.589Z</time></trkpt><trkpt lat="45.95805" lon="11.6099349"><ele>1343.3333333333333</ele><time>2026-04-26T12:43:07.588Z</time></trkpt><trkpt lat="45.9582379" lon="11.60988"><ele>1345.0</ele><time>2026-04-26T12:43:08.595Z</time></trkpt><trkpt lat="45.9583942" lon="11.6098351"><ele>1347.0</ele><time>2026-04-26T12:43:09.589Z</time></trkpt><trkpt lat="45.9585318" lon="11.6097898"><ele>1349.0</ele><time>2026-04-26T12:43:10.597Z</time></trkpt><trkpt lat="45.9586453" lon="11.6097437"><ele>1351.0</ele><time>2026-04-26T12:43:11.598Z</time></trkpt><trkpt lat="45.9587491" lon="11.6097052"><ele>1353.0</ele><time>2026-04-26T12:43:12.59Z</time></trkpt><trkpt lat="45.9588413" lon="11.6096463"><ele>1353.0</ele><time>2026-04-26T12:43:13.585Z</time></trkpt><trkpt lat="45.9589222" lon="11.6095779"><ele>1353.0</ele><time>2026-04-26T12:43:14.584Z</time></trkpt><trkpt lat="45.9590074" lon="11.6095071"><ele>1353.0</ele><time>2026-04-26T12:43:15.583Z</time></trkpt><trkpt lat="45.9590882" lon="11.6094537"><ele>1353.0</ele><time>2026-04-26T12:43:16.588Z</time></trkpt><trkpt lat="45.9591853" lon="11.6094189"><ele>1353.0</ele><time>2026-04-26T12:43:17.592Z</time></trkpt><trkpt lat="45.9592965" lon="11.6094023"><ele>1352.8000000000002</ele><time>2026-04-26T12:43:18.59Z</time></trkpt><trkpt lat="45.9594071" lon="11.6093591"><ele>1352.6</ele><time>2026-04-26T12:43:19.604Z</time></trkpt><trkpt lat="45.9595002" lon="11.6092987"><ele>1352.4</ele><time>2026-04-26T12:43:20.595Z</time></trkpt><trkpt lat="45.9595876" lon="11.6092083"><ele>1352.1999999999998</ele><time>2026-04-26T12:43:21.591Z</time></trkpt><trkpt lat="45.9596697" lon="11.6091205"><ele>1352.0</ele><time>2026-04-26T12:43:22.59Z</time></trkpt><trkpt lat="45.9597531" lon="11.6090358"><ele>1352.0</ele><time>2026-04-26T12:43:23.587Z</time></trkpt><trkpt lat="45.9598397" lon="11.6089915"><ele>1352.0</ele><time>2026-04-26T12:43:24.596Z</time></trkpt><trkpt lat="45.9599445" lon="11.6089708"><ele>1352.0</ele><time>2026-04-26T12:43:25.586Z</time></trkpt><trkpt lat="45.9600576" lon="11.6089525"><ele>1352.0</ele><time>2026-04-26T12:43:26.601Z</time></trkpt><trkpt lat="45.9601574" lon="11.6089403"><ele>1352.0</ele><time>2026-04-26T12:43:27.591Z</time></trkpt><trkpt lat="45.9602389" lon="11.60891"><ele>1351.6</ele><time>2026-04-26T12:43:28.589Z</time></trkpt><trkpt lat="45.9603031" lon="11.6088521"><ele>1351.1999999999998</ele><time>2026-04-26T12:43:29.579Z</time></trkpt><trkpt lat="45.9603603" lon="11.6087994"><ele>1350.8</ele><time>2026-04-26T12:43:30.592Z</time></trkpt><trkpt lat="45.9604566" lon="11.6086952"><ele>1350.4</ele><time>2026-04-26T12:43:32.588Z</time></trkpt><trkpt lat="45.9605562" lon="11.6086082"><ele>1350.0</ele><time>2026-04-26T12:43:34.593Z</time></trkpt><trkpt lat="45.9606668" lon="11.6085367"><ele>1350.0</ele><time>2026-04-26T12:43:36.588Z</time></trkpt><trkpt lat="45.9607361" lon="11.608511"><ele>1350.0</ele><time>2026-04-26T12:43:37.584Z</time></trkpt><trkpt lat="45.9608097" lon="11.6084843"><ele>1350.0</ele><time>2026-04-26T12:43:38.583Z</time></trkpt><trkpt lat="45.9608901" lon="11.6084399"><ele>1350.0</ele><time>2026-04-26T12:43:39.593Z</time></trkpt><trkpt lat="45.9609707" lon="11.6083826"><ele>1350.0</ele><time>2026-04-26T12:43:40.588Z</time></trkpt><trkpt lat="45.96105" lon="11.6083005"><ele>1350.0</ele><time>2026-04-26T12:43:41.594Z</time></trkpt><trkpt lat="45.9611354" lon="11.6082073"><ele>1349.75</ele><time>2026-04-26T12:43:42.586Z</time></trkpt><trkpt lat="45.9612336" lon="11.6081061"><ele>1349.5</ele><time>2026-04-26T12:43:43.594Z</time></trkpt><trkpt lat="45.9613462" lon="11.6079965"><ele>1349.25</ele><time>2026-04-26T12:43:44.595Z</time></trkpt><trkpt lat="45.9614729" lon="11.6078822"><ele>1349.0</ele><time>2026-04-26T12:43:45.598Z</time></trkpt><trkpt lat="45.9615997" lon="11.6077768"><ele>1349.75</ele><time>2026-04-26T12:43:46.593Z</time></trkpt><trkpt lat="45.9617323" lon="11.6077036"><ele>1350.5</ele><time>2026-04-26T12:43:47.584Z</time></trkpt><trkpt lat="45.9618715" lon="11.6076435"><ele>1351.25</ele><time>2026-04-26T12:43:48.596Z</time></trkpt><trkpt lat="45.9620091" lon="11.6075756"><ele>1352.0</ele><time>2026-04-26T12:43:49.592Z</time></trkpt><trkpt lat="45.9621346" lon="11.6074964"><ele>1352.0</ele><time>2026-04-26T12:43:50.589Z</time></trkpt><trkpt lat="45.9622621" lon="11.6073866"><ele>1352.0</ele><time>2026-04-26T12:43:51.595Z</time></trkpt><trkpt lat="45.9624079" lon="11.6072714"><ele>1352.0</ele><time>2026-04-26T12:43:52.602Z</time></trkpt><trkpt lat="45.962544" lon="11.6071694"><ele>1352.3999999999999</ele><time>2026-04-26T12:43:53.595Z</time></trkpt><trkpt lat="45.9626629" lon="11.6070941"><ele>1352.8</ele><time>2026-04-26T12:43:54.595Z</time></trkpt><trkpt lat="45.9627592" lon="11.6070177"><ele>1353.2</ele><time>2026-04-26T12:43:55.599Z</time></trkpt><trkpt lat="45.9628422" lon="11.6069451"><ele>1353.6</ele><time>2026-04-26T12:43:56.577Z</time></trkpt><trkpt lat="45.9629087" lon="11.6068431"><ele>1354.0</ele><time>2026-04-26T12:43:57.59Z</time></trkpt><trkpt lat="45.9629772" lon="11.6067293"><ele>1354.0</ele><time>2026-04-26T12:43:58.6Z</time></trkpt><trkpt lat="45.9630464" lon="11.6066064"><ele>1354.0</ele><time>2026-04-26T12:43:59.596Z</time></trkpt><trkpt lat="45.9631184" lon="11.6064945"><ele>1354.0</ele><time>2026-04-26T12:44:00.595Z</time></trkpt><trkpt lat="45.9631924" lon="11.6063871"><ele>1354.0</ele><time>2026-04-26T12:44:01.6Z</time></trkpt><trkpt lat="45.9632642" lon="11.6062736"><ele>1354.0</ele><time>2026-04-26T12:44:02.6Z</time></trkpt><trkpt lat="45.9633399" lon="11.6061546"><ele>1355.0</ele><time>2026-04-26T12:44:03.598Z</time></trkpt><trkpt lat="45.9634197" lon="11.6060167"><ele>1356.0</ele><time>2026-04-26T12:44:04.611Z</time></trkpt><trkpt lat="45.9634961" lon="11.6058794"><ele>1357.0</ele><time>2026-04-26T12:44:05.593Z</time></trkpt><trkpt lat="45.9635594" lon="11.6057537"><ele>1358.0</ele><time>2026-04-26T12:44:06.589Z</time></trkpt><trkpt lat="45.9636293" lon="11.6056681"><ele>1359.0</ele><time>2026-04-26T12:44:07.589Z</time></trkpt><trkpt lat="45.9636864" lon="11.6055882"><ele>1359.0</ele><time>2026-04-26T12:44:08.593Z</time></trkpt><trkpt lat="45.9637243" lon="11.6055027"><ele>1359.0</ele><time>2026-04-26T12:44:09.597Z</time></trkpt><trkpt lat="45.963749" lon="11.6054097"><ele>1359.0</ele><time>2026-04-26T12:44:10.597Z</time></trkpt><trkpt lat="45.9637552" lon="11.6052813"><ele>1359.0</ele><time>2026-04-26T12:44:11.601Z</time></trkpt><trkpt lat="45.9637441" lon="11.6051479"><ele>1359.0</ele><time>2026-04-26T12:44:12.587Z</time></trkpt><trkpt lat="45.9637571" lon="11.6050323"><ele>1359.0</ele><time>2026-04-26T12:44:13.584Z</time></trkpt><trkpt lat="45.9637938" lon="11.6049445"><ele>1359.3333333333333</ele><time>2026-04-26T12:44:14.595Z</time></trkpt><trkpt lat="45.9638589" lon="11.6048858"><ele>1359.6666666666667</ele><time>2026-04-26T12:44:15.597Z</time></trkpt><trkpt lat="45.9639362" lon="11.6048475"><ele>1360.0</ele><time>2026-04-26T12:44:16.596Z</time></trkpt><trkpt lat="45.9640288" lon="11.6048172"><ele>1360.3333333333335</ele><time>2026-04-26T12:44:17.603Z</time></trkpt><trkpt lat="45.9641116" lon="11.6047742"><ele>1360.6666666666667</ele><time>2026-04-26T12:44:18.588Z</time></trkpt><trkpt lat="45.9641539" lon="11.6047027"><ele>1361.0</ele><time>2026-04-26T12:44:19.579Z</time></trkpt><trkpt lat="45.964143" lon="11.6045512"><ele>1361.4</ele><time>2026-04-26T12:44:21.589Z</time></trkpt><trkpt lat="45.9641045" lon="11.6044492"><ele>1361.8</ele><time>2026-04-26T12:44:23.6Z</time></trkpt><trkpt lat="45.9640231" lon="11.6043326"><ele>1362.2</ele><time>2026-04-26T12:44:25.599Z</time></trkpt><trkpt lat="45.9639511" lon="11.6041865"><ele>1362.6000000000001</ele><time>2026-04-26T12:44:27.59Z</time></trkpt><trkpt lat="45.9639214" lon="11.6040879"><ele>1363.0</ele><time>2026-04-26T12:44:28.587Z</time></trkpt><trkpt lat="45.9638988" lon="11.6039723"><ele>1363.0</ele><time>2026-04-26T12:44:29.592Z</time></trkpt><trkpt lat="45.9638666" lon="11.6038523"><ele>1363.0</ele><time>2026-04-26T12:44:30.593Z</time></trkpt><trkpt lat="45.9638236" lon="11.6037243"><ele>1363.0</ele><time>2026-04-26T12:44:31.595Z</time></trkpt><trkpt lat="45.9637783" lon="11.6035801"><ele>1363.0</ele><time>2026-04-26T12:44:32.594Z</time></trkpt><trkpt lat="45.9637346" lon="11.6034312"><ele>1363.0</ele><time>2026-04-26T12:44:33.589Z</time></trkpt><trkpt lat="45.9636882" lon="11.6032776"><ele>1362.8000000000002</ele><time>2026-04-26T12:44:34.593Z</time></trkpt><trkpt lat="45.9636415" lon="11.6031126"><ele>1362.6</ele><time>2026-04-26T12:44:35.592Z</time></trkpt><trkpt lat="45.9635964" lon="11.6029518"><ele>1362.4</ele><time>2026-04-26T12:44:36.588Z</time></trkpt><trkpt lat="45.9635759" lon="11.6028022"><ele>1362.1999999999998</ele><time>2026-04-26T12:44:37.6Z</time></trkpt><trkpt lat="45.9635789" lon="11.602664"><ele>1362.0</ele><time>2026-04-26T12:44:38.598Z</time></trkpt><trkpt lat="45.9636085" lon="11.6025206"><ele>1361.5</ele><time>2026-04-26T12:44:39.611Z</time></trkpt><trkpt lat="45.9636664" lon="11.6023801"><ele>1361.0</ele><time>2026-04-26T12:44:40.594Z</time></trkpt><trkpt lat="45.9637451" lon="11.6022372"><ele>1360.5</ele><time>2026-04-26T12:44:41.588Z</time></trkpt><trkpt lat="45.9638421" lon="11.6021141"><ele>1360.0</ele><time>2026-04-26T12:44:42.599Z</time></trkpt><trkpt lat="45.96394" lon="11.6020074"><ele>1360.75</ele><time>2026-04-26T12:44:43.607Z</time></trkpt><trkpt lat="45.9640229" lon="11.601882"><ele>1361.5</ele><time>2026-04-26T12:44:44.591Z</time></trkpt><trkpt lat="45.964078" lon="11.6017421"><ele>1362.25</ele><time>2026-04-26T12:44:45.583Z</time></trkpt><trkpt lat="45.9640964" lon="11.6015733"><ele>1363.0</ele><time>2026-04-26T12:44:46.587Z</time></trkpt><trkpt lat="45.9640882" lon="11.6014034"><ele>1363.0</ele><time>2026-04-26T12:44:47.603Z</time></trkpt><trkpt lat="45.9640624" lon="11.6012223"><ele>1363.0</ele><time>2026-04-26T12:44:48.587Z</time></trkpt><trkpt lat="45.9640275" lon="11.6010243"><ele>1363.0</ele><time>2026-04-26T12:44:49.59Z</time></trkpt><trkpt lat="45.9639869" lon="11.6008218"><ele>1363.0</ele><time>2026-04-26T12:44:50.598Z</time></trkpt><trkpt lat="45.9639508" lon="11.6006117"><ele>1364.0</ele><time>2026-04-26T12:44:51.592Z</time></trkpt><trkpt lat="45.9639094" lon="11.6003859"><ele>1365.0</ele><time>2026-04-26T12:44:52.598Z</time></trkpt><trkpt lat="45.9638666" lon="11.6001512"><ele>1366.0</ele><time>2026-04-26T12:44:53.586Z</time></trkpt><trkpt lat="45.9638222" lon="11.5999005"><ele>1367.3333333333333</ele><time>2026-04-26T12:44:54.59Z</time></trkpt><trkpt lat="45.963763" lon="11.5996558"><ele>1368.6666666666667</ele><time>2026-04-26T12:44:55.588Z</time></trkpt><trkpt lat="45.9636985" lon="11.5994187"><ele>1370.0</ele><time>2026-04-26T12:44:56.595Z</time></trkpt><trkpt lat="45.963619" lon="11.5992138"><ele>1370.0</ele><time>2026-04-26T12:44:57.588Z</time></trkpt><trkpt lat="45.9635117" lon="11.5990478"><ele>1370.0</ele><time>2026-04-26T12:44:58.593Z</time></trkpt><trkpt lat="45.9633829" lon="11.5989038"><ele>1370.0</ele><time>2026-04-26T12:44:59.586Z</time></trkpt><trkpt lat="45.9632528" lon="11.5987515"><ele>1368.3333333333335</ele><time>2026-04-26T12:45:00.593Z</time></trkpt><trkpt lat="45.9631266" lon="11.5985802"><ele>1366.6666666666667</ele><time>2026-04-26T12:45:01.584Z</time></trkpt><trkpt lat="45.9630057" lon="11.5983812"><ele>1365.0</ele><time>2026-04-26T12:45:02.588Z</time></trkpt><trkpt lat="45.96288" lon="11.5981749"><ele>1365.0</ele><time>2026-04-26T12:45:03.585Z</time></trkpt><trkpt lat="45.9627579" lon="11.5979785"><ele>1365.0</ele><time>2026-04-26T12:45:04.597Z</time></trkpt><trkpt lat="45.96263" lon="11.5977854"><ele>1365.0</ele><time>2026-04-26T12:45:05.59Z</time></trkpt><trkpt lat="45.9625033" lon="11.5976154"><ele>1365.0</ele><time>2026-04-26T12:45:06.591Z</time></trkpt><trkpt lat="45.9623784" lon="11.5974726"><ele>1365.0</ele><time>2026-04-26T12:45:07.603Z</time></trkpt><trkpt lat="45.9622689" lon="11.5973779"><ele>1365.0</ele><time>2026-04-26T12:45:08.59Z</time></trkpt><trkpt lat="45.9621663" lon="11.5972953"><ele>1365.0</ele><time>2026-04-26T12:45:09.586Z</time></trkpt><trkpt lat="45.9620749" lon="11.5972161"><ele>1365.0</ele><time>2026-04-26T12:45:10.583Z</time></trkpt><trkpt lat="45.9619953" lon="11.5971347"><ele>1365.0</ele><time>2026-04-26T12:45:11.591Z</time></trkpt><trkpt lat="45.9619356" lon="11.5970283"><ele>1365.0</ele><time>2026-04-26T12:45:12.593Z</time></trkpt><trkpt lat="45.961894" lon="11.5969227"><ele>1365.0</ele><time>2026-04-26T12:45:13.593Z</time></trkpt><trkpt lat="45.9618563" lon="11.5968119"><ele>1365.0</ele><time>2026-04-26T12:45:14.601Z</time></trkpt><trkpt lat="45.9618231" lon="11.5967078"><ele>1365.0</ele><time>2026-04-26T12:45:15.594Z</time></trkpt><trkpt lat="45.9618049" lon="11.5966167"><ele>1365.8333333333333</ele><time>2026-04-26T12:45:16.605Z</time></trkpt><trkpt lat="45.9618113" lon="11.5965038"><ele>1366.6666666666667</ele><time>2026-04-26T12:45:18.587Z</time></trkpt><trkpt lat="45.9618655" lon="11.5964427"><ele>1367.5</ele><time>2026-04-26T12:45:20.594Z</time></trkpt><trkpt lat="45.9619514" lon="11.5964396"><ele>1368.3333333333335</ele><time>2026-04-26T12:45:22.594Z</time></trkpt><trkpt lat="45.9620708" lon="11.5964433"><ele>1369.1666666666667</ele><time>2026-04-26T12:45:24.589Z</time></trkpt><trkpt lat="45.962145" lon="11.5964225"><ele>1370.0</ele><time>2026-04-26T12:45:25.594Z</time></trkpt><trkpt lat="45.9622267" lon="11.596382"><ele>1370.0</ele><time>2026-04-26T12:45:26.582Z</time></trkpt><trkpt lat="45.9623116" lon="11.5963277"><ele>1370.0</ele><time>2026-04-26T12:45:27.612Z</time></trkpt><trkpt lat="45.9623972" lon="11.5962732"><ele>1370.0</ele><time>2026-04-26T12:45:28.587Z</time></trkpt><trkpt lat="45.9624665" lon="11.5961757"><ele>1370.0</ele><time>2026-04-26T12:45:29.591Z</time></trkpt><trkpt lat="45.9625189" lon="11.5960592"><ele>1370.0</ele><time>2026-04-26T12:45:30.588Z</time></trkpt><trkpt lat="45.9625568" lon="11.595912"><ele>1371.4</ele><time>2026-04-26T12:45:31.587Z</time></trkpt><trkpt lat="45.9625837" lon="11.5957588"><ele>1372.8</ele><time>2026-04-26T12:45:32.593Z</time></trkpt><trkpt lat="45.9626152" lon="11.5956066"><ele>1374.1999999999998</ele><time>2026-04-26T12:45:33.602Z</time></trkpt><trkpt lat="45.9626395" lon="11.5954524"><ele>1375.6</ele><time>2026-04-26T12:45:34.594Z</time></trkpt><trkpt lat="45.9626549" lon="11.595317"><ele>1377.0</ele><time>2026-04-26T12:45:35.59Z</time></trkpt><trkpt lat="45.9626464" lon="11.5951744"><ele>1377.5</ele><time>2026-04-26T12:45:36.6Z</time></trkpt><trkpt lat="45.9626228" lon="11.5950328"><ele>1378.0</ele><time>2026-04-26T12:45:37.596Z</time></trkpt><trkpt lat="45.962591" lon="11.5948685"><ele>1378.5</ele><time>2026-04-26T12:45:38.596Z</time></trkpt><trkpt lat="45.9625558" lon="11.5947106"><ele>1379.0</ele><time>2026-04-26T12:45:39.599Z</time></trkpt><trkpt lat="45.9625198" lon="11.5945505"><ele>1378.75</ele><time>2026-04-26T12:45:40.591Z</time></trkpt><trkpt lat="45.9624853" lon="11.5943958"><ele>1378.5</ele><time>2026-04-26T12:45:41.604Z</time></trkpt><trkpt lat="45.9624472" lon="11.594236"><ele>1378.25</ele><time>2026-04-26T12:45:42.594Z</time></trkpt><trkpt lat="45.9624114" lon="11.5940749"><ele>1378.0</ele><time>2026-04-26T12:45:43.602Z</time></trkpt><trkpt lat="45.9623725" lon="11.593915"><ele>1378.0</ele><time>2026-04-26T12:45:44.604Z</time></trkpt><trkpt lat="45.962332" lon="11.5937599"><ele>1378.0</ele><time>2026-04-26T12:45:45.593Z</time></trkpt><trkpt lat="45.9622787" lon="11.5935999"><ele>1378.0</ele><time>2026-04-26T12:45:46.614Z</time></trkpt><trkpt lat="45.9622133" lon="11.5934419"><ele>1378.0</ele><time>2026-04-26T12:45:47.595Z</time></trkpt><trkpt lat="45.962143" lon="11.5932916"><ele>1378.5</ele><time>2026-04-26T12:45:48.595Z</time></trkpt><trkpt lat="45.9620643" lon="11.5931479"><ele>1379.0</ele><time>2026-04-26T12:45:49.597Z</time></trkpt><trkpt lat="45.9619861" lon="11.5929979"><ele>1379.5</ele><time>2026-04-26T12:45:50.599Z</time></trkpt><trkpt lat="45.9619108" lon="11.5928482"><ele>1380.0</ele><time>2026-04-26T12:45:51.599Z</time></trkpt><trkpt lat="45.9618434" lon="11.5927043"><ele>1378.75</ele><time>2026-04-26T12:45:52.596Z</time></trkpt><trkpt lat="45.9617859" lon="11.5925546"><ele>1377.5</ele><time>2026-04-26T12:45:53.604Z</time></trkpt><trkpt lat="45.9617432" lon="11.5924038"><ele>1376.25</ele><time>2026-04-26T12:45:54.604Z</time></trkpt><trkpt lat="45.9617189" lon="11.5922456"><ele>1375.0</ele><time>2026-04-26T12:45:55.602Z</time></trkpt><trkpt lat="45.9617131" lon="11.5920665"><ele>1375.0</ele><time>2026-04-26T12:45:56.589Z</time></trkpt><trkpt lat="45.9617206" lon="11.5918932"><ele>1375.0</ele><time>2026-04-26T12:45:57.612Z</time></trkpt><trkpt lat="45.9617392" lon="11.5917129"><ele>1375.0</ele><time>2026-04-26T12:45:58.591Z</time></trkpt><trkpt lat="45.9617635" lon="11.5915333"><ele>1375.0</ele><time>2026-04-26T12:45:59.6Z</time></trkpt><trkpt lat="45.9618015" lon="11.5913393"><ele>1376.0</ele><time>2026-04-26T12:46:00.599Z</time></trkpt><trkpt lat="45.9618443" lon="11.5911468"><ele>1377.0</ele><time>2026-04-26T12:46:01.598Z</time></trkpt><trkpt lat="45.9618814" lon="11.5909487"><ele>1378.0</ele><time>2026-04-26T12:46:02.587Z</time></trkpt><trkpt lat="45.9619177" lon="11.5907384"><ele>1379.0</ele><time>2026-04-26T12:46:03.593Z</time></trkpt><trkpt lat="45.961952" lon="11.5905266"><ele>1379.5</ele><time>2026-04-26T12:46:04.587Z</time></trkpt><trkpt lat="45.9619939" lon="11.5903168"><ele>1380.0</ele><time>2026-04-26T12:46:05.6Z</time></trkpt><trkpt lat="45.9620385" lon="11.5901174"><ele>1380.5</ele><time>2026-04-26T12:46:06.592Z</time></trkpt><trkpt lat="45.9620796" lon="11.5899274"><ele>1381.0</ele><time>2026-04-26T12:46:07.59Z</time></trkpt><trkpt lat="45.9621075" lon="11.5897463"><ele>1381.0</ele><time>2026-04-26T12:46:08.593Z</time></trkpt><trkpt lat="45.9621417" lon="11.5895776"><ele>1381.0</ele><time>2026-04-26T12:46:09.589Z</time></trkpt><trkpt lat="45.9621728" lon="11.5894136"><ele>1381.0</ele><time>2026-04-26T12:46:10.601Z</time></trkpt><trkpt lat="45.962208" lon="11.5892616"><ele>1381.0</ele><time>2026-04-26T12:46:11.592Z</time></trkpt><trkpt lat="45.9622489" lon="11.5891145"><ele>1380.75</ele><time>2026-04-26T12:46:12.607Z</time></trkpt><trkpt lat="45.9623068" lon="11.5889658"><ele>1380.5</ele><time>2026-04-26T12:46:13.586Z</time></trkpt><trkpt lat="45.9623755" lon="11.5888065"><ele>1380.25</ele><time>2026-04-26T12:46:14.594Z</time></trkpt><trkpt lat="45.9624504" lon="11.5886412"><ele>1380.0</ele><time>2026-04-26T12:46:15.601Z</time></trkpt><trkpt lat="45.9625208" lon="11.5884811"><ele>1378.75</ele><time>2026-04-26T12:46:16.589Z</time></trkpt><trkpt lat="45.9625922" lon="11.5883214"><ele>1377.5</ele><time>2026-04-26T12:46:17.594Z</time></trkpt><trkpt lat="45.9626581" lon="11.5881739"><ele>1376.25</ele><time>2026-04-26T12:46:18.596Z</time></trkpt><trkpt lat="45.9627236" lon="11.5880295"><ele>1375.0</ele><time>2026-04-26T12:46:19.584Z</time></trkpt><trkpt lat="45.9627881" lon="11.5878802"><ele>1374.25</ele><time>2026-04-26T12:46:20.595Z</time></trkpt><trkpt lat="45.9628512" lon="11.5877209"><ele>1373.5</ele><time>2026-04-26T12:46:21.595Z</time></trkpt><trkpt lat="45.9629207" lon="11.5875586"><ele>1372.75</ele><time>2026-04-26T12:46:22.59Z</time></trkpt><trkpt lat="45.9629917" lon="11.5873734"><ele>1372.0</ele><time>2026-04-26T12:46:23.604Z</time></trkpt><trkpt lat="45.9630701" lon="11.587174"><ele>1372.0</ele><time>2026-04-26T12:46:24.599Z</time></trkpt><trkpt lat="45.9631537" lon="11.5869705"><ele>1372.0</ele><time>2026-04-26T12:46:25.588Z</time></trkpt><trkpt lat="45.9632365" lon="11.5867729"><ele>1372.0</ele><time>2026-04-26T12:46:26.597Z</time></trkpt><trkpt lat="45.9633158" lon="11.5865753"><ele>1373.0</ele><time>2026-04-26T12:46:27.592Z</time></trkpt><trkpt lat="45.9633871" lon="11.5863906"><ele>1374.0</ele><time>2026-04-26T12:46:28.586Z</time></trkpt><trkpt lat="45.9634563" lon="11.5861996"><ele>1375.0</ele><time>2026-04-26T12:46:29.593Z</time></trkpt><trkpt lat="45.9635271" lon="11.5860055"><ele>1376.0</ele><time>2026-04-26T12:46:30.582Z</time></trkpt><trkpt lat="45.9635911" lon="11.5858082"><ele>1376.0</ele><time>2026-04-26T12:46:31.604Z</time></trkpt><trkpt lat="45.9636498" lon="11.5856171"><ele>1376.0</ele><time>2026-04-26T12:46:32.604Z</time></trkpt><trkpt lat="45.9637124" lon="11.5854224"><ele>1376.0</ele><time>2026-04-26T12:46:33.6Z</time></trkpt><trkpt lat="45.9637718" lon="11.5852504"><ele>1376.0</ele><time>2026-04-26T12:46:34.595Z</time></trkpt><trkpt lat="45.963833" lon="11.585115"><ele>1376.0</ele><time>2026-04-26T12:46:35.589Z</time></trkpt><trkpt lat="45.9638969" lon="11.5850103"><ele>1376.0</ele><time>2026-04-26T12:46:36.587Z</time></trkpt><trkpt lat="45.9639683" lon="11.5849326"><ele>1376.0</ele><time>2026-04-26T12:46:37.592Z</time></trkpt><trkpt lat="45.9640329" lon="11.5848706"><ele>1376.0</ele><time>2026-04-26T12:46:38.601Z</time></trkpt><trkpt lat="45.9640896" lon="11.5848027"><ele>1376.0</ele><time>2026-04-26T12:46:39.597Z</time></trkpt><trkpt lat="45.9641489" lon="11.5847352"><ele>1376.0</ele><time>2026-04-26T12:46:40.582Z</time></trkpt><trkpt lat="45.9642118" lon="11.5846677"><ele>1377.1999999999998</ele><time>2026-04-26T12:46:41.595Z</time></trkpt><trkpt lat="45.9642769" lon="11.584592"><ele>1378.3999999999999</ele><time>2026-04-26T12:46:42.587Z</time></trkpt><trkpt lat="45.9643425" lon="11.5845038"><ele>1379.6</ele><time>2026-04-26T12:46:43.595Z</time></trkpt><trkpt lat="45.9644135" lon="11.584421"><ele>1380.8</ele><time>2026-04-26T12:46:44.583Z</time></trkpt><trkpt lat="45.9644905" lon="11.584331"><ele>1382.0</ele><time>2026-04-26T12:46:45.585Z</time></trkpt><trkpt lat="45.9645692" lon="11.5842291"><ele>1382.0</ele><time>2026-04-26T12:46:46.602Z</time></trkpt><trkpt lat="45.964648" lon="11.5841197"><ele>1382.0</ele><time>2026-04-26T12:46:47.589Z</time></trkpt><trkpt lat="45.9647265" lon="11.5839929"><ele>1382.0</ele><time>2026-04-26T12:46:48.595Z</time></trkpt><trkpt lat="45.9648127" lon="11.583859"><ele>1382.0</ele><time>2026-04-26T12:46:49.591Z</time></trkpt><trkpt lat="45.9648938" lon="11.5837136"><ele>1382.1999999999998</ele><time>2026-04-26T12:46:50.595Z</time></trkpt><trkpt lat="45.9649714" lon="11.5835633"><ele>1382.4</ele><time>2026-04-26T12:46:51.598Z</time></trkpt><trkpt lat="45.9650382" lon="11.5834205"><ele>1382.6</ele><time>2026-04-26T12:46:52.584Z</time></trkpt><trkpt lat="45.9650934" lon="11.5832962"><ele>1382.8000000000002</ele><time>2026-04-26T12:46:53.596Z</time></trkpt><trkpt lat="45.9651401" lon="11.5831865"><ele>1383.0</ele><time>2026-04-26T12:46:54.589Z</time></trkpt><trkpt lat="45.9652022" lon="11.5830947"><ele>1383.5</ele><time>2026-04-26T12:46:55.597Z</time></trkpt><trkpt lat="45.9652832" lon="11.5830126"><ele>1384.0</ele><time>2026-04-26T12:46:56.594Z</time></trkpt><trkpt lat="45.9653756" lon="11.5829345"><ele>1384.5</ele><time>2026-04-26T12:46:57.594Z</time></trkpt><trkpt lat="45.9654871" lon="11.5828693"><ele>1385.0</ele><time>2026-04-26T12:46:58.592Z</time></trkpt><trkpt lat="45.9656097" lon="11.582818"><ele>1385.0</ele><time>2026-04-26T12:46:59.594Z</time></trkpt><trkpt lat="45.9657434" lon="11.5827692"><ele>1385.0</ele><time>2026-04-26T12:47:00.583Z</time></trkpt><trkpt lat="45.9658822" lon="11.5827196"><ele>1385.0</ele><time>2026-04-26T12:47:01.578Z</time></trkpt><trkpt lat="45.9660304" lon="11.5826711"><ele>1385.0</ele><time>2026-04-26T12:47:02.595Z</time></trkpt><trkpt lat="45.9661788" lon="11.5826256"><ele>1384.75</ele><time>2026-04-26T12:47:03.591Z</time></trkpt><trkpt lat="45.9663171" lon="11.5825908"><ele>1384.5</ele><time>2026-04-26T12:47:04.592Z</time></trkpt><trkpt lat="45.9664427" lon="11.5825772"><ele>1384.25</ele><time>2026-04-26T12:47:05.592Z</time></trkpt><trkpt lat="45.9665528" lon="11.5825785"><ele>1384.0</ele><time>2026-04-26T12:47:06.578Z</time></trkpt><trkpt lat="45.9666511" lon="11.5825763"><ele>1386.4</ele><time>2026-04-26T12:47:07.588Z</time></trkpt><trkpt lat="45.966745" lon="11.5825679"><ele>1388.8000000000002</ele><time>2026-04-26T12:47:08.591Z</time></trkpt><trkpt lat="45.9668348" lon="11.5825487"><ele>1391.1999999999998</ele><time>2026-04-26T12:47:09.595Z</time></trkpt><trkpt lat="45.9669266" lon="11.5824914"><ele>1393.6</ele><time>2026-04-26T12:47:10.589Z</time></trkpt><trkpt lat="45.9670027" lon="11.5824056"><ele>1396.0</ele><time>2026-04-26T12:47:11.59Z</time></trkpt><trkpt lat="45.9670624" lon="11.5822935"><ele>1396.0</ele><time>2026-04-26T12:47:12.595Z</time></trkpt><trkpt lat="45.9671272" lon="11.5821814"><ele>1396.0</ele><time>2026-04-26T12:47:13.588Z</time></trkpt><trkpt lat="45.9671952" lon="11.5820673"><ele>1396.0</ele><time>2026-04-26T12:47:14.593Z</time></trkpt><trkpt lat="45.967263" lon="11.5819509"><ele>1396.0</ele><time>2026-04-26T12:47:15.608Z</time></trkpt><trkpt lat="45.9673283" lon="11.5818284"><ele>1396.0</ele><time>2026-04-26T12:47:16.577Z</time></trkpt><trkpt lat="45.9673835" lon="11.5816887"><ele>1395.25</ele><time>2026-04-26T12:47:17.585Z</time></trkpt><trkpt lat="45.9674273" lon="11.5815309"><ele>1394.5</ele><time>2026-04-26T12:47:18.6Z</time></trkpt><trkpt lat="45.9674504" lon="11.5813614"><ele>1393.75</ele><time>2026-04-26T12:47:19.597Z</time></trkpt><trkpt lat="45.9674676" lon="11.5811718"><ele>1393.0</ele><time>2026-04-26T12:47:20.596Z</time></trkpt><trkpt lat="45.9674784" lon="11.5809787"><ele>1392.75</ele><time>2026-04-26T12:47:21.584Z</time></trkpt><trkpt lat="45.9674859" lon="11.5807843"><ele>1392.5</ele><time>2026-04-26T12:47:22.609Z</time></trkpt><trkpt lat="45.9674918" lon="11.5806004"><ele>1392.25</ele><time>2026-04-26T12:47:23.581Z</time></trkpt><trkpt lat="45.9675041" lon="11.5804186"><ele>1392.0</ele><time>2026-04-26T12:47:24.588Z</time></trkpt><trkpt lat="45.967514" lon="11.5802454"><ele>1391.3999999999999</ele><time>2026-04-26T12:47:25.599Z</time></trkpt><trkpt lat="45.9675208" lon="11.5800813"><ele>1390.8</ele><time>2026-04-26T12:47:26.578Z</time></trkpt><trkpt lat="45.9675298" lon="11.5799383"><ele>1390.2</ele><time>2026-04-26T12:47:27.579Z</time></trkpt><trkpt lat="45.9675569" lon="11.5798212"><ele>1389.6</ele><time>2026-04-26T12:47:28.581Z</time></trkpt><trkpt lat="45.9675982" lon="11.5797115"><ele>1389.0</ele><time>2026-04-26T12:47:29.581Z</time></trkpt><trkpt lat="45.9676636" lon="11.5796105"><ele>1390.75</ele><time>2026-04-26T12:47:30.593Z</time></trkpt><trkpt lat="45.9677498" lon="11.5795213"><ele>1392.5</ele><time>2026-04-26T12:47:31.578Z</time></trkpt><trkpt lat="45.9678535" lon="11.5794399"><ele>1394.25</ele><time>2026-04-26T12:47:32.588Z</time></trkpt><trkpt lat="45.9679708" lon="11.5793574"><ele>1396.0</ele><time>2026-04-26T12:47:33.597Z</time></trkpt><trkpt lat="45.9680866" lon="11.5792439"><ele>1396.0</ele><time>2026-04-26T12:47:34.582Z</time></trkpt><trkpt lat="45.9681941" lon="11.5791235"><ele>1396.0</ele><time>2026-04-26T12:47:35.594Z</time></trkpt><trkpt lat="45.9683008" lon="11.5789977"><ele>1396.0</ele><time>2026-04-26T12:47:36.589Z</time></trkpt><trkpt lat="45.9684004" lon="11.5788522"><ele>1396.0</ele><time>2026-04-26T12:47:37.6Z</time></trkpt><trkpt lat="45.9685018" lon="11.5787155"><ele>1397.5</ele><time>2026-04-26T12:47:38.589Z</time></trkpt><trkpt lat="45.9686123" lon="11.5785752"><ele>1399.0</ele><time>2026-04-26T12:47:39.586Z</time></trkpt><trkpt lat="45.968719" lon="11.5784392"><ele>1400.5</ele><time>2026-04-26T12:47:40.587Z</time></trkpt><trkpt lat="45.9688389" lon="11.5782894"><ele>1402.0</ele><time>2026-04-26T12:47:41.599Z</time></trkpt><trkpt lat="45.9689587" lon="11.5781306"><ele>1402.0</ele><time>2026-04-26T12:47:42.595Z</time></trkpt><trkpt lat="45.9690691" lon="11.5779841"><ele>1402.0</ele><time>2026-04-26T12:47:43.596Z</time></trkpt><trkpt lat="45.9691602" lon="11.5778571"><ele>1402.0</ele><time>2026-04-26T12:47:44.585Z</time></trkpt><trkpt lat="45.9692455" lon="11.5777313"><ele>1402.0</ele><time>2026-04-26T12:47:45.59Z</time></trkpt><trkpt lat="45.969333" lon="11.5776141"><ele>1402.1999999999998</ele><time>2026-04-26T12:47:46.604Z</time></trkpt><trkpt lat="45.9694241" lon="11.5775237"><ele>1402.4</ele><time>2026-04-26T12:47:47.609Z</time></trkpt><trkpt lat="45.9695152" lon="11.5774339"><ele>1402.6</ele><time>2026-04-26T12:47:48.596Z</time></trkpt><trkpt lat="45.9696092" lon="11.577367"><ele>1402.8000000000002</ele><time>2026-04-26T12:47:49.61Z</time></trkpt><trkpt lat="45.9696917" lon="11.5773014"><ele>1403.0</ele><time>2026-04-26T12:47:50.598Z</time></trkpt><trkpt lat="45.9697771" lon="11.577243"><ele>1403.0</ele><time>2026-04-26T12:47:51.596Z</time></trkpt><trkpt lat="45.9698553" lon="11.5771875"><ele>1403.0</ele><time>2026-04-26T12:47:52.613Z</time></trkpt><trkpt lat="45.9699244" lon="11.5771644"><ele>1403.0</ele><time>2026-04-26T12:47:53.597Z</time></trkpt><trkpt lat="45.9699988" lon="11.5771751"><ele>1403.0</ele><time>2026-04-26T12:47:54.604Z</time></trkpt><trkpt lat="45.9700809" lon="11.5772291"><ele>1403.0</ele><time>2026-04-26T12:47:55.586Z</time></trkpt><trkpt lat="45.9701485" lon="11.577301"><ele>1403.0</ele><time>2026-04-26T12:47:56.589Z</time></trkpt><trkpt lat="45.970216" lon="11.5774207"><ele>1405.0</ele><time>2026-04-26T12:47:57.586Z</time></trkpt><trkpt lat="45.9702975" lon="11.57754"><ele>1407.0</ele><time>2026-04-26T12:47:58.597Z</time></trkpt><trkpt lat="45.9704021" lon="11.5776702"><ele>1409.0</ele><time>2026-04-26T12:47:59.61Z</time></trkpt><trkpt lat="45.9705342" lon="11.5778136"><ele>1411.0</ele><time>2026-04-26T12:48:00.587Z</time></trkpt><trkpt lat="45.9706642" lon="11.5779637"><ele>1411.0</ele><time>2026-04-26T12:48:01.585Z</time></trkpt><trkpt lat="45.9707876" lon="11.5781254"><ele>1411.0</ele><time>2026-04-26T12:48:02.602Z</time></trkpt><trkpt lat="45.9708993" lon="11.5782791"><ele>1411.0</ele><time>2026-04-26T12:48:03.586Z</time></trkpt><trkpt lat="45.9710176" lon="11.578426"><ele>1414.0</ele><time>2026-04-26T12:48:04.59Z</time></trkpt><trkpt lat="45.9711346" lon="11.5785668"><ele>1417.0</ele><time>2026-04-26T12:48:05.598Z</time></trkpt><trkpt lat="45.9712579" lon="11.5787059"><ele>1420.0</ele><time>2026-04-26T12:48:06.599Z</time></trkpt><trkpt lat="45.9713802" lon="11.5788335"><ele>1420.0</ele><time>2026-04-26T12:48:07.607Z</time></trkpt><trkpt lat="45.971487" lon="11.5789419"><ele>1420.0</ele><time>2026-04-26T12:48:08.596Z</time></trkpt><trkpt lat="45.971581" lon="11.579036"><ele>1420.0</ele><time>2026-04-26T12:48:09.587Z</time></trkpt><trkpt lat="45.9716559" lon="11.5791339"><ele>1420.0</ele><time>2026-04-26T12:48:10.587Z</time></trkpt><trkpt lat="45.9716978" lon="11.5792239"><ele>1420.0</ele><time>2026-04-26T12:48:11.587Z</time></trkpt><trkpt lat="45.9717288" lon="11.5793101"><ele>1423.4</ele><time>2026-04-26T12:48:12.613Z</time></trkpt><trkpt lat="45.9717835" lon="11.5794168"><ele>1426.8</ele><time>2026-04-26T12:48:14.585Z</time></trkpt><trkpt lat="45.9718615" lon="11.5793428"><ele>1430.1999999999998</ele><time>2026-04-26T12:48:17.593Z</time></trkpt><trkpt lat="45.9718098" lon="11.5791641"><ele>1433.6</ele><time>2026-04-26T12:48:19.588Z</time></trkpt><trkpt lat="45.9717622" lon="11.579059"><ele>1437.0</ele><time>2026-04-26T12:48:20.602Z</time></trkpt><trkpt lat="45.9717254" lon="11.5789464"><ele>1437.0</ele><time>2026-04-26T12:48:21.602Z</time></trkpt><trkpt lat="45.9717021" lon="11.5787993"><ele>1437.0</ele><time>2026-04-26T12:48:22.599Z</time></trkpt><trkpt lat="45.9716748" lon="11.5786379"><ele>1437.0</ele><time>2026-04-26T12:48:23.592Z</time></trkpt><trkpt lat="45.9716492" lon="11.5784518"><ele>1437.0</ele><time>2026-04-26T12:48:24.584Z</time></trkpt><trkpt lat="45.9716012" lon="11.578271"><ele>1437.75</ele><time>2026-04-26T12:48:25.596Z</time></trkpt><trkpt lat="45.9715537" lon="11.5780729"><ele>1438.5</ele><time>2026-04-26T12:48:26.592Z</time></trkpt><trkpt lat="45.9715109" lon="11.5778742"><ele>1439.25</ele><time>2026-04-26T12:48:27.599Z</time></trkpt><trkpt lat="45.971462" lon="11.5776685"><ele>1440.0</ele><time>2026-04-26T12:48:28.595Z</time></trkpt><trkpt lat="45.9714109" lon="11.5774506"><ele>1440.0</ele><time>2026-04-26T12:48:29.586Z</time></trkpt><trkpt lat="45.9713578" lon="11.577247"><ele>1440.0</ele><time>2026-04-26T12:48:30.608Z</time></trkpt><trkpt lat="45.9713042" lon="11.5770538"><ele>1440.0</ele><time>2026-04-26T12:48:31.596Z</time></trkpt><trkpt lat="45.9712465" lon="11.5768705"><ele>1440.0</ele><time>2026-04-26T12:48:32.591Z</time></trkpt><trkpt lat="45.9711993" lon="11.5766924"><ele>1442.25</ele><time>2026-04-26T12:48:33.593Z</time></trkpt><trkpt lat="45.9711632" lon="11.5765179"><ele>1444.5</ele><time>2026-04-26T12:48:34.577Z</time></trkpt><trkpt lat="45.9711311" lon="11.5763292"><ele>1446.75</ele><time>2026-04-26T12:48:35.586Z</time></trkpt><trkpt lat="45.9711016" lon="11.5761581"><ele>1449.0</ele><time>2026-04-26T12:48:36.579Z</time></trkpt><trkpt lat="45.971058" lon="11.5760111"><ele>1447.75</ele><time>2026-04-26T12:48:37.584Z</time></trkpt><trkpt lat="45.9710019" lon="11.5758731"><ele>1446.5</ele><time>2026-04-26T12:48:38.593Z</time></trkpt><trkpt lat="45.9709286" lon="11.5757333"><ele>1445.25</ele><time>2026-04-26T12:48:39.587Z</time></trkpt><trkpt lat="45.9708495" lon="11.5756055"><ele>1444.0</ele><time>2026-04-26T12:48:40.583Z</time></trkpt><trkpt lat="45.9707652" lon="11.5754849"><ele>1444.0</ele><time>2026-04-26T12:48:41.576Z</time></trkpt><trkpt lat="45.9706814" lon="11.5753598"><ele>1444.0</ele><time>2026-04-26T12:48:42.591Z</time></trkpt><trkpt lat="45.9705974" lon="11.5752423"><ele>1444.0</ele><time>2026-04-26T12:48:43.586Z</time></trkpt><trkpt lat="45.9705144" lon="11.5751297"><ele>1444.0</ele><time>2026-04-26T12:48:44.594Z</time></trkpt><trkpt lat="45.9704295" lon="11.5750173"><ele>1446.2</ele><time>2026-04-26T12:48:45.579Z</time></trkpt><trkpt lat="45.970347" lon="11.5749117"><ele>1448.4</ele><time>2026-04-26T12:48:46.585Z</time></trkpt><trkpt lat="45.9702679" lon="11.5748225"><ele>1450.6</ele><time>2026-04-26T12:48:47.584Z</time></trkpt><trkpt lat="45.9702012" lon="11.5747509"><ele>1452.8</ele><time>2026-04-26T12:48:48.595Z</time></trkpt><trkpt lat="45.97013" lon="11.5747022"><ele>1455.0</ele><time>2026-04-26T12:48:49.593Z</time></trkpt><trkpt lat="45.9700582" lon="11.5746595"><ele>1453.5</ele><time>2026-04-26T12:48:50.591Z</time></trkpt><trkpt lat="45.9699991" lon="11.574621"><ele>1452.0</ele><time>2026-04-26T12:48:51.593Z</time></trkpt><trkpt lat="45.9699447" lon="11.5745024"><ele>1450.5</ele><time>2026-04-26T12:48:53.584Z</time></trkpt><trkpt lat="45.9699527" lon="11.5743838"><ele>1449.0</ele><time>2026-04-26T12:48:54.589Z</time></trkpt><trkpt lat="45.9699675" lon="11.5742763"><ele>1447.5</ele><time>2026-04-26T12:48:55.578Z</time></trkpt><trkpt lat="45.9699964" lon="11.5741756"><ele>1446.0</ele><time>2026-04-26T12:48:56.582Z</time></trkpt><trkpt lat="45.9700356" lon="11.5740739"><ele>1450.8</ele><time>2026-04-26T12:48:57.591Z</time></trkpt><trkpt lat="45.9700775" lon="11.5739549"><ele>1455.6</ele><time>2026-04-26T12:48:58.606Z</time></trkpt><trkpt lat="45.970114" lon="11.5738046"><ele>1460.4</ele><time>2026-04-26T12:48:59.599Z</time></trkpt><trkpt lat="45.970149" lon="11.5736694"><ele>1465.2</ele><time>2026-04-26T12:49:00.591Z</time></trkpt><trkpt lat="45.9701786" lon="11.573526"><ele>1470.0</ele><time>2026-04-26T12:49:01.589Z</time></trkpt><trkpt lat="45.9702008" lon="11.57337"><ele>1472.2</ele><time>2026-04-26T12:49:02.584Z</time></trkpt><trkpt lat="45.9702076" lon="11.5732245"><ele>1474.4</ele><time>2026-04-26T12:49:03.587Z</time></trkpt><trkpt lat="45.9702003" lon="11.5730909"><ele>1476.6</ele><time>2026-04-26T12:49:04.595Z</time></trkpt><trkpt lat="45.9701789" lon="11.5729598"><ele>1478.8</ele><time>2026-04-26T12:49:05.582Z</time></trkpt><trkpt lat="45.9701619" lon="11.5728153"><ele>1481.0</ele><time>2026-04-26T12:49:06.6Z</time></trkpt><trkpt lat="45.9701303" lon="11.5726756"><ele>1483.1999999999998</ele><time>2026-04-26T12:49:07.592Z</time></trkpt><trkpt lat="45.9701025" lon="11.5725427"><ele>1485.3999999999999</ele><time>2026-04-26T12:49:08.581Z</time></trkpt><trkpt lat="45.9700746" lon="11.572395"><ele>1487.6</ele><time>2026-04-26T12:49:09.589Z</time></trkpt><trkpt lat="45.9700376" lon="11.5722538"><ele>1489.8</ele><time>2026-04-26T12:49:10.587Z</time></trkpt><trkpt lat="45.9699995" lon="11.5721113"><ele>1492.0</ele><time>2026-04-26T12:49:11.609Z</time></trkpt><trkpt lat="45.969977" lon="11.5719691"><ele>1487.6666666666665</ele><time>2026-04-26T12:49:12.593Z</time></trkpt><trkpt lat="45.9699481" lon="11.5718274"><ele>1483.3333333333333</ele><time>2026-04-26T12:49:13.585Z</time></trkpt><trkpt lat="45.9699093" lon="11.5717169"><ele>1479.0</ele><time>2026-04-26T12:49:14.575Z</time></trkpt><trkpt lat="45.9698685" lon="11.5716156"><ele>1474.6666666666667</ele><time>2026-04-26T12:49:15.577Z</time></trkpt><trkpt lat="45.9698218" lon="11.5715239"><ele>1470.3333333333335</ele><time>2026-04-26T12:49:16.578Z</time></trkpt><trkpt lat="45.9697635" lon="11.5714306"><ele>1466.0</ele><time>2026-04-26T12:49:17.592Z</time></trkpt><trkpt lat="45.9696989" lon="11.5713657"><ele>1466.0</ele><time>2026-04-26T12:49:18.595Z</time></trkpt><trkpt lat="45.9696168" lon="11.5713251"><ele>1466.0</ele><time>2026-04-26T12:49:19.594Z</time></trkpt><trkpt lat="45.9695197" lon="11.5713098"><ele>1466.0</ele><time>2026-04-26T12:49:20.596Z</time></trkpt><trkpt lat="45.9694272" lon="11.5713062"><ele>1466.0</ele><time>2026-04-26T12:49:21.586Z</time></trkpt><trkpt lat="45.9693516" lon="11.5712715"><ele>1466.0</ele><time>2026-04-26T12:49:22.592Z</time></trkpt><trkpt lat="45.9692963" lon="11.5712219"><ele>1466.0</ele><time>2026-04-26T12:49:23.596Z</time></trkpt><trkpt lat="45.969261" lon="11.5710535"><ele>1467.8333333333335</ele><time>2026-04-26T12:49:25.599Z</time></trkpt><trkpt lat="45.9692683" lon="11.5709635"><ele>1469.6666666666667</ele><time>2026-04-26T12:49:26.587Z</time></trkpt><trkpt lat="45.969277" lon="11.570862"><ele>1471.5</ele><time>2026-04-26T12:49:27.585Z</time></trkpt><trkpt lat="45.9692775" lon="11.570761"><ele>1473.3333333333333</ele><time>2026-04-26T12:49:28.587Z</time></trkpt><trkpt lat="45.9692625" lon="11.5706558"><ele>1475.1666666666665</ele><time>2026-04-26T12:49:29.603Z</time></trkpt><trkpt lat="45.9692397" lon="11.5705409"><ele>1477.0</ele><time>2026-04-26T12:49:30.584Z</time></trkpt><trkpt lat="45.9691967" lon="11.5704174"><ele>1476.8</ele><time>2026-04-26T12:49:31.604Z</time></trkpt><trkpt lat="45.9691408" lon="11.5702947"><ele>1476.6</ele><time>2026-04-26T12:49:32.604Z</time></trkpt><trkpt lat="45.9690803" lon="11.5701645"><ele>1476.3999999999999</ele><time>2026-04-26T12:49:33.584Z</time></trkpt><trkpt lat="45.9690217" lon="11.5700299"><ele>1476.1999999999998</ele><time>2026-04-26T12:49:34.606Z</time></trkpt><trkpt lat="45.9689579" lon="11.569888"><ele>1476.0</ele><time>2026-04-26T12:49:35.584Z</time></trkpt><trkpt lat="45.9688902" lon="11.5697492"><ele>1476.0</ele><time>2026-04-26T12:49:36.592Z</time></trkpt><trkpt lat="45.9688214" lon="11.5696269"><ele>1476.0</ele><time>2026-04-26T12:49:37.594Z</time></trkpt><trkpt lat="45.9687636" lon="11.5695332"><ele>1476.0</ele><time>2026-04-26T12:49:38.59Z</time></trkpt><trkpt lat="45.9686788" lon="11.5694835"><ele>1476.0</ele><time>2026-04-26T12:49:39.587Z</time></trkpt><trkpt lat="45.9685891" lon="11.5694857"><ele>1476.0</ele><time>2026-04-26T12:49:40.585Z</time></trkpt><trkpt lat="45.9684931" lon="11.5694897"><ele>1478.1999999999998</ele><time>2026-04-26T12:49:41.591Z</time></trkpt><trkpt lat="45.9684001" lon="11.5694964"><ele>1480.3999999999999</ele><time>2026-04-26T12:49:42.589Z</time></trkpt><trkpt lat="45.9683085" lon="11.569476"><ele>1482.6</ele><time>2026-04-26T12:49:43.596Z</time></trkpt><trkpt lat="45.9682294" lon="11.5694192"><ele>1484.8</ele><time>2026-04-26T12:49:44.588Z</time></trkpt><trkpt lat="45.9681661" lon="11.5693297"><ele>1487.0</ele><time>2026-04-26T12:49:45.586Z</time></trkpt><trkpt lat="45.9681048" lon="11.5692283"><ele>1487.0</ele><time>2026-04-26T12:49:46.591Z</time></trkpt><trkpt lat="45.9680464" lon="11.569126"><ele>1487.0</ele><time>2026-04-26T12:49:47.603Z</time></trkpt><trkpt lat="45.9679892" lon="11.5690402"><ele>1487.0</ele><time>2026-04-26T12:49:48.582Z</time></trkpt><trkpt lat="45.9679283" lon="11.5689912"><ele>1487.0</ele><time>2026-04-26T12:49:49.59Z</time></trkpt><trkpt lat="45.9678524" lon="11.5689735"><ele>1487.0</ele><time>2026-04-26T12:49:50.596Z</time></trkpt><trkpt lat="45.9677613" lon="11.5689836"><ele>1487.0</ele><time>2026-04-26T12:49:51.584Z</time></trkpt><trkpt lat="45.9676684" lon="11.5689986"><ele>1487.0</ele><time>2026-04-26T12:49:52.578Z</time></trkpt><trkpt lat="45.9675745" lon="11.5690294"><ele>1487.0</ele><time>2026-04-26T12:49:53.595Z</time></trkpt><trkpt lat="45.9674831" lon="11.5690712"><ele>1487.0</ele><time>2026-04-26T12:49:54.587Z</time></trkpt><trkpt lat="45.9673946" lon="11.5691061"><ele>1487.0</ele><time>2026-04-26T12:49:55.602Z</time></trkpt><trkpt lat="45.9673174" lon="11.5691275"><ele>1487.0</ele><time>2026-04-26T12:49:56.574Z</time></trkpt><trkpt lat="45.9672479" lon="11.5691237"><ele>1487.0</ele><time>2026-04-26T12:49:57.582Z</time></trkpt><trkpt lat="45.9671811" lon="11.5690958"><ele>1485.8333333333335</ele><time>2026-04-26T12:49:58.588Z</time></trkpt><trkpt lat="45.967128" lon="11.5690375"><ele>1484.6666666666667</ele><time>2026-04-26T12:49:59.594Z</time></trkpt><trkpt lat="45.9670538" lon="11.5689323"><ele>1483.5</ele><time>2026-04-26T12:50:01.593Z</time></trkpt><trkpt lat="45.9669898" lon="11.568865"><ele>1482.3333333333333</ele><time>2026-04-26T12:50:04.6Z</time></trkpt><trkpt lat="45.9669497" lon="11.5687916"><ele>1481.1666666666665</ele><time>2026-04-26T12:50:14.582Z</time></trkpt><trkpt lat="45.9669095" lon="11.5686861"><ele>1480.0</ele><time>2026-04-26T12:50:24.579Z</time></trkpt><trkpt lat="45.9668676" lon="11.5685097"><ele>1482.3333333333333</ele><time>2026-04-26T12:50:26.58Z</time></trkpt><trkpt lat="45.9668365" lon="11.5684003"><ele>1484.6666666666665</ele><time>2026-04-26T12:50:27.589Z</time></trkpt><trkpt lat="45.9667959" lon="11.56827"><ele>1487.0</ele><time>2026-04-26T12:50:28.599Z</time></trkpt><trkpt lat="45.9667635" lon="11.5681606"><ele>1489.3333333333333</ele><time>2026-04-26T12:50:29.595Z</time></trkpt><trkpt lat="45.9667347" lon="11.5680516"><ele>1491.6666666666667</ele><time>2026-04-26T12:50:30.583Z</time></trkpt><trkpt lat="45.966702" lon="11.5679444"><ele>1494.0</ele><time>2026-04-26T12:50:31.597Z</time></trkpt><trkpt lat="45.9666807" lon="11.5678218"><ele>1494.0</ele><time>2026-04-26T12:50:32.591Z</time></trkpt><trkpt lat="45.9666648" lon="11.5676837"><ele>1494.0</ele><time>2026-04-26T12:50:33.589Z</time></trkpt><trkpt lat="45.96666" lon="11.5675109"><ele>1494.0</ele><time>2026-04-26T12:50:34.595Z</time></trkpt><trkpt lat="45.966659" lon="11.5673461"><ele>1494.0</ele><time>2026-04-26T12:50:35.584Z</time></trkpt><trkpt lat="45.9666648" lon="11.5671796"><ele>1494.0</ele><time>2026-04-26T12:50:36.581Z</time></trkpt><trkpt lat="45.9666656" lon="11.5670189"><ele>1496.0</ele><time>2026-04-26T12:50:37.604Z</time></trkpt><trkpt lat="45.9666553" lon="11.566881"><ele>1498.0</ele><time>2026-04-26T12:50:38.601Z</time></trkpt><trkpt lat="45.9666295" lon="11.5667468"><ele>1500.0</ele><time>2026-04-26T12:50:39.587Z</time></trkpt><trkpt lat="45.9665927" lon="11.5666228"><ele>1502.0</ele><time>2026-04-26T12:50:40.589Z</time></trkpt><trkpt lat="45.9665513" lon="11.5665091"><ele>1504.0</ele><time>2026-04-26T12:50:41.597Z</time></trkpt><trkpt lat="45.9665122" lon="11.5664134"><ele>1504.0</ele><time>2026-04-26T12:50:42.586Z</time></trkpt><trkpt lat="45.9664675" lon="11.5663329"><ele>1504.0</ele><time>2026-04-26T12:50:43.591Z</time></trkpt><trkpt lat="45.9664141" lon="11.5662846"><ele>1504.0</ele><time>2026-04-26T12:50:44.579Z</time></trkpt><trkpt lat="45.9663332" lon="11.566207"><ele>1504.0</ele><time>2026-04-26T12:50:46.583Z</time></trkpt><trkpt lat="45.9662754" lon="11.5661404"><ele>1504.0</ele><time>2026-04-26T12:50:48.588Z</time></trkpt><trkpt lat="45.9662204" lon="11.5660784"><ele>1504.0</ele><time>2026-04-26T12:50:50.595Z</time></trkpt><trkpt lat="45.9661571" lon="11.5659892"><ele>1505.6666666666665</ele><time>2026-04-26T12:50:52.595Z</time></trkpt><trkpt lat="45.9660856" lon="11.5658911"><ele>1507.3333333333333</ele><time>2026-04-26T12:50:54.61Z</time></trkpt><trkpt lat="45.9660314" lon="11.5657528"><ele>1509.0</ele><time>2026-04-26T12:50:56.586Z</time></trkpt><trkpt lat="45.9660125" lon="11.5656622"><ele>1510.6666666666667</ele><time>2026-04-26T12:50:57.585Z</time></trkpt><trkpt lat="45.9660057" lon="11.5655564"><ele>1512.3333333333335</ele><time>2026-04-26T12:50:58.586Z</time></trkpt><trkpt lat="45.9660043" lon="11.5654556"><ele>1514.0</ele><time>2026-04-26T12:50:59.593Z</time></trkpt><trkpt lat="45.9659855" lon="11.5653587"><ele>1513.2</ele><time>2026-04-26T12:51:00.594Z</time></trkpt><trkpt lat="45.9659144" lon="11.565237"><ele>1512.4</ele><time>2026-04-26T12:51:02.586Z</time></trkpt><trkpt lat="45.9657942" lon="11.5651738"><ele>1511.6</ele><time>2026-04-26T12:51:04.596Z</time></trkpt><trkpt lat="45.9657167" lon="11.5651637"><ele>1510.8</ele><time>2026-04-26T12:51:05.591Z</time></trkpt><trkpt lat="45.9656293" lon="11.5651463"><ele>1510.0</ele><time>2026-04-26T12:51:06.589Z</time></trkpt><trkpt lat="45.9655394" lon="11.5651241"><ele>1510.0</ele><time>2026-04-26T12:51:07.592Z</time></trkpt><trkpt lat="45.9654589" lon="11.5650783"><ele>1510.0</ele><time>2026-04-26T12:51:08.585Z</time></trkpt><trkpt lat="45.9653812" lon="11.5650145"><ele>1510.0</ele><time>2026-04-26T12:51:09.598Z</time></trkpt><trkpt lat="45.9653137" lon="11.5649184"><ele>1510.0</ele><time>2026-04-26T12:51:10.583Z</time></trkpt><trkpt lat="45.9652526" lon="11.5648011"><ele>1510.0</ele><time>2026-04-26T12:51:11.588Z</time></trkpt><trkpt lat="45.9651934" lon="11.5646846"><ele>1510.0</ele><time>2026-04-26T12:51:12.589Z</time></trkpt><trkpt lat="45.9651407" lon="11.564549"><ele>1510.0</ele><time>2026-04-26T12:51:13.577Z</time></trkpt><trkpt lat="45.9650969" lon="11.5643832"><ele>1510.0</ele><time>2026-04-26T12:51:14.598Z</time></trkpt><trkpt lat="45.9650464" lon="11.5642241"><ele>1510.0</ele><time>2026-04-26T12:51:15.587Z</time></trkpt><trkpt lat="45.9649748" lon="11.5640731"><ele>1509.3333333333333</ele><time>2026-04-26T12:51:16.585Z</time></trkpt><trkpt lat="45.964901" lon="11.5639593"><ele>1508.6666666666665</ele><time>2026-04-26T12:51:17.581Z</time></trkpt><trkpt lat="45.9648278" lon="11.563863"><ele>1508.0</ele><time>2026-04-26T12:51:18.583Z</time></trkpt><trkpt lat="45.9647669" lon="11.5638138"><ele>1507.3333333333333</ele><time>2026-04-26T12:51:19.591Z</time></trkpt><trkpt lat="45.9647033" lon="11.5637258"><ele>1506.6666666666667</ele><time>2026-04-26T12:51:21.588Z</time></trkpt><trkpt lat="45.9647221" lon="11.5636172"><ele>1506.0</ele><time>2026-04-26T12:51:23.593Z</time></trkpt><trkpt lat="45.9647987" lon="11.563662"><ele>1506.0</ele><time>2026-04-26T12:51:25.59Z</time></trkpt><trkpt lat="45.9649051" lon="11.5637902"><ele>1506.0</ele><time>2026-04-26T12:51:27.592Z</time></trkpt><trkpt lat="45.9649833" lon="11.5638696"><ele>1506.0</ele><time>2026-04-26T12:51:28.607Z</time></trkpt><trkpt lat="45.965071" lon="11.5639459"><ele>1506.0</ele><time>2026-04-26T12:51:29.578Z</time></trkpt><trkpt lat="45.9651671" lon="11.5640187"><ele>1506.0</ele><time>2026-04-26T12:51:30.586Z</time></trkpt><trkpt lat="45.9652652" lon="11.5641044"><ele>1507.0</ele><time>2026-04-26T12:51:31.587Z</time></trkpt><trkpt lat="45.9653681" lon="11.5642044"><ele>1508.0</ele><time>2026-04-26T12:51:32.585Z</time></trkpt><trkpt lat="45.9654792" lon="11.5643218"><ele>1509.0</ele><time>2026-04-26T12:51:33.584Z</time></trkpt><trkpt lat="45.9655802" lon="11.5644439"><ele>1510.0</ele><time>2026-04-26T12:51:34.593Z</time></trkpt><trkpt lat="45.9656606" lon="11.5645624"><ele>1510.0</ele><time>2026-04-26T12:51:35.585Z</time></trkpt><trkpt lat="45.9657351" lon="11.564667"><ele>1510.0</ele><time>2026-04-26T12:51:36.585Z</time></trkpt><trkpt lat="45.965824" lon="11.5647323"><ele>1510.0</ele><time>2026-04-26T12:51:37.584Z</time></trkpt><trkpt lat="45.9659241" lon="11.5647781"><ele>1510.0</ele><time>2026-04-26T12:51:38.594Z</time></trkpt><trkpt lat="45.9660223" lon="11.5648241"><ele>1510.0</ele><time>2026-04-26T12:51:39.584Z</time></trkpt><trkpt lat="45.9661218" lon="11.5648758"><ele>1514.75</ele><time>2026-04-26T12:51:40.586Z</time></trkpt><trkpt lat="45.9662303" lon="11.5649274"><ele>1519.5</ele><time>2026-04-26T12:51:41.586Z</time></trkpt><trkpt lat="45.9663428" lon="11.5649713"><ele>1524.25</ele><time>2026-04-26T12:51:42.58Z</time></trkpt><trkpt lat="45.9664622" lon="11.5650032"><ele>1529.0</ele><time>2026-04-26T12:51:43.595Z</time></trkpt><trkpt lat="45.9665743" lon="11.5650352"><ele>1529.0</ele><time>2026-04-26T12:51:44.601Z</time></trkpt><trkpt lat="45.9666645" lon="11.5650735"><ele>1529.0</ele><time>2026-04-26T12:51:45.588Z</time></trkpt><trkpt lat="45.9667485" lon="11.5651344"><ele>1529.0</ele><time>2026-04-26T12:51:46.604Z</time></trkpt><trkpt lat="45.9668136" lon="11.5652301"><ele>1529.0</ele><time>2026-04-26T12:51:47.597Z</time></trkpt><trkpt lat="45.966861" lon="11.5653402"><ele>1529.0</ele><time>2026-04-26T12:51:48.585Z</time></trkpt><trkpt lat="45.9668894" lon="11.5654498"><ele>1530.0</ele><time>2026-04-26T12:51:49.589Z</time></trkpt><trkpt lat="45.9669131" lon="11.5655691"><ele>1531.0</ele><time>2026-04-26T12:51:50.593Z</time></trkpt><trkpt lat="45.9669289" lon="11.5656917"><ele>1532.0</ele><time>2026-04-26T12:51:51.59Z</time></trkpt><trkpt lat="45.9669516" lon="11.5657923"><ele>1533.0</ele><time>2026-04-26T12:51:52.593Z</time></trkpt><trkpt lat="45.9670308" lon="11.5659516"><ele>1534.0</ele><time>2026-04-26T12:51:54.6Z</time></trkpt><trkpt lat="45.9670882" lon="11.566026"><ele>1534.0</ele><time>2026-04-26T12:51:55.588Z</time></trkpt><trkpt lat="45.9671437" lon="11.5660912"><ele>1534.0</ele><time>2026-04-26T12:51:56.601Z</time></trkpt><trkpt lat="45.9672288" lon="11.5661822"><ele>1534.0</ele><time>2026-04-26T12:51:57.598Z</time></trkpt><trkpt lat="45.9673178" lon="11.5662833"><ele>1534.0</ele><time>2026-04-26T12:51:58.6Z</time></trkpt><trkpt lat="45.9673955" lon="11.5663811"><ele>1534.0</ele><time>2026-04-26T12:51:59.595Z</time></trkpt><trkpt lat="45.9674569" lon="11.5664681"><ele>1533.6</ele><time>2026-04-26T12:52:00.59Z</time></trkpt><trkpt lat="45.9675054" lon="11.5665323"><ele>1533.2</ele><time>2026-04-26T12:52:01.587Z</time></trkpt><trkpt lat="45.9676122" lon="11.5665371"><ele>1532.8</ele><time>2026-04-26T12:52:03.596Z</time></trkpt><trkpt lat="45.9677239" lon="11.5665235"><ele>1532.3999999999999</ele><time>2026-04-26T12:52:05.593Z</time></trkpt><trkpt lat="45.96773" lon="11.566413"><ele>1532.0</ele><time>2026-04-26T12:52:08.584Z</time></trkpt><trkpt lat="45.96762" lon="11.5664044"><ele>1532.3999999999999</ele><time>2026-04-26T12:52:10.593Z</time></trkpt><trkpt lat="45.967518" lon="11.5663786"><ele>1532.8</ele><time>2026-04-26T12:52:12.587Z</time></trkpt><trkpt lat="45.9674362" lon="11.5662584"><ele>1533.2</ele><time>2026-04-26T12:52:14.59Z</time></trkpt><trkpt lat="45.9673941" lon="11.5661861"><ele>1533.6</ele><time>2026-04-26T12:52:15.587Z</time></trkpt><trkpt lat="45.9673605" lon="11.5660786"><ele>1534.0</ele><time>2026-04-26T12:52:16.582Z</time></trkpt><trkpt lat="45.9673294" lon="11.5659522"><ele>1534.0</ele><time>2026-04-26T12:52:17.586Z</time></trkpt><trkpt lat="45.9673137" lon="11.5658141"><ele>1534.0</ele><time>2026-04-26T12:52:18.586Z</time></trkpt><trkpt lat="45.9673009" lon="11.5656639"><ele>1534.0</ele><time>2026-04-26T12:52:19.607Z</time></trkpt><trkpt lat="45.9672942" lon="11.5655284"><ele>1534.0</ele><time>2026-04-26T12:52:20.59Z</time></trkpt><trkpt lat="45.9672674" lon="11.5654108"><ele>1534.0</ele><time>2026-04-26T12:52:21.593Z</time></trkpt><trkpt lat="45.9672333" lon="11.5653126"><ele>1535.6666666666665</ele><time>2026-04-26T12:52:22.589Z</time></trkpt><trkpt lat="45.9671919" lon="11.565215"><ele>1537.3333333333333</ele><time>2026-04-26T12:52:23.597Z</time></trkpt><trkpt lat="45.9671407" lon="11.5651283"><ele>1539.0</ele><time>2026-04-26T12:52:24.604Z</time></trkpt><trkpt lat="45.9671049" lon="11.5650135"><ele>1540.6666666666665</ele><time>2026-04-26T12:52:26.597Z</time></trkpt><trkpt lat="45.9671687" lon="11.5649612"><ele>1542.3333333333333</ele><time>2026-04-26T12:52:28.564Z</time></trkpt><trkpt lat="45.9672325" lon="11.565056"><ele>1544.0</ele><time>2026-04-26T12:52:30.58Z</time></trkpt><trkpt lat="45.9672692" lon="11.5651416"><ele>1544.0</ele><time>2026-04-26T12:52:31.586Z</time></trkpt><trkpt lat="45.967311" lon="11.5652383"><ele>1544.0</ele><time>2026-04-26T12:52:32.6Z</time></trkpt><trkpt lat="45.9673671" lon="11.5653479"><ele>1544.0</ele><time>2026-04-26T12:52:33.587Z</time></trkpt><trkpt lat="45.9674119" lon="11.5654701"><ele>1544.0</ele><time>2026-04-26T12:52:34.584Z</time></trkpt><trkpt lat="45.9674483" lon="11.5655999"><ele>1544.0</ele><time>2026-04-26T12:52:35.582Z</time></trkpt><trkpt lat="45.9674775" lon="11.5657268"><ele>1543.8000000000002</ele><time>2026-04-26T12:52:36.59Z</time></trkpt><trkpt lat="45.9674956" lon="11.5658336"><ele>1543.6000000000001</ele><time>2026-04-26T12:52:37.582Z</time></trkpt><trkpt lat="45.9675331" lon="11.5659457"><ele>1543.4</ele><time>2026-04-26T12:52:39.599Z</time></trkpt><trkpt lat="45.9676253" lon="11.5659539"><ele>1543.2</ele><time>2026-04-26T12:52:42.589Z</time></trkpt><trkpt lat="45.9676963" lon="11.5658221"><ele>1543.0</ele><time>2026-04-26T12:52:44.584Z</time></trkpt><trkpt lat="45.9677976" lon="11.5656678"><ele>1543.0000000000002</ele><time>2026-04-26T12:52:46.59Z</time></trkpt><trkpt lat="45.9678646" lon="11.56559"><ele>1543.0</ele><time>2026-04-26T12:52:47.608Z</time></trkpt><trkpt lat="45.9679387" lon="11.5655303"><ele>1543.0</ele><time>2026-04-26T12:52:48.589Z</time></trkpt><trkpt lat="45.9680097" lon="11.5654699"><ele>1543.0</ele><time>2026-04-26T12:52:49.592Z</time></trkpt><trkpt lat="45.9680892" lon="11.5654245"><ele>1543.0000000000002</ele><time>2026-04-26T12:52:50.59Z</time></trkpt><trkpt lat="45.9681687" lon="11.5653994"><ele>1543.0</ele><time>2026-04-26T12:52:51.589Z</time></trkpt><trkpt lat="45.9682464" lon="11.5654012"><ele>1543.0000000000002</ele><time>2026-04-26T12:52:52.585Z</time></trkpt><trkpt lat="45.9683179" lon="11.5654275"><ele>1543.0</ele><time>2026-04-26T12:52:53.583Z</time></trkpt><trkpt lat="45.9683893" lon="11.5654779"><ele>1543.0</ele><time>2026-04-26T12:52:54.576Z</time></trkpt><trkpt lat="45.9684602" lon="11.5655309"><ele>1543.0</ele><time>2026-04-26T12:52:55.576Z</time></trkpt><trkpt lat="45.9685265" lon="11.5655805"><ele>1543.0000000000002</ele><time>2026-04-26T12:52:56.584Z</time></trkpt><trkpt lat="45.9686169" lon="11.5655912"><ele>1543.0</ele><time>2026-04-26T12:52:58.593Z</time></trkpt><trkpt lat="45.9686641" lon="11.5655289"><ele>1543.6000000000001</ele><time>2026-04-26T12:53:01.596Z</time></trkpt><trkpt lat="45.9687576" lon="11.5654989"><ele>1544.2</ele><time>2026-04-26T12:53:28.587Z</time></trkpt><trkpt lat="45.9688905" lon="11.5654472"><ele>1544.8</ele><time>2026-04-26T12:53:30.589Z</time></trkpt><trkpt lat="45.9689678" lon="11.5654135"><ele>1545.4</ele><time>2026-04-26T12:53:31.595Z</time></trkpt><trkpt lat="45.9690454" lon="11.5653795"><ele>1546.0</ele><time>2026-04-26T12:53:32.597Z</time></trkpt><trkpt lat="45.9691144" lon="11.5653406"><ele>1545.5000000000002</ele><time>2026-04-26T12:53:33.588Z</time></trkpt><trkpt lat="45.9692029" lon="11.5652769"><ele>1545.0</ele><time>2026-04-26T12:53:35.603Z</time></trkpt><trkpt lat="45.969268" lon="11.5652171"><ele>1544.5</ele><time>2026-04-26T12:53:38.59Z</time></trkpt><trkpt lat="45.9693264" lon="11.5651137"><ele>1544.0</ele><time>2026-04-26T12:53:41.589Z</time></trkpt><trkpt lat="45.969364" lon="11.5650244"><ele>1543.5000000000002</ele><time>2026-04-26T12:53:43.589Z</time></trkpt><trkpt lat="45.9694051" lon="11.5649206"><ele>1543.0</ele><time>2026-04-26T12:53:45.588Z</time></trkpt><trkpt lat="45.9694488" lon="11.5648407"><ele>1543.0</ele><time>2026-04-26T12:53:47.585Z</time></trkpt><trkpt lat="45.9694962" lon="11.5647598"><ele>1543.0</ele><time>2026-04-26T12:53:49.586Z</time></trkpt><trkpt lat="45.9695592" lon="11.5646648"><ele>1543.0</ele><time>2026-04-26T12:53:51.595Z</time></trkpt><trkpt lat="45.9696255" lon="11.5645485"><ele>1543.0</ele><time>2026-04-26T12:53:53.614Z</time></trkpt><trkpt lat="45.9696959" lon="11.5644483"><ele>1543.0</ele><time>2026-04-26T12:53:55.598Z</time></trkpt><trkpt lat="45.9697735" lon="11.5643519"><ele>1543.0000000000002</ele><time>2026-04-26T12:53:57.587Z</time></trkpt><trkpt lat="45.9698287" lon="11.5642862"><ele>1543.0</ele><time>2026-04-26T12:53:59.586Z</time></trkpt><trkpt lat="45.9697583" lon="11.5643971"><ele>1543.0</ele><time>2026-04-26T12:55:49.598Z</time></trkpt><trkpt lat="45.9697142" lon="11.5644861"><ele>1543.0</ele><time>2026-04-26T12:55:50.588Z</time></trkpt><trkpt lat="45.9696754" lon="11.5645618"><ele>1543.0000000000002</ele><time>2026-04-26T12:55:51.598Z</time></trkpt><trkpt lat="45.9696057" lon="11.5646739"><ele>1543.0</ele><time>2026-04-26T12:55:53.603Z</time></trkpt><trkpt lat="45.969537" lon="11.5647992"><ele>1543.0</ele><time>2026-04-26T12:55:55.594Z</time></trkpt><trkpt lat="45.9694679" lon="11.5649034"><ele>1543.0</ele><time>2026-04-26T12:55:57.618Z</time></trkpt><trkpt lat="45.9694179" lon="11.5649918"><ele>1543.0</ele><time>2026-04-26T12:55:59.591Z</time></trkpt><trkpt lat="45.9693565" lon="11.5650817"><ele>1543.0</ele><time>2026-04-26T12:56:01.588Z</time></trkpt><trkpt lat="45.9693017" lon="11.5652036"><ele>1543.0</ele><time>2026-04-26T12:56:03.584Z</time></trkpt><trkpt lat="45.9692096" lon="11.5653081"><ele>1543.5000000000002</ele><time>2026-04-26T12:56:05.592Z</time></trkpt><trkpt lat="45.9691482" lon="11.5653419"><ele>1544.0</ele><time>2026-04-26T12:56:06.594Z</time></trkpt><trkpt lat="45.969082" lon="11.5653719"><ele>1544.5</ele><time>2026-04-26T12:56:07.59Z</time></trkpt><trkpt lat="45.9690097" lon="11.5654025"><ele>1545.0</ele><time>2026-04-26T12:56:08.597Z</time></trkpt><trkpt lat="45.9689326" lon="11.5654393"><ele>1545.5000000000002</ele><time>2026-04-26T12:56:09.583Z</time></trkpt><trkpt lat="45.9688566" lon="11.565464"><ele>1546.0</ele><time>2026-04-26T12:56:10.582Z</time></trkpt><trkpt lat="45.9687535" lon="11.5654876"><ele>1546.0000000000002</ele><time>2026-04-26T12:56:12.589Z</time></trkpt><trkpt lat="45.9686825" lon="11.565488"><ele>1546.0</ele><time>2026-04-26T12:56:14.592Z</time></trkpt><trkpt lat="45.968615" lon="11.5654419"><ele>1546.0</ele><time>2026-04-26T12:56:16.592Z</time></trkpt><trkpt lat="45.9685623" lon="11.5653542"><ele>1546.0</ele><time>2026-04-26T12:56:19.592Z</time></trkpt><trkpt lat="45.9685396" lon="11.5652445"><ele>1546.0000000000002</ele><time>2026-04-26T12:56:29.587Z</time></trkpt><trkpt lat="45.9684724" lon="11.5651431"><ele>1546.0</ele><time>2026-04-26T12:56:31.608Z</time></trkpt><trkpt lat="45.9684286" lon="11.5650715"><ele>1546.6666666666667</ele><time>2026-04-26T12:56:32.586Z</time></trkpt><trkpt lat="45.968372" lon="11.5650079"><ele>1547.3333333333335</ele><time>2026-04-26T12:56:33.589Z</time></trkpt><trkpt lat="45.9683075" lon="11.56495"><ele>1548.0</ele><time>2026-04-26T12:56:34.603Z</time></trkpt><trkpt lat="45.9682372" lon="11.564911"><ele>1548.6666666666665</ele><time>2026-04-26T12:56:35.597Z</time></trkpt><trkpt lat="45.9681644" lon="11.5648832"><ele>1549.3333333333333</ele><time>2026-04-26T12:56:36.585Z</time></trkpt><trkpt lat="45.9680861" lon="11.5648592"><ele>1550.0</ele><time>2026-04-26T12:56:37.594Z</time></trkpt><trkpt lat="45.9680086" lon="11.5648366"><ele>1550.1666666666665</ele><time>2026-04-26T12:56:38.592Z</time></trkpt><trkpt lat="45.9679468" lon="11.564797"><ele>1550.3333333333333</ele><time>2026-04-26T12:56:39.596Z</time></trkpt><trkpt lat="45.9678843" lon="11.564733"><ele>1550.5</ele><time>2026-04-26T12:56:40.584Z</time></trkpt><trkpt lat="45.9678295" lon="11.5646512"><ele>1550.6666666666665</ele><time>2026-04-26T12:56:41.594Z</time></trkpt><trkpt lat="45.9677754" lon="11.5645551"><ele>1550.8333333333333</ele><time>2026-04-26T12:56:42.581Z</time></trkpt><trkpt lat="45.9677223" lon="11.564469"><ele>1551.0</ele><time>2026-04-26T12:56:43.586Z</time></trkpt><trkpt lat="45.9676717" lon="11.5643851"><ele>1551.0</ele><time>2026-04-26T12:56:44.584Z</time></trkpt><trkpt lat="45.9676232" lon="11.5643001"><ele>1551.0</ele><time>2026-04-26T12:56:45.594Z</time></trkpt><trkpt lat="45.9675707" lon="11.5642147"><ele>1551.0</ele><time>2026-04-26T12:56:46.586Z</time></trkpt><trkpt lat="45.9675227" lon="11.5641204"><ele>1551.0</ele><time>2026-04-26T12:56:47.587Z</time></trkpt><trkpt lat="45.9674734" lon="11.5640329"><ele>1551.0</ele><time>2026-04-26T12:56:48.582Z</time></trkpt><trkpt lat="45.9674183" lon="11.5639269"><ele>1551.0</ele><time>2026-04-26T12:56:49.588Z</time></trkpt><trkpt lat="45.9673593" lon="11.5638257"><ele>1551.0</ele><time>2026-04-26T12:56:50.581Z</time></trkpt><trkpt lat="45.967302" lon="11.563727"><ele>1551.0</ele><time>2026-04-26T12:56:51.586Z</time></trkpt><trkpt lat="45.9672424" lon="11.5636239"><ele>1551.0</ele><time>2026-04-26T12:56:52.591Z</time></trkpt><trkpt lat="45.9671827" lon="11.5635232"><ele>1551.0</ele><time>2026-04-26T12:56:53.583Z</time></trkpt><trkpt lat="45.9671274" lon="11.5634286"><ele>1551.0</ele><time>2026-04-26T12:56:54.583Z</time></trkpt><trkpt lat="45.9670785" lon="11.563352"><ele>1551.0</ele><time>2026-04-26T12:56:55.579Z</time></trkpt><trkpt lat="45.9670281" lon="11.5632818"><ele>1551.4</ele><time>2026-04-26T12:56:56.586Z</time></trkpt><trkpt lat="45.9669806" lon="11.5632096"><ele>1551.8</ele><time>2026-04-26T12:56:57.585Z</time></trkpt><trkpt lat="45.9668932" lon="11.5630948"><ele>1552.2</ele><time>2026-04-26T12:56:59.583Z</time></trkpt><trkpt lat="45.9668164" lon="11.5629988"><ele>1552.6000000000001</ele><time>2026-04-26T12:57:01.594Z</time></trkpt><trkpt lat="45.9667429" lon="11.5629136"><ele>1553.0</ele><time>2026-04-26T12:57:03.574Z</time></trkpt><trkpt lat="45.9666835" lon="11.5628711"><ele>1554.3333333333333</ele><time>2026-04-26T12:57:05.593Z</time></trkpt><trkpt lat="45.966625" lon="11.5628321"><ele>1555.6666666666665</ele><time>2026-04-26T12:57:08.586Z</time></trkpt><trkpt lat="45.9665423" lon="11.5627819"><ele>1557.0</ele><time>2026-04-26T12:57:11.59Z</time></trkpt><trkpt lat="45.9664686" lon="11.5627307"><ele>1558.3333333333335</ele><time>2026-04-26T12:57:13.594Z</time></trkpt><trkpt lat="45.9663762" lon="11.5626836"><ele>1559.6666666666667</ele><time>2026-04-26T12:57:15.587Z</time></trkpt><trkpt lat="45.9662931" lon="11.5626195"><ele>1561.0</ele><time>2026-04-26T12:57:17.585Z</time></trkpt><trkpt lat="45.9662166" lon="11.5625354"><ele>1561.0</ele><time>2026-04-26T12:57:19.593Z</time></trkpt><trkpt lat="45.9661139" lon="11.5624356"><ele>1561.0</ele><time>2026-04-26T12:57:21.588Z</time></trkpt><trkpt lat="45.9660565" lon="11.5623696"><ele>1561.0</ele><time>2026-04-26T12:57:22.586Z</time></trkpt><trkpt lat="45.9660095" lon="11.5622988"><ele>1561.0</ele><time>2026-04-26T12:57:23.58Z</time></trkpt><trkpt lat="45.9659354" lon="11.5621728"><ele>1561.0</ele><time>2026-04-26T12:57:25.593Z</time></trkpt><trkpt lat="45.9658634" lon="11.5620661"><ele>1560.5000000000002</ele><time>2026-04-26T12:57:27.595Z</time></trkpt><trkpt lat="45.9657977" lon="11.5619617"><ele>1560.0</ele><time>2026-04-26T12:57:29.593Z</time></trkpt><trkpt lat="45.9657568" lon="11.5618857"><ele>1559.5</ele><time>2026-04-26T12:57:31.595Z</time></trkpt><trkpt lat="45.965719" lon="11.5617941"><ele>1559.0</ele><time>2026-04-26T12:57:51.595Z</time></trkpt><trkpt lat="45.9656805" lon="11.5617179"><ele>1558.5000000000002</ele><time>2026-04-26T12:57:54.606Z</time></trkpt><trkpt lat="45.9656635" lon="11.5615971"><ele>1558.0</ele><time>2026-04-26T12:57:56.58Z</time></trkpt><trkpt lat="45.9656422" lon="11.5615083"><ele>1558.0000000000002</ele><time>2026-04-26T12:57:58.589Z</time></trkpt><trkpt lat="45.9656104" lon="11.5613906"><ele>1558.0</ele><time>2026-04-26T12:58:01.593Z</time></trkpt><trkpt lat="45.9655682" lon="11.5612966"><ele>1558.0</ele><time>2026-04-26T12:58:03.602Z</time></trkpt><trkpt lat="45.9655284" lon="11.5611905"><ele>1558.0</ele><time>2026-04-26T12:58:05.594Z</time></trkpt><trkpt lat="45.9654965" lon="11.561076"><ele>1558.0000000000002</ele><time>2026-04-26T12:58:07.593Z</time></trkpt><trkpt lat="45.9654488" lon="11.5609372"><ele>1558.0</ele><time>2026-04-26T12:58:09.58Z</time></trkpt><trkpt lat="45.9654221" lon="11.5608398"><ele>1558.0</ele><time>2026-04-26T12:58:10.596Z</time></trkpt><trkpt lat="45.9653981" lon="11.5607193"><ele>1558.0</ele><time>2026-04-26T12:58:11.598Z</time></trkpt><trkpt lat="45.9653844" lon="11.5605732"><ele>1558.0</ele><time>2026-04-26T12:58:12.6Z</time></trkpt><trkpt lat="45.965379" lon="11.5604095"><ele>1558.0</ele><time>2026-04-26T12:58:13.587Z</time></trkpt><trkpt lat="45.9653687" lon="11.5602659"><ele>1558.0</ele><time>2026-04-26T12:58:14.584Z</time></trkpt><trkpt lat="45.9653603" lon="11.5601604"><ele>1558.6666666666667</ele><time>2026-04-26T12:58:15.592Z</time></trkpt><trkpt lat="45.9653473" lon="11.5600621"><ele>1559.3333333333335</ele><time>2026-04-26T12:58:16.584Z</time></trkpt><trkpt lat="45.9653321" lon="11.5599518"><ele>1560.0</ele><time>2026-04-26T12:58:17.59Z</time></trkpt><trkpt lat="45.9653238" lon="11.5598322"><ele>1560.6666666666665</ele><time>2026-04-26T12:58:18.577Z</time></trkpt><trkpt lat="45.9653174" lon="11.5597086"><ele>1561.3333333333333</ele><time>2026-04-26T12:58:19.583Z</time></trkpt><trkpt lat="45.9653007" lon="11.5595852"><ele>1562.0</ele><time>2026-04-26T12:58:20.588Z</time></trkpt><trkpt lat="45.9652846" lon="11.559468"><ele>1562.3333333333333</ele><time>2026-04-26T12:58:21.574Z</time></trkpt><trkpt lat="45.9652759" lon="11.5593476"><ele>1562.6666666666665</ele><time>2026-04-26T12:58:22.602Z</time></trkpt><trkpt lat="45.9652754" lon="11.5592195"><ele>1563.0</ele><time>2026-04-26T12:58:23.588Z</time></trkpt><trkpt lat="45.9652767" lon="11.559093"><ele>1563.3333333333335</ele><time>2026-04-26T12:58:24.591Z</time></trkpt><trkpt lat="45.9652919" lon="11.5589653"><ele>1563.6666666666667</ele><time>2026-04-26T12:58:25.587Z</time></trkpt><trkpt lat="45.9653062" lon="11.5588574"><ele>1564.0</ele><time>2026-04-26T12:58:26.583Z</time></trkpt><trkpt lat="45.9653279" lon="11.5587425"><ele>1563.4</ele><time>2026-04-26T12:58:27.596Z</time></trkpt><trkpt lat="45.965361" lon="11.5586208"><ele>1562.8000000000002</ele><time>2026-04-26T12:58:28.601Z</time></trkpt><trkpt lat="45.9654026" lon="11.558501"><ele>1562.1999999999998</ele><time>2026-04-26T12:58:29.586Z</time></trkpt><trkpt lat="45.9654498" lon="11.5583706"><ele>1561.6</ele><time>2026-04-26T12:58:30.588Z</time></trkpt><trkpt lat="45.9655046" lon="11.5582343"><ele>1561.0</ele><time>2026-04-26T12:58:31.591Z</time></trkpt><trkpt lat="45.9655578" lon="11.5581002"><ele>1561.0000000000002</ele><time>2026-04-26T12:58:32.586Z</time></trkpt><trkpt lat="45.9656105" lon="11.5579728"><ele>1561.0</ele><time>2026-04-26T12:58:33.583Z</time></trkpt><trkpt lat="45.9656574" lon="11.5578677"><ele>1561.0</ele><time>2026-04-26T12:58:34.592Z</time></trkpt><trkpt lat="45.9657322" lon="11.5577623"><ele>1561.0</ele><time>2026-04-26T12:58:36.593Z</time></trkpt><trkpt lat="45.9657884" lon="11.5577162"><ele>1561.0000000000002</ele><time>2026-04-26T12:58:39.591Z</time></trkpt><trkpt lat="45.9658508" lon="11.5576506"><ele>1561.0</ele><time>2026-04-26T12:58:43.597Z</time></trkpt><trkpt lat="45.9659389" lon="11.5575613"><ele>1560.6</ele><time>2026-04-26T12:58:45.589Z</time></trkpt><trkpt lat="45.9660184" lon="11.55746"><ele>1560.1999999999998</ele><time>2026-04-26T12:58:47.589Z</time></trkpt><trkpt lat="45.9660837" lon="11.557319"><ele>1559.8000000000002</ele><time>2026-04-26T12:58:49.594Z</time></trkpt><trkpt lat="45.9661057" lon="11.5572324"><ele>1559.4</ele><time>2026-04-26T12:58:50.579Z</time></trkpt><trkpt lat="45.966131" lon="11.5570684"><ele>1559.0</ele><time>2026-04-26T12:58:52.582Z</time></trkpt><trkpt lat="45.9660863" lon="11.5569295"><ele>1558.8333333333333</ele><time>2026-04-26T12:58:54.586Z</time></trkpt><trkpt lat="45.966044" lon="11.5568535"><ele>1558.6666666666665</ele><time>2026-04-26T12:58:55.588Z</time></trkpt><trkpt lat="45.9659874" lon="11.5567846"><ele>1558.5</ele><time>2026-04-26T12:58:56.582Z</time></trkpt><trkpt lat="45.9659288" lon="11.5567088"><ele>1558.3333333333335</ele><time>2026-04-26T12:58:57.586Z</time></trkpt><trkpt lat="45.9658616" lon="11.5566295"><ele>1558.1666666666667</ele><time>2026-04-26T12:58:58.583Z</time></trkpt><trkpt lat="45.965792" lon="11.5565482"><ele>1558.0</ele><time>2026-04-26T12:58:59.595Z</time></trkpt><trkpt lat="45.965725" lon="11.5564659"><ele>1558.0000000000002</ele><time>2026-04-26T12:59:00.595Z</time></trkpt><trkpt lat="45.9656565" lon="11.5563838"><ele>1558.0</ele><time>2026-04-26T12:59:01.59Z</time></trkpt><trkpt lat="45.9655942" lon="11.5563077"><ele>1558.0</ele><time>2026-04-26T12:59:02.593Z</time></trkpt><trkpt lat="45.96553" lon="11.5562386"><ele>1558.0</ele><time>2026-04-26T12:59:03.597Z</time></trkpt><trkpt lat="45.965468" lon="11.5561581"><ele>1558.0000000000002</ele><time>2026-04-26T12:59:04.59Z</time></trkpt><trkpt lat="45.9654116" lon="11.5560536"><ele>1558.0</ele><time>2026-04-26T12:59:05.584Z</time></trkpt><trkpt lat="45.9653581" lon="11.5559511"><ele>1558.0</ele><time>2026-04-26T12:59:06.596Z</time></trkpt><trkpt lat="45.9653049" lon="11.5558408"><ele>1558.0</ele><time>2026-04-26T12:59:07.591Z</time></trkpt><trkpt lat="45.9652435" lon="11.5557433"><ele>1558.0</ele><time>2026-04-26T12:59:08.606Z</time></trkpt><trkpt lat="45.965183" lon="11.5556531"><ele>1558.0</ele><time>2026-04-26T12:59:09.585Z</time></trkpt><trkpt lat="45.9651191" lon="11.5555685"><ele>1558.0</ele><time>2026-04-26T12:59:10.592Z</time></trkpt><trkpt lat="45.9650446" lon="11.5554904"><ele>1557.3333333333335</ele><time>2026-04-26T12:59:11.582Z</time></trkpt><trkpt lat="45.9649655" lon="11.555426"><ele>1556.6666666666667</ele><time>2026-04-26T12:59:12.597Z</time></trkpt><trkpt lat="45.9648889" lon="11.5553858"><ele>1556.0</ele><time>2026-04-26T12:59:13.596Z</time></trkpt><trkpt lat="45.9648084" lon="11.5553665"><ele>1555.3333333333335</ele><time>2026-04-26T12:59:14.59Z</time></trkpt><trkpt lat="45.9647327" lon="11.5553316"><ele>1554.6666666666667</ele><time>2026-04-26T12:59:15.595Z</time></trkpt><trkpt lat="45.9646607" lon="11.5552929"><ele>1554.0</ele><time>2026-04-26T12:59:16.596Z</time></trkpt><trkpt lat="45.9645945" lon="11.5552244"><ele>1555.5</ele><time>2026-04-26T12:59:17.594Z</time></trkpt><trkpt lat="45.9645277" lon="11.555133"><ele>1557.0</ele><time>2026-04-26T12:59:18.582Z</time></trkpt><trkpt lat="45.9644586" lon="11.5550504"><ele>1558.5</ele><time>2026-04-26T12:59:19.583Z</time></trkpt><trkpt lat="45.9643864" lon="11.5550169"><ele>1560.0</ele><time>2026-04-26T12:59:20.582Z</time></trkpt><trkpt lat="45.9643078" lon="11.5550079"><ele>1561.5</ele><time>2026-04-26T12:59:21.6Z</time></trkpt><trkpt lat="45.9642383" lon="11.5550479"><ele>1563.0</ele><time>2026-04-26T12:59:22.58Z</time></trkpt><trkpt lat="45.9641614" lon="11.5551265"><ele>1563.8000000000002</ele><time>2026-04-26T12:59:23.593Z</time></trkpt><trkpt lat="45.9640896" lon="11.5552018"><ele>1564.6</ele><time>2026-04-26T12:59:24.583Z</time></trkpt><trkpt lat="45.9640069" lon="11.5552505"><ele>1565.4</ele><time>2026-04-26T12:59:25.583Z</time></trkpt><trkpt lat="45.9639111" lon="11.5552856"><ele>1566.1999999999998</ele><time>2026-04-26T12:59:26.601Z</time></trkpt><trkpt lat="45.9638037" lon="11.5552998"><ele>1567.0</ele><time>2026-04-26T12:59:27.58Z</time></trkpt><trkpt lat="45.9636983" lon="11.5553202"><ele>1567.0000000000002</ele><time>2026-04-26T12:59:28.592Z</time></trkpt><trkpt lat="45.9636122" lon="11.5553489"><ele>1567.0</ele><time>2026-04-26T12:59:29.592Z</time></trkpt><trkpt lat="45.9635347" lon="11.5553547"><ele>1567.0</ele><time>2026-04-26T12:59:30.575Z</time></trkpt><trkpt lat="45.9634733" lon="11.5553298"><ele>1567.0</ele><time>2026-04-26T12:59:31.591Z</time></trkpt><trkpt lat="45.9634051" lon="11.5552698"><ele>1567.0000000000002</ele><time>2026-04-26T12:59:32.596Z</time></trkpt><trkpt lat="45.9633403" lon="11.5551901"><ele>1567.0</ele><time>2026-04-26T12:59:33.595Z</time></trkpt><trkpt lat="45.9632638" lon="11.5551133"><ele>1567.3999999999999</ele><time>2026-04-26T12:59:34.599Z</time></trkpt><trkpt lat="45.9631764" lon="11.5550483"><ele>1567.8</ele><time>2026-04-26T12:59:35.6Z</time></trkpt><trkpt lat="45.9630925" lon="11.5549882"><ele>1568.2</ele><time>2026-04-26T12:59:36.593Z</time></trkpt><trkpt lat="45.9630215" lon="11.5549205"><ele>1568.6</ele><time>2026-04-26T12:59:37.594Z</time></trkpt><trkpt lat="45.9629621" lon="11.5548274"><ele>1569.0</ele><time>2026-04-26T12:59:38.588Z</time></trkpt><trkpt lat="45.9629065" lon="11.554713"><ele>1569.0</ele><time>2026-04-26T12:59:39.606Z</time></trkpt><trkpt lat="45.9628576" lon="11.5545932"><ele>1569.0</ele><time>2026-04-26T12:59:40.592Z</time></trkpt><trkpt lat="45.9628184" lon="11.5544649"><ele>1569.0</ele><time>2026-04-26T12:59:41.589Z</time></trkpt><trkpt lat="45.9627938" lon="11.5543484"><ele>1569.0</ele><time>2026-04-26T12:59:42.588Z</time></trkpt><trkpt lat="45.9627599" lon="11.5542562"><ele>1569.0</ele><time>2026-04-26T12:59:43.585Z</time></trkpt><trkpt lat="45.9627131" lon="11.5541879"><ele>1569.0</ele><time>2026-04-26T12:59:44.596Z</time></trkpt><trkpt lat="45.9626544" lon="11.5541483"><ele>1570.0</ele><time>2026-04-26T12:59:45.593Z</time></trkpt><trkpt lat="45.9625873" lon="11.5541421"><ele>1571.0</ele><time>2026-04-26T12:59:46.587Z</time></trkpt><trkpt lat="45.962511" lon="11.5541492"><ele>1572.0</ele><time>2026-04-26T12:59:47.579Z</time></trkpt><trkpt lat="45.9624266" lon="11.5541595"><ele>1573.0</ele><time>2026-04-26T12:59:48.583Z</time></trkpt><trkpt lat="45.9623455" lon="11.5541804"><ele>1574.0</ele><time>2026-04-26T12:59:49.581Z</time></trkpt><trkpt lat="45.962273" lon="11.554203"><ele>1575.0</ele><time>2026-04-26T12:59:50.585Z</time></trkpt><trkpt lat="45.9622007" lon="11.5542498"><ele>1575.0</ele><time>2026-04-26T12:59:51.585Z</time></trkpt><trkpt lat="45.9621308" lon="11.5542939"><ele>1575.0</ele><time>2026-04-26T12:59:52.594Z</time></trkpt><trkpt lat="45.9620213" lon="11.5543193"><ele>1575.0</ele><time>2026-04-26T12:59:54.572Z</time></trkpt><trkpt lat="45.9619145" lon="11.554322"><ele>1575.0</ele><time>2026-04-26T12:59:56.582Z</time></trkpt><trkpt lat="45.9618099" lon="11.5543344"><ele>1575.0</ele><time>2026-04-26T12:59:58.59Z</time></trkpt><trkpt lat="45.9617459" lon="11.5543586"><ele>1575.3333333333333</ele><time>2026-04-26T12:59:59.592Z</time></trkpt><trkpt lat="45.9616705" lon="11.5543757"><ele>1575.6666666666665</ele><time>2026-04-26T13:00:00.586Z</time></trkpt><trkpt lat="45.9615931" lon="11.5543756"><ele>1576.0</ele><time>2026-04-26T13:00:01.59Z</time></trkpt><trkpt lat="45.9615149" lon="11.5543695"><ele>1576.3333333333333</ele><time>2026-04-26T13:00:02.594Z</time></trkpt><trkpt lat="45.9614326" lon="11.5543762"><ele>1576.6666666666665</ele><time>2026-04-26T13:00:03.585Z</time></trkpt><trkpt lat="45.9613601" lon="11.5544063"><ele>1577.0</ele><time>2026-04-26T13:00:04.591Z</time></trkpt><trkpt lat="45.9612939" lon="11.5544403"><ele>1576.9999999999998</ele><time>2026-04-26T13:00:05.597Z</time></trkpt><trkpt lat="45.9611838" lon="11.5544791"><ele>1577.0</ele><time>2026-04-26T13:00:07.595Z</time></trkpt><trkpt lat="45.9610908" lon="11.5545227"><ele>1577.0</ele><time>2026-04-26T13:00:09.59Z</time></trkpt><trkpt lat="45.9610147" lon="11.5545839"><ele>1577.0</ele><time>2026-04-26T13:00:11.591Z</time></trkpt><trkpt lat="45.9609554" lon="11.5546269"><ele>1576.9999999999998</ele><time>2026-04-26T13:00:16.589Z</time></trkpt><trkpt lat="45.9608884" lon="11.5546409"><ele>1577.0</ele><time>2026-04-26T13:00:27.597Z</time></trkpt><trkpt lat="45.9608236" lon="11.5546458"><ele>1576.9999999999998</ele><time>2026-04-26T13:00:31.59Z</time></trkpt><trkpt lat="45.9608839" lon="11.5546903"><ele>1577.0</ele><time>2026-04-26T13:02:34.59Z</time></trkpt><trkpt lat="45.960827" lon="11.5546456"><ele>1577.0</ele><time>2026-04-26T13:02:45.584Z</time></trkpt><trkpt lat="45.9608721" lon="11.554577"><ele>1577.0</ele><time>2026-04-26T13:03:24.587Z</time></trkpt><trkpt lat="45.9609475" lon="11.5545228"><ele>1576.9999999999998</ele><time>2026-04-26T13:03:27.573Z</time></trkpt><trkpt lat="45.9610486" lon="11.5544801"><ele>1577.0</ele><time>2026-04-26T13:03:30.587Z</time></trkpt><trkpt lat="45.9611577" lon="11.5544418"><ele>1577.0</ele><time>2026-04-26T13:03:32.579Z</time></trkpt><trkpt lat="45.9612934" lon="11.5544089"><ele>1577.0</ele><time>2026-04-26T13:03:34.578Z</time></trkpt><trkpt lat="45.9613701" lon="11.5543957"><ele>1577.0</ele><time>2026-04-26T13:03:35.58Z</time></trkpt><trkpt lat="45.9614378" lon="11.5543815"><ele>1577.0</ele><time>2026-04-26T13:03:36.589Z</time></trkpt><trkpt lat="45.961537" lon="11.554367"><ele>1577.0</ele><time>2026-04-26T13:03:38.589Z</time></trkpt><trkpt lat="45.9616133" lon="11.5543646"><ele>1576.9999999999998</ele><time>2026-04-26T13:03:40.588Z</time></trkpt><trkpt lat="45.9616799" lon="11.554371"><ele>1577.0</ele><time>2026-04-26T13:03:42.574Z</time></trkpt><trkpt lat="45.96177" lon="11.554357"><ele>1577.0</ele><time>2026-04-26T13:03:45.582Z</time></trkpt><trkpt lat="45.9618374" lon="11.5543275"><ele>1577.0</ele><time>2026-04-26T13:03:48.588Z</time></trkpt><trkpt lat="45.961893" lon="11.5542809"><ele>1576.9999999999998</ele><time>2026-04-26T13:11:08.583Z</time></trkpt><trkpt lat="45.9618299" lon="11.5543479"><ele>1577.0</ele><time>2026-04-26T13:11:41.584Z</time></trkpt><trkpt lat="45.9617408" lon="11.5543943"><ele>1576.9999999999998</ele><time>2026-04-26T13:11:43.604Z</time></trkpt><trkpt lat="45.961638" lon="11.5544096"><ele>1577.0</ele><time>2026-04-26T13:11:45.586Z</time></trkpt><trkpt lat="45.9615677" lon="11.5544043"><ele>1577.0</ele><time>2026-04-26T13:11:46.594Z</time></trkpt><trkpt lat="45.9614918" lon="11.5544024"><ele>1577.0</ele><time>2026-04-26T13:11:47.592Z</time></trkpt><trkpt lat="45.9614087" lon="11.5544065"><ele>1576.9999999999998</ele><time>2026-04-26T13:11:48.584Z</time></trkpt><trkpt lat="45.9613357" lon="11.5544228"><ele>1577.0</ele><time>2026-04-26T13:11:49.59Z</time></trkpt><trkpt lat="45.9612296" lon="11.5544659"><ele>1576.9999999999998</ele><time>2026-04-26T13:11:51.589Z</time></trkpt><trkpt lat="45.9611483" lon="11.5545063"><ele>1577.0</ele><time>2026-04-26T13:11:53.597Z</time></trkpt><trkpt lat="45.9610867" lon="11.5545347"><ele>1577.0</ele><time>2026-04-26T13:11:55.601Z</time></trkpt><trkpt lat="45.9610213" lon="11.5545569"><ele>1577.0</ele><time>2026-04-26T13:11:58.577Z</time></trkpt><trkpt lat="45.9609504" lon="11.5545787"><ele>1576.9999999999998</ele><time>2026-04-26T13:12:02.584Z</time></trkpt><trkpt lat="45.9608635" lon="11.5546287"><ele>1577.0</ele><time>2026-04-26T13:12:05.585Z</time></trkpt><trkpt lat="45.9607925" lon="11.554666"><ele>1576.3333333333333</ele><time>2026-04-26T13:12:07.589Z</time></trkpt><trkpt lat="45.9607207" lon="11.5547185"><ele>1575.6666666666665</ele><time>2026-04-26T13:12:09.583Z</time></trkpt><trkpt lat="45.9606384" lon="11.5547704"><ele>1575.0</ele><time>2026-04-26T13:12:12.591Z</time></trkpt><trkpt lat="45.960564" lon="11.5547954"><ele>1574.3333333333335</ele><time>2026-04-26T13:12:15.595Z</time></trkpt><trkpt lat="45.9604905" lon="11.5548121"><ele>1573.6666666666667</ele><time>2026-04-26T13:12:18.589Z</time></trkpt><trkpt lat="45.9604167" lon="11.5548559"><ele>1573.0</ele><time>2026-04-26T13:12:21.592Z</time></trkpt><trkpt lat="45.960357" lon="11.5549278"><ele>1573.0000000000002</ele><time>2026-04-26T13:12:23.581Z</time></trkpt><trkpt lat="45.9602922" lon="11.555032"><ele>1573.0</ele><time>2026-04-26T13:12:25.592Z</time></trkpt><trkpt lat="45.9602408" lon="11.555089"><ele>1573.0</ele><time>2026-04-26T13:12:26.588Z</time></trkpt><trkpt lat="45.960182" lon="11.5551507"><ele>1573.0</ele><time>2026-04-26T13:12:27.579Z</time></trkpt><trkpt lat="45.9601226" lon="11.5551892"><ele>1573.0000000000002</ele><time>2026-04-26T13:12:28.59Z</time></trkpt><trkpt lat="45.9600452" lon="11.5552311"><ele>1573.0</ele><time>2026-04-26T13:12:29.583Z</time></trkpt><trkpt lat="45.95996" lon="11.555278"><ele>1572.5000000000002</ele><time>2026-04-26T13:12:30.585Z</time></trkpt><trkpt lat="45.9598703" lon="11.555322"><ele>1572.0</ele><time>2026-04-26T13:12:31.592Z</time></trkpt><trkpt lat="45.9597898" lon="11.5553668"><ele>1571.5</ele><time>2026-04-26T13:12:32.599Z</time></trkpt><trkpt lat="45.9597171" lon="11.5554045"><ele>1571.0</ele><time>2026-04-26T13:12:33.59Z</time></trkpt><trkpt lat="45.9596481" lon="11.5554358"><ele>1570.5000000000002</ele><time>2026-04-26T13:12:34.579Z</time></trkpt><trkpt lat="45.9595749" lon="11.5554654"><ele>1570.0</ele><time>2026-04-26T13:12:35.591Z</time></trkpt><trkpt lat="45.9594978" lon="11.5554933"><ele>1570.0000000000002</ele><time>2026-04-26T13:12:36.583Z</time></trkpt><trkpt lat="45.9594216" lon="11.5555101"><ele>1570.0</ele><time>2026-04-26T13:12:37.592Z</time></trkpt><trkpt lat="45.9593526" lon="11.5555267"><ele>1570.0</ele><time>2026-04-26T13:12:38.583Z</time></trkpt><trkpt lat="45.9592432" lon="11.555582"><ele>1570.0</ele><time>2026-04-26T13:12:40.597Z</time></trkpt><trkpt lat="45.9591437" lon="11.5555692"><ele>1570.0000000000002</ele><time>2026-04-26T13:12:42.586Z</time></trkpt><trkpt lat="45.9590734" lon="11.5554972"><ele>1570.0</ele><time>2026-04-26T13:12:44.593Z</time></trkpt><trkpt lat="45.9590172" lon="11.555435"><ele>1570.1666666666667</ele><time>2026-04-26T13:12:46.589Z</time></trkpt><trkpt lat="45.9589324" lon="11.5553961"><ele>1570.3333333333335</ele><time>2026-04-26T13:12:54.592Z</time></trkpt><trkpt lat="45.9588655" lon="11.5553654"><ele>1570.5</ele><time>2026-04-26T13:12:56.581Z</time></trkpt><trkpt lat="45.9587896" lon="11.5553671"><ele>1570.6666666666665</ele><time>2026-04-26T13:12:58.586Z</time></trkpt><trkpt lat="45.958695" lon="11.5553811"><ele>1570.8333333333333</ele><time>2026-04-26T13:13:03.59Z</time></trkpt><trkpt lat="45.9586301" lon="11.5554095"><ele>1571.0</ele><time>2026-04-26T13:13:05.601Z</time></trkpt><trkpt lat="45.9585588" lon="11.5554714"><ele>1570.9999999999998</ele><time>2026-04-26T13:13:07.582Z</time></trkpt><trkpt lat="45.958478" lon="11.5555453"><ele>1571.0</ele><time>2026-04-26T13:13:09.586Z</time></trkpt><trkpt lat="45.9584148" lon="11.5555612"><ele>1571.0</ele><time>2026-04-26T13:13:10.596Z</time></trkpt><trkpt lat="45.9583146" lon="11.5555589"><ele>1571.0</ele><time>2026-04-26T13:13:12.591Z</time></trkpt><trkpt lat="45.9582403" lon="11.5555045"><ele>1570.9999999999998</ele><time>2026-04-26T13:13:18.59Z</time></trkpt><trkpt lat="45.958166" lon="11.5555119"><ele>1571.0</ele><time>2026-04-26T13:13:32.594Z</time></trkpt><trkpt lat="45.9580764" lon="11.555496"><ele>1572.1666666666665</ele><time>2026-04-26T13:13:35.59Z</time></trkpt><trkpt lat="45.9580005" lon="11.5554594"><ele>1573.3333333333333</ele><time>2026-04-26T13:13:38.596Z</time></trkpt><trkpt lat="45.9579712" lon="11.555352"><ele>1574.5</ele><time>2026-04-26T13:13:40.587Z</time></trkpt><trkpt lat="45.9579566" lon="11.5552582"><ele>1575.6666666666665</ele><time>2026-04-26T13:13:41.585Z</time></trkpt><trkpt lat="45.9579398" lon="11.5551554"><ele>1576.8333333333333</ele><time>2026-04-26T13:13:42.588Z</time></trkpt><trkpt lat="45.9579136" lon="11.5550538"><ele>1578.0</ele><time>2026-04-26T13:13:43.583Z</time></trkpt><trkpt lat="45.957858" lon="11.5549294"><ele>1578.8333333333333</ele><time>2026-04-26T13:13:45.595Z</time></trkpt><trkpt lat="45.9577942" lon="11.5548641"><ele>1579.6666666666665</ele><time>2026-04-26T13:13:47.588Z</time></trkpt><trkpt lat="45.9577209" lon="11.5548266"><ele>1580.5</ele><time>2026-04-26T13:13:50.578Z</time></trkpt><trkpt lat="45.9576352" lon="11.5548203"><ele>1581.3333333333333</ele><time>2026-04-26T13:13:53.581Z</time></trkpt><trkpt lat="45.9575593" lon="11.5548851"><ele>1582.1666666666665</ele><time>2026-04-26T13:13:55.586Z</time></trkpt><trkpt lat="45.9574627" lon="11.5549646"><ele>1583.0</ele><time>2026-04-26T13:13:57.584Z</time></trkpt><trkpt lat="45.957344" lon="11.5550239"><ele>1583.0</ele><time>2026-04-26T13:13:59.587Z</time></trkpt><trkpt lat="45.9572784" lon="11.5550345"><ele>1583.0</ele><time>2026-04-26T13:14:00.594Z</time></trkpt><trkpt lat="45.9571702" lon="11.5550134"><ele>1583.0</ele><time>2026-04-26T13:14:02.593Z</time></trkpt><trkpt lat="45.9571096" lon="11.5549113"><ele>1583.0</ele><time>2026-04-26T13:14:04.593Z</time></trkpt><trkpt lat="45.9571079" lon="11.5547483"><ele>1583.0</ele><time>2026-04-26T13:14:06.585Z</time></trkpt><trkpt lat="45.9571215" lon="11.5546526"><ele>1582.9999999999998</ele><time>2026-04-26T13:14:07.583Z</time></trkpt><trkpt lat="45.9571399" lon="11.5545546"><ele>1583.0</ele><time>2026-04-26T13:14:08.587Z</time></trkpt><trkpt lat="45.9571634" lon="11.5544608"><ele>1583.0</ele><time>2026-04-26T13:14:09.581Z</time></trkpt><trkpt lat="45.9571818" lon="11.5543632"><ele>1583.0</ele><time>2026-04-26T13:14:10.59Z</time></trkpt><trkpt lat="45.9571887" lon="11.5541977"><ele>1582.9999999999998</ele><time>2026-04-26T13:14:12.591Z</time></trkpt><trkpt lat="45.9571605" lon="11.5541003"><ele>1583.0</ele><time>2026-04-26T13:14:14.579Z</time></trkpt><trkpt lat="45.957101" lon="11.5540568"><ele>1583.6666666666665</ele><time>2026-04-26T13:14:22.584Z</time></trkpt><trkpt lat="45.9570485" lon="11.5539851"><ele>1584.3333333333333</ele><time>2026-04-26T13:14:24.582Z</time></trkpt><trkpt lat="45.9570012" lon="11.553912"><ele>1585.0</ele><time>2026-04-26T13:14:26.584Z</time></trkpt><trkpt lat="45.9569582" lon="11.5538456"><ele>1585.6666666666665</ele><time>2026-04-26T13:14:28.585Z</time></trkpt><trkpt lat="45.956912" lon="11.5537484"><ele>1586.3333333333333</ele><time>2026-04-26T13:14:30.587Z</time></trkpt><trkpt lat="45.9568592" lon="11.5535954"><ele>1587.0</ele><time>2026-04-26T13:14:32.588Z</time></trkpt><trkpt lat="45.956813" lon="11.5535285"><ele>1586.6666666666667</ele><time>2026-04-26T13:14:33.578Z</time></trkpt><trkpt lat="45.9567479" lon="11.553473"><ele>1586.3333333333335</ele><time>2026-04-26T13:14:34.587Z</time></trkpt><trkpt lat="45.9566792" lon="11.5534165"><ele>1586.0</ele><time>2026-04-26T13:14:35.593Z</time></trkpt><trkpt lat="45.9566135" lon="11.5533433"><ele>1585.6666666666667</ele><time>2026-04-26T13:14:36.583Z</time></trkpt><trkpt lat="45.9565714" lon="11.5532276"><ele>1585.3333333333335</ele><time>2026-04-26T13:14:37.585Z</time></trkpt><trkpt lat="45.9565403" lon="11.5531129"><ele>1585.0</ele><time>2026-04-26T13:14:38.58Z</time></trkpt><trkpt lat="45.9565067" lon="11.5529893"><ele>1586.8</ele><time>2026-04-26T13:14:39.581Z</time></trkpt><trkpt lat="45.956473" lon="11.5528721"><ele>1588.6</ele><time>2026-04-26T13:14:40.582Z</time></trkpt><trkpt lat="45.9564369" lon="11.5527508"><ele>1590.4</ele><time>2026-04-26T13:14:41.582Z</time></trkpt><trkpt lat="45.9564083" lon="11.5526256"><ele>1592.2</ele><time>2026-04-26T13:14:42.591Z</time></trkpt><trkpt lat="45.95639" lon="11.5524867"><ele>1594.0</ele><time>2026-04-26T13:14:43.594Z</time></trkpt><trkpt lat="45.9563926" lon="11.5523567"><ele>1594.0000000000002</ele><time>2026-04-26T13:14:44.593Z</time></trkpt><trkpt lat="45.9564154" lon="11.5522501"><ele>1594.0</ele><time>2026-04-26T13:14:45.592Z</time></trkpt><trkpt lat="45.9564412" lon="11.5521674"><ele>1594.0</ele><time>2026-04-26T13:14:46.585Z</time></trkpt><trkpt lat="45.9564625" lon="11.5520305"><ele>1594.0</ele><time>2026-04-26T13:14:48.594Z</time></trkpt><trkpt lat="45.9564776" lon="11.5518545"><ele>1594.0000000000002</ele><time>2026-04-26T13:14:50.597Z</time></trkpt><trkpt lat="45.9564727" lon="11.5517604"><ele>1594.0</ele><time>2026-04-26T13:14:51.593Z</time></trkpt><trkpt lat="45.9564597" lon="11.5516534"><ele>1594.1666666666667</ele><time>2026-04-26T13:14:52.586Z</time></trkpt><trkpt lat="45.9564495" lon="11.5515379"><ele>1594.3333333333335</ele><time>2026-04-26T13:14:53.576Z</time></trkpt><trkpt lat="45.9564214" lon="11.5514356"><ele>1594.5</ele><time>2026-04-26T13:14:54.584Z</time></trkpt><trkpt lat="45.9563622" lon="11.5513446"><ele>1594.6666666666665</ele><time>2026-04-26T13:14:55.589Z</time></trkpt><trkpt lat="45.9562803" lon="11.5512851"><ele>1594.8333333333333</ele><time>2026-04-26T13:14:56.583Z</time></trkpt><trkpt lat="45.9561933" lon="11.5512623"><ele>1595.0</ele><time>2026-04-26T13:14:57.586Z</time></trkpt><trkpt lat="45.9561061" lon="11.5512635"><ele>1594.9999999999998</ele><time>2026-04-26T13:14:58.597Z</time></trkpt><trkpt lat="45.9560194" lon="11.5512729"><ele>1595.0</ele><time>2026-04-26T13:14:59.588Z</time></trkpt><trkpt lat="45.9559328" lon="11.5512893"><ele>1595.0</ele><time>2026-04-26T13:15:00.594Z</time></trkpt><trkpt lat="45.9558445" lon="11.5512941"><ele>1595.0</ele><time>2026-04-26T13:15:01.593Z</time></trkpt><trkpt lat="45.9557587" lon="11.5512876"><ele>1594.9999999999998</ele><time>2026-04-26T13:15:02.583Z</time></trkpt><trkpt lat="45.9556806" lon="11.5512754"><ele>1595.0</ele><time>2026-04-26T13:15:03.58Z</time></trkpt><trkpt lat="45.9556147" lon="11.5512505"><ele>1596.3333333333333</ele><time>2026-04-26T13:15:04.592Z</time></trkpt><trkpt lat="45.9554998" lon="11.5511909"><ele>1597.6666666666665</ele><time>2026-04-26T13:15:06.578Z</time></trkpt><trkpt lat="45.9554208" lon="11.5511561"><ele>1599.0</ele><time>2026-04-26T13:15:08.586Z</time></trkpt><trkpt lat="45.9553501" lon="11.5511741"><ele>1600.3333333333335</ele><time>2026-04-26T13:15:27.586Z</time></trkpt><trkpt lat="45.9552712" lon="11.5511961"><ele>1601.6666666666667</ele><time>2026-04-26T13:15:30.582Z</time></trkpt><trkpt lat="45.9552049" lon="11.5512579"><ele>1603.0</ele><time>2026-04-26T13:15:34.578Z</time></trkpt><trkpt lat="45.9551548" lon="11.5513136"><ele>1600.4285714285713</ele><time>2026-04-26T13:16:16.587Z</time></trkpt><trkpt lat="45.9551336" lon="11.5514146"><ele>1597.857142857143</ele><time>2026-04-26T13:18:16.585Z</time></trkpt><trkpt lat="45.9551198" lon="11.5515244"><ele>1595.2857142857142</ele><time>2026-04-26T13:18:21.58Z</time></trkpt><trkpt lat="45.955127" lon="11.5516298"><ele>1592.7142857142858</ele><time>2026-04-26T13:18:25.583Z</time></trkpt><trkpt lat="45.9551333" lon="11.5517316"><ele>1590.142857142857</ele><time>2026-04-26T13:18:28.595Z</time></trkpt><trkpt lat="45.9551579" lon="11.551837"><ele>1587.5714285714284</ele><time>2026-04-26T13:18:35.588Z</time></trkpt><trkpt lat="45.9551765" lon="11.5519239"><ele>1585.0</ele><time>2026-04-26T13:18:41.582Z</time></trkpt><trkpt lat="45.9551881" lon="11.5520174"><ele>1585.0000000000002</ele><time>2026-04-26T13:19:08.578Z</time></trkpt><trkpt lat="45.9551214" lon="11.5520293"><ele>1585.0</ele><time>2026-04-26T13:19:59.57Z</time></trkpt><trkpt lat="45.9551651" lon="11.552105"><ele>1585.0</ele><time>2026-04-26T13:20:06.564Z</time></trkpt><trkpt lat="45.9551403" lon="11.5519929"><ele>1585.0</ele><time>2026-04-26T13:20:10.566Z</time></trkpt><trkpt lat="45.9551495" lon="11.5519026"><ele>1585.0000000000002</ele><time>2026-04-26T13:20:17.622Z</time></trkpt><trkpt lat="45.9551222" lon="11.5518142"><ele>1585.0</ele><time>2026-04-26T13:20:23.128Z</time></trkpt><trkpt lat="45.9551683" lon="11.5520525"><ele>1584.4285714285713</ele><time>2026-04-26T13:22:06.561Z</time></trkpt><trkpt lat="45.9551851" lon="11.5521408"><ele>1583.857142857143</ele><time>2026-04-26T13:23:38.577Z</time></trkpt><trkpt lat="45.9551726" lon="11.5522429"><ele>1583.2857142857142</ele><time>2026-04-26T13:23:44.584Z</time></trkpt><trkpt lat="45.9551809" lon="11.5523574"><ele>1582.7142857142858</ele><time>2026-04-26T13:23:47.583Z</time></trkpt><trkpt lat="45.9551759" lon="11.5524521"><ele>1582.142857142857</ele><time>2026-04-26T13:23:52.571Z</time></trkpt><trkpt lat="45.955157" lon="11.5525569"><ele>1581.5714285714284</ele><time>2026-04-26T13:23:56.585Z</time></trkpt><trkpt lat="45.9551459" lon="11.5526744"><ele>1581.0</ele><time>2026-04-26T13:23:59.579Z</time></trkpt><trkpt lat="45.9551345" lon="11.5527977"><ele>1580.0</ele><time>2026-04-26T13:24:02.571Z</time></trkpt><trkpt lat="45.9551319" lon="11.5528915"><ele>1579.0</ele><time>2026-04-26T13:24:04.581Z</time></trkpt><trkpt lat="45.9551176" lon="11.5530043"><ele>1578.0</ele><time>2026-04-26T13:24:07.577Z</time></trkpt><trkpt lat="45.9550822" lon="11.5530887"><ele>1577.0</ele><time>2026-04-26T13:24:10.51Z</time></trkpt><trkpt lat="45.9550237" lon="11.5531222"><ele>1576.0</ele><time>2026-04-26T13:24:15.594Z</time></trkpt><trkpt lat="45.9549395" lon="11.5532182"><ele>1575.0</ele><time>2026-04-26T13:24:26.582Z</time></trkpt><trkpt lat="45.9548882" lon="11.5532785"><ele>1577.6666666666667</ele><time>2026-04-26T13:24:27.59Z</time></trkpt><trkpt lat="45.9548074" lon="11.5533603"><ele>1580.3333333333335</ele><time>2026-04-26T13:24:29.595Z</time></trkpt><trkpt lat="45.9547401" lon="11.5534341"><ele>1583.0</ele><time>2026-04-26T13:24:31.605Z</time></trkpt><trkpt lat="45.9546875" lon="11.5535262"><ele>1585.6666666666667</ele><time>2026-04-26T13:24:34.583Z</time></trkpt><trkpt lat="45.954657" lon="11.553613"><ele>1588.3333333333335</ele><time>2026-04-26T13:24:38.588Z</time></trkpt><trkpt lat="45.9546659" lon="11.5537054"><ele>1591.0</ele><time>2026-04-26T13:24:45.59Z</time></trkpt><trkpt lat="45.9546492" lon="11.5538183"><ele>1591.0</ele><time>2026-04-26T13:24:49.598Z</time></trkpt><trkpt lat="45.9546163" lon="11.5539"><ele>1591.0</ele><time>2026-04-26T13:27:47.588Z</time></trkpt><trkpt lat="45.954552" lon="11.5540013"><ele>1591.0</ele><time>2026-04-26T13:27:51.597Z</time></trkpt><trkpt lat="45.9544503" lon="11.5540866"><ele>1591.0</ele><time>2026-04-26T13:27:53.59Z</time></trkpt><trkpt lat="45.9543391" lon="11.5541393"><ele>1591.0</ele><time>2026-04-26T13:27:55.583Z</time></trkpt><trkpt lat="45.9542472" lon="11.5541896"><ele>1591.3333333333335</ele><time>2026-04-26T13:27:57.584Z</time></trkpt><trkpt lat="45.9541802" lon="11.5542543"><ele>1591.6666666666667</ele><time>2026-04-26T13:27:59.561Z</time></trkpt><trkpt lat="45.9541354" lon="11.5543322"><ele>1592.0</ele><time>2026-04-26T13:28:01.583Z</time></trkpt><trkpt lat="45.954084" lon="11.5544229"><ele>1592.3333333333335</ele><time>2026-04-26T13:28:04.581Z</time></trkpt><trkpt lat="45.9540312" lon="11.5545273"><ele>1592.6666666666667</ele><time>2026-04-26T13:28:07.594Z</time></trkpt><trkpt lat="45.9539362" lon="11.5546131"><ele>1593.0</ele><time>2026-04-26T13:28:09.588Z</time></trkpt><trkpt lat="45.9538726" lon="11.5546388"><ele>1593.0</ele><time>2026-04-26T13:28:10.586Z</time></trkpt><trkpt lat="45.9538028" lon="11.5546549"><ele>1593.0</ele><time>2026-04-26T13:28:11.602Z</time></trkpt><trkpt lat="45.9537285" lon="11.5546766"><ele>1593.0</ele><time>2026-04-26T13:28:12.6Z</time></trkpt><trkpt lat="45.9536609" lon="11.5547234"><ele>1593.0</ele><time>2026-04-26T13:28:13.583Z</time></trkpt><trkpt lat="45.9536104" lon="11.5547895"><ele>1593.0</ele><time>2026-04-26T13:28:14.591Z</time></trkpt><trkpt lat="45.9535899" lon="11.5549267"><ele>1593.0</ele><time>2026-04-26T13:28:16.588Z</time></trkpt><trkpt lat="45.9535939" lon="11.5550208"><ele>1593.0000000000002</ele><time>2026-04-26T13:28:18.576Z</time></trkpt><trkpt lat="45.9536017" lon="11.5551546"><ele>1593.0</ele><time>2026-04-26T13:28:21.592Z</time></trkpt><trkpt lat="45.9535888" lon="11.555245"><ele>1593.0</ele><time>2026-04-26T13:28:23.605Z</time></trkpt><trkpt lat="45.953531" lon="11.5553229"><ele>1593.0</ele><time>2026-04-26T13:28:25.583Z</time></trkpt><trkpt lat="45.9534677" lon="11.5553569"><ele>1593.0</ele><time>2026-04-26T13:28:26.589Z</time></trkpt><trkpt lat="45.9534034" lon="11.5553767"><ele>1593.0000000000002</ele><time>2026-04-26T13:28:27.581Z</time></trkpt><trkpt lat="45.953332" lon="11.5553751"><ele>1593.0</ele><time>2026-04-26T13:28:28.591Z</time></trkpt><trkpt lat="45.9532575" lon="11.5553899"><ele>1593.0</ele><time>2026-04-26T13:28:29.592Z</time></trkpt><trkpt lat="45.9531678" lon="11.5554051"><ele>1593.0</ele><time>2026-04-26T13:28:30.582Z</time></trkpt><trkpt lat="45.9530711" lon="11.555404"><ele>1593.0</ele><time>2026-04-26T13:28:31.6Z</time></trkpt><trkpt lat="45.9529528" lon="11.5553922"><ele>1593.0</ele><time>2026-04-26T13:28:32.583Z</time></trkpt><trkpt lat="45.9528262" lon="11.555385"><ele>1593.0</ele><time>2026-04-26T13:28:33.597Z</time></trkpt><trkpt lat="45.9527253" lon="11.555387"><ele>1593.0</ele><time>2026-04-26T13:28:34.583Z</time></trkpt><trkpt lat="45.9526586" lon="11.5553838"><ele>1593.0</ele><time>2026-04-26T13:28:35.59Z</time></trkpt><trkpt lat="45.9525386" lon="11.5553947"><ele>1593.0</ele><time>2026-04-26T13:28:37.586Z</time></trkpt><trkpt lat="45.9524523" lon="11.5554034"><ele>1593.0</ele><time>2026-04-26T13:28:39.59Z</time></trkpt><trkpt lat="45.9523862" lon="11.5553969"><ele>1593.0</ele><time>2026-04-26T13:28:42.585Z</time></trkpt><trkpt lat="45.9523177" lon="11.5553933"><ele>1593.0</ele><time>2026-04-26T13:28:57.588Z</time></trkpt><trkpt lat="45.9522461" lon="11.5554179"><ele>1594.2</ele><time>2026-04-26T13:29:58.59Z</time></trkpt><trkpt lat="45.9521505" lon="11.5554305"><ele>1595.4</ele><time>2026-04-26T13:30:01.58Z</time></trkpt><trkpt lat="45.9520499" lon="11.5554647"><ele>1596.6000000000001</ele><time>2026-04-26T13:30:03.577Z</time></trkpt><trkpt lat="45.9519611" lon="11.5554758"><ele>1597.8000000000002</ele><time>2026-04-26T13:30:05.572Z</time></trkpt><trkpt lat="45.9518785" lon="11.5554915"><ele>1599.0</ele><time>2026-04-26T13:30:07.589Z</time></trkpt><trkpt lat="45.951784" lon="11.5555021"><ele>1599.3333333333333</ele><time>2026-04-26T13:30:09.599Z</time></trkpt><trkpt lat="45.9516837" lon="11.5554995"><ele>1599.6666666666665</ele><time>2026-04-26T13:30:11.578Z</time></trkpt><trkpt lat="45.9515689" lon="11.5555179"><ele>1600.0</ele><time>2026-04-26T13:30:13.589Z</time></trkpt><trkpt lat="45.9514994" lon="11.5555286"><ele>1600.3333333333333</ele><time>2026-04-26T13:30:14.59Z</time></trkpt><trkpt lat="45.9514357" lon="11.5555241"><ele>1600.6666666666665</ele><time>2026-04-26T13:30:15.578Z</time></trkpt><trkpt lat="45.9513664" lon="11.5555054"><ele>1601.0</ele><time>2026-04-26T13:30:16.587Z</time></trkpt><trkpt lat="45.9513" lon="11.5554697"><ele>1601.0</ele><time>2026-04-26T13:30:17.582Z</time></trkpt><trkpt lat="45.9512366" lon="11.5554319"><ele>1601.0</ele><time>2026-04-26T13:30:18.592Z</time></trkpt><trkpt lat="45.951147" lon="11.5553696"><ele>1601.0</ele><time>2026-04-26T13:30:20.582Z</time></trkpt><trkpt lat="45.9510537" lon="11.5553153"><ele>1601.0</ele><time>2026-04-26T13:30:22.588Z</time></trkpt><trkpt lat="45.9509375" lon="11.5552967"><ele>1601.0</ele><time>2026-04-26T13:30:24.593Z</time></trkpt><trkpt lat="45.9508244" lon="11.5553051"><ele>1600.6666666666665</ele><time>2026-04-26T13:30:26.579Z</time></trkpt><trkpt lat="45.9507428" lon="11.5553319"><ele>1600.3333333333333</ele><time>2026-04-26T13:30:28.591Z</time></trkpt><trkpt lat="45.9506838" lon="11.5553753"><ele>1600.0</ele><time>2026-04-26T13:30:36.574Z</time></trkpt><trkpt lat="45.9506193" lon="11.5553739"><ele>1599.6666666666665</ele><time>2026-04-26T13:30:38.581Z</time></trkpt><trkpt lat="45.9505345" lon="11.5553706"><ele>1599.3333333333333</ele><time>2026-04-26T13:30:41.585Z</time></trkpt><trkpt lat="45.9504656" lon="11.5553834"><ele>1599.0</ele><time>2026-04-26T13:30:44.585Z</time></trkpt><trkpt lat="45.9503824" lon="11.5553948"><ele>1598.6666666666667</ele><time>2026-04-26T13:30:47.591Z</time></trkpt><trkpt lat="45.9503191" lon="11.5554143"><ele>1598.3333333333335</ele><time>2026-04-26T13:30:49.596Z</time></trkpt><trkpt lat="45.9502468" lon="11.5554399"><ele>1598.0</ele><time>2026-04-26T13:30:51.587Z</time></trkpt><trkpt lat="45.95016" lon="11.5554869"><ele>1597.6666666666667</ele><time>2026-04-26T13:30:54.586Z</time></trkpt><trkpt lat="45.9500858" lon="11.5554636"><ele>1597.3333333333335</ele><time>2026-04-26T13:30:56.582Z</time></trkpt><trkpt lat="45.9499795" lon="11.5554542"><ele>1597.0</ele><time>2026-04-26T13:30:58.587Z</time></trkpt><trkpt lat="45.9498825" lon="11.5554485"><ele>1596.3333333333335</ele><time>2026-04-26T13:31:00.59Z</time></trkpt><trkpt lat="45.9497763" lon="11.5554504"><ele>1595.6666666666667</ele><time>2026-04-26T13:31:02.582Z</time></trkpt><trkpt lat="45.9496683" lon="11.5554764"><ele>1595.0</ele><time>2026-04-26T13:31:04.587Z</time></trkpt><trkpt lat="45.9495782" lon="11.5554984"><ele>1594.3333333333335</ele><time>2026-04-26T13:31:07.58Z</time></trkpt><trkpt lat="45.9495131" lon="11.5554694"><ele>1593.6666666666667</ele><time>2026-04-26T13:32:10.582Z</time></trkpt><trkpt lat="45.9495727" lon="11.5554376"><ele>1593.0</ele><time>2026-04-26T13:43:28.58Z</time></trkpt><trkpt lat="45.9496493" lon="11.5554878"><ele>1593.0</ele><time>2026-04-26T13:43:32.592Z</time></trkpt><trkpt lat="45.9497328" lon="11.5554478"><ele>1593.0</ele><time>2026-04-26T13:43:35.588Z</time></trkpt><trkpt lat="45.9498197" lon="11.5554296"><ele>1593.0</ele><time>2026-04-26T13:43:37.58Z</time></trkpt><trkpt lat="45.9499208" lon="11.555419"><ele>1593.0</ele><time>2026-04-26T13:43:39.588Z</time></trkpt><trkpt lat="45.9500181" lon="11.5554387"><ele>1593.0</ele><time>2026-04-26T13:43:41.584Z</time></trkpt><trkpt lat="45.9501028" lon="11.5554437"><ele>1593.6666666666667</ele><time>2026-04-26T13:43:43.582Z</time></trkpt><trkpt lat="45.9501813" lon="11.5554499"><ele>1594.3333333333335</ele><time>2026-04-26T13:43:45.591Z</time></trkpt><trkpt lat="45.9502481" lon="11.5554173"><ele>1595.0</ele><time>2026-04-26T13:43:47.577Z</time></trkpt><trkpt lat="45.9503488" lon="11.5553827"><ele>1595.6666666666667</ele><time>2026-04-26T13:43:49.585Z</time></trkpt><trkpt lat="45.9504357" lon="11.5553747"><ele>1596.3333333333335</ele><time>2026-04-26T13:43:51.591Z</time></trkpt><trkpt lat="45.9505205" lon="11.5553761"><ele>1597.0</ele><time>2026-04-26T13:43:53.579Z</time></trkpt><trkpt lat="45.9506003" lon="11.5553467"><ele>1597.3333333333335</ele><time>2026-04-26T13:43:55.585Z</time></trkpt><trkpt lat="45.9507019" lon="11.5553151"><ele>1597.6666666666667</ele><time>2026-04-26T13:43:57.586Z</time></trkpt><trkpt lat="45.9507672" lon="11.5552986"><ele>1598.0</ele><time>2026-04-26T13:43:58.59Z</time></trkpt><trkpt lat="45.9508425" lon="11.5553022"><ele>1598.3333333333335</ele><time>2026-04-26T13:43:59.587Z</time></trkpt><trkpt lat="45.9509169" lon="11.5553133"><ele>1598.6666666666667</ele><time>2026-04-26T13:44:00.577Z</time></trkpt><trkpt lat="45.9509988" lon="11.5553143"><ele>1599.0</ele><time>2026-04-26T13:44:01.586Z</time></trkpt><trkpt lat="45.951079" lon="11.5553143"><ele>1599.3333333333333</ele><time>2026-04-26T13:44:02.59Z</time></trkpt><trkpt lat="45.9511569" lon="11.5553248"><ele>1599.6666666666665</ele><time>2026-04-26T13:44:03.586Z</time></trkpt><trkpt lat="45.9512313" lon="11.555349"><ele>1600.0</ele><time>2026-04-26T13:44:04.587Z</time></trkpt><trkpt lat="45.9512948" lon="11.5553847"><ele>1600.3333333333333</ele><time>2026-04-26T13:44:05.597Z</time></trkpt><trkpt lat="45.9513575" lon="11.5554223"><ele>1600.6666666666665</ele><time>2026-04-26T13:44:06.579Z</time></trkpt><trkpt lat="45.9514636" lon="11.5554856"><ele>1601.0</ele><time>2026-04-26T13:44:08.59Z</time></trkpt><trkpt lat="45.9516033" lon="11.555497"><ele>1600.9999999999998</ele><time>2026-04-26T13:44:10.588Z</time></trkpt><trkpt lat="45.9516757" lon="11.5554959"><ele>1601.0</ele><time>2026-04-26T13:44:11.582Z</time></trkpt><trkpt lat="45.9517516" lon="11.5554911"><ele>1601.0</ele><time>2026-04-26T13:44:12.578Z</time></trkpt><trkpt lat="45.9518241" lon="11.555492"><ele>1601.0</ele><time>2026-04-26T13:44:13.592Z</time></trkpt><trkpt lat="45.9518957" lon="11.5554906"><ele>1600.9999999999998</ele><time>2026-04-26T13:44:14.589Z</time></trkpt><trkpt lat="45.9520161" lon="11.5554802"><ele>1601.0</ele><time>2026-04-26T13:44:16.583Z</time></trkpt><trkpt lat="45.9521093" lon="11.5554554"><ele>1601.1666666666665</ele><time>2026-04-26T13:44:18.585Z</time></trkpt><trkpt lat="45.9522079" lon="11.5554232"><ele>1601.3333333333333</ele><time>2026-04-26T13:44:20.59Z</time></trkpt><trkpt lat="45.9522767" lon="11.555397"><ele>1601.5</ele><time>2026-04-26T13:44:22.576Z</time></trkpt><trkpt lat="45.9522447" lon="11.5552926"><ele>1601.6666666666665</ele><time>2026-04-26T13:44:28.581Z</time></trkpt><trkpt lat="45.9521889" lon="11.5552329"><ele>1601.8333333333333</ele><time>2026-04-26T13:44:30.585Z</time></trkpt><trkpt lat="45.9520902" lon="11.5551202"><ele>1602.0</ele><time>2026-04-26T13:44:32.592Z</time></trkpt><trkpt lat="45.9520283" lon="11.5550556"><ele>1602.0</ele><time>2026-04-26T13:44:33.588Z</time></trkpt><trkpt lat="45.9519649" lon="11.5549905"><ele>1602.0</ele><time>2026-04-26T13:44:34.589Z</time></trkpt><trkpt lat="45.9518972" lon="11.5549242"><ele>1602.0</ele><time>2026-04-26T13:44:35.568Z</time></trkpt><trkpt lat="45.9518243" lon="11.5548691"><ele>1602.0</ele><time>2026-04-26T13:44:36.592Z</time></trkpt><trkpt lat="45.9517515" lon="11.5548044"><ele>1602.0</ele><time>2026-04-26T13:44:37.577Z</time></trkpt><trkpt lat="45.951675" lon="11.554741"><ele>1602.0</ele><time>2026-04-26T13:44:38.589Z</time></trkpt><trkpt lat="45.9515939" lon="11.5546752"><ele>1602.1999999999998</ele><time>2026-04-26T13:44:39.575Z</time></trkpt><trkpt lat="45.9514999" lon="11.5546195"><ele>1602.4</ele><time>2026-04-26T13:44:40.593Z</time></trkpt><trkpt lat="45.951407" lon="11.5545777"><ele>1602.6</ele><time>2026-04-26T13:44:41.59Z</time></trkpt><trkpt lat="45.9513064" lon="11.5545388"><ele>1602.8000000000002</ele><time>2026-04-26T13:44:42.582Z</time></trkpt><trkpt lat="45.9512014" lon="11.554505"><ele>1603.0</ele><time>2026-04-26T13:44:43.599Z</time></trkpt><trkpt lat="45.9510923" lon="11.5544775"><ele>1603.75</ele><time>2026-04-26T13:44:44.586Z</time></trkpt><trkpt lat="45.9509738" lon="11.5544638"><ele>1604.5</ele><time>2026-04-26T13:44:45.582Z</time></trkpt><trkpt lat="45.9508476" lon="11.5544447"><ele>1605.25</ele><time>2026-04-26T13:44:46.576Z</time></trkpt><trkpt lat="45.9507151" lon="11.5544137"><ele>1606.0</ele><time>2026-04-26T13:44:47.589Z</time></trkpt><trkpt lat="45.9505906" lon="11.5543801"><ele>1606.0</ele><time>2026-04-26T13:44:48.593Z</time></trkpt><trkpt lat="45.9504869" lon="11.5543435"><ele>1606.0</ele><time>2026-04-26T13:44:49.586Z</time></trkpt><trkpt lat="45.9503971" lon="11.5543057"><ele>1606.0</ele><time>2026-04-26T13:44:50.58Z</time></trkpt><trkpt lat="45.9502992" lon="11.5542737"><ele>1606.0</ele><time>2026-04-26T13:44:51.588Z</time></trkpt><trkpt lat="45.9501967" lon="11.5542518"><ele>1606.0</ele><time>2026-04-26T13:44:52.593Z</time></trkpt><trkpt lat="45.9500982" lon="11.5542376"><ele>1607.0</ele><time>2026-04-26T13:44:53.595Z</time></trkpt><trkpt lat="45.9499963" lon="11.5542343"><ele>1608.0</ele><time>2026-04-26T13:44:54.582Z</time></trkpt><trkpt lat="45.9498978" lon="11.5542358"><ele>1609.0</ele><time>2026-04-26T13:44:55.584Z</time></trkpt><trkpt lat="45.9497937" lon="11.5542415"><ele>1610.0</ele><time>2026-04-26T13:44:56.587Z</time></trkpt><trkpt lat="45.949701" lon="11.5542447"><ele>1611.0</ele><time>2026-04-26T13:44:57.585Z</time></trkpt><trkpt lat="45.9496123" lon="11.5542376"><ele>1611.0</ele><time>2026-04-26T13:44:58.582Z</time></trkpt><trkpt lat="45.9495121" lon="11.5542142"><ele>1611.0</ele><time>2026-04-26T13:44:59.587Z</time></trkpt><trkpt lat="45.9494178" lon="11.5541804"><ele>1611.0</ele><time>2026-04-26T13:45:00.58Z</time></trkpt><trkpt lat="45.9493175" lon="11.5541503"><ele>1611.0</ele><time>2026-04-26T13:45:01.588Z</time></trkpt><trkpt lat="45.9492151" lon="11.5541213"><ele>1611.0</ele><time>2026-04-26T13:45:02.584Z</time></trkpt><trkpt lat="45.9491117" lon="11.554101"><ele>1611.1666666666667</ele><time>2026-04-26T13:45:03.596Z</time></trkpt><trkpt lat="45.9490161" lon="11.5540785"><ele>1611.3333333333335</ele><time>2026-04-26T13:45:04.586Z</time></trkpt><trkpt lat="45.9489329" lon="11.5540557"><ele>1611.5</ele><time>2026-04-26T13:45:05.582Z</time></trkpt><trkpt lat="45.9488621" lon="11.5540243"><ele>1611.6666666666667</ele><time>2026-04-26T13:45:06.581Z</time></trkpt><trkpt lat="45.9487974" lon="11.5539911"><ele>1611.8333333333335</ele><time>2026-04-26T13:45:07.585Z</time></trkpt><trkpt lat="45.9487365" lon="11.5539646"><ele>1612.0</ele><time>2026-04-26T13:45:08.576Z</time></trkpt><trkpt lat="45.9486703" lon="11.5539392"><ele>1612.0000000000002</ele><time>2026-04-26T13:45:09.581Z</time></trkpt><trkpt lat="45.9486089" lon="11.553907"><ele>1612.0</ele><time>2026-04-26T13:45:10.57Z</time></trkpt><trkpt lat="45.9485387" lon="11.5538763"><ele>1612.0</ele><time>2026-04-26T13:45:11.572Z</time></trkpt><trkpt lat="45.9484558" lon="11.5538418"><ele>1612.0</ele><time>2026-04-26T13:45:12.577Z</time></trkpt><trkpt lat="45.9483786" lon="11.5538074"><ele>1612.0000000000002</ele><time>2026-04-26T13:45:13.578Z</time></trkpt><trkpt lat="45.9483105" lon="11.5537841"><ele>1612.0</ele><time>2026-04-26T13:45:14.586Z</time></trkpt><trkpt lat="45.9481909" lon="11.5537856"><ele>1611.6</ele><time>2026-04-26T13:45:16.564Z</time></trkpt><trkpt lat="45.948081" lon="11.5537901"><ele>1611.1999999999998</ele><time>2026-04-26T13:45:18.574Z</time></trkpt><trkpt lat="45.9479565" lon="11.5537955"><ele>1610.8</ele><time>2026-04-26T13:45:20.581Z</time></trkpt><trkpt lat="45.9478847" lon="11.5537971"><ele>1610.4</ele><time>2026-04-26T13:45:21.595Z</time></trkpt><trkpt lat="45.9478093" lon="11.5538038"><ele>1610.0</ele><time>2026-04-26T13:45:22.581Z</time></trkpt><trkpt lat="45.9477354" lon="11.5538415"><ele>1610.0</ele><time>2026-04-26T13:45:23.58Z</time></trkpt><trkpt lat="45.9476567" lon="11.5539151"><ele>1610.0</ele><time>2026-04-26T13:45:24.589Z</time></trkpt><trkpt lat="45.947579" lon="11.5540069"><ele>1610.0</ele><time>2026-04-26T13:45:25.586Z</time></trkpt><trkpt lat="45.9475086" lon="11.5540946"><ele>1610.0</ele><time>2026-04-26T13:45:26.579Z</time></trkpt><trkpt lat="45.9474516" lon="11.5541995"><ele>1610.0</ele><time>2026-04-26T13:45:27.576Z</time></trkpt><trkpt lat="45.9474156" lon="11.5542978"><ele>1610.0</ele><time>2026-04-26T13:45:28.582Z</time></trkpt><trkpt lat="45.9473677" lon="11.5544119"><ele>1610.0</ele><time>2026-04-26T13:45:30.591Z</time></trkpt><trkpt lat="45.9473276" lon="11.5545164"><ele>1610.0</ele><time>2026-04-26T13:45:33.587Z</time></trkpt><trkpt lat="45.9472742" lon="11.5545735"><ele>1610.0</ele><time>2026-04-26T13:45:36.584Z</time></trkpt><trkpt lat="45.9472124" lon="11.5546237"><ele>1610.0</ele><time>2026-04-26T13:45:38.579Z</time></trkpt><trkpt lat="45.9471534" lon="11.5546594"><ele>1610.0</ele><time>2026-04-26T13:45:40.588Z</time></trkpt><trkpt lat="45.9470891" lon="11.5546992"><ele>1610.0</ele><time>2026-04-26T13:45:44.599Z</time></trkpt><trkpt lat="45.9470625" lon="11.5547928"><ele>1609.9999999999998</ele><time>2026-04-26T13:48:37.586Z</time></trkpt><trkpt lat="45.9470133" lon="11.5548513"><ele>1610.0</ele><time>2026-04-26T13:48:38.603Z</time></trkpt><trkpt lat="45.94691" lon="11.5549615"><ele>1610.0</ele><time>2026-04-26T13:48:40.579Z</time></trkpt><trkpt lat="45.946847" lon="11.5550014"><ele>1610.0</ele><time>2026-04-26T13:48:41.598Z</time></trkpt><trkpt lat="45.9467758" lon="11.5550195"><ele>1609.9999999999998</ele><time>2026-04-26T13:48:42.592Z</time></trkpt><trkpt lat="45.9467017" lon="11.5550092"><ele>1610.0</ele><time>2026-04-26T13:48:43.594Z</time></trkpt><trkpt lat="45.9466206" lon="11.554973"><ele>1610.4999999999998</ele><time>2026-04-26T13:48:44.588Z</time></trkpt><trkpt lat="45.9465575" lon="11.5548868"><ele>1611.0</ele><time>2026-04-26T13:48:45.59Z</time></trkpt><trkpt lat="45.946525" lon="11.5547745"><ele>1611.5</ele><time>2026-04-26T13:48:46.589Z</time></trkpt><trkpt lat="45.9465227" lon="11.554654"><ele>1612.0</ele><time>2026-04-26T13:48:47.582Z</time></trkpt><trkpt lat="45.9465247" lon="11.5545278"><ele>1612.4999999999998</ele><time>2026-04-26T13:48:48.59Z</time></trkpt><trkpt lat="45.9465247" lon="11.5544074"><ele>1613.0</ele><time>2026-04-26T13:48:49.587Z</time></trkpt><trkpt lat="45.9465242" lon="11.5542794"><ele>1613.0</ele><time>2026-04-26T13:48:50.587Z</time></trkpt><trkpt lat="45.9465306" lon="11.5541479"><ele>1613.0</ele><time>2026-04-26T13:48:51.583Z</time></trkpt><trkpt lat="45.9465384" lon="11.5540266"><ele>1613.0</ele><time>2026-04-26T13:48:52.588Z</time></trkpt><trkpt lat="45.9465628" lon="11.5539002"><ele>1613.0</ele><time>2026-04-26T13:48:53.589Z</time></trkpt><trkpt lat="45.9466052" lon="11.5537658"><ele>1613.0</ele><time>2026-04-26T13:48:54.591Z</time></trkpt><trkpt lat="45.9466639" lon="11.5536407"><ele>1612.6000000000001</ele><time>2026-04-26T13:48:55.589Z</time></trkpt><trkpt lat="45.9467258" lon="11.5535194"><ele>1612.2</ele><time>2026-04-26T13:48:56.586Z</time></trkpt><trkpt lat="45.9467806" lon="11.5534088"><ele>1611.8</ele><time>2026-04-26T13:48:57.579Z</time></trkpt><trkpt lat="45.9468234" lon="11.553307"><ele>1611.4</ele><time>2026-04-26T13:48:58.602Z</time></trkpt><trkpt lat="45.9468029" lon="11.5531587"><ele>1611.0</ele><time>2026-04-26T13:49:00.575Z</time></trkpt><trkpt lat="45.9466991" lon="11.5531963"><ele>1611.0</ele><time>2026-04-26T13:49:02.591Z</time></trkpt><trkpt lat="45.9466209" lon="11.5533493"><ele>1611.0</ele><time>2026-04-26T13:49:04.576Z</time></trkpt><trkpt lat="45.9465809" lon="11.5534328"><ele>1611.0</ele><time>2026-04-26T13:49:05.575Z</time></trkpt><trkpt lat="45.9465318" lon="11.5535246"><ele>1611.0</ele><time>2026-04-26T13:49:06.585Z</time></trkpt><trkpt lat="45.946463" lon="11.5536251"><ele>1611.0</ele><time>2026-04-26T13:49:07.585Z</time></trkpt><trkpt lat="45.9463942" lon="11.5537239"><ele>1611.4</ele><time>2026-04-26T13:49:08.584Z</time></trkpt><trkpt lat="45.9463135" lon="11.5538238"><ele>1611.8</ele><time>2026-04-26T13:49:09.581Z</time></trkpt><trkpt lat="45.9462262" lon="11.5539247"><ele>1612.2</ele><time>2026-04-26T13:49:10.574Z</time></trkpt><trkpt lat="45.9461424" lon="11.5540251"><ele>1612.6000000000001</ele><time>2026-04-26T13:49:11.599Z</time></trkpt><trkpt lat="45.9460645" lon="11.5541155"><ele>1613.0</ele><time>2026-04-26T13:49:12.591Z</time></trkpt><trkpt lat="45.9459874" lon="11.5541881"><ele>1613.0</ele><time>2026-04-26T13:49:13.585Z</time></trkpt><trkpt lat="45.9459021" lon="11.5542462"><ele>1613.0</ele><time>2026-04-26T13:49:14.585Z</time></trkpt><trkpt lat="45.945813" lon="11.5543066"><ele>1613.0</ele><time>2026-04-26T13:49:15.588Z</time></trkpt><trkpt lat="45.9457205" lon="11.5543431"><ele>1613.0</ele><time>2026-04-26T13:49:16.595Z</time></trkpt><trkpt lat="45.9456221" lon="11.5543574"><ele>1613.0</ele><time>2026-04-26T13:49:17.58Z</time></trkpt><trkpt lat="45.9455285" lon="11.5543601"><ele>1611.3333333333333</ele><time>2026-04-26T13:49:18.589Z</time></trkpt><trkpt lat="45.9454395" lon="11.5543432"><ele>1609.6666666666665</ele><time>2026-04-26T13:49:19.585Z</time></trkpt><trkpt lat="45.9453613" lon="11.5543103"><ele>1608.0</ele><time>2026-04-26T13:49:20.58Z</time></trkpt><trkpt lat="45.9452967" lon="11.5542645"><ele>1606.3333333333335</ele><time>2026-04-26T13:49:21.588Z</time></trkpt><trkpt lat="45.9452459" lon="11.5541814"><ele>1604.6666666666667</ele><time>2026-04-26T13:49:22.587Z</time></trkpt><trkpt lat="45.9452456" lon="11.5540855"><ele>1603.0</ele><time>2026-04-26T13:49:23.576Z</time></trkpt><trkpt lat="45.9452719" lon="11.5539863"><ele>1603.0000000000002</ele><time>2026-04-26T13:49:24.582Z</time></trkpt><trkpt lat="45.9452931" lon="11.5538856"><ele>1603.0</ele><time>2026-04-26T13:49:25.587Z</time></trkpt><trkpt lat="45.9453162" lon="11.5537837"><ele>1603.0</ele><time>2026-04-26T13:49:26.583Z</time></trkpt><trkpt lat="45.9453398" lon="11.5536712"><ele>1603.0</ele><time>2026-04-26T13:49:27.587Z</time></trkpt><trkpt lat="45.945363" lon="11.5535562"><ele>1603.0000000000002</ele><time>2026-04-26T13:49:28.58Z</time></trkpt><trkpt lat="45.9453725" lon="11.5534352"><ele>1603.0</ele><time>2026-04-26T13:49:29.59Z</time></trkpt><trkpt lat="45.9453673" lon="11.5532993"><ele>1602.5000000000002</ele><time>2026-04-26T13:49:30.584Z</time></trkpt><trkpt lat="45.9453542" lon="11.5531613"><ele>1602.0</ele><time>2026-04-26T13:49:31.582Z</time></trkpt><trkpt lat="45.9453311" lon="11.553037"><ele>1601.5</ele><time>2026-04-26T13:49:32.579Z</time></trkpt><trkpt lat="45.9453094" lon="11.5529126"><ele>1601.0</ele><time>2026-04-26T13:49:33.584Z</time></trkpt><trkpt lat="45.945275" lon="11.552803"><ele>1600.5000000000002</ele><time>2026-04-26T13:49:34.586Z</time></trkpt><trkpt lat="45.9452426" lon="11.5526972"><ele>1600.0</ele><time>2026-04-26T13:49:35.581Z</time></trkpt><trkpt lat="45.9452072" lon="11.5525879"><ele>1600.0000000000002</ele><time>2026-04-26T13:49:36.577Z</time></trkpt><trkpt lat="45.9451797" lon="11.5524795"><ele>1600.0</ele><time>2026-04-26T13:49:37.587Z</time></trkpt><trkpt lat="45.94516" lon="11.5523696"><ele>1600.0</ele><time>2026-04-26T13:49:38.579Z</time></trkpt><trkpt lat="45.9451477" lon="11.5522663"><ele>1600.0</ele><time>2026-04-26T13:49:39.577Z</time></trkpt><trkpt lat="45.9451439" lon="11.5521689"><ele>1600.0</ele><time>2026-04-26T13:49:40.586Z</time></trkpt><trkpt lat="45.94513" lon="11.5520774"><ele>1600.0000000000002</ele><time>2026-04-26T13:49:41.577Z</time></trkpt><trkpt lat="45.9450577" lon="11.5520202"><ele>1600.0</ele><time>2026-04-26T13:49:43.584Z</time></trkpt><trkpt lat="45.9449843" lon="11.5521435"><ele>1596.0</ele><time>2026-04-26T13:49:45.586Z</time></trkpt><trkpt lat="45.9449773" lon="11.5522438"><ele>1592.0</ele><time>2026-04-26T13:49:46.58Z</time></trkpt><trkpt lat="45.9449641" lon="11.552388"><ele>1588.0</ele><time>2026-04-26T13:49:47.58Z</time></trkpt><trkpt lat="45.9449348" lon="11.5525321"><ele>1584.0</ele><time>2026-04-26T13:49:48.583Z</time></trkpt><trkpt lat="45.9448901" lon="11.5526909"><ele>1580.0</ele><time>2026-04-26T13:49:49.576Z</time></trkpt><trkpt lat="45.9448305" lon="11.5528452"><ele>1581.25</ele><time>2026-04-26T13:49:50.599Z</time></trkpt><trkpt lat="45.944756" lon="11.553004"><ele>1582.5</ele><time>2026-04-26T13:49:51.582Z</time></trkpt><trkpt lat="45.94466" lon="11.553142"><ele>1583.75</ele><time>2026-04-26T13:49:52.572Z</time></trkpt><trkpt lat="45.9445572" lon="11.5532771"><ele>1585.0</ele><time>2026-04-26T13:49:53.587Z</time></trkpt><trkpt lat="45.944451" lon="11.5534048"><ele>1585.0</ele><time>2026-04-26T13:49:54.589Z</time></trkpt><trkpt lat="45.9443437" lon="11.5535371"><ele>1585.0</ele><time>2026-04-26T13:49:55.588Z</time></trkpt><trkpt lat="45.9442408" lon="11.5536686"><ele>1585.0</ele><time>2026-04-26T13:49:56.576Z</time></trkpt><trkpt lat="45.9441454" lon="11.5538113"><ele>1585.0</ele><time>2026-04-26T13:49:57.59Z</time></trkpt><trkpt lat="45.9440588" lon="11.5539494"><ele>1585.4</ele><time>2026-04-26T13:49:58.603Z</time></trkpt><trkpt lat="45.9439921" lon="11.5540916"><ele>1585.8</ele><time>2026-04-26T13:49:59.598Z</time></trkpt><trkpt lat="45.943948" lon="11.5542431"><ele>1586.1999999999998</ele><time>2026-04-26T13:50:00.583Z</time></trkpt><trkpt lat="45.9439054" lon="11.5543861"><ele>1586.6</ele><time>2026-04-26T13:50:01.591Z</time></trkpt><trkpt lat="45.9438657" lon="11.5545104"><ele>1587.0</ele><time>2026-04-26T13:50:02.572Z</time></trkpt><trkpt lat="45.9438136" lon="11.5546077"><ele>1587.0</ele><time>2026-04-26T13:50:03.585Z</time></trkpt><trkpt lat="45.9437454" lon="11.5546779"><ele>1587.0</ele><time>2026-04-26T13:50:04.582Z</time></trkpt><trkpt lat="45.9436652" lon="11.5546844"><ele>1587.0</ele><time>2026-04-26T13:50:05.598Z</time></trkpt><trkpt lat="45.9436022" lon="11.5546202"><ele>1587.0</ele><time>2026-04-26T13:50:06.584Z</time></trkpt><trkpt lat="45.9435717" lon="11.5545137"><ele>1587.0</ele><time>2026-04-26T13:50:07.589Z</time></trkpt><trkpt lat="45.9435458" lon="11.5543653"><ele>1587.0</ele><time>2026-04-26T13:50:08.579Z</time></trkpt><trkpt lat="45.9435384" lon="11.5542166"><ele>1584.8</ele><time>2026-04-26T13:50:09.58Z</time></trkpt><trkpt lat="45.9435108" lon="11.5540654"><ele>1582.6</ele><time>2026-04-26T13:50:10.581Z</time></trkpt><trkpt lat="45.9434647" lon="11.5539108"><ele>1580.3999999999999</ele><time>2026-04-26T13:50:11.585Z</time></trkpt><trkpt lat="45.9434218" lon="11.5537633"><ele>1578.1999999999998</ele><time>2026-04-26T13:50:12.578Z</time></trkpt><trkpt lat="45.9433861" lon="11.553622"><ele>1576.0</ele><time>2026-04-26T13:50:13.582Z</time></trkpt><trkpt lat="45.9433402" lon="11.5534982"><ele>1572.1999999999998</ele><time>2026-04-26T13:50:14.589Z</time></trkpt><trkpt lat="45.9432874" lon="11.5534005"><ele>1568.3999999999999</ele><time>2026-04-26T13:50:15.586Z</time></trkpt><trkpt lat="45.9432122" lon="11.553338"><ele>1564.6</ele><time>2026-04-26T13:50:16.581Z</time></trkpt><trkpt lat="45.9431116" lon="11.5532858"><ele>1560.8</ele><time>2026-04-26T13:50:17.589Z</time></trkpt><trkpt lat="45.9429836" lon="11.5532533"><ele>1557.0</ele><time>2026-04-26T13:50:18.58Z</time></trkpt><trkpt lat="45.9428429" lon="11.5532269"><ele>1557.0</ele><time>2026-04-26T13:50:19.606Z</time></trkpt><trkpt lat="45.9426988" lon="11.553213"><ele>1557.0</ele><time>2026-04-26T13:50:20.588Z</time></trkpt><trkpt lat="45.9425356" lon="11.5532089"><ele>1557.0</ele><time>2026-04-26T13:50:21.579Z</time></trkpt><trkpt lat="45.9423519" lon="11.5532134"><ele>1554.6666666666665</ele><time>2026-04-26T13:50:22.576Z</time></trkpt><trkpt lat="45.9421741" lon="11.5532269"><ele>1552.3333333333333</ele><time>2026-04-26T13:50:23.584Z</time></trkpt><trkpt lat="45.9420049" lon="11.5532558"><ele>1550.0</ele><time>2026-04-26T13:50:24.581Z</time></trkpt><trkpt lat="45.9418455" lon="11.5532935"><ele>1547.6666666666665</ele><time>2026-04-26T13:50:25.584Z</time></trkpt><trkpt lat="45.9416929" lon="11.553357"><ele>1545.3333333333335</ele><time>2026-04-26T13:50:26.58Z</time></trkpt><trkpt lat="45.9415572" lon="11.5534574"><ele>1543.0</ele><time>2026-04-26T13:50:27.574Z</time></trkpt><trkpt lat="45.9414342" lon="11.5535935"><ele>1546.0</ele><time>2026-04-26T13:50:28.585Z</time></trkpt><trkpt lat="45.9413232" lon="11.553733"><ele>1549.0</ele><time>2026-04-26T13:50:29.595Z</time></trkpt><trkpt lat="45.9412036" lon="11.5538212"><ele>1552.0</ele><time>2026-04-26T13:50:30.583Z</time></trkpt><trkpt lat="45.9410589" lon="11.5538401"><ele>1555.0</ele><time>2026-04-26T13:50:31.585Z</time></trkpt><trkpt lat="45.9409058" lon="11.5538321"><ele>1550.6666666666667</ele><time>2026-04-26T13:50:32.587Z</time></trkpt><trkpt lat="45.9407482" lon="11.5538381"><ele>1546.3333333333335</ele><time>2026-04-26T13:50:33.579Z</time></trkpt><trkpt lat="45.9405943" lon="11.5538432"><ele>1542.0</ele><time>2026-04-26T13:50:34.587Z</time></trkpt><trkpt lat="45.9404524" lon="11.5538603"><ele>1542.0</ele><time>2026-04-26T13:50:35.594Z</time></trkpt><trkpt lat="45.9403241" lon="11.5538969"><ele>1542.0</ele><time>2026-04-26T13:50:36.589Z</time></trkpt><trkpt lat="45.9402142" lon="11.5539656"><ele>1542.0</ele><time>2026-04-26T13:50:37.591Z</time></trkpt><trkpt lat="45.9401127" lon="11.554087"><ele>1542.0</ele><time>2026-04-26T13:50:38.579Z</time></trkpt><trkpt lat="45.9400271" lon="11.5542142"><ele>1540.0</ele><time>2026-04-26T13:50:39.595Z</time></trkpt><trkpt lat="45.9399555" lon="11.554341"><ele>1538.0</ele><time>2026-04-26T13:50:40.587Z</time></trkpt><trkpt lat="45.9398621" lon="11.5544537"><ele>1536.0</ele><time>2026-04-26T13:50:41.586Z</time></trkpt><trkpt lat="45.9397604" lon="11.5545321"><ele>1534.0</ele><time>2026-04-26T13:50:42.584Z</time></trkpt><trkpt lat="45.9396562" lon="11.5545759"><ele>1534.0</ele><time>2026-04-26T13:50:43.58Z</time></trkpt><trkpt lat="45.9395446" lon="11.5546112"><ele>1534.0</ele><time>2026-04-26T13:50:44.595Z</time></trkpt><trkpt lat="45.9394393" lon="11.5546533"><ele>1534.0</ele><time>2026-04-26T13:50:45.579Z</time></trkpt><trkpt lat="45.9393362" lon="11.5547094"><ele>1534.0</ele><time>2026-04-26T13:50:46.593Z</time></trkpt><trkpt lat="45.9392327" lon="11.5547782"><ele>1534.0</ele><time>2026-04-26T13:50:47.586Z</time></trkpt><trkpt lat="45.9391311" lon="11.55487"><ele>1530.75</ele><time>2026-04-26T13:50:48.596Z</time></trkpt><trkpt lat="45.9390246" lon="11.5549688"><ele>1527.5</ele><time>2026-04-26T13:50:49.585Z</time></trkpt><trkpt lat="45.9389214" lon="11.5550847"><ele>1524.25</ele><time>2026-04-26T13:50:50.586Z</time></trkpt><trkpt lat="45.9388173" lon="11.5552157"><ele>1521.0</ele><time>2026-04-26T13:50:51.596Z</time></trkpt><trkpt lat="45.9387097" lon="11.5553428"><ele>1522.25</ele><time>2026-04-26T13:50:52.574Z</time></trkpt><trkpt lat="45.938603" lon="11.5554791"><ele>1523.5</ele><time>2026-04-26T13:50:53.603Z</time></trkpt><trkpt lat="45.9384891" lon="11.5556116"><ele>1524.75</ele><time>2026-04-26T13:50:54.58Z</time></trkpt><trkpt lat="45.9383797" lon="11.55575"><ele>1526.0</ele><time>2026-04-26T13:50:55.582Z</time></trkpt><trkpt lat="45.9382692" lon="11.5558954"><ele>1524.0</ele><time>2026-04-26T13:50:56.578Z</time></trkpt><trkpt lat="45.9381606" lon="11.5560429"><ele>1522.0</ele><time>2026-04-26T13:50:57.583Z</time></trkpt><trkpt lat="45.9380552" lon="11.5561928"><ele>1520.0</ele><time>2026-04-26T13:50:58.61Z</time></trkpt><trkpt lat="45.9379523" lon="11.556343"><ele>1518.0</ele><time>2026-04-26T13:50:59.582Z</time></trkpt><trkpt lat="45.9378576" lon="11.5564904"><ele>1518.0</ele><time>2026-04-26T13:51:00.583Z</time></trkpt><trkpt lat="45.9377668" lon="11.5566421"><ele>1518.0</ele><time>2026-04-26T13:51:01.583Z</time></trkpt><trkpt lat="45.9376775" lon="11.5567684"><ele>1518.0</ele><time>2026-04-26T13:51:02.58Z</time></trkpt><trkpt lat="45.9375709" lon="11.556874"><ele>1518.0</ele><time>2026-04-26T13:51:03.584Z</time></trkpt><trkpt lat="45.9374493" lon="11.5569708"><ele>1516.5</ele><time>2026-04-26T13:51:04.587Z</time></trkpt><trkpt lat="45.9373238" lon="11.5570674"><ele>1515.0</ele><time>2026-04-26T13:51:05.586Z</time></trkpt><trkpt lat="45.9371977" lon="11.5571739"><ele>1513.5</ele><time>2026-04-26T13:51:06.574Z</time></trkpt><trkpt lat="45.9370755" lon="11.5572863"><ele>1512.0</ele><time>2026-04-26T13:51:07.584Z</time></trkpt><trkpt lat="45.9369526" lon="11.5573993"><ele>1512.0</ele><time>2026-04-26T13:51:08.582Z</time></trkpt><trkpt lat="45.9368254" lon="11.5575062"><ele>1512.0</ele><time>2026-04-26T13:51:09.603Z</time></trkpt><trkpt lat="45.9366893" lon="11.5575972"><ele>1512.0</ele><time>2026-04-26T13:51:10.588Z</time></trkpt><trkpt lat="45.9365507" lon="11.5576761"><ele>1512.0</ele><time>2026-04-26T13:51:11.582Z</time></trkpt><trkpt lat="45.9364061" lon="11.5577394"><ele>1510.25</ele><time>2026-04-26T13:51:12.583Z</time></trkpt><trkpt lat="45.9362585" lon="11.5577777"><ele>1508.5</ele><time>2026-04-26T13:51:13.592Z</time></trkpt><trkpt lat="45.9361098" lon="11.5577707"><ele>1506.75</ele><time>2026-04-26T13:51:14.588Z</time></trkpt><trkpt lat="45.9359653" lon="11.5577327"><ele>1505.0</ele><time>2026-04-26T13:51:15.59Z</time></trkpt><trkpt lat="45.9358193" lon="11.5576744"><ele>1504.3333333333335</ele><time>2026-04-26T13:51:16.587Z</time></trkpt><trkpt lat="45.9356752" lon="11.5576072"><ele>1503.6666666666667</ele><time>2026-04-26T13:51:17.592Z</time></trkpt><trkpt lat="45.9355283" lon="11.5575611"><ele>1503.0</ele><time>2026-04-26T13:51:18.586Z</time></trkpt><trkpt lat="45.9353692" lon="11.5575425"><ele>1503.0</ele><time>2026-04-26T13:51:19.585Z</time></trkpt><trkpt lat="45.9352083" lon="11.5575464"><ele>1503.0</ele><time>2026-04-26T13:51:20.598Z</time></trkpt><trkpt lat="45.9350467" lon="11.5575588"><ele>1503.0</ele><time>2026-04-26T13:51:21.59Z</time></trkpt><trkpt lat="45.9348817" lon="11.5575809"><ele>1501.3333333333333</ele><time>2026-04-26T13:51:22.588Z</time></trkpt><trkpt lat="45.9347179" lon="11.5576181"><ele>1499.6666666666665</ele><time>2026-04-26T13:51:23.585Z</time></trkpt><trkpt lat="45.9345618" lon="11.5576655"><ele>1498.0</ele><time>2026-04-26T13:51:24.591Z</time></trkpt><trkpt lat="45.9344072" lon="11.5577301"><ele>1498.0</ele><time>2026-04-26T13:51:25.596Z</time></trkpt><trkpt lat="45.9342526" lon="11.5578037"><ele>1498.0</ele><time>2026-04-26T13:51:26.583Z</time></trkpt><trkpt lat="45.9340996" lon="11.5578741"><ele>1498.0</ele><time>2026-04-26T13:51:27.597Z</time></trkpt><trkpt lat="45.9339434" lon="11.5579411"><ele>1497.5</ele><time>2026-04-26T13:51:28.585Z</time></trkpt><trkpt lat="45.9337967" lon="11.558008"><ele>1497.0</ele><time>2026-04-26T13:51:29.586Z</time></trkpt><trkpt lat="45.9336602" lon="11.5580664"><ele>1496.5</ele><time>2026-04-26T13:51:30.585Z</time></trkpt><trkpt lat="45.9335287" lon="11.5581064"><ele>1496.0</ele><time>2026-04-26T13:51:31.587Z</time></trkpt><trkpt lat="45.933402" lon="11.5581274"><ele>1494.25</ele><time>2026-04-26T13:51:32.586Z</time></trkpt><trkpt lat="45.9332789" lon="11.5581344"><ele>1492.5</ele><time>2026-04-26T13:51:33.588Z</time></trkpt><trkpt lat="45.9331627" lon="11.558138"><ele>1490.75</ele><time>2026-04-26T13:51:34.58Z</time></trkpt><trkpt lat="45.9330495" lon="11.5581419"><ele>1489.0</ele><time>2026-04-26T13:51:35.598Z</time></trkpt><trkpt lat="45.932939" lon="11.5581532"><ele>1489.0</ele><time>2026-04-26T13:51:36.596Z</time></trkpt><trkpt lat="45.9328332" lon="11.5581782"><ele>1489.0</ele><time>2026-04-26T13:51:37.6Z</time></trkpt><trkpt lat="45.9327327" lon="11.5582065"><ele>1489.0</ele><time>2026-04-26T13:51:38.599Z</time></trkpt><trkpt lat="45.9326406" lon="11.5582471"><ele>1489.0</ele><time>2026-04-26T13:51:39.584Z</time></trkpt><trkpt lat="45.9325488" lon="11.5582934"><ele>1489.0</ele><time>2026-04-26T13:51:40.581Z</time></trkpt><trkpt lat="45.9324654" lon="11.5583377"><ele>1488.1666666666665</ele><time>2026-04-26T13:51:41.584Z</time></trkpt><trkpt lat="45.9323816" lon="11.5583819"><ele>1487.3333333333333</ele><time>2026-04-26T13:51:42.588Z</time></trkpt><trkpt lat="45.9323006" lon="11.5584203"><ele>1486.5</ele><time>2026-04-26T13:51:43.603Z</time></trkpt><trkpt lat="45.932228" lon="11.5584492"><ele>1485.6666666666667</ele><time>2026-04-26T13:51:44.585Z</time></trkpt><trkpt lat="45.9321558" lon="11.558479"><ele>1484.8333333333335</ele><time>2026-04-26T13:51:45.585Z</time></trkpt><trkpt lat="45.9320771" lon="11.558504"><ele>1484.0</ele><time>2026-04-26T13:51:46.589Z</time></trkpt><trkpt lat="45.9319995" lon="11.5585327"><ele>1484.0</ele><time>2026-04-26T13:51:47.594Z</time></trkpt><trkpt lat="45.9319132" lon="11.558563"><ele>1484.0</ele><time>2026-04-26T13:51:48.592Z</time></trkpt><trkpt lat="45.9318325" lon="11.5586041"><ele>1484.0</ele><time>2026-04-26T13:51:49.596Z</time></trkpt><trkpt lat="45.9317503" lon="11.5586539"><ele>1484.0</ele><time>2026-04-26T13:51:50.592Z</time></trkpt><trkpt lat="45.9316682" lon="11.5587109"><ele>1484.0</ele><time>2026-04-26T13:51:51.578Z</time></trkpt><trkpt lat="45.9315809" lon="11.5587714"><ele>1484.6</ele><time>2026-04-26T13:51:52.607Z</time></trkpt><trkpt lat="45.9314926" lon="11.558836"><ele>1485.2</ele><time>2026-04-26T13:51:53.591Z</time></trkpt><trkpt lat="45.9314074" lon="11.5588989"><ele>1485.8</ele><time>2026-04-26T13:51:54.597Z</time></trkpt><trkpt lat="45.9313171" lon="11.5589631"><ele>1486.3999999999999</ele><time>2026-04-26T13:51:55.581Z</time></trkpt><trkpt lat="45.931223" lon="11.5590225"><ele>1487.0</ele><time>2026-04-26T13:51:56.591Z</time></trkpt><trkpt lat="45.9311293" lon="11.5590801"><ele>1487.0</ele><time>2026-04-26T13:51:57.578Z</time></trkpt><trkpt lat="45.9310367" lon="11.5591465"><ele>1487.0</ele><time>2026-04-26T13:51:58.584Z</time></trkpt><trkpt lat="45.9309468" lon="11.5592111"><ele>1487.0</ele><time>2026-04-26T13:51:59.594Z</time></trkpt><trkpt lat="45.9308558" lon="11.5592887"><ele>1487.0</ele><time>2026-04-26T13:52:00.586Z</time></trkpt><trkpt lat="45.9307699" lon="11.5593683"><ele>1487.0</ele><time>2026-04-26T13:52:01.582Z</time></trkpt><trkpt lat="45.9306884" lon="11.5594417"><ele>1488.0</ele><time>2026-04-26T13:52:02.593Z</time></trkpt><trkpt lat="45.9306018" lon="11.5595017"><ele>1489.0</ele><time>2026-04-26T13:52:03.57Z</time></trkpt><trkpt lat="45.9305109" lon="11.5595545"><ele>1490.0</ele><time>2026-04-26T13:52:04.6Z</time></trkpt><trkpt lat="45.9304107" lon="11.5596046"><ele>1491.0</ele><time>2026-04-26T13:52:05.581Z</time></trkpt><trkpt lat="45.9303114" lon="11.5596388"><ele>1492.0</ele><time>2026-04-26T13:52:06.582Z</time></trkpt><trkpt lat="45.9302169" lon="11.5596772"><ele>1492.0</ele><time>2026-04-26T13:52:07.584Z</time></trkpt><trkpt lat="45.9301235" lon="11.5597143"><ele>1492.0</ele><time>2026-04-26T13:52:08.578Z</time></trkpt><trkpt lat="45.9300345" lon="11.5597603"><ele>1492.0</ele><time>2026-04-26T13:52:09.587Z</time></trkpt><trkpt lat="45.9299445" lon="11.559808"><ele>1492.0</ele><time>2026-04-26T13:52:10.585Z</time></trkpt><trkpt lat="45.9298551" lon="11.5598531"><ele>1492.0</ele><time>2026-04-26T13:52:11.58Z</time></trkpt><trkpt lat="45.9297674" lon="11.5599013"><ele>1490.6</ele><time>2026-04-26T13:52:12.584Z</time></trkpt><trkpt lat="45.9296811" lon="11.5599458"><ele>1489.1999999999998</ele><time>2026-04-26T13:52:13.561Z</time></trkpt><trkpt lat="45.9295935" lon="11.5599976"><ele>1487.8</ele><time>2026-04-26T13:52:14.601Z</time></trkpt><trkpt lat="45.9295009" lon="11.5600391"><ele>1486.4</ele><time>2026-04-26T13:52:15.592Z</time></trkpt><trkpt lat="45.9293955" lon="11.5600683"><ele>1485.0</ele><time>2026-04-26T13:52:16.589Z</time></trkpt><trkpt lat="45.9292876" lon="11.5600797"><ele>1484.0</ele><time>2026-04-26T13:52:17.584Z</time></trkpt><trkpt lat="45.929175" lon="11.5600757"><ele>1483.0</ele><time>2026-04-26T13:52:18.576Z</time></trkpt><trkpt lat="45.929073" lon="11.5600546"><ele>1482.0</ele><time>2026-04-26T13:52:19.597Z</time></trkpt><trkpt lat="45.9289736" lon="11.5600211"><ele>1481.0</ele><time>2026-04-26T13:52:20.59Z</time></trkpt><trkpt lat="45.9288735" lon="11.559986"><ele>1480.0</ele><time>2026-04-26T13:52:21.59Z</time></trkpt><trkpt lat="45.9287797" lon="11.5599468"><ele>1480.0</ele><time>2026-04-26T13:52:22.591Z</time></trkpt><trkpt lat="45.9286906" lon="11.5599176"><ele>1480.0</ele><time>2026-04-26T13:52:23.583Z</time></trkpt><trkpt lat="45.9285961" lon="11.5598949"><ele>1480.0</ele><time>2026-04-26T13:52:24.594Z</time></trkpt><trkpt lat="45.9284946" lon="11.5598844"><ele>1480.0</ele><time>2026-04-26T13:52:25.583Z</time></trkpt><trkpt lat="45.9283788" lon="11.5598807"><ele>1480.0</ele><time>2026-04-26T13:52:26.581Z</time></trkpt><trkpt lat="45.9282406" lon="11.5599184"><ele>1479.3333333333333</ele><time>2026-04-26T13:52:27.585Z</time></trkpt><trkpt lat="45.9280847" lon="11.5599755"><ele>1478.6666666666667</ele><time>2026-04-26T13:52:28.602Z</time></trkpt><trkpt lat="45.9279117" lon="11.5600338"><ele>1478.0</ele><time>2026-04-26T13:52:29.572Z</time></trkpt><trkpt lat="45.9277272" lon="11.5600836"><ele>1475.6666666666667</ele><time>2026-04-26T13:52:30.585Z</time></trkpt><trkpt lat="45.9275446" lon="11.5601318"><ele>1473.3333333333333</ele><time>2026-04-26T13:52:31.585Z</time></trkpt><trkpt lat="45.9273591" lon="11.5602086"><ele>1471.0</ele><time>2026-04-26T13:52:32.586Z</time></trkpt><trkpt lat="45.9271647" lon="11.560301"><ele>1471.0</ele><time>2026-04-26T13:52:33.604Z</time></trkpt><trkpt lat="45.9269491" lon="11.5603652"><ele>1471.0</ele><time>2026-04-26T13:52:34.584Z</time></trkpt><trkpt lat="45.9267235" lon="11.5603807"><ele>1471.0</ele><time>2026-04-26T13:52:35.582Z</time></trkpt><trkpt lat="45.9265039" lon="11.5603863"><ele>1471.3333333333333</ele><time>2026-04-26T13:52:36.587Z</time></trkpt><trkpt lat="45.9262951" lon="11.560404"><ele>1471.6666666666667</ele><time>2026-04-26T13:52:37.587Z</time></trkpt><trkpt lat="45.9260942" lon="11.560432"><ele>1472.0</ele><time>2026-04-26T13:52:38.602Z</time></trkpt><trkpt lat="45.9258965" lon="11.5604672"><ele>1470.0</ele><time>2026-04-26T13:52:39.582Z</time></trkpt><trkpt lat="45.9257044" lon="11.5605017"><ele>1468.0</ele><time>2026-04-26T13:52:40.592Z</time></trkpt><trkpt lat="45.9255134" lon="11.5605411"><ele>1466.0</ele><time>2026-04-26T13:52:41.582Z</time></trkpt><trkpt lat="45.9253257" lon="11.5605764"><ele>1466.0</ele><time>2026-04-26T13:52:42.583Z</time></trkpt><trkpt lat="45.9251422" lon="11.5606014"><ele>1466.0</ele><time>2026-04-26T13:52:43.579Z</time></trkpt><trkpt lat="45.9249641" lon="11.5606159"><ele>1466.0</ele><time>2026-04-26T13:52:44.582Z</time></trkpt><trkpt lat="45.9247913" lon="11.5606299"><ele>1465.6666666666667</ele><time>2026-04-26T13:52:45.59Z</time></trkpt><trkpt lat="45.9246221" lon="11.5606425"><ele>1465.3333333333333</ele><time>2026-04-26T13:52:46.59Z</time></trkpt><trkpt lat="45.9244704" lon="11.5606415"><ele>1465.0</ele><time>2026-04-26T13:52:47.587Z</time></trkpt><trkpt lat="45.9243324" lon="11.5606287"><ele>1465.5</ele><time>2026-04-26T13:52:48.577Z</time></trkpt><trkpt lat="45.9242031" lon="11.5605871"><ele>1466.0</ele><time>2026-04-26T13:52:49.574Z</time></trkpt><trkpt lat="45.9240821" lon="11.5605292"><ele>1466.5</ele><time>2026-04-26T13:52:50.578Z</time></trkpt><trkpt lat="45.9239668" lon="11.5604876"><ele>1467.0</ele><time>2026-04-26T13:52:51.606Z</time></trkpt><trkpt lat="45.9238432" lon="11.5604861"><ele>1467.0</ele><time>2026-04-26T13:52:52.584Z</time></trkpt><trkpt lat="45.9237153" lon="11.5605271"><ele>1467.0</ele><time>2026-04-26T13:52:53.589Z</time></trkpt><trkpt lat="45.9235882" lon="11.5605757"><ele>1467.0</ele><time>2026-04-26T13:52:54.579Z</time></trkpt><trkpt lat="45.9234598" lon="11.5606381"><ele>1467.0</ele><time>2026-04-26T13:52:55.586Z</time></trkpt><trkpt lat="45.9233215" lon="11.5606945"><ele>1466.0</ele><time>2026-04-26T13:52:56.596Z</time></trkpt><trkpt lat="45.9231802" lon="11.5607558"><ele>1465.0</ele><time>2026-04-26T13:52:57.585Z</time></trkpt><trkpt lat="45.9230366" lon="11.5608257"><ele>1464.0</ele><time>2026-04-26T13:52:58.597Z</time></trkpt><trkpt lat="45.9228921" lon="11.5608914"><ele>1464.0</ele><time>2026-04-26T13:52:59.577Z</time></trkpt><trkpt lat="45.9227548" lon="11.5609566"><ele>1464.0</ele><time>2026-04-26T13:53:00.601Z</time></trkpt><trkpt lat="45.9226209" lon="11.5610127"><ele>1464.0</ele><time>2026-04-26T13:53:01.584Z</time></trkpt><trkpt lat="45.9224863" lon="11.5610356"><ele>1464.0</ele><time>2026-04-26T13:53:02.585Z</time></trkpt><trkpt lat="45.9223621" lon="11.5610153"><ele>1462.0</ele><time>2026-04-26T13:53:03.575Z</time></trkpt><trkpt lat="45.9222486" lon="11.5609523"><ele>1460.0</ele><time>2026-04-26T13:53:04.587Z</time></trkpt><trkpt lat="45.9221233" lon="11.5608903"><ele>1458.0</ele><time>2026-04-26T13:53:05.575Z</time></trkpt><trkpt lat="45.9219894" lon="11.5608742"><ele>1456.0</ele><time>2026-04-26T13:53:06.576Z</time></trkpt><trkpt lat="45.9218507" lon="11.5608829"><ele>1453.75</ele><time>2026-04-26T13:53:07.58Z</time></trkpt><trkpt lat="45.9217099" lon="11.5609061"><ele>1451.5</ele><time>2026-04-26T13:53:08.583Z</time></trkpt><trkpt lat="45.9215641" lon="11.5609395"><ele>1449.25</ele><time>2026-04-26T13:53:09.583Z</time></trkpt><trkpt lat="45.9214178" lon="11.5609767"><ele>1447.0</ele><time>2026-04-26T13:53:10.61Z</time></trkpt><trkpt lat="45.9212741" lon="11.5610071"><ele>1447.0</ele><time>2026-04-26T13:53:11.577Z</time></trkpt><trkpt lat="45.9211317" lon="11.5610327"><ele>1447.0</ele><time>2026-04-26T13:53:12.576Z</time></trkpt><trkpt lat="45.9209886" lon="11.5610474"><ele>1447.0</ele><time>2026-04-26T13:53:13.579Z</time></trkpt><trkpt lat="45.9208458" lon="11.5610554"><ele>1447.0</ele><time>2026-04-26T13:53:14.588Z</time></trkpt><trkpt lat="45.920704" lon="11.5610457"><ele>1445.75</ele><time>2026-04-26T13:53:15.573Z</time></trkpt><trkpt lat="45.9205667" lon="11.561024"><ele>1444.5</ele><time>2026-04-26T13:53:16.592Z</time></trkpt><trkpt lat="45.9204258" lon="11.56101"><ele>1443.25</ele><time>2026-04-26T13:53:17.584Z</time></trkpt><trkpt lat="45.9202888" lon="11.5610144"><ele>1442.0</ele><time>2026-04-26T13:53:18.575Z</time></trkpt><trkpt lat="45.9201493" lon="11.561044"><ele>1441.5</ele><time>2026-04-26T13:53:19.58Z</time></trkpt><trkpt lat="45.9200112" lon="11.561091"><ele>1441.0</ele><time>2026-04-26T13:53:20.588Z</time></trkpt><trkpt lat="45.9198726" lon="11.5611548"><ele>1440.5</ele><time>2026-04-26T13:53:21.586Z</time></trkpt><trkpt lat="45.9197333" lon="11.5612194"><ele>1440.0</ele><time>2026-04-26T13:53:22.577Z</time></trkpt><trkpt lat="45.9195915" lon="11.5612823"><ele>1437.5</ele><time>2026-04-26T13:53:23.576Z</time></trkpt><trkpt lat="45.9194483" lon="11.5613481"><ele>1435.0</ele><time>2026-04-26T13:53:24.582Z</time></trkpt><trkpt lat="45.9193077" lon="11.5614132"><ele>1432.5</ele><time>2026-04-26T13:53:25.583Z</time></trkpt><trkpt lat="45.9191653" lon="11.5614741"><ele>1430.0</ele><time>2026-04-26T13:53:26.577Z</time></trkpt><trkpt lat="45.9190167" lon="11.5615427"><ele>1429.5</ele><time>2026-04-26T13:53:27.577Z</time></trkpt><trkpt lat="45.9188743" lon="11.5616071"><ele>1429.0</ele><time>2026-04-26T13:53:28.573Z</time></trkpt><trkpt lat="45.918736" lon="11.5616589"><ele>1428.5</ele><time>2026-04-26T13:53:29.583Z</time></trkpt><trkpt lat="45.9186032" lon="11.5617147"><ele>1428.0</ele><time>2026-04-26T13:53:30.59Z</time></trkpt><trkpt lat="45.9184699" lon="11.5617796"><ele>1427.75</ele><time>2026-04-26T13:53:31.575Z</time></trkpt><trkpt lat="45.9183413" lon="11.5618639"><ele>1427.5</ele><time>2026-04-26T13:53:32.573Z</time></trkpt><trkpt lat="45.9182213" lon="11.5619761"><ele>1427.25</ele><time>2026-04-26T13:53:33.588Z</time></trkpt><trkpt lat="45.9181205" lon="11.5621233"><ele>1427.0</ele><time>2026-04-26T13:53:34.581Z</time></trkpt><trkpt lat="45.9180334" lon="11.5622818"><ele>1427.0</ele><time>2026-04-26T13:53:35.573Z</time></trkpt><trkpt lat="45.9179603" lon="11.56245"><ele>1427.0</ele><time>2026-04-26T13:53:36.584Z</time></trkpt><trkpt lat="45.9178971" lon="11.5626212"><ele>1427.0</ele><time>2026-04-26T13:53:37.583Z</time></trkpt><trkpt lat="45.9178555" lon="11.5628002"><ele>1427.0</ele><time>2026-04-26T13:53:38.577Z</time></trkpt><trkpt lat="45.9178274" lon="11.5629736"><ele>1427.75</ele><time>2026-04-26T13:53:39.595Z</time></trkpt><trkpt lat="45.9178134" lon="11.5631397"><ele>1428.5</ele><time>2026-04-26T13:53:40.589Z</time></trkpt><trkpt lat="45.9178085" lon="11.5633036"><ele>1429.25</ele><time>2026-04-26T13:53:41.592Z</time></trkpt><trkpt lat="45.9177926" lon="11.563475"><ele>1430.0</ele><time>2026-04-26T13:53:42.582Z</time></trkpt><trkpt lat="45.9177694" lon="11.5636525"><ele>1429.0</ele><time>2026-04-26T13:53:43.586Z</time></trkpt><trkpt lat="45.9177199" lon="11.5638211"><ele>1428.0</ele><time>2026-04-26T13:53:44.591Z</time></trkpt><trkpt lat="45.9176513" lon="11.5639786"><ele>1427.0</ele><time>2026-04-26T13:53:45.577Z</time></trkpt><trkpt lat="45.9175751" lon="11.5641261"><ele>1426.0</ele><time>2026-04-26T13:53:46.581Z</time></trkpt><trkpt lat="45.9174969" lon="11.5642601"><ele>1426.0</ele><time>2026-04-26T13:53:47.58Z</time></trkpt><trkpt lat="45.9174134" lon="11.5643935"><ele>1426.0</ele><time>2026-04-26T13:53:48.577Z</time></trkpt><trkpt lat="45.9173285" lon="11.56454"><ele>1426.0</ele><time>2026-04-26T13:53:49.586Z</time></trkpt><trkpt lat="45.9172333" lon="11.5646825"><ele>1426.0</ele><time>2026-04-26T13:53:50.574Z</time></trkpt><trkpt lat="45.917134" lon="11.5648135"><ele>1425.75</ele><time>2026-04-26T13:53:51.592Z</time></trkpt><trkpt lat="45.91703" lon="11.5649391"><ele>1425.5</ele><time>2026-04-26T13:53:52.578Z</time></trkpt><trkpt lat="45.916923" lon="11.5650521"><ele>1425.25</ele><time>2026-04-26T13:53:53.593Z</time></trkpt><trkpt lat="45.9168172" lon="11.5651514"><ele>1425.0</ele><time>2026-04-26T13:53:54.585Z</time></trkpt><trkpt lat="45.9167167" lon="11.565245"><ele>1423.8</ele><time>2026-04-26T13:53:55.568Z</time></trkpt><trkpt lat="45.9166203" lon="11.5653431"><ele>1422.6</ele><time>2026-04-26T13:53:56.582Z</time></trkpt><trkpt lat="45.9165322" lon="11.5654375"><ele>1421.4</ele><time>2026-04-26T13:53:57.583Z</time></trkpt><trkpt lat="45.9164428" lon="11.5655325"><ele>1420.2</ele><time>2026-04-26T13:53:58.594Z</time></trkpt><trkpt lat="45.9163568" lon="11.5656237"><ele>1419.0</ele><time>2026-04-26T13:53:59.59Z</time></trkpt><trkpt lat="45.9162707" lon="11.565716"><ele>1418.5</ele><time>2026-04-26T13:54:00.586Z</time></trkpt><trkpt lat="45.9161793" lon="11.5658094"><ele>1418.0</ele><time>2026-04-26T13:54:01.592Z</time></trkpt><trkpt lat="45.916085" lon="11.5659078"><ele>1417.5</ele><time>2026-04-26T13:54:02.594Z</time></trkpt><trkpt lat="45.9159851" lon="11.5660023"><ele>1417.0</ele><time>2026-04-26T13:54:03.579Z</time></trkpt><trkpt lat="45.9158843" lon="11.5660972"><ele>1417.0</ele><time>2026-04-26T13:54:04.583Z</time></trkpt><trkpt lat="45.9157782" lon="11.566182"><ele>1417.0</ele><time>2026-04-26T13:54:05.578Z</time></trkpt><trkpt lat="45.9156665" lon="11.5662727"><ele>1417.0</ele><time>2026-04-26T13:54:06.591Z</time></trkpt><trkpt lat="45.9155578" lon="11.5663615"><ele>1417.0</ele><time>2026-04-26T13:54:07.585Z</time></trkpt><trkpt lat="45.915457" lon="11.5664463"><ele>1416.25</ele><time>2026-04-26T13:54:08.592Z</time></trkpt><trkpt lat="45.9153514" lon="11.5665274"><ele>1415.5</ele><time>2026-04-26T13:54:09.59Z</time></trkpt><trkpt lat="45.9152442" lon="11.5665966"><ele>1414.75</ele><time>2026-04-26T13:54:10.58Z</time></trkpt><trkpt lat="45.9151326" lon="11.5666633"><ele>1414.0</ele><time>2026-04-26T13:54:11.581Z</time></trkpt><trkpt lat="45.9150157" lon="11.5667292"><ele>1412.75</ele><time>2026-04-26T13:54:12.577Z</time></trkpt><trkpt lat="45.9148902" lon="11.5667992"><ele>1411.5</ele><time>2026-04-26T13:54:13.586Z</time></trkpt><trkpt lat="45.9147552" lon="11.5668719"><ele>1410.25</ele><time>2026-04-26T13:54:14.584Z</time></trkpt><trkpt lat="45.9146021" lon="11.5669548"><ele>1409.0</ele><time>2026-04-26T13:54:15.57Z</time></trkpt><trkpt lat="45.9144396" lon="11.5670431"><ele>1407.0</ele><time>2026-04-26T13:54:16.592Z</time></trkpt><trkpt lat="45.914261" lon="11.5671317"><ele>1405.0</ele><time>2026-04-26T13:54:17.579Z</time></trkpt><trkpt lat="45.9140763" lon="11.5672244"><ele>1403.0</ele><time>2026-04-26T13:54:18.59Z</time></trkpt><trkpt lat="45.9138817" lon="11.5673145"><ele>1403.0</ele><time>2026-04-26T13:54:19.585Z</time></trkpt><trkpt lat="45.9136964" lon="11.5673896"><ele>1403.0</ele><time>2026-04-26T13:54:20.588Z</time></trkpt><trkpt lat="45.9135182" lon="11.5674563"><ele>1403.0</ele><time>2026-04-26T13:54:21.584Z</time></trkpt><trkpt lat="45.9133438" lon="11.5674943"><ele>1400.0</ele><time>2026-04-26T13:54:22.59Z</time></trkpt><trkpt lat="45.9131667" lon="11.5675295"><ele>1397.0</ele><time>2026-04-26T13:54:23.588Z</time></trkpt><trkpt lat="45.9129965" lon="11.5675864"><ele>1394.0</ele><time>2026-04-26T13:54:24.594Z</time></trkpt><trkpt lat="45.9128404" lon="11.5676652"><ele>1394.0</ele><time>2026-04-26T13:54:25.592Z</time></trkpt><trkpt lat="45.9126903" lon="11.5677589"><ele>1394.0</ele><time>2026-04-26T13:54:26.585Z</time></trkpt><trkpt lat="45.9125427" lon="11.5678464"><ele>1394.0</ele><time>2026-04-26T13:54:27.58Z</time></trkpt><trkpt lat="45.9123928" lon="11.5678952"><ele>1393.3333333333335</ele><time>2026-04-26T13:54:28.572Z</time></trkpt><trkpt lat="45.9122424" lon="11.5679039"><ele>1392.6666666666667</ele><time>2026-04-26T13:54:29.58Z</time></trkpt><trkpt lat="45.9120904" lon="11.5678564"><ele>1392.0</ele><time>2026-04-26T13:54:30.573Z</time></trkpt><trkpt lat="45.911951" lon="11.5677905"><ele>1392.0</ele><time>2026-04-26T13:54:31.591Z</time></trkpt><trkpt lat="45.9118079" lon="11.5677198"><ele>1392.0</ele><time>2026-04-26T13:54:32.582Z</time></trkpt><trkpt lat="45.9116507" lon="11.5676756"><ele>1392.0</ele><time>2026-04-26T13:54:33.583Z</time></trkpt><trkpt lat="45.9114893" lon="11.5676808"><ele>1389.3333333333333</ele><time>2026-04-26T13:54:34.584Z</time></trkpt><trkpt lat="45.9113088" lon="11.5677254"><ele>1386.6666666666665</ele><time>2026-04-26T13:54:35.577Z</time></trkpt><trkpt lat="45.9111269" lon="11.5677906"><ele>1384.0</ele><time>2026-04-26T13:54:36.58Z</time></trkpt><trkpt lat="45.9109504" lon="11.5678652"><ele>1373.6666666666665</ele><time>2026-04-26T13:54:37.575Z</time></trkpt><trkpt lat="45.9107878" lon="11.5679418"><ele>1363.3333333333333</ele><time>2026-04-26T13:54:38.58Z</time></trkpt><trkpt lat="45.9106167" lon="11.568007"><ele>1353.0</ele><time>2026-04-26T13:54:39.584Z</time></trkpt><trkpt lat="45.9104451" lon="11.5680507"><ele>1353.0</ele><time>2026-04-26T13:54:40.582Z</time></trkpt><trkpt lat="45.9102827" lon="11.5680921"><ele>1353.0</ele><time>2026-04-26T13:54:41.579Z</time></trkpt><trkpt lat="45.9101232" lon="11.5681322"><ele>1353.0</ele><time>2026-04-26T13:54:42.57Z</time></trkpt><trkpt lat="45.9099648" lon="11.5681779"><ele>1350.0</ele><time>2026-04-26T13:54:43.572Z</time></trkpt><trkpt lat="45.9098024" lon="11.5682159"><ele>1347.0</ele><time>2026-04-26T13:54:44.581Z</time></trkpt><trkpt lat="45.9096408" lon="11.5682447"><ele>1344.0</ele><time>2026-04-26T13:54:45.584Z</time></trkpt><trkpt lat="45.9094733" lon="11.5682605"><ele>1344.0</ele><time>2026-04-26T13:54:46.587Z</time></trkpt><trkpt lat="45.9093065" lon="11.5682723"><ele>1344.0</ele><time>2026-04-26T13:54:47.573Z</time></trkpt><trkpt lat="45.9091367" lon="11.5682939"><ele>1344.0</ele><time>2026-04-26T13:54:48.594Z</time></trkpt><trkpt lat="45.9089666" lon="11.5683159"><ele>1342.3333333333333</ele><time>2026-04-26T13:54:49.597Z</time></trkpt><trkpt lat="45.9087975" lon="11.5683339"><ele>1340.6666666666665</ele><time>2026-04-26T13:54:50.585Z</time></trkpt><trkpt lat="45.9086242" lon="11.5683562"><ele>1339.0</ele><time>2026-04-26T13:54:51.58Z</time></trkpt><trkpt lat="45.9084495" lon="11.56838"><ele>1334.6666666666665</ele><time>2026-04-26T13:54:52.58Z</time></trkpt><trkpt lat="45.9082728" lon="11.5683949"><ele>1330.3333333333333</ele><time>2026-04-26T13:54:53.595Z</time></trkpt><trkpt lat="45.908102" lon="11.5684113"><ele>1326.0</ele><time>2026-04-26T13:54:54.58Z</time></trkpt><trkpt lat="45.9079317" lon="11.5684282"><ele>1326.0</ele><time>2026-04-26T13:54:55.58Z</time></trkpt><trkpt lat="45.9077664" lon="11.5684468"><ele>1326.0</ele><time>2026-04-26T13:54:56.588Z</time></trkpt><trkpt lat="45.907604" lon="11.5684495"><ele>1326.0</ele><time>2026-04-26T13:54:57.581Z</time></trkpt><trkpt lat="45.9074482" lon="11.5684274"><ele>1321.0</ele><time>2026-04-26T13:54:58.582Z</time></trkpt><trkpt lat="45.9072933" lon="11.5683649"><ele>1316.0</ele><time>2026-04-26T13:54:59.595Z</time></trkpt><trkpt lat="45.9071376" lon="11.5682867"><ele>1311.0</ele><time>2026-04-26T13:55:00.575Z</time></trkpt><trkpt lat="45.9069729" lon="11.5681966"><ele>1311.0</ele><time>2026-04-26T13:55:01.572Z</time></trkpt><trkpt lat="45.906818" lon="11.5681028"><ele>1311.0</ele><time>2026-04-26T13:55:02.573Z</time></trkpt><trkpt lat="45.9066724" lon="11.5680077"><ele>1311.0</ele><time>2026-04-26T13:55:03.577Z</time></trkpt><trkpt lat="45.9065203" lon="11.5679057"><ele>1313.0</ele><time>2026-04-26T13:55:04.581Z</time></trkpt><trkpt lat="45.9063697" lon="11.5677923"><ele>1315.0</ele><time>2026-04-26T13:55:05.575Z</time></trkpt><trkpt lat="45.9062146" lon="11.5676776"><ele>1317.0</ele><time>2026-04-26T13:55:06.577Z</time></trkpt><trkpt lat="45.9060523" lon="11.5675536"><ele>1305.6666666666667</ele><time>2026-04-26T13:55:07.579Z</time></trkpt><trkpt lat="45.9058924" lon="11.567415"><ele>1294.3333333333335</ele><time>2026-04-26T13:55:08.591Z</time></trkpt><trkpt lat="45.905739" lon="11.5672705"><ele>1283.0</ele><time>2026-04-26T13:55:09.573Z</time></trkpt><trkpt lat="45.9055824" lon="11.5671211"><ele>1292.3333333333335</ele><time>2026-04-26T13:55:10.583Z</time></trkpt><trkpt lat="45.905421" lon="11.5669744"><ele>1301.6666666666667</ele><time>2026-04-26T13:55:11.586Z</time></trkpt><trkpt lat="45.9052588" lon="11.5668328"><ele>1311.0</ele><time>2026-04-26T13:55:12.58Z</time></trkpt><trkpt lat="45.9050986" lon="11.5667005"><ele>1300.0</ele><time>2026-04-26T13:55:13.582Z</time></trkpt><trkpt lat="45.9049372" lon="11.5665756"><ele>1289.0</ele><time>2026-04-26T13:55:14.58Z</time></trkpt><trkpt lat="45.9047762" lon="11.5664386"><ele>1278.0</ele><time>2026-04-26T13:55:15.585Z</time></trkpt><trkpt lat="45.9046116" lon="11.5663012"><ele>1276.6666666666667</ele><time>2026-04-26T13:55:16.575Z</time></trkpt><trkpt lat="45.904448" lon="11.5661656"><ele>1275.3333333333335</ele><time>2026-04-26T13:55:17.577Z</time></trkpt><trkpt lat="45.9042789" lon="11.5660464"><ele>1274.0</ele><time>2026-04-26T13:55:18.576Z</time></trkpt><trkpt lat="45.9040986" lon="11.5659578"><ele>1274.0</ele><time>2026-04-26T13:55:19.579Z</time></trkpt><trkpt lat="45.9039133" lon="11.5658826"><ele>1274.0</ele><time>2026-04-26T13:55:20.592Z</time></trkpt><trkpt lat="45.9037285" lon="11.5657986"><ele>1274.0</ele><time>2026-04-26T13:55:21.579Z</time></trkpt><trkpt lat="45.9035466" lon="11.5656977"><ele>1275.0</ele><time>2026-04-26T13:55:22.582Z</time></trkpt><trkpt lat="45.9033709" lon="11.5655754"><ele>1276.0</ele><time>2026-04-26T13:55:23.574Z</time></trkpt><trkpt lat="45.9031948" lon="11.5654549"><ele>1277.0</ele><time>2026-04-26T13:55:24.588Z</time></trkpt><trkpt lat="45.9030192" lon="11.5653271"><ele>1277.0</ele><time>2026-04-26T13:55:25.58Z</time></trkpt><trkpt lat="45.9028497" lon="11.5651843"><ele>1277.0</ele><time>2026-04-26T13:55:26.581Z</time></trkpt><trkpt lat="45.9026734" lon="11.5650609"><ele>1277.0</ele><time>2026-04-26T13:55:27.579Z</time></trkpt><trkpt lat="45.9025044" lon="11.5649452"><ele>1265.6666666666667</ele><time>2026-04-26T13:55:28.571Z</time></trkpt><trkpt lat="45.9023416" lon="11.5648464"><ele>1254.3333333333333</ele><time>2026-04-26T13:55:29.579Z</time></trkpt><trkpt lat="45.9021946" lon="11.5647526"><ele>1243.0</ele><time>2026-04-26T13:55:30.579Z</time></trkpt><trkpt lat="45.90206" lon="11.5646312"><ele>1239.3333333333333</ele><time>2026-04-26T13:55:31.581Z</time></trkpt><trkpt lat="45.9019364" lon="11.5644947"><ele>1235.6666666666667</ele><time>2026-04-26T13:55:32.583Z</time></trkpt><trkpt lat="45.9018285" lon="11.5643168"><ele>1232.0</ele><time>2026-04-26T13:55:33.576Z</time></trkpt><trkpt lat="45.9017251" lon="11.5641169"><ele>1232.0</ele><time>2026-04-26T13:55:34.593Z</time></trkpt><trkpt lat="45.9016282" lon="11.5639232"><ele>1232.0</ele><time>2026-04-26T13:55:35.584Z</time></trkpt><trkpt lat="45.9015321" lon="11.5637574"><ele>1232.0</ele><time>2026-04-26T13:55:36.574Z</time></trkpt><trkpt lat="45.9014457" lon="11.5636097"><ele>1234.0</ele><time>2026-04-26T13:55:37.578Z</time></trkpt><trkpt lat="45.9013888" lon="11.5634627"><ele>1236.0</ele><time>2026-04-26T13:55:38.584Z</time></trkpt><trkpt lat="45.9013744" lon="11.5632876"><ele>1238.0</ele><time>2026-04-26T13:55:39.589Z</time></trkpt><trkpt lat="45.9014007" lon="11.5631013"><ele>1240.0</ele><time>2026-04-26T13:55:40.582Z</time></trkpt><trkpt lat="45.9014291" lon="11.5629214"><ele>1239.75</ele><time>2026-04-26T13:55:41.601Z</time></trkpt><trkpt lat="45.9014442" lon="11.5627264"><ele>1239.5</ele><time>2026-04-26T13:55:42.588Z</time></trkpt><trkpt lat="45.9014457" lon="11.5625283"><ele>1239.25</ele><time>2026-04-26T13:55:43.579Z</time></trkpt><trkpt lat="45.9014426" lon="11.5623629"><ele>1239.0</ele><time>2026-04-26T13:55:44.591Z</time></trkpt><trkpt lat="45.9014357" lon="11.5622038"><ele>1239.0</ele><time>2026-04-26T13:55:45.581Z</time></trkpt><trkpt lat="45.9014253" lon="11.562057"><ele>1239.0</ele><time>2026-04-26T13:55:46.613Z</time></trkpt><trkpt lat="45.9014107" lon="11.5619452"><ele>1239.0</ele><time>2026-04-26T13:55:47.592Z</time></trkpt><trkpt lat="45.9013628" lon="11.5618542"><ele>1239.0</ele><time>2026-04-26T13:55:48.586Z</time></trkpt><trkpt lat="45.9012783" lon="11.5617919"><ele>1239.0</ele><time>2026-04-26T13:55:49.59Z</time></trkpt><trkpt lat="45.9011872" lon="11.5617362"><ele>1239.0</ele><time>2026-04-26T13:55:50.594Z</time></trkpt><trkpt lat="45.9011037" lon="11.5616713"><ele>1239.0</ele><time>2026-04-26T13:55:51.592Z</time></trkpt><trkpt lat="45.9010256" lon="11.5615772"><ele>1239.0</ele><time>2026-04-26T13:55:52.597Z</time></trkpt><trkpt lat="45.900962" lon="11.5614583"><ele>1239.0</ele><time>2026-04-26T13:55:53.584Z</time></trkpt><trkpt lat="45.900905" lon="11.5613177"><ele>1239.0</ele><time>2026-04-26T13:55:54.581Z</time></trkpt><trkpt lat="45.9008515" lon="11.5611742"><ele>1234.8</ele><time>2026-04-26T13:55:55.58Z</time></trkpt><trkpt lat="45.9007959" lon="11.5610409"><ele>1230.6000000000001</ele><time>2026-04-26T13:55:56.576Z</time></trkpt><trkpt lat="45.9007408" lon="11.5609174"><ele>1226.4</ele><time>2026-04-26T13:55:57.599Z</time></trkpt><trkpt lat="45.9007036" lon="11.5608008"><ele>1222.2</ele><time>2026-04-26T13:55:58.581Z</time></trkpt><trkpt lat="45.9006859" lon="11.5606756"><ele>1218.0</ele><time>2026-04-26T13:55:59.59Z</time></trkpt><trkpt lat="45.9006772" lon="11.5605498"><ele>1218.0</ele><time>2026-04-26T13:56:00.575Z</time></trkpt><trkpt lat="45.900667" lon="11.5604399"><ele>1218.0</ele><time>2026-04-26T13:56:01.576Z</time></trkpt><trkpt lat="45.9006282" lon="11.5603604"><ele>1218.0</ele><time>2026-04-26T13:56:02.576Z</time></trkpt><trkpt lat="45.9005743" lon="11.5603076"><ele>1218.0</ele><time>2026-04-26T13:56:03.577Z</time></trkpt><trkpt lat="45.9005004" lon="11.5602993"><ele>1218.0</ele><time>2026-04-26T13:56:04.581Z</time></trkpt><trkpt lat="45.9004173" lon="11.5603651"><ele>1218.0</ele><time>2026-04-26T13:56:05.588Z</time></trkpt><trkpt lat="45.9003247" lon="11.5604624"><ele>1218.0</ele><time>2026-04-26T13:56:06.593Z</time></trkpt><trkpt lat="45.9002398" lon="11.56061"><ele>1218.0</ele><time>2026-04-26T13:56:07.576Z</time></trkpt><trkpt lat="45.9001016" lon="11.5607279"><ele>1218.0</ele><time>2026-04-26T13:56:08.585Z</time></trkpt><trkpt lat="45.8999667" lon="11.5608401"><ele>1213.75</ele><time>2026-04-26T13:56:09.574Z</time></trkpt><trkpt lat="45.8998551" lon="11.5609607"><ele>1209.5</ele><time>2026-04-26T13:56:10.585Z</time></trkpt><trkpt lat="45.899771" lon="11.5610874"><ele>1205.25</ele><time>2026-04-26T13:56:11.59Z</time></trkpt><trkpt lat="45.8996966" lon="11.561186"><ele>1201.0</ele><time>2026-04-26T13:56:12.589Z</time></trkpt><trkpt lat="45.8996072" lon="11.5612448"><ele>1201.0</ele><time>2026-04-26T13:56:13.589Z</time></trkpt><trkpt lat="45.8994862" lon="11.5612217"><ele>1201.0</ele><time>2026-04-26T13:56:14.585Z</time></trkpt><trkpt lat="45.8993632" lon="11.5611666"><ele>1201.0</ele><time>2026-04-26T13:56:15.593Z</time></trkpt><trkpt lat="45.8992227" lon="11.5610825"><ele>1201.0</ele><time>2026-04-26T13:56:16.584Z</time></trkpt><trkpt lat="45.8990761" lon="11.5609824"><ele>1199.0</ele><time>2026-04-26T13:56:17.576Z</time></trkpt><trkpt lat="45.8989185" lon="11.56087"><ele>1197.0</ele><time>2026-04-26T13:56:18.571Z</time></trkpt><trkpt lat="45.8987599" lon="11.5607547"><ele>1195.0</ele><time>2026-04-26T13:56:19.58Z</time></trkpt><trkpt lat="45.8986252" lon="11.5606137"><ele>1195.0</ele><time>2026-04-26T13:56:20.581Z</time></trkpt><trkpt lat="45.8985144" lon="11.560423"><ele>1195.0</ele><time>2026-04-26T13:56:21.589Z</time></trkpt><trkpt lat="45.898412" lon="11.5602281"><ele>1195.0</ele><time>2026-04-26T13:56:22.599Z</time></trkpt><trkpt lat="45.8983009" lon="11.5600356"><ele>1197.0</ele><time>2026-04-26T13:56:23.579Z</time></trkpt><trkpt lat="45.8981747" lon="11.5598453"><ele>1199.0</ele><time>2026-04-26T13:56:24.579Z</time></trkpt><trkpt lat="45.8980484" lon="11.5596552"><ele>1201.0</ele><time>2026-04-26T13:56:25.58Z</time></trkpt><trkpt lat="45.8979199" lon="11.5594681"><ele>1201.0</ele><time>2026-04-26T13:56:26.597Z</time></trkpt><trkpt lat="45.8977969" lon="11.5592926"><ele>1201.0</ele><time>2026-04-26T13:56:27.58Z</time></trkpt><trkpt lat="45.8976741" lon="11.5591455"><ele>1201.0</ele><time>2026-04-26T13:56:28.569Z</time></trkpt><trkpt lat="45.8975477" lon="11.5590221"><ele>1195.75</ele><time>2026-04-26T13:56:29.596Z</time></trkpt><trkpt lat="45.8974234" lon="11.558924"><ele>1190.5</ele><time>2026-04-26T13:56:30.573Z</time></trkpt><trkpt lat="45.897299" lon="11.5589004"><ele>1185.25</ele><time>2026-04-26T13:56:31.584Z</time></trkpt><trkpt lat="45.8971609" lon="11.5589478"><ele>1180.0</ele><time>2026-04-26T13:56:32.576Z</time></trkpt><trkpt lat="45.8970099" lon="11.5590169"><ele>1180.0</ele><time>2026-04-26T13:56:33.578Z</time></trkpt><trkpt lat="45.8968419" lon="11.5590653"><ele>1180.0</ele><time>2026-04-26T13:56:34.582Z</time></trkpt><trkpt lat="45.8966785" lon="11.5590747"><ele>1180.0</ele><time>2026-04-26T13:56:35.577Z</time></trkpt><trkpt lat="45.8965277" lon="11.5590421"><ele>1178.0</ele><time>2026-04-26T13:56:36.598Z</time></trkpt><trkpt lat="45.8963908" lon="11.559027"><ele>1176.0</ele><time>2026-04-26T13:56:37.592Z</time></trkpt><trkpt lat="45.8962651" lon="11.5590165"><ele>1174.0</ele><time>2026-04-26T13:56:38.569Z</time></trkpt><trkpt lat="45.8961584" lon="11.5590694"><ele>1172.0</ele><time>2026-04-26T13:56:39.58Z</time></trkpt><trkpt lat="45.8960683" lon="11.5591941"><ele>1172.0</ele><time>2026-04-26T13:56:40.575Z</time></trkpt><trkpt lat="45.8960198" lon="11.5593653"><ele>1172.0</ele><time>2026-04-26T13:56:41.578Z</time></trkpt><trkpt lat="45.8959885" lon="11.5595628"><ele>1172.0</ele><time>2026-04-26T13:56:42.59Z</time></trkpt><trkpt lat="45.8959675" lon="11.5597772"><ele>1172.0</ele><time>2026-04-26T13:56:43.573Z</time></trkpt><trkpt lat="45.8959369" lon="11.559987"><ele>1167.6666666666667</ele><time>2026-04-26T13:56:44.579Z</time></trkpt><trkpt lat="45.8958889" lon="11.5601909"><ele>1163.3333333333333</ele><time>2026-04-26T13:56:45.583Z</time></trkpt><trkpt lat="45.8958089" lon="11.5603775"><ele>1159.0</ele><time>2026-04-26T13:56:46.572Z</time></trkpt><trkpt lat="45.8957008" lon="11.5605343"><ele>1154.6000000000001</ele><time>2026-04-26T13:56:47.579Z</time></trkpt><trkpt lat="45.8956012" lon="11.560636"><ele>1150.2</ele><time>2026-04-26T13:56:48.58Z</time></trkpt><trkpt lat="45.8955139" lon="11.5606674"><ele>1145.8000000000002</ele><time>2026-04-26T13:56:49.58Z</time></trkpt><trkpt lat="45.8954047" lon="11.5606291"><ele>1141.4</ele><time>2026-04-26T13:56:50.583Z</time></trkpt><trkpt lat="45.895304" lon="11.5605411"><ele>1137.0</ele><time>2026-04-26T13:56:51.592Z</time></trkpt><trkpt lat="45.8952109" lon="11.5604038"><ele>1138.6666666666667</ele><time>2026-04-26T13:56:52.585Z</time></trkpt><trkpt lat="45.8951075" lon="11.5602512"><ele>1140.3333333333335</ele><time>2026-04-26T13:56:53.585Z</time></trkpt><trkpt lat="45.8949894" lon="11.5600567"><ele>1142.0</ele><time>2026-04-26T13:56:54.583Z</time></trkpt><trkpt lat="45.8948607" lon="11.5598703"><ele>1142.0</ele><time>2026-04-26T13:56:55.587Z</time></trkpt><trkpt lat="45.8947255" lon="11.5596815"><ele>1142.0</ele><time>2026-04-26T13:56:56.586Z</time></trkpt><trkpt lat="45.8945816" lon="11.5595042"><ele>1142.0</ele><time>2026-04-26T13:56:57.575Z</time></trkpt><trkpt lat="45.8944292" lon="11.559336"><ele>1137.6666666666667</ele><time>2026-04-26T13:56:58.601Z</time></trkpt><trkpt lat="45.8942701" lon="11.5592024"><ele>1133.3333333333333</ele><time>2026-04-26T13:56:59.578Z</time></trkpt><trkpt lat="45.8941159" lon="11.5590728"><ele>1129.0</ele><time>2026-04-26T13:57:00.593Z</time></trkpt><trkpt lat="45.8939665" lon="11.5589432"><ele>1129.0</ele><time>2026-04-26T13:57:01.568Z</time></trkpt><trkpt lat="45.8938244" lon="11.5587941"><ele>1129.0</ele><time>2026-04-26T13:57:02.578Z</time></trkpt><trkpt lat="45.8936895" lon="11.5586283"><ele>1129.0</ele><time>2026-04-26T13:57:03.596Z</time></trkpt><trkpt lat="45.8935631" lon="11.5584483"><ele>1133.0</ele><time>2026-04-26T13:57:04.594Z</time></trkpt><trkpt lat="45.8934274" lon="11.5582598"><ele>1137.0</ele><time>2026-04-26T13:57:05.602Z</time></trkpt><trkpt lat="45.893299" lon="11.558067"><ele>1141.0</ele><time>2026-04-26T13:57:06.585Z</time></trkpt><trkpt lat="45.8931787" lon="11.557879"><ele>1135.6666666666665</ele><time>2026-04-26T13:57:07.596Z</time></trkpt><trkpt lat="45.8930616" lon="11.5576951"><ele>1130.3333333333333</ele><time>2026-04-26T13:57:08.574Z</time></trkpt><trkpt lat="45.8929521" lon="11.557521"><ele>1125.0</ele><time>2026-04-26T13:57:09.592Z</time></trkpt><trkpt lat="45.8928497" lon="11.5573332"><ele>1125.0</ele><time>2026-04-26T13:57:10.575Z</time></trkpt><trkpt lat="45.8927495" lon="11.5571543"><ele>1125.0</ele><time>2026-04-26T13:57:11.576Z</time></trkpt><trkpt lat="45.8926506" lon="11.5569707"><ele>1125.0</ele><time>2026-04-26T13:57:12.577Z</time></trkpt><trkpt lat="45.8925621" lon="11.5567745"><ele>1121.0</ele><time>2026-04-26T13:57:13.588Z</time></trkpt><trkpt lat="45.8924797" lon="11.5565765"><ele>1117.0</ele><time>2026-04-26T13:57:14.575Z</time></trkpt><trkpt lat="45.8924119" lon="11.5563739"><ele>1113.0</ele><time>2026-04-26T13:57:15.595Z</time></trkpt><trkpt lat="45.8923596" lon="11.5561721"><ele>1113.0</ele><time>2026-04-26T13:57:16.591Z</time></trkpt><trkpt lat="45.8923184" lon="11.5559618"><ele>1113.0</ele><time>2026-04-26T13:57:17.589Z</time></trkpt><trkpt lat="45.89229" lon="11.5557497"><ele>1113.0</ele><time>2026-04-26T13:57:18.593Z</time></trkpt><trkpt lat="45.8922688" lon="11.5555289"><ele>1113.0</ele><time>2026-04-26T13:57:19.581Z</time></trkpt><trkpt lat="45.8922423" lon="11.5553145"><ele>1113.0</ele><time>2026-04-26T13:57:20.581Z</time></trkpt><trkpt lat="45.892201" lon="11.5551008"><ele>1113.0</ele><time>2026-04-26T13:57:21.587Z</time></trkpt><trkpt lat="45.8921577" lon="11.5548902"><ele>1113.0</ele><time>2026-04-26T13:57:22.59Z</time></trkpt><trkpt lat="45.8921177" lon="11.5546842"><ele>1113.0</ele><time>2026-04-26T13:57:23.575Z</time></trkpt><trkpt lat="45.8920888" lon="11.5544943"><ele>1113.0</ele><time>2026-04-26T13:57:24.607Z</time></trkpt><trkpt lat="45.8920721" lon="11.5542996"><ele>1113.0</ele><time>2026-04-26T13:57:25.587Z</time></trkpt><trkpt lat="45.8920655" lon="11.5541065"><ele>1112.25</ele><time>2026-04-26T13:57:26.587Z</time></trkpt><trkpt lat="45.8920699" lon="11.5539173"><ele>1111.5</ele><time>2026-04-26T13:57:27.591Z</time></trkpt><trkpt lat="45.8920744" lon="11.5537374"><ele>1110.75</ele><time>2026-04-26T13:57:28.585Z</time></trkpt><trkpt lat="45.8920807" lon="11.5535592"><ele>1110.0</ele><time>2026-04-26T13:57:29.586Z</time></trkpt><trkpt lat="45.8920886" lon="11.5533859"><ele>1108.4</ele><time>2026-04-26T13:57:30.577Z</time></trkpt><trkpt lat="45.8920985" lon="11.5532173"><ele>1106.8</ele><time>2026-04-26T13:57:31.586Z</time></trkpt><trkpt lat="45.8920936" lon="11.5530682"><ele>1105.2</ele><time>2026-04-26T13:57:32.575Z</time></trkpt><trkpt lat="45.8920811" lon="11.552932"><ele>1103.6</ele><time>2026-04-26T13:57:33.578Z</time></trkpt><trkpt lat="45.892065" lon="11.5528118"><ele>1102.0</ele><time>2026-04-26T13:57:34.578Z</time></trkpt><trkpt lat="45.8920505" lon="11.5527002"><ele>1101.6666666666665</ele><time>2026-04-26T13:57:35.582Z</time></trkpt><trkpt lat="45.8920349" lon="11.552609"><ele>1101.3333333333333</ele><time>2026-04-26T13:57:36.582Z</time></trkpt><trkpt lat="45.8920185" lon="11.5524676"><ele>1101.0</ele><time>2026-04-26T13:57:38.585Z</time></trkpt><trkpt lat="45.8920014" lon="11.5523675"><ele>1100.6666666666667</ele><time>2026-04-26T13:57:41.587Z</time></trkpt><trkpt lat="45.8919929" lon="11.5522451"><ele>1100.3333333333335</ele><time>2026-04-26T13:58:25.584Z</time></trkpt><trkpt lat="45.8920003" lon="11.5520631"><ele>1100.0</ele><time>2026-04-26T13:58:27.567Z</time></trkpt><trkpt lat="45.8920113" lon="11.5519459"><ele>1099.6</ele><time>2026-04-26T13:58:28.585Z</time></trkpt><trkpt lat="45.8920245" lon="11.5518229"><ele>1099.2</ele><time>2026-04-26T13:58:29.588Z</time></trkpt><trkpt lat="45.8920449" lon="11.551697"><ele>1098.8</ele><time>2026-04-26T13:58:30.577Z</time></trkpt><trkpt lat="45.8920668" lon="11.5515663"><ele>1098.4</ele><time>2026-04-26T13:58:31.58Z</time></trkpt><trkpt lat="45.8920816" lon="11.5514277"><ele>1098.0</ele><time>2026-04-26T13:58:32.594Z</time></trkpt><trkpt lat="45.8921017" lon="11.5512879"><ele>1097.6</ele><time>2026-04-26T13:58:33.602Z</time></trkpt><trkpt lat="45.8921146" lon="11.5511607"><ele>1097.1999999999998</ele><time>2026-04-26T13:58:34.584Z</time></trkpt><trkpt lat="45.8921252" lon="11.5510176"><ele>1096.8</ele><time>2026-04-26T13:58:35.58Z</time></trkpt><trkpt lat="45.8921401" lon="11.550876"><ele>1096.3999999999999</ele><time>2026-04-26T13:58:36.581Z</time></trkpt><trkpt lat="45.8921603" lon="11.5507329"><ele>1096.0</ele><time>2026-04-26T13:58:37.594Z</time></trkpt><trkpt lat="45.8921763" lon="11.5505903"><ele>1096.0</ele><time>2026-04-26T13:58:38.579Z</time></trkpt><trkpt lat="45.8921917" lon="11.5504537"><ele>1096.0</ele><time>2026-04-26T13:58:39.582Z</time></trkpt><trkpt lat="45.8922098" lon="11.5503186"><ele>1096.0</ele><time>2026-04-26T13:58:40.59Z</time></trkpt><trkpt lat="45.8922305" lon="11.5501867"><ele>1096.0</ele><time>2026-04-26T13:58:41.589Z</time></trkpt><trkpt lat="45.8922512" lon="11.5500498"><ele>1096.0</ele><time>2026-04-26T13:58:42.579Z</time></trkpt><trkpt lat="45.8922639" lon="11.5499074"><ele>1094.8</ele><time>2026-04-26T13:58:43.58Z</time></trkpt><trkpt lat="45.8922786" lon="11.5497654"><ele>1093.6</ele><time>2026-04-26T13:58:44.606Z</time></trkpt><trkpt lat="45.8922951" lon="11.5496251"><ele>1092.4</ele><time>2026-04-26T13:58:45.592Z</time></trkpt><trkpt lat="45.892314" lon="11.5494815"><ele>1091.2</ele><time>2026-04-26T13:58:46.583Z</time></trkpt><trkpt lat="45.8923386" lon="11.5493375"><ele>1090.0</ele><time>2026-04-26T13:58:47.597Z</time></trkpt><trkpt lat="45.8923551" lon="11.5491964"><ele>1089.2</ele><time>2026-04-26T13:58:48.584Z</time></trkpt><trkpt lat="45.8923729" lon="11.5490687"><ele>1088.4</ele><time>2026-04-26T13:58:49.598Z</time></trkpt><trkpt lat="45.8923937" lon="11.5489454"><ele>1087.6</ele><time>2026-04-26T13:58:50.6Z</time></trkpt><trkpt lat="45.8924111" lon="11.548823"><ele>1086.8</ele><time>2026-04-26T13:58:51.593Z</time></trkpt><trkpt lat="45.8924275" lon="11.5486925"><ele>1086.0</ele><time>2026-04-26T13:58:52.581Z</time></trkpt><trkpt lat="45.8924497" lon="11.5485623"><ele>1086.0</ele><time>2026-04-26T13:58:53.577Z</time></trkpt><trkpt lat="45.892468" lon="11.548443"><ele>1086.0</ele><time>2026-04-26T13:58:54.584Z</time></trkpt><trkpt lat="45.8924813" lon="11.5483327"><ele>1086.0</ele><time>2026-04-26T13:58:55.58Z</time></trkpt><trkpt lat="45.8924899" lon="11.5482222"><ele>1086.0</ele><time>2026-04-26T13:58:56.605Z</time></trkpt><trkpt lat="45.8925015" lon="11.5481209"><ele>1086.0</ele><time>2026-04-26T13:58:57.591Z</time></trkpt><trkpt lat="45.8925216" lon="11.5480201"><ele>1086.0</ele><time>2026-04-26T13:58:58.6Z</time></trkpt><trkpt lat="45.8925245" lon="11.5479296"><ele>1086.0</ele><time>2026-04-26T13:58:59.588Z</time></trkpt><trkpt lat="45.8924804" lon="11.5478062"><ele>1086.1666666666667</ele><time>2026-04-26T13:59:01.603Z</time></trkpt><trkpt lat="45.89235" lon="11.547776"><ele>1086.3333333333333</ele><time>2026-04-26T13:59:03.6Z</time></trkpt><trkpt lat="45.8922674" lon="11.5477804"><ele>1086.5</ele><time>2026-04-26T13:59:04.582Z</time></trkpt><trkpt lat="45.8921922" lon="11.5477845"><ele>1086.6666666666665</ele><time>2026-04-26T13:59:05.587Z</time></trkpt><trkpt lat="45.8921151" lon="11.5477795"><ele>1086.8333333333333</ele><time>2026-04-26T13:59:06.592Z</time></trkpt><trkpt lat="45.8920382" lon="11.5477777"><ele>1087.0</ele><time>2026-04-26T13:59:07.585Z</time></trkpt><trkpt lat="45.8919673" lon="11.5477646"><ele>1087.0</ele><time>2026-04-26T13:59:08.588Z</time></trkpt><trkpt lat="45.8918961" lon="11.5477353"><ele>1087.0</ele><time>2026-04-26T13:59:10.597Z</time></trkpt><trkpt lat="45.8918707" lon="11.5476376"><ele>1087.0</ele><time>2026-04-26T13:59:13.578Z</time></trkpt><trkpt lat="45.8919005" lon="11.5477214"><ele>1087.0</ele><time>2026-04-26T14:00:02.59Z</time></trkpt><trkpt lat="45.8920052" lon="11.5477448"><ele>1087.0</ele><time>2026-04-26T14:00:05.585Z</time></trkpt><trkpt lat="45.8920673" lon="11.5477229"><ele>1087.0</ele><time>2026-04-26T14:00:06.585Z</time></trkpt><trkpt lat="45.8921356" lon="11.5477144"><ele>1087.0</ele><time>2026-04-26T14:00:07.589Z</time></trkpt><trkpt lat="45.8922128" lon="11.5477212"><ele>1087.0</ele><time>2026-04-26T14:00:08.597Z</time></trkpt><trkpt lat="45.8922817" lon="11.5477257"><ele>1087.0</ele><time>2026-04-26T14:00:09.595Z</time></trkpt><trkpt lat="45.8923697" lon="11.5477632"><ele>1087.0</ele><time>2026-04-26T14:00:11.586Z</time></trkpt><trkpt lat="45.892461" lon="11.5477673"><ele>1087.0</ele><time>2026-04-26T14:00:16.581Z</time></trkpt><trkpt lat="45.8925166" lon="11.54761"><ele>1087.0</ele><time>2026-04-26T14:00:18.574Z</time></trkpt><trkpt lat="45.8925273" lon="11.5474887"><ele>1087.0</ele><time>2026-04-26T14:00:19.589Z</time></trkpt><trkpt lat="45.8925506" lon="11.547377"><ele>1087.0</ele><time>2026-04-26T14:00:20.576Z</time></trkpt><trkpt lat="45.8925873" lon="11.547273"><ele>1087.0</ele><time>2026-04-26T14:00:21.591Z</time></trkpt><trkpt lat="45.8926305" lon="11.5471629"><ele>1087.0</ele><time>2026-04-26T14:00:22.581Z</time></trkpt><trkpt lat="45.8926731" lon="11.547065"><ele>1087.0</ele><time>2026-04-26T14:00:23.582Z</time></trkpt><trkpt lat="45.892764" lon="11.5469622"><ele>1085.3333333333333</ele><time>2026-04-26T14:00:25.58Z</time></trkpt><trkpt lat="45.8928305" lon="11.5469337"><ele>1083.6666666666667</ele><time>2026-04-26T14:00:28.592Z</time></trkpt><trkpt lat="45.8928863" lon="11.5468646"><ele>1082.0</ele><time>2026-04-26T14:00:34.578Z</time></trkpt><trkpt lat="45.8925937" lon="11.5472719"><ele>1083.0</ele><time>2026-04-26T14:03:25.937Z</time></trkpt><trkpt lat="45.8925503" lon="11.5473423"><ele>1084.0</ele><time>2026-04-26T14:04:16.952Z</time></trkpt><trkpt lat="45.8925165" lon="11.5475317"><ele>1085.0</ele><time>2026-04-26T14:04:20.287Z</time></trkpt><trkpt lat="45.892483" lon="11.547634"><ele>1086.0</ele><time>2026-04-26T14:04:28.235Z</time></trkpt><trkpt lat="45.8924114" lon="11.5476399"><ele>1087.0</ele><time>2026-04-26T14:04:33.29Z</time></trkpt><trkpt lat="45.8923034" lon="11.5475633"><ele>1087.0</ele><time>2026-04-26T14:04:44.579Z</time></trkpt><trkpt lat="45.8922969" lon="11.5474669"><ele>1087.0</ele><time>2026-04-26T14:05:09.567Z</time></trkpt><trkpt lat="45.892334" lon="11.5473743"><ele>1087.0</ele><time>2026-04-26T14:05:14.552Z</time></trkpt><trkpt lat="45.8923898" lon="11.5473257"><ele>1087.0</ele><time>2026-04-26T14:05:17.569Z</time></trkpt><trkpt lat="45.8924564" lon="11.5473028"><ele>1087.0</ele><time>2026-04-26T14:06:52.858Z</time></trkpt><trkpt lat="45.8925147" lon="11.5472317"><ele>1087.0</ele><time>2026-04-26T14:06:59.804Z</time></trkpt><trkpt lat="45.8925671" lon="11.5472836"><ele>1087.0</ele><time>2026-04-26T14:09:17.886Z</time></trkpt><trkpt lat="45.8924906" lon="11.5471756"><ele>1087.0</ele><time>2026-04-26T14:10:57.574Z</time></trkpt><trkpt lat="45.8925648" lon="11.5471988"><ele>1087.0</ele><time>2026-04-26T14:12:33.733Z</time></trkpt><trkpt lat="45.8924895" lon="11.5471554"><ele>1087.0</ele><time>2026-04-26T14:13:03.565Z</time></trkpt><trkpt lat="45.8925791" lon="11.5471872"><ele>1087.0</ele><time>2026-04-26T14:16:05.186Z</time></trkpt><trkpt lat="45.8926503" lon="11.5471783"><ele>1087.0</ele><time>2026-04-26T14:16:10.196Z</time></trkpt><trkpt lat="45.8927488" lon="11.5471596"><ele>1087.0</ele><time>2026-04-26T14:16:15.299Z</time></trkpt><trkpt lat="45.8928135" lon="11.5471285"><ele>1085.6</ele><time>2026-04-26T14:16:20.004Z</time></trkpt><trkpt lat="45.8928535" lon="11.5470211"><ele>1084.2</ele><time>2026-04-26T14:16:22.538Z</time></trkpt><trkpt lat="45.8930309" lon="11.5469991"><ele>1082.8</ele><time>2026-04-26T14:16:40.48Z</time></trkpt><trkpt lat="45.8929366" lon="11.5469574"><ele>1081.4</ele><time>2026-04-26T14:17:27.418Z</time></trkpt><trkpt lat="45.8928827" lon="11.5468594"><ele>1080.0</ele><time>2026-04-26T14:17:31.567Z</time></trkpt><trkpt lat="45.8928126" lon="11.5469751"><ele>1080.0</ele><time>2026-04-26T14:18:48.046Z</time></trkpt><trkpt lat="45.8927546" lon="11.5470881"><ele>1080.0</ele><time>2026-04-26T14:18:55.589Z</time></trkpt><trkpt lat="45.8926694" lon="11.5471994"><ele>1080.0</ele><time>2026-04-26T14:19:10.43Z</time></trkpt><trkpt lat="45.8929807" lon="11.5466639"><ele>1080.0</ele><time>2026-04-26T14:21:21.6Z</time></trkpt><trkpt lat="45.8930107" lon="11.5465451"><ele>1080.0</ele><time>2026-04-26T14:21:22.597Z</time></trkpt><trkpt lat="45.8930241" lon="11.5464536"><ele>1080.0</ele><time>2026-04-26T14:21:23.589Z</time></trkpt><trkpt lat="45.8930414" lon="11.5462827"><ele>1080.0</ele><time>2026-04-26T14:21:25.615Z</time></trkpt><trkpt lat="45.8930466" lon="11.546191"><ele>1080.0</ele><time>2026-04-26T14:21:26.579Z</time></trkpt><trkpt lat="45.8930438" lon="11.5460853"><ele>1080.0</ele><time>2026-04-26T14:21:27.57Z</time></trkpt><trkpt lat="45.8930321" lon="11.5459649"><ele>1079.8</ele><time>2026-04-26T14:21:28.571Z</time></trkpt><trkpt lat="45.8930039" lon="11.5458232"><ele>1079.6</ele><time>2026-04-26T14:21:29.593Z</time></trkpt><trkpt lat="45.8929656" lon="11.5456872"><ele>1079.4</ele><time>2026-04-26T14:21:30.569Z</time></trkpt><trkpt lat="45.8929252" lon="11.5455547"><ele>1079.2</ele><time>2026-04-26T14:21:31.562Z</time></trkpt><trkpt lat="45.8928874" lon="11.5454242"><ele>1079.0</ele><time>2026-04-26T14:21:32.576Z</time></trkpt><trkpt lat="45.8928553" lon="11.5452989"><ele>1079.0</ele><time>2026-04-26T14:21:33.573Z</time></trkpt><trkpt lat="45.8928279" lon="11.5451764"><ele>1079.0</ele><time>2026-04-26T14:21:34.576Z</time></trkpt><trkpt lat="45.8928094" lon="11.5450565"><ele>1079.0</ele><time>2026-04-26T14:21:35.579Z</time></trkpt><trkpt lat="45.8928107" lon="11.544942"><ele>1079.0</ele><time>2026-04-26T14:21:36.583Z</time></trkpt><trkpt lat="45.8928269" lon="11.5448357"><ele>1079.0</ele><time>2026-04-26T14:21:37.575Z</time></trkpt><trkpt lat="45.8928421" lon="11.5447283"><ele>1079.0</ele><time>2026-04-26T14:21:38.571Z</time></trkpt><trkpt lat="45.89284" lon="11.5446211"><ele>1079.0</ele><time>2026-04-26T14:21:39.565Z</time></trkpt><trkpt lat="45.8928224" lon="11.5445134"><ele>1079.0</ele><time>2026-04-26T14:21:40.565Z</time></trkpt><trkpt lat="45.8927921" lon="11.5444183"><ele>1079.0</ele><time>2026-04-26T14:21:41.578Z</time></trkpt><trkpt lat="45.8927434" lon="11.5443294"><ele>1079.0</ele><time>2026-04-26T14:21:42.59Z</time></trkpt><trkpt lat="45.8926784" lon="11.5442391"><ele>1079.0</ele><time>2026-04-26T14:21:43.588Z</time></trkpt><trkpt lat="45.8925893" lon="11.5441605"><ele>1079.0</ele><time>2026-04-26T14:21:44.591Z</time></trkpt><trkpt lat="45.8925055" lon="11.5440881"><ele>1077.6666666666667</ele><time>2026-04-26T14:21:45.591Z</time></trkpt><trkpt lat="45.8924329" lon="11.5439815"><ele>1076.3333333333333</ele><time>2026-04-26T14:21:46.568Z</time></trkpt><trkpt lat="45.8923664" lon="11.5438364"><ele>1075.0</ele><time>2026-04-26T14:21:47.568Z</time></trkpt><trkpt lat="45.8922213" lon="11.5435075"><ele>1074.5</ele><time>2026-04-26T14:21:49.582Z</time></trkpt><trkpt lat="45.8921345" lon="11.5433382"><ele>1074.0</ele><time>2026-04-26T14:21:50.577Z</time></trkpt><trkpt lat="45.892044" lon="11.5431764"><ele>1073.5</ele><time>2026-04-26T14:21:51.576Z</time></trkpt><trkpt lat="45.8919436" lon="11.5430329"><ele>1073.0</ele><time>2026-04-26T14:21:52.571Z</time></trkpt><trkpt lat="45.8918438" lon="11.5428893"><ele>1073.5</ele><time>2026-04-26T14:21:53.567Z</time></trkpt><trkpt lat="45.8917436" lon="11.5427602"><ele>1074.0</ele><time>2026-04-26T14:21:54.574Z</time></trkpt><trkpt lat="45.8916355" lon="11.5426381"><ele>1074.5</ele><time>2026-04-26T14:21:55.587Z</time></trkpt><trkpt lat="45.8915229" lon="11.5425207"><ele>1075.0</ele><time>2026-04-26T14:21:56.571Z</time></trkpt><trkpt lat="45.8914143" lon="11.5424046"><ele>1075.0</ele><time>2026-04-26T14:21:57.577Z</time></trkpt><trkpt lat="45.8912937" lon="11.5422881"><ele>1075.0</ele><time>2026-04-26T14:21:58.59Z</time></trkpt><trkpt lat="45.8911679" lon="11.5421839"><ele>1075.0</ele><time>2026-04-26T14:21:59.587Z</time></trkpt><trkpt lat="45.8910429" lon="11.5420786"><ele>1075.0</ele><time>2026-04-26T14:22:00.576Z</time></trkpt><trkpt lat="45.8909159" lon="11.5419763"><ele>1074.25</ele><time>2026-04-26T14:22:01.574Z</time></trkpt><trkpt lat="45.8907912" lon="11.5418747"><ele>1073.5</ele><time>2026-04-26T14:22:02.58Z</time></trkpt><trkpt lat="45.8906622" lon="11.5417662"><ele>1072.75</ele><time>2026-04-26T14:22:03.569Z</time></trkpt><trkpt lat="45.8905357" lon="11.5416492"><ele>1072.0</ele><time>2026-04-26T14:22:04.576Z</time></trkpt><trkpt lat="45.8904131" lon="11.5415496"><ele>1072.0</ele><time>2026-04-26T14:22:05.588Z</time></trkpt><trkpt lat="45.8903023" lon="11.5414605"><ele>1072.0</ele><time>2026-04-26T14:22:06.576Z</time></trkpt><trkpt lat="45.8902039" lon="11.5413807"><ele>1072.0</ele><time>2026-04-26T14:22:07.571Z</time></trkpt><trkpt lat="45.8901047" lon="11.541309"><ele>1072.0</ele><time>2026-04-26T14:22:08.575Z</time></trkpt><trkpt lat="45.8899995" lon="11.541247"><ele>1073.0</ele><time>2026-04-26T14:22:09.583Z</time></trkpt><trkpt lat="45.8898876" lon="11.5411796"><ele>1074.0</ele><time>2026-04-26T14:22:10.567Z</time></trkpt><trkpt lat="45.8897707" lon="11.5411255"><ele>1075.0</ele><time>2026-04-26T14:22:11.564Z</time></trkpt><trkpt lat="45.8896391" lon="11.541075"><ele>1076.0</ele><time>2026-04-26T14:22:12.581Z</time></trkpt><trkpt lat="45.8895069" lon="11.5410315"><ele>1076.0</ele><time>2026-04-26T14:22:13.579Z</time></trkpt><trkpt lat="45.8893688" lon="11.5409895"><ele>1076.0</ele><time>2026-04-26T14:22:14.58Z</time></trkpt><trkpt lat="45.8892159" lon="11.5409643"><ele>1076.0</ele><time>2026-04-26T14:22:15.574Z</time></trkpt><trkpt lat="45.8890577" lon="11.5409419"><ele>1075.0</ele><time>2026-04-26T14:22:16.58Z</time></trkpt><trkpt lat="45.8888991" lon="11.5409173"><ele>1074.0</ele><time>2026-04-26T14:22:17.575Z</time></trkpt><trkpt lat="45.8887376" lon="11.5408984"><ele>1073.0</ele><time>2026-04-26T14:22:18.593Z</time></trkpt><trkpt lat="45.8885794" lon="11.5408865"><ele>1073.0</ele><time>2026-04-26T14:22:19.578Z</time></trkpt><trkpt lat="45.8884319" lon="11.5408569"><ele>1073.0</ele><time>2026-04-26T14:22:20.571Z</time></trkpt><trkpt lat="45.8882972" lon="11.5408276"><ele>1073.0</ele><time>2026-04-26T14:22:21.594Z</time></trkpt><trkpt lat="45.8881645" lon="11.5407882"><ele>1073.0</ele><time>2026-04-26T14:22:22.58Z</time></trkpt><trkpt lat="45.8880386" lon="11.5407232"><ele>1073.25</ele><time>2026-04-26T14:22:23.572Z</time></trkpt><trkpt lat="45.8879204" lon="11.5406292"><ele>1073.5</ele><time>2026-04-26T14:22:24.585Z</time></trkpt><trkpt lat="45.8878034" lon="11.5405178"><ele>1073.75</ele><time>2026-04-26T14:22:25.578Z</time></trkpt><trkpt lat="45.8876841" lon="11.5403902"><ele>1074.0</ele><time>2026-04-26T14:22:26.581Z</time></trkpt><trkpt lat="45.8875665" lon="11.5402671"><ele>1074.0</ele><time>2026-04-26T14:22:27.575Z</time></trkpt><trkpt lat="45.8874402" lon="11.5401408"><ele>1074.0</ele><time>2026-04-26T14:22:28.584Z</time></trkpt><trkpt lat="45.8873151" lon="11.5400118"><ele>1074.0</ele><time>2026-04-26T14:22:29.585Z</time></trkpt><trkpt lat="45.8871878" lon="11.5398779"><ele>1074.0</ele><time>2026-04-26T14:22:30.574Z</time></trkpt><trkpt lat="45.8870506" lon="11.5397452"><ele>1074.0</ele><time>2026-04-26T14:22:31.577Z</time></trkpt><trkpt lat="45.8869154" lon="11.5396101"><ele>1074.0</ele><time>2026-04-26T14:22:32.577Z</time></trkpt><trkpt lat="45.8867798" lon="11.5394742"><ele>1074.0</ele><time>2026-04-26T14:22:33.587Z</time></trkpt><trkpt lat="45.8866456" lon="11.5393332"><ele>1074.0</ele><time>2026-04-26T14:22:34.577Z</time></trkpt><trkpt lat="45.8865093" lon="11.5391785"><ele>1074.0</ele><time>2026-04-26T14:22:35.591Z</time></trkpt><trkpt lat="45.8863769" lon="11.5390251"><ele>1074.0</ele><time>2026-04-26T14:22:36.584Z</time></trkpt><trkpt lat="45.8862527" lon="11.5388578"><ele>1074.0</ele><time>2026-04-26T14:22:37.581Z</time></trkpt><trkpt lat="45.8861366" lon="11.53868"><ele>1074.0</ele><time>2026-04-26T14:22:38.585Z</time></trkpt><trkpt lat="45.8860291" lon="11.5385023"><ele>1073.0</ele><time>2026-04-26T14:22:39.576Z</time></trkpt><trkpt lat="45.8859268" lon="11.5383281"><ele>1072.0</ele><time>2026-04-26T14:22:40.591Z</time></trkpt><trkpt lat="45.885823" lon="11.5381587"><ele>1071.0</ele><time>2026-04-26T14:22:41.6Z</time></trkpt><trkpt lat="45.8857058" lon="11.5379825"><ele>1070.3333333333333</ele><time>2026-04-26T14:22:42.574Z</time></trkpt><trkpt lat="45.885587" lon="11.5377871"><ele>1069.6666666666665</ele><time>2026-04-26T14:22:43.572Z</time></trkpt><trkpt lat="45.8854615" lon="11.5375718"><ele>1069.0</ele><time>2026-04-26T14:22:44.573Z</time></trkpt><trkpt lat="45.8853267" lon="11.5373492"><ele>1069.0</ele><time>2026-04-26T14:22:45.576Z</time></trkpt><trkpt lat="45.8851904" lon="11.5370979"><ele>1069.0</ele><time>2026-04-26T14:22:46.586Z</time></trkpt><trkpt lat="45.8850476" lon="11.5368395"><ele>1066.0</ele><time>2026-04-26T14:22:47.594Z</time></trkpt><trkpt lat="45.8848981" lon="11.5365801"><ele>1063.0</ele><time>2026-04-26T14:22:48.572Z</time></trkpt><trkpt lat="45.8847486" lon="11.5363148"><ele>1063.5</ele><time>2026-04-26T14:22:49.59Z</time></trkpt><trkpt lat="45.8846025" lon="11.5360359"><ele>1064.0</ele><time>2026-04-26T14:22:50.579Z</time></trkpt><trkpt lat="45.8844604" lon="11.5357496"><ele>1064.0</ele><time>2026-04-26T14:22:51.58Z</time></trkpt><trkpt lat="45.8843288" lon="11.5354624"><ele>1064.0</ele><time>2026-04-26T14:22:52.581Z</time></trkpt><trkpt lat="45.88421" lon="11.5351793"><ele>1062.0</ele><time>2026-04-26T14:22:53.581Z</time></trkpt><trkpt lat="45.8840891" lon="11.534908"><ele>1060.0</ele><time>2026-04-26T14:22:54.583Z</time></trkpt><trkpt lat="45.8839664" lon="11.5346493"><ele>1058.0</ele><time>2026-04-26T14:22:55.577Z</time></trkpt><trkpt lat="45.8838379" lon="11.5344022"><ele>1057.6666666666667</ele><time>2026-04-26T14:22:56.576Z</time></trkpt><trkpt lat="45.883697" lon="11.5341792"><ele>1057.3333333333333</ele><time>2026-04-26T14:22:57.579Z</time></trkpt><trkpt lat="45.8835488" lon="11.5339758"><ele>1057.0</ele><time>2026-04-26T14:22:58.578Z</time></trkpt><trkpt lat="45.883392" lon="11.5337832"><ele>1055.3333333333333</ele><time>2026-04-26T14:22:59.6Z</time></trkpt><trkpt lat="45.8832232" lon="11.5336159"><ele>1053.6666666666667</ele><time>2026-04-26T14:23:00.574Z</time></trkpt><trkpt lat="45.8830493" lon="11.5334719"><ele>1052.0</ele><time>2026-04-26T14:23:01.575Z</time></trkpt><trkpt lat="45.8828817" lon="11.5333351"><ele>1052.0</ele><time>2026-04-26T14:23:02.568Z</time></trkpt><trkpt lat="45.8827219" lon="11.5331952"><ele>1052.0</ele><time>2026-04-26T14:23:03.575Z</time></trkpt><trkpt lat="45.8825756" lon="11.5330585"><ele>1052.0</ele><time>2026-04-26T14:23:04.569Z</time></trkpt><trkpt lat="45.8824328" lon="11.532929"><ele>1051.6666666666667</ele><time>2026-04-26T14:23:05.583Z</time></trkpt><trkpt lat="45.8822951" lon="11.5327921"><ele>1051.3333333333333</ele><time>2026-04-26T14:23:06.591Z</time></trkpt><trkpt lat="45.8821655" lon="11.5326354"><ele>1051.0</ele><time>2026-04-26T14:23:07.572Z</time></trkpt><trkpt lat="45.8820395" lon="11.5324569"><ele>1051.0</ele><time>2026-04-26T14:23:08.574Z</time></trkpt><trkpt lat="45.8819211" lon="11.5322754"><ele>1051.0</ele><time>2026-04-26T14:23:09.583Z</time></trkpt><trkpt lat="45.8818035" lon="11.5320862"><ele>1051.0</ele><time>2026-04-26T14:23:10.563Z</time></trkpt><trkpt lat="45.8816889" lon="11.5318952"><ele>1046.0</ele><time>2026-04-26T14:23:11.58Z</time></trkpt><trkpt lat="45.8815785" lon="11.5317097"><ele>1041.0</ele><time>2026-04-26T14:23:12.569Z</time></trkpt><trkpt lat="45.8814739" lon="11.5315112"><ele>1036.0</ele><time>2026-04-26T14:23:13.569Z</time></trkpt><trkpt lat="45.8813741" lon="11.5312975"><ele>1036.3333333333333</ele><time>2026-04-26T14:23:14.58Z</time></trkpt><trkpt lat="45.8812841" lon="11.5310764"><ele>1036.6666666666667</ele><time>2026-04-26T14:23:15.572Z</time></trkpt><trkpt lat="45.8812123" lon="11.5308535"><ele>1037.0</ele><time>2026-04-26T14:23:16.59Z</time></trkpt><trkpt lat="45.8811526" lon="11.5306287"><ele>1037.0</ele><time>2026-04-26T14:23:17.578Z</time></trkpt><trkpt lat="45.8811011" lon="11.530406"><ele>1037.0</ele><time>2026-04-26T14:23:18.573Z</time></trkpt><trkpt lat="45.8810489" lon="11.5301825"><ele>1037.0</ele><time>2026-04-26T14:23:19.572Z</time></trkpt><trkpt lat="45.8809983" lon="11.5299675"><ele>1037.6666666666667</ele><time>2026-04-26T14:23:20.572Z</time></trkpt><trkpt lat="45.8809501" lon="11.5297561"><ele>1038.3333333333333</ele><time>2026-04-26T14:23:21.589Z</time></trkpt><trkpt lat="45.8808989" lon="11.5295513"><ele>1039.0</ele><time>2026-04-26T14:23:22.591Z</time></trkpt><trkpt lat="45.8808534" lon="11.5293494"><ele>1037.5</ele><time>2026-04-26T14:23:23.587Z</time></trkpt><trkpt lat="45.8808099" lon="11.5291578"><ele>1036.0</ele><time>2026-04-26T14:23:24.583Z</time></trkpt><trkpt lat="45.8807686" lon="11.5289683"><ele>1034.5</ele><time>2026-04-26T14:23:25.577Z</time></trkpt><trkpt lat="45.8807343" lon="11.5287824"><ele>1033.0</ele><time>2026-04-26T14:23:26.586Z</time></trkpt><trkpt lat="45.8807037" lon="11.5286049"><ele>1033.0</ele><time>2026-04-26T14:23:27.581Z</time></trkpt><trkpt lat="45.880678" lon="11.5284282"><ele>1033.0</ele><time>2026-04-26T14:23:28.586Z</time></trkpt><trkpt lat="45.8806536" lon="11.5282685"><ele>1033.0</ele><time>2026-04-26T14:23:29.582Z</time></trkpt><trkpt lat="45.8806297" lon="11.5281073"><ele>1033.0</ele><time>2026-04-26T14:23:30.575Z</time></trkpt><trkpt lat="45.8806157" lon="11.5279374"><ele>1033.75</ele><time>2026-04-26T14:23:31.581Z</time></trkpt><trkpt lat="45.8805912" lon="11.5277453"><ele>1034.5</ele><time>2026-04-26T14:23:32.584Z</time></trkpt><trkpt lat="45.8805634" lon="11.5275428"><ele>1035.25</ele><time>2026-04-26T14:23:33.575Z</time></trkpt><trkpt lat="45.8805388" lon="11.5273283"><ele>1036.0</ele><time>2026-04-26T14:23:34.586Z</time></trkpt><trkpt lat="45.880518" lon="11.5270985"><ele>1035.6666666666665</ele><time>2026-04-26T14:23:35.582Z</time></trkpt><trkpt lat="45.8804992" lon="11.5268666"><ele>1035.3333333333333</ele><time>2026-04-26T14:23:36.581Z</time></trkpt><trkpt lat="45.8804775" lon="11.526636"><ele>1035.0</ele><time>2026-04-26T14:23:37.583Z</time></trkpt><trkpt lat="45.8804648" lon="11.52641"><ele>1033.3333333333333</ele><time>2026-04-26T14:23:38.58Z</time></trkpt><trkpt lat="45.8804611" lon="11.5261727"><ele>1031.6666666666665</ele><time>2026-04-26T14:23:39.588Z</time></trkpt><trkpt lat="45.8804722" lon="11.5259349"><ele>1030.0</ele><time>2026-04-26T14:23:40.576Z</time></trkpt><trkpt lat="45.8804854" lon="11.5257057"><ele>1030.0</ele><time>2026-04-26T14:23:41.576Z</time></trkpt><trkpt lat="45.8805041" lon="11.5254699"><ele>1030.0</ele><time>2026-04-26T14:23:42.571Z</time></trkpt><trkpt lat="45.8805181" lon="11.5252392"><ele>1030.0</ele><time>2026-04-26T14:23:43.574Z</time></trkpt><trkpt lat="45.8805325" lon="11.5250097"><ele>1030.0</ele><time>2026-04-26T14:23:44.587Z</time></trkpt><trkpt lat="45.8805505" lon="11.5247802"><ele>1030.0</ele><time>2026-04-26T14:23:45.586Z</time></trkpt><trkpt lat="45.8805671" lon="11.5245508"><ele>1030.0</ele><time>2026-04-26T14:23:46.585Z</time></trkpt><trkpt lat="45.8805841" lon="11.5243173"><ele>1030.0</ele><time>2026-04-26T14:23:47.577Z</time></trkpt><trkpt lat="45.8806004" lon="11.5240822"><ele>1030.0</ele><time>2026-04-26T14:23:48.574Z</time></trkpt><trkpt lat="45.8806094" lon="11.5238393"><ele>1030.0</ele><time>2026-04-26T14:23:49.57Z</time></trkpt><trkpt lat="45.8806199" lon="11.5235888"><ele>1029.3333333333333</ele><time>2026-04-26T14:23:50.587Z</time></trkpt><trkpt lat="45.880621" lon="11.5233305"><ele>1028.6666666666667</ele><time>2026-04-26T14:23:51.582Z</time></trkpt><trkpt lat="45.8806182" lon="11.5230723"><ele>1028.0</ele><time>2026-04-26T14:23:52.577Z</time></trkpt><trkpt lat="45.8805988" lon="11.5228092"><ele>1028.0</ele><time>2026-04-26T14:23:53.566Z</time></trkpt><trkpt lat="45.8805646" lon="11.5225396"><ele>1028.0</ele><time>2026-04-26T14:23:54.582Z</time></trkpt><trkpt lat="45.8805216" lon="11.5222941"><ele>1028.0</ele><time>2026-04-26T14:23:55.573Z</time></trkpt><trkpt lat="45.8804751" lon="11.5220714"><ele>1028.5</ele><time>2026-04-26T14:23:56.579Z</time></trkpt><trkpt lat="45.8804246" lon="11.5218647"><ele>1029.0</ele><time>2026-04-26T14:23:57.591Z</time></trkpt><trkpt lat="45.8803733" lon="11.5216649"><ele>1029.5</ele><time>2026-04-26T14:23:58.56Z</time></trkpt><trkpt lat="45.8803285" lon="11.5214867"><ele>1030.0</ele><time>2026-04-26T14:23:59.588Z</time></trkpt><trkpt lat="45.8802799" lon="11.5213148"><ele>1029.75</ele><time>2026-04-26T14:24:00.587Z</time></trkpt><trkpt lat="45.8802198" lon="11.5211454"><ele>1029.5</ele><time>2026-04-26T14:24:01.573Z</time></trkpt><trkpt lat="45.8801562" lon="11.5209605"><ele>1029.25</ele><time>2026-04-26T14:24:02.59Z</time></trkpt><trkpt lat="45.8800841" lon="11.5207756"><ele>1029.0</ele><time>2026-04-26T14:24:03.583Z</time></trkpt><trkpt lat="45.880012" lon="11.5205774"><ele>1024.6666666666667</ele><time>2026-04-26T14:24:04.58Z</time></trkpt><trkpt lat="45.8799353" lon="11.5203673"><ele>1020.3333333333334</ele><time>2026-04-26T14:24:05.572Z</time></trkpt><trkpt lat="45.8798586" lon="11.5201553"><ele>1016.0</ele><time>2026-04-26T14:24:06.584Z</time></trkpt><trkpt lat="45.8797863" lon="11.5199335"><ele>1016.0</ele><time>2026-04-26T14:24:07.566Z</time></trkpt><trkpt lat="45.8797117" lon="11.5196897"><ele>1016.0</ele><time>2026-04-26T14:24:08.576Z</time></trkpt><trkpt lat="45.8796432" lon="11.5194416"><ele>1016.0</ele><time>2026-04-26T14:24:09.584Z</time></trkpt><trkpt lat="45.8795732" lon="11.519186"><ele>1016.3333333333334</ele><time>2026-04-26T14:24:10.577Z</time></trkpt><trkpt lat="45.8795078" lon="11.5189202"><ele>1016.6666666666667</ele><time>2026-04-26T14:24:11.587Z</time></trkpt><trkpt lat="45.8794421" lon="11.5186498"><ele>1017.0</ele><time>2026-04-26T14:24:12.579Z</time></trkpt><trkpt lat="45.879381" lon="11.5183763"><ele>1017.0</ele><time>2026-04-26T14:24:13.573Z</time></trkpt><trkpt lat="45.8793175" lon="11.5181046"><ele>1017.0</ele><time>2026-04-26T14:24:14.572Z</time></trkpt><trkpt lat="45.8792535" lon="11.5178338"><ele>1017.0</ele><time>2026-04-26T14:24:15.578Z</time></trkpt><trkpt lat="45.8791903" lon="11.5175726"><ele>1015.6666666666667</ele><time>2026-04-26T14:24:16.581Z</time></trkpt><trkpt lat="45.8791265" lon="11.5173123"><ele>1014.3333333333334</ele><time>2026-04-26T14:24:17.582Z</time></trkpt><trkpt lat="45.8790597" lon="11.5170585"><ele>1013.0</ele><time>2026-04-26T14:24:18.578Z</time></trkpt><trkpt lat="45.8790004" lon="11.5168157"><ele>1013.3333333333334</ele><time>2026-04-26T14:24:19.576Z</time></trkpt><trkpt lat="45.8789421" lon="11.5165922"><ele>1013.6666666666667</ele><time>2026-04-26T14:24:20.588Z</time></trkpt><trkpt lat="45.8788861" lon="11.5163825"><ele>1014.0</ele><time>2026-04-26T14:24:21.581Z</time></trkpt><trkpt lat="45.8788256" lon="11.5161811"><ele>1014.0</ele><time>2026-04-26T14:24:22.576Z</time></trkpt><trkpt lat="45.8787769" lon="11.5159873"><ele>1014.0</ele><time>2026-04-26T14:24:23.582Z</time></trkpt><trkpt lat="45.878737" lon="11.5158118"><ele>1014.0</ele><time>2026-04-26T14:24:24.583Z</time></trkpt><trkpt lat="45.8786948" lon="11.515645"><ele>1014.0</ele><time>2026-04-26T14:24:25.584Z</time></trkpt><trkpt lat="45.8786519" lon="11.5154819"><ele>1014.25</ele><time>2026-04-26T14:24:26.603Z</time></trkpt><trkpt lat="45.8786008" lon="11.5153182"><ele>1014.5</ele><time>2026-04-26T14:24:27.591Z</time></trkpt><trkpt lat="45.8785411" lon="11.5151639"><ele>1014.75</ele><time>2026-04-26T14:24:28.582Z</time></trkpt><trkpt lat="45.8784712" lon="11.5150056"><ele>1015.0</ele><time>2026-04-26T14:24:29.58Z</time></trkpt><trkpt lat="45.8784052" lon="11.5148544"><ele>1013.75</ele><time>2026-04-26T14:24:30.579Z</time></trkpt><trkpt lat="45.8783376" lon="11.5146958"><ele>1012.5</ele><time>2026-04-26T14:24:31.583Z</time></trkpt><trkpt lat="45.8782687" lon="11.5145194"><ele>1011.25</ele><time>2026-04-26T14:24:32.576Z</time></trkpt><trkpt lat="45.8781955" lon="11.5143404"><ele>1010.0</ele><time>2026-04-26T14:24:33.566Z</time></trkpt><trkpt lat="45.8781149" lon="11.5141569"><ele>1010.0</ele><time>2026-04-26T14:24:34.573Z</time></trkpt><trkpt lat="45.8780262" lon="11.5139767"><ele>1010.0</ele><time>2026-04-26T14:24:35.58Z</time></trkpt><trkpt lat="45.8779492" lon="11.5137968"><ele>1010.0</ele><time>2026-04-26T14:24:36.578Z</time></trkpt><trkpt lat="45.8778781" lon="11.5136357"><ele>1010.0</ele><time>2026-04-26T14:24:37.582Z</time></trkpt><trkpt lat="45.8778244" lon="11.5134933"><ele>1009.5000000000001</ele><time>2026-04-26T14:24:38.555Z</time></trkpt><trkpt lat="45.8777789" lon="11.5133716"><ele>1009.0</ele><time>2026-04-26T14:24:39.563Z</time></trkpt><trkpt lat="45.8777371" lon="11.5132749"><ele>1008.5</ele><time>2026-04-26T14:24:40.576Z</time></trkpt><trkpt lat="45.8777018" lon="11.5131936"><ele>1008.0</ele><time>2026-04-26T14:24:41.571Z</time></trkpt><trkpt lat="45.8776564" lon="11.5131025"><ele>1007.5000000000001</ele><time>2026-04-26T14:24:43.573Z</time></trkpt><trkpt lat="45.8776081" lon="11.5129803"><ele>1007.0</ele><time>2026-04-26T14:24:45.582Z</time></trkpt><trkpt lat="45.8775721" lon="11.5129056"><ele>1006.6666666666667</ele><time>2026-04-26T14:24:46.578Z</time></trkpt><trkpt lat="45.8775098" lon="11.5127511"><ele>1006.3333333333334</ele><time>2026-04-26T14:24:48.57Z</time></trkpt><trkpt lat="45.8774714" lon="11.5126736"><ele>1006.0</ele><time>2026-04-26T14:24:49.591Z</time></trkpt><trkpt lat="45.877435" lon="11.5125853"><ele>1005.6666666666667</ele><time>2026-04-26T14:24:50.585Z</time></trkpt><trkpt lat="45.8774032" lon="11.5124926"><ele>1005.3333333333334</ele><time>2026-04-26T14:24:51.588Z</time></trkpt><trkpt lat="45.8773615" lon="11.5123941"><ele>1005.0</ele><time>2026-04-26T14:24:52.587Z</time></trkpt><trkpt lat="45.877316" lon="11.5122858"><ele>1005.0</ele><time>2026-04-26T14:24:53.587Z</time></trkpt><trkpt lat="45.8772661" lon="11.5121738"><ele>1005.0</ele><time>2026-04-26T14:24:54.584Z</time></trkpt><trkpt lat="45.8772091" lon="11.5120586"><ele>1005.0</ele><time>2026-04-26T14:24:55.584Z</time></trkpt><trkpt lat="45.8771575" lon="11.5119443"><ele>1005.0</ele><time>2026-04-26T14:24:56.597Z</time></trkpt><trkpt lat="45.877114" lon="11.5118378"><ele>1005.0</ele><time>2026-04-26T14:24:57.576Z</time></trkpt><trkpt lat="45.8770747" lon="11.5117404"><ele>1005.0</ele><time>2026-04-26T14:24:58.589Z</time></trkpt><trkpt lat="45.8770381" lon="11.5116498"><ele>1005.0</ele><time>2026-04-26T14:24:59.578Z</time></trkpt><trkpt lat="45.877007" lon="11.5115518"><ele>1005.0</ele><time>2026-04-26T14:25:00.573Z</time></trkpt><trkpt lat="45.8769748" lon="11.5114362"><ele>1005.0</ele><time>2026-04-26T14:25:01.576Z</time></trkpt><trkpt lat="45.8769395" lon="11.5113333"><ele>1005.0</ele><time>2026-04-26T14:25:02.578Z</time></trkpt><trkpt lat="45.876903" lon="11.5112466"><ele>1005.0</ele><time>2026-04-26T14:25:03.588Z</time></trkpt><trkpt lat="45.876861" lon="11.5111716"><ele>1005.0</ele><time>2026-04-26T14:25:04.583Z</time></trkpt><trkpt lat="45.8768095" lon="11.511104"><ele>1005.0</ele><time>2026-04-26T14:25:05.58Z</time></trkpt><trkpt lat="45.8767306" lon="11.5109654"><ele>1005.0</ele><time>2026-04-26T14:25:07.582Z</time></trkpt><trkpt lat="45.876675" lon="11.5108158"><ele>1005.0</ele><time>2026-04-26T14:25:09.589Z</time></trkpt><trkpt lat="45.8766366" lon="11.5106754"><ele>1005.0</ele><time>2026-04-26T14:25:11.577Z</time></trkpt><trkpt lat="45.8765887" lon="11.5105235"><ele>1005.0</ele><time>2026-04-26T14:25:13.58Z</time></trkpt><trkpt lat="45.8765459" lon="11.5104566"><ele>1005.0</ele><time>2026-04-26T14:25:14.573Z</time></trkpt><trkpt lat="45.8764227" lon="11.5104407"><ele>1005.0</ele><time>2026-04-26T14:25:16.572Z</time></trkpt><trkpt lat="45.8763428" lon="11.5104758"><ele>1005.0</ele><time>2026-04-26T14:25:17.571Z</time></trkpt><trkpt lat="45.8762706" lon="11.5105166"><ele>1005.0</ele><time>2026-04-26T14:25:18.571Z</time></trkpt><trkpt lat="45.8761952" lon="11.5105458"><ele>1005.0</ele><time>2026-04-26T14:25:19.589Z</time></trkpt><trkpt lat="45.8761177" lon="11.5105634"><ele>1005.0</ele><time>2026-04-26T14:25:20.584Z</time></trkpt><trkpt lat="45.8760509" lon="11.5105827"><ele>1005.0</ele><time>2026-04-26T14:25:21.589Z</time></trkpt><trkpt lat="45.8759528" lon="11.5106105"><ele>1005.0</ele><time>2026-04-26T14:25:23.585Z</time></trkpt><trkpt lat="45.8758757" lon="11.5106225"><ele>1005.0</ele><time>2026-04-26T14:25:25.578Z</time></trkpt><trkpt lat="45.8757908" lon="11.510666"><ele>1005.0</ele><time>2026-04-26T14:25:28.571Z</time></trkpt><trkpt lat="45.875802" lon="11.5107988"><ele>1005.0</ele><time>2026-04-26T14:25:31.59Z</time></trkpt><trkpt lat="45.8758212" lon="11.5109019"><ele>1004.5</ele><time>2026-04-26T14:25:33.59Z</time></trkpt><trkpt lat="45.8758062" lon="11.5109908"><ele>1004.0</ele><time>2026-04-26T14:25:34.575Z</time></trkpt><trkpt lat="45.8757758" lon="11.5110976"><ele>1003.5</ele><time>2026-04-26T14:25:35.579Z</time></trkpt><trkpt lat="45.8757351" lon="11.5112063"><ele>1003.0</ele><time>2026-04-26T14:25:36.568Z</time></trkpt><trkpt lat="45.8756975" lon="11.5113102"><ele>1002.5</ele><time>2026-04-26T14:25:37.573Z</time></trkpt><trkpt lat="45.8756548" lon="11.511418"><ele>1002.0</ele><time>2026-04-26T14:25:38.579Z</time></trkpt><trkpt lat="45.8756121" lon="11.5115293"><ele>1002.0</ele><time>2026-04-26T14:25:39.586Z</time></trkpt><trkpt lat="45.8755755" lon="11.5116358"><ele>1002.0</ele><time>2026-04-26T14:25:40.579Z</time></trkpt><trkpt lat="45.8755399" lon="11.5117396"><ele>1002.0</ele><time>2026-04-26T14:25:41.575Z</time></trkpt><trkpt lat="45.875511" lon="11.5118338"><ele>1002.0</ele><time>2026-04-26T14:25:42.573Z</time></trkpt><trkpt lat="45.875484" lon="11.5119295"><ele>1002.0</ele><time>2026-04-26T14:25:43.576Z</time></trkpt><trkpt lat="45.8754705" lon="11.5120341"><ele>1002.0</ele><time>2026-04-26T14:25:44.575Z</time></trkpt><trkpt lat="45.8754628" lon="11.5121402"><ele>1001.6666666666666</ele><time>2026-04-26T14:25:45.576Z</time></trkpt><trkpt lat="45.8754712" lon="11.5122586"><ele>1001.3333333333333</ele><time>2026-04-26T14:25:46.578Z</time></trkpt><trkpt lat="45.8754771" lon="11.5123684"><ele>1001.0</ele><time>2026-04-26T14:25:47.572Z</time></trkpt><trkpt lat="45.8754815" lon="11.5124874"><ele>1000.6666666666666</ele><time>2026-04-26T14:25:48.574Z</time></trkpt><trkpt lat="45.8754835" lon="11.5125983"><ele>1000.3333333333333</ele><time>2026-04-26T14:25:49.58Z</time></trkpt><trkpt lat="45.8754875" lon="11.5126987"><ele>1000.0</ele><time>2026-04-26T14:25:50.573Z</time></trkpt><trkpt lat="45.8754892" lon="11.5127935"><ele>999.9999999999999</ele><time>2026-04-26T14:25:51.576Z</time></trkpt><trkpt lat="45.875488" lon="11.5128925"><ele>1000.0</ele><time>2026-04-26T14:25:52.576Z</time></trkpt><trkpt lat="45.8754855" lon="11.512997"><ele>1000.0</ele><time>2026-04-26T14:25:53.577Z</time></trkpt><trkpt lat="45.8754861" lon="11.5131033"><ele>1000.0</ele><time>2026-04-26T14:25:54.576Z</time></trkpt><trkpt lat="45.875486" lon="11.5132074"><ele>999.9999999999999</ele><time>2026-04-26T14:25:55.574Z</time></trkpt><trkpt lat="45.8754951" lon="11.5133059"><ele>1000.0</ele><time>2026-04-26T14:25:56.573Z</time></trkpt><trkpt lat="45.8754958" lon="11.5134749"><ele>1000.2</ele><time>2026-04-26T14:25:58.582Z</time></trkpt><trkpt lat="45.8754993" lon="11.5136178"><ele>1000.4</ele><time>2026-04-26T14:26:00.575Z</time></trkpt><trkpt lat="45.8755062" lon="11.5137873"><ele>1000.5999999999999</ele><time>2026-04-26T14:26:02.578Z</time></trkpt><trkpt lat="45.8755112" lon="11.5138851"><ele>1000.8</ele><time>2026-04-26T14:26:03.585Z</time></trkpt><trkpt lat="45.8755076" lon="11.5140751"><ele>1001.0</ele><time>2026-04-26T14:26:05.587Z</time></trkpt><trkpt lat="45.8755098" lon="11.5141819"><ele>1001.5000000000001</ele><time>2026-04-26T14:26:06.574Z</time></trkpt><trkpt lat="45.87552" lon="11.5142719"><ele>1002.0</ele><time>2026-04-26T14:26:07.58Z</time></trkpt><trkpt lat="45.875544" lon="11.514395"><ele>1002.5</ele><time>2026-04-26T14:26:09.58Z</time></trkpt><trkpt lat="45.8755566" lon="11.5145194"><ele>1003.0</ele><time>2026-04-26T14:26:12.582Z</time></trkpt><trkpt lat="45.8755353" lon="11.5146104"><ele>1003.5000000000001</ele><time>2026-04-26T14:26:14.583Z</time></trkpt><trkpt lat="45.8754438" lon="11.5146592"><ele>1004.0</ele><time>2026-04-26T14:26:16.579Z</time></trkpt><trkpt lat="45.8753536" lon="11.5146427"><ele>1004.1666666666667</ele><time>2026-04-26T14:26:17.569Z</time></trkpt><trkpt lat="45.8752708" lon="11.5146374"><ele>1004.3333333333334</ele><time>2026-04-26T14:26:18.575Z</time></trkpt><trkpt lat="45.8751908" lon="11.5146405"><ele>1004.5</ele><time>2026-04-26T14:26:19.588Z</time></trkpt><trkpt lat="45.8751069" lon="11.5146448"><ele>1004.6666666666667</ele><time>2026-04-26T14:26:20.59Z</time></trkpt><trkpt lat="45.8750315" lon="11.5146495"><ele>1004.8333333333334</ele><time>2026-04-26T14:26:21.586Z</time></trkpt><trkpt lat="45.8749688" lon="11.5146617"><ele>1005.0</ele><time>2026-04-26T14:26:22.58Z</time></trkpt><trkpt lat="45.8748702" lon="11.5146674"><ele>1005.4</ele><time>2026-04-26T14:26:24.568Z</time></trkpt><trkpt lat="45.8747806" lon="11.5146521"><ele>1005.8</ele><time>2026-04-26T14:26:26.586Z</time></trkpt><trkpt lat="45.8746779" lon="11.5146345"><ele>1006.2</ele><time>2026-04-26T14:26:28.572Z</time></trkpt><trkpt lat="45.874586" lon="11.5146062"><ele>1006.6</ele><time>2026-04-26T14:26:30.577Z</time></trkpt><trkpt lat="45.8744871" lon="11.5146277"><ele>1007.0</ele><time>2026-04-26T14:26:32.58Z</time></trkpt><trkpt lat="45.8743686" lon="11.5146868"><ele>1007.0000000000001</ele><time>2026-04-26T14:26:34.58Z</time></trkpt><trkpt lat="45.8742962" lon="11.5146966"><ele>1007.0</ele><time>2026-04-26T14:26:35.574Z</time></trkpt><trkpt lat="45.8742202" lon="11.514703"><ele>1007.0</ele><time>2026-04-26T14:26:36.577Z</time></trkpt><trkpt lat="45.8741447" lon="11.51471"><ele>1007.0</ele><time>2026-04-26T14:26:37.571Z</time></trkpt><trkpt lat="45.8740693" lon="11.5147167"><ele>1007.0000000000001</ele><time>2026-04-26T14:26:38.582Z</time></trkpt><trkpt lat="45.8739579" lon="11.5147168"><ele>1007.0</ele><time>2026-04-26T14:26:40.575Z</time></trkpt><trkpt lat="45.873864" lon="11.5147263"><ele>1006.6666666666667</ele><time>2026-04-26T14:26:42.568Z</time></trkpt><trkpt lat="45.8737802" lon="11.5147358"><ele>1006.3333333333334</ele><time>2026-04-26T14:26:44.579Z</time></trkpt><trkpt lat="45.8737151" lon="11.5147353"><ele>1006.0</ele><time>2026-04-26T14:26:46.577Z</time></trkpt><trkpt lat="45.8736376" lon="11.5146559"><ele>1005.6666666666667</ele><time>2026-04-26T14:26:48.584Z</time></trkpt><trkpt lat="45.8736305" lon="11.5145532"><ele>1005.3333333333334</ele><time>2026-04-26T14:26:49.578Z</time></trkpt><trkpt lat="45.8736393" lon="11.5144545"><ele>1005.0</ele><time>2026-04-26T14:26:50.569Z</time></trkpt><trkpt lat="45.8736465" lon="11.5143373"><ele>1004.8333333333334</ele><time>2026-04-26T14:26:51.573Z</time></trkpt><trkpt lat="45.8736566" lon="11.5142087"><ele>1004.6666666666667</ele><time>2026-04-26T14:26:52.573Z</time></trkpt><trkpt lat="45.873655" lon="11.5140869"><ele>1004.5</ele><time>2026-04-26T14:26:53.581Z</time></trkpt><trkpt lat="45.8736572" lon="11.5139709"><ele>1004.3333333333334</ele><time>2026-04-26T14:26:54.574Z</time></trkpt><trkpt lat="45.8736568" lon="11.5138683"><ele>1004.1666666666667</ele><time>2026-04-26T14:26:55.576Z</time></trkpt><trkpt lat="45.8736505" lon="11.5137669"><ele>1004.0</ele><time>2026-04-26T14:26:56.568Z</time></trkpt><trkpt lat="45.8736498" lon="11.5136677"><ele>1004.0000000000001</ele><time>2026-04-26T14:26:57.583Z</time></trkpt><trkpt lat="45.8736467" lon="11.5135018"><ele>1004.0</ele><time>2026-04-26T14:26:59.586Z</time></trkpt><trkpt lat="45.8736517" lon="11.5134042"><ele>1004.0</ele><time>2026-04-26T14:27:00.573Z</time></trkpt><trkpt lat="45.87365" lon="11.5133006"><ele>1004.0</ele><time>2026-04-26T14:27:01.574Z</time></trkpt><trkpt lat="45.8736524" lon="11.513179"><ele>1004.0000000000001</ele><time>2026-04-26T14:27:02.582Z</time></trkpt><trkpt lat="45.8736479" lon="11.513026"><ele>1004.0</ele><time>2026-04-26T14:27:03.582Z</time></trkpt><trkpt lat="45.8736459" lon="11.5128864"><ele>1003.8000000000001</ele><time>2026-04-26T14:27:04.576Z</time></trkpt><trkpt lat="45.8736428" lon="11.5127525"><ele>1003.6000000000001</ele><time>2026-04-26T14:27:05.572Z</time></trkpt><trkpt lat="45.8736526" lon="11.5126207"><ele>1003.4</ele><time>2026-04-26T14:27:06.58Z</time></trkpt><trkpt lat="45.8736533" lon="11.5124973"><ele>1003.2</ele><time>2026-04-26T14:27:07.585Z</time></trkpt><trkpt lat="45.8736566" lon="11.5123915"><ele>1003.0</ele><time>2026-04-26T14:27:08.57Z</time></trkpt><trkpt lat="45.8736622" lon="11.5122205"><ele>1002.6666666666666</ele><time>2026-04-26T14:27:10.566Z</time></trkpt><trkpt lat="45.8736522" lon="11.512061"><ele>1002.3333333333333</ele><time>2026-04-26T14:27:12.578Z</time></trkpt><trkpt lat="45.8736571" lon="11.5119191"><ele>1002.0</ele><time>2026-04-26T14:27:14.571Z</time></trkpt><trkpt lat="45.8736516" lon="11.5118005"><ele>1001.6666666666667</ele><time>2026-04-26T14:27:16.578Z</time></trkpt><trkpt lat="45.8736472" lon="11.51171"><ele>1001.3333333333334</ele><time>2026-04-26T14:27:18.583Z</time></trkpt><trkpt lat="45.873627" lon="11.5116169"><ele>1001.0</ele><time>2026-04-26T14:27:22.575Z</time></trkpt><trkpt lat="45.873638" lon="11.5114984"><ele>1001.0000000000001</ele><time>2026-04-26T14:27:35.578Z</time></trkpt><trkpt lat="45.8736491" lon="11.5113761"><ele>1001.0</ele><time>2026-04-26T14:27:38.574Z</time></trkpt><trkpt lat="45.8736745" lon="11.5112737"><ele>1001.0</ele><time>2026-04-26T14:27:41.569Z</time></trkpt><trkpt lat="45.8737429" lon="11.5111964"><ele>1001.0</ele><time>2026-04-26T14:27:43.566Z</time></trkpt><trkpt lat="45.8738296" lon="11.5111477"><ele>1001.0000000000001</ele><time>2026-04-26T14:27:44.569Z</time></trkpt><trkpt lat="45.8739109" lon="11.5111121"><ele>1001.0</ele><time>2026-04-26T14:27:45.583Z</time></trkpt><trkpt lat="45.8739969" lon="11.5110912"><ele>1001.0</ele><time>2026-04-26T14:27:46.575Z</time></trkpt><trkpt lat="45.8740963" lon="11.5110711"><ele>1000.9999999999999</ele><time>2026-04-26T14:27:47.592Z</time></trkpt><trkpt lat="45.8742056" lon="11.5110368"><ele>1000.9999999999999</ele><time>2026-04-26T14:27:48.578Z</time></trkpt><trkpt lat="45.8743154" lon="11.5110101"><ele>1001.0</ele><time>2026-04-26T14:27:49.586Z</time></trkpt><trkpt lat="45.8744215" lon="11.5109899"><ele>1001.0</ele><time>2026-04-26T14:27:50.581Z</time></trkpt><trkpt lat="45.8745096" lon="11.5109606"><ele>1001.3333333333334</ele><time>2026-04-26T14:27:51.587Z</time></trkpt><trkpt lat="45.8745998" lon="11.5109427"><ele>1001.6666666666667</ele><time>2026-04-26T14:27:52.583Z</time></trkpt><trkpt lat="45.8746913" lon="11.5109198"><ele>1002.0</ele><time>2026-04-26T14:27:53.577Z</time></trkpt><trkpt lat="45.8747804" lon="11.5108913"><ele>1002.3333333333333</ele><time>2026-04-26T14:27:54.578Z</time></trkpt><trkpt lat="45.87486" lon="11.5108665"><ele>1002.6666666666666</ele><time>2026-04-26T14:27:55.58Z</time></trkpt><trkpt lat="45.8749404" lon="11.5108407"><ele>1003.0</ele><time>2026-04-26T14:27:56.581Z</time></trkpt><trkpt lat="45.875026" lon="11.5108255"><ele>1002.8333333333333</ele><time>2026-04-26T14:27:57.577Z</time></trkpt><trkpt lat="45.8751043" lon="11.5108121"><ele>1002.6666666666666</ele><time>2026-04-26T14:27:58.583Z</time></trkpt><trkpt lat="45.8751787" lon="11.5107999"><ele>1002.5</ele><time>2026-04-26T14:27:59.568Z</time></trkpt><trkpt lat="45.8752458" lon="11.5107857"><ele>1002.3333333333333</ele><time>2026-04-26T14:28:00.577Z</time></trkpt><trkpt lat="45.8753511" lon="11.5107282"><ele>1002.1666666666666</ele><time>2026-04-26T14:28:02.575Z</time></trkpt><trkpt lat="45.8754577" lon="11.5106964"><ele>1002.0</ele><time>2026-04-26T14:28:04.589Z</time></trkpt><trkpt lat="45.8755223" lon="11.5106197"><ele>1002.0</ele><time>2026-04-26T14:28:07.58Z</time></trkpt><trkpt lat="45.875442" lon="11.5106012"><ele>1002.0</ele><time>2026-04-26T14:28:23.577Z</time></trkpt><trkpt lat="45.8753685" lon="11.5105168"><ele>1002.0</ele><time>2026-04-26T14:28:27.571Z</time></trkpt><trkpt lat="45.8752736" lon="11.5104225"><ele>1002.0</ele><time>2026-04-26T14:28:29.565Z</time></trkpt><trkpt lat="45.8752069" lon="11.5103773"><ele>1002.0</ele><time>2026-04-26T14:28:30.586Z</time></trkpt><trkpt lat="45.8751364" lon="11.5103308"><ele>1002.0</ele><time>2026-04-26T14:28:31.58Z</time></trkpt><trkpt lat="45.8750715" lon="11.5102822"><ele>1002.1666666666666</ele><time>2026-04-26T14:28:32.569Z</time></trkpt><trkpt lat="45.8750102" lon="11.5102322"><ele>1002.3333333333333</ele><time>2026-04-26T14:28:33.591Z</time></trkpt><trkpt lat="45.874911" lon="11.5101565"><ele>1002.5</ele><time>2026-04-26T14:28:35.574Z</time></trkpt><trkpt lat="45.874851" lon="11.5101035"><ele>1002.6666666666666</ele><time>2026-04-26T14:28:37.579Z</time></trkpt><trkpt lat="45.8747824" lon="11.5102132"><ele>1002.8333333333333</ele><time>2026-04-26T14:28:40.568Z</time></trkpt><trkpt lat="45.8747541" lon="11.5103019"><ele>1003.0</ele><time>2026-04-26T14:28:41.568Z</time></trkpt><trkpt lat="45.8747187" lon="11.5104126"><ele>1002.9999999999999</ele><time>2026-04-26T14:28:42.58Z</time></trkpt><trkpt lat="45.8746808" lon="11.5105116"><ele>1003.0</ele><time>2026-04-26T14:28:43.571Z</time></trkpt><trkpt lat="45.8746368" lon="11.5106023"><ele>1003.0</ele><time>2026-04-26T14:28:44.592Z</time></trkpt><trkpt lat="45.8745957" lon="11.5106844"><ele>1003.0</ele><time>2026-04-26T14:28:45.575Z</time></trkpt><trkpt lat="45.8745561" lon="11.5107592"><ele>1002.9999999999999</ele><time>2026-04-26T14:28:46.573Z</time></trkpt><trkpt lat="45.8744854" lon="11.5108935"><ele>1003.0</ele><time>2026-04-26T14:28:48.581Z</time></trkpt><trkpt lat="45.8743812" lon="11.5109835"><ele>1003.0</ele><time>2026-04-26T14:28:50.567Z</time></trkpt><trkpt lat="45.8743042" lon="11.5110054"><ele>1003.0</ele><time>2026-04-26T14:28:51.591Z</time></trkpt><trkpt lat="45.8741996" lon="11.5110307"><ele>1003.0</ele><time>2026-04-26T14:28:52.596Z</time></trkpt><trkpt lat="45.8740817" lon="11.5110521"><ele>1003.0</ele><time>2026-04-26T14:28:53.572Z</time></trkpt><trkpt lat="45.8739588" lon="11.5110851"><ele>1003.0</ele><time>2026-04-26T14:28:54.593Z</time></trkpt><trkpt lat="45.8738406" lon="11.5111153"><ele>1002.5999999999999</ele><time>2026-04-26T14:28:55.579Z</time></trkpt><trkpt lat="45.8737232" lon="11.5111415"><ele>1002.1999999999999</ele><time>2026-04-26T14:28:56.58Z</time></trkpt><trkpt lat="45.8736175" lon="11.5111774"><ele>1001.8</ele><time>2026-04-26T14:28:57.58Z</time></trkpt><trkpt lat="45.8735156" lon="11.5112037"><ele>1001.4</ele><time>2026-04-26T14:28:58.59Z</time></trkpt><trkpt lat="45.873415" lon="11.5112344"><ele>1001.0</ele><time>2026-04-26T14:28:59.587Z</time></trkpt><trkpt lat="45.873323" lon="11.5112596"><ele>1000.6666666666667</ele><time>2026-04-26T14:29:00.573Z</time></trkpt><trkpt lat="45.8732356" lon="11.5112863"><ele>1000.3333333333334</ele><time>2026-04-26T14:29:01.587Z</time></trkpt><trkpt lat="45.8731504" lon="11.5113042"><ele>1000.0</ele><time>2026-04-26T14:29:02.576Z</time></trkpt><trkpt lat="45.8730722" lon="11.511321"><ele>999.6666666666667</ele><time>2026-04-26T14:29:03.578Z</time></trkpt><trkpt lat="45.8729986" lon="11.5113411"><ele>999.3333333333334</ele><time>2026-04-26T14:29:04.589Z</time></trkpt><trkpt lat="45.8729313" lon="11.5113607"><ele>999.0</ele><time>2026-04-26T14:29:05.571Z</time></trkpt><trkpt lat="45.8728641" lon="11.511374"><ele>999.0</ele><time>2026-04-26T14:29:06.579Z</time></trkpt><trkpt lat="45.8727959" lon="11.5113899"><ele>999.0</ele><time>2026-04-26T14:29:07.568Z</time></trkpt><trkpt lat="45.8727226" lon="11.5114088"><ele>999.0</ele><time>2026-04-26T14:29:08.571Z</time></trkpt><trkpt lat="45.8726444" lon="11.5114377"><ele>999.0</ele><time>2026-04-26T14:29:09.588Z</time></trkpt><trkpt lat="45.8725691" lon="11.5114538"><ele>999.0</ele><time>2026-04-26T14:29:10.575Z</time></trkpt><trkpt lat="45.8724861" lon="11.5114829"><ele>999.0</ele><time>2026-04-26T14:29:11.595Z</time></trkpt><trkpt lat="45.8724118" lon="11.5115137"><ele>998.6666666666666</ele><time>2026-04-26T14:29:12.579Z</time></trkpt><trkpt lat="45.8723344" lon="11.5115367"><ele>998.3333333333333</ele><time>2026-04-26T14:29:13.577Z</time></trkpt><trkpt lat="45.8722574" lon="11.5115593"><ele>998.0</ele><time>2026-04-26T14:29:14.58Z</time></trkpt><trkpt lat="45.8721804" lon="11.5115713"><ele>997.6666666666666</ele><time>2026-04-26T14:29:15.59Z</time></trkpt><trkpt lat="45.8721104" lon="11.5115863"><ele>997.3333333333333</ele><time>2026-04-26T14:29:16.583Z</time></trkpt><trkpt lat="45.8720163" lon="11.5116167"><ele>997.0</ele><time>2026-04-26T14:29:18.575Z</time></trkpt><trkpt lat="45.871952" lon="11.5115986"><ele>997.0</ele><time>2026-04-26T14:29:21.58Z</time></trkpt><trkpt lat="45.8719296" lon="11.5114814"><ele>997.0</ele><time>2026-04-26T14:29:24.582Z</time></trkpt><trkpt lat="45.87195" lon="11.5113104"><ele>997.0</ele><time>2026-04-26T14:29:26.585Z</time></trkpt><trkpt lat="45.8719838" lon="11.5111396"><ele>997.0</ele><time>2026-04-26T14:29:28.582Z</time></trkpt><trkpt lat="45.8720018" lon="11.5110467"><ele>997.0</ele><time>2026-04-26T14:29:29.57Z</time></trkpt><trkpt lat="45.8720146" lon="11.5109483"><ele>997.0</ele><time>2026-04-26T14:29:30.578Z</time></trkpt><trkpt lat="45.8720433" lon="11.5107753"><ele>997.0</ele><time>2026-04-26T14:29:32.579Z</time></trkpt><trkpt lat="45.8720557" lon="11.510682"><ele>997.0</ele><time>2026-04-26T14:29:33.573Z</time></trkpt><trkpt lat="45.8720677" lon="11.5105851"><ele>997.0</ele><time>2026-04-26T14:29:34.582Z</time></trkpt><trkpt lat="45.8720901" lon="11.5104102"><ele>997.0</ele><time>2026-04-26T14:29:36.574Z</time></trkpt><trkpt lat="45.8720845" lon="11.510247"><ele>996.8333333333333</ele><time>2026-04-26T14:29:38.581Z</time></trkpt><trkpt lat="45.8720074" lon="11.5101692"><ele>996.6666666666666</ele><time>2026-04-26T14:29:40.584Z</time></trkpt><trkpt lat="45.8719154" lon="11.5102044"><ele>996.5</ele><time>2026-04-26T14:29:42.582Z</time></trkpt><trkpt lat="45.8718343" lon="11.5102349"><ele>996.3333333333333</ele><time>2026-04-26T14:29:44.581Z</time></trkpt><trkpt lat="45.8717748" lon="11.5102683"><ele>996.1666666666666</ele><time>2026-04-26T14:29:46.565Z</time></trkpt><trkpt lat="45.8717098" lon="11.5103133"><ele>996.0</ele><time>2026-04-26T14:29:48.599Z</time></trkpt><trkpt lat="45.8716241" lon="11.5103762"><ele>996.0</ele><time>2026-04-26T14:29:50.582Z</time></trkpt><trkpt lat="45.8715298" lon="11.5104372"><ele>996.0</ele><time>2026-04-26T14:29:52.582Z</time></trkpt><trkpt lat="45.8714622" lon="11.5104884"><ele>996.0</ele><time>2026-04-26T14:29:54.582Z</time></trkpt><trkpt lat="45.8714057" lon="11.5105522"><ele>996.0</ele><time>2026-04-26T14:29:58.574Z</time></trkpt><trkpt lat="45.8713355" lon="11.5105888"><ele>996.0</ele><time>2026-04-26T14:30:16.582Z</time></trkpt><trkpt lat="45.871291" lon="11.5107085"><ele>996.0</ele><time>2026-04-26T14:30:18.58Z</time></trkpt><trkpt lat="45.8712993" lon="11.5108113"><ele>996.0</ele><time>2026-04-26T14:30:19.572Z</time></trkpt><trkpt lat="45.8713196" lon="11.5109463"><ele>995.9999999999999</ele><time>2026-04-26T14:30:20.572Z</time></trkpt><trkpt lat="45.8713438" lon="11.5110727"><ele>995.9999999999999</ele><time>2026-04-26T14:30:21.592Z</time></trkpt><trkpt lat="45.8713793" lon="11.5112173"><ele>996.0</ele><time>2026-04-26T14:30:22.577Z</time></trkpt><trkpt lat="45.8714186" lon="11.5113525"><ele>996.0</ele><time>2026-04-26T14:30:23.58Z</time></trkpt><trkpt lat="45.8714459" lon="11.5114774"><ele>996.1666666666666</ele><time>2026-04-26T14:30:24.571Z</time></trkpt><trkpt lat="45.871472" lon="11.5115875"><ele>996.3333333333333</ele><time>2026-04-26T14:30:25.583Z</time></trkpt><trkpt lat="45.8714938" lon="11.5116782"><ele>996.5</ele><time>2026-04-26T14:30:26.582Z</time></trkpt><trkpt lat="45.8715851" lon="11.5117781"><ele>996.6666666666666</ele><time>2026-04-26T14:30:28.58Z</time></trkpt><trkpt lat="45.8716518" lon="11.5117555"><ele>996.8333333333333</ele><time>2026-04-26T14:30:29.585Z</time></trkpt><trkpt lat="45.8717141" lon="11.511706"><ele>997.0</ele><time>2026-04-26T14:30:30.582Z</time></trkpt><trkpt lat="45.8718004" lon="11.5116273"><ele>997.0</ele><time>2026-04-26T14:30:32.597Z</time></trkpt><trkpt lat="45.8718875" lon="11.5115543"><ele>997.0</ele><time>2026-04-26T14:30:34.58Z</time></trkpt><trkpt lat="45.8719481" lon="11.5113584"><ele>997.0</ele><time>2026-04-26T14:30:36.579Z</time></trkpt><trkpt lat="45.8719636" lon="11.5111976"><ele>997.0</ele><time>2026-04-26T14:30:37.582Z</time></trkpt><trkpt lat="45.8719912" lon="11.5110466"><ele>997.0</ele><time>2026-04-26T14:30:38.576Z</time></trkpt><trkpt lat="45.872019" lon="11.5109173"><ele>997.0</ele><time>2026-04-26T14:30:39.573Z</time></trkpt><trkpt lat="45.87204" lon="11.5107912"><ele>997.0</ele><time>2026-04-26T14:30:40.57Z</time></trkpt><trkpt lat="45.8720543" lon="11.5106672"><ele>997.0</ele><time>2026-04-26T14:30:41.566Z</time></trkpt><trkpt lat="45.8720719" lon="11.510537"><ele>997.0</ele><time>2026-04-26T14:30:42.574Z</time></trkpt><trkpt lat="45.8720949" lon="11.5103946"><ele>996.8</ele><time>2026-04-26T14:30:43.578Z</time></trkpt><trkpt lat="45.8721179" lon="11.5102513"><ele>996.6</ele><time>2026-04-26T14:30:44.573Z</time></trkpt><trkpt lat="45.8721396" lon="11.5101129"><ele>996.3999999999999</ele><time>2026-04-26T14:30:45.573Z</time></trkpt><trkpt lat="45.8721586" lon="11.5099551"><ele>996.1999999999999</ele><time>2026-04-26T14:30:46.568Z</time></trkpt><trkpt lat="45.8721848" lon="11.5098181"><ele>996.0</ele><time>2026-04-26T14:30:47.57Z</time></trkpt><trkpt lat="45.8722064" lon="11.5096645"><ele>996.0</ele><time>2026-04-26T14:30:48.562Z</time></trkpt><trkpt lat="45.8722286" lon="11.50951"><ele>995.9999999999999</ele><time>2026-04-26T14:30:49.574Z</time></trkpt><trkpt lat="45.8722501" lon="11.5093782"><ele>995.9999999999999</ele><time>2026-04-26T14:30:50.572Z</time></trkpt><trkpt lat="45.872262" lon="11.5092578"><ele>996.0</ele><time>2026-04-26T14:30:51.575Z</time></trkpt><trkpt lat="45.8722771" lon="11.5091283"><ele>996.0</ele><time>2026-04-26T14:30:52.568Z</time></trkpt><trkpt lat="45.8722954" lon="11.5090042"><ele>996.0</ele><time>2026-04-26T14:30:53.573Z</time></trkpt><trkpt lat="45.8723173" lon="11.508884"><ele>996.0</ele><time>2026-04-26T14:30:54.58Z</time></trkpt><trkpt lat="45.8723292" lon="11.5087759"><ele>996.0</ele><time>2026-04-26T14:30:55.57Z</time></trkpt><trkpt lat="45.8723415" lon="11.5086181"><ele>996.0</ele><time>2026-04-26T14:30:57.571Z</time></trkpt><trkpt lat="45.8723585" lon="11.5085015"><ele>996.0</ele><time>2026-04-26T14:30:59.582Z</time></trkpt><trkpt lat="45.8723883" lon="11.5084075"><ele>996.0</ele><time>2026-04-26T14:31:02.581Z</time></trkpt><trkpt lat="45.8723874" lon="11.5083074"><ele>996.6666666666666</ele><time>2026-04-26T14:32:02.585Z</time></trkpt><trkpt lat="45.8723879" lon="11.5081711"><ele>997.3333333333333</ele><time>2026-04-26T14:32:05.581Z</time></trkpt><trkpt lat="45.8724021" lon="11.508074"><ele>998.0</ele><time>2026-04-26T14:32:06.573Z</time></trkpt><trkpt lat="45.872429" lon="11.5079692"><ele>998.6666666666666</ele><time>2026-04-26T14:32:07.577Z</time></trkpt><trkpt lat="45.8724519" lon="11.5078522"><ele>999.3333333333333</ele><time>2026-04-26T14:32:08.577Z</time></trkpt><trkpt lat="45.8724747" lon="11.5077478"><ele>1000.0</ele><time>2026-04-26T14:32:09.579Z</time></trkpt><trkpt lat="45.8724912" lon="11.5076226"><ele>1000.0</ele><time>2026-04-26T14:32:10.595Z</time></trkpt><trkpt lat="45.8725135" lon="11.50749"><ele>1000.0</ele><time>2026-04-26T14:32:11.575Z</time></trkpt><trkpt lat="45.8725386" lon="11.507359"><ele>1000.0</ele><time>2026-04-26T14:32:12.577Z</time></trkpt><trkpt lat="45.872572" lon="11.5072279"><ele>1000.0</ele><time>2026-04-26T14:32:13.574Z</time></trkpt><trkpt lat="45.872623" lon="11.5071066"><ele>1000.0</ele><time>2026-04-26T14:32:14.58Z</time></trkpt><trkpt lat="45.8726969" lon="11.5069881"><ele>1000.6</ele><time>2026-04-26T14:32:15.584Z</time></trkpt><trkpt lat="45.8727797" lon="11.5068808"><ele>1001.2</ele><time>2026-04-26T14:32:16.583Z</time></trkpt><trkpt lat="45.8728677" lon="11.5067823"><ele>1001.8</ele><time>2026-04-26T14:32:17.577Z</time></trkpt><trkpt lat="45.8729542" lon="11.5066768"><ele>1002.4</ele><time>2026-04-26T14:32:18.582Z</time></trkpt><trkpt lat="45.8730363" lon="11.5065752"><ele>1003.0</ele><time>2026-04-26T14:32:19.57Z</time></trkpt><trkpt lat="45.8731229" lon="11.5064748"><ele>1003.0</ele><time>2026-04-26T14:32:20.584Z</time></trkpt><trkpt lat="45.8731971" lon="11.5063729"><ele>1003.0</ele><time>2026-04-26T14:32:21.587Z</time></trkpt><trkpt lat="45.8732556" lon="11.5062618"><ele>1003.0</ele><time>2026-04-26T14:32:22.585Z</time></trkpt><trkpt lat="45.8732933" lon="11.5061345"><ele>1003.0</ele><time>2026-04-26T14:32:23.578Z</time></trkpt><trkpt lat="45.873323" lon="11.5060234"><ele>1003.0</ele><time>2026-04-26T14:32:24.572Z</time></trkpt><trkpt lat="45.873356" lon="11.5059163"><ele>1003.3333333333333</ele><time>2026-04-26T14:32:25.576Z</time></trkpt><trkpt lat="45.8733986" lon="11.5058239"><ele>1003.6666666666666</ele><time>2026-04-26T14:32:26.585Z</time></trkpt><trkpt lat="45.8734451" lon="11.5057315"><ele>1004.0</ele><time>2026-04-26T14:32:27.584Z</time></trkpt><trkpt lat="45.8734972" lon="11.5056458"><ele>1004.3333333333333</ele><time>2026-04-26T14:32:28.576Z</time></trkpt><trkpt lat="45.8735275" lon="11.5055571"><ele>1004.6666666666666</ele><time>2026-04-26T14:32:29.579Z</time></trkpt><trkpt lat="45.8735211" lon="11.5054418"><ele>1005.0</ele><time>2026-04-26T14:32:30.575Z</time></trkpt><trkpt lat="45.8734955" lon="11.5053289"><ele>1006.0</ele><time>2026-04-26T14:32:31.579Z</time></trkpt><trkpt lat="45.8734596" lon="11.5051984"><ele>1007.0</ele><time>2026-04-26T14:32:32.571Z</time></trkpt><trkpt lat="45.8734241" lon="11.5050749"><ele>1008.0</ele><time>2026-04-26T14:32:33.581Z</time></trkpt><trkpt lat="45.8733962" lon="11.5049302"><ele>1009.0</ele><time>2026-04-26T14:32:34.582Z</time></trkpt><trkpt lat="45.8733672" lon="11.5047918"><ele>1010.0</ele><time>2026-04-26T14:32:35.573Z</time></trkpt><trkpt lat="45.8733277" lon="11.5046475"><ele>1010.5</ele><time>2026-04-26T14:32:36.583Z</time></trkpt><trkpt lat="45.8732812" lon="11.504497"><ele>1011.0</ele><time>2026-04-26T14:32:37.563Z</time></trkpt><trkpt lat="45.8709237" lon="11.4969538"><ele>991.0</ele><time>2026-04-26T14:33:53.515Z</time></trkpt><trkpt lat="45.8705397" lon="11.495031"><ele>1026.0</ele><time>2026-04-26T14:34:00.393Z</time></trkpt><trkpt lat="45.8698986" lon="11.4883712"><ele>1023.0</ele><time>2026-04-26T14:34:07.917Z</time></trkpt><trkpt lat="45.8688612" lon="11.4873333"><ele>1006.0</ele><time>2026-04-26T14:34:15.322Z</time></trkpt><trkpt lat="45.8674032" lon="11.4867207"><ele>1016.0</ele><time>2026-04-26T14:34:22.859Z</time></trkpt><trkpt lat="45.8688199" lon="11.4851482"><ele>1012.0</ele><time>2026-04-26T14:34:30.287Z</time></trkpt><trkpt lat="45.8693214" lon="11.4834439"><ele>1006.0</ele><time>2026-04-26T14:34:37.809Z</time></trkpt><trkpt lat="45.8695738" lon="11.4794698"><ele>1004.0</ele><time>2026-04-26T14:35:00.331Z</time></trkpt><trkpt lat="45.8691808" lon="11.4792195"><ele>1002.0</ele><time>2026-04-26T14:35:15.274Z</time></trkpt><trkpt lat="45.8687665" lon="11.4789033"><ele>1000.0</ele><time>2026-04-26T14:35:22.708Z</time></trkpt><trkpt lat="45.8676252" lon="11.4775579"><ele>999.5</ele><time>2026-04-26T14:35:30.192Z</time></trkpt><trkpt lat="45.8674132" lon="11.4771274"><ele>999.0</ele><time>2026-04-26T14:35:37.743Z</time></trkpt><trkpt lat="45.8669216" lon="11.4765962"><ele>998.0</ele><time>2026-04-26T14:35:45.353Z</time></trkpt><trkpt lat="45.8662758" lon="11.4760877"><ele>995.0</ele><time>2026-04-26T14:35:52.713Z</time></trkpt><trkpt lat="45.8657635" lon="11.4753225"><ele>995.0</ele><time>2026-04-26T14:36:00.173Z</time></trkpt><trkpt lat="45.8655735" lon="11.4750817"><ele>995.0</ele><time>2026-04-26T14:36:15.136Z</time></trkpt><trkpt lat="45.865206" lon="11.4747962"><ele>996.0</ele><time>2026-04-26T14:36:22.891Z</time></trkpt><trkpt lat="45.8647851" lon="11.4743393"><ele>996.0</ele><time>2026-04-26T14:36:30.192Z</time></trkpt><trkpt lat="45.864456" lon="11.4741312"><ele>996.0</ele><time>2026-04-26T14:36:37.622Z</time></trkpt><trkpt lat="45.8640059" lon="11.4730897"><ele>991.0</ele><time>2026-04-26T14:36:45.043Z</time></trkpt><trkpt lat="45.8632995" lon="11.4726062"><ele>991.0</ele><time>2026-04-26T14:36:52.547Z</time></trkpt><trkpt lat="45.8627985" lon="11.4723061"><ele>983.0</ele><time>2026-04-26T14:37:00.107Z</time></trkpt><trkpt lat="45.862691" lon="11.4715134"><ele>977.0</ele><time>2026-04-26T14:37:07.62Z</time></trkpt><trkpt lat="45.8630147" lon="11.4695746"><ele>975.0</ele><time>2026-04-26T14:37:15.091Z</time></trkpt><trkpt lat="45.8631924" lon="11.4683532"><ele>974.0</ele><time>2026-04-26T14:37:22.366Z</time></trkpt><trkpt lat="45.8630737" lon="11.466961"><ele>972.0</ele><time>2026-04-26T14:37:29.838Z</time></trkpt><trkpt lat="45.8626827" lon="11.4660479"><ele>973.0</ele><time>2026-04-26T14:37:37.335Z</time></trkpt><trkpt lat="45.8625089" lon="11.4653012"><ele>973.0</ele><time>2026-04-26T14:37:44.737Z</time></trkpt><trkpt lat="45.8618974" lon="11.4646891"><ele>972.25</ele><time>2026-04-26T14:37:49.557Z</time></trkpt><trkpt lat="45.8618389" lon="11.4645735"><ele>971.5</ele><time>2026-04-26T14:37:50.587Z</time></trkpt><trkpt lat="45.861811" lon="11.4643806"><ele>970.75</ele><time>2026-04-26T14:37:51.59Z</time></trkpt><trkpt lat="45.8617405" lon="11.4642533"><ele>970.0</ele><time>2026-04-26T14:37:52.577Z</time></trkpt><trkpt lat="45.8604927" lon="11.4620272"><ele>954.0</ele><time>2026-04-26T14:38:14.448Z</time></trkpt><trkpt lat="45.8610534" lon="11.4611276"><ele>956.0</ele><time>2026-04-26T14:38:21.496Z</time></trkpt><trkpt lat="45.8606997" lon="11.4599005"><ele>953.0</ele><time>2026-04-26T14:38:29.024Z</time></trkpt><trkpt lat="45.860568" lon="11.4586979"><ele>943.0</ele><time>2026-04-26T14:38:36.592Z</time></trkpt><trkpt lat="45.8598396" lon="11.4564613"><ele>943.0</ele><time>2026-04-26T14:38:44.012Z</time></trkpt><trkpt lat="45.859458" lon="11.4570571"><ele>941.0</ele><time>2026-04-26T14:38:51.477Z</time></trkpt><trkpt lat="45.8586264" lon="11.4563061"><ele>1048.0</ele><time>2026-04-26T14:38:59.207Z</time></trkpt><trkpt lat="45.8802584" lon="11.4823181"><ele>975.0</ele><time>2026-04-26T14:40:43.65Z</time></trkpt><trkpt lat="45.848755" lon="11.4463962"><ele>977.0</ele><time>2026-04-26T14:40:58.588Z</time></trkpt><trkpt lat="45.8484146" lon="11.446885"><ele>981.0</ele><time>2026-04-26T14:41:14.418Z</time></trkpt><trkpt lat="45.8479126" lon="11.4459645"><ele>989.0</ele><time>2026-04-26T14:41:21.01Z</time></trkpt><trkpt lat="45.8471977" lon="11.4448007"><ele>1041.0</ele><time>2026-04-26T14:41:28.473Z</time></trkpt><trkpt lat="45.8433349" lon="11.4380427"><ele>1052.0</ele><time>2026-04-26T14:42:43.274Z</time></trkpt><trkpt lat="45.8433952" lon="11.4370544"><ele>1050.0</ele><time>2026-04-26T14:42:50.718Z</time></trkpt><trkpt lat="45.8434013" lon="11.4361423"><ele>1067.0</ele><time>2026-04-26T14:42:58.187Z</time></trkpt><trkpt lat="45.8404682" lon="11.4308204"><ele>1050.0</ele><time>2026-04-26T14:43:05.661Z</time></trkpt><trkpt lat="45.8396764" lon="11.432345"><ele>1051.0</ele><time>2026-04-26T14:43:28.17Z</time></trkpt><trkpt lat="45.8372306" lon="11.4321944"><ele>1045.0</ele><time>2026-04-26T14:43:35.697Z</time></trkpt><trkpt lat="45.8363124" lon="11.4325999"><ele>1027.0</ele><time>2026-04-26T14:43:50.712Z</time></trkpt><trkpt lat="45.8288511" lon="11.4364728"><ele>652.0</ele><time>2026-04-26T14:44:27.895Z</time></trkpt><trkpt lat="45.7940307" lon="11.4349004"><ele>293.0</ele><time>2026-04-26T14:51:48.91Z</time></trkpt><trkpt lat="45.7815223" lon="11.4341567"><ele>316.0</ele><time>2026-04-26T14:55:40.978Z</time></trkpt><trkpt lat="45.78089" lon="11.442946"><ele>281.0</ele><time>2026-04-26T14:57:17.683Z</time></trkpt><trkpt lat="45.7785401" lon="11.4462994"><ele>265.0</ele><time>2026-04-26T14:57:32.988Z</time></trkpt><trkpt lat="45.7749129" lon="11.4498229"><ele>265.0</ele><time>2026-04-26T14:57:40.419Z</time></trkpt><trkpt lat="45.7751295" lon="11.4497706"><ele>265.0</ele><time>2026-04-26T14:58:02.688Z</time></trkpt><trkpt lat="45.7763539" lon="11.4494665"><ele>267.0</ele><time>2026-04-26T14:58:10.158Z</time></trkpt><trkpt lat="45.7751984" lon="11.4483353"><ele>265.0</ele><time>2026-04-26T14:58:25.187Z</time></trkpt><trkpt lat="45.7749803" lon="11.4498582"><ele>261.0</ele><time>2026-04-26T14:58:32.669Z</time></trkpt><trkpt lat="45.7735528" lon="11.4510708"><ele>259.0</ele><time>2026-04-26T14:58:40.071Z</time></trkpt><trkpt lat="45.7731051" lon="11.4518007"><ele>212.0</ele><time>2026-04-26T14:58:47.537Z</time></trkpt><trkpt lat="45.7685008" lon="11.4499988"><ele>201.0</ele><time>2026-04-26T14:58:55.114Z</time></trkpt><trkpt lat="45.7685647" lon="11.4510847"><ele>227.0</ele><time>2026-04-26T14:59:03.375Z</time></trkpt><trkpt lat="45.77047" lon="11.4598577"><ele>249.0</ele><time>2026-04-26T14:59:18.434Z</time></trkpt><trkpt lat="45.7711426" lon="11.4558763"><ele>218.0</ele><time>2026-04-26T14:59:24.924Z</time></trkpt><trkpt lat="45.7685412" lon="11.4566679"><ele>238.0</ele><time>2026-04-26T14:59:32.397Z</time></trkpt><trkpt lat="45.767453" lon="11.4570323"><ele>243.0</ele><time>2026-04-26T14:59:54.992Z</time></trkpt><trkpt lat="45.7673496" lon="11.4585435"><ele>247.0</ele><time>2026-04-26T15:00:02.404Z</time></trkpt><trkpt lat="45.7667223" lon="11.4587352"><ele>247.0</ele><time>2026-04-26T15:00:09.96Z</time></trkpt><trkpt lat="45.7663559" lon="11.4585489"><ele>247.0</ele><time>2026-04-26T15:00:17.223Z</time></trkpt><trkpt lat="45.7658566" lon="11.4583751"><ele>245.0</ele><time>2026-04-26T15:00:24.727Z</time></trkpt><trkpt lat="45.7644649" lon="11.4584936"><ele>244.0</ele><time>2026-04-26T15:00:32.2Z</time></trkpt><trkpt lat="45.7633722" lon="11.4581948"><ele>241.0</ele><time>2026-04-26T15:00:39.715Z</time></trkpt><trkpt lat="45.7618556" lon="11.4582045"><ele>241.0</ele><time>2026-04-26T15:00:47.175Z</time></trkpt><trkpt lat="45.7613386" lon="11.4582528"><ele>241.0</ele><time>2026-04-26T15:00:54.511Z</time></trkpt><trkpt lat="45.7603495" lon="11.4584405"><ele>239.0</ele><time>2026-04-26T15:01:02.098Z</time></trkpt><trkpt lat="45.7592914" lon="11.4580951"><ele>237.0</ele><time>2026-04-26T15:01:09.677Z</time></trkpt><trkpt lat="45.7582705" lon="11.4571405"><ele>236.0</ele><time>2026-04-26T15:01:17.133Z</time></trkpt><trkpt lat="45.756868" lon="11.4578228"><ele>235.0</ele><time>2026-04-26T15:01:24.48Z</time></trkpt><trkpt lat="45.7553363" lon="11.4580047"><ele>231.0</ele><time>2026-04-26T15:01:31.792Z</time></trkpt><trkpt lat="45.7540748" lon="11.4583727"><ele>230.0</ele><time>2026-04-26T15:01:39.166Z</time></trkpt><trkpt lat="45.7536584" lon="11.457563"><ele>228.0</ele><time>2026-04-26T15:01:46.705Z</time></trkpt><trkpt lat="45.7527164" lon="11.4577722"><ele>225.0</ele><time>2026-04-26T15:01:54.18Z</time></trkpt><trkpt lat="45.7517355" lon="11.4577141"><ele>226.0</ele><time>2026-04-26T15:02:01.584Z</time></trkpt><trkpt lat="45.7503961" lon="11.4573834"><ele>225.0</ele><time>2026-04-26T15:02:09.166Z</time></trkpt><trkpt lat="45.7495292" lon="11.4566872"><ele>224.0</ele><time>2026-04-26T15:02:16.692Z</time></trkpt><trkpt lat="45.7488492" lon="11.4563592"><ele>220.0</ele><time>2026-04-26T15:02:24.189Z</time></trkpt><trkpt lat="45.7476942" lon="11.4563388"><ele>220.0</ele><time>2026-04-26T15:02:31.598Z</time></trkpt><trkpt lat="45.7467102" lon="11.4564773"><ele>219.0</ele><time>2026-04-26T15:02:38.935Z</time></trkpt><trkpt lat="45.7458652" lon="11.4583862"><ele>217.0</ele><time>2026-04-26T15:02:46.7Z</time></trkpt><trkpt lat="45.745057" lon="11.457466"><ele>217.0</ele><time>2026-04-26T15:02:53.605Z</time></trkpt><trkpt lat="45.7446988" lon="11.4585164"><ele>215.0</ele><time>2026-04-26T15:03:01.26Z</time></trkpt><trkpt lat="45.7439627" lon="11.4592781"><ele>215.0</ele><time>2026-04-26T15:03:08.354Z</time></trkpt><trkpt lat="45.7432385" lon="11.4606224"><ele>212.0</ele><time>2026-04-26T15:03:15.84Z</time></trkpt><trkpt lat="45.7424291" lon="11.4608079"><ele>214.0</ele><time>2026-04-26T15:03:23.359Z</time></trkpt><trkpt lat="45.7415369" lon="11.462471"><ele>214.0</ele><time>2026-04-26T15:03:31.557Z</time></trkpt><trkpt lat="45.7413916" lon="11.4626195"><ele>214.0</ele><time>2026-04-26T15:03:32.562Z</time></trkpt><trkpt lat="45.7411855" lon="11.4627185"><ele>214.0</ele><time>2026-04-26T15:03:33.556Z</time></trkpt><trkpt lat="45.7410435" lon="11.462764"><ele>213.5</ele><time>2026-04-26T15:03:34.559Z</time></trkpt><trkpt lat="45.7407051" lon="11.4629975"><ele>213.0</ele><time>2026-04-26T15:03:36.569Z</time></trkpt><trkpt lat="45.7405559" lon="11.4630593"><ele>213.0</ele><time>2026-04-26T15:03:37.567Z</time></trkpt><trkpt lat="45.7403858" lon="11.4631547"><ele>213.0</ele><time>2026-04-26T15:03:38.587Z</time></trkpt><trkpt lat="45.7402374" lon="11.4632427"><ele>213.0</ele><time>2026-04-26T15:03:39.598Z</time></trkpt><trkpt lat="45.7400996" lon="11.4633142"><ele>212.0</ele><time>2026-04-26T15:03:40.57Z</time></trkpt><trkpt lat="45.7399669" lon="11.4633723"><ele>211.0</ele><time>2026-04-26T15:03:41.607Z</time></trkpt><trkpt lat="45.7398428" lon="11.4634307"><ele>210.0</ele><time>2026-04-26T15:03:42.571Z</time></trkpt><trkpt lat="45.7397294" lon="11.4634763"><ele>209.0</ele><time>2026-04-26T15:03:43.571Z</time></trkpt><trkpt lat="45.7396209" lon="11.4635358"><ele>208.66666666666669</ele><time>2026-04-26T15:03:44.557Z</time></trkpt><trkpt lat="45.7393758" lon="11.4636766"><ele>208.33333333333331</ele><time>2026-04-26T15:03:46.564Z</time></trkpt><trkpt lat="45.739239" lon="11.4637478"><ele>208.0</ele><time>2026-04-26T15:03:47.56Z</time></trkpt><trkpt lat="45.7390959" lon="11.4638308"><ele>208.0</ele><time>2026-04-26T15:03:48.572Z</time></trkpt><trkpt lat="45.7389596" lon="11.4639046"><ele>208.0</ele><time>2026-04-26T15:03:49.579Z</time></trkpt><trkpt lat="45.7388013" lon="11.4639783"><ele>208.0</ele><time>2026-04-26T15:03:50.575Z</time></trkpt><trkpt lat="45.7386412" lon="11.4640595"><ele>207.66666666666666</ele><time>2026-04-26T15:03:51.563Z</time></trkpt><trkpt lat="45.7384775" lon="11.4641424"><ele>207.33333333333331</ele><time>2026-04-26T15:03:52.572Z</time></trkpt><trkpt lat="45.7383143" lon="11.4642064"><ele>207.0</ele><time>2026-04-26T15:03:53.574Z</time></trkpt><trkpt lat="45.7381604" lon="11.4642715"><ele>207.0</ele><time>2026-04-26T15:03:54.585Z</time></trkpt><trkpt lat="45.7380013" lon="11.4643041"><ele>207.0</ele><time>2026-04-26T15:03:55.584Z</time></trkpt><trkpt lat="45.7378543" lon="11.4643497"><ele>207.0</ele><time>2026-04-26T15:03:56.573Z</time></trkpt><trkpt lat="45.7377211" lon="11.4643782"><ele>207.0</ele><time>2026-04-26T15:03:57.566Z</time></trkpt><trkpt lat="45.7376063" lon="11.4643942"><ele>207.16666666666666</ele><time>2026-04-26T15:03:58.594Z</time></trkpt><trkpt lat="45.7375183" lon="11.4644048"><ele>207.33333333333331</ele><time>2026-04-26T15:03:59.585Z</time></trkpt><trkpt lat="45.7374355" lon="11.4644178"><ele>207.5</ele><time>2026-04-26T15:04:00.572Z</time></trkpt><trkpt lat="45.7373601" lon="11.4644236"><ele>207.66666666666666</ele><time>2026-04-26T15:04:01.59Z</time></trkpt><trkpt lat="45.7372742" lon="11.464428"><ele>207.83333333333331</ele><time>2026-04-26T15:04:02.567Z</time></trkpt><trkpt lat="45.7371735" lon="11.464432"><ele>208.0</ele><time>2026-04-26T15:04:03.57Z</time></trkpt><trkpt lat="45.7370552" lon="11.4644334"><ele>208.0</ele><time>2026-04-26T15:04:04.571Z</time></trkpt><trkpt lat="45.7369311" lon="11.464445"><ele>208.0</ele><time>2026-04-26T15:04:05.606Z</time></trkpt><trkpt lat="45.7368018" lon="11.4644465"><ele>208.0</ele><time>2026-04-26T15:04:06.576Z</time></trkpt><trkpt lat="45.736663" lon="11.4644498"><ele>208.0</ele><time>2026-04-26T15:04:07.556Z</time></trkpt><trkpt lat="45.7365172" lon="11.4644486"><ele>206.33333333333331</ele><time>2026-04-26T15:04:08.56Z</time></trkpt><trkpt lat="45.7363678" lon="11.4644497"><ele>204.66666666666669</ele><time>2026-04-26T15:04:09.556Z</time></trkpt><trkpt lat="45.7361985" lon="11.4644562"><ele>203.0</ele><time>2026-04-26T15:04:10.574Z</time></trkpt><trkpt lat="45.7360247" lon="11.4644505"><ele>202.33333333333334</ele><time>2026-04-26T15:04:11.579Z</time></trkpt><trkpt lat="45.7358386" lon="11.4644539"><ele>201.66666666666669</ele><time>2026-04-26T15:04:12.584Z</time></trkpt><trkpt lat="45.7356467" lon="11.464456"><ele>201.0</ele><time>2026-04-26T15:04:13.575Z</time></trkpt><trkpt lat="45.7354512" lon="11.464459"><ele>201.0</ele><time>2026-04-26T15:04:14.597Z</time></trkpt><trkpt lat="45.7352517" lon="11.4644606"><ele>201.0</ele><time>2026-04-26T15:04:15.575Z</time></trkpt><trkpt lat="45.7350486" lon="11.4644583"><ele>201.0</ele><time>2026-04-26T15:04:16.571Z</time></trkpt><trkpt lat="45.7348442" lon="11.4644499"><ele>200.66666666666669</ele><time>2026-04-26T15:04:17.586Z</time></trkpt><trkpt lat="45.7346425" lon="11.4644447"><ele>200.33333333333334</ele><time>2026-04-26T15:04:18.583Z</time></trkpt><trkpt lat="45.7344413" lon="11.464446"><ele>200.0</ele><time>2026-04-26T15:04:19.589Z</time></trkpt><trkpt lat="45.7342346" lon="11.464446"><ele>199.0</ele><time>2026-04-26T15:04:20.58Z</time></trkpt><trkpt lat="45.7340321" lon="11.4644415"><ele>198.0</ele><time>2026-04-26T15:04:21.589Z</time></trkpt><trkpt lat="45.7338338" lon="11.4644377"><ele>197.0</ele><time>2026-04-26T15:04:22.597Z</time></trkpt><trkpt lat="45.7336407" lon="11.4644377"><ele>196.66666666666669</ele><time>2026-04-26T15:04:23.6Z</time></trkpt><trkpt lat="45.7334513" lon="11.4644512"><ele>196.33333333333331</ele><time>2026-04-26T15:04:24.587Z</time></trkpt><trkpt lat="45.7332577" lon="11.4644595"><ele>196.0</ele><time>2026-04-26T15:04:25.603Z</time></trkpt><trkpt lat="45.7330579" lon="11.4644747"><ele>196.0</ele><time>2026-04-26T15:04:26.6Z</time></trkpt><trkpt lat="45.7328514" lon="11.4645087"><ele>196.0</ele><time>2026-04-26T15:04:27.599Z</time></trkpt><trkpt lat="45.7326339" lon="11.4645557"><ele>196.0</ele><time>2026-04-26T15:04:28.601Z</time></trkpt><trkpt lat="45.7324143" lon="11.4646065"><ele>195.33333333333331</ele><time>2026-04-26T15:04:29.597Z</time></trkpt><trkpt lat="45.7321952" lon="11.4646596"><ele>194.66666666666669</ele><time>2026-04-26T15:04:30.574Z</time></trkpt><trkpt lat="45.7319778" lon="11.4647131"><ele>194.0</ele><time>2026-04-26T15:04:31.571Z</time></trkpt><trkpt lat="45.7317596" lon="11.4647654"><ele>193.33333333333334</ele><time>2026-04-26T15:04:32.606Z</time></trkpt><trkpt lat="45.7315457" lon="11.4648185"><ele>192.66666666666669</ele><time>2026-04-26T15:04:33.597Z</time></trkpt><trkpt lat="45.7313334" lon="11.4648769"><ele>192.0</ele><time>2026-04-26T15:04:34.592Z</time></trkpt><trkpt lat="45.7311263" lon="11.4649348"><ele>191.33333333333334</ele><time>2026-04-26T15:04:35.594Z</time></trkpt><trkpt lat="45.7309272" lon="11.4649915"><ele>190.66666666666669</ele><time>2026-04-26T15:04:36.583Z</time></trkpt><trkpt lat="45.7307366" lon="11.4650393"><ele>190.0</ele><time>2026-04-26T15:04:37.599Z</time></trkpt><trkpt lat="45.7305574" lon="11.4650866"><ele>190.0</ele><time>2026-04-26T15:04:38.607Z</time></trkpt><trkpt lat="45.7303871" lon="11.4651329"><ele>190.0</ele><time>2026-04-26T15:04:39.566Z</time></trkpt><trkpt lat="45.7268625" lon="11.4661276"><ele>187.66666666666669</ele><time>2026-04-26T15:05:02.247Z</time></trkpt><trkpt lat="45.7266542" lon="11.4661674"><ele>185.33333333333334</ele><time>2026-04-26T15:05:03.555Z</time></trkpt><trkpt lat="45.7265279" lon="11.4661933"><ele>183.0</ele><time>2026-04-26T15:05:04.582Z</time></trkpt><trkpt lat="45.7263954" lon="11.4662377"><ele>183.0</ele><time>2026-04-26T15:05:05.567Z</time></trkpt><trkpt lat="45.7262362" lon="11.4662741"><ele>183.0</ele><time>2026-04-26T15:05:06.59Z</time></trkpt><trkpt lat="45.726088" lon="11.4663179"><ele>183.0</ele><time>2026-04-26T15:05:07.57Z</time></trkpt><trkpt lat="45.7259442" lon="11.4663514"><ele>182.25</ele><time>2026-04-26T15:05:08.595Z</time></trkpt><trkpt lat="45.7258016" lon="11.4663889"><ele>181.5</ele><time>2026-04-26T15:05:09.583Z</time></trkpt><trkpt lat="45.7256621" lon="11.4664284"><ele>180.75</ele><time>2026-04-26T15:05:10.565Z</time></trkpt><trkpt lat="45.725531" lon="11.466466"><ele>180.0</ele><time>2026-04-26T15:05:11.579Z</time></trkpt><trkpt lat="45.7254148" lon="11.4665059"><ele>180.0</ele><time>2026-04-26T15:05:12.565Z</time></trkpt><trkpt lat="45.7253064" lon="11.4665321"><ele>180.0</ele><time>2026-04-26T15:05:13.56Z</time></trkpt><trkpt lat="45.7252117" lon="11.4665539"><ele>180.0</ele><time>2026-04-26T15:05:14.594Z</time></trkpt><trkpt lat="45.7251282" lon="11.466577"><ele>180.0</ele><time>2026-04-26T15:05:15.588Z</time></trkpt><trkpt lat="45.7250631" lon="11.4665931"><ele>180.0</ele><time>2026-04-26T15:05:16.595Z</time></trkpt><trkpt lat="45.7249684" lon="11.4666092"><ele>180.33333333333334</ele><time>2026-04-26T15:05:18.582Z</time></trkpt><trkpt lat="45.7248871" lon="11.4666213"><ele>180.66666666666669</ele><time>2026-04-26T15:05:44.066Z</time></trkpt><trkpt lat="45.7247774" lon="11.4666797"><ele>181.0</ele><time>2026-04-26T15:05:51.486Z</time></trkpt><trkpt lat="45.7236016" lon="11.4667437"><ele>173.0</ele><time>2026-04-26T15:06:06.687Z</time></trkpt><trkpt lat="45.7217509" lon="11.467196"><ele>171.0</ele><time>2026-04-26T15:06:14.016Z</time></trkpt><trkpt lat="45.7206577" lon="11.4680304"><ele>168.0</ele><time>2026-04-26T15:06:21.426Z</time></trkpt><trkpt lat="45.7192177" lon="11.469027"><ele>167.0</ele><time>2026-04-26T15:06:29.141Z</time></trkpt><trkpt lat="45.7181347" lon="11.4703801"><ele>162.0</ele><time>2026-04-26T15:06:36.518Z</time></trkpt><trkpt lat="45.7162554" lon="11.470996"><ele>162.0</ele><time>2026-04-26T15:06:43.916Z</time></trkpt><trkpt lat="45.7160848" lon="11.4715544"><ele>162.0</ele><time>2026-04-26T15:06:51.481Z</time></trkpt><trkpt lat="45.7156585" lon="11.4704003"><ele>160.0</ele><time>2026-04-26T15:06:58.938Z</time></trkpt><trkpt lat="45.7142977" lon="11.4701089"><ele>162.0</ele><time>2026-04-26T15:07:06.324Z</time></trkpt><trkpt lat="45.7137265" lon="11.4690309"><ele>158.0</ele><time>2026-04-26T15:07:13.858Z</time></trkpt><trkpt lat="45.7133831" lon="11.4685855"><ele>158.0</ele><time>2026-04-26T15:07:28.691Z</time></trkpt><trkpt lat="45.7126037" lon="11.4680922"><ele>158.0</ele><time>2026-04-26T15:07:36.114Z</time></trkpt><trkpt lat="45.712512" lon="11.4678948"><ele>158.0</ele><time>2026-04-26T15:07:43.613Z</time></trkpt><trkpt lat="45.7115029" lon="11.4677771"><ele>157.66666666666666</ele><time>2026-04-26T15:07:51.074Z</time></trkpt><trkpt lat="45.711352" lon="11.4677687"><ele>157.33333333333334</ele><time>2026-04-26T15:07:58.612Z</time></trkpt><trkpt lat="45.7112705" lon="11.4677994"><ele>157.0</ele><time>2026-04-26T15:08:06.112Z</time></trkpt><trkpt lat="45.7100378" lon="11.4673109"><ele>153.0</ele><time>2026-04-26T15:08:13.843Z</time></trkpt><trkpt lat="45.709294" lon="11.4674051"><ele>153.0</ele><time>2026-04-26T15:08:20.995Z</time></trkpt><trkpt lat="45.7077519" lon="11.4678157"><ele>150.0</ele><time>2026-04-26T15:08:28.536Z</time></trkpt><trkpt lat="45.7071894" lon="11.46898"><ele>149.0</ele><time>2026-04-26T15:08:35.883Z</time></trkpt><trkpt lat="45.7068825" lon="11.4702347"><ele>148.5</ele><time>2026-04-26T15:08:43.345Z</time></trkpt><trkpt lat="45.7066527" lon="11.4705346"><ele>148.0</ele><time>2026-04-26T15:08:50.782Z</time></trkpt><trkpt lat="45.7060396" lon="11.4705525"><ele>148.0</ele><time>2026-04-26T15:08:58.252Z</time></trkpt><trkpt lat="45.7053646" lon="11.4726106"><ele>145.0</ele><time>2026-04-26T15:09:20.81Z</time></trkpt><trkpt lat="45.7045341" lon="11.4738822"><ele>145.0</ele><time>2026-04-26T15:09:28.419Z</time></trkpt><trkpt lat="45.7044568" lon="11.4739911"><ele>145.0</ele><time>2026-04-26T15:09:35.83Z</time></trkpt><trkpt lat="45.7039756" lon="11.4739798"><ele>144.5</ele><time>2026-04-26T15:09:43.318Z</time></trkpt><trkpt lat="45.7036084" lon="11.4742809"><ele>144.0</ele><time>2026-04-26T15:09:50.868Z</time></trkpt><trkpt lat="45.7030578" lon="11.4751194"><ele>142.0</ele><time>2026-04-26T15:09:58.193Z</time></trkpt><trkpt lat="45.7023412" lon="11.4755068"><ele>142.0</ele><time>2026-04-26T15:10:05.672Z</time></trkpt><trkpt lat="45.7021214" lon="11.4756038"><ele>142.0</ele><time>2026-04-26T15:10:13.17Z</time></trkpt><trkpt lat="45.7012621" lon="11.4760177"><ele>137.0</ele><time>2026-04-26T15:10:20.659Z</time></trkpt><trkpt lat="45.7007097" lon="11.4764731"><ele>137.0</ele><time>2026-04-26T15:10:28.051Z</time></trkpt><trkpt lat="45.7003847" lon="11.4768125"><ele>137.0</ele><time>2026-04-26T15:10:35.629Z</time></trkpt><trkpt lat="45.6997248" lon="11.4780752"><ele>133.0</ele><time>2026-04-26T15:10:43.026Z</time></trkpt><trkpt lat="45.6991926" lon="11.4787663"><ele>131.0</ele><time>2026-04-26T15:10:50.489Z</time></trkpt><trkpt lat="45.6986599" lon="11.4795395"><ele>131.0</ele><time>2026-04-26T15:10:57.993Z</time></trkpt><trkpt lat="45.6985101" lon="11.4799748"><ele>131.0</ele><time>2026-04-26T15:11:05.502Z</time></trkpt><trkpt lat="45.6977182" lon="11.4809761"><ele>128.0</ele><time>2026-04-26T15:11:12.92Z</time></trkpt><trkpt lat="45.6971772" lon="11.4815715"><ele>128.0</ele><time>2026-04-26T15:11:20.394Z</time></trkpt><trkpt lat="45.6967854" lon="11.4820675"><ele>127.0</ele><time>2026-04-26T15:11:27.946Z</time></trkpt><trkpt lat="45.6965562" lon="11.4829243"><ele>128.0</ele><time>2026-04-26T15:11:35.433Z</time></trkpt><trkpt lat="45.6954953" lon="11.483336"><ele>123.0</ele><time>2026-04-26T15:11:42.968Z</time></trkpt><trkpt lat="45.6940439" lon="11.4803008"><ele>117.0</ele><time>2026-04-26T15:12:05.369Z</time></trkpt><trkpt lat="45.6893285" lon="11.4812099"><ele>117.5</ele><time>2026-04-26T15:12:50.409Z</time></trkpt><trkpt lat="45.6892043" lon="11.481531"><ele>118.0</ele><time>2026-04-26T15:12:58.16Z</time></trkpt><trkpt lat="45.689247" lon="11.4820558"><ele>118.0</ele><time>2026-04-26T15:13:05.566Z</time></trkpt><trkpt lat="45.6892418" lon="11.4819449"><ele>118.0</ele><time>2026-04-26T15:13:07.592Z</time></trkpt><trkpt lat="45.6891868" lon="11.4821191"><ele>118.0</ele><time>2026-04-26T15:13:13.571Z</time></trkpt><trkpt lat="45.6892094" lon="11.4818683"><ele>118.0</ele><time>2026-04-26T15:13:18.57Z</time></trkpt><trkpt lat="45.6892121" lon="11.4815488"><ele>117.0</ele><time>2026-04-26T15:14:06.029Z</time></trkpt><trkpt lat="45.6893106" lon="11.4822192"><ele>118.0</ele><time>2026-04-26T15:15:17.851Z</time></trkpt><trkpt lat="45.6892061" lon="11.4815559"><ele>112.0</ele><time>2026-04-26T15:15:36.24Z</time></trkpt><trkpt lat="45.6885017" lon="11.484069"><ele>112.0</ele><time>2026-04-26T15:15:48.235Z</time></trkpt><trkpt lat="45.6883683" lon="11.4842954"><ele>112.0</ele><time>2026-04-26T15:15:55.775Z</time></trkpt><trkpt lat="45.6856317" lon="11.4840298"><ele>110.0</ele><time>2026-04-26T15:16:03.655Z</time></trkpt><trkpt lat="45.6844288" lon="11.4842421"><ele>110.0</ele><time>2026-04-26T15:16:10.653Z</time></trkpt><trkpt lat="45.6852003" lon="11.487576"><ele>105.0</ele><time>2026-04-26T15:16:25.666Z</time></trkpt><trkpt lat="45.6809411" lon="11.4855231"><ele>102.0</ele><time>2026-04-26T15:16:33.073Z</time></trkpt><trkpt lat="45.6791333" lon="11.484569"><ele>97.0</ele><time>2026-04-26T15:16:40.599Z</time></trkpt><trkpt lat="45.6763595" lon="11.4872175"><ele>96.0</ele><time>2026-04-26T15:16:55.625Z</time></trkpt><trkpt lat="45.6749939" lon="11.487347"><ele>95.0</ele><time>2026-04-26T15:17:03.07Z</time></trkpt><trkpt lat="45.6739148" lon="11.4881105"><ele>94.0</ele><time>2026-04-26T15:17:10.789Z</time></trkpt><trkpt lat="45.6728327" lon="11.4883886"><ele>92.0</ele><time>2026-04-26T15:17:18.027Z</time></trkpt><trkpt lat="45.6715509" lon="11.4887559"><ele>91.0</ele><time>2026-04-26T15:17:25.492Z</time></trkpt><trkpt lat="45.6703291" lon="11.489132"><ele>78.0</ele><time>2026-04-26T15:17:33.329Z</time></trkpt><trkpt lat="45.6610136" lon="11.4937115"><ele>76.0</ele><time>2026-04-26T15:18:40.303Z</time></trkpt><trkpt lat="45.6590281" lon="11.4927748"><ele>77.0</ele><time>2026-04-26T15:18:55.451Z</time></trkpt><trkpt lat="45.658441" lon="11.4928668"><ele>76.0</ele><time>2026-04-26T15:19:10.468Z</time></trkpt><trkpt lat="45.6581006" lon="11.4934252"><ele>77.0</ele><time>2026-04-26T15:19:17.713Z</time></trkpt><trkpt lat="45.6568785" lon="11.4932561"><ele>75.0</ele><time>2026-04-26T15:19:25.385Z</time></trkpt><trkpt lat="45.6559911" lon="11.4937616"><ele>75.0</ele><time>2026-04-26T15:19:32.889Z</time></trkpt><trkpt lat="45.6552642" lon="11.4938828"><ele>75.0</ele><time>2026-04-26T15:19:40.074Z</time></trkpt><trkpt lat="45.6545879" lon="11.4941643"><ele>75.0</ele><time>2026-04-26T15:19:47.59Z</time></trkpt><trkpt lat="45.6537919" lon="11.4942605"><ele>74.0</ele><time>2026-04-26T15:19:55.091Z</time></trkpt><trkpt lat="45.6530085" lon="11.4946145"><ele>74.0</ele><time>2026-04-26T15:20:02.455Z</time></trkpt><trkpt lat="45.6522382" lon="11.4946612"><ele>76.0</ele><time>2026-04-26T15:20:10.044Z</time></trkpt><trkpt lat="45.6515792" lon="11.4945274"><ele>73.0</ele><time>2026-04-26T15:20:17.432Z</time></trkpt><trkpt lat="45.6510059" lon="11.4940871"><ele>73.0</ele><time>2026-04-26T15:20:24.952Z</time></trkpt><trkpt lat="45.6503954" lon="11.4939202"><ele>72.0</ele><time>2026-04-26T15:20:32.577Z</time></trkpt><trkpt lat="45.6498619" lon="11.4937337"><ele>70.0</ele><time>2026-04-26T15:20:40.004Z</time></trkpt><trkpt lat="45.6489779" lon="11.493162"><ele>69.0</ele><time>2026-04-26T15:20:47.507Z</time></trkpt><trkpt lat="45.6473123" lon="11.4933263"><ele>69.0</ele><time>2026-04-26T15:20:55.14Z</time></trkpt><trkpt lat="45.6471935" lon="11.4934392"><ele>69.0</ele><time>2026-04-26T15:21:02.379Z</time></trkpt><trkpt lat="45.6452671" lon="11.4920478"><ele>68.0</ele><time>2026-04-26T15:21:09.868Z</time></trkpt><trkpt lat="45.6447846" lon="11.4920279"><ele>66.0</ele><time>2026-04-26T15:21:17.415Z</time></trkpt><trkpt lat="45.6401222" lon="11.4923365"><ele>64.0</ele><time>2026-04-26T15:21:54.584Z</time></trkpt><trkpt lat="45.6393778" lon="11.4896467"><ele>64.0</ele><time>2026-04-26T15:22:02.087Z</time></trkpt><trkpt lat="45.634779" lon="11.491541"><ele>64.0</ele><time>2026-04-26T15:22:09.574Z</time></trkpt><trkpt lat="45.6318077" lon="11.4912704"><ele>64.0</ele><time>2026-04-26T15:22:39.499Z</time></trkpt><trkpt lat="45.6315512" lon="11.4914372"><ele>64.0</ele><time>2026-04-26T15:22:46.934Z</time></trkpt><trkpt lat="45.6269147" lon="11.490957"><ele>59.0</ele><time>2026-04-26T15:23:01.941Z</time></trkpt><trkpt lat="45.6235928" lon="11.4917351"><ele>61.0</ele><time>2026-04-26T15:23:24.419Z</time></trkpt><trkpt lat="45.6217358" lon="11.4915928"><ele>59.0</ele><time>2026-04-26T15:23:32.202Z</time></trkpt><trkpt lat="45.6203556" lon="11.4917485"><ele>57.0</ele><time>2026-04-26T15:23:39.409Z</time></trkpt><trkpt lat="45.6188706" lon="11.4911294"><ele>58.0</ele><time>2026-04-26T15:23:46.903Z</time></trkpt><trkpt lat="45.6178347" lon="11.4908115"><ele>57.0</ele><time>2026-04-26T15:23:54.32Z</time></trkpt><trkpt lat="45.6162084" lon="11.4904601"><ele>53.0</ele><time>2026-04-26T15:24:02.238Z</time></trkpt><trkpt lat="45.6148356" lon="11.489813"><ele>52.0</ele><time>2026-04-26T15:24:09.35Z</time></trkpt><trkpt lat="45.6135457" lon="11.4897084"><ele>55.0</ele><time>2026-04-26T15:24:16.794Z</time></trkpt><trkpt lat="45.611699" lon="11.490684"><ele>53.0</ele><time>2026-04-26T15:24:24.833Z</time></trkpt><trkpt lat="45.610266" lon="11.4907119"><ele>52.0</ele><time>2026-04-26T15:24:31.767Z</time></trkpt><trkpt lat="45.6072343" lon="11.4914849"><ele>53.0</ele><time>2026-04-26T15:24:39.834Z</time></trkpt><trkpt lat="45.6085283" lon="11.4949731"><ele>53.0</ele><time>2026-04-26T15:24:46.643Z</time></trkpt><trkpt lat="45.6058957" lon="11.491533"><ele>52.0</ele><time>2026-04-26T15:24:54.113Z</time></trkpt><trkpt lat="45.6054312" lon="11.4924303"><ele>53.0</ele><time>2026-04-26T15:25:01.531Z</time></trkpt><trkpt lat="45.6047008" lon="11.4929452"><ele>52.0</ele><time>2026-04-26T15:25:09.012Z</time></trkpt><trkpt lat="45.6041852" lon="11.4921638"><ele>52.0</ele><time>2026-04-26T15:25:16.429Z</time></trkpt><trkpt lat="45.6037449" lon="11.4923546"><ele>52.0</ele><time>2026-04-26T15:25:23.882Z</time></trkpt><trkpt lat="45.6028579" lon="11.4932703"><ele>50.0</ele><time>2026-04-26T15:25:31.363Z</time></trkpt><trkpt lat="45.6022513" lon="11.4939586"><ele>48.0</ele><time>2026-04-26T15:25:38.826Z</time></trkpt><trkpt lat="45.6013724" lon="11.4949265"><ele>49.0</ele><time>2026-04-26T15:25:46.238Z</time></trkpt><trkpt lat="45.6008103" lon="11.4945401"><ele>49.0</ele><time>2026-04-26T15:25:53.718Z</time></trkpt><trkpt lat="45.6004716" lon="11.4943085"><ele>49.0</ele><time>2026-04-26T15:26:01.217Z</time></trkpt><trkpt lat="45.5999043" lon="11.4947987"><ele>49.0</ele><time>2026-04-26T15:26:08.655Z</time></trkpt><trkpt lat="45.5989831" lon="11.4954486"><ele>50.5</ele><time>2026-04-26T15:26:23.651Z</time></trkpt><trkpt lat="45.5986426" lon="11.4957181"><ele>52.0</ele><time>2026-04-26T15:26:31.11Z</time></trkpt><trkpt lat="45.5980454" lon="11.4955807"><ele>50.0</ele><time>2026-04-26T15:26:38.455Z</time></trkpt><trkpt lat="45.5972255" lon="11.4959669"><ele>49.0</ele><time>2026-04-26T15:26:45.94Z</time></trkpt><trkpt lat="45.5963912" lon="11.4965152"><ele>49.0</ele><time>2026-04-26T15:26:53.465Z</time></trkpt><trkpt lat="45.5957462" lon="11.4968867"><ele>47.0</ele><time>2026-04-26T15:27:00.785Z</time></trkpt><trkpt lat="45.5953209" lon="11.4966477"><ele>47.0</ele><time>2026-04-26T15:27:08.269Z</time></trkpt><trkpt lat="45.5947819" lon="11.4966297"><ele>46.0</ele><time>2026-04-26T15:27:15.755Z</time></trkpt><trkpt lat="45.5937563" lon="11.4969447"><ele>49.0</ele><time>2026-04-26T15:27:23.221Z</time></trkpt><trkpt lat="45.592816" lon="11.4975722"><ele>49.0</ele><time>2026-04-26T15:27:30.689Z</time></trkpt><trkpt lat="45.5924345" lon="11.497405"><ele>49.0</ele><time>2026-04-26T15:27:38.171Z</time></trkpt><trkpt lat="45.5906086" lon="11.4992945"><ele>43.0</ele><time>2026-04-26T15:27:45.647Z</time></trkpt><trkpt lat="45.5860538" lon="11.5024429"><ele>43.0</ele><time>2026-04-26T15:28:13.072Z</time></trkpt><trkpt lat="45.5858646" lon="11.5028956"><ele>43.0</ele><time>2026-04-26T15:28:20.545Z</time></trkpt><trkpt lat="45.585433" lon="11.504149"><ele>42.0</ele><time>2026-04-26T15:28:28.033Z</time></trkpt><trkpt lat="45.5830611" lon="11.5026213"><ele>42.0</ele><time>2026-04-26T15:28:35.573Z</time></trkpt><trkpt lat="45.5831215" lon="11.502328"><ele>42.0</ele><time>2026-04-26T15:28:43.071Z</time></trkpt><trkpt lat="45.5802531" lon="11.5075078"><ele>42.0</ele><time>2026-04-26T15:29:05.462Z</time></trkpt><trkpt lat="45.5800277" lon="11.5074795"><ele>42.0</ele><time>2026-04-26T15:29:12.925Z</time></trkpt><trkpt lat="45.5801596" lon="11.5076843"><ele>42.0</ele><time>2026-04-26T15:29:20.357Z</time></trkpt><trkpt lat="45.5799967" lon="11.5075715"><ele>39.0</ele><time>2026-04-26T15:29:27.897Z</time></trkpt><trkpt lat="45.5773414" lon="11.5083247"><ele>40.0</ele><time>2026-04-26T15:29:42.843Z</time></trkpt><trkpt lat="45.5754425" lon="11.4923603"><ele>39.0</ele><time>2026-04-26T15:30:20.438Z</time></trkpt><trkpt lat="45.5647564" lon="11.4916993"><ele>39.0</ele><time>2026-04-26T15:30:50.077Z</time></trkpt><trkpt lat="45.5646702" lon="11.4918485"><ele>39.0</ele><time>2026-04-26T15:30:57.605Z</time></trkpt><trkpt lat="45.5613796" lon="11.4999728"><ele>33.0</ele><time>2026-04-26T15:31:12.49Z</time></trkpt><trkpt lat="45.5562637" lon="11.4978697"><ele>34.0</ele><time>2026-04-26T15:31:27.62Z</time></trkpt><trkpt lat="45.5517643" lon="11.4914089"><ele>35.0</ele><time>2026-04-26T15:31:42.678Z</time></trkpt><trkpt lat="45.5402243" lon="11.5094448"><ele>36.0</ele><time>2026-04-26T15:32:35.007Z</time></trkpt><trkpt lat="45.5356102" lon="11.5071494"><ele>33.0</ele><time>2026-04-26T15:32:57.448Z</time></trkpt><trkpt lat="45.5343583" lon="11.5073652"><ele>33.0</ele><time>2026-04-26T15:33:04.98Z</time></trkpt><trkpt lat="45.5344559" lon="11.5068412"><ele>33.0</ele><time>2026-04-26T15:33:12.272Z</time></trkpt><trkpt lat="45.5309666" lon="11.5107072"><ele>32.0</ele><time>2026-04-26T15:33:19.847Z</time></trkpt><trkpt lat="45.5304606" lon="11.5091882"><ele>36.0</ele><time>2026-04-26T15:33:27.304Z</time></trkpt><trkpt lat="45.5291883" lon="11.508626"><ele>31.0</ele><time>2026-04-26T15:33:34.732Z</time></trkpt><trkpt lat="45.5275594" lon="11.5080915"><ele>36.0</ele><time>2026-04-26T15:33:42.185Z</time></trkpt><trkpt lat="45.5267087" lon="11.5090692"><ele>33.0</ele><time>2026-04-26T15:33:49.68Z</time></trkpt><trkpt lat="45.526611" lon="11.5080127"><ele>36.0</ele><time>2026-04-26T15:33:57.384Z</time></trkpt><trkpt lat="45.5265947" lon="11.5065758"><ele>31.0</ele><time>2026-04-26T15:34:04.629Z</time></trkpt><trkpt lat="45.5261466" lon="11.5058403"><ele>31.0</ele><time>2026-04-26T15:34:11.873Z</time></trkpt><trkpt lat="45.5261625" lon="11.505365"><ele>31.0</ele><time>2026-04-26T15:34:19.46Z</time></trkpt><trkpt lat="45.5256361" lon="11.5031096"><ele>33.0</ele><time>2026-04-26T15:34:26.752Z</time></trkpt><trkpt lat="45.5261821" lon="11.5026458"><ele>33.0</ele><time>2026-04-26T15:34:34.277Z</time></trkpt><trkpt lat="45.5275828" lon="11.5013295"><ele>33.5</ele><time>2026-04-26T15:34:41.694Z</time></trkpt><trkpt lat="45.5276714" lon="11.5010201"><ele>34.0</ele><time>2026-04-26T15:34:49.159Z</time></trkpt><trkpt lat="45.5267045" lon="11.4997213"><ele>33.0</ele><time>2026-04-26T15:34:56.903Z</time></trkpt><trkpt lat="45.5258819" lon="11.4982426"><ele>35.0</ele><time>2026-04-26T15:35:04.389Z</time></trkpt><trkpt lat="45.525293" lon="11.4990625"><ele>35.0</ele><time>2026-04-26T15:35:11.503Z</time></trkpt><trkpt lat="45.5247905" lon="11.4987628"><ele>32.0</ele><time>2026-04-26T15:35:19.2Z</time></trkpt><trkpt lat="45.5226129" lon="11.4975788"><ele>34.0</ele><time>2026-04-26T15:35:26.699Z</time></trkpt><trkpt lat="45.5220995" lon="11.4959389"><ele>32.0</ele><time>2026-04-26T15:35:33.914Z</time></trkpt><trkpt lat="45.521871" lon="11.4953019"><ele>31.0</ele><time>2026-04-26T15:35:41.432Z</time></trkpt><trkpt lat="45.5225748" lon="11.4910758"><ele>34.0</ele><time>2026-04-26T15:35:48.87Z</time></trkpt><trkpt lat="45.5211752" lon="11.4900884"><ele>36.0</ele><time>2026-04-26T15:35:56.344Z</time></trkpt><trkpt lat="45.5212236" lon="11.4894349"><ele>34.0</ele><time>2026-04-26T15:36:03.966Z</time></trkpt><trkpt lat="45.521471" lon="11.4887806"><ele>37.0</ele><time>2026-04-26T15:36:11.171Z</time></trkpt><trkpt lat="45.5206025" lon="11.4855981"><ele>30.0</ele><time>2026-04-26T15:36:19.023Z</time></trkpt><trkpt lat="45.5203431" lon="11.4841448"><ele>35.0</ele><time>2026-04-26T15:36:26.142Z</time></trkpt><trkpt lat="45.5199847" lon="11.4821235"><ele>39.0</ele><time>2026-04-26T15:36:33.668Z</time></trkpt><trkpt lat="45.5152001" lon="11.4668731"><ele>42.0</ele><time>2026-04-26T15:37:18.563Z</time></trkpt><trkpt lat="45.5155064" lon="11.4660795"><ele>45.0</ele><time>2026-04-26T15:37:26.245Z</time></trkpt><trkpt lat="45.5143774" lon="11.4595694"><ele>45.0</ele><time>2026-04-26T15:37:41.059Z</time></trkpt><trkpt lat="45.5139376" lon="11.4591933"><ele>45.5</ele><time>2026-04-26T15:37:48.478Z</time></trkpt><trkpt lat="45.5139053" lon="11.4586446"><ele>46.0</ele><time>2026-04-26T15:37:56Z</time></trkpt><trkpt lat="45.5138323" lon="11.458624"><ele>45.0</ele><time>2026-04-26T15:38:03.442Z</time></trkpt><trkpt lat="45.5118739" lon="11.4560299"><ele>45.0</ele><time>2026-04-26T15:38:10.901Z</time></trkpt><trkpt lat="45.5116872" lon="11.4547635"><ele>48.0</ele><time>2026-04-26T15:38:18.513Z</time></trkpt><trkpt lat="45.5119666" lon="11.4529481"><ele>46.0</ele><time>2026-04-26T15:38:25.851Z</time></trkpt><trkpt lat="45.5113432" lon="11.453051"><ele>51.0</ele><time>2026-04-26T15:38:40.788Z</time></trkpt><trkpt lat="45.5067876" lon="11.4492852"><ele>52.0</ele><time>2026-04-26T15:38:48.775Z</time></trkpt><trkpt lat="45.5053068" lon="11.448574"><ele>52.0</ele><time>2026-04-26T15:39:10.743Z</time></trkpt><trkpt lat="45.5052341" lon="11.4483448"><ele>52.0</ele><time>2026-04-26T15:39:18.251Z</time></trkpt><trkpt lat="45.5004992" lon="11.4436889"><ele>51.0</ele><time>2026-04-26T15:39:33.667Z</time></trkpt><trkpt lat="45.4969135" lon="11.4428872"><ele>53.0</ele><time>2026-04-26T15:40:03.557Z</time></trkpt><trkpt lat="45.4959093" lon="11.4419827"><ele>55.0</ele><time>2026-04-26T15:40:18.501Z</time></trkpt><trkpt lat="45.4952015" lon="11.4404597"><ele>56.0</ele><time>2026-04-26T15:40:33.128Z</time></trkpt><trkpt lat="45.4937744" lon="11.4393058"><ele>51.0</ele><time>2026-04-26T15:40:40.443Z</time></trkpt><trkpt lat="45.4903393" lon="11.4383986"><ele>52.0</ele><time>2026-04-26T15:41:02.79Z</time></trkpt><trkpt lat="45.4872293" lon="11.4386762"><ele>53.0</ele><time>2026-04-26T15:41:17.713Z</time></trkpt><trkpt lat="45.4875245" lon="11.4373119"><ele>52.0</ele><time>2026-04-26T15:41:32.636Z</time></trkpt><trkpt lat="45.4860313" lon="11.4360813"><ele>54.0</ele><time>2026-04-26T15:41:40.312Z</time></trkpt><trkpt lat="45.4842616" lon="11.4311475"><ele>53.0</ele><time>2026-04-26T15:42:02.532Z</time></trkpt><trkpt lat="45.4869355" lon="11.4243483"><ele>54.0</ele><time>2026-04-26T15:42:10.009Z</time></trkpt><trkpt lat="45.4872915" lon="11.4230871"><ele>55.0</ele><time>2026-04-26T15:42:39.955Z</time></trkpt><trkpt lat="45.4857281" lon="11.4219248"><ele>53.0</ele><time>2026-04-26T15:42:54.918Z</time></trkpt><trkpt lat="45.4818586" lon="11.4179384"><ele>54.0</ele><time>2026-04-26T15:43:18.062Z</time></trkpt><trkpt lat="45.4760896" lon="11.414181"><ele>53.0</ele><time>2026-04-26T15:43:47.301Z</time></trkpt><trkpt lat="45.4746496" lon="11.4123834"><ele>56.0</ele><time>2026-04-26T15:43:54.766Z</time></trkpt><trkpt lat="45.4698127" lon="11.4081928"><ele>53.0</ele><time>2026-04-26T15:44:09.705Z</time></trkpt><trkpt lat="45.4660645" lon="11.4064078"><ele>54.0</ele><time>2026-04-26T15:44:40.196Z</time></trkpt><trkpt lat="45.4641361" lon="11.4050915"><ele>54.0</ele><time>2026-04-26T15:44:47.903Z</time></trkpt><trkpt lat="45.4639378" lon="11.4050134"><ele>54.0</ele><time>2026-04-26T15:44:54.56Z</time></trkpt><trkpt lat="45.4624833" lon="11.4042415"><ele>54.0</ele><time>2026-04-26T15:45:04.514Z</time></trkpt><trkpt lat="45.4621213" lon="11.4032577"><ele>54.0</ele><time>2026-04-26T15:45:12.067Z</time></trkpt><trkpt lat="45.4567005" lon="11.3902694"><ele>50.0</ele><time>2026-04-26T15:46:26.938Z</time></trkpt><trkpt lat="45.4548046" lon="11.3906156"><ele>50.0</ele><time>2026-04-26T15:46:34.478Z</time></trkpt><trkpt lat="45.4478339" lon="11.3809176"><ele>45.0</ele><time>2026-04-26T15:47:26.852Z</time></trkpt><trkpt lat="45.4468586" lon="11.3794824"><ele>44.0</ele><time>2026-04-26T15:47:34.331Z</time></trkpt><trkpt lat="45.4460246" lon="11.3785397"><ele>45.0</ele><time>2026-04-26T15:47:41.881Z</time></trkpt><trkpt lat="45.445314" lon="11.377055"><ele>45.0</ele><time>2026-04-26T15:47:49.34Z</time></trkpt><trkpt lat="45.4438658" lon="11.3746813"><ele>44.5</ele><time>2026-04-26T15:47:57.032Z</time></trkpt><trkpt lat="45.4437986" lon="11.3747358"><ele>44.0</ele><time>2026-04-26T15:48:04.213Z</time></trkpt><trkpt lat="45.4425224" lon="11.3746249"><ele>44.0</ele><time>2026-04-26T15:48:11.731Z</time></trkpt><trkpt lat="45.4426489" lon="11.3730357"><ele>43.0</ele><time>2026-04-26T15:48:19.287Z</time></trkpt><trkpt lat="45.4424135" lon="11.3747959"><ele>38.0</ele><time>2026-04-26T15:48:26.799Z</time></trkpt><trkpt lat="45.4352644" lon="11.3630993"><ele>41.0</ele><time>2026-04-26T15:48:49.177Z</time></trkpt><trkpt lat="45.4351975" lon="11.3623901"><ele>38.0</ele><time>2026-04-26T15:49:11.678Z</time></trkpt><trkpt lat="45.4340034" lon="11.3616521"><ele>40.0</ele><time>2026-04-26T15:49:19.112Z</time></trkpt><trkpt lat="45.4342763" lon="11.3574731"><ele>40.0</ele><time>2026-04-26T15:49:26.468Z</time></trkpt><trkpt lat="45.4341452" lon="11.3576255"><ele>40.0</ele><time>2026-04-26T15:49:33.935Z</time></trkpt><trkpt lat="45.4326466" lon="11.3544557"><ele>39.0</ele><time>2026-04-26T15:49:41.469Z</time></trkpt><trkpt lat="45.431914" lon="11.3533579"><ele>36.0</ele><time>2026-04-26T15:49:48.899Z</time></trkpt><trkpt lat="45.4300993" lon="11.3509603"><ele>37.0</ele><time>2026-04-26T15:49:56.356Z</time></trkpt><trkpt lat="45.4299002" lon="11.3496835"><ele>36.0</ele><time>2026-04-26T15:50:03.782Z</time></trkpt><trkpt lat="45.4290306" lon="11.3481484"><ele>36.0</ele><time>2026-04-26T15:50:11.277Z</time></trkpt><trkpt lat="45.4285714" lon="11.347046"><ele>36.0</ele><time>2026-04-26T15:50:18.732Z</time></trkpt><trkpt lat="45.4278306" lon="11.344759"><ele>35.0</ele><time>2026-04-26T15:50:26.214Z</time></trkpt><trkpt lat="45.4263351" lon="11.341802"><ele>35.0</ele><time>2026-04-26T15:50:33.784Z</time></trkpt><trkpt lat="45.4253962" lon="11.3411793"><ele>35.0</ele><time>2026-04-26T15:50:41.158Z</time></trkpt><trkpt lat="45.4246954" lon="11.3401587"><ele>35.0</ele><time>2026-04-26T15:50:48.58Z</time></trkpt><trkpt lat="45.4236019" lon="11.33942"><ele>34.0</ele><time>2026-04-26T15:50:57.224Z</time></trkpt><trkpt lat="45.4200892" lon="11.3342028"><ele>34.0</ele><time>2026-04-26T15:51:03.61Z</time></trkpt><trkpt lat="45.4200162" lon="11.3342462"><ele>34.0</ele><time>2026-04-26T15:51:11.056Z</time></trkpt><trkpt lat="45.4158305" lon="11.3275785"><ele>32.0</ele><time>2026-04-26T15:51:41.055Z</time></trkpt><trkpt lat="45.4163974" lon="11.3244553"><ele>32.0</ele><time>2026-04-26T15:51:48.5Z</time></trkpt><trkpt lat="45.4155635" lon="11.3229748"><ele>31.5</ele><time>2026-04-26T15:51:56.062Z</time></trkpt><trkpt lat="45.4152421" lon="11.322864"><ele>31.0</ele><time>2026-04-26T15:52:03.469Z</time></trkpt><trkpt lat="45.414007" lon="11.3152708"><ele>30.0</ele><time>2026-04-26T15:52:33.498Z</time></trkpt><trkpt lat="45.4134228" lon="11.313957"><ele>30.0</ele><time>2026-04-26T15:52:40.986Z</time></trkpt><trkpt lat="45.4081014" lon="11.2987581"><ele>30.0</ele><time>2026-04-26T15:53:41.307Z</time></trkpt><trkpt lat="45.4072285" lon="11.2968426"><ele>31.0</ele><time>2026-04-26T15:53:55.717Z</time></trkpt><trkpt lat="45.4073665" lon="11.2953113"><ele>31.0</ele><time>2026-04-26T15:54:03.233Z</time></trkpt><trkpt lat="45.4070798" lon="11.2948442"><ele>31.0</ele><time>2026-04-26T15:54:10.643Z</time></trkpt><trkpt lat="45.4059688" lon="11.2941351"><ele>29.0</ele><time>2026-04-26T15:54:18.146Z</time></trkpt><trkpt lat="45.4058069" lon="11.2910724"><ele>30.0</ele><time>2026-04-26T15:54:25.665Z</time></trkpt><trkpt lat="45.4055343" lon="11.290262"><ele>28.0</ele><time>2026-04-26T15:54:33.118Z</time></trkpt><trkpt lat="45.4061678" lon="11.2886396"><ele>29.0</ele><time>2026-04-26T15:54:40.507Z</time></trkpt><trkpt lat="45.4060274" lon="11.2856928"><ele>31.0</ele><time>2026-04-26T15:54:48.007Z</time></trkpt><trkpt lat="45.405347" lon="11.284243"><ele>31.0</ele><time>2026-04-26T15:54:55.468Z</time></trkpt><trkpt lat="45.4057258" lon="11.283893"><ele>30.0</ele><time>2026-04-26T15:55:02.996Z</time></trkpt><trkpt lat="45.4051014" lon="11.2803789"><ele>30.0</ele><time>2026-04-26T15:55:10.44Z</time></trkpt><trkpt lat="45.4050006" lon="11.277695"><ele>30.0</ele><time>2026-04-26T15:55:17.88Z</time></trkpt><trkpt lat="45.404168" lon="11.2747427"><ele>30.0</ele><time>2026-04-26T15:55:25.349Z</time></trkpt><trkpt lat="45.4038756" lon="11.2732914"><ele>31.0</ele><time>2026-04-26T15:55:32.895Z</time></trkpt><trkpt lat="45.4040931" lon="11.27108"><ele>29.0</ele><time>2026-04-26T15:55:40.322Z</time></trkpt><trkpt lat="45.403856" lon="11.2693134"><ele>33.0</ele><time>2026-04-26T15:55:47.802Z</time></trkpt><trkpt lat="45.4037996" lon="11.2676638"><ele>31.0</ele><time>2026-04-26T15:55:55.282Z</time></trkpt><trkpt lat="45.4040247" lon="11.2656929"><ele>31.0</ele><time>2026-04-26T15:56:02.721Z</time></trkpt><trkpt lat="45.4036989" lon="11.2632523"><ele>31.5</ele><time>2026-04-26T15:56:17.741Z</time></trkpt><trkpt lat="45.4035586" lon="11.2626953"><ele>32.0</ele><time>2026-04-26T15:56:25.186Z</time></trkpt><trkpt lat="45.4035671" lon="11.2617764"><ele>32.0</ele><time>2026-04-26T15:56:32.632Z</time></trkpt><trkpt lat="45.4031762" lon="11.261046"><ele>29.0</ele><time>2026-04-26T15:56:40.111Z</time></trkpt><trkpt lat="45.4032415" lon="11.2599457"><ele>22.0</ele><time>2026-04-26T15:56:47.762Z</time></trkpt><trkpt lat="45.394737" lon="11.2473153"><ele>22.0</ele><time>2026-04-26T15:57:39.929Z</time></trkpt><trkpt lat="45.3946623" lon="11.247547"><ele>22.0</ele><time>2026-04-26T15:58:57.032Z</time></trkpt><trkpt lat="45.394655" lon="11.2476653"><ele>22.0</ele><time>2026-04-26T15:58:59.041Z</time></trkpt><trkpt lat="45.3947083" lon="11.2475628"><ele>22.0</ele><time>2026-04-26T15:59:03.062Z</time></trkpt><trkpt lat="45.3947661" lon="11.2472403"><ele>22.0</ele><time>2026-04-26T16:06:12.948Z</time></trkpt><trkpt lat="45.3947437" lon="11.2474683"><ele>22.0</ele><time>2026-04-26T16:06:19.599Z</time></trkpt><trkpt lat="45.3946953" lon="11.2475843"><ele>22.0</ele><time>2026-04-26T16:06:26.24Z</time></trkpt><trkpt lat="45.3947544" lon="11.2473211"><ele>22.0</ele><time>2026-04-26T16:07:46.366Z</time></trkpt><trkpt lat="45.3894737" lon="11.2460623"><ele>22.0</ele><time>2026-04-26T16:08:46.15Z</time></trkpt><trkpt lat="45.386163" lon="11.2096926"><ele>23.0</ele><time>2026-04-26T16:10:31.196Z</time></trkpt><trkpt lat="45.3938419" lon="11.1987338"><ele>23.0</ele><time>2026-04-26T16:12:00.534Z</time></trkpt><trkpt lat="45.3993412" lon="11.1715047"><ele>23.0</ele><time>2026-04-26T16:13:56.044Z</time></trkpt><trkpt lat="45.3994572" lon="11.1711939"><ele>23.0</ele><time>2026-04-26T16:13:57.046Z</time></trkpt><trkpt lat="45.3997053" lon="11.170651"><ele>22.666666666666668</ele><time>2026-04-26T16:13:59.045Z</time></trkpt><trkpt lat="45.3998387" lon="11.1703765"><ele>22.333333333333332</ele><time>2026-04-26T16:14:00.048Z</time></trkpt><trkpt lat="45.3999525" lon="11.1701691"><ele>22.0</ele><time>2026-04-26T16:14:01.044Z</time></trkpt><trkpt lat="45.4000584" lon="11.1699087"><ele>22.666666666666664</ele><time>2026-04-26T16:14:02.049Z</time></trkpt><trkpt lat="45.4001521" lon="11.1697087"><ele>23.333333333333332</ele><time>2026-04-26T16:14:03.068Z</time></trkpt><trkpt lat="45.4002823" lon="11.1694446"><ele>24.0</ele><time>2026-04-26T16:14:04.057Z</time></trkpt><trkpt lat="45.4004027" lon="11.169173"><ele>25.5</ele><time>2026-04-26T16:14:05.048Z</time></trkpt><trkpt lat="45.4005341" lon="11.1689105"><ele>27.0</ele><time>2026-04-26T16:14:06.054Z</time></trkpt><trkpt lat="45.4006782" lon="11.1686488"><ele>27.0</ele><time>2026-04-26T16:14:07.046Z</time></trkpt><trkpt lat="45.4008219" lon="11.1683846"><ele>27.0</ele><time>2026-04-26T16:14:08.038Z</time></trkpt><trkpt lat="45.4009658" lon="11.1681165"><ele>28.0</ele><time>2026-04-26T16:14:09.046Z</time></trkpt><trkpt lat="45.4011071" lon="11.1678465"><ele>29.0</ele><time>2026-04-26T16:14:10.047Z</time></trkpt><trkpt lat="45.401244" lon="11.1675808"><ele>28.0</ele><time>2026-04-26T16:14:11.051Z</time></trkpt><trkpt lat="45.4013809" lon="11.1673191"><ele>27.0</ele><time>2026-04-26T16:14:12.05Z</time></trkpt><trkpt lat="45.401517" lon="11.1670533"><ele>27.0</ele><time>2026-04-26T16:14:13.07Z</time></trkpt><trkpt lat="45.4016471" lon="11.1667871"><ele>27.0</ele><time>2026-04-26T16:14:14.069Z</time></trkpt><trkpt lat="45.4017691" lon="11.1665192"><ele>27.333333333333336</ele><time>2026-04-26T16:14:15.073Z</time></trkpt><trkpt lat="45.4018799" lon="11.1662532"><ele>27.666666666666668</ele><time>2026-04-26T16:14:16.046Z</time></trkpt><trkpt lat="45.4019795" lon="11.1659953"><ele>28.0</ele><time>2026-04-26T16:14:17.072Z</time></trkpt><trkpt lat="45.4020655" lon="11.1657478"><ele>28.666666666666668</ele><time>2026-04-26T16:14:18.06Z</time></trkpt><trkpt lat="45.4021354" lon="11.1655082"><ele>29.333333333333336</ele><time>2026-04-26T16:14:19.063Z</time></trkpt><trkpt lat="45.4021962" lon="11.1652772"><ele>30.0</ele><time>2026-04-26T16:14:20.056Z</time></trkpt><trkpt lat="45.4022475" lon="11.1650617"><ele>30.0</ele><time>2026-04-26T16:14:21.06Z</time></trkpt><trkpt lat="45.4022885" lon="11.1648679"><ele>30.0</ele><time>2026-04-26T16:14:22.06Z</time></trkpt><trkpt lat="45.4023262" lon="11.1647039"><ele>30.0</ele><time>2026-04-26T16:14:23.06Z</time></trkpt><trkpt lat="45.4023642" lon="11.1645778"><ele>30.0</ele><time>2026-04-26T16:14:24.064Z</time></trkpt><trkpt lat="45.4024234" lon="11.164459"><ele>29.8</ele><time>2026-04-26T16:14:25.063Z</time></trkpt><trkpt lat="45.4024914" lon="11.1643748"><ele>29.6</ele><time>2026-04-26T16:14:26.058Z</time></trkpt><trkpt lat="45.4025776" lon="11.1643147"><ele>29.4</ele><time>2026-04-26T16:14:27.06Z</time></trkpt><trkpt lat="45.4026696" lon="11.1642656"><ele>29.2</ele><time>2026-04-26T16:14:28.062Z</time></trkpt><trkpt lat="45.4027527" lon="11.1641848"><ele>29.0</ele><time>2026-04-26T16:14:29.077Z</time></trkpt><trkpt lat="45.402802" lon="11.164065"><ele>28.5</ele><time>2026-04-26T16:14:30.06Z</time></trkpt><trkpt lat="45.4028378" lon="11.1639212"><ele>28.0</ele><time>2026-04-26T16:14:31.054Z</time></trkpt><trkpt lat="45.4041435" lon="11.1581785"><ele>28.0</ele><time>2026-04-26T16:14:56.822Z</time></trkpt><trkpt lat="45.4042266" lon="11.1578673"><ele>28.0</ele><time>2026-04-26T16:14:58.045Z</time></trkpt><trkpt lat="45.4042923" lon="11.1576074"><ele>28.0</ele><time>2026-04-26T16:14:59.029Z</time></trkpt><trkpt lat="45.4043539" lon="11.1573612"><ele>27.666666666666668</ele><time>2026-04-26T16:15:00.026Z</time></trkpt><trkpt lat="45.4044492" lon="11.1570687"><ele>27.333333333333336</ele><time>2026-04-26T16:15:01.026Z</time></trkpt><trkpt lat="45.4045268" lon="11.156797"><ele>27.0</ele><time>2026-04-26T16:15:02.029Z</time></trkpt><trkpt lat="45.4046022" lon="11.1565134"><ele>27.333333333333336</ele><time>2026-04-26T16:15:03.028Z</time></trkpt><trkpt lat="45.4046629" lon="11.156245"><ele>27.666666666666668</ele><time>2026-04-26T16:15:04.024Z</time></trkpt><trkpt lat="45.4047342" lon="11.1559718"><ele>28.0</ele><time>2026-04-26T16:15:05.048Z</time></trkpt><trkpt lat="45.4048014" lon="11.1556928"><ele>28.0</ele><time>2026-04-26T16:15:06.038Z</time></trkpt><trkpt lat="45.4048738" lon="11.1554246"><ele>28.0</ele><time>2026-04-26T16:15:07.033Z</time></trkpt><trkpt lat="45.4049419" lon="11.1551627"><ele>28.0</ele><time>2026-04-26T16:15:08.037Z</time></trkpt><trkpt lat="45.4050134" lon="11.154898"><ele>28.333333333333336</ele><time>2026-04-26T16:15:09.026Z</time></trkpt><trkpt lat="45.4050839" lon="11.1546191"><ele>28.666666666666664</ele><time>2026-04-26T16:15:10.027Z</time></trkpt><trkpt lat="45.4051588" lon="11.1543557"><ele>29.0</ele><time>2026-04-26T16:15:11.023Z</time></trkpt><trkpt lat="45.4052372" lon="11.1540803"><ele>29.0</ele><time>2026-04-26T16:15:12.022Z</time></trkpt><trkpt lat="45.4053034" lon="11.1538146"><ele>29.0</ele><time>2026-04-26T16:15:13.024Z</time></trkpt><trkpt lat="45.4053675" lon="11.1535484"><ele>29.0</ele><time>2026-04-26T16:15:14.022Z</time></trkpt><trkpt lat="45.4054343" lon="11.153302"><ele>29.0</ele><time>2026-04-26T16:15:15.06Z</time></trkpt><trkpt lat="45.4055054" lon="11.1530494"><ele>29.0</ele><time>2026-04-26T16:15:16.034Z</time></trkpt><trkpt lat="45.4055674" lon="11.1528164"><ele>29.0</ele><time>2026-04-26T16:15:17.029Z</time></trkpt><trkpt lat="45.4056271" lon="11.1525743"><ele>29.0</ele><time>2026-04-26T16:15:18.031Z</time></trkpt><trkpt lat="45.4056868" lon="11.152334"><ele>29.0</ele><time>2026-04-26T16:15:19.021Z</time></trkpt><trkpt lat="45.4057541" lon="11.1520738"><ele>29.0</ele><time>2026-04-26T16:15:20.035Z</time></trkpt><trkpt lat="45.4058229" lon="11.1518182"><ele>29.0</ele><time>2026-04-26T16:15:21.028Z</time></trkpt><trkpt lat="45.4058916" lon="11.1515552"><ele>29.0</ele><time>2026-04-26T16:15:22.029Z</time></trkpt><trkpt lat="45.4059653" lon="11.1512833"><ele>29.0</ele><time>2026-04-26T16:15:23.047Z</time></trkpt><trkpt lat="45.4060328" lon="11.1510148"><ele>29.0</ele><time>2026-04-26T16:15:24.071Z</time></trkpt><trkpt lat="45.4061018" lon="11.1507552"><ele>29.0</ele><time>2026-04-26T16:15:25.029Z</time></trkpt><trkpt lat="45.4061628" lon="11.1505196"><ele>29.0</ele><time>2026-04-26T16:15:26.027Z</time></trkpt><trkpt lat="45.406215" lon="11.150308"><ele>29.0</ele><time>2026-04-26T16:15:27.048Z</time></trkpt><trkpt lat="45.4062678" lon="11.1501011"><ele>29.0</ele><time>2026-04-26T16:15:28.031Z</time></trkpt><trkpt lat="45.4063184" lon="11.1498966"><ele>29.0</ele><time>2026-04-26T16:15:29.018Z</time></trkpt><trkpt lat="45.406371" lon="11.1496863"><ele>29.0</ele><time>2026-04-26T16:15:30.032Z</time></trkpt><trkpt lat="45.4064273" lon="11.1494625"><ele>29.0</ele><time>2026-04-26T16:15:31.044Z</time></trkpt><trkpt lat="45.4064872" lon="11.1492316"><ele>29.0</ele><time>2026-04-26T16:15:32.036Z</time></trkpt><trkpt lat="45.4065476" lon="11.1489927"><ele>29.333333333333332</ele><time>2026-04-26T16:15:33.042Z</time></trkpt><trkpt lat="45.4066116" lon="11.1487329"><ele>29.666666666666664</ele><time>2026-04-26T16:15:34.054Z</time></trkpt><trkpt lat="45.4066772" lon="11.1484693"><ele>30.0</ele><time>2026-04-26T16:15:35.062Z</time></trkpt><trkpt lat="45.406741" lon="11.1481974"><ele>30.666666666666664</ele><time>2026-04-26T16:15:36.063Z</time></trkpt><trkpt lat="45.4068051" lon="11.1479136"><ele>31.333333333333332</ele><time>2026-04-26T16:15:37.055Z</time></trkpt><trkpt lat="45.4068668" lon="11.1476308"><ele>32.0</ele><time>2026-04-26T16:15:38.053Z</time></trkpt><trkpt lat="45.4069297" lon="11.1473556"><ele>32.33333333333333</ele><time>2026-04-26T16:15:39.04Z</time></trkpt><trkpt lat="45.4069977" lon="11.1470944"><ele>32.666666666666664</ele><time>2026-04-26T16:15:40.073Z</time></trkpt><trkpt lat="45.4070616" lon="11.1468376"><ele>33.0</ele><time>2026-04-26T16:15:41.045Z</time></trkpt><trkpt lat="45.40713" lon="11.1465836"><ele>32.666666666666664</ele><time>2026-04-26T16:15:42.049Z</time></trkpt><trkpt lat="45.4071994" lon="11.1463345"><ele>32.33333333333333</ele><time>2026-04-26T16:15:43.067Z</time></trkpt><trkpt lat="45.4072613" lon="11.1460869"><ele>32.0</ele><time>2026-04-26T16:15:44.027Z</time></trkpt><trkpt lat="45.4073232" lon="11.145851"><ele>32.33333333333333</ele><time>2026-04-26T16:15:45.056Z</time></trkpt><trkpt lat="45.4073881" lon="11.1456121"><ele>32.666666666666664</ele><time>2026-04-26T16:15:46.066Z</time></trkpt><trkpt lat="45.4074505" lon="11.1453817"><ele>33.0</ele><time>2026-04-26T16:15:47.053Z</time></trkpt><trkpt lat="45.4075047" lon="11.1451643"><ele>33.0</ele><time>2026-04-26T16:15:48.045Z</time></trkpt><trkpt lat="45.4075529" lon="11.1449714"><ele>33.0</ele><time>2026-04-26T16:15:49.06Z</time></trkpt><trkpt lat="45.4075944" lon="11.1447916"><ele>33.0</ele><time>2026-04-26T16:15:50.054Z</time></trkpt><trkpt lat="45.4076357" lon="11.1446295"><ele>33.0</ele><time>2026-04-26T16:15:51.05Z</time></trkpt><trkpt lat="45.4076745" lon="11.1444997"><ele>33.0</ele><time>2026-04-26T16:15:52.047Z</time></trkpt><trkpt lat="45.4077087" lon="11.1443955"><ele>33.0</ele><time>2026-04-26T16:15:53.066Z</time></trkpt><trkpt lat="45.4077494" lon="11.1443051"><ele>33.0</ele><time>2026-04-26T16:15:54.067Z</time></trkpt><trkpt lat="45.4078084" lon="11.1442234"><ele>33.0</ele><time>2026-04-26T16:15:55.049Z</time></trkpt><trkpt lat="45.4078872" lon="11.1441609"><ele>33.0</ele><time>2026-04-26T16:15:56.068Z</time></trkpt><trkpt lat="45.4079738" lon="11.1441102"><ele>33.0</ele><time>2026-04-26T16:15:57.056Z</time></trkpt><trkpt lat="45.4080598" lon="11.1440396"><ele>33.0</ele><time>2026-04-26T16:15:58.055Z</time></trkpt><trkpt lat="45.4081233" lon="11.1439299"><ele>33.0</ele><time>2026-04-26T16:15:59.04Z</time></trkpt><trkpt lat="45.4081699" lon="11.1437764"><ele>33.0</ele><time>2026-04-26T16:16:00.044Z</time></trkpt><trkpt lat="45.4106698" lon="11.1354119"><ele>34.0</ele><time>2026-04-26T16:16:40.93Z</time></trkpt><trkpt lat="45.4106986" lon="11.1351852"><ele>35.0</ele><time>2026-04-26T16:16:42.047Z</time></trkpt><trkpt lat="45.410735" lon="11.1350026"><ele>36.0</ele><time>2026-04-26T16:16:43.037Z</time></trkpt><trkpt lat="45.4107907" lon="11.1348559"><ele>37.0</ele><time>2026-04-26T16:16:44.041Z</time></trkpt><trkpt lat="45.4108569" lon="11.1346735"><ele>37.5</ele><time>2026-04-26T16:16:45.041Z</time></trkpt><trkpt lat="45.4109144" lon="11.1344895"><ele>38.0</ele><time>2026-04-26T16:16:46.038Z</time></trkpt><trkpt lat="45.4109765" lon="11.134314"><ele>38.5</ele><time>2026-04-26T16:16:47.05Z</time></trkpt><trkpt lat="45.4110352" lon="11.1341359"><ele>39.0</ele><time>2026-04-26T16:16:48.047Z</time></trkpt><trkpt lat="45.4110937" lon="11.1339577"><ele>39.0</ele><time>2026-04-26T16:16:49.052Z</time></trkpt><trkpt lat="45.4111464" lon="11.1337889"><ele>39.0</ele><time>2026-04-26T16:16:50.033Z</time></trkpt><trkpt lat="45.4111976" lon="11.133625"><ele>39.0</ele><time>2026-04-26T16:16:51.038Z</time></trkpt><trkpt lat="45.4112492" lon="11.133458"><ele>39.0</ele><time>2026-04-26T16:16:52.033Z</time></trkpt><trkpt lat="45.4113003" lon="11.1332887"><ele>39.25</ele><time>2026-04-26T16:16:53.044Z</time></trkpt><trkpt lat="45.4113613" lon="11.133118"><ele>39.5</ele><time>2026-04-26T16:16:54.055Z</time></trkpt><trkpt lat="45.4114145" lon="11.1329515"><ele>39.75</ele><time>2026-04-26T16:16:55.027Z</time></trkpt><trkpt lat="45.4114557" lon="11.1327832"><ele>40.0</ele><time>2026-04-26T16:16:56.022Z</time></trkpt><trkpt lat="45.4114878" lon="11.1326243"><ele>40.0</ele><time>2026-04-26T16:16:57.018Z</time></trkpt><trkpt lat="45.4115263" lon="11.1324844"><ele>40.0</ele><time>2026-04-26T16:16:58.041Z</time></trkpt><trkpt lat="45.4115584" lon="11.1323515"><ele>40.0</ele><time>2026-04-26T16:16:59.051Z</time></trkpt><trkpt lat="45.4115892" lon="11.1322239"><ele>40.0</ele><time>2026-04-26T16:17:00.051Z</time></trkpt><trkpt lat="45.4116271" lon="11.1321143"><ele>40.0</ele><time>2026-04-26T16:17:01.061Z</time></trkpt><trkpt lat="45.4116641" lon="11.1320126"><ele>39.833333333333336</ele><time>2026-04-26T16:17:02.052Z</time></trkpt><trkpt lat="45.4117026" lon="11.1319225"><ele>39.66666666666667</ele><time>2026-04-26T16:17:03.061Z</time></trkpt><trkpt lat="45.4117464" lon="11.131834"><ele>39.5</ele><time>2026-04-26T16:17:04.026Z</time></trkpt><trkpt lat="45.4117951" lon="11.1317486"><ele>39.333333333333336</ele><time>2026-04-26T16:17:05.053Z</time></trkpt><trkpt lat="45.4118484" lon="11.1316836"><ele>39.166666666666664</ele><time>2026-04-26T16:17:06.057Z</time></trkpt><trkpt lat="45.4119108" lon="11.1316152"><ele>39.0</ele><time>2026-04-26T16:17:07.057Z</time></trkpt><trkpt lat="45.4119767" lon="11.131545"><ele>39.0</ele><time>2026-04-26T16:17:08.065Z</time></trkpt><trkpt lat="45.4120413" lon="11.131464"><ele>39.0</ele><time>2026-04-26T16:17:09.034Z</time></trkpt><trkpt lat="45.4121034" lon="11.1313678"><ele>39.0</ele><time>2026-04-26T16:17:10.056Z</time></trkpt><trkpt lat="45.4121396" lon="11.1312502"><ele>39.0</ele><time>2026-04-26T16:17:11.044Z</time></trkpt><trkpt lat="45.4121565" lon="11.1311198"><ele>39.0</ele><time>2026-04-26T16:17:12.03Z</time></trkpt><trkpt lat="45.412134" lon="11.1309849"><ele>39.0</ele><time>2026-04-26T16:17:13.029Z</time></trkpt><trkpt lat="45.412102" lon="11.1308568"><ele>39.0</ele><time>2026-04-26T16:17:14.055Z</time></trkpt><trkpt lat="45.4120676" lon="11.130741"><ele>39.0</ele><time>2026-04-26T16:17:15.07Z</time></trkpt><trkpt lat="45.4120502" lon="11.1306203"><ele>39.0</ele><time>2026-04-26T16:17:16.046Z</time></trkpt><trkpt lat="45.4120572" lon="11.1304824"><ele>39.0</ele><time>2026-04-26T16:17:17.052Z</time></trkpt><trkpt lat="45.412086" lon="11.1303484"><ele>39.0</ele><time>2026-04-26T16:17:18.052Z</time></trkpt><trkpt lat="45.4121252" lon="11.1302007"><ele>39.0</ele><time>2026-04-26T16:17:19.06Z</time></trkpt><trkpt lat="45.4121776" lon="11.1300437"><ele>39.0</ele><time>2026-04-26T16:17:20.066Z</time></trkpt><trkpt lat="45.4122324" lon="11.1298728"><ele>39.0</ele><time>2026-04-26T16:17:21.072Z</time></trkpt><trkpt lat="45.4122923" lon="11.1296944"><ele>39.0</ele><time>2026-04-26T16:17:22.05Z</time></trkpt><trkpt lat="45.4123511" lon="11.1295003"><ele>39.0</ele><time>2026-04-26T16:17:23.04Z</time></trkpt><trkpt lat="45.4124143" lon="11.1293053"><ele>39.0</ele><time>2026-04-26T16:17:24.066Z</time></trkpt><trkpt lat="45.4124816" lon="11.1290932"><ele>39.0</ele><time>2026-04-26T16:17:25.066Z</time></trkpt><trkpt lat="45.4125517" lon="11.1288837"><ele>39.0</ele><time>2026-04-26T16:17:26.061Z</time></trkpt><trkpt lat="45.4126242" lon="11.128672"><ele>39.0</ele><time>2026-04-26T16:17:27.052Z</time></trkpt><trkpt lat="45.415504" lon="11.1094858"><ele>44.0</ele><time>2026-04-26T16:18:44.205Z</time></trkpt><trkpt lat="45.4146513" lon="11.1038405"><ele>43.5</ele><time>2026-04-26T16:19:11.949Z</time></trkpt><trkpt lat="45.4149471" lon="11.1033914"><ele>43.0</ele><time>2026-04-26T16:19:26.856Z</time></trkpt><trkpt lat="45.4145346" lon="11.1024411"><ele>46.0</ele><time>2026-04-26T16:19:34.195Z</time></trkpt><trkpt lat="45.4136928" lon="11.0995171"><ele>46.0</ele><time>2026-04-26T16:19:41.728Z</time></trkpt><trkpt lat="45.4135714" lon="11.0995314"><ele>46.0</ele><time>2026-04-26T16:19:56.59Z</time></trkpt><trkpt lat="45.4077225" lon="11.0946381"><ele>49.0</ele><time>2026-04-26T16:20:05.122Z</time></trkpt><trkpt lat="45.4162052" lon="11.0851149"><ele>45.0</ele><time>2026-04-26T16:20:34.006Z</time></trkpt><trkpt lat="45.4154372" lon="11.0857121"><ele>44.0</ele><time>2026-04-26T16:20:56.416Z</time></trkpt><trkpt lat="45.4114591" lon="11.0864809"><ele>45.0</ele><time>2026-04-26T16:21:03.9Z</time></trkpt><trkpt lat="45.4154586" lon="11.0857409"><ele>45.0</ele><time>2026-04-26T16:21:11.456Z</time></trkpt><trkpt lat="45.4158014" lon="11.0855204"><ele>45.0</ele><time>2026-04-26T16:21:18.91Z</time></trkpt><trkpt lat="45.4154077" lon="11.0856252"><ele>51.0</ele><time>2026-04-26T16:21:41.338Z</time></trkpt><trkpt lat="45.4163465" lon="11.0847611"><ele>51.0</ele><time>2026-04-26T16:21:48.662Z</time></trkpt><trkpt lat="45.4165532" lon="11.084723"><ele>51.0</ele><time>2026-04-26T16:21:56.722Z</time></trkpt><trkpt lat="45.4188496" lon="11.0829461"><ele>42.0</ele><time>2026-04-26T16:22:03.758Z</time></trkpt><trkpt lat="45.4193214" lon="11.0765479"><ele>48.0</ele><time>2026-04-26T16:22:26.373Z</time></trkpt><trkpt lat="45.4238047" lon="11.0754505"><ele>48.0</ele><time>2026-04-26T16:22:41.171Z</time></trkpt><trkpt lat="45.4236611" lon="11.0741547"><ele>56.0</ele><time>2026-04-26T16:22:48.625Z</time></trkpt><trkpt lat="45.4348828" lon="11.0603839"><ele>55.0</ele><time>2026-04-26T16:23:27.466Z</time></trkpt><trkpt lat="45.4341517" lon="11.0609636"><ele>52.0</ele><time>2026-04-26T16:23:40.677Z</time></trkpt><trkpt lat="45.4362423" lon="11.0607992"><ele>58.0</ele><time>2026-04-26T16:23:48.197Z</time></trkpt><trkpt lat="45.4360892" lon="11.0582445"><ele>58.0</ele><time>2026-04-26T16:23:55.624Z</time></trkpt><trkpt lat="45.4472466" lon="11.0481393"><ele>65.0</ele><time>2026-04-26T16:24:25.509Z</time></trkpt><trkpt lat="45.4494848" lon="11.0441516"><ele>58.0</ele><time>2026-04-26T16:25:25.199Z</time></trkpt><trkpt lat="45.4524932" lon="11.0522621"><ele>58.0</ele><time>2026-04-26T16:26:32.544Z</time></trkpt><trkpt lat="45.4542106" lon="11.0578422"><ele>57.0</ele><time>2026-04-26T16:26:54.936Z</time></trkpt><trkpt lat="45.4552696" lon="11.0593831"><ele>57.0</ele><time>2026-04-26T16:27:09.926Z</time></trkpt><trkpt lat="45.455297" lon="11.0595766"><ele>57.0</ele><time>2026-04-26T16:27:17.39Z</time></trkpt><trkpt lat="45.4549943" lon="11.0584788"><ele>56.66666666666667</ele><time>2026-04-26T16:27:32.277Z</time></trkpt><trkpt lat="45.4551732" lon="11.0584387"><ele>56.333333333333336</ele><time>2026-04-26T16:28:29.59Z</time></trkpt><trkpt lat="45.4550224" lon="11.0584633"><ele>56.0</ele><time>2026-04-26T16:28:38.174Z</time></trkpt><trkpt lat="45.4562244" lon="11.0592807"><ele>60.0</ele><time>2026-04-26T16:28:52.009Z</time></trkpt><trkpt lat="45.4553055" lon="11.058016"><ele>54.0</ele><time>2026-04-26T16:29:11.59Z</time></trkpt><trkpt lat="45.4560823" lon="11.0590683"><ele>55.0</ele><time>2026-04-26T16:29:42.728Z</time></trkpt><trkpt lat="45.4554754" lon="11.0605502"><ele>54.0</ele><time>2026-04-26T16:30:05.609Z</time></trkpt><trkpt lat="45.4561257" lon="11.0591557"><ele>55.0</ele><time>2026-04-26T16:30:33.247Z</time></trkpt><trkpt lat="45.4555112" lon="11.0602764"><ele>60.0</ele><time>2026-04-26T16:31:13.726Z</time></trkpt><trkpt lat="45.4553897" lon="11.0577012"><ele>58.33333333333333</ele><time>2026-04-26T16:31:47.934Z</time></trkpt><trkpt lat="45.4553745" lon="11.05738"><ele>56.666666666666664</ele><time>2026-04-26T16:31:53.687Z</time></trkpt><trkpt lat="45.4553697" lon="11.0572776"><ele>55.0</ele><time>2026-04-26T16:31:59.399Z</time></trkpt><trkpt lat="45.4576279" lon="11.0629024"><ele>88.0</ele><time>2026-04-26T16:33:48.044Z</time></trkpt><trkpt lat="45.4551863" lon="11.0565443"><ele>54.0</ele><time>2026-04-26T16:36:51.224Z</time></trkpt><trkpt lat="45.4560094" lon="11.0588415"><ele>54.0</ele><time>2026-04-26T16:37:42.759Z</time></trkpt><trkpt lat="45.4561945" lon="11.0593584"><ele>54.0</ele><time>2026-04-26T16:37:48.28Z</time></trkpt><trkpt lat="45.4555841" lon="11.0581181"><ele>57.0</ele><time>2026-04-26T16:37:54.288Z</time></trkpt><trkpt lat="45.4553602" lon="11.0576362"><ele>60.0</ele><time>2026-04-26T16:37:59.648Z</time></trkpt><trkpt lat="45.4553221" lon="11.0575409"><ele>55.0</ele><time>2026-04-26T16:38:05.384Z</time></trkpt><trkpt lat="45.4579147" lon="11.0630146"><ele>75.0</ele><time>2026-04-26T16:39:08.362Z</time></trkpt><trkpt lat="45.4551101" lon="11.0570511"><ele>60.0</ele><time>2026-04-26T16:40:10.001Z</time></trkpt><trkpt lat="45.455388" lon="11.0576678"><ele>55.0</ele><time>2026-04-26T16:45:57.34Z</time></trkpt><trkpt lat="45.4579147" lon="11.0630146"><ele>75.0</ele><time>2026-04-26T16:46:02.979Z</time></trkpt><trkpt lat="45.4551079" lon="11.0570753"><ele>75.0</ele><time>2026-04-26T16:47:44.022Z</time></trkpt></trkseg></trk></gpx>